<?xml version='1.0' encoding='UTF-8'?><gpx version="1.1" creator="JPX - https://github.com/jenetics/jpx" xmlns="http://www.topografix.com/GPX/1/1"><trk><trkseg><trkpt lat="44.33014854516321" lon="11.406318726211616"><ele>201.0</ele><time>2026-04-30T06:42:15Z</time></trkpt><trkpt lat="44.32981653318061" lon="11.406289892800995"><ele>201.0</ele><time>2026-04-30T06:42:17Z</time></trkpt><trkpt lat="44.32975644223607" lon="11.406262887093867"><ele>201.0</ele><time>2026-04-30T06:52:36Z</time></trkpt><trkpt lat="44.32976112872905" lon="11.40635595203412"><ele>201.0</ele><time>2026-04-30T06:56:03Z</time></trkpt><trkpt lat="44.32968526736648" lon="11.406380492541107"><ele>201.0</ele><time>2026-04-30T06:57:37Z</time></trkpt><trkpt lat="44.32962253673178" lon="11.40640995631994"><ele>201.0</ele><time>2026-04-30T06:57:39Z</time></trkpt><trkpt lat="44.3295596858488" lon="11.406446256843388"><ele>201.0</ele><time>2026-04-30T06:57:42Z</time></trkpt><trkpt lat="44.32949539092444" lon="11.406462861402435"><ele>201.0</ele><time>2026-04-30T06:57:44Z</time></trkpt><trkpt lat="44.329403872311275" lon="11.406498423258876"><ele>201.0</ele><time>2026-04-30T06:57:46Z</time></trkpt><trkpt lat="44.329289971276566" lon="11.406544700808862"><ele>201.0</ele><time>2026-04-30T06:57:48Z</time></trkpt><trkpt lat="44.32922702115424" lon="11.406575128400704"><ele>201.0</ele><time>2026-04-30T06:57:49Z</time></trkpt><trkpt lat="44.32915511624087" lon="11.406589684156696"><ele>201.0</ele><time>2026-04-30T06:57:50Z</time></trkpt><trkpt lat="44.32908765044602" lon="11.406617416907123"><ele>201.0</ele><time>2026-04-30T06:57:51Z</time></trkpt><trkpt lat="44.328957623930584" lon="11.406663198090117"><ele>201.0</ele><time>2026-04-30T06:57:53Z</time></trkpt><trkpt lat="44.32885990668836" lon="11.406716666384085"><ele>201.0</ele><time>2026-04-30T06:57:55Z</time></trkpt><trkpt lat="44.32878470768552" lon="11.40671642731889"><ele>202.0</ele><time>2026-04-30T06:57:56Z</time></trkpt><trkpt lat="44.328715421618064" lon="11.406757668720763"><ele>203.0</ele><time>2026-04-30T06:57:57Z</time></trkpt><trkpt lat="44.32864059099504" lon="11.406713321049073"><ele>204.0</ele><time>2026-04-30T06:57:59Z</time></trkpt><trkpt lat="44.328549946964394" lon="11.406608966436798"><ele>205.0</ele><time>2026-04-30T06:58:07Z</time></trkpt><trkpt lat="44.32852552101564" lon="11.406489126350133"><ele>206.0</ele><time>2026-04-30T06:58:08Z</time></trkpt><trkpt lat="44.32850119435819" lon="11.406341641651741"><ele>205.75</ele><time>2026-04-30T06:58:09Z</time></trkpt><trkpt lat="44.328472475905414" lon="11.40617219283409"><ele>205.5</ele><time>2026-04-30T06:58:10Z</time></trkpt><trkpt lat="44.32843041782239" lon="11.405978870668253"><ele>205.25</ele><time>2026-04-30T06:58:11Z</time></trkpt><trkpt lat="44.32837415991033" lon="11.405775104452024"><ele>205.0</ele><time>2026-04-30T06:58:12Z</time></trkpt><trkpt lat="44.328300098186126" lon="11.405575721329338"><ele>205.0</ele><time>2026-04-30T06:58:13Z</time></trkpt><trkpt lat="44.32820213674124" lon="11.405381605565308"><ele>205.0</ele><time>2026-04-30T06:58:14Z</time></trkpt><trkpt lat="44.32807460284543" lon="11.405195364473451"><ele>205.0</ele><time>2026-04-30T06:58:15Z</time></trkpt><trkpt lat="44.327942477372346" lon="11.405033025818986"><ele>205.0</ele><time>2026-04-30T06:58:16Z</time></trkpt><trkpt lat="44.32781309969934" lon="11.404912565462693"><ele>205.0</ele><time>2026-04-30T06:58:17Z</time></trkpt><trkpt lat="44.32768301861988" lon="11.404832097791102"><ele>205.0</ele><time>2026-04-30T06:58:18Z</time></trkpt><trkpt lat="44.32754243374602" lon="11.404784295836722"><ele>205.0</ele><time>2026-04-30T06:58:19Z</time></trkpt><trkpt lat="44.32739110067365" lon="11.404762278359042"><ele>205.0</ele><time>2026-04-30T06:58:20Z</time></trkpt><trkpt lat="44.327257241548594" lon="11.404760829426332"><ele>205.0</ele><time>2026-04-30T06:58:21Z</time></trkpt><trkpt lat="44.327132990009346" lon="11.404759334546998"><ele>205.0</ele><time>2026-04-30T06:58:22Z</time></trkpt><trkpt lat="44.327008148994295" lon="11.404724883014653"><ele>205.0</ele><time>2026-04-30T06:58:23Z</time></trkpt><trkpt lat="44.32687774722258" lon="11.404720365364055"><ele>206.25</ele><time>2026-04-30T06:58:24Z</time></trkpt><trkpt lat="44.32674502861325" lon="11.404717770141286"><ele>207.5</ele><time>2026-04-30T06:58:25Z</time></trkpt><trkpt lat="44.32662288381469" lon="11.404718454247904"><ele>208.75</ele><time>2026-04-30T06:58:26Z</time></trkpt><trkpt lat="44.326514033804074" lon="11.404742441203814"><ele>210.0</ele><time>2026-04-30T06:58:27Z</time></trkpt><trkpt lat="44.32640729295363" lon="11.404721012913704"><ele>210.0</ele><time>2026-04-30T06:58:28Z</time></trkpt><trkpt lat="44.32629771465184" lon="11.404722481792936"><ele>210.0</ele><time>2026-04-30T06:58:29Z</time></trkpt><trkpt lat="44.3262063762552" lon="11.404725406202056"><ele>210.0</ele><time>2026-04-30T06:58:30Z</time></trkpt><trkpt lat="44.326113581427144" lon="11.404750200592881"><ele>210.0</ele><time>2026-04-30T06:58:31Z</time></trkpt><trkpt lat="44.326015842308166" lon="11.404754254710681"><ele>210.0</ele><time>2026-04-30T06:58:32Z</time></trkpt><trkpt lat="44.32590841389879" lon="11.404752877107994"><ele>210.0</ele><time>2026-04-30T06:58:33Z</time></trkpt><trkpt lat="44.32579793145063" lon="11.40472878492457"><ele>210.0</ele><time>2026-04-30T06:58:34Z</time></trkpt><trkpt lat="44.325688388457046" lon="11.404715462461775"><ele>210.0</ele><time>2026-04-30T06:58:35Z</time></trkpt><trkpt lat="44.325571629862814" lon="11.404694869700073"><ele>210.0</ele><time>2026-04-30T06:58:36Z</time></trkpt><trkpt lat="44.32545624309171" lon="11.40467050584643"><ele>209.6</ele><time>2026-04-30T06:58:37Z</time></trkpt><trkpt lat="44.325342527936904" lon="11.404636618507505"><ele>209.2</ele><time>2026-04-30T06:58:38Z</time></trkpt><trkpt lat="44.325228995431104" lon="11.404624404031859"><ele>208.8</ele><time>2026-04-30T06:58:39Z</time></trkpt><trkpt lat="44.32512992963679" lon="11.404582534047147"><ele>208.4</ele><time>2026-04-30T06:58:40Z</time></trkpt><trkpt lat="44.32502051787217" lon="11.404538899918327"><ele>208.0</ele><time>2026-04-30T06:58:41Z</time></trkpt><trkpt lat="44.3249045031141" lon="11.404499288174815"><ele>208.0</ele><time>2026-04-30T06:58:42Z</time></trkpt><trkpt lat="44.324784254938905" lon="11.404469604011092"><ele>208.0</ele><time>2026-04-30T06:58:43Z</time></trkpt><trkpt lat="44.32466327935823" lon="11.404458555506677"><ele>208.0</ele><time>2026-04-30T06:58:44Z</time></trkpt><trkpt lat="44.324539785237164" lon="11.404468652158803"><ele>208.0</ele><time>2026-04-30T06:58:45Z</time></trkpt><trkpt lat="44.32443195748368" lon="11.404486146900567"><ele>208.0</ele><time>2026-04-30T06:58:46Z</time></trkpt><trkpt lat="44.32433530694444" lon="11.404513163235606"><ele>208.0</ele><time>2026-04-30T06:58:47Z</time></trkpt><trkpt lat="44.32423643691777" lon="11.40454702636469"><ele>208.0</ele><time>2026-04-30T06:58:48Z</time></trkpt><trkpt lat="44.32413060881635" lon="11.404584163522237"><ele>208.0</ele><time>2026-04-30T06:58:49Z</time></trkpt><trkpt lat="44.324021231668304" lon="11.404628878235586"><ele>208.0</ele><time>2026-04-30T06:58:50Z</time></trkpt><trkpt lat="44.32391410985082" lon="11.404683404800467"><ele>210.25</ele><time>2026-04-30T06:58:51Z</time></trkpt><trkpt lat="44.32380927753579" lon="11.404750928337794"><ele>212.5</ele><time>2026-04-30T06:58:52Z</time></trkpt><trkpt lat="44.32370609634235" lon="11.404825849562082"><ele>214.75</ele><time>2026-04-30T06:58:53Z</time></trkpt><trkpt lat="44.323609291483336" lon="11.404909082250223"><ele>217.0</ele><time>2026-04-30T06:58:54Z</time></trkpt><trkpt lat="44.32351376653775" lon="11.405004230730233"><ele>217.0</ele><time>2026-04-30T06:58:55Z</time></trkpt><trkpt lat="44.32341586662208" lon="11.405099947952984"><ele>217.0</ele><time>2026-04-30T06:58:56Z</time></trkpt><trkpt lat="44.32331496270171" lon="11.405198947436133"><ele>217.0</ele><time>2026-04-30T06:58:57Z</time></trkpt><trkpt lat="44.32321025144287" lon="11.405287540559174"><ele>217.0</ele><time>2026-04-30T06:58:58Z</time></trkpt><trkpt lat="44.32310411323214" lon="11.405356780579924"><ele>215.75</ele><time>2026-04-30T06:58:59Z</time></trkpt><trkpt lat="44.32300382552427" lon="11.405401475498115"><ele>214.5</ele><time>2026-04-30T06:59:00Z</time></trkpt><trkpt lat="44.322896936790414" lon="11.40543128546015"><ele>213.25</ele><time>2026-04-30T06:59:01Z</time></trkpt><trkpt lat="44.32277117240107" lon="11.405443274753681"><ele>212.0</ele><time>2026-04-30T06:59:02Z</time></trkpt><trkpt lat="44.322637324339446" lon="11.405455897629748"><ele>212.0</ele><time>2026-04-30T06:59:03Z</time></trkpt><trkpt lat="44.322502880433746" lon="11.405468749838391"><ele>212.0</ele><time>2026-04-30T06:59:04Z</time></trkpt><trkpt lat="44.32237515484259" lon="11.405480524642027"><ele>212.0</ele><time>2026-04-30T06:59:05Z</time></trkpt><trkpt lat="44.32224388532401" lon="11.405490859672069"><ele>212.0</ele><time>2026-04-30T06:59:06Z</time></trkpt><trkpt lat="44.32211706638054" lon="11.405511326884431"><ele>214.2</ele><time>2026-04-30T06:59:07Z</time></trkpt><trkpt lat="44.322009519649114" lon="11.405549855966076"><ele>216.39999999999998</ele><time>2026-04-30T06:59:08Z</time></trkpt><trkpt lat="44.32189550338545" lon="11.405600124235711"><ele>218.60000000000002</ele><time>2026-04-30T06:59:09Z</time></trkpt><trkpt lat="44.32178801537158" lon="11.405653051609272"><ele>220.8</ele><time>2026-04-30T06:59:10Z</time></trkpt><trkpt lat="44.32169626942534" lon="11.405698822028866"><ele>223.0</ele><time>2026-04-30T06:59:11Z</time></trkpt><trkpt lat="44.32161305217392" lon="11.405738512673885"><ele>223.0</ele><time>2026-04-30T06:59:12Z</time></trkpt><trkpt lat="44.32153633209002" lon="11.405766547361303"><ele>223.0</ele><time>2026-04-30T06:59:13Z</time></trkpt><trkpt lat="44.32143751483426" lon="11.405784093289272"><ele>223.0</ele><time>2026-04-30T06:59:14Z</time></trkpt><trkpt lat="44.32132193441176" lon="11.405785473214335"><ele>223.0</ele><time>2026-04-30T06:59:15Z</time></trkpt><trkpt lat="44.321192500848326" lon="11.405768334928496"><ele>223.0</ele><time>2026-04-30T06:59:16Z</time></trkpt><trkpt lat="44.32106465136592" lon="11.405705898989652"><ele>225.25</ele><time>2026-04-30T06:59:17Z</time></trkpt><trkpt lat="44.3209522314613" lon="11.405659817592616"><ele>227.5</ele><time>2026-04-30T06:59:18Z</time></trkpt><trkpt lat="44.32083858612265" lon="11.405600978099587"><ele>229.75</ele><time>2026-04-30T06:59:19Z</time></trkpt><trkpt lat="44.32073039968881" lon="11.405535051741625"><ele>232.0</ele><time>2026-04-30T06:59:20Z</time></trkpt><trkpt lat="44.32064949164309" lon="11.40543245869512"><ele>233.25</ele><time>2026-04-30T06:59:21Z</time></trkpt><trkpt lat="44.320567368855876" lon="11.405299491794226"><ele>234.5</ele><time>2026-04-30T06:59:22Z</time></trkpt><trkpt lat="44.32048024819279" lon="11.405148049067547"><ele>235.75</ele><time>2026-04-30T06:59:23Z</time></trkpt><trkpt lat="44.32039651186191" lon="11.40499463604949"><ele>237.0</ele><time>2026-04-30T06:59:24Z</time></trkpt><trkpt lat="44.32032674934102" lon="11.40485849727784"><ele>237.0</ele><time>2026-04-30T06:59:25Z</time></trkpt><trkpt lat="44.32025787638586" lon="11.404716480024602"><ele>237.0</ele><time>2026-04-30T06:59:26Z</time></trkpt><trkpt lat="44.32018871250952" lon="11.404573362720798"><ele>237.0</ele><time>2026-04-30T06:59:27Z</time></trkpt><trkpt lat="44.320119935134684" lon="11.40443249623259"><ele>237.0</ele><time>2026-04-30T06:59:28Z</time></trkpt><trkpt lat="44.320046191953445" lon="11.404289282648715"><ele>231.75</ele><time>2026-04-30T06:59:29Z</time></trkpt><trkpt lat="44.319970449580005" lon="11.404141581256486"><ele>226.5</ele><time>2026-04-30T06:59:30Z</time></trkpt><trkpt lat="44.319902776502495" lon="11.404012638675201"><ele>221.25</ele><time>2026-04-30T06:59:31Z</time></trkpt><trkpt lat="44.31983453672436" lon="11.403878848825256"><ele>216.0</ele><time>2026-04-30T06:59:32Z</time></trkpt><trkpt lat="44.31975757479333" lon="11.403732414593248"><ele>218.75</ele><time>2026-04-30T06:59:33Z</time></trkpt><trkpt lat="44.319672389169845" lon="11.403573500498085"><ele>221.5</ele><time>2026-04-30T06:59:34Z</time></trkpt><trkpt lat="44.319593846690246" lon="11.403438666259836"><ele>224.25</ele><time>2026-04-30T06:59:35Z</time></trkpt><trkpt lat="44.319506530466185" lon="11.403324864030148"><ele>227.0</ele><time>2026-04-30T06:59:36Z</time></trkpt><trkpt lat="44.31940038764458" lon="11.403229144861664"><ele>227.0</ele><time>2026-04-30T06:59:37Z</time></trkpt><trkpt lat="44.31927338402908" lon="11.403160167849713"><ele>227.0</ele><time>2026-04-30T06:59:38Z</time></trkpt><trkpt lat="44.3191382438776" lon="11.403110918288512"><ele>227.0</ele><time>2026-04-30T06:59:39Z</time></trkpt><trkpt lat="44.31900583907961" lon="11.403079291314631"><ele>227.0</ele><time>2026-04-30T06:59:40Z</time></trkpt><trkpt lat="44.318878603234495" lon="11.40305190000765"><ele>227.75</ele><time>2026-04-30T06:59:41Z</time></trkpt><trkpt lat="44.3187555843852" lon="11.403011967031116"><ele>228.5</ele><time>2026-04-30T06:59:42Z</time></trkpt><trkpt lat="44.31863970022881" lon="11.402978119456304"><ele>229.25</ele><time>2026-04-30T06:59:43Z</time></trkpt><trkpt lat="44.31851790976667" lon="11.402952998359204"><ele>230.0</ele><time>2026-04-30T06:59:44Z</time></trkpt><trkpt lat="44.31839435819908" lon="11.40294473121934"><ele>230.0</ele><time>2026-04-30T06:59:45Z</time></trkpt><trkpt lat="44.318275750122524" lon="11.40297902578606"><ele>230.0</ele><time>2026-04-30T06:59:46Z</time></trkpt><trkpt lat="44.318160280334006" lon="11.4030501165055"><ele>230.0</ele><time>2026-04-30T06:59:47Z</time></trkpt><trkpt lat="44.318045930260055" lon="11.403142876011295"><ele>230.0</ele><time>2026-04-30T06:59:48Z</time></trkpt><trkpt lat="44.31792091618719" lon="11.403192010135726"><ele>229.5</ele><time>2026-04-30T06:59:49Z</time></trkpt><trkpt lat="44.31780278764317" lon="11.403254027913384"><ele>229.0</ele><time>2026-04-30T06:59:50Z</time></trkpt><trkpt lat="44.31768163880417" lon="11.403265286993825"><ele>228.5</ele><time>2026-04-30T06:59:51Z</time></trkpt><trkpt lat="44.31756810779427" lon="11.403267341221605"><ele>228.0</ele><time>2026-04-30T06:59:52Z</time></trkpt><trkpt lat="44.317448536225605" lon="11.403269920237301"><ele>228.0</ele><time>2026-04-30T06:59:53Z</time></trkpt><trkpt lat="44.31732549951034" lon="11.403288984728167"><ele>228.0</ele><time>2026-04-30T06:59:54Z</time></trkpt><trkpt lat="44.317199453386145" lon="11.403327407182143"><ele>228.0</ele><time>2026-04-30T06:59:55Z</time></trkpt><trkpt lat="44.317068416128194" lon="11.403381354897927"><ele>228.0</ele><time>2026-04-30T06:59:56Z</time></trkpt><trkpt lat="44.31694660003562" lon="11.40342590112069"><ele>227.5</ele><time>2026-04-30T06:59:57Z</time></trkpt><trkpt lat="44.31683099700292" lon="11.40346171742154"><ele>227.0</ele><time>2026-04-30T06:59:58Z</time></trkpt><trkpt lat="44.31671495481118" lon="11.403494144474038"><ele>226.5</ele><time>2026-04-30T06:59:59Z</time></trkpt><trkpt lat="44.31659749843241" lon="11.40353083060236"><ele>226.0</ele><time>2026-04-30T07:00:00Z</time></trkpt><trkpt lat="44.316488422081086" lon="11.403563136204092"><ele>228.20000000000002</ele><time>2026-04-30T07:00:01Z</time></trkpt><trkpt lat="44.316385099594285" lon="11.403574704676274"><ele>230.40000000000003</ele><time>2026-04-30T07:00:02Z</time></trkpt><trkpt lat="44.31628184681265" lon="11.403556746361721"><ele>232.6</ele><time>2026-04-30T07:00:03Z</time></trkpt><trkpt lat="44.316190404579906" lon="11.403505025995722"><ele>234.8</ele><time>2026-04-30T07:00:04Z</time></trkpt><trkpt lat="44.316118050679755" lon="11.403396418368038"><ele>237.0</ele><time>2026-04-30T07:00:05Z</time></trkpt><trkpt lat="44.31603777593665" lon="11.403287656218666"><ele>237.0</ele><time>2026-04-30T07:00:06Z</time></trkpt><trkpt lat="44.315943950331494" lon="11.403167985371496"><ele>237.0</ele><time>2026-04-30T07:00:07Z</time></trkpt><trkpt lat="44.31585408508655" lon="11.403024684345711"><ele>237.0</ele><time>2026-04-30T07:00:08Z</time></trkpt><trkpt lat="44.31576982556671" lon="11.40290183215481"><ele>237.0</ele><time>2026-04-30T07:00:09Z</time></trkpt><trkpt lat="44.31568526911836" lon="11.402787123375642"><ele>234.25</ele><time>2026-04-30T07:00:10Z</time></trkpt><trkpt lat="44.315586776760284" lon="11.402674734748755"><ele>231.5</ele><time>2026-04-30T07:00:11Z</time></trkpt><trkpt lat="44.315488191057256" lon="11.402570127060827"><ele>228.75</ele><time>2026-04-30T07:00:12Z</time></trkpt><trkpt lat="44.31539451944148" lon="11.402476209607203"><ele>226.0</ele><time>2026-04-30T07:00:13Z</time></trkpt><trkpt lat="44.31528668200431" lon="11.402379697925186"><ele>226.0</ele><time>2026-04-30T07:00:14Z</time></trkpt><trkpt lat="44.31516751038402" lon="11.40230506643319"><ele>226.0</ele><time>2026-04-30T07:00:15Z</time></trkpt><trkpt lat="44.31503905521441" lon="11.402265322065846"><ele>226.0</ele><time>2026-04-30T07:00:16Z</time></trkpt><trkpt lat="44.31490084263764" lon="11.402258323763645"><ele>226.0</ele><time>2026-04-30T07:00:17Z</time></trkpt><trkpt lat="44.31475987896251" lon="11.402273408990105"><ele>225.5</ele><time>2026-04-30T07:00:18Z</time></trkpt><trkpt lat="44.31461835077924" lon="11.402297093336193"><ele>225.0</ele><time>2026-04-30T07:00:19Z</time></trkpt><trkpt lat="44.3144834804216" lon="11.402319911667078"><ele>224.5</ele><time>2026-04-30T07:00:20Z</time></trkpt><trkpt lat="44.31435491096679" lon="11.402326821860404"><ele>224.0</ele><time>2026-04-30T07:00:21Z</time></trkpt><trkpt lat="44.31422079526693" lon="11.402305716475206"><ele>224.0</ele><time>2026-04-30T07:00:22Z</time></trkpt><trkpt lat="44.31408007463902" lon="11.402257105643788"><ele>224.0</ele><time>2026-04-30T07:00:23Z</time></trkpt><trkpt lat="44.31394327302768" lon="11.402187090457549"><ele>224.0</ele><time>2026-04-30T07:00:24Z</time></trkpt><trkpt lat="44.31381984404961" lon="11.40211235594675"><ele>224.0</ele><time>2026-04-30T07:00:25Z</time></trkpt><trkpt lat="44.313698967227495" lon="11.402025529323758"><ele>224.25</ele><time>2026-04-30T07:00:26Z</time></trkpt><trkpt lat="44.31358650743694" lon="11.401914372167413"><ele>224.5</ele><time>2026-04-30T07:00:27Z</time></trkpt><trkpt lat="44.31348548231322" lon="11.401773469825413"><ele>224.75</ele><time>2026-04-30T07:00:28Z</time></trkpt><trkpt lat="44.313398965175594" lon="11.401615164027792"><ele>225.0</ele><time>2026-04-30T07:00:29Z</time></trkpt><trkpt lat="44.31333315324387" lon="11.40146215714829"><ele>225.25</ele><time>2026-04-30T07:00:30Z</time></trkpt><trkpt lat="44.31326485394266" lon="11.401311092674485"><ele>225.5</ele><time>2026-04-30T07:00:31Z</time></trkpt><trkpt lat="44.31317584690263" lon="11.40116841148405"><ele>225.75</ele><time>2026-04-30T07:00:32Z</time></trkpt><trkpt lat="44.31306981929494" lon="11.401047539472861"><ele>226.0</ele><time>2026-04-30T07:00:33Z</time></trkpt><trkpt lat="44.312948135604735" lon="11.400955075484484"><ele>226.0</ele><time>2026-04-30T07:00:34Z</time></trkpt><trkpt lat="44.31281905157871" lon="11.400886630948108"><ele>226.0</ele><time>2026-04-30T07:00:35Z</time></trkpt><trkpt lat="44.3126839901816" lon="11.400823744358059"><ele>226.0</ele><time>2026-04-30T07:00:36Z</time></trkpt><trkpt lat="44.31254489897647" lon="11.40075888797869"><ele>226.0</ele><time>2026-04-30T07:00:37Z</time></trkpt><trkpt lat="44.31240679694703" lon="11.400691294697305"><ele>226.0</ele><time>2026-04-30T07:00:38Z</time></trkpt><trkpt lat="44.31228235512127" lon="11.400624840299866"><ele>226.0</ele><time>2026-04-30T07:00:39Z</time></trkpt><trkpt lat="44.31215885719797" lon="11.400557189799954"><ele>226.0</ele><time>2026-04-30T07:00:40Z</time></trkpt><trkpt lat="44.312031402098825" lon="11.400494665138226"><ele>226.0</ele><time>2026-04-30T07:00:41Z</time></trkpt><trkpt lat="44.311900621927535" lon="11.40045007140911"><ele>225.75</ele><time>2026-04-30T07:00:42Z</time></trkpt><trkpt lat="44.31176486412448" lon="11.400436466391284"><ele>225.5</ele><time>2026-04-30T07:00:43Z</time></trkpt><trkpt lat="44.31162973380054" lon="11.400452626459003"><ele>225.25</ele><time>2026-04-30T07:00:44Z</time></trkpt><trkpt lat="44.31149728271214" lon="11.400486101661068"><ele>225.0</ele><time>2026-04-30T07:00:45Z</time></trkpt><trkpt lat="44.311366347105235" lon="11.400517390312693"><ele>225.5</ele><time>2026-04-30T07:00:46Z</time></trkpt><trkpt lat="44.31123516101251" lon="11.400528180937615"><ele>226.0</ele><time>2026-04-30T07:00:47Z</time></trkpt><trkpt lat="44.311097109542416" lon="11.400519739662613"><ele>226.5</ele><time>2026-04-30T07:00:48Z</time></trkpt><trkpt lat="44.310955612064305" lon="11.40049951885508"><ele>227.0</ele><time>2026-04-30T07:00:49Z</time></trkpt><trkpt lat="44.31081257460789" lon="11.400475571896783"><ele>227.0</ele><time>2026-04-30T07:00:50Z</time></trkpt><trkpt lat="44.31066732232718" lon="11.400452684468464"><ele>227.0</ele><time>2026-04-30T07:00:51Z</time></trkpt><trkpt lat="44.31051750809861" lon="11.400428247158954"><ele>227.0</ele><time>2026-04-30T07:00:52Z</time></trkpt><trkpt lat="44.310365123349776" lon="11.400405961722397"><ele>227.66666666666669</ele><time>2026-04-30T07:00:53Z</time></trkpt><trkpt lat="44.31021411641793" lon="11.400371685217621"><ele>228.33333333333331</ele><time>2026-04-30T07:00:54Z</time></trkpt><trkpt lat="44.31006470411101" lon="11.400322695193482"><ele>229.0</ele><time>2026-04-30T07:00:55Z</time></trkpt><trkpt lat="44.309936191059975" lon="11.400234769076638"><ele>229.0</ele><time>2026-04-30T07:00:56Z</time></trkpt><trkpt lat="44.3098097990755" lon="11.400185926990947"><ele>229.0</ele><time>2026-04-30T07:00:57Z</time></trkpt><trkpt lat="44.309698302059246" lon="11.400113695676545"><ele>229.0</ele><time>2026-04-30T07:00:58Z</time></trkpt><trkpt lat="44.309581389091036" lon="11.400038394135123"><ele>229.0</ele><time>2026-04-30T07:00:59Z</time></trkpt><trkpt lat="44.30946128317479" lon="11.399945416292892"><ele>229.33333333333331</ele><time>2026-04-30T07:01:00Z</time></trkpt><trkpt lat="44.30934095594331" lon="11.39983024574363"><ele>229.66666666666669</ele><time>2026-04-30T07:01:01Z</time></trkpt><trkpt lat="44.30921929498005" lon="11.39970608602358"><ele>230.0</ele><time>2026-04-30T07:01:02Z</time></trkpt><trkpt lat="44.30909742535304" lon="11.399574196023659"><ele>230.0</ele><time>2026-04-30T07:01:03Z</time></trkpt><trkpt lat="44.30897401151706" lon="11.399437100420585"><ele>230.0</ele><time>2026-04-30T07:01:04Z</time></trkpt><trkpt lat="44.30884488807155" lon="11.399312150207544"><ele>230.0</ele><time>2026-04-30T07:01:05Z</time></trkpt><trkpt lat="44.308704411545115" lon="11.399215758035435"><ele>231.0</ele><time>2026-04-30T07:01:06Z</time></trkpt><trkpt lat="44.30855132368476" lon="11.399148598419975"><ele>232.0</ele><time>2026-04-30T07:01:07Z</time></trkpt><trkpt lat="44.30838986420624" lon="11.399099046767175"><ele>233.0</ele><time>2026-04-30T07:01:08Z</time></trkpt><trkpt lat="44.308230786372945" lon="11.399056196804507"><ele>235.0</ele><time>2026-04-30T07:01:09Z</time></trkpt><trkpt lat="44.308066448767754" lon="11.399016300280923"><ele>237.0</ele><time>2026-04-30T07:01:10Z</time></trkpt><trkpt lat="44.30790107818492" lon="11.398989105209461"><ele>239.0</ele><time>2026-04-30T07:01:11Z</time></trkpt><trkpt lat="44.30774587911823" lon="11.398980118550154"><ele>239.0</ele><time>2026-04-30T07:01:12Z</time></trkpt><trkpt lat="44.3075918652324" lon="11.398972266168624"><ele>239.0</ele><time>2026-04-30T07:01:13Z</time></trkpt><trkpt lat="44.30743619563177" lon="11.398960294639517"><ele>239.0</ele><time>2026-04-30T07:01:14Z</time></trkpt><trkpt lat="44.30727868422461" lon="11.398945106335441"><ele>239.5</ele><time>2026-04-30T07:01:15Z</time></trkpt><trkpt lat="44.30712687419381" lon="11.398929358906903"><ele>240.0</ele><time>2026-04-30T07:01:16Z</time></trkpt><trkpt lat="44.30698505302496" lon="11.398910840618619"><ele>240.5</ele><time>2026-04-30T07:01:17Z</time></trkpt><trkpt lat="44.30683921658086" lon="11.398891555793167"><ele>241.0</ele><time>2026-04-30T07:01:18Z</time></trkpt><trkpt lat="44.306679912559765" lon="11.398869881550485"><ele>241.0</ele><time>2026-04-30T07:01:19Z</time></trkpt><trkpt lat="44.30651806384321" lon="11.398851084993526"><ele>241.0</ele><time>2026-04-30T07:01:20Z</time></trkpt><trkpt lat="44.306358650700346" lon="11.398832217693615"><ele>241.0</ele><time>2026-04-30T07:01:21Z</time></trkpt><trkpt lat="44.30620364697594" lon="11.398821794821941"><ele>241.0</ele><time>2026-04-30T07:01:22Z</time></trkpt><trkpt lat="44.306054553799456" lon="11.398830925857672"><ele>241.0</ele><time>2026-04-30T07:01:23Z</time></trkpt><trkpt lat="44.305917533008014" lon="11.398852975425136"><ele>241.0</ele><time>2026-04-30T07:01:24Z</time></trkpt><trkpt lat="44.305769549281415" lon="11.398874359687968"><ele>241.0</ele><time>2026-04-30T07:01:25Z</time></trkpt><trkpt lat="44.305638003046035" lon="11.398893274421841"><ele>239.66666666666666</ele><time>2026-04-30T07:01:26Z</time></trkpt><trkpt lat="44.30553285250316" lon="11.398914106673312"><ele>238.33333333333331</ele><time>2026-04-30T07:01:27Z</time></trkpt><trkpt lat="44.30544868846372" lon="11.398930148642659"><ele>237.0</ele><time>2026-04-30T07:01:28Z</time></trkpt><trkpt lat="44.30538587394974" lon="11.398940131553287"><ele>235.66666666666669</ele><time>2026-04-30T07:01:29Z</time></trkpt><trkpt lat="44.30529432042174" lon="11.398959564917918"><ele>234.33333333333334</ele><time>2026-04-30T07:01:31Z</time></trkpt><trkpt lat="44.30522990590603" lon="11.398950513043129"><ele>233.0</ele><time>2026-04-30T07:01:33Z</time></trkpt><trkpt lat="44.30520169842434" lon="11.39908581201811"><ele>233.00000000000003</ele><time>2026-04-30T07:01:37Z</time></trkpt><trkpt lat="44.30518400705283" lon="11.399209610365785"><ele>233.0</ele><time>2026-04-30T07:01:38Z</time></trkpt><trkpt lat="44.3051910754093" lon="11.399303262863125"><ele>233.0</ele><time>2026-04-30T07:01:39Z</time></trkpt><trkpt lat="44.30523465471636" lon="11.399448224291952"><ele>233.0</ele><time>2026-04-30T07:01:41Z</time></trkpt><trkpt lat="44.30529886966494" lon="11.39946515376198"><ele>233.00000000000003</ele><time>2026-04-30T07:01:42Z</time></trkpt><trkpt lat="44.30537317447138" lon="11.399465091587297"><ele>233.0</ele><time>2026-04-30T07:01:43Z</time></trkpt><trkpt lat="44.305475685666785" lon="11.399410609949372"><ele>235.0</ele><time>2026-04-30T07:01:44Z</time></trkpt><trkpt lat="44.305579133166155" lon="11.399347448181798"><ele>237.0</ele><time>2026-04-30T07:01:45Z</time></trkpt><trkpt lat="44.3056836811027" lon="11.399276290354033"><ele>239.0</ele><time>2026-04-30T07:01:46Z</time></trkpt><trkpt lat="44.305805707863755" lon="11.399217893280454"><ele>241.0</ele><time>2026-04-30T07:01:47Z</time></trkpt><trkpt lat="44.30592434814162" lon="11.399192869393488"><ele>241.0</ele><time>2026-04-30T07:01:48Z</time></trkpt><trkpt lat="44.30601794743244" lon="11.399210210811823"><ele>241.00000000000003</ele><time>2026-04-30T07:01:49Z</time></trkpt><trkpt lat="44.3061254953753" lon="11.399236244113693"><ele>241.00000000000003</ele><time>2026-04-30T07:01:50Z</time></trkpt><trkpt lat="44.30623994400828" lon="11.399285888711766"><ele>241.0</ele><time>2026-04-30T07:01:51Z</time></trkpt><trkpt lat="44.30633891264166" lon="11.399340063123224"><ele>241.0</ele><time>2026-04-30T07:01:52Z</time></trkpt><trkpt lat="44.306415290425676" lon="11.39940309470629"><ele>241.0</ele><time>2026-04-30T07:01:53Z</time></trkpt><trkpt lat="44.30647980545422" lon="11.399496769195196"><ele>241.00000000000003</ele><time>2026-04-30T07:01:54Z</time></trkpt><trkpt lat="44.30651565264237" lon="11.39963001321949"><ele>241.00000000000003</ele><time>2026-04-30T07:01:55Z</time></trkpt><trkpt lat="44.30659654868022" lon="11.399751045027042"><ele>241.0</ele><time>2026-04-30T07:01:56Z</time></trkpt><trkpt lat="44.306668184262705" lon="11.399876329151748"><ele>241.0</ele><time>2026-04-30T07:01:57Z</time></trkpt><trkpt lat="44.306739080313974" lon="11.3999635139504"><ele>246.0</ele><time>2026-04-30T07:01:58Z</time></trkpt><trkpt lat="44.306825248699425" lon="11.400052309573075"><ele>251.00000000000003</ele><time>2026-04-30T07:01:59Z</time></trkpt><trkpt lat="44.306918195550324" lon="11.40011057238743"><ele>256.0</ele><time>2026-04-30T07:02:00Z</time></trkpt><trkpt lat="44.307014607485485" lon="11.40015644740643"><ele>261.0</ele><time>2026-04-30T07:02:01Z</time></trkpt><trkpt lat="44.307111660352476" lon="11.400202615010878"><ele>266.0</ele><time>2026-04-30T07:02:02Z</time></trkpt><trkpt lat="44.307210910601164" lon="11.40024497222015"><ele>264.5</ele><time>2026-04-30T07:02:03Z</time></trkpt><trkpt lat="44.307318629901964" lon="11.40029634260572"><ele>263.0</ele><time>2026-04-30T07:02:04Z</time></trkpt><trkpt lat="44.30743019630207" lon="11.400372558929824"><ele>261.5</ele><time>2026-04-30T07:02:05Z</time></trkpt><trkpt lat="44.30754012832849" lon="11.400461337788801"><ele>260.0</ele><time>2026-04-30T07:02:06Z</time></trkpt><trkpt lat="44.307621771447394" lon="11.400562670922737"><ele>264.2</ele><time>2026-04-30T07:02:07Z</time></trkpt><trkpt lat="44.30770720123294" lon="11.400626043170003"><ele>268.4</ele><time>2026-04-30T07:02:08Z</time></trkpt><trkpt lat="44.307785031781854" lon="11.400729370371405"><ele>272.6</ele><time>2026-04-30T07:02:09Z</time></trkpt><trkpt lat="44.30786220699405" lon="11.400844150533624"><ele>276.8</ele><time>2026-04-30T07:02:10Z</time></trkpt><trkpt lat="44.30793836174572" lon="11.400956107576112"><ele>281.0</ele><time>2026-04-30T07:02:11Z</time></trkpt><trkpt lat="44.3080153412875" lon="11.40107081857781"><ele>281.0</ele><time>2026-04-30T07:02:12Z</time></trkpt><trkpt lat="44.30806465812133" lon="11.401211097890151"><ele>281.0</ele><time>2026-04-30T07:02:13Z</time></trkpt><trkpt lat="44.3081279461214" lon="11.401348327941589"><ele>281.0</ele><time>2026-04-30T07:02:14Z</time></trkpt><trkpt lat="44.308189649475956" lon="11.401492454317454"><ele>281.0</ele><time>2026-04-30T07:02:15Z</time></trkpt><trkpt lat="44.30822786855275" lon="11.401648895384207"><ele>283.25</ele><time>2026-04-30T07:02:16Z</time></trkpt><trkpt lat="44.30826179952987" lon="11.401808100487443"><ele>285.5</ele><time>2026-04-30T07:02:17Z</time></trkpt><trkpt lat="44.30832799771288" lon="11.401944262714363"><ele>287.75</ele><time>2026-04-30T07:02:18Z</time></trkpt><trkpt lat="44.308396579116504" lon="11.402065144881169"><ele>290.0</ele><time>2026-04-30T07:02:19Z</time></trkpt><trkpt lat="44.30850139326351" lon="11.40214396589381"><ele>292.2</ele><time>2026-04-30T07:02:20Z</time></trkpt><trkpt lat="44.30856435920099" lon="11.402250811394529"><ele>294.4</ele><time>2026-04-30T07:02:21Z</time></trkpt><trkpt lat="44.30862905447556" lon="11.402335104069019"><ele>296.6</ele><time>2026-04-30T07:02:22Z</time></trkpt><trkpt lat="44.30871648216243" lon="11.402419864487273"><ele>298.8</ele><time>2026-04-30T07:02:23Z</time></trkpt><trkpt lat="44.30881270751581" lon="11.402474054048376"><ele>301.0</ele><time>2026-04-30T07:02:24Z</time></trkpt><trkpt lat="44.30891349328669" lon="11.40249282465572"><ele>301.0</ele><time>2026-04-30T07:02:25Z</time></trkpt><trkpt lat="44.30900893000546" lon="11.402462202715833"><ele>301.0</ele><time>2026-04-30T07:02:26Z</time></trkpt><trkpt lat="44.30909350346509" lon="11.402494539962909"><ele>301.0</ele><time>2026-04-30T07:02:27Z</time></trkpt><trkpt lat="44.30917588893033" lon="11.402559460548591"><ele>301.0</ele><time>2026-04-30T07:02:29Z</time></trkpt><trkpt lat="44.309228359639484" lon="11.402701271775175"><ele>301.0</ele><time>2026-04-30T07:02:31Z</time></trkpt><trkpt lat="44.30920419148498" lon="11.402793061196414"><ele>301.0</ele><time>2026-04-30T07:02:32Z</time></trkpt><trkpt lat="44.30913750585974" lon="11.402900170357507"><ele>301.0</ele><time>2026-04-30T07:02:34Z</time></trkpt><trkpt lat="44.30901000272321" lon="11.402920491538161"><ele>301.0</ele><time>2026-04-30T07:02:36Z</time></trkpt><trkpt lat="44.30893401318445" lon="11.402931577522699"><ele>301.0</ele><time>2026-04-30T07:02:37Z</time></trkpt><trkpt lat="44.308850806121725" lon="11.402966084650942"><ele>301.0</ele><time>2026-04-30T07:02:38Z</time></trkpt><trkpt lat="44.3087646990701" lon="11.402964060331472"><ele>302.8</ele><time>2026-04-30T07:02:39Z</time></trkpt><trkpt lat="44.30868646917143" lon="11.402979021485026"><ele>304.6</ele><time>2026-04-30T07:02:40Z</time></trkpt><trkpt lat="44.308590348290835" lon="11.402992299878163"><ele>306.4</ele><time>2026-04-30T07:02:41Z</time></trkpt><trkpt lat="44.308505220333615" lon="11.403023672160884"><ele>308.2</ele><time>2026-04-30T07:02:42Z</time></trkpt><trkpt lat="44.30839804623447" lon="11.403035094563737"><ele>310.0</ele><time>2026-04-30T07:02:43Z</time></trkpt><trkpt lat="44.30829397613102" lon="11.403027307847712"><ele>313.8333333333333</ele><time>2026-04-30T07:02:44Z</time></trkpt><trkpt lat="44.308194300056265" lon="11.403033081714256"><ele>317.66666666666663</ele><time>2026-04-30T07:02:45Z</time></trkpt><trkpt lat="44.30808955380175" lon="11.403033467787028"><ele>321.5</ele><time>2026-04-30T07:02:46Z</time></trkpt><trkpt lat="44.308004675134" lon="11.403031535439396"><ele>325.3333333333333</ele><time>2026-04-30T07:02:47Z</time></trkpt><trkpt lat="44.30793803925927" lon="11.403030738217351"><ele>329.1666666666667</ele><time>2026-04-30T07:02:48Z</time></trkpt><trkpt lat="44.30786533519707" lon="11.403055586398283"><ele>333.0</ele><time>2026-04-30T07:02:52Z</time></trkpt><trkpt lat="44.307790220129945" lon="11.40305421000158"><ele>334.79999999999995</ele><time>2026-04-30T07:02:56Z</time></trkpt><trkpt lat="44.3077399892217" lon="11.40313875635761"><ele>336.6</ele><time>2026-04-30T07:02:58Z</time></trkpt><trkpt lat="44.30778325902772" lon="11.40327172724152"><ele>338.4</ele><time>2026-04-30T07:02:59Z</time></trkpt><trkpt lat="44.30784613765012" lon="11.403399960584123"><ele>340.20000000000005</ele><time>2026-04-30T07:03:01Z</time></trkpt><trkpt lat="44.30788938105506" lon="11.403517778733782"><ele>342.0</ele><time>2026-04-30T07:03:03Z</time></trkpt><trkpt lat="44.30794357121788" lon="11.403608665841322"><ele>342.0</ele><time>2026-04-30T07:03:05Z</time></trkpt><trkpt lat="44.307983377523655" lon="11.403721959815185"><ele>342.0</ele><time>2026-04-30T07:03:07Z</time></trkpt><trkpt lat="44.30805342164427" lon="11.403842552658995"><ele>342.0</ele><time>2026-04-30T07:03:09Z</time></trkpt><trkpt lat="44.30810588516854" lon="11.403957965331784"><ele>342.0</ele><time>2026-04-30T07:03:11Z</time></trkpt><trkpt lat="44.30815852615563" lon="11.404089508897998"><ele>342.0</ele><time>2026-04-30T07:03:13Z</time></trkpt><trkpt lat="44.30821195182747" lon="11.404168479854743"><ele>344.3333333333333</ele><time>2026-04-30T07:03:15Z</time></trkpt><trkpt lat="44.30828177632682" lon="11.404257978863757"><ele>346.6666666666667</ele><time>2026-04-30T07:03:17Z</time></trkpt><trkpt lat="44.30830651791858" lon="11.404370738987009"><ele>349.0</ele><time>2026-04-30T07:03:19Z</time></trkpt><trkpt lat="44.308277098738515" lon="11.404478499542257"><ele>351.33333333333337</ele><time>2026-04-30T07:03:23Z</time></trkpt><trkpt lat="44.30823496673058" lon="11.40457311724779"><ele>353.6666666666667</ele><time>2026-04-30T07:03:24Z</time></trkpt><trkpt lat="44.30820539321587" lon="11.404659983645878"><ele>356.0</ele><time>2026-04-30T07:03:27Z</time></trkpt><trkpt lat="44.308184709987586" lon="11.404815769338141"><ele>357.33333333333337</ele><time>2026-04-30T07:03:29Z</time></trkpt><trkpt lat="44.30814775483022" lon="11.404888900088292"><ele>358.6666666666667</ele><time>2026-04-30T07:03:31Z</time></trkpt><trkpt lat="44.308102799655906" lon="11.404984373170473"><ele>360.0</ele><time>2026-04-30T07:03:33Z</time></trkpt><trkpt lat="44.308055442607085" lon="11.40510036382358"><ele>361.3333333333333</ele><time>2026-04-30T07:03:35Z</time></trkpt><trkpt lat="44.30800526501775" lon="11.405165923022892"><ele>362.66666666666663</ele><time>2026-04-30T07:03:37Z</time></trkpt><trkpt lat="44.3079461596565" lon="11.405260937300161"><ele>364.0</ele><time>2026-04-30T07:03:39Z</time></trkpt><trkpt lat="44.30790469366368" lon="11.405329267642724"><ele>368.66666666666663</ele><time>2026-04-30T07:03:41Z</time></trkpt><trkpt lat="44.30784841845423" lon="11.405438267860948"><ele>373.3333333333333</ele><time>2026-04-30T07:03:44Z</time></trkpt><trkpt lat="44.30764908507866" lon="11.4056344729666"><ele>378.0</ele><time>2026-04-30T07:03:46Z</time></trkpt><trkpt lat="44.30752981739853" lon="11.405726071299071"><ele>378.0</ele><time>2026-04-30T07:03:48Z</time></trkpt><trkpt lat="44.307462200342435" lon="11.405786497367275"><ele>378.0</ele><time>2026-04-30T07:03:49Z</time></trkpt><trkpt lat="44.30738439682756" lon="11.405872455067817"><ele>378.0</ele><time>2026-04-30T07:03:50Z</time></trkpt><trkpt lat="44.3073546709677" lon="11.406073904457198"><ele>378.0</ele><time>2026-04-30T07:03:52Z</time></trkpt><trkpt lat="44.30730497524552" lon="11.406270515182674"><ele>378.0</ele><time>2026-04-30T07:03:54Z</time></trkpt><trkpt lat="44.30727013573608" lon="11.406353227660752"><ele>378.0</ele><time>2026-04-30T07:03:55Z</time></trkpt><trkpt lat="44.307201249079384" lon="11.406487207547753"><ele>378.0</ele><time>2026-04-30T07:03:57Z</time></trkpt><trkpt lat="44.30713550212281" lon="11.406515522796735"><ele>378.0</ele><time>2026-04-30T07:03:58Z</time></trkpt><trkpt lat="44.307065424185105" lon="11.40659259658199"><ele>378.0</ele><time>2026-04-30T07:03:59Z</time></trkpt><trkpt lat="44.30695743563169" lon="11.406658780741184"><ele>378.0</ele><time>2026-04-30T07:04:00Z</time></trkpt><trkpt lat="44.306896235687375" lon="11.406711102798402"><ele>378.0</ele><time>2026-04-30T07:04:01Z</time></trkpt><trkpt lat="44.306885187764706" lon="11.406802410868455"><ele>378.0</ele><time>2026-04-30T07:04:02Z</time></trkpt><trkpt lat="44.30683221610647" lon="11.406883626245348"><ele>378.0</ele><time>2026-04-30T07:04:03Z</time></trkpt><trkpt lat="44.306779305746495" lon="11.406962096093107"><ele>378.0</ele><time>2026-04-30T07:04:04Z</time></trkpt><trkpt lat="44.306730090274996" lon="11.407040102594648"><ele>378.0</ele><time>2026-04-30T07:04:05Z</time></trkpt><trkpt lat="44.30668575657678" lon="11.407116124079907"><ele>378.0</ele><time>2026-04-30T07:04:06Z</time></trkpt><trkpt lat="44.30664036593728" lon="11.407203878860631"><ele>377.79999999999995</ele><time>2026-04-30T07:04:07Z</time></trkpt><trkpt lat="44.306609273178125" lon="11.40730795989606"><ele>377.6</ele><time>2026-04-30T07:04:08Z</time></trkpt><trkpt lat="44.30657685875145" lon="11.407386219374894"><ele>377.4</ele><time>2026-04-30T07:04:09Z</time></trkpt><trkpt lat="44.30651458432883" lon="11.407530084245892"><ele>377.20000000000005</ele><time>2026-04-30T07:04:11Z</time></trkpt><trkpt lat="44.306445571445686" lon="11.40761774641566"><ele>377.0</ele><time>2026-04-30T07:04:13Z</time></trkpt><trkpt lat="44.306346056156954" lon="11.407711543605936"><ele>377.0</ele><time>2026-04-30T07:04:15Z</time></trkpt><trkpt lat="44.306236485510034" lon="11.407779461833371"><ele>377.0</ele><time>2026-04-30T07:04:17Z</time></trkpt><trkpt lat="44.306161060551894" lon="11.407917099162225"><ele>377.0</ele><time>2026-04-30T07:04:19Z</time></trkpt><trkpt lat="44.30613980292442" lon="11.408024240992548"><ele>377.0</ele><time>2026-04-30T07:04:20Z</time></trkpt><trkpt lat="44.306121469620315" lon="11.408151903698615"><ele>377.0</ele><time>2026-04-30T07:04:21Z</time></trkpt><trkpt lat="44.30611042269549" lon="11.408271386529616"><ele>378.5</ele><time>2026-04-30T07:04:22Z</time></trkpt><trkpt lat="44.30610537577946" lon="11.408385259243248"><ele>380.0</ele><time>2026-04-30T07:04:23Z</time></trkpt><trkpt lat="44.30610788932246" lon="11.408509026817836"><ele>381.5</ele><time>2026-04-30T07:04:24Z</time></trkpt><trkpt lat="44.306101472035074" lon="11.408628684337193"><ele>383.0</ele><time>2026-04-30T07:04:25Z</time></trkpt><trkpt lat="44.30610875131909" lon="11.408755704815901"><ele>384.49999999999994</ele><time>2026-04-30T07:04:26Z</time></trkpt><trkpt lat="44.3061209613303" lon="11.408867088271013"><ele>386.0</ele><time>2026-04-30T07:04:27Z</time></trkpt><trkpt lat="44.30612768385337" lon="11.408958416640724"><ele>390.6</ele><time>2026-04-30T07:04:28Z</time></trkpt><trkpt lat="44.306095029191724" lon="11.409096508771286"><ele>395.20000000000005</ele><time>2026-04-30T07:04:30Z</time></trkpt><trkpt lat="44.306002435781735" lon="11.409194370600677"><ele>399.79999999999995</ele><time>2026-04-30T07:04:32Z</time></trkpt><trkpt lat="44.30597092784282" lon="11.40927692402666"><ele>404.4</ele><time>2026-04-30T07:04:33Z</time></trkpt><trkpt lat="44.30593649121139" lon="11.409362297063819"><ele>409.0</ele><time>2026-04-30T07:04:34Z</time></trkpt><trkpt lat="44.30586397686488" lon="11.409500254472974"><ele>409.00000000000006</ele><time>2026-04-30T07:04:36Z</time></trkpt><trkpt lat="44.305835528364724" lon="11.409583710353218"><ele>409.0</ele><time>2026-04-30T07:04:37Z</time></trkpt><trkpt lat="44.3057569406575" lon="11.409670743235502"><ele>409.0</ele><time>2026-04-30T07:04:39Z</time></trkpt><trkpt lat="44.30566200763427" lon="11.409747048244936"><ele>409.0</ele><time>2026-04-30T07:04:41Z</time></trkpt><trkpt lat="44.30557412441999" lon="11.409761625066908"><ele>409.00000000000006</ele><time>2026-04-30T07:04:43Z</time></trkpt><trkpt lat="44.305509674253614" lon="11.40977904623314"><ele>409.0</ele><time>2026-04-30T07:04:44Z</time></trkpt><trkpt lat="44.30541230019772" lon="11.40975454676429"><ele>408.2</ele><time>2026-04-30T07:04:46Z</time></trkpt><trkpt lat="44.305369250726294" lon="11.409938634982245"><ele>407.4</ele><time>2026-04-30T07:04:51Z</time></trkpt><trkpt lat="44.305408487467645" lon="11.410100399644584"><ele>406.6</ele><time>2026-04-30T07:04:53Z</time></trkpt><trkpt lat="44.30543946332888" lon="11.410202699482253"><ele>405.8</ele><time>2026-04-30T07:04:54Z</time></trkpt><trkpt lat="44.30547605305494" lon="11.410289195537308"><ele>405.0</ele><time>2026-04-30T07:04:55Z</time></trkpt><trkpt lat="44.30551355877532" lon="11.410436227532973"><ele>405.3333333333333</ele><time>2026-04-30T07:04:57Z</time></trkpt><trkpt lat="44.30555570388416" lon="11.410552320120397"><ele>405.66666666666663</ele><time>2026-04-30T07:04:58Z</time></trkpt><trkpt lat="44.30558751113536" lon="11.410642977417353"><ele>406.0</ele><time>2026-04-30T07:04:59Z</time></trkpt><trkpt lat="44.30562156142481" lon="11.410742541051297"><ele>406.3333333333333</ele><time>2026-04-30T07:05:00Z</time></trkpt><trkpt lat="44.30566137481321" lon="11.410859660362254"><ele>406.66666666666663</ele><time>2026-04-30T07:05:01Z</time></trkpt><trkpt lat="44.305680855904875" lon="11.41096469480819"><ele>407.0</ele><time>2026-04-30T07:05:02Z</time></trkpt><trkpt lat="44.30565123222002" lon="11.411083604240888"><ele>407.6</ele><time>2026-04-30T07:05:03Z</time></trkpt><trkpt lat="44.30562616799544" lon="11.411229589826027"><ele>408.20000000000005</ele><time>2026-04-30T07:05:04Z</time></trkpt><trkpt lat="44.305594498355255" lon="11.411355180503007"><ele>408.8</ele><time>2026-04-30T07:05:05Z</time></trkpt><trkpt lat="44.305577567103796" lon="11.41148932813386"><ele>409.4</ele><time>2026-04-30T07:05:06Z</time></trkpt><trkpt lat="44.305570156534024" lon="11.411614940242137"><ele>410.0</ele><time>2026-04-30T07:05:07Z</time></trkpt><trkpt lat="44.305542972744284" lon="11.411726463835501"><ele>409.99999999999994</ele><time>2026-04-30T07:05:08Z</time></trkpt><trkpt lat="44.30553119179268" lon="11.411830195179633"><ele>410.0</ele><time>2026-04-30T07:05:09Z</time></trkpt><trkpt lat="44.30553570315225" lon="11.41193677090895"><ele>410.0</ele><time>2026-04-30T07:05:10Z</time></trkpt><trkpt lat="44.30550703905147" lon="11.41204286066377"><ele>410.0</ele><time>2026-04-30T07:05:11Z</time></trkpt><trkpt lat="44.305494070550665" lon="11.412153265989025"><ele>409.99999999999994</ele><time>2026-04-30T07:05:12Z</time></trkpt><trkpt lat="44.305477380525026" lon="11.412276173085477"><ele>410.0</ele><time>2026-04-30T07:05:13Z</time></trkpt><trkpt lat="44.305454384930904" lon="11.41239725786237"><ele>410.49999999999994</ele><time>2026-04-30T07:05:14Z</time></trkpt><trkpt lat="44.30542965600922" lon="11.41249824057486"><ele>411.0</ele><time>2026-04-30T07:05:15Z</time></trkpt><trkpt lat="44.305403321521034" lon="11.412590553175495"><ele>411.5</ele><time>2026-04-30T07:05:16Z</time></trkpt><trkpt lat="44.30537642949889" lon="11.412708324684765"><ele>412.0</ele><time>2026-04-30T07:05:17Z</time></trkpt><trkpt lat="44.30532236231959" lon="11.41280534031399"><ele>412.49999999999994</ele><time>2026-04-30T07:05:18Z</time></trkpt><trkpt lat="44.30526548719674" lon="11.412893140195763"><ele>413.0</ele><time>2026-04-30T07:05:19Z</time></trkpt><trkpt lat="44.30521544594936" lon="11.412979328074547"><ele>413.99999999999994</ele><time>2026-04-30T07:05:20Z</time></trkpt><trkpt lat="44.30516979728399" lon="11.413072834182964"><ele>415.0</ele><time>2026-04-30T07:05:21Z</time></trkpt><trkpt lat="44.30510301363793" lon="11.413155200163718"><ele>416.0</ele><time>2026-04-30T07:05:22Z</time></trkpt><trkpt lat="44.30505033140256" lon="11.413250349058064"><ele>417.0</ele><time>2026-04-30T07:05:23Z</time></trkpt><trkpt lat="44.30501305386518" lon="11.413355560549416"><ele>417.99999999999994</ele><time>2026-04-30T07:05:24Z</time></trkpt><trkpt lat="44.30495741085043" lon="11.413444122966787"><ele>419.0</ele><time>2026-04-30T07:05:25Z</time></trkpt><trkpt lat="44.30490811457723" lon="11.413520046887946"><ele>418.99999999999994</ele><time>2026-04-30T07:05:26Z</time></trkpt><trkpt lat="44.30486177977924" lon="11.4136006680069"><ele>419.0</ele><time>2026-04-30T07:05:27Z</time></trkpt><trkpt lat="44.30482537256638" lon="11.413688977848562"><ele>419.0</ele><time>2026-04-30T07:05:28Z</time></trkpt><trkpt lat="44.304762785583534" lon="11.4137823643966"><ele>419.0</ele><time>2026-04-30T07:05:29Z</time></trkpt><trkpt lat="44.304711406423515" lon="11.413892530004796"><ele>418.99999999999994</ele><time>2026-04-30T07:05:30Z</time></trkpt><trkpt lat="44.304653729823094" lon="11.41396579238574"><ele>419.0</ele><time>2026-04-30T07:05:31Z</time></trkpt><trkpt lat="44.30459575591735" lon="11.414036909275053"><ele>419.0</ele><time>2026-04-30T07:05:32Z</time></trkpt><trkpt lat="44.30453811598246" lon="11.414105277323825"><ele>419.0</ele><time>2026-04-30T07:05:33Z</time></trkpt><trkpt lat="44.30447183708005" lon="11.414199158858882"><ele>419.0</ele><time>2026-04-30T07:05:34Z</time></trkpt><trkpt lat="44.30437494009095" lon="11.41429157201702"><ele>419.0</ele><time>2026-04-30T07:05:35Z</time></trkpt><trkpt lat="44.304301932935445" lon="11.414409043378416"><ele>419.0</ele><time>2026-04-30T07:05:36Z</time></trkpt><trkpt lat="44.30423762236221" lon="11.41448273115947"><ele>419.0</ele><time>2026-04-30T07:05:37Z</time></trkpt><trkpt lat="44.30417957101326" lon="11.414525963010872"><ele>419.0</ele><time>2026-04-30T07:05:38Z</time></trkpt><trkpt lat="44.304072256207846" lon="11.41466441871373"><ele>419.0</ele><time>2026-04-30T07:05:40Z</time></trkpt><trkpt lat="44.303985355183194" lon="11.41472252605241"><ele>419.0</ele><time>2026-04-30T07:05:41Z</time></trkpt><trkpt lat="44.30392479604565" lon="11.414808727683377"><ele>419.0</ele><time>2026-04-30T07:05:42Z</time></trkpt><trkpt lat="44.30386014792799" lon="11.414889925101622"><ele>417.16666666666663</ele><time>2026-04-30T07:05:43Z</time></trkpt><trkpt lat="44.303821769390645" lon="11.414990389184881"><ele>415.3333333333333</ele><time>2026-04-30T07:05:44Z</time></trkpt><trkpt lat="44.30381572217128" lon="11.415100748899127"><ele>413.5</ele><time>2026-04-30T07:05:45Z</time></trkpt><trkpt lat="44.30383494756873" lon="11.415209970200209"><ele>411.66666666666663</ele><time>2026-04-30T07:05:46Z</time></trkpt><trkpt lat="44.30385176202682" lon="11.415294873354648"><ele>409.8333333333333</ele><time>2026-04-30T07:05:47Z</time></trkpt><trkpt lat="44.30386044824187" lon="11.415396113534143"><ele>408.0</ele><time>2026-04-30T07:05:48Z</time></trkpt><trkpt lat="44.30387532158409" lon="11.415503884069949"><ele>408.0</ele><time>2026-04-30T07:05:49Z</time></trkpt><trkpt lat="44.30387865023864" lon="11.415598641715608"><ele>408.0</ele><time>2026-04-30T07:05:50Z</time></trkpt><trkpt lat="44.303895703841754" lon="11.415683555808547"><ele>408.0</ele><time>2026-04-30T07:05:51Z</time></trkpt><trkpt lat="44.30385688591743" lon="11.415765047603152"><ele>408.0</ele><time>2026-04-30T07:05:53Z</time></trkpt><trkpt lat="44.30381325199404" lon="11.415862195763044"><ele>408.0</ele><time>2026-04-30T07:05:55Z</time></trkpt><trkpt lat="44.30378618215495" lon="11.416014071104906"><ele>408.0</ele><time>2026-04-30T07:05:57Z</time></trkpt><trkpt lat="44.30380650865175" lon="11.41610120032722"><ele>408.0</ele><time>2026-04-30T07:05:58Z</time></trkpt><trkpt lat="44.303850874407864" lon="11.416168323146946"><ele>408.0</ele><time>2026-04-30T07:05:59Z</time></trkpt><trkpt lat="44.30390029883533" lon="11.416228327200669"><ele>408.0</ele><time>2026-04-30T07:06:00Z</time></trkpt><trkpt lat="44.30394462791963" lon="11.416296482738169"><ele>408.0</ele><time>2026-04-30T07:06:01Z</time></trkpt><trkpt lat="44.30398634312082" lon="11.416376358747067"><ele>408.0</ele><time>2026-04-30T07:06:02Z</time></trkpt><trkpt lat="44.30403413277308" lon="11.416447386447496"><ele>408.0</ele><time>2026-04-30T07:06:03Z</time></trkpt><trkpt lat="44.30409205134305" lon="11.41650775597669"><ele>408.0</ele><time>2026-04-30T07:06:04Z</time></trkpt><trkpt lat="44.30415799951534" lon="11.416553219111472"><ele>408.3333333333333</ele><time>2026-04-30T07:06:05Z</time></trkpt><trkpt lat="44.30422493945502" lon="11.41659897842696"><ele>408.66666666666663</ele><time>2026-04-30T07:06:06Z</time></trkpt><trkpt lat="44.30428756986449" lon="11.416665833855246"><ele>409.0</ele><time>2026-04-30T07:06:07Z</time></trkpt><trkpt lat="44.304342442603236" lon="11.416749340031295"><ele>409.3333333333333</ele><time>2026-04-30T07:06:08Z</time></trkpt><trkpt lat="44.30438677197545" lon="11.416828712515375"><ele>409.66666666666663</ele><time>2026-04-30T07:06:09Z</time></trkpt><trkpt lat="44.30443064199" lon="11.416910326555325"><ele>410.0</ele><time>2026-04-30T07:06:10Z</time></trkpt><trkpt lat="44.30447230408365" lon="11.417004141731063"><ele>409.99999999999994</ele><time>2026-04-30T07:06:11Z</time></trkpt><trkpt lat="44.304502545838034" lon="11.417107922073795"><ele>410.0</ele><time>2026-04-30T07:06:12Z</time></trkpt><trkpt lat="44.304520630875565" lon="11.41722471395099"><ele>410.0</ele><time>2026-04-30T07:06:13Z</time></trkpt><trkpt lat="44.304528684412894" lon="11.41735465144132"><ele>410.0</ele><time>2026-04-30T07:06:14Z</time></trkpt><trkpt lat="44.30454034016003" lon="11.417477180921379"><ele>409.99999999999994</ele><time>2026-04-30T07:06:15Z</time></trkpt><trkpt lat="44.3045572572768" lon="11.417574032414505"><ele>410.0</ele><time>2026-04-30T07:06:16Z</time></trkpt><trkpt lat="44.304578488679724" lon="11.417658002150612"><ele>409.0</ele><time>2026-04-30T07:06:17Z</time></trkpt><trkpt lat="44.30460637639431" lon="11.417823268336111"><ele>408.0</ele><time>2026-04-30T07:06:19Z</time></trkpt><trkpt lat="44.3046154823735" lon="11.417928338645517"><ele>407.0</ele><time>2026-04-30T07:06:20Z</time></trkpt><trkpt lat="44.30462668995359" lon="11.418066389330685"><ele>406.0</ele><time>2026-04-30T07:06:21Z</time></trkpt><trkpt lat="44.30463426352908" lon="11.418211704936605"><ele>405.0</ele><time>2026-04-30T07:06:22Z</time></trkpt><trkpt lat="44.30463728021105" lon="11.41834192079765"><ele>405.0</ele><time>2026-04-30T07:06:23Z</time></trkpt><trkpt lat="44.304637966088315" lon="11.418441608376796"><ele>405.0</ele><time>2026-04-30T07:06:24Z</time></trkpt><trkpt lat="44.30463659100026" lon="11.418548139015252"><ele>405.0</ele><time>2026-04-30T07:06:25Z</time></trkpt><trkpt lat="44.30460580505995" lon="11.418658686677018"><ele>405.0</ele><time>2026-04-30T07:06:26Z</time></trkpt><trkpt lat="44.30460318934002" lon="11.418775599947155"><ele>405.0</ele><time>2026-04-30T07:06:27Z</time></trkpt><trkpt lat="44.30459542028581" lon="11.418898608409924"><ele>405.0</ele><time>2026-04-30T07:06:28Z</time></trkpt><trkpt lat="44.30457814520098" lon="11.41901393034273"><ele>407.1666666666667</ele><time>2026-04-30T07:06:29Z</time></trkpt><trkpt lat="44.304549110228564" lon="11.419120465677265"><ele>409.33333333333337</ele><time>2026-04-30T07:06:30Z</time></trkpt><trkpt lat="44.30452462230062" lon="11.419209395540678"><ele>411.5</ele><time>2026-04-30T07:06:31Z</time></trkpt><trkpt lat="44.30449601081461" lon="11.419307661942002"><ele>413.6666666666667</ele><time>2026-04-30T07:06:32Z</time></trkpt><trkpt lat="44.30446114084659" lon="11.419416046098721"><ele>415.83333333333337</ele><time>2026-04-30T07:06:33Z</time></trkpt><trkpt lat="44.30442169502875" lon="11.419530951703265"><ele>418.0</ele><time>2026-04-30T07:06:34Z</time></trkpt><trkpt lat="44.30436451485955" lon="11.419634529964847"><ele>419.79999999999995</ele><time>2026-04-30T07:06:35Z</time></trkpt><trkpt lat="44.30428823390232" lon="11.419737382526316"><ele>421.6</ele><time>2026-04-30T07:06:36Z</time></trkpt><trkpt lat="44.30422429371192" lon="11.419851414172985"><ele>423.40000000000003</ele><time>2026-04-30T07:06:37Z</time></trkpt><trkpt lat="44.3041975929041" lon="11.419975740375468"><ele>425.20000000000005</ele><time>2026-04-30T07:06:38Z</time></trkpt><trkpt lat="44.3041683041741" lon="11.420079951895666"><ele>427.0</ele><time>2026-04-30T07:06:39Z</time></trkpt><trkpt lat="44.304119496494806" lon="11.420184965460882"><ele>427.00000000000006</ele><time>2026-04-30T07:06:40Z</time></trkpt><trkpt lat="44.304058301709254" lon="11.420257914321503"><ele>427.0</ele><time>2026-04-30T07:06:41Z</time></trkpt><trkpt lat="44.30394802407487" lon="11.420347343355072"><ele>427.0</ele><time>2026-04-30T07:06:43Z</time></trkpt><trkpt lat="44.30387554028583" lon="11.420396273901053"><ele>427.0</ele><time>2026-04-30T07:06:44Z</time></trkpt><trkpt lat="44.3038218367169" lon="11.420463410712419"><ele>427.00000000000006</ele><time>2026-04-30T07:06:45Z</time></trkpt><trkpt lat="44.30377786640176" lon="11.420558663630667"><ele>427.0</ele><time>2026-04-30T07:06:46Z</time></trkpt><trkpt lat="44.3037472323684" lon="11.420653669819979"><ele>428.00000000000006</ele><time>2026-04-30T07:06:47Z</time></trkpt><trkpt lat="44.303719305956335" lon="11.420777764249344"><ele>429.0</ele><time>2026-04-30T07:06:49Z</time></trkpt><trkpt lat="44.30368711629715" lon="11.420889523851496"><ele>430.0</ele><time>2026-04-30T07:06:51Z</time></trkpt><trkpt lat="44.30366860722277" lon="11.421009421257835"><ele>431.0</ele><time>2026-04-30T07:06:53Z</time></trkpt><trkpt lat="44.30375032322292" lon="11.421104112768834"><ele>432.00000000000006</ele><time>2026-04-30T07:06:55Z</time></trkpt><trkpt lat="44.30381568492627" lon="11.421154070791996"><ele>433.0</ele><time>2026-04-30T07:06:57Z</time></trkpt><trkpt lat="44.303894366528134" lon="11.42118775620765"><ele>433.50000000000006</ele><time>2026-04-30T07:06:59Z</time></trkpt><trkpt lat="44.303960407314236" lon="11.421211921828045"><ele>434.0</ele><time>2026-04-30T07:07:00Z</time></trkpt><trkpt lat="44.30405522924143" lon="11.421313714467273"><ele>434.5</ele><time>2026-04-30T07:07:02Z</time></trkpt><trkpt lat="44.30410237016652" lon="11.42137248770472"><ele>435.0</ele><time>2026-04-30T07:07:03Z</time></trkpt><trkpt lat="44.30412038889093" lon="11.421512772421732"><ele>435.50000000000006</ele><time>2026-04-30T07:07:05Z</time></trkpt><trkpt lat="44.30411210531392" lon="11.421606671837502"><ele>436.0</ele><time>2026-04-30T07:07:06Z</time></trkpt><trkpt lat="44.30407861706014" lon="11.421699928352014"><ele>439.20000000000005</ele><time>2026-04-30T07:07:07Z</time></trkpt><trkpt lat="44.30403165508168" lon="11.421798773090917"><ele>442.40000000000003</ele><time>2026-04-30T07:07:08Z</time></trkpt><trkpt lat="44.303978976822705" lon="11.421905759596822"><ele>445.6</ele><time>2026-04-30T07:07:09Z</time></trkpt><trkpt lat="44.30391241322332" lon="11.422040389528226"><ele>448.8</ele><time>2026-04-30T07:07:10Z</time></trkpt><trkpt lat="44.30384610378026" lon="11.42217017604256"><ele>452.0</ele><time>2026-04-30T07:07:11Z</time></trkpt><trkpt lat="44.303808939582" lon="11.422266683758536"><ele>455.3333333333333</ele><time>2026-04-30T07:07:12Z</time></trkpt><trkpt lat="44.30376105185362" lon="11.422347942094971"><ele>458.66666666666663</ele><time>2026-04-30T07:07:13Z</time></trkpt><trkpt lat="44.303692221565925" lon="11.42240337709562"><ele>462.0</ele><time>2026-04-30T07:07:14Z</time></trkpt><trkpt lat="44.30365394255479" lon="11.42248165617036"><ele>465.33333333333337</ele><time>2026-04-30T07:07:15Z</time></trkpt><trkpt lat="44.303593705044314" lon="11.422511438216905"><ele>468.6666666666667</ele><time>2026-04-30T07:07:16Z</time></trkpt><trkpt lat="44.3035053717248" lon="11.422603797558118"><ele>472.0</ele><time>2026-04-30T07:07:18Z</time></trkpt><trkpt lat="44.30349235039695" lon="11.422692455090164"><ele>472.00000000000006</ele><time>2026-04-30T07:07:19Z</time></trkpt><trkpt lat="44.30349678045457" lon="11.422801304316337"><ele>472.0</ele><time>2026-04-30T07:07:20Z</time></trkpt><trkpt lat="44.3034856314081" lon="11.422912043309887"><ele>472.0</ele><time>2026-04-30T07:07:21Z</time></trkpt><trkpt lat="44.30347589074975" lon="11.423030125360635"><ele>472.0</ele><time>2026-04-30T07:07:22Z</time></trkpt><trkpt lat="44.30346363322835" lon="11.423149356628963"><ele>472.00000000000006</ele><time>2026-04-30T07:07:23Z</time></trkpt><trkpt lat="44.30343745442076" lon="11.423304541424327"><ele>472.0</ele><time>2026-04-30T07:07:25Z</time></trkpt><trkpt lat="44.30342265325929" lon="11.423396360066914"><ele>474.1428571428571</ele><time>2026-04-30T07:07:26Z</time></trkpt><trkpt lat="44.30339089367785" lon="11.423478235026977"><ele>476.28571428571433</ele><time>2026-04-30T07:07:27Z</time></trkpt><trkpt lat="44.30334718997414" lon="11.423559432387572"><ele>478.42857142857144</ele><time>2026-04-30T07:07:28Z</time></trkpt><trkpt lat="44.30328739822672" lon="11.423605219257468"><ele>480.57142857142856</ele><time>2026-04-30T07:07:29Z</time></trkpt><trkpt lat="44.303236187316514" lon="11.423667515424501"><ele>482.71428571428567</ele><time>2026-04-30T07:07:30Z</time></trkpt><trkpt lat="44.30318353555349" lon="11.423731506044483"><ele>484.8571428571429</ele><time>2026-04-30T07:07:31Z</time></trkpt><trkpt lat="44.30313966147214" lon="11.423811962408166"><ele>487.0</ele><time>2026-04-30T07:07:32Z</time></trkpt><trkpt lat="44.30308341335493" lon="11.423878584117011"><ele>488.33333333333337</ele><time>2026-04-30T07:07:33Z</time></trkpt><trkpt lat="44.30302741578946" lon="11.423953275444415"><ele>489.6666666666667</ele><time>2026-04-30T07:07:34Z</time></trkpt><trkpt lat="44.30297617443386" lon="11.42404911541143"><ele>491.0</ele><time>2026-04-30T07:07:35Z</time></trkpt><trkpt lat="44.3029064542289" lon="11.424122317182274"><ele>492.33333333333337</ele><time>2026-04-30T07:07:36Z</time></trkpt><trkpt lat="44.302860396067736" lon="11.424196125327734"><ele>493.6666666666667</ele><time>2026-04-30T07:07:37Z</time></trkpt><trkpt lat="44.30282135383871" lon="11.424307538176768"><ele>495.0</ele><time>2026-04-30T07:07:39Z</time></trkpt><trkpt lat="44.30282614087635" lon="11.424517787250357"><ele>494.0</ele><time>2026-04-30T07:07:41Z</time></trkpt><trkpt lat="44.302849993055354" lon="11.424650951960992"><ele>493.0</ele><time>2026-04-30T07:07:42Z</time></trkpt><trkpt lat="44.30282121011102" lon="11.424766656007074"><ele>492.0</ele><time>2026-04-30T07:07:43Z</time></trkpt><trkpt lat="44.302811351181184" lon="11.42492312436535"><ele>491.0</ele><time>2026-04-30T07:07:44Z</time></trkpt><trkpt lat="44.30274924592493" lon="11.425036272033157"><ele>490.0</ele><time>2026-04-30T07:07:45Z</time></trkpt><trkpt lat="44.302742997671686" lon="11.425151635972389"><ele>490.00000000000006</ele><time>2026-04-30T07:07:46Z</time></trkpt><trkpt lat="44.30272344019375" lon="11.42524095224949"><ele>490.0</ele><time>2026-04-30T07:07:47Z</time></trkpt><trkpt lat="44.30270004513829" lon="11.425346588605581"><ele>490.0</ele><time>2026-04-30T07:07:49Z</time></trkpt><trkpt lat="44.30268758723261" lon="11.425436248301121"><ele>490.0</ele><time>2026-04-30T07:07:51Z</time></trkpt><trkpt lat="44.30257174177629" lon="11.425430753826713"><ele>490.00000000000006</ele><time>2026-04-30T07:07:55Z</time></trkpt><trkpt lat="44.30250994338083" lon="11.425388669690648"><ele>490.0</ele><time>2026-04-30T07:07:56Z</time></trkpt><trkpt lat="44.302433142391486" lon="11.42536144609092"><ele>490.0</ele><time>2026-04-30T07:07:57Z</time></trkpt><trkpt lat="44.30235781557647" lon="11.42532265473921"><ele>490.0</ele><time>2026-04-30T07:07:58Z</time></trkpt><trkpt lat="44.30226824321271" lon="11.425305946493703"><ele>490.0</ele><time>2026-04-30T07:07:59Z</time></trkpt><trkpt lat="44.302169306035566" lon="11.425285471294112"><ele>490.0</ele><time>2026-04-30T07:08:00Z</time></trkpt><trkpt lat="44.30207403514981" lon="11.425248422249698"><ele>490.0</ele><time>2026-04-30T07:08:01Z</time></trkpt><trkpt lat="44.30198281372186" lon="11.425218861948688"><ele>489.0</ele><time>2026-04-30T07:08:02Z</time></trkpt><trkpt lat="44.30188920590209" lon="11.425200360824538"><ele>488.0</ele><time>2026-04-30T07:08:03Z</time></trkpt><trkpt lat="44.30179902539603" lon="11.425161818939879"><ele>487.0</ele><time>2026-04-30T07:08:04Z</time></trkpt><trkpt lat="44.301690594575575" lon="11.425128755760245"><ele>486.0</ele><time>2026-04-30T07:08:05Z</time></trkpt><trkpt lat="44.301559626669324" lon="11.425111181751959"><ele>485.0</ele><time>2026-04-30T07:08:06Z</time></trkpt><trkpt lat="44.3014533322333" lon="11.425096711396673"><ele>482.3333333333333</ele><time>2026-04-30T07:08:07Z</time></trkpt><trkpt lat="44.301376473932784" lon="11.425124318340094"><ele>479.66666666666663</ele><time>2026-04-30T07:08:08Z</time></trkpt><trkpt lat="44.30132122812262" lon="11.425170973426344"><ele>477.0</ele><time>2026-04-30T07:08:09Z</time></trkpt><trkpt lat="44.30120389065646" lon="11.425235514226024"><ele>474.33333333333337</ele><time>2026-04-30T07:08:11Z</time></trkpt><trkpt lat="44.301134904928205" lon="11.425264125370262"><ele>471.6666666666667</ele><time>2026-04-30T07:08:12Z</time></trkpt><trkpt lat="44.30105729483226" lon="11.425271796965212"><ele>469.0</ele><time>2026-04-30T07:08:13Z</time></trkpt><trkpt lat="44.30097016194364" lon="11.425251348304805"><ele>469.0</ele><time>2026-04-30T07:08:14Z</time></trkpt><trkpt lat="44.30087895638819" lon="11.425217762140168"><ele>469.0</ele><time>2026-04-30T07:08:15Z</time></trkpt><trkpt lat="44.30078089922729" lon="11.42520806896323"><ele>469.0</ele><time>2026-04-30T07:08:16Z</time></trkpt><trkpt lat="44.30067520543889" lon="11.425210808017512"><ele>469.0</ele><time>2026-04-30T07:08:17Z</time></trkpt><trkpt lat="44.300566424840646" lon="11.425199265445928"><ele>469.0</ele><time>2026-04-30T07:08:18Z</time></trkpt><trkpt lat="44.300457305430506" lon="11.425172765380426"><ele>465.75</ele><time>2026-04-30T07:08:19Z</time></trkpt><trkpt lat="44.30035109766226" lon="11.425146495810457"><ele>462.5</ele><time>2026-04-30T07:08:20Z</time></trkpt><trkpt lat="44.30024269537993" lon="11.425098547753997"><ele>459.25</ele><time>2026-04-30T07:08:21Z</time></trkpt><trkpt lat="44.30013193476369" lon="11.425035931736366"><ele>456.0</ele><time>2026-04-30T07:08:22Z</time></trkpt><trkpt lat="44.30002839710223" lon="11.424972437028261"><ele>456.0</ele><time>2026-04-30T07:08:23Z</time></trkpt><trkpt lat="44.29992911963741" lon="11.424927524881024"><ele>456.0</ele><time>2026-04-30T07:08:24Z</time></trkpt><trkpt lat="44.2998245018908" lon="11.42488855670804"><ele>456.0</ele><time>2026-04-30T07:08:25Z</time></trkpt><trkpt lat="44.29971005083681" lon="11.424849744687933"><ele>456.0</ele><time>2026-04-30T07:08:26Z</time></trkpt><trkpt lat="44.29959020936035" lon="11.424813849060092"><ele>457.6</ele><time>2026-04-30T07:08:27Z</time></trkpt><trkpt lat="44.29948326172425" lon="11.424793558281024"><ele>459.20000000000005</ele><time>2026-04-30T07:08:28Z</time></trkpt><trkpt lat="44.29938085727822" lon="11.424782047120058"><ele>460.79999999999995</ele><time>2026-04-30T07:08:29Z</time></trkpt><trkpt lat="44.299291965096884" lon="11.424754528939015"><ele>462.4</ele><time>2026-04-30T07:08:30Z</time></trkpt><trkpt lat="44.29921589423605" lon="11.424775920340009"><ele>464.0</ele><time>2026-04-30T07:08:31Z</time></trkpt><trkpt lat="44.29913737605792" lon="11.424776730198774"><ele>464.0</ele><time>2026-04-30T07:08:32Z</time></trkpt><trkpt lat="44.299048285241234" lon="11.424789210931708"><ele>464.0</ele><time>2026-04-30T07:08:33Z</time></trkpt><trkpt lat="44.298952038613656" lon="11.424763793129406"><ele>464.0</ele><time>2026-04-30T07:08:34Z</time></trkpt><trkpt lat="44.29884240366675" lon="11.424754099707021"><ele>464.0</ele><time>2026-04-30T07:08:35Z</time></trkpt><trkpt lat="44.29872507813126" lon="11.424739174062335"><ele>464.0</ele><time>2026-04-30T07:08:36Z</time></trkpt><trkpt lat="44.29859564427044" lon="11.424715826977366"><ele>464.0</ele><time>2026-04-30T07:08:37Z</time></trkpt><trkpt lat="44.298475866662294" lon="11.424715637923176"><ele>464.0</ele><time>2026-04-30T07:08:38Z</time></trkpt><trkpt lat="44.29837569522474" lon="11.42468011835153"><ele>464.0</ele><time>2026-04-30T07:08:39Z</time></trkpt><trkpt lat="44.29827975424423" lon="11.42467309584628"><ele>464.0</ele><time>2026-04-30T07:08:40Z</time></trkpt><trkpt lat="44.29818971318638" lon="11.424669336084616"><ele>464.0</ele><time>2026-04-30T07:08:41Z</time></trkpt><trkpt lat="44.29810185186944" lon="11.424670159466164"><ele>466.0</ele><time>2026-04-30T07:08:42Z</time></trkpt><trkpt lat="44.29800743984754" lon="11.424678817801075"><ele>468.0</ele><time>2026-04-30T07:08:43Z</time></trkpt><trkpt lat="44.29790909744326" lon="11.424734872750353"><ele>470.0</ele><time>2026-04-30T07:08:44Z</time></trkpt><trkpt lat="44.29781569621963" lon="11.424791066974763"><ele>472.0</ele><time>2026-04-30T07:08:45Z</time></trkpt><trkpt lat="44.29772971440025" lon="11.424867739976236"><ele>474.0</ele><time>2026-04-30T07:08:46Z</time></trkpt><trkpt lat="44.29763500338378" lon="11.424929400581307"><ele>474.0</ele><time>2026-04-30T07:08:47Z</time></trkpt><trkpt lat="44.29755001480281" lon="11.4249828519048"><ele>474.0</ele><time>2026-04-30T07:08:48Z</time></trkpt><trkpt lat="44.29747439699822" lon="11.42500473983292"><ele>474.0</ele><time>2026-04-30T07:08:49Z</time></trkpt><trkpt lat="44.2973920175376" lon="11.424978247944438"><ele>474.0</ele><time>2026-04-30T07:08:50Z</time></trkpt><trkpt lat="44.29730639914019" lon="11.424935202297752"><ele>474.0</ele><time>2026-04-30T07:08:51Z</time></trkpt><trkpt lat="44.297227999982475" lon="11.424918735068665"><ele>474.0</ele><time>2026-04-30T07:08:52Z</time></trkpt><trkpt lat="44.297123054781274" lon="11.424973417805484"><ele>473.1666666666667</ele><time>2026-04-30T07:08:54Z</time></trkpt><trkpt lat="44.2970904000693" lon="11.425063563267209"><ele>472.33333333333337</ele><time>2026-04-30T07:08:55Z</time></trkpt><trkpt lat="44.297102716589066" lon="11.425190347830533"><ele>471.5</ele><time>2026-04-30T07:08:56Z</time></trkpt><trkpt lat="44.29708640982531" lon="11.425312230624238"><ele>470.6666666666667</ele><time>2026-04-30T07:08:57Z</time></trkpt><trkpt lat="44.2970631642972" lon="11.425439434218546"><ele>469.83333333333337</ele><time>2026-04-30T07:08:58Z</time></trkpt><trkpt lat="44.297028359828715" lon="11.425522646532656"><ele>469.0</ele><time>2026-04-30T07:08:59Z</time></trkpt><trkpt lat="44.29698629348136" lon="11.425588264688237"><ele>470.83333333333337</ele><time>2026-04-30T07:09:00Z</time></trkpt><trkpt lat="44.296927547941216" lon="11.425640229259917"><ele>472.6666666666667</ele><time>2026-04-30T07:09:01Z</time></trkpt><trkpt lat="44.296863202570755" lon="11.42570204796798"><ele>474.5</ele><time>2026-04-30T07:09:02Z</time></trkpt><trkpt lat="44.296788335476194" lon="11.425755389489536"><ele>476.33333333333337</ele><time>2026-04-30T07:09:03Z</time></trkpt><trkpt lat="44.296721774309695" lon="11.425786862736317"><ele>478.1666666666667</ele><time>2026-04-30T07:09:04Z</time></trkpt><trkpt lat="44.29665092866135" lon="11.42582390205632"><ele>480.0</ele><time>2026-04-30T07:09:05Z</time></trkpt><trkpt lat="44.29656549603544" lon="11.425853112808017"><ele>480.0</ele><time>2026-04-30T07:09:06Z</time></trkpt><trkpt lat="44.296483360490974" lon="11.425891578686475"><ele>480.0</ele><time>2026-04-30T07:09:07Z</time></trkpt><trkpt lat="44.29640692283845" lon="11.425917606375803"><ele>480.0</ele><time>2026-04-30T07:09:08Z</time></trkpt><trkpt lat="44.29633343020613" lon="11.425930793278683"><ele>480.0</ele><time>2026-04-30T07:09:09Z</time></trkpt><trkpt lat="44.29625442523575" lon="11.425936186258872"><ele>480.0</ele><time>2026-04-30T07:09:10Z</time></trkpt><trkpt lat="44.29616705379788" lon="11.425946271675295"><ele>480.0</ele><time>2026-04-30T07:09:11Z</time></trkpt><trkpt lat="44.296074286102346" lon="11.425961119365114"><ele>480.8333333333333</ele><time>2026-04-30T07:09:12Z</time></trkpt><trkpt lat="44.2959887884163" lon="11.425970758342505"><ele>481.66666666666663</ele><time>2026-04-30T07:09:13Z</time></trkpt><trkpt lat="44.29591693758783" lon="11.425983832998957"><ele>482.5</ele><time>2026-04-30T07:09:14Z</time></trkpt><trkpt lat="44.29584514573845" lon="11.425987294874584"><ele>483.3333333333333</ele><time>2026-04-30T07:09:15Z</time></trkpt><trkpt lat="44.29577058103014" lon="11.42602703829987"><ele>484.16666666666663</ele><time>2026-04-30T07:09:16Z</time></trkpt><trkpt lat="44.29567589950739" lon="11.426051587421492"><ele>485.0</ele><time>2026-04-30T07:09:17Z</time></trkpt><trkpt lat="44.29558473646431" lon="11.426083087105814"><ele>486.6</ele><time>2026-04-30T07:09:18Z</time></trkpt><trkpt lat="44.29550890072491" lon="11.4261068695726"><ele>488.2</ele><time>2026-04-30T07:09:19Z</time></trkpt><trkpt lat="44.29543136401434" lon="11.426148279146604"><ele>489.79999999999995</ele><time>2026-04-30T07:09:20Z</time></trkpt><trkpt lat="44.295337505955914" lon="11.426154922945573"><ele>491.4</ele><time>2026-04-30T07:09:21Z</time></trkpt><trkpt lat="44.295236654982475" lon="11.426151635577833"><ele>493.0</ele><time>2026-04-30T07:09:22Z</time></trkpt><trkpt lat="44.295139954919826" lon="11.426176684411537"><ele>493.0</ele><time>2026-04-30T07:09:23Z</time></trkpt><trkpt lat="44.295046996485645" lon="11.426173404270186"><ele>492.99999999999994</ele><time>2026-04-30T07:09:24Z</time></trkpt><trkpt lat="44.29495542691267" lon="11.426169844291998"><ele>492.99999999999994</ele><time>2026-04-30T07:09:25Z</time></trkpt><trkpt lat="44.29486398316404" lon="11.426201901587335"><ele>493.0</ele><time>2026-04-30T07:09:26Z</time></trkpt><trkpt lat="44.294759438338154" lon="11.42626903316004"><ele>493.0</ele><time>2026-04-30T07:09:27Z</time></trkpt><trkpt lat="44.29466671276333" lon="11.426314380515244"><ele>494.4</ele><time>2026-04-30T07:09:28Z</time></trkpt><trkpt lat="44.29458914670777" lon="11.426320219546195"><ele>495.79999999999995</ele><time>2026-04-30T07:09:29Z</time></trkpt><trkpt lat="44.29448915011586" lon="11.426286126613146"><ele>497.2</ele><time>2026-04-30T07:09:31Z</time></trkpt><trkpt lat="44.2944237715479" lon="11.426467579381358"><ele>498.6</ele><time>2026-04-30T07:09:33Z</time></trkpt><trkpt lat="44.29438949215877" lon="11.426597431496143"><ele>500.0</ele><time>2026-04-30T07:09:34Z</time></trkpt><trkpt lat="44.294356219391105" lon="11.426730936141979"><ele>500.0</ele><time>2026-04-30T07:09:35Z</time></trkpt><trkpt lat="44.294312779027514" lon="11.426864715977763"><ele>500.0</ele><time>2026-04-30T07:09:36Z</time></trkpt><trkpt lat="44.29426743174398" lon="11.427007825372428"><ele>500.0</ele><time>2026-04-30T07:09:37Z</time></trkpt><trkpt lat="44.29423361860949" lon="11.427155317582349"><ele>500.0</ele><time>2026-04-30T07:09:38Z</time></trkpt><trkpt lat="44.294207577185304" lon="11.427273366763696"><ele>500.0</ele><time>2026-04-30T07:09:39Z</time></trkpt><trkpt lat="44.29418577896119" lon="11.42736627056239"><ele>499.66666666666663</ele><time>2026-04-30T07:09:40Z</time></trkpt><trkpt lat="44.29412022323548" lon="11.427483528616467"><ele>499.3333333333333</ele><time>2026-04-30T07:09:42Z</time></trkpt><trkpt lat="44.294061865672916" lon="11.427538513714168"><ele>499.0</ele><time>2026-04-30T07:09:43Z</time></trkpt><trkpt lat="44.29399824022601" lon="11.427573179179044"><ele>498.66666666666663</ele><time>2026-04-30T07:09:44Z</time></trkpt><trkpt lat="44.29392422531893" lon="11.427627099047932"><ele>498.3333333333333</ele><time>2026-04-30T07:09:45Z</time></trkpt><trkpt lat="44.29384842630804" lon="11.42768047877857"><ele>498.0</ele><time>2026-04-30T07:09:46Z</time></trkpt><trkpt lat="44.293773919069956" lon="11.427728490034454"><ele>497.2</ele><time>2026-04-30T07:09:47Z</time></trkpt><trkpt lat="44.29369055938093" lon="11.427770025651887"><ele>496.4</ele><time>2026-04-30T07:09:48Z</time></trkpt><trkpt lat="44.29359995192091" lon="11.427826541706285"><ele>495.59999999999997</ele><time>2026-04-30T07:09:49Z</time></trkpt><trkpt lat="44.293508414643405" lon="11.4278898307027"><ele>494.79999999999995</ele><time>2026-04-30T07:09:50Z</time></trkpt><trkpt lat="44.29342730957245" lon="11.427944920037536"><ele>494.0</ele><time>2026-04-30T07:09:51Z</time></trkpt><trkpt lat="44.293354448995174" lon="11.427998598262535"><ele>493.99999999999994</ele><time>2026-04-30T07:09:52Z</time></trkpt><trkpt lat="44.293269127946964" lon="11.428038444425768"><ele>494.0</ele><time>2026-04-30T07:09:53Z</time></trkpt><trkpt lat="44.29318706476912" lon="11.428105615406198"><ele>494.0</ele><time>2026-04-30T07:09:54Z</time></trkpt><trkpt lat="44.29310567153409" lon="11.428129636459241"><ele>494.0</ele><time>2026-04-30T07:09:55Z</time></trkpt><trkpt lat="44.29303092940918" lon="11.428155260582267"><ele>493.99999999999994</ele><time>2026-04-30T07:09:56Z</time></trkpt><trkpt lat="44.29295244800849" lon="11.428167867922578"><ele>494.0</ele><time>2026-04-30T07:09:57Z</time></trkpt><trkpt lat="44.29287035239656" lon="11.42814209750159"><ele>494.99999999999994</ele><time>2026-04-30T07:09:58Z</time></trkpt><trkpt lat="44.29277665697543" lon="11.428114771655876"><ele>496.0</ele><time>2026-04-30T07:09:59Z</time></trkpt><trkpt lat="44.29268120540129" lon="11.428083509482057"><ele>497.0</ele><time>2026-04-30T07:10:00Z</time></trkpt><trkpt lat="44.292596314880456" lon="11.428062963909841"><ele>498.0</ele><time>2026-04-30T07:10:01Z</time></trkpt><trkpt lat="44.2925174346985" lon="11.428043873127134"><ele>498.99999999999994</ele><time>2026-04-30T07:10:02Z</time></trkpt><trkpt lat="44.29243973354143" lon="11.428014928084172"><ele>500.0</ele><time>2026-04-30T07:10:03Z</time></trkpt><trkpt lat="44.29236439457104" lon="11.427972227174905"><ele>499.99999999999994</ele><time>2026-04-30T07:10:04Z</time></trkpt><trkpt lat="44.29228803437148" lon="11.427913970480677"><ele>500.0</ele><time>2026-04-30T07:10:05Z</time></trkpt><trkpt lat="44.29221407132483" lon="11.42783721107822"><ele>500.0</ele><time>2026-04-30T07:10:06Z</time></trkpt><trkpt lat="44.29215416758881" lon="11.427749537183653"><ele>500.0</ele><time>2026-04-30T07:10:07Z</time></trkpt><trkpt lat="44.29211424906647" lon="11.427658433984249"><ele>499.99999999999994</ele><time>2026-04-30T07:10:08Z</time></trkpt><trkpt lat="44.292070015999656" lon="11.427558531652949"><ele>500.0</ele><time>2026-04-30T07:10:09Z</time></trkpt><trkpt lat="44.29200202617325" lon="11.427481078138568"><ele>498.16666666666663</ele><time>2026-04-30T07:10:10Z</time></trkpt><trkpt lat="44.291938383098106" lon="11.427409929927805"><ele>496.3333333333333</ele><time>2026-04-30T07:10:11Z</time></trkpt><trkpt lat="44.29186871299885" lon="11.42735613194967"><ele>494.5</ele><time>2026-04-30T07:10:12Z</time></trkpt><trkpt lat="44.291787456075085" lon="11.427301373656377"><ele>492.66666666666663</ele><time>2026-04-30T07:10:13Z</time></trkpt><trkpt lat="44.29170865059477" lon="11.42726008678803"><ele>490.8333333333333</ele><time>2026-04-30T07:10:14Z</time></trkpt><trkpt lat="44.291638612118085" lon="11.427227696824975"><ele>489.0</ele><time>2026-04-30T07:10:15Z</time></trkpt><trkpt lat="44.29156012067524" lon="11.427225720730767"><ele>489.0</ele><time>2026-04-30T07:10:16Z</time></trkpt><trkpt lat="44.29146533434699" lon="11.42724602110859"><ele>489.0</ele><time>2026-04-30T07:10:17Z</time></trkpt><trkpt lat="44.291378828395054" lon="11.427271036786571"><ele>489.0</ele><time>2026-04-30T07:10:18Z</time></trkpt><trkpt lat="44.29131043118846" lon="11.427320973003612"><ele>489.0</ele><time>2026-04-30T07:10:19Z</time></trkpt><trkpt lat="44.29125056316931" lon="11.427374866950839"><ele>489.0</ele><time>2026-04-30T07:10:20Z</time></trkpt><trkpt lat="44.2911984720292" lon="11.427452701216167"><ele>489.0</ele><time>2026-04-30T07:10:21Z</time></trkpt><trkpt lat="44.291137915906674" lon="11.427529228956802"><ele>489.5</ele><time>2026-04-30T07:10:22Z</time></trkpt><trkpt lat="44.291093221999226" lon="11.427610697467538"><ele>490.0</ele><time>2026-04-30T07:10:23Z</time></trkpt><trkpt lat="44.29103851300124" lon="11.427688570397525"><ele>490.5</ele><time>2026-04-30T07:10:24Z</time></trkpt><trkpt lat="44.290985204632236" lon="11.427754213798442"><ele>491.0</ele><time>2026-04-30T07:10:25Z</time></trkpt><trkpt lat="44.29086443328866" lon="11.427753553459322"><ele>491.5</ele><time>2026-04-30T07:10:27Z</time></trkpt><trkpt lat="44.29077562056071" lon="11.42771996646931"><ele>492.0</ele><time>2026-04-30T07:10:28Z</time></trkpt><trkpt lat="44.29068277769441" lon="11.427635790707688"><ele>492.0</ele><time>2026-04-30T07:10:29Z</time></trkpt><trkpt lat="44.29059790709935" lon="11.42757346975551"><ele>492.0</ele><time>2026-04-30T07:10:30Z</time></trkpt><trkpt lat="44.29052387755237" lon="11.427530981377258"><ele>492.0</ele><time>2026-04-30T07:10:31Z</time></trkpt><trkpt lat="44.29043656289348" lon="11.427542121844336"><ele>492.0</ele><time>2026-04-30T07:10:32Z</time></trkpt><trkpt lat="44.29035582537783" lon="11.4275712813119"><ele>492.0</ele><time>2026-04-30T07:10:33Z</time></trkpt><trkpt lat="44.29027309386219" lon="11.42762254042654"><ele>492.0</ele><time>2026-04-30T07:10:34Z</time></trkpt><trkpt lat="44.290202952804165" lon="11.42769946213666"><ele>491.0</ele><time>2026-04-30T07:10:35Z</time></trkpt><trkpt lat="44.290143396026" lon="11.42780962622939"><ele>490.00000000000006</ele><time>2026-04-30T07:10:36Z</time></trkpt><trkpt lat="44.290092355705006" lon="11.42793497767729"><ele>489.00000000000006</ele><time>2026-04-30T07:10:37Z</time></trkpt><trkpt lat="44.29003290267756" lon="11.428024054687553"><ele>488.0</ele><time>2026-04-30T07:10:38Z</time></trkpt><trkpt lat="44.289957288959485" lon="11.428065584418565"><ele>487.0</ele><time>2026-04-30T07:10:39Z</time></trkpt><trkpt lat="44.289864542482135" lon="11.428070259601881"><ele>487.00000000000006</ele><time>2026-04-30T07:10:40Z</time></trkpt><trkpt lat="44.28977254951017" lon="11.428053752493055"><ele>487.0</ele><time>2026-04-30T07:10:41Z</time></trkpt><trkpt lat="44.28968607569563" lon="11.428049476759497"><ele>487.0</ele><time>2026-04-30T07:10:42Z</time></trkpt><trkpt lat="44.289608181865546" lon="11.42808885869579"><ele>487.0</ele><time>2026-04-30T07:10:43Z</time></trkpt><trkpt lat="44.28952825198844" lon="11.428120553630679"><ele>487.00000000000006</ele><time>2026-04-30T07:10:44Z</time></trkpt><trkpt lat="44.28944179874686" lon="11.428143569198115"><ele>487.0</ele><time>2026-04-30T07:10:45Z</time></trkpt><trkpt lat="44.28936574263839" lon="11.42813531767092"><ele>488.40000000000003</ele><time>2026-04-30T07:10:46Z</time></trkpt><trkpt lat="44.28924532109545" lon="11.428044764001278"><ele>489.80000000000007</ele><time>2026-04-30T07:10:48Z</time></trkpt><trkpt lat="44.28916067873913" lon="11.427982021207912"><ele>491.2</ele><time>2026-04-30T07:10:49Z</time></trkpt><trkpt lat="44.28907307027379" lon="11.427936674046636"><ele>492.6</ele><time>2026-04-30T07:10:50Z</time></trkpt><trkpt lat="44.28899607297703" lon="11.427960748331513"><ele>494.0</ele><time>2026-04-30T07:10:51Z</time></trkpt><trkpt lat="44.28893466955781" lon="11.427927393115409"><ele>493.8333333333333</ele><time>2026-04-30T07:10:52Z</time></trkpt><trkpt lat="44.28884495099321" lon="11.427872072252045"><ele>493.66666666666663</ele><time>2026-04-30T07:10:54Z</time></trkpt><trkpt lat="44.28879103798485" lon="11.427750796366519"><ele>493.5</ele><time>2026-04-30T07:10:56Z</time></trkpt><trkpt lat="44.28878254303947" lon="11.427663351921954"><ele>493.33333333333337</ele><time>2026-04-30T07:10:57Z</time></trkpt><trkpt lat="44.28877802051261" lon="11.427570578696054"><ele>493.1666666666667</ele><time>2026-04-30T07:10:58Z</time></trkpt><trkpt lat="44.28874501896654" lon="11.427426086063003"><ele>493.0</ele><time>2026-04-30T07:11:00Z</time></trkpt><trkpt lat="44.28869968141839" lon="11.427318103676116"><ele>493.0</ele><time>2026-04-30T07:11:02Z</time></trkpt><trkpt lat="44.28858987416293" lon="11.427378999683892"><ele>492.99999999999994</ele><time>2026-04-30T07:11:07Z</time></trkpt><trkpt lat="44.28855858171048" lon="11.427481796204699"><ele>492.99999999999994</ele><time>2026-04-30T07:11:08Z</time></trkpt><trkpt lat="44.28851958800238" lon="11.427610194713836"><ele>493.0</ele><time>2026-04-30T07:11:09Z</time></trkpt><trkpt lat="44.28846923788461" lon="11.427742357709255"><ele>493.0</ele><time>2026-04-30T07:11:10Z</time></trkpt><trkpt lat="44.28842667809053" lon="11.427858121834017"><ele>493.00000000000006</ele><time>2026-04-30T07:11:11Z</time></trkpt><trkpt lat="44.288395850375615" lon="11.427962672169036"><ele>493.0</ele><time>2026-04-30T07:11:12Z</time></trkpt><trkpt lat="44.28838614617103" lon="11.428068798764654"><ele>493.0</ele><time>2026-04-30T07:11:13Z</time></trkpt><trkpt lat="44.28839679089581" lon="11.42819169010145"><ele>493.0</ele><time>2026-04-30T07:11:14Z</time></trkpt><trkpt lat="44.28840878818471" lon="11.428296231272093"><ele>493.00000000000006</ele><time>2026-04-30T07:11:15Z</time></trkpt><trkpt lat="44.28842462927094" lon="11.428391860334678"><ele>493.0</ele><time>2026-04-30T07:11:16Z</time></trkpt><trkpt lat="44.28845666622024" lon="11.42848246682814"><ele>491.6666666666667</ele><time>2026-04-30T07:11:17Z</time></trkpt><trkpt lat="44.28850873428503" lon="11.428575670244479"><ele>490.33333333333337</ele><time>2026-04-30T07:11:18Z</time></trkpt><trkpt lat="44.28857301421824" lon="11.428691237484587"><ele>489.0</ele><time>2026-04-30T07:11:19Z</time></trkpt><trkpt lat="44.28861995536494" lon="11.428804472754162"><ele>487.66666666666663</ele><time>2026-04-30T07:11:20Z</time></trkpt><trkpt lat="44.288699383218905" lon="11.42885574342188"><ele>486.3333333333333</ele><time>2026-04-30T07:11:21Z</time></trkpt><trkpt lat="44.28876107399256" lon="11.428905089123008"><ele>485.0</ele><time>2026-04-30T07:11:22Z</time></trkpt><trkpt lat="44.28881968291234" lon="11.428947546440718"><ele>483.8333333333333</ele><time>2026-04-30T07:11:23Z</time></trkpt><trkpt lat="44.28893715230218" lon="11.429002386013188"><ele>482.66666666666663</ele><time>2026-04-30T07:11:25Z</time></trkpt><trkpt lat="44.28899990942323" lon="11.429019080037463"><ele>481.5</ele><time>2026-04-30T07:11:26Z</time></trkpt><trkpt lat="44.289070948957075" lon="11.429048168577289"><ele>480.33333333333337</ele><time>2026-04-30T07:11:27Z</time></trkpt><trkpt lat="44.289138061202394" lon="11.429088312702236"><ele>479.1666666666667</ele><time>2026-04-30T07:11:28Z</time></trkpt><trkpt lat="44.28920257270518" lon="11.429142688265975"><ele>478.0</ele><time>2026-04-30T07:11:29Z</time></trkpt><trkpt lat="44.289261525711126" lon="11.429199284404357"><ele>478.00000000000006</ele><time>2026-04-30T07:11:30Z</time></trkpt><trkpt lat="44.28930731318389" lon="11.429264106150535"><ele>478.0</ele><time>2026-04-30T07:11:31Z</time></trkpt><trkpt lat="44.28934004004287" lon="11.429340026232497"><ele>478.0</ele><time>2026-04-30T07:11:32Z</time></trkpt><trkpt lat="44.28933164573403" lon="11.429439475529604"><ele>478.0</ele><time>2026-04-30T07:11:33Z</time></trkpt><trkpt lat="44.28935598239172" lon="11.429598846672933"><ele>478.00000000000006</ele><time>2026-04-30T07:11:35Z</time></trkpt><trkpt lat="44.28939952705692" lon="11.429665052375846"><ele>478.0</ele><time>2026-04-30T07:11:36Z</time></trkpt><trkpt lat="44.28946849093043" lon="11.42979277986553"><ele>476.1666666666667</ele><time>2026-04-30T07:11:38Z</time></trkpt><trkpt lat="44.28951832359868" lon="11.42986975864666"><ele>474.33333333333337</ele><time>2026-04-30T07:11:40Z</time></trkpt><trkpt lat="44.28951934568757" lon="11.429969077290355"><ele>472.5</ele><time>2026-04-30T07:11:43Z</time></trkpt><trkpt lat="44.289472782680605" lon="11.430051648793778"><ele>470.66666666666663</ele><time>2026-04-30T07:11:46Z</time></trkpt><trkpt lat="44.28950751698776" lon="11.430146337868669"><ele>468.8333333333333</ele><time>2026-04-30T07:11:49Z</time></trkpt><trkpt lat="44.289544015847504" lon="11.430244160892464"><ele>467.0</ele><time>2026-04-30T07:11:51Z</time></trkpt><trkpt lat="44.28953253700454" lon="11.430388619328243"><ele>465.0</ele><time>2026-04-30T07:11:53Z</time></trkpt><trkpt lat="44.289540473116176" lon="11.430539090001481"><ele>463.00000000000006</ele><time>2026-04-30T07:11:55Z</time></trkpt><trkpt lat="44.28949892726343" lon="11.43062853460855"><ele>461.00000000000006</ele><time>2026-04-30T07:11:56Z</time></trkpt><trkpt lat="44.2894967872746" lon="11.430798069176964"><ele>459.0</ele><time>2026-04-30T07:11:58Z</time></trkpt><trkpt lat="44.28949655223953" lon="11.43088932882948"><ele>457.0</ele><time>2026-04-30T07:11:59Z</time></trkpt><trkpt lat="44.289527799301545" lon="11.431020208654717"><ele>457.00000000000006</ele><time>2026-04-30T07:12:00Z</time></trkpt><trkpt lat="44.28956378167524" lon="11.431121148022891"><ele>457.0</ele><time>2026-04-30T07:12:01Z</time></trkpt><trkpt lat="44.289594787559814" lon="11.43123218214492"><ele>457.0</ele><time>2026-04-30T07:12:02Z</time></trkpt><trkpt lat="44.28958326021988" lon="11.431342249957048"><ele>457.0</ele><time>2026-04-30T07:12:03Z</time></trkpt><trkpt lat="44.289590351090006" lon="11.431464252017392"><ele>457.00000000000006</ele><time>2026-04-30T07:12:04Z</time></trkpt><trkpt lat="44.2896289322881" lon="11.43158393997093"><ele>457.0</ele><time>2026-04-30T07:12:05Z</time></trkpt><trkpt lat="44.28966327613113" lon="11.43170759227641"><ele>455.8</ele><time>2026-04-30T07:12:06Z</time></trkpt><trkpt lat="44.28969973695528" lon="11.431829432524045"><ele>454.6</ele><time>2026-04-30T07:12:07Z</time></trkpt><trkpt lat="44.289734608801766" lon="11.431950819270622"><ele>453.40000000000003</ele><time>2026-04-30T07:12:08Z</time></trkpt><trkpt lat="44.289765231252105" lon="11.432076671059482"><ele>452.20000000000005</ele><time>2026-04-30T07:12:09Z</time></trkpt><trkpt lat="44.289779606733426" lon="11.432207394282482"><ele>451.0</ele><time>2026-04-30T07:12:10Z</time></trkpt><trkpt lat="44.28980855760333" lon="11.432314626944097"><ele>449.6666666666667</ele><time>2026-04-30T07:12:11Z</time></trkpt><trkpt lat="44.28982962410305" lon="11.432428572105357"><ele>448.33333333333337</ele><time>2026-04-30T07:12:12Z</time></trkpt><trkpt lat="44.289850166932666" lon="11.432532416981035"><ele>447.0</ele><time>2026-04-30T07:12:13Z</time></trkpt><trkpt lat="44.28987589897933" lon="11.432634271505922"><ele>445.66666666666663</ele><time>2026-04-30T07:12:14Z</time></trkpt><trkpt lat="44.28990907780161" lon="11.432741002539656"><ele>444.3333333333333</ele><time>2026-04-30T07:12:15Z</time></trkpt><trkpt lat="44.28993585327821" lon="11.432841344203034"><ele>443.0</ele><time>2026-04-30T07:12:16Z</time></trkpt><trkpt lat="44.289982089676776" lon="11.432941591949453"><ele>441.66666666666663</ele><time>2026-04-30T07:12:17Z</time></trkpt><trkpt lat="44.29003876404106" lon="11.433024802778458"><ele>440.3333333333333</ele><time>2026-04-30T07:12:18Z</time></trkpt><trkpt lat="44.29009226178043" lon="11.43310672236915"><ele>439.0</ele><time>2026-04-30T07:12:19Z</time></trkpt><trkpt lat="44.29013546493164" lon="11.433191956085874"><ele>437.66666666666663</ele><time>2026-04-30T07:12:20Z</time></trkpt><trkpt lat="44.290167902295586" lon="11.433276306802636"><ele>436.3333333333333</ele><time>2026-04-30T07:12:21Z</time></trkpt><trkpt lat="44.29019378863577" lon="11.433358285764944"><ele>435.0</ele><time>2026-04-30T07:12:22Z</time></trkpt><trkpt lat="44.29020128311249" lon="11.433506854915471"><ele>435.0</ele><time>2026-04-30T07:12:24Z</time></trkpt><trkpt lat="44.29017462522617" lon="11.433657452265178"><ele>435.0</ele><time>2026-04-30T07:12:26Z</time></trkpt><trkpt lat="44.290205358017694" lon="11.43379874884014"><ele>435.0</ele><time>2026-04-30T07:12:28Z</time></trkpt><trkpt lat="44.29024462982449" lon="11.433964723057102"><ele>435.0</ele><time>2026-04-30T07:12:30Z</time></trkpt><trkpt lat="44.29027282966414" lon="11.434055646598466"><ele>435.0</ele><time>2026-04-30T07:12:31Z</time></trkpt><trkpt lat="44.29030440760733" lon="11.434149950194255"><ele>432.6666666666667</ele><time>2026-04-30T07:12:32Z</time></trkpt><trkpt lat="44.29033633314601" lon="11.434252349030846"><ele>430.33333333333337</ele><time>2026-04-30T07:12:33Z</time></trkpt><trkpt lat="44.29037040095288" lon="11.434348176802803"><ele>428.0</ele><time>2026-04-30T07:12:34Z</time></trkpt><trkpt lat="44.290405371668776" lon="11.434434066347071"><ele>425.6666666666667</ele><time>2026-04-30T07:12:35Z</time></trkpt><trkpt lat="44.29043726714782" lon="11.434513758602641"><ele>423.33333333333337</ele><time>2026-04-30T07:12:36Z</time></trkpt><trkpt lat="44.29049202959709" lon="11.434659936386465"><ele>421.0</ele><time>2026-04-30T07:12:38Z</time></trkpt><trkpt lat="44.290550368764514" lon="11.434803443752124"><ele>418.83333333333337</ele><time>2026-04-30T07:12:40Z</time></trkpt><trkpt lat="44.29059735858232" lon="11.434886196339377"><ele>416.6666666666667</ele><time>2026-04-30T07:12:41Z</time></trkpt><trkpt lat="44.290653785706" lon="11.434968376091057"><ele>414.5</ele><time>2026-04-30T07:12:42Z</time></trkpt><trkpt lat="44.290710353814745" lon="11.435052177026252"><ele>412.33333333333337</ele><time>2026-04-30T07:12:43Z</time></trkpt><trkpt lat="44.29076840700165" lon="11.435124517553929"><ele>410.1666666666667</ele><time>2026-04-30T07:12:44Z</time></trkpt><trkpt lat="44.29082190940116" lon="11.435195771726587"><ele>408.0</ele><time>2026-04-30T07:12:45Z</time></trkpt><trkpt lat="44.29086868553808" lon="11.435268897516313"><ele>408.0</ele><time>2026-04-30T07:12:46Z</time></trkpt><trkpt lat="44.29091295497644" lon="11.435334633665978"><ele>408.0</ele><time>2026-04-30T07:12:47Z</time></trkpt><trkpt lat="44.29098058256861" lon="11.435465008672143"><ele>408.0</ele><time>2026-04-30T07:12:49Z</time></trkpt><trkpt lat="44.291008450453276" lon="11.43563917098288"><ele>408.0</ele><time>2026-04-30T07:12:51Z</time></trkpt><trkpt lat="44.29101712677435" lon="11.435728518765728"><ele>408.0</ele><time>2026-04-30T07:12:52Z</time></trkpt><trkpt lat="44.291030433740104" lon="11.435877614359274"><ele>407.2</ele><time>2026-04-30T07:12:54Z</time></trkpt><trkpt lat="44.290989501794805" lon="11.435993154356742"><ele>406.4</ele><time>2026-04-30T07:12:57Z</time></trkpt><trkpt lat="44.290942572564276" lon="11.43609454902516"><ele>405.59999999999997</ele><time>2026-04-30T07:12:59Z</time></trkpt><trkpt lat="44.29094535970945" lon="11.436228980506856"><ele>404.79999999999995</ele><time>2026-04-30T07:13:01Z</time></trkpt><trkpt lat="44.29097035798388" lon="11.4363916032896"><ele>404.0</ele><time>2026-04-30T07:13:03Z</time></trkpt><trkpt lat="44.29096121777484" lon="11.436492945419783"><ele>402.42857142857144</ele><time>2026-04-30T07:13:04Z</time></trkpt><trkpt lat="44.29096040924056" lon="11.43659773718589"><ele>400.85714285714283</ele><time>2026-04-30T07:13:05Z</time></trkpt><trkpt lat="44.29095952645247" lon="11.436709430439342"><ele>399.28571428571433</ele><time>2026-04-30T07:13:06Z</time></trkpt><trkpt lat="44.29096637177207" lon="11.436817162337796"><ele>397.7142857142857</ele><time>2026-04-30T07:13:07Z</time></trkpt><trkpt lat="44.29098016492099" lon="11.43690711414594"><ele>396.14285714285717</ele><time>2026-04-30T07:13:08Z</time></trkpt><trkpt lat="44.29100072976782" lon="11.437011254025958"><ele>394.5714285714286</ele><time>2026-04-30T07:13:10Z</time></trkpt><trkpt lat="44.29101636700943" lon="11.437098944910826"><ele>393.0</ele><time>2026-04-30T07:13:14Z</time></trkpt><trkpt lat="44.291045038412484" lon="11.437192661479632"><ele>391.0</ele><time>2026-04-30T07:13:20Z</time></trkpt><trkpt lat="44.29108769162997" lon="11.437270763722754"><ele>389.0</ele><time>2026-04-30T07:13:25Z</time></trkpt><trkpt lat="44.29103594170462" lon="11.437368433427338"><ele>387.0</ele><time>2026-04-30T07:13:26Z</time></trkpt><trkpt lat="44.29107776673722" lon="11.437445103634955"><ele>385.0</ele><time>2026-04-30T07:13:29Z</time></trkpt><trkpt lat="44.29111777694596" lon="11.43751726162678"><ele>383.0</ele><time>2026-04-30T07:13:32Z</time></trkpt><trkpt lat="44.29117530375771" lon="11.437595163358171"><ele>381.0</ele><time>2026-04-30T07:13:35Z</time></trkpt><trkpt lat="44.29124089712072" lon="11.437683911807405"><ele>381.0</ele><time>2026-04-30T07:13:38Z</time></trkpt><trkpt lat="44.29128604086627" lon="11.437761721544453"><ele>381.0</ele><time>2026-04-30T07:13:41Z</time></trkpt><trkpt lat="44.29132765968384" lon="11.437847630618194"><ele>381.0</ele><time>2026-04-30T07:13:44Z</time></trkpt><trkpt lat="44.29135323763877" lon="11.437928471037623"><ele>381.0</ele><time>2026-04-30T07:13:47Z</time></trkpt><trkpt lat="44.29137735219618" lon="11.438015292984792"><ele>381.0</ele><time>2026-04-30T07:13:50Z</time></trkpt><trkpt lat="44.291407269224145" lon="11.438124535823807"><ele>381.0</ele><time>2026-04-30T07:13:53Z</time></trkpt><trkpt lat="44.29143174627288" lon="11.438206125221551"><ele>381.0</ele><time>2026-04-30T07:13:55Z</time></trkpt><trkpt lat="44.29144873355098" lon="11.438330093504165"><ele>380.8333333333333</ele><time>2026-04-30T07:13:58Z</time></trkpt><trkpt lat="44.29147282593948" lon="11.43843449209965"><ele>380.6666666666667</ele><time>2026-04-30T07:14:01Z</time></trkpt><trkpt lat="44.291486126831856" lon="11.438552638011744"><ele>380.5</ele><time>2026-04-30T07:14:04Z</time></trkpt><trkpt lat="44.291495721507765" lon="11.438650744234636"><ele>380.33333333333337</ele><time>2026-04-30T07:14:06Z</time></trkpt><trkpt lat="44.29150666904061" lon="11.438738793171535"><ele>380.1666666666667</ele><time>2026-04-30T07:14:08Z</time></trkpt><trkpt lat="44.29152884595444" lon="11.438854386834649"><ele>380.0</ele><time>2026-04-30T07:14:11Z</time></trkpt><trkpt lat="44.29153287200351" lon="11.438957643281425"><ele>379.6666666666667</ele><time>2026-04-30T07:14:14Z</time></trkpt><trkpt lat="44.29151534559805" lon="11.439053965119006"><ele>379.33333333333337</ele><time>2026-04-30T07:14:17Z</time></trkpt><trkpt lat="44.29146409190641" lon="11.43913653262925"><ele>379.0</ele><time>2026-04-30T07:14:20Z</time></trkpt><trkpt lat="44.29145208837714" lon="11.439228909809932"><ele>378.6666666666667</ele><time>2026-04-30T07:14:23Z</time></trkpt><trkpt lat="44.29144966853626" lon="11.439347418078201"><ele>378.3333333333333</ele><time>2026-04-30T07:14:26Z</time></trkpt><trkpt lat="44.291466619061026" lon="11.43945221865103"><ele>378.0</ele><time>2026-04-30T07:14:29Z</time></trkpt><trkpt lat="44.291471825862885" lon="11.439583867694282"><ele>377.3333333333333</ele><time>2026-04-30T07:14:31Z</time></trkpt><trkpt lat="44.29148936088338" lon="11.43967824324618"><ele>376.6666666666667</ele><time>2026-04-30T07:14:33Z</time></trkpt><trkpt lat="44.2915198864804" lon="11.439797944952781"><ele>376.0</ele><time>2026-04-30T07:14:34Z</time></trkpt><trkpt lat="44.29153073791212" lon="11.439894323610712"><ele>375.33333333333337</ele><time>2026-04-30T07:14:36Z</time></trkpt><trkpt lat="44.291538615418595" lon="11.439993920747458"><ele>374.6666666666667</ele><time>2026-04-30T07:14:38Z</time></trkpt><trkpt lat="44.29154791465166" lon="11.440114477777444"><ele>374.0</ele><time>2026-04-30T07:14:40Z</time></trkpt><trkpt lat="44.29155489452944" lon="11.440261381848135"><ele>374.0</ele><time>2026-04-30T07:14:42Z</time></trkpt><trkpt lat="44.291555389796166" lon="11.440353340884112"><ele>374.0</ele><time>2026-04-30T07:14:44Z</time></trkpt><trkpt lat="44.291553123678476" lon="11.440465800281773"><ele>374.0</ele><time>2026-04-30T07:14:47Z</time></trkpt><trkpt lat="44.29160871795603" lon="11.440520410527695"><ele>374.0</ele><time>2026-04-30T07:14:50Z</time></trkpt><trkpt lat="44.29166669692421" lon="11.440583261410097"><ele>374.0</ele><time>2026-04-30T07:14:52Z</time></trkpt><trkpt lat="44.29171231010453" lon="11.440674391820677"><ele>374.0</ele><time>2026-04-30T07:14:54Z</time></trkpt><trkpt lat="44.29176221480319" lon="11.44076179169454"><ele>374.0</ele><time>2026-04-30T07:14:56Z</time></trkpt><trkpt lat="44.29180972010672" lon="11.44086132230566"><ele>372.2</ele><time>2026-04-30T07:14:58Z</time></trkpt><trkpt lat="44.29185924700999" lon="11.440995951781096"><ele>370.4</ele><time>2026-04-30T07:15:00Z</time></trkpt><trkpt lat="44.291921781930256" lon="11.441082655116475"><ele>368.6</ele><time>2026-04-30T07:15:02Z</time></trkpt><trkpt lat="44.29197610968746" lon="11.441167698999095"><ele>366.8</ele><time>2026-04-30T07:15:04Z</time></trkpt><trkpt lat="44.29203356096495" lon="11.441284874768492"><ele>365.0</ele><time>2026-04-30T07:15:06Z</time></trkpt><trkpt lat="44.29205719717011" lon="11.441404025922349"><ele>362.5</ele><time>2026-04-30T07:15:08Z</time></trkpt><trkpt lat="44.29205229171974" lon="11.441524788892078"><ele>360.0</ele><time>2026-04-30T07:15:10Z</time></trkpt><trkpt lat="44.29205651279594" lon="11.441654896664229"><ele>357.5</ele><time>2026-04-30T07:15:12Z</time></trkpt><trkpt lat="44.29205362627024" lon="11.441781592612097"><ele>355.0</ele><time>2026-04-30T07:15:14Z</time></trkpt><trkpt lat="44.2920317050906" lon="11.441901562812227"><ele>352.5</ele><time>2026-04-30T07:15:16Z</time></trkpt><trkpt lat="44.292002098862056" lon="11.442010532738278"><ele>350.0</ele><time>2026-04-30T07:15:18Z</time></trkpt><trkpt lat="44.29196590287342" lon="11.442113243704693"><ele>347.42857142857144</ele><time>2026-04-30T07:15:21Z</time></trkpt><trkpt lat="44.29193295915244" lon="11.442218838574586"><ele>344.8571428571429</ele><time>2026-04-30T07:15:24Z</time></trkpt><trkpt lat="44.29191824854433" lon="11.442315263727089"><ele>342.2857142857143</ele><time>2026-04-30T07:15:26Z</time></trkpt><trkpt lat="44.29192939484795" lon="11.442409546780313"><ele>339.7142857142857</ele><time>2026-04-30T07:15:28Z</time></trkpt><trkpt lat="44.29191593092356" lon="11.442500237007856"><ele>337.14285714285717</ele><time>2026-04-30T07:15:30Z</time></trkpt><trkpt lat="44.2919042807007" lon="11.442603995215265"><ele>334.57142857142856</ele><time>2026-04-30T07:15:32Z</time></trkpt><trkpt lat="44.291908705416496" lon="11.442708384852317"><ele>332.0</ele><time>2026-04-30T07:15:34Z</time></trkpt><trkpt lat="44.29192513346414" lon="11.442837956183952"><ele>332.0</ele><time>2026-04-30T07:15:37Z</time></trkpt><trkpt lat="44.29192784182972" lon="11.442942601454797"><ele>332.0</ele><time>2026-04-30T07:15:39Z</time></trkpt><trkpt lat="44.29193492035357" lon="11.443052186089705"><ele>332.0</ele><time>2026-04-30T07:15:41Z</time></trkpt><trkpt lat="44.291933683523865" lon="11.443147069562421"><ele>332.0</ele><time>2026-04-30T07:15:43Z</time></trkpt><trkpt lat="44.29192033477002" lon="11.443238507489616"><ele>332.0</ele><time>2026-04-30T07:15:46Z</time></trkpt><trkpt lat="44.29187030237524" lon="11.443392595389309"><ele>332.0</ele><time>2026-04-30T07:15:48Z</time></trkpt><trkpt lat="44.29179505578671" lon="11.44344346003076"><ele>330.1666666666667</ele><time>2026-04-30T07:15:50Z</time></trkpt><trkpt lat="44.29173352057208" lon="11.443493649763873"><ele>328.33333333333337</ele><time>2026-04-30T07:15:52Z</time></trkpt><trkpt lat="44.291678673390514" lon="11.443587280528918"><ele>326.5</ele><time>2026-04-30T07:15:55Z</time></trkpt><trkpt lat="44.291630483109685" lon="11.443651156187352"><ele>324.6666666666667</ele><time>2026-04-30T07:15:58Z</time></trkpt><trkpt lat="44.29158066968877" lon="11.443752447703085"><ele>322.8333333333333</ele><time>2026-04-30T07:16:01Z</time></trkpt><trkpt lat="44.29156209992276" lon="11.443840481155693"><ele>321.0</ele><time>2026-04-30T07:16:03Z</time></trkpt><trkpt lat="44.291526779799696" lon="11.443953726085198"><ele>319.1666666666667</ele><time>2026-04-30T07:16:06Z</time></trkpt><trkpt lat="44.29148763731161" lon="11.444059300126057"><ele>317.3333333333333</ele><time>2026-04-30T07:16:09Z</time></trkpt><trkpt lat="44.29146826295656" lon="11.444156247966212"><ele>315.5</ele><time>2026-04-30T07:16:12Z</time></trkpt><trkpt lat="44.29144386118198" lon="11.4442598647838"><ele>313.66666666666663</ele><time>2026-04-30T07:16:16Z</time></trkpt><trkpt lat="44.29142357242253" lon="11.44437377206345"><ele>311.8333333333333</ele><time>2026-04-30T07:16:20Z</time></trkpt><trkpt lat="44.2914052919734" lon="11.444464070650248"><ele>310.0</ele><time>2026-04-30T07:16:23Z</time></trkpt><trkpt lat="44.291388731022536" lon="11.444564534162767"><ele>307.3333333333333</ele><time>2026-04-30T07:16:26Z</time></trkpt><trkpt lat="44.29139601871029" lon="11.444653367402255"><ele>304.66666666666663</ele><time>2026-04-30T07:16:28Z</time></trkpt><trkpt lat="44.29140872793944" lon="11.444773972065688"><ele>302.0</ele><time>2026-04-30T07:16:31Z</time></trkpt><trkpt lat="44.29143665413679" lon="11.444896508042161"><ele>299.3333333333333</ele><time>2026-04-30T07:16:34Z</time></trkpt><trkpt lat="44.2914707287874" lon="11.445037158434099"><ele>296.6666666666667</ele><time>2026-04-30T07:16:36Z</time></trkpt><trkpt lat="44.2914773455929" lon="11.44515817257567"><ele>294.0</ele><time>2026-04-30T07:16:38Z</time></trkpt><trkpt lat="44.29147646664981" lon="11.445269224923363"><ele>294.0</ele><time>2026-04-30T07:16:40Z</time></trkpt><trkpt lat="44.29144332798638" lon="11.445355818025082"><ele>294.0</ele><time>2026-04-30T07:16:43Z</time></trkpt><trkpt lat="44.291365994488245" lon="11.445369014837006"><ele>294.0</ele><time>2026-04-30T07:16:45Z</time></trkpt><trkpt lat="44.291269765342726" lon="11.445389432946703"><ele>294.0</ele><time>2026-04-30T07:16:47Z</time></trkpt><trkpt lat="44.29120327022615" lon="11.445374940524065"><ele>294.0</ele><time>2026-04-30T07:16:49Z</time></trkpt><trkpt lat="44.29113266290492" lon="11.445395396429808"><ele>294.0</ele><time>2026-04-30T07:16:52Z</time></trkpt><trkpt lat="44.29102399278339" lon="11.445418871021664"><ele>290.3333333333333</ele><time>2026-04-30T07:16:55Z</time></trkpt><trkpt lat="44.29096421948331" lon="11.445476126629067"><ele>286.6666666666667</ele><time>2026-04-30T07:16:57Z</time></trkpt><trkpt lat="44.2909939032516" lon="11.445618576736962"><ele>283.0</ele><time>2026-04-30T07:17:00Z</time></trkpt><trkpt lat="44.291014818041965" lon="11.445736475009522"><ele>279.33333333333337</ele><time>2026-04-30T07:17:02Z</time></trkpt><trkpt lat="44.29100525269135" lon="11.445830106538558"><ele>275.6666666666667</ele><time>2026-04-30T07:17:04Z</time></trkpt><trkpt lat="44.290995475170426" lon="11.44593691687261"><ele>272.0</ele><time>2026-04-30T07:17:06Z</time></trkpt><trkpt lat="44.290992275562004" lon="11.446029046953969"><ele>271.99999999999994</ele><time>2026-04-30T07:17:07Z</time></trkpt><trkpt lat="44.29097348226779" lon="11.446128085115717"><ele>272.0</ele><time>2026-04-30T07:17:10Z</time></trkpt><trkpt lat="44.29092879036934" lon="11.446195566006226"><ele>272.0</ele><time>2026-04-30T07:17:35Z</time></trkpt><trkpt lat="44.290862850298744" lon="11.446259575958972"><ele>272.0</ele><time>2026-04-30T07:17:40Z</time></trkpt><trkpt lat="44.290801794920675" lon="11.446297132032583"><ele>272.0</ele><time>2026-04-30T07:17:43Z</time></trkpt><trkpt lat="44.29074193285036" lon="11.446335596373716"><ele>271.99999999999994</ele><time>2026-04-30T07:17:46Z</time></trkpt><trkpt lat="44.290669333909555" lon="11.44638332489913"><ele>272.0</ele><time>2026-04-30T07:17:50Z</time></trkpt><trkpt lat="44.29060812292422" lon="11.446421676350742"><ele>267.5</ele><time>2026-04-30T07:17:55Z</time></trkpt><trkpt lat="44.29052818370171" lon="11.446422115073087"><ele>263.0</ele><time>2026-04-30T07:17:58Z</time></trkpt><trkpt lat="44.29045145862461" lon="11.446431809605867"><ele>258.5</ele><time>2026-04-30T07:18:00Z</time></trkpt><trkpt lat="44.29039327253548" lon="11.446489016938111"><ele>254.0</ele><time>2026-04-30T07:18:02Z</time></trkpt><trkpt lat="44.290390945941795" lon="11.446590647233842"><ele>249.50000000000003</ele><time>2026-04-30T07:18:04Z</time></trkpt><trkpt lat="44.290365710681805" lon="11.446715779933738"><ele>245.0</ele><time>2026-04-30T07:18:06Z</time></trkpt><trkpt lat="44.29032960739932" lon="11.44683761520522"><ele>245.00000000000003</ele><time>2026-04-30T07:18:08Z</time></trkpt><trkpt lat="44.290283966672995" lon="11.446910692405009"><ele>245.0</ele><time>2026-04-30T07:18:10Z</time></trkpt><trkpt lat="44.29022995205718" lon="11.44697972576699"><ele>245.0</ele><time>2026-04-30T07:18:12Z</time></trkpt><trkpt lat="44.29018719333487" lon="11.447049001648155"><ele>245.0</ele><time>2026-04-30T07:18:14Z</time></trkpt><trkpt lat="44.29021066391355" lon="11.447187125553388"><ele>245.00000000000003</ele><time>2026-04-30T07:18:16Z</time></trkpt><trkpt lat="44.290213917363" lon="11.4473273581023"><ele>245.0</ele><time>2026-04-30T07:18:18Z</time></trkpt><trkpt lat="44.2902404188681" lon="11.447417662143902"><ele>243.16666666666669</ele><time>2026-04-30T07:18:21Z</time></trkpt><trkpt lat="44.29027527805731" lon="11.447563794501464"><ele>241.33333333333334</ele><time>2026-04-30T07:18:22Z</time></trkpt><trkpt lat="44.290281336166665" lon="11.44769173200555"><ele>239.5</ele><time>2026-04-30T07:18:24Z</time></trkpt><trkpt lat="44.29025112627222" lon="11.447811616499472"><ele>237.66666666666669</ele><time>2026-04-30T07:18:26Z</time></trkpt><trkpt lat="44.290206919493826" lon="11.447883998093978"><ele>235.83333333333334</ele><time>2026-04-30T07:18:27Z</time></trkpt><trkpt lat="44.29016622893847" lon="11.447955563133434"><ele>234.0</ele><time>2026-04-30T07:18:28Z</time></trkpt><trkpt lat="44.29010625757923" lon="11.448033493223468"><ele>233.6</ele><time>2026-04-30T07:18:29Z</time></trkpt><trkpt lat="44.29003363701343" lon="11.448139442173876"><ele>233.2</ele><time>2026-04-30T07:18:30Z</time></trkpt><trkpt lat="44.29001090414316" lon="11.448258739005007"><ele>232.79999999999998</ele><time>2026-04-30T07:18:32Z</time></trkpt><trkpt lat="44.28993489887117" lon="11.448325858592572"><ele>232.39999999999998</ele><time>2026-04-30T07:18:36Z</time></trkpt><trkpt lat="44.28985232359608" lon="11.44837778456433"><ele>232.0</ele><time>2026-04-30T07:18:38Z</time></trkpt><trkpt lat="44.289776745773416" lon="11.448433677115325"><ele>232.39999999999998</ele><time>2026-04-30T07:18:40Z</time></trkpt><trkpt lat="44.28967961466431" lon="11.448454410932547"><ele>232.79999999999998</ele><time>2026-04-30T07:18:42Z</time></trkpt><trkpt lat="44.28959738275631" lon="11.44841641134349"><ele>233.2</ele><time>2026-04-30T07:18:44Z</time></trkpt><trkpt lat="44.28948266773947" lon="11.448426820212253"><ele>233.6</ele><time>2026-04-30T07:18:46Z</time></trkpt><trkpt lat="44.28936954018744" lon="11.44844162279096"><ele>234.0</ele><time>2026-04-30T07:18:48Z</time></trkpt><trkpt lat="44.28925277669231" lon="11.448477007108558"><ele>234.0</ele><time>2026-04-30T07:18:50Z</time></trkpt><trkpt lat="44.28917486314225" lon="11.448479041911783"><ele>234.0</ele><time>2026-04-30T07:18:51Z</time></trkpt><trkpt lat="44.28909140488087" lon="11.448478940460241"><ele>234.0</ele><time>2026-04-30T07:18:52Z</time></trkpt><trkpt lat="44.28901516941621" lon="11.448483573305273"><ele>234.0</ele><time>2026-04-30T07:18:53Z</time></trkpt><trkpt lat="44.288950653198334" lon="11.448491543660362"><ele>234.0</ele><time>2026-04-30T07:18:54Z</time></trkpt><trkpt lat="44.28884818068343" lon="11.448562593800126"><ele>234.0</ele><time>2026-04-30T07:18:56Z</time></trkpt><trkpt lat="44.28878935704856" lon="11.448608087396106"><ele>234.16666666666666</ele><time>2026-04-30T07:18:57Z</time></trkpt><trkpt lat="44.2887255064084" lon="11.448637657131835"><ele>234.33333333333331</ele><time>2026-04-30T07:18:58Z</time></trkpt><trkpt lat="44.28865488570437" lon="11.448655651811634"><ele>234.5</ele><time>2026-04-30T07:18:59Z</time></trkpt><trkpt lat="44.28858524171861" lon="11.448660750092682"><ele>234.66666666666666</ele><time>2026-04-30T07:19:00Z</time></trkpt><trkpt lat="44.28852049482257" lon="11.448675441854537"><ele>234.83333333333331</ele><time>2026-04-30T07:19:01Z</time></trkpt><trkpt lat="44.28841733143397" lon="11.448765494833133"><ele>235.0</ele><time>2026-04-30T07:19:03Z</time></trkpt><trkpt lat="44.28836532844003" lon="11.448819961712513"><ele>235.0</ele><time>2026-04-30T07:19:04Z</time></trkpt><trkpt lat="44.28824964477405" lon="11.448922586790767"><ele>235.0</ele><time>2026-04-30T07:19:06Z</time></trkpt><trkpt lat="44.28818886294586" lon="11.448963071372361"><ele>235.0</ele><time>2026-04-30T07:19:07Z</time></trkpt><trkpt lat="44.28815879137521" lon="11.449061122003435"><ele>235.0</ele><time>2026-04-30T07:19:09Z</time></trkpt><trkpt lat="44.28823467882476" lon="11.449156428604148"><ele>235.0</ele><time>2026-04-30T07:19:11Z</time></trkpt><trkpt lat="44.28830864351545" lon="11.449200714272392"><ele>235.0</ele><time>2026-04-30T07:19:12Z</time></trkpt><trkpt lat="44.28836412213771" lon="11.449286782494134"><ele>235.0</ele><time>2026-04-30T07:19:13Z</time></trkpt><trkpt lat="44.2884124992519" lon="11.449377295922353"><ele>235.0</ele><time>2026-04-30T07:19:15Z</time></trkpt><trkpt lat="44.28839065328401" lon="11.44947119958067"><ele>235.0</ele><time>2026-04-30T07:19:18Z</time></trkpt><trkpt lat="44.288270767511875" lon="11.449565398008046"><ele>235.0</ele><time>2026-04-30T07:19:20Z</time></trkpt><trkpt lat="44.28818082193258" lon="11.449623676539238"><ele>235.4</ele><time>2026-04-30T07:19:21Z</time></trkpt><trkpt lat="44.28808013730435" lon="11.449681367672136"><ele>235.8</ele><time>2026-04-30T07:19:22Z</time></trkpt><trkpt lat="44.287949250207554" lon="11.449711484391667"><ele>236.2</ele><time>2026-04-30T07:19:23Z</time></trkpt><trkpt lat="44.287845000693295" lon="11.449752803182454"><ele>236.6</ele><time>2026-04-30T07:19:24Z</time></trkpt><trkpt lat="44.287762183331964" lon="11.449809607781171"><ele>237.0</ele><time>2026-04-30T07:19:25Z</time></trkpt><trkpt lat="44.28768066592609" lon="11.449858185865056"><ele>237.0</ele><time>2026-04-30T07:19:26Z</time></trkpt><trkpt lat="44.28761353567874" lon="11.44994184951617"><ele>237.0</ele><time>2026-04-30T07:19:27Z</time></trkpt><trkpt lat="44.28755789345975" lon="11.45004221975676"><ele>237.0</ele><time>2026-04-30T07:19:28Z</time></trkpt><trkpt lat="44.28750302374254" lon="11.450174702520759"><ele>237.0</ele><time>2026-04-30T07:19:29Z</time></trkpt><trkpt lat="44.28744004828553" lon="11.450324904415288"><ele>237.0</ele><time>2026-04-30T07:19:30Z</time></trkpt><trkpt lat="44.287382255525806" lon="11.450477808821539"><ele>237.25</ele><time>2026-04-30T07:19:31Z</time></trkpt><trkpt lat="44.287322474615884" lon="11.450631575303062"><ele>237.5</ele><time>2026-04-30T07:19:32Z</time></trkpt><trkpt lat="44.28726525814089" lon="11.450771916861578"><ele>237.75</ele><time>2026-04-30T07:19:33Z</time></trkpt><trkpt lat="44.2872095537436" lon="11.450906940853155"><ele>238.0</ele><time>2026-04-30T07:19:34Z</time></trkpt><trkpt lat="44.287157943119944" lon="11.451058495798355"><ele>238.0</ele><time>2026-04-30T07:19:35Z</time></trkpt><trkpt lat="44.28707698454034" lon="11.451198559790095"><ele>238.0</ele><time>2026-04-30T07:19:36Z</time></trkpt><trkpt lat="44.28696742212888" lon="11.451289317820375"><ele>238.0</ele><time>2026-04-30T07:19:37Z</time></trkpt><trkpt lat="44.28685795237784" lon="11.451351535368504"><ele>238.0</ele><time>2026-04-30T07:19:38Z</time></trkpt><trkpt lat="44.286740442672624" lon="11.451385530500888"><ele>239.8</ele><time>2026-04-30T07:19:39Z</time></trkpt><trkpt lat="44.28662766008003" lon="11.45145573046763"><ele>241.60000000000002</ele><time>2026-04-30T07:19:40Z</time></trkpt><trkpt lat="44.286542824893225" lon="11.451524084346572"><ele>243.39999999999998</ele><time>2026-04-30T07:19:41Z</time></trkpt><trkpt lat="44.28649488054737" lon="11.451634531171823"><ele>245.2</ele><time>2026-04-30T07:19:42Z</time></trkpt><trkpt lat="44.2864618278706" lon="11.451769302847099"><ele>247.0</ele><time>2026-04-30T07:19:43Z</time></trkpt><trkpt lat="44.28643717027859" lon="11.451913442452526"><ele>247.2</ele><time>2026-04-30T07:19:44Z</time></trkpt><trkpt lat="44.28639068572671" lon="11.452048926422737"><ele>247.39999999999998</ele><time>2026-04-30T07:19:45Z</time></trkpt><trkpt lat="44.28630133325969" lon="11.452107950185553"><ele>247.60000000000002</ele><time>2026-04-30T07:19:46Z</time></trkpt><trkpt lat="44.28620945334534" lon="11.452187784206092"><ele>247.8</ele><time>2026-04-30T07:19:47Z</time></trkpt><trkpt lat="44.28609101759528" lon="11.45217447014222"><ele>248.0</ele><time>2026-04-30T07:19:48Z</time></trkpt><trkpt lat="44.28599515941041" lon="11.45217490053907"><ele>248.0</ele><time>2026-04-30T07:19:49Z</time></trkpt><trkpt lat="44.28590695210373" lon="11.452088800800377"><ele>248.0</ele><time>2026-04-30T07:19:50Z</time></trkpt><trkpt lat="44.28585092244048" lon="11.451972092517396"><ele>248.0</ele><time>2026-04-30T07:19:51Z</time></trkpt><trkpt lat="44.28581521564363" lon="11.451834266723724"><ele>248.0</ele><time>2026-04-30T07:19:52Z</time></trkpt><trkpt lat="44.28576533761219" lon="11.451698081716955"><ele>248.0</ele><time>2026-04-30T07:19:53Z</time></trkpt><trkpt lat="44.28568915335197" lon="11.451586071712507"><ele>249.75</ele><time>2026-04-30T07:19:54Z</time></trkpt><trkpt lat="44.28558866206543" lon="11.451504226240937"><ele>251.5</ele><time>2026-04-30T07:19:55Z</time></trkpt><trkpt lat="44.28547104450955" lon="11.451451542720367"><ele>253.25</ele><time>2026-04-30T07:19:56Z</time></trkpt><trkpt lat="44.28534149618155" lon="11.451421513454262"><ele>255.0</ele><time>2026-04-30T07:19:57Z</time></trkpt><trkpt lat="44.28521644050499" lon="11.451408691452496"><ele>255.0</ele><time>2026-04-30T07:19:58Z</time></trkpt><trkpt lat="44.28510335347362" lon="11.45140949586627"><ele>255.0</ele><time>2026-04-30T07:19:59Z</time></trkpt><trkpt lat="44.28498947306659" lon="11.451400715780997"><ele>255.0</ele><time>2026-04-30T07:20:00Z</time></trkpt><trkpt lat="44.28487549371838" lon="11.451383699530863"><ele>255.0</ele><time>2026-04-30T07:20:01Z</time></trkpt><trkpt lat="44.28476049342547" lon="11.451381279200083"><ele>254.0</ele><time>2026-04-30T07:20:02Z</time></trkpt><trkpt lat="44.284644690949534" lon="11.451390374930181"><ele>253.0</ele><time>2026-04-30T07:20:03Z</time></trkpt><trkpt lat="44.2845303998136" lon="11.45141191619464"><ele>252.0</ele><time>2026-04-30T07:20:04Z</time></trkpt><trkpt lat="44.28441724795718" lon="11.451450173284758"><ele>251.0</ele><time>2026-04-30T07:20:05Z</time></trkpt><trkpt lat="44.28430491480832" lon="11.451514576553167"><ele>251.0</ele><time>2026-04-30T07:20:06Z</time></trkpt><trkpt lat="44.28420697868194" lon="11.451598577240476"><ele>251.00000000000003</ele><time>2026-04-30T07:20:07Z</time></trkpt><trkpt lat="44.28413201036402" lon="11.451710529466242"><ele>251.00000000000003</ele><time>2026-04-30T07:20:08Z</time></trkpt><trkpt lat="44.28407564842942" lon="11.45184817981002"><ele>251.0</ele><time>2026-04-30T07:20:09Z</time></trkpt><trkpt lat="44.28404615588089" lon="11.451994249394373"><ele>251.0</ele><time>2026-04-30T07:20:10Z</time></trkpt><trkpt lat="44.284038053103416" lon="11.452132416251635"><ele>251.8</ele><time>2026-04-30T07:20:11Z</time></trkpt><trkpt lat="44.28405493802777" lon="11.452284436465726"><ele>252.60000000000002</ele><time>2026-04-30T07:20:12Z</time></trkpt><trkpt lat="44.28408104057214" lon="11.45244021076194"><ele>253.4</ele><time>2026-04-30T07:20:13Z</time></trkpt><trkpt lat="44.28410344233129" lon="11.452577204835043"><ele>254.2</ele><time>2026-04-30T07:20:14Z</time></trkpt><trkpt lat="44.28409772824422" lon="11.452693880579346"><ele>255.0</ele><time>2026-04-30T07:20:15Z</time></trkpt><trkpt lat="44.28405385595456" lon="11.45281016795869"><ele>255.0</ele><time>2026-04-30T07:20:16Z</time></trkpt><trkpt lat="44.28397139255181" lon="11.45287361911359"><ele>255.0</ele><time>2026-04-30T07:20:17Z</time></trkpt><trkpt lat="44.28388186746243" lon="11.45292567495001"><ele>255.0</ele><time>2026-04-30T07:20:18Z</time></trkpt><trkpt lat="44.283781819018394" lon="11.452976452403789"><ele>255.0</ele><time>2026-04-30T07:20:19Z</time></trkpt><trkpt lat="44.28367644843749" lon="11.453005541824183"><ele>255.0</ele><time>2026-04-30T07:20:20Z</time></trkpt><trkpt lat="44.283577027270475" lon="11.453000762363871"><ele>254.4</ele><time>2026-04-30T07:20:21Z</time></trkpt><trkpt lat="44.28348107738829" lon="11.452934508750467"><ele>253.8</ele><time>2026-04-30T07:20:22Z</time></trkpt><trkpt lat="44.28336482752877" lon="11.452874974187885"><ele>253.2</ele><time>2026-04-30T07:20:23Z</time></trkpt><trkpt lat="44.283270850822404" lon="11.4527940313911"><ele>252.6</ele><time>2026-04-30T07:20:24Z</time></trkpt><trkpt lat="44.28320630069769" lon="11.452749993472493"><ele>252.0</ele><time>2026-04-30T07:20:25Z</time></trkpt><trkpt lat="44.28313574638627" lon="11.452696634379878"><ele>251.6</ele><time>2026-04-30T07:20:34Z</time></trkpt><trkpt lat="44.28307631646338" lon="11.4527357185541"><ele>251.2</ele><time>2026-04-30T07:20:45Z</time></trkpt><trkpt lat="44.2829539577216" lon="11.45276571441082"><ele>250.8</ele><time>2026-04-30T07:20:48Z</time></trkpt><trkpt lat="44.28287725098463" lon="11.45275477736129"><ele>250.4</ele><time>2026-04-30T07:20:50Z</time></trkpt><trkpt lat="44.2828841348654" lon="11.452624564733174"><ele>250.0</ele><time>2026-04-30T07:20:56Z</time></trkpt><trkpt lat="44.28279756615074" lon="11.452552790537169"><ele>250.0</ele><time>2026-04-30T07:20:59Z</time></trkpt><trkpt lat="44.28268740513117" lon="11.452541900714419"><ele>250.0</ele><time>2026-04-30T07:21:01Z</time></trkpt><trkpt lat="44.28262797250141" lon="11.452754916280055"><ele>250.0</ele><time>2026-04-30T07:21:03Z</time></trkpt><trkpt lat="44.28254676486952" lon="11.452701683351954"><ele>250.0</ele><time>2026-04-30T07:21:04Z</time></trkpt><trkpt lat="44.28246710708544" lon="11.452783314268647"><ele>250.0</ele><time>2026-04-30T07:21:06Z</time></trkpt><trkpt lat="44.28237340066685" lon="11.452865182796232"><ele>250.0</ele><time>2026-04-30T07:21:08Z</time></trkpt><trkpt lat="44.28230401370998" lon="11.452988678498693"><ele>250.0</ele><time>2026-04-30T07:21:10Z</time></trkpt><trkpt lat="44.282270595453255" lon="11.45313399015226"><ele>250.0</ele><time>2026-04-30T07:21:12Z</time></trkpt><trkpt lat="44.282215201824116" lon="11.453261923410173"><ele>250.0</ele><time>2026-04-30T07:21:14Z</time></trkpt><trkpt lat="44.2821244825557" lon="11.453289048046406"><ele>250.16666666666666</ele><time>2026-04-30T07:21:16Z</time></trkpt><trkpt lat="44.28202394543542" lon="11.453338612036791"><ele>250.33333333333331</ele><time>2026-04-30T07:21:18Z</time></trkpt><trkpt lat="44.28193362696481" lon="11.453323754950961"><ele>250.5</ele><time>2026-04-30T07:21:21Z</time></trkpt><trkpt lat="44.281846731888315" lon="11.45326169250928"><ele>250.66666666666669</ele><time>2026-04-30T07:21:23Z</time></trkpt><trkpt lat="44.28178119194113" lon="11.453243426767852"><ele>250.83333333333334</ele><time>2026-04-30T07:21:25Z</time></trkpt><trkpt lat="44.281722471659215" lon="11.45319842859008"><ele>251.0</ele><time>2026-04-30T07:22:42Z</time></trkpt><trkpt lat="44.281649248042704" lon="11.4531244876622"><ele>251.00000000000003</ele><time>2026-04-30T07:22:51Z</time></trkpt><trkpt lat="44.28158166607156" lon="11.45308419527214"><ele>251.0</ele><time>2026-04-30T07:22:55Z</time></trkpt><trkpt lat="44.28151860275104" lon="11.453161219750797"><ele>251.0</ele><time>2026-04-30T07:22:57Z</time></trkpt><trkpt lat="44.281492102017495" lon="11.453268536971663"><ele>251.0</ele><time>2026-04-30T07:22:59Z</time></trkpt><trkpt lat="44.28146102767686" lon="11.45337338779141"><ele>251.00000000000003</ele><time>2026-04-30T07:23:01Z</time></trkpt><trkpt lat="44.28141885988915" lon="11.453453520047251"><ele>251.0</ele><time>2026-04-30T07:23:04Z</time></trkpt><trkpt lat="44.28135232356334" lon="11.453470349653333"><ele>252.00000000000003</ele><time>2026-04-30T07:23:07Z</time></trkpt><trkpt lat="44.28127829959672" lon="11.453437438010281"><ele>253.0</ele><time>2026-04-30T07:23:11Z</time></trkpt><trkpt lat="44.28118892312765" lon="11.453430344877306"><ele>254.0</ele><time>2026-04-30T07:23:14Z</time></trkpt><trkpt lat="44.28112446146732" lon="11.453421663724862"><ele>255.0</ele><time>2026-04-30T07:23:17Z</time></trkpt><trkpt lat="44.28108756089422" lon="11.45334287434844"><ele>256.0</ele><time>2026-04-30T07:23:19Z</time></trkpt><trkpt lat="44.28106170336512" lon="11.453235334477409"><ele>257.0</ele><time>2026-04-30T07:23:35Z</time></trkpt><trkpt lat="44.28109139884367" lon="11.453130218619023"><ele>257.0</ele><time>2026-04-30T07:23:37Z</time></trkpt><trkpt lat="44.28112295141695" lon="11.453003189750083"><ele>257.0</ele><time>2026-04-30T07:23:39Z</time></trkpt><trkpt lat="44.28110717537034" lon="11.452880354309295"><ele>257.0</ele><time>2026-04-30T07:23:41Z</time></trkpt><trkpt lat="44.28104777858535" lon="11.452847024739063"><ele>257.0</ele><time>2026-04-30T07:23:43Z</time></trkpt><trkpt lat="44.28097592232493" lon="11.452917668131581"><ele>257.0</ele><time>2026-04-30T07:23:45Z</time></trkpt><trkpt lat="44.28089804565997" lon="11.453031057920255"><ele>257.0</ele><time>2026-04-30T07:23:47Z</time></trkpt><trkpt lat="44.2808180589755" lon="11.453117547394195"><ele>257.0</ele><time>2026-04-30T07:23:49Z</time></trkpt><trkpt lat="44.280730252135236" lon="11.453169405245172"><ele>257.0</ele><time>2026-04-30T07:23:51Z</time></trkpt><trkpt lat="44.280672996976456" lon="11.453092890333195"><ele>257.0</ele><time>2026-04-30T07:23:53Z</time></trkpt><trkpt lat="44.28061678017942" lon="11.452973331972746"><ele>257.0</ele><time>2026-04-30T07:23:56Z</time></trkpt><trkpt lat="44.2805410069931" lon="11.452900768353537"><ele>259.6</ele><time>2026-04-30T07:23:58Z</time></trkpt><trkpt lat="44.280469475702084" lon="11.452797767100797"><ele>262.2</ele><time>2026-04-30T07:24:01Z</time></trkpt><trkpt lat="44.28039455931131" lon="11.452739712217143"><ele>264.8</ele><time>2026-04-30T07:24:03Z</time></trkpt><trkpt lat="44.28032824503967" lon="11.452637652233761"><ele>267.4</ele><time>2026-04-30T07:24:05Z</time></trkpt><trkpt lat="44.280240095416616" lon="11.452620992033673"><ele>270.0</ele><time>2026-04-30T07:24:07Z</time></trkpt><trkpt lat="44.28016219541515" lon="11.452691296155075"><ele>270.0</ele><time>2026-04-30T07:24:09Z</time></trkpt><trkpt lat="44.280089257014396" lon="11.45273943101047"><ele>270.0</ele><time>2026-04-30T07:24:11Z</time></trkpt><trkpt lat="44.27997692019882" lon="11.452840631040187"><ele>270.0</ele><time>2026-04-30T07:24:13Z</time></trkpt><trkpt lat="44.27987454995222" lon="11.452855142364436"><ele>270.0</ele><time>2026-04-30T07:24:15Z</time></trkpt><trkpt lat="44.279775676757545" lon="11.452845550280653"><ele>270.0</ele><time>2026-04-30T07:24:17Z</time></trkpt><trkpt lat="44.279677736921535" lon="11.45287490201754"><ele>272.6</ele><time>2026-04-30T07:24:19Z</time></trkpt><trkpt lat="44.27957264639852" lon="11.452869159478956"><ele>275.2</ele><time>2026-04-30T07:24:21Z</time></trkpt><trkpt lat="44.27948224245806" lon="11.452785371305605"><ele>277.8</ele><time>2026-04-30T07:24:23Z</time></trkpt><trkpt lat="44.2793905663132" lon="11.452733301127292"><ele>280.4</ele><time>2026-04-30T07:24:25Z</time></trkpt><trkpt lat="44.27928162694177" lon="11.452729061119951"><ele>283.0</ele><time>2026-04-30T07:24:27Z</time></trkpt><trkpt lat="44.27921348191549" lon="11.452761025415427"><ele>283.0</ele><time>2026-04-30T07:24:28Z</time></trkpt><trkpt lat="44.279106349697145" lon="11.45278798658468"><ele>283.0</ele><time>2026-04-30T07:24:30Z</time></trkpt><trkpt lat="44.27898122120466" lon="11.452764412484006"><ele>283.0</ele><time>2026-04-30T07:24:32Z</time></trkpt><trkpt lat="44.278914340155204" lon="11.45274870418428"><ele>283.0</ele><time>2026-04-30T07:24:33Z</time></trkpt><trkpt lat="44.278812444862496" lon="11.452705767359936"><ele>283.0</ele><time>2026-04-30T07:24:35Z</time></trkpt><trkpt lat="44.278749345482936" lon="11.45267108353236"><ele>285.8</ele><time>2026-04-30T07:24:36Z</time></trkpt><trkpt lat="44.27868021162015" lon="11.452631557650495"><ele>288.6</ele><time>2026-04-30T07:24:37Z</time></trkpt><trkpt lat="44.27858467224616" lon="11.452610772100815"><ele>291.4</ele><time>2026-04-30T07:24:39Z</time></trkpt><trkpt lat="44.27850230025678" lon="11.45263323426873"><ele>294.2</ele><time>2026-04-30T07:24:41Z</time></trkpt><trkpt lat="44.27840294401036" lon="11.452684470094633"><ele>297.0</ele><time>2026-04-30T07:24:43Z</time></trkpt><trkpt lat="44.27831087599228" lon="11.45273518005629"><ele>297.0</ele><time>2026-04-30T07:24:45Z</time></trkpt><trkpt lat="44.27822947156322" lon="11.45265864480181"><ele>297.0</ele><time>2026-04-30T07:24:47Z</time></trkpt><trkpt lat="44.27817988980735" lon="11.45260120708815"><ele>297.0</ele><time>2026-04-30T07:24:48Z</time></trkpt><trkpt lat="44.27810138782487" lon="11.452517674699935"><ele>297.0</ele><time>2026-04-30T07:24:50Z</time></trkpt><trkpt lat="44.27806079199711" lon="11.452408254164942"><ele>297.0</ele><time>2026-04-30T07:24:52Z</time></trkpt><trkpt lat="44.27800376066818" lon="11.452282005250733"><ele>299.6666666666667</ele><time>2026-04-30T07:24:54Z</time></trkpt><trkpt lat="44.27795488496481" lon="11.452216117092792"><ele>302.3333333333333</ele><time>2026-04-30T07:24:56Z</time></trkpt><trkpt lat="44.27789732422075" lon="11.452273911767113"><ele>305.0</ele><time>2026-04-30T07:24:58Z</time></trkpt><trkpt lat="44.27784376229703" lon="11.452373620236903"><ele>307.66666666666663</ele><time>2026-04-30T07:25:00Z</time></trkpt><trkpt lat="44.27779137453658" lon="11.452432738316485"><ele>310.3333333333333</ele><time>2026-04-30T07:25:03Z</time></trkpt><trkpt lat="44.277702386322545" lon="11.452388694953834"><ele>313.0</ele><time>2026-04-30T07:25:11Z</time></trkpt><trkpt lat="44.2776634501362" lon="11.452297713790758"><ele>313.0</ele><time>2026-04-30T07:25:13Z</time></trkpt><trkpt lat="44.27762730553796" lon="11.452155771707256"><ele>313.0</ele><time>2026-04-30T07:25:15Z</time></trkpt><trkpt lat="44.27753657987257" lon="11.452125831118314"><ele>313.0</ele><time>2026-04-30T07:25:17Z</time></trkpt><trkpt lat="44.27746948373508" lon="11.452203037374018"><ele>313.0</ele><time>2026-04-30T07:25:19Z</time></trkpt><trkpt lat="44.27741075335037" lon="11.452104219197873"><ele>313.0</ele><time>2026-04-30T07:25:21Z</time></trkpt><trkpt lat="44.277332611160645" lon="11.452052829800875"><ele>315.8333333333333</ele><time>2026-04-30T07:25:23Z</time></trkpt><trkpt lat="44.27725975677626" lon="11.451944146376421"><ele>318.66666666666663</ele><time>2026-04-30T07:25:24Z</time></trkpt><trkpt lat="44.277228996455165" lon="11.451827594360802"><ele>321.5</ele><time>2026-04-30T07:25:26Z</time></trkpt><trkpt lat="44.27714060093399" lon="11.451764293284223"><ele>324.3333333333333</ele><time>2026-04-30T07:25:28Z</time></trkpt><trkpt lat="44.27709409260646" lon="11.451682706329523"><ele>327.1666666666667</ele><time>2026-04-30T07:25:29Z</time></trkpt><trkpt lat="44.277041579464694" lon="11.451613316790171"><ele>330.0</ele><time>2026-04-30T07:25:30Z</time></trkpt><trkpt lat="44.27698846691426" lon="11.451518795163814"><ele>330.0</ele><time>2026-04-30T07:25:31Z</time></trkpt><trkpt lat="44.276875046543125" lon="11.451475229250317"><ele>330.0</ele><time>2026-04-30T07:25:33Z</time></trkpt><trkpt lat="44.27680665852095" lon="11.451397747483231"><ele>330.0</ele><time>2026-04-30T07:25:35Z</time></trkpt><trkpt lat="44.27672274729651" lon="11.451324762652328"><ele>330.0</ele><time>2026-04-30T07:25:37Z</time></trkpt><trkpt lat="44.276663047217056" lon="11.451251820897166"><ele>330.0</ele><time>2026-04-30T07:25:39Z</time></trkpt><trkpt lat="44.276578663922216" lon="11.451168721720403"><ele>330.4</ele><time>2026-04-30T07:25:41Z</time></trkpt><trkpt lat="44.27652968862713" lon="11.45109540172009"><ele>330.8</ele><time>2026-04-30T07:25:43Z</time></trkpt><trkpt lat="44.27645494979371" lon="11.451023647950638"><ele>331.20000000000005</ele><time>2026-04-30T07:25:45Z</time></trkpt><trkpt lat="44.276357931568704" lon="11.450947066006254"><ele>331.6</ele><time>2026-04-30T07:25:47Z</time></trkpt><trkpt lat="44.27627844840548" lon="11.450870851050404"><ele>332.0</ele><time>2026-04-30T07:25:49Z</time></trkpt><trkpt lat="44.27618251725345" lon="11.450786464232763"><ele>333.1666666666667</ele><time>2026-04-30T07:25:51Z</time></trkpt><trkpt lat="44.27611219872872" lon="11.450753623143727"><ele>334.33333333333337</ele><time>2026-04-30T07:25:52Z</time></trkpt><trkpt lat="44.27605404527704" lon="11.450715851008985"><ele>335.5</ele><time>2026-04-30T07:25:53Z</time></trkpt><trkpt lat="44.27595715329974" lon="11.450632525675472"><ele>336.6666666666667</ele><time>2026-04-30T07:25:55Z</time></trkpt><trkpt lat="44.27589974183694" lon="11.450584359794547"><ele>337.8333333333333</ele><time>2026-04-30T07:25:56Z</time></trkpt><trkpt lat="44.275807311896656" lon="11.450561756537128"><ele>339.0</ele><time>2026-04-30T07:25:58Z</time></trkpt><trkpt lat="44.27573589235662" lon="11.450514470903968"><ele>339.0</ele><time>2026-04-30T07:26:01Z</time></trkpt><trkpt lat="44.27565399934474" lon="11.450477457685794"><ele>339.0</ele><time>2026-04-30T07:26:03Z</time></trkpt><trkpt lat="44.27557949396125" lon="11.450449648824259"><ele>339.0</ele><time>2026-04-30T07:26:05Z</time></trkpt><trkpt lat="44.27548464278227" lon="11.450421404716788"><ele>339.0</ele><time>2026-04-30T07:26:07Z</time></trkpt><trkpt lat="44.27537598167394" lon="11.450385464874056"><ele>339.0</ele><time>2026-04-30T07:26:09Z</time></trkpt><trkpt lat="44.27527861633187" lon="11.4503630361855"><ele>341.0</ele><time>2026-04-30T07:26:11Z</time></trkpt><trkpt lat="44.27519494846293" lon="11.45034457975142"><ele>343.0</ele><time>2026-04-30T07:26:13Z</time></trkpt><trkpt lat="44.27512931402131" lon="11.450311609410825"><ele>345.0</ele><time>2026-04-30T07:26:15Z</time></trkpt><trkpt lat="44.27502895423794" lon="11.450291321181956"><ele>347.0</ele><time>2026-04-30T07:26:17Z</time></trkpt><trkpt lat="44.274914940465194" lon="11.45025248210883"><ele>349.0</ele><time>2026-04-30T07:26:19Z</time></trkpt><trkpt lat="44.2748042459644" lon="11.450199984363522"><ele>350.79999999999995</ele><time>2026-04-30T07:26:21Z</time></trkpt><trkpt lat="44.27472519565819" lon="11.450128824955426"><ele>352.59999999999997</ele><time>2026-04-30T07:26:23Z</time></trkpt><trkpt lat="44.274652517302115" lon="11.450063902971682"><ele>354.4</ele><time>2026-04-30T07:26:25Z</time></trkpt><trkpt lat="44.27458284837684" lon="11.449987027252773"><ele>356.2</ele><time>2026-04-30T07:26:27Z</time></trkpt><trkpt lat="44.27451092054176" lon="11.449909230967599"><ele>358.0</ele><time>2026-04-30T07:26:29Z</time></trkpt><trkpt lat="44.274429401308666" lon="11.44982966988653"><ele>358.0</ele><time>2026-04-30T07:26:31Z</time></trkpt><trkpt lat="44.274336841385846" lon="11.44979265442911"><ele>358.0</ele><time>2026-04-30T07:26:33Z</time></trkpt><trkpt lat="44.274260813901414" lon="11.449772772023493"><ele>358.0</ele><time>2026-04-30T07:26:35Z</time></trkpt><trkpt lat="44.274185584609164" lon="11.449736502323464"><ele>358.0</ele><time>2026-04-30T07:26:37Z</time></trkpt><trkpt lat="44.27410607911035" lon="11.449651730817497"><ele>358.0</ele><time>2026-04-30T07:26:40Z</time></trkpt><trkpt lat="44.27403809691905" lon="11.449575028738296"><ele>358.0</ele><time>2026-04-30T07:26:42Z</time></trkpt><trkpt lat="44.27395035257398" lon="11.449577703475622"><ele>362.5</ele><time>2026-04-30T07:26:44Z</time></trkpt><trkpt lat="44.27382918738612" lon="11.449576195813219"><ele>367.0</ele><time>2026-04-30T07:26:46Z</time></trkpt><trkpt lat="44.27378129121802" lon="11.450055968852473"><ele>367.16666666666663</ele><time>2026-04-30T07:26:47Z</time></trkpt><trkpt lat="44.27373421571922" lon="11.450142448822689"><ele>367.3333333333333</ele><time>2026-04-30T07:26:48Z</time></trkpt><trkpt lat="44.273700644311305" lon="11.450249999997107"><ele>367.5</ele><time>2026-04-30T07:26:49Z</time></trkpt><trkpt lat="44.273679061744524" lon="11.450365938482955"><ele>367.6666666666667</ele><time>2026-04-30T07:26:50Z</time></trkpt><trkpt lat="44.27366557482502" lon="11.45047105320781"><ele>367.83333333333337</ele><time>2026-04-30T07:26:51Z</time></trkpt><trkpt lat="44.273631022511545" lon="11.450567282815296"><ele>368.0</ele><time>2026-04-30T07:26:52Z</time></trkpt><trkpt lat="44.273584307107335" lon="11.450655977528825"><ele>366.0</ele><time>2026-04-30T07:26:53Z</time></trkpt><trkpt lat="44.27353994538406" lon="11.45074843380379"><ele>364.0</ele><time>2026-04-30T07:26:54Z</time></trkpt><trkpt lat="44.27348028002975" lon="11.450830298587173"><ele>362.0</ele><time>2026-04-30T07:26:55Z</time></trkpt><trkpt lat="44.273412177156594" lon="11.450896687615607"><ele>360.0</ele><time>2026-04-30T07:26:56Z</time></trkpt><trkpt lat="44.27335601060724" lon="11.450973072136902"><ele>358.0</ele><time>2026-04-30T07:26:57Z</time></trkpt><trkpt lat="44.27331039885643" lon="11.451056644993443"><ele>356.0</ele><time>2026-04-30T07:26:58Z</time></trkpt><trkpt lat="44.273295084876146" lon="11.451157192333548"><ele>356.0</ele><time>2026-04-30T07:26:59Z</time></trkpt><trkpt lat="44.27329973873121" lon="11.451287683204473"><ele>356.0</ele><time>2026-04-30T07:27:00Z</time></trkpt><trkpt lat="44.27330937515094" lon="11.451428186878692"><ele>356.0</ele><time>2026-04-30T07:27:01Z</time></trkpt><trkpt lat="44.27333670323175" lon="11.451575781711174"><ele>356.0</ele><time>2026-04-30T07:27:02Z</time></trkpt><trkpt lat="44.2733661673894" lon="11.451717417525645"><ele>356.0</ele><time>2026-04-30T07:27:03Z</time></trkpt><trkpt lat="44.27335376917072" lon="11.451867692240357"><ele>354.8</ele><time>2026-04-30T07:27:04Z</time></trkpt><trkpt lat="44.27337360501263" lon="11.452001075472634"><ele>353.6</ele><time>2026-04-30T07:27:05Z</time></trkpt><trkpt lat="44.273390931415165" lon="11.452131806570344"><ele>352.4</ele><time>2026-04-30T07:27:06Z</time></trkpt><trkpt lat="44.27340434435947" lon="11.452260883222621"><ele>351.2</ele><time>2026-04-30T07:27:07Z</time></trkpt><trkpt lat="44.27341553594791" lon="11.452394470697467"><ele>350.0</ele><time>2026-04-30T07:27:08Z</time></trkpt><trkpt lat="44.273424765065016" lon="11.452525700833823"><ele>348.8</ele><time>2026-04-30T07:27:09Z</time></trkpt><trkpt lat="44.27343429043522" lon="11.452658974387816"><ele>347.6</ele><time>2026-04-30T07:27:10Z</time></trkpt><trkpt lat="44.273457843989576" lon="11.45278833143532"><ele>346.4</ele><time>2026-04-30T07:27:11Z</time></trkpt><trkpt lat="44.273468076824976" lon="11.452915853776314"><ele>345.2</ele><time>2026-04-30T07:27:12Z</time></trkpt><trkpt lat="44.27349217398842" lon="11.453043019620115"><ele>344.0</ele><time>2026-04-30T07:27:13Z</time></trkpt><trkpt lat="44.27352598869157" lon="11.453179903958894"><ele>341.75</ele><time>2026-04-30T07:27:14Z</time></trkpt><trkpt lat="44.27357704765791" lon="11.453329916870434"><ele>339.5</ele><time>2026-04-30T07:27:15Z</time></trkpt><trkpt lat="44.273628753158214" lon="11.45349225186006"><ele>337.25</ele><time>2026-04-30T07:27:16Z</time></trkpt><trkpt lat="44.273690741316656" lon="11.453643211582504"><ele>335.0</ele><time>2026-04-30T07:27:17Z</time></trkpt><trkpt lat="44.273755956878894" lon="11.453801425163984"><ele>332.75</ele><time>2026-04-30T07:27:18Z</time></trkpt><trkpt lat="44.27382182287753" lon="11.453961216672388"><ele>330.5</ele><time>2026-04-30T07:27:19Z</time></trkpt><trkpt lat="44.27389067210792" lon="11.454107471496643"><ele>328.25</ele><time>2026-04-30T07:27:20Z</time></trkpt><trkpt lat="44.27395567551533" lon="11.454262265951519"><ele>326.0</ele><time>2026-04-30T07:27:21Z</time></trkpt><trkpt lat="44.27402080001991" lon="11.454407842285324"><ele>325.25</ele><time>2026-04-30T07:27:22Z</time></trkpt><trkpt lat="44.27407657574818" lon="11.454556235699966"><ele>324.5</ele><time>2026-04-30T07:27:23Z</time></trkpt><trkpt lat="44.27413378687613" lon="11.454699607464642"><ele>323.75</ele><time>2026-04-30T07:27:24Z</time></trkpt><trkpt lat="44.27418562239043" lon="11.45484107836213"><ele>323.0</ele><time>2026-04-30T07:27:25Z</time></trkpt><trkpt lat="44.27423892662403" lon="11.45498181158364"><ele>321.25</ele><time>2026-04-30T07:27:26Z</time></trkpt><trkpt lat="44.27429375991069" lon="11.45512056134272"><ele>319.5</ele><time>2026-04-30T07:27:27Z</time></trkpt><trkpt lat="44.27434725188327" lon="11.455256307555528"><ele>317.75</ele><time>2026-04-30T07:27:28Z</time></trkpt><trkpt lat="44.274403139923436" lon="11.455391324853968"><ele>316.0</ele><time>2026-04-30T07:27:29Z</time></trkpt><trkpt lat="44.274479243230495" lon="11.455514698587855"><ele>315.5</ele><time>2026-04-30T07:27:30Z</time></trkpt><trkpt lat="44.27457300795882" lon="11.455617012640674"><ele>315.0</ele><time>2026-04-30T07:27:31Z</time></trkpt><trkpt lat="44.274669702585456" lon="11.455704009596838"><ele>314.5</ele><time>2026-04-30T07:27:32Z</time></trkpt><trkpt lat="44.27477313461581" lon="11.455787960729573"><ele>314.0</ele><time>2026-04-30T07:27:33Z</time></trkpt><trkpt lat="44.27485367330236" lon="11.4558959129357"><ele>314.0</ele><time>2026-04-30T07:27:34Z</time></trkpt><trkpt lat="44.27492582635902" lon="11.455957595724325"><ele>314.0</ele><time>2026-04-30T07:27:35Z</time></trkpt><trkpt lat="44.274990790126175" lon="11.456000376194456"><ele>314.0</ele><time>2026-04-30T07:27:36Z</time></trkpt><trkpt lat="44.27500320321295" lon="11.456163081150796"><ele>314.0</ele><time>2026-04-30T07:27:38Z</time></trkpt><trkpt lat="44.274957576946214" lon="11.456223766924799"><ele>314.0</ele><time>2026-04-30T07:27:39Z</time></trkpt><trkpt lat="44.274875775242165" lon="11.456220751370953"><ele>314.0</ele><time>2026-04-30T07:27:40Z</time></trkpt><trkpt lat="44.27479608160775" lon="11.4562033520295"><ele>312.8</ele><time>2026-04-30T07:27:41Z</time></trkpt><trkpt lat="44.274693405662674" lon="11.456206345877957"><ele>311.59999999999997</ele><time>2026-04-30T07:27:42Z</time></trkpt><trkpt lat="44.274577845937344" lon="11.456210724940936"><ele>310.4</ele><time>2026-04-30T07:27:43Z</time></trkpt><trkpt lat="44.27447535750354" lon="11.456210247562003"><ele>309.2</ele><time>2026-04-30T07:27:44Z</time></trkpt><trkpt lat="44.2743748330848" lon="11.4562056928606"><ele>308.0</ele><time>2026-04-30T07:27:45Z</time></trkpt><trkpt lat="44.27427145659771" lon="11.456189871002419"><ele>308.0</ele><time>2026-04-30T07:27:46Z</time></trkpt><trkpt lat="44.274171364956096" lon="11.45618408469255"><ele>308.0</ele><time>2026-04-30T07:27:47Z</time></trkpt><trkpt lat="44.274084467022625" lon="11.456204001205672"><ele>308.0</ele><time>2026-04-30T07:27:48Z</time></trkpt><trkpt lat="44.27400953004781" lon="11.456273188934965"><ele>308.0</ele><time>2026-04-30T07:27:49Z</time></trkpt><trkpt lat="44.273947899697" lon="11.456405947989467"><ele>308.0</ele><time>2026-04-30T07:27:50Z</time></trkpt><trkpt lat="44.27390684771332" lon="11.45654928165552"><ele>306.0</ele><time>2026-04-30T07:27:51Z</time></trkpt><trkpt lat="44.27388137296392" lon="11.456672024597186"><ele>304.0</ele><time>2026-04-30T07:27:52Z</time></trkpt><trkpt lat="44.27383676702397" lon="11.456773829079392"><ele>302.0</ele><time>2026-04-30T07:27:53Z</time></trkpt><trkpt lat="44.273805897670734" lon="11.456881916964182"><ele>300.0</ele><time>2026-04-30T07:27:54Z</time></trkpt><trkpt lat="44.273766420292944" lon="11.456974560254908"><ele>298.0</ele><time>2026-04-30T07:27:55Z</time></trkpt><trkpt lat="44.27371707597329" lon="11.45706875482084"><ele>296.0</ele><time>2026-04-30T07:27:56Z</time></trkpt><trkpt lat="44.27363279780573" lon="11.457108500391197"><ele>296.0</ele><time>2026-04-30T07:27:57Z</time></trkpt><trkpt lat="44.273561259434494" lon="11.457116906591255"><ele>296.0</ele><time>2026-04-30T07:27:58Z</time></trkpt><trkpt lat="44.27349570025425" lon="11.457204454138758"><ele>296.0</ele><time>2026-04-30T07:28:00Z</time></trkpt><trkpt lat="44.27353804290131" lon="11.457353593498867"><ele>296.0</ele><time>2026-04-30T07:28:02Z</time></trkpt><trkpt lat="44.27361112354583" lon="11.457393382462811"><ele>296.0</ele><time>2026-04-30T07:28:03Z</time></trkpt><trkpt lat="44.27368357166927" lon="11.45741342468374"><ele>296.0</ele><time>2026-04-30T07:28:04Z</time></trkpt><trkpt lat="44.27374756215506" lon="11.457435133792972"><ele>294.5</ele><time>2026-04-30T07:28:05Z</time></trkpt><trkpt lat="44.27382894583707" lon="11.457460232409531"><ele>293.0</ele><time>2026-04-30T07:28:07Z</time></trkpt><trkpt lat="44.27380783071263" lon="11.457567249914653"><ele>291.5</ele><time>2026-04-30T07:28:10Z</time></trkpt><trkpt lat="44.27373212106801" lon="11.457556977473638"><ele>290.0</ele><time>2026-04-30T07:28:12Z</time></trkpt><trkpt lat="44.27363479345442" lon="11.457519428951812"><ele>288.5</ele><time>2026-04-30T07:28:15Z</time></trkpt><trkpt lat="44.27355758796895" lon="11.457489643268142"><ele>287.0</ele><time>2026-04-30T07:28:17Z</time></trkpt><trkpt lat="44.27348604267852" lon="11.45752064037082"><ele>287.0</ele><time>2026-04-30T07:28:19Z</time></trkpt><trkpt lat="44.27347024311096" lon="11.457640820321707"><ele>287.0</ele><time>2026-04-30T07:28:22Z</time></trkpt><trkpt lat="44.27339798777163" lon="11.457764372233447"><ele>287.0</ele><time>2026-04-30T07:28:24Z</time></trkpt><trkpt lat="44.2733518635565" lon="11.457888168874772"><ele>287.0</ele><time>2026-04-30T07:28:26Z</time></trkpt><trkpt lat="44.27339920028059" lon="11.457960364234957"><ele>287.0</ele><time>2026-04-30T07:28:27Z</time></trkpt><trkpt lat="44.273498936627675" lon="11.457996221889813"><ele>285.33333333333337</ele><time>2026-04-30T07:28:29Z</time></trkpt><trkpt lat="44.27359957905716" lon="11.458085369726437"><ele>283.6666666666667</ele><time>2026-04-30T07:28:31Z</time></trkpt><trkpt lat="44.27365398260373" lon="11.458150012580385"><ele>282.0</ele><time>2026-04-30T07:28:32Z</time></trkpt><trkpt lat="44.27371924929838" lon="11.458225394365472"><ele>280.3333333333333</ele><time>2026-04-30T07:28:33Z</time></trkpt><trkpt lat="44.2737795988824" lon="11.458291930895289"><ele>278.66666666666663</ele><time>2026-04-30T07:28:34Z</time></trkpt><trkpt lat="44.27384523115213" lon="11.458357118855908"><ele>277.0</ele><time>2026-04-30T07:28:35Z</time></trkpt><trkpt lat="44.27390812734941" lon="11.45842329162248"><ele>276.85714285714283</ele><time>2026-04-30T07:28:36Z</time></trkpt><trkpt lat="44.273964288521775" lon="11.458482912926193"><ele>276.71428571428567</ele><time>2026-04-30T07:28:37Z</time></trkpt><trkpt lat="44.27402732898919" lon="11.458541799765442"><ele>276.57142857142856</ele><time>2026-04-30T07:28:40Z</time></trkpt><trkpt lat="44.27403031745873" lon="11.458680527425924"><ele>276.42857142857144</ele><time>2026-04-30T07:28:42Z</time></trkpt><trkpt lat="44.27406872987715" lon="11.458751811566154"><ele>276.28571428571433</ele><time>2026-04-30T07:28:46Z</time></trkpt><trkpt lat="44.27409475104655" lon="11.458832328319463"><ele>276.14285714285717</ele><time>2026-04-30T07:28:50Z</time></trkpt><trkpt lat="44.27409164426076" lon="11.458936633452073"><ele>276.0</ele><time>2026-04-30T07:28:52Z</time></trkpt><trkpt lat="44.27406771965755" lon="11.459041496539044"><ele>275.8</ele><time>2026-04-30T07:28:54Z</time></trkpt><trkpt lat="44.27398678110871" lon="11.459042109577414"><ele>275.6</ele><time>2026-04-30T07:28:57Z</time></trkpt><trkpt lat="44.27391352653766" lon="11.459068779102019"><ele>275.4</ele><time>2026-04-30T07:28:59Z</time></trkpt><trkpt lat="44.273861671135464" lon="11.459228674646848"><ele>275.2</ele><time>2026-04-30T07:29:01Z</time></trkpt><trkpt lat="44.27382606845739" lon="11.459320483535668"><ele>275.0</ele><time>2026-04-30T07:29:02Z</time></trkpt><trkpt lat="44.27375837387224" lon="11.459414167238036"><ele>275.0</ele><time>2026-04-30T07:29:04Z</time></trkpt><trkpt lat="44.273686462921845" lon="11.459482930818856"><ele>275.0</ele><time>2026-04-30T07:29:06Z</time></trkpt><trkpt lat="44.273622460761466" lon="11.459531164797967"><ele>275.0</ele><time>2026-04-30T07:29:08Z</time></trkpt><trkpt lat="44.27356470279001" lon="11.459580151821543"><ele>275.0</ele><time>2026-04-30T07:29:10Z</time></trkpt><trkpt lat="44.273494862796866" lon="11.459653869814224"><ele>275.0</ele><time>2026-04-30T07:29:12Z</time></trkpt><trkpt lat="44.27341488345053" lon="11.459719240519751"><ele>275.0</ele><time>2026-04-30T07:29:14Z</time></trkpt><trkpt lat="44.273310575893184" lon="11.459745418019313"><ele>275.1666666666667</ele><time>2026-04-30T07:29:16Z</time></trkpt><trkpt lat="44.27322132493912" lon="11.459760825271209"><ele>275.33333333333337</ele><time>2026-04-30T07:29:18Z</time></trkpt><trkpt lat="44.273147154502865" lon="11.45980192705798"><ele>275.5</ele><time>2026-04-30T07:29:41Z</time></trkpt><trkpt lat="44.27307131522011" lon="11.45980618649612"><ele>275.6666666666667</ele><time>2026-04-30T07:31:29Z</time></trkpt><trkpt lat="44.27307172316713" lon="11.45990133153008"><ele>275.8333333333333</ele><time>2026-04-30T07:32:10Z</time></trkpt><trkpt lat="44.273055614436934" lon="11.460008421568462"><ele>276.0</ele><time>2026-04-30T07:32:13Z</time></trkpt><trkpt lat="44.272956952809544" lon="11.460106147478639"><ele>276.0</ele><time>2026-04-30T07:32:16Z</time></trkpt><trkpt lat="44.27287354374038" lon="11.460183199389368"><ele>276.0</ele><time>2026-04-30T07:32:18Z</time></trkpt><trkpt lat="44.272821904004154" lon="11.460281497783892"><ele>276.0</ele><time>2026-04-30T07:32:21Z</time></trkpt><trkpt lat="44.27277045336914" lon="11.460378946124738"><ele>276.0</ele><time>2026-04-30T07:32:24Z</time></trkpt><trkpt lat="44.27270946215212" lon="11.460437928665048"><ele>276.0</ele><time>2026-04-30T07:32:26Z</time></trkpt><trkpt lat="44.27265634365922" lon="11.460522976738833"><ele>276.0</ele><time>2026-04-30T07:32:28Z</time></trkpt><trkpt lat="44.27261783426279" lon="11.460671992329114"><ele>275.8</ele><time>2026-04-30T07:32:30Z</time></trkpt><trkpt lat="44.272567623972236" lon="11.460803462044815"><ele>275.6</ele><time>2026-04-30T07:32:32Z</time></trkpt><trkpt lat="44.27250351748782" lon="11.46092246209091"><ele>275.4</ele><time>2026-04-30T07:32:34Z</time></trkpt><trkpt lat="44.27244911119209" lon="11.461035315254318"><ele>275.2</ele><time>2026-04-30T07:32:36Z</time></trkpt><trkpt lat="44.27240117250456" lon="11.46112407731752"><ele>275.0</ele><time>2026-04-30T07:32:38Z</time></trkpt><trkpt lat="44.27235830613982" lon="11.461219738333256"><ele>275.1666666666667</ele><time>2026-04-30T07:32:40Z</time></trkpt><trkpt lat="44.272286714146574" lon="11.461290880503972"><ele>275.33333333333337</ele><time>2026-04-30T07:32:42Z</time></trkpt><trkpt lat="44.27221911563815" lon="11.461333541453454"><ele>275.5</ele><time>2026-04-30T07:32:44Z</time></trkpt><trkpt lat="44.2721443942377" lon="11.461406597037511"><ele>275.6666666666667</ele><time>2026-04-30T07:32:50Z</time></trkpt><trkpt lat="44.27209567146396" lon="11.461487968302883"><ele>275.8333333333333</ele><time>2026-04-30T07:32:58Z</time></trkpt><trkpt lat="44.27208415783874" lon="11.461608327798698"><ele>276.0</ele><time>2026-04-30T07:33:03Z</time></trkpt><trkpt lat="44.27205082145482" lon="11.461713026884091"><ele>276.1666666666667</ele><time>2026-04-30T07:33:07Z</time></trkpt><trkpt lat="44.27198043834612" lon="11.461758404402424"><ele>276.3333333333333</ele><time>2026-04-30T07:33:21Z</time></trkpt><trkpt lat="44.27191739237778" lon="11.461784629925106"><ele>276.5</ele><time>2026-04-30T07:33:24Z</time></trkpt><trkpt lat="44.27187001604827" lon="11.461887658224656"><ele>276.66666666666663</ele><time>2026-04-30T07:33:26Z</time></trkpt><trkpt lat="44.271801600905874" lon="11.461996968690494"><ele>276.8333333333333</ele><time>2026-04-30T07:33:28Z</time></trkpt><trkpt lat="44.27179634459428" lon="11.4620851392167"><ele>277.0</ele><time>2026-04-30T07:33:30Z</time></trkpt><trkpt lat="44.27184338868946" lon="11.462153424833515"><ele>277.3333333333333</ele><time>2026-04-30T07:33:32Z</time></trkpt><trkpt lat="44.271894575024426" lon="11.462215457712052"><ele>277.66666666666663</ele><time>2026-04-30T07:33:34Z</time></trkpt><trkpt lat="44.271825462636144" lon="11.462280007262986"><ele>278.0</ele><time>2026-04-30T07:33:39Z</time></trkpt><trkpt lat="44.27174552965748" lon="11.46232157961763"><ele>278.3333333333333</ele><time>2026-04-30T07:33:44Z</time></trkpt><trkpt lat="44.27168604704927" lon="11.462435085198953"><ele>278.6666666666667</ele><time>2026-04-30T07:33:46Z</time></trkpt><trkpt lat="44.27162625199965" lon="11.46252417025563"><ele>279.0</ele><time>2026-04-30T07:33:49Z</time></trkpt><trkpt lat="44.2715846789504" lon="11.462602104531802"><ele>279.0</ele><time>2026-04-30T07:33:51Z</time></trkpt><trkpt lat="44.27153350143464" lon="11.462765460363205"><ele>279.0</ele><time>2026-04-30T07:33:52Z</time></trkpt><trkpt lat="44.271486234549975" lon="11.462844137164929"><ele>279.0</ele><time>2026-04-30T07:33:53Z</time></trkpt><trkpt lat="44.27142822688664" lon="11.462921015066884"><ele>279.0</ele><time>2026-04-30T07:33:55Z</time></trkpt><trkpt lat="44.27140174586513" lon="11.463048986232712"><ele>279.0</ele><time>2026-04-30T07:33:57Z</time></trkpt><trkpt lat="44.27134153871145" lon="11.463122078974266"><ele>279.2</ele><time>2026-04-30T07:33:59Z</time></trkpt><trkpt lat="44.27129223418457" lon="11.463204311161522"><ele>279.4</ele><time>2026-04-30T07:34:02Z</time></trkpt><trkpt lat="44.27123505237759" lon="11.463367253167394"><ele>279.6</ele><time>2026-04-30T07:34:05Z</time></trkpt><trkpt lat="44.27116995888212" lon="11.463511987138308"><ele>279.8</ele><time>2026-04-30T07:34:07Z</time></trkpt><trkpt lat="44.27111616047043" lon="11.463608237285653"><ele>280.0</ele><time>2026-04-30T07:34:08Z</time></trkpt><trkpt lat="44.27116392472728" lon="11.463683611636833"><ele>280.0</ele><time>2026-04-30T07:34:10Z</time></trkpt><trkpt lat="44.271208000184096" lon="11.463751988160931"><ele>280.0</ele><time>2026-04-30T07:34:12Z</time></trkpt><trkpt lat="44.27112285921751" lon="11.463861894237969"><ele>280.0</ele><time>2026-04-30T07:34:15Z</time></trkpt><trkpt lat="44.27104195934827" lon="11.463961433527794"><ele>280.0</ele><time>2026-04-30T07:34:17Z</time></trkpt><trkpt lat="44.271004014671966" lon="11.46408414241341"><ele>280.0</ele><time>2026-04-30T07:34:19Z</time></trkpt><trkpt lat="44.270983302655644" lon="11.464207583890005"><ele>279.8333333333333</ele><time>2026-04-30T07:34:21Z</time></trkpt><trkpt lat="44.2709518877471" lon="11.464304016973037"><ele>279.66666666666663</ele><time>2026-04-30T07:34:28Z</time></trkpt><trkpt lat="44.27089887166648" lon="11.464380944840311"><ele>279.5</ele><time>2026-04-30T07:34:30Z</time></trkpt><trkpt lat="44.27080109172364" lon="11.46445810148529"><ele>279.3333333333333</ele><time>2026-04-30T07:34:32Z</time></trkpt><trkpt lat="44.27072893012706" lon="11.464499922266452"><ele>279.1666666666667</ele><time>2026-04-30T07:34:34Z</time></trkpt><trkpt lat="44.27066339566617" lon="11.464500295466445"><ele>279.0</ele><time>2026-04-30T07:34:37Z</time></trkpt><trkpt lat="44.27059665579502" lon="11.464542423664527"><ele>279.59999999999997</ele><time>2026-04-30T07:34:39Z</time></trkpt><trkpt lat="44.27050917310838" lon="11.46460309085887"><ele>280.2</ele><time>2026-04-30T07:34:41Z</time></trkpt><trkpt lat="44.27045356450977" lon="11.46467472245196"><ele>280.79999999999995</ele><time>2026-04-30T07:34:43Z</time></trkpt><trkpt lat="44.27039953693533" lon="11.464737034276856"><ele>281.4</ele><time>2026-04-30T07:34:45Z</time></trkpt><trkpt lat="44.27030267612372" lon="11.464773086794626"><ele>282.0</ele><time>2026-04-30T07:34:47Z</time></trkpt><trkpt lat="44.27017391436729" lon="11.464770273265447"><ele>282.8</ele><time>2026-04-30T07:34:49Z</time></trkpt><trkpt lat="44.27009965991932" lon="11.464784666064762"><ele>283.6</ele><time>2026-04-30T07:34:50Z</time></trkpt><trkpt lat="44.270007425452214" lon="11.464791714184926"><ele>284.40000000000003</ele><time>2026-04-30T07:34:52Z</time></trkpt><trkpt lat="44.2699201781836" lon="11.464903680105964"><ele>285.2</ele><time>2026-04-30T07:34:54Z</time></trkpt><trkpt lat="44.26984789335803" lon="11.464962276805085"><ele>286.0</ele><time>2026-04-30T07:34:56Z</time></trkpt><trkpt lat="44.26978739995755" lon="11.464835704741299"><ele>286.0</ele><time>2026-04-30T07:34:59Z</time></trkpt><trkpt lat="44.269786380707664" lon="11.464735199020625"><ele>286.0</ele><time>2026-04-30T07:35:00Z</time></trkpt><trkpt lat="44.26978515744605" lon="11.464641968876254"><ele>286.0</ele><time>2026-04-30T07:35:01Z</time></trkpt><trkpt lat="44.26978118154474" lon="11.464484525533537"><ele>286.0</ele><time>2026-04-30T07:35:03Z</time></trkpt><trkpt lat="44.26977640327364" lon="11.464388793489288"><ele>286.0</ele><time>2026-04-30T07:35:04Z</time></trkpt><trkpt lat="44.26976654577556" lon="11.46428515790657"><ele>286.0</ele><time>2026-04-30T07:35:05Z</time></trkpt><trkpt lat="44.269774915991725" lon="11.464189825155449"><ele>286.0</ele><time>2026-04-30T07:35:06Z</time></trkpt><trkpt lat="44.26978734317545" lon="11.464042184113953"><ele>286.0</ele><time>2026-04-30T07:35:08Z</time></trkpt><trkpt lat="44.26970233554723" lon="11.46397474820665"><ele>286.0</ele><time>2026-04-30T07:35:10Z</time></trkpt><trkpt lat="44.269626840382244" lon="11.464007121455513"><ele>286.0</ele><time>2026-04-30T07:35:11Z</time></trkpt><trkpt lat="44.2695238245311" lon="11.464092526468296"><ele>286.0</ele><time>2026-04-30T07:35:12Z</time></trkpt><trkpt lat="44.269395657103416" lon="11.464138869961932"><ele>286.0</ele><time>2026-04-30T07:35:13Z</time></trkpt><trkpt lat="44.269256931627346" lon="11.464212988212541"><ele>286.0</ele><time>2026-04-30T07:35:14Z</time></trkpt><trkpt lat="44.2691234268867" lon="11.464283052677088"><ele>286.0</ele><time>2026-04-30T07:35:15Z</time></trkpt><trkpt lat="44.26903186327999" lon="11.464331105971867"><ele>286.0</ele><time>2026-04-30T07:35:16Z</time></trkpt><trkpt lat="44.26895010925429" lon="11.46437170442206"><ele>286.0</ele><time>2026-04-30T07:35:17Z</time></trkpt><trkpt lat="44.2688538275093" lon="11.464405458884404"><ele>286.0</ele><time>2026-04-30T07:35:18Z</time></trkpt><trkpt lat="44.268756509418516" lon="11.46444455363217"><ele>286.0</ele><time>2026-04-30T07:35:19Z</time></trkpt><trkpt lat="44.26866927280858" lon="11.464504425730553"><ele>286.0</ele><time>2026-04-30T07:35:20Z</time></trkpt><trkpt lat="44.26858613492284" lon="11.464594508594404"><ele>286.0</ele><time>2026-04-30T07:35:21Z</time></trkpt><trkpt lat="44.26851499701171" lon="11.464694221549928"><ele>286.0</ele><time>2026-04-30T07:35:22Z</time></trkpt><trkpt lat="44.26844685410694" lon="11.464778688958027"><ele>286.0</ele><time>2026-04-30T07:35:23Z</time></trkpt><trkpt lat="44.268391595180155" lon="11.464884004734479"><ele>286.0</ele><time>2026-04-30T07:35:24Z</time></trkpt><trkpt lat="44.268341916267325" lon="11.46500200462411"><ele>286.0</ele><time>2026-04-30T07:35:25Z</time></trkpt><trkpt lat="44.26830980580325" lon="11.46513220039067"><ele>286.0</ele><time>2026-04-30T07:35:26Z</time></trkpt><trkpt lat="44.26828837337932" lon="11.465256285400837"><ele>286.0</ele><time>2026-04-30T07:35:27Z</time></trkpt><trkpt lat="44.26826027829841" lon="11.465377462828679"><ele>286.0</ele><time>2026-04-30T07:35:28Z</time></trkpt><trkpt lat="44.268228282080464" lon="11.46550442004747"><ele>286.0</ele><time>2026-04-30T07:35:29Z</time></trkpt><trkpt lat="44.26819685082847" lon="11.46563244935179"><ele>286.0</ele><time>2026-04-30T07:35:30Z</time></trkpt><trkpt lat="44.26816886488537" lon="11.465744956330786"><ele>286.0</ele><time>2026-04-30T07:35:31Z</time></trkpt><trkpt lat="44.26812055010052" lon="11.46586742201467"><ele>285.8</ele><time>2026-04-30T07:35:32Z</time></trkpt><trkpt lat="44.26808475136409" lon="11.466011423496331"><ele>285.6</ele><time>2026-04-30T07:35:33Z</time></trkpt><trkpt lat="44.26804383183875" lon="11.466176025327137"><ele>285.4</ele><time>2026-04-30T07:35:34Z</time></trkpt><trkpt lat="44.2680183251868" lon="11.466334066599478"><ele>285.2</ele><time>2026-04-30T07:35:35Z</time></trkpt><trkpt lat="44.26797842493141" lon="11.466458770012373"><ele>285.0</ele><time>2026-04-30T07:35:36Z</time></trkpt><trkpt lat="44.26793093013066" lon="11.466574720542349"><ele>284.75</ele><time>2026-04-30T07:35:37Z</time></trkpt><trkpt lat="44.26788979504796" lon="11.46670934318144"><ele>284.5</ele><time>2026-04-30T07:35:38Z</time></trkpt><trkpt lat="44.26785474084367" lon="11.46685872157712"><ele>284.25</ele><time>2026-04-30T07:35:39Z</time></trkpt><trkpt lat="44.267805971450585" lon="11.46703185562201"><ele>284.0</ele><time>2026-04-30T07:35:40Z</time></trkpt><trkpt lat="44.267768851993765" lon="11.467214255687729"><ele>284.0</ele><time>2026-04-30T07:35:41Z</time></trkpt><trkpt lat="44.267731222440396" lon="11.467385690197835"><ele>284.0</ele><time>2026-04-30T07:35:42Z</time></trkpt><trkpt lat="44.26768928915893" lon="11.467543851467251"><ele>284.0</ele><time>2026-04-30T07:35:43Z</time></trkpt><trkpt lat="44.267638644754285" lon="11.467699468291604"><ele>284.0</ele><time>2026-04-30T07:35:44Z</time></trkpt><trkpt lat="44.26757903804474" lon="11.467861148585145"><ele>283.8</ele><time>2026-04-30T07:35:45Z</time></trkpt><trkpt lat="44.267515093172484" lon="11.46801006513934"><ele>283.59999999999997</ele><time>2026-04-30T07:35:46Z</time></trkpt><trkpt lat="44.2674590066962" lon="11.468136962032396"><ele>283.4</ele><time>2026-04-30T07:35:47Z</time></trkpt><trkpt lat="44.26740723450652" lon="11.468254097810037"><ele>283.2</ele><time>2026-04-30T07:35:48Z</time></trkpt><trkpt lat="44.26735177225911" lon="11.468399378343342"><ele>283.0</ele><time>2026-04-30T07:35:49Z</time></trkpt><trkpt lat="44.267287903669136" lon="11.468555654828949"><ele>284.0</ele><time>2026-04-30T07:35:50Z</time></trkpt><trkpt lat="44.267222668111806" lon="11.468690691217335"><ele>285.0</ele><time>2026-04-30T07:35:51Z</time></trkpt><trkpt lat="44.26715655372889" lon="11.468813577063976"><ele>286.0</ele><time>2026-04-30T07:35:52Z</time></trkpt><trkpt lat="44.26709522409754" lon="11.468972267979787"><ele>287.0</ele><time>2026-04-30T07:35:53Z</time></trkpt><trkpt lat="44.267042273878566" lon="11.469123331097688"><ele>287.0</ele><time>2026-04-30T07:35:54Z</time></trkpt><trkpt lat="44.266994285398376" lon="11.469252364598471"><ele>287.0</ele><time>2026-04-30T07:35:55Z</time></trkpt><trkpt lat="44.26693186618906" lon="11.469354144202978"><ele>287.0</ele><time>2026-04-30T07:35:56Z</time></trkpt><trkpt lat="44.26687440707533" lon="11.469475108126733"><ele>287.0</ele><time>2026-04-30T07:35:57Z</time></trkpt><trkpt lat="44.26680497434237" lon="11.46960965036646"><ele>287.0</ele><time>2026-04-30T07:35:58Z</time></trkpt><trkpt lat="44.26672554482358" lon="11.469730298247926"><ele>287.0</ele><time>2026-04-30T07:35:59Z</time></trkpt><trkpt lat="44.26665539550557" lon="11.469794918357922"><ele>287.0</ele><time>2026-04-30T07:36:00Z</time></trkpt><trkpt lat="44.266576516890275" lon="11.469812817133235"><ele>287.0</ele><time>2026-04-30T07:36:01Z</time></trkpt><trkpt lat="44.266488691177734" lon="11.469796417003222"><ele>287.0</ele><time>2026-04-30T07:36:02Z</time></trkpt><trkpt lat="44.26639501600699" lon="11.469745625048928"><ele>287.0</ele><time>2026-04-30T07:36:03Z</time></trkpt><trkpt lat="44.266308645122336" lon="11.46965602248655"><ele>288.0</ele><time>2026-04-30T07:36:04Z</time></trkpt><trkpt lat="44.266191283466284" lon="11.469551070896124"><ele>289.0</ele><time>2026-04-30T07:36:05Z</time></trkpt><trkpt lat="44.26604465114081" lon="11.46944515152511"><ele>290.0</ele><time>2026-04-30T07:36:06Z</time></trkpt><trkpt lat="44.26592940320109" lon="11.469277541575842"><ele>290.0</ele><time>2026-04-30T07:36:07Z</time></trkpt><trkpt lat="44.26584070015558" lon="11.469146944296057"><ele>290.0</ele><time>2026-04-30T07:36:08Z</time></trkpt><trkpt lat="44.26576200765642" lon="11.469024557338237"><ele>290.0</ele><time>2026-04-30T07:36:09Z</time></trkpt><trkpt lat="44.2656731443335" lon="11.468882207309296"><ele>290.0</ele><time>2026-04-30T07:36:10Z</time></trkpt><trkpt lat="44.26559297940622" lon="11.46875019181177"><ele>291.5</ele><time>2026-04-30T07:36:11Z</time></trkpt><trkpt lat="44.26550186338878" lon="11.468625107348856"><ele>293.0</ele><time>2026-04-30T07:36:12Z</time></trkpt><trkpt lat="44.265420944710115" lon="11.468459377371335"><ele>294.5</ele><time>2026-04-30T07:36:13Z</time></trkpt><trkpt lat="44.265349836314535" lon="11.468336757382355"><ele>296.0</ele><time>2026-04-30T07:36:14Z</time></trkpt><trkpt lat="44.26528733642326" lon="11.468220790372008"><ele>296.0</ele><time>2026-04-30T07:36:15Z</time></trkpt><trkpt lat="44.26522039500935" lon="11.468097999511192"><ele>296.0</ele><time>2026-04-30T07:36:16Z</time></trkpt><trkpt lat="44.265138445001845" lon="11.467959049794207"><ele>296.0</ele><time>2026-04-30T07:36:17Z</time></trkpt><trkpt lat="44.265060630337935" lon="11.467831300889985"><ele>296.0</ele><time>2026-04-30T07:36:18Z</time></trkpt><trkpt lat="44.26499427257783" lon="11.467722359395609"><ele>296.0</ele><time>2026-04-30T07:36:19Z</time></trkpt><trkpt lat="44.264935565160535" lon="11.4676258019949"><ele>296.0</ele><time>2026-04-30T07:36:20Z</time></trkpt><trkpt lat="44.264880121995404" lon="11.467533451951661"><ele>296.0</ele><time>2026-04-30T07:36:21Z</time></trkpt><trkpt lat="44.26483067739366" lon="11.467450643106437"><ele>296.0</ele><time>2026-04-30T07:36:22Z</time></trkpt><trkpt lat="44.26477349229626" lon="11.46738567487133"><ele>296.0</ele><time>2026-04-30T07:36:23Z</time></trkpt><trkpt lat="44.26473730461641" lon="11.467310060796429"><ele>296.0</ele><time>2026-04-30T07:36:24Z</time></trkpt><trkpt lat="44.264702551069405" lon="11.467223295143366"><ele>296.40000000000003</ele><time>2026-04-30T07:36:26Z</time></trkpt><trkpt lat="44.264600177633" lon="11.467386118512445"><ele>296.8</ele><time>2026-04-30T07:36:31Z</time></trkpt><trkpt lat="44.26452048768595" lon="11.467429381208078"><ele>297.20000000000005</ele><time>2026-04-30T07:36:33Z</time></trkpt><trkpt lat="44.26445212844951" lon="11.46746765370545"><ele>297.6</ele><time>2026-04-30T07:36:34Z</time></trkpt><trkpt lat="44.26439175210738" lon="11.467548509380808"><ele>298.0</ele><time>2026-04-30T07:36:35Z</time></trkpt><trkpt lat="44.26436425595488" lon="11.467635475944794"><ele>298.0</ele><time>2026-04-30T07:36:36Z</time></trkpt><trkpt lat="44.264370370708164" lon="11.46774243846143"><ele>298.0</ele><time>2026-04-30T07:36:37Z</time></trkpt><trkpt lat="44.26440801676915" lon="11.467898996167538"><ele>298.0</ele><time>2026-04-30T07:36:38Z</time></trkpt><trkpt lat="44.264448900408006" lon="11.468070864687414"><ele>298.0</ele><time>2026-04-30T07:36:39Z</time></trkpt><trkpt lat="44.264474402451185" lon="11.468164237261345"><ele>298.0</ele><time>2026-04-30T07:36:40Z</time></trkpt><trkpt lat="44.2644880917958" lon="11.468259603722561"><ele>297.8333333333333</ele><time>2026-04-30T07:36:41Z</time></trkpt><trkpt lat="44.26447595100172" lon="11.468357044068963"><ele>297.66666666666663</ele><time>2026-04-30T07:36:42Z</time></trkpt><trkpt lat="44.26445487253152" lon="11.468456838521504"><ele>297.5</ele><time>2026-04-30T07:36:43Z</time></trkpt><trkpt lat="44.26442189458701" lon="11.468538826742517"><ele>297.3333333333333</ele><time>2026-04-30T07:36:44Z</time></trkpt><trkpt lat="44.264381859977874" lon="11.468703578648222"><ele>297.1666666666667</ele><time>2026-04-30T07:36:46Z</time></trkpt><trkpt lat="44.2643719484332" lon="11.468805806289803"><ele>297.0</ele><time>2026-04-30T07:36:47Z</time></trkpt><trkpt lat="44.264363089384354" lon="11.468912684708494"><ele>296.2</ele><time>2026-04-30T07:36:48Z</time></trkpt><trkpt lat="44.264347210165006" lon="11.469008059801869"><ele>295.4</ele><time>2026-04-30T07:36:49Z</time></trkpt><trkpt lat="44.26433450477388" lon="11.469180073993286"><ele>294.6</ele><time>2026-04-30T07:36:51Z</time></trkpt><trkpt lat="44.264318706522936" lon="11.469377626781556"><ele>293.8</ele><time>2026-04-30T07:36:53Z</time></trkpt><trkpt lat="44.26429836504199" lon="11.4694801465987"><ele>293.0</ele><time>2026-04-30T07:36:54Z</time></trkpt><trkpt lat="44.264265952800756" lon="11.469576507603135"><ele>292.33333333333337</ele><time>2026-04-30T07:36:55Z</time></trkpt><trkpt lat="44.264243386165035" lon="11.469660406696397"><ele>291.6666666666667</ele><time>2026-04-30T07:36:56Z</time></trkpt><trkpt lat="44.26421277631914" lon="11.469763976133603"><ele>291.0</ele><time>2026-04-30T07:36:58Z</time></trkpt><trkpt lat="44.264162347473615" lon="11.469861101895635"><ele>290.3333333333333</ele><time>2026-04-30T07:37:01Z</time></trkpt><trkpt lat="44.26413100490962" lon="11.469961338514485"><ele>289.66666666666663</ele><time>2026-04-30T07:37:03Z</time></trkpt><trkpt lat="44.26407796903623" lon="11.470056373534474"><ele>289.0</ele><time>2026-04-30T07:37:05Z</time></trkpt><trkpt lat="44.264032425130864" lon="11.470128280432242"><ele>289.0</ele><time>2026-04-30T07:37:07Z</time></trkpt><trkpt lat="44.26396772980216" lon="11.47022812573594"><ele>289.0</ele><time>2026-04-30T07:37:10Z</time></trkpt><trkpt lat="44.263943819227585" lon="11.47033583780475"><ele>289.0</ele><time>2026-04-30T07:37:12Z</time></trkpt><trkpt lat="44.2639433158377" lon="11.470441489075435"><ele>289.0</ele><time>2026-04-30T07:37:14Z</time></trkpt><trkpt lat="44.2638952057034" lon="11.4705901275879"><ele>289.0</ele><time>2026-04-30T07:37:16Z</time></trkpt><trkpt lat="44.26386965990314" lon="11.470708626653979"><ele>289.25</ele><time>2026-04-30T07:37:17Z</time></trkpt><trkpt lat="44.26384125663327" lon="11.470798421767753"><ele>289.5</ele><time>2026-04-30T07:37:18Z</time></trkpt><trkpt lat="44.26367893055386" lon="11.470806712847777"><ele>289.75</ele><time>2026-04-30T07:37:21Z</time></trkpt><trkpt lat="44.263571511623496" lon="11.470784932035762"><ele>290.0</ele><time>2026-04-30T07:37:22Z</time></trkpt><trkpt lat="44.26344889087192" lon="11.470734499875554"><ele>290.0</ele><time>2026-04-30T07:37:23Z</time></trkpt><trkpt lat="44.26331882855208" lon="11.470681891543778"><ele>290.0</ele><time>2026-04-30T07:37:24Z</time></trkpt><trkpt lat="44.263197892194356" lon="11.47066475440182"><ele>290.0</ele><time>2026-04-30T07:37:25Z</time></trkpt><trkpt lat="44.26309311760379" lon="11.470635769296807"><ele>290.0</ele><time>2026-04-30T07:37:26Z</time></trkpt><trkpt lat="44.26298381674564" lon="11.470616484176153"><ele>290.2</ele><time>2026-04-30T07:37:27Z</time></trkpt><trkpt lat="44.26287811829934" lon="11.47056541948804"><ele>290.4</ele><time>2026-04-30T07:37:28Z</time></trkpt><trkpt lat="44.26277883850253" lon="11.470521404651967"><ele>290.6</ele><time>2026-04-30T07:37:29Z</time></trkpt><trkpt lat="44.26268384683909" lon="11.47050636393553"><ele>290.8</ele><time>2026-04-30T07:37:30Z</time></trkpt><trkpt lat="44.26260115956855" lon="11.470512057359096"><ele>291.0</ele><time>2026-04-30T07:37:31Z</time></trkpt><trkpt lat="44.262527014450185" lon="11.470536709140676"><ele>291.0</ele><time>2026-04-30T07:37:32Z</time></trkpt><trkpt lat="44.26245244946104" lon="11.470525615493624"><ele>291.0</ele><time>2026-04-30T07:37:33Z</time></trkpt><trkpt lat="44.262388332262724" lon="11.470489576904063"><ele>291.0</ele><time>2026-04-30T07:37:34Z</time></trkpt><trkpt lat="44.262330874263036" lon="11.470439145173048"><ele>291.0</ele><time>2026-04-30T07:37:36Z</time></trkpt><trkpt lat="44.2622630065297" lon="11.470418703751267"><ele>291.0</ele><time>2026-04-30T07:37:39Z</time></trkpt><trkpt lat="44.262178069177075" lon="11.47038519346893"><ele>291.0</ele><time>2026-04-30T07:37:41Z</time></trkpt><trkpt lat="44.26209829628303" lon="11.470350281513147"><ele>291.0</ele><time>2026-04-30T07:37:42Z</time></trkpt><trkpt lat="44.26201555777507" lon="11.470303522640922"><ele>291.0</ele><time>2026-04-30T07:37:43Z</time></trkpt><trkpt lat="44.26191144474703" lon="11.470240091971528"><ele>291.0</ele><time>2026-04-30T07:37:44Z</time></trkpt><trkpt lat="44.26179347834399" lon="11.470212337473606"><ele>291.0</ele><time>2026-04-30T07:37:45Z</time></trkpt><trkpt lat="44.261667803145016" lon="11.470203441977663"><ele>291.0</ele><time>2026-04-30T07:37:46Z</time></trkpt><trkpt lat="44.26152653634243" lon="11.470197012316827"><ele>291.2</ele><time>2026-04-30T07:37:47Z</time></trkpt><trkpt lat="44.261410741820924" lon="11.47021271653242"><ele>291.40000000000003</ele><time>2026-04-30T07:37:48Z</time></trkpt><trkpt lat="44.261305660137964" lon="11.470206087679529"><ele>291.6</ele><time>2026-04-30T07:37:49Z</time></trkpt><trkpt lat="44.261207624065406" lon="11.470197182436689"><ele>291.8</ele><time>2026-04-30T07:37:50Z</time></trkpt><trkpt lat="44.26112304087058" lon="11.470190080093708"><ele>292.0</ele><time>2026-04-30T07:37:51Z</time></trkpt><trkpt lat="44.26103654410499" lon="11.4701267069688"><ele>292.0</ele><time>2026-04-30T07:37:52Z</time></trkpt><trkpt lat="44.26095582683528" lon="11.470035075535467"><ele>292.0</ele><time>2026-04-30T07:37:53Z</time></trkpt><trkpt lat="44.26088509272959" lon="11.46995915687024"><ele>292.0</ele><time>2026-04-30T07:37:54Z</time></trkpt><trkpt lat="44.2608196049482" lon="11.469907953607292"><ele>292.0</ele><time>2026-04-30T07:37:55Z</time></trkpt><trkpt lat="44.260740111878356" lon="11.469875876244028"><ele>292.0</ele><time>2026-04-30T07:37:56Z</time></trkpt><trkpt lat="44.260655548955505" lon="11.469877593767352"><ele>292.0</ele><time>2026-04-30T07:37:57Z</time></trkpt><trkpt lat="44.26056475966183" lon="11.469904908305764"><ele>292.8</ele><time>2026-04-30T07:37:58Z</time></trkpt><trkpt lat="44.26046404510973" lon="11.469958205920394"><ele>293.6</ele><time>2026-04-30T07:37:59Z</time></trkpt><trkpt lat="44.260355406545" lon="11.469988797588952"><ele>294.40000000000003</ele><time>2026-04-30T07:38:00Z</time></trkpt><trkpt lat="44.260255629083304" lon="11.470004822646375"><ele>295.2</ele><time>2026-04-30T07:38:01Z</time></trkpt><trkpt lat="44.26017148826508" lon="11.470010068999692"><ele>296.0</ele><time>2026-04-30T07:38:02Z</time></trkpt><trkpt lat="44.2600918218662" lon="11.470002172213402"><ele>296.0</ele><time>2026-04-30T07:38:03Z</time></trkpt><trkpt lat="44.260011442035605" lon="11.469984655037116"><ele>296.0</ele><time>2026-04-30T07:38:04Z</time></trkpt><trkpt lat="44.25994086756906" lon="11.46996950042205"><ele>296.0</ele><time>2026-04-30T07:38:05Z</time></trkpt><trkpt lat="44.259875000023825" lon="11.469963415907499"><ele>296.0</ele><time>2026-04-30T07:38:06Z</time></trkpt><trkpt lat="44.25975779856523" lon="11.469946345056616"><ele>296.0</ele><time>2026-04-30T07:38:08Z</time></trkpt><trkpt lat="44.259627286641454" lon="11.469931825857865"><ele>296.2</ele><time>2026-04-30T07:38:10Z</time></trkpt><trkpt lat="44.25953917039385" lon="11.469922772163143"><ele>296.40000000000003</ele><time>2026-04-30T07:38:11Z</time></trkpt><trkpt lat="44.259435310851345" lon="11.469900675986924"><ele>296.6</ele><time>2026-04-30T07:38:12Z</time></trkpt><trkpt lat="44.25933414648999" lon="11.469909705287654"><ele>296.8</ele><time>2026-04-30T07:38:13Z</time></trkpt><trkpt lat="44.259251502067066" lon="11.46993141411414"><ele>297.0</ele><time>2026-04-30T07:38:14Z</time></trkpt><trkpt lat="44.259165037620896" lon="11.469948403925383"><ele>297.0</ele><time>2026-04-30T07:38:15Z</time></trkpt><trkpt lat="44.25907297985256" lon="11.469969238621292"><ele>297.0</ele><time>2026-04-30T07:38:16Z</time></trkpt><trkpt lat="44.25899975154474" lon="11.469969710039333"><ele>297.0</ele><time>2026-04-30T07:38:17Z</time></trkpt><trkpt lat="44.25888728438485" lon="11.469984356734635"><ele>297.0</ele><time>2026-04-30T07:38:19Z</time></trkpt><trkpt lat="44.258803352134166" lon="11.469964649181039"><ele>297.0</ele><time>2026-04-30T07:38:24Z</time></trkpt><trkpt lat="44.2587249991969" lon="11.469903198924866"><ele>297.0</ele><time>2026-04-30T07:38:26Z</time></trkpt><trkpt lat="44.25865130203583" lon="11.469872564269005"><ele>297.0</ele><time>2026-04-30T07:38:28Z</time></trkpt><trkpt lat="44.25859551563883" lon="11.469919155049142"><ele>297.0</ele><time>2026-04-30T07:38:35Z</time></trkpt><trkpt lat="44.25852082340428" lon="11.46988982186038"><ele>297.0</ele><time>2026-04-30T07:38:39Z</time></trkpt><trkpt lat="44.25844762386102" lon="11.469824920925186"><ele>297.0</ele><time>2026-04-30T07:38:41Z</time></trkpt><trkpt lat="44.25838794730731" lon="11.46979539933668"><ele>297.0</ele><time>2026-04-30T07:38:42Z</time></trkpt><trkpt lat="44.25832048779277" lon="11.46978121005099"><ele>297.0</ele><time>2026-04-30T07:38:43Z</time></trkpt><trkpt lat="44.2582339354556" lon="11.46984354289033"><ele>297.0</ele><time>2026-04-30T07:38:45Z</time></trkpt><trkpt lat="44.25817305173461" lon="11.46992295538449"><ele>297.0</ele><time>2026-04-30T07:38:46Z</time></trkpt><trkpt lat="44.25810282890011" lon="11.469927855873546"><ele>297.0</ele><time>2026-04-30T07:38:54Z</time></trkpt><trkpt lat="44.258026219670874" lon="11.469953593005895"><ele>297.0</ele><time>2026-04-30T07:38:56Z</time></trkpt><trkpt lat="44.2579611833211" lon="11.470006808283433"><ele>297.0</ele><time>2026-04-30T07:38:58Z</time></trkpt><trkpt lat="44.25788735735798" lon="11.470097439947558"><ele>297.0</ele><time>2026-04-30T07:39:01Z</time></trkpt><trkpt lat="44.257830359403826" lon="11.470169502507318"><ele>297.3333333333333</ele><time>2026-04-30T07:39:03Z</time></trkpt><trkpt lat="44.25775464804643" lon="11.470226443936001"><ele>297.6666666666667</ele><time>2026-04-30T07:39:07Z</time></trkpt><trkpt lat="44.2576982226795" lon="11.470278542985529"><ele>298.0</ele><time>2026-04-30T07:39:10Z</time></trkpt><trkpt lat="44.25758957041168" lon="11.470265797726647"><ele>298.33333333333337</ele><time>2026-04-30T07:39:13Z</time></trkpt><trkpt lat="44.25751636672102" lon="11.470231742192873"><ele>298.6666666666667</ele><time>2026-04-30T07:39:16Z</time></trkpt><trkpt lat="44.257436850172695" lon="11.470204219601333"><ele>299.0</ele><time>2026-04-30T07:39:24Z</time></trkpt><trkpt lat="44.25737776309512" lon="11.470131144716111"><ele>299.0</ele><time>2026-04-30T07:39:35Z</time></trkpt><trkpt lat="44.2573231224727" lon="11.47008318228573"><ele>299.0</ele><time>2026-04-30T07:39:38Z</time></trkpt><trkpt lat="44.257254082130245" lon="11.470050424719883"><ele>299.0</ele><time>2026-04-30T07:39:40Z</time></trkpt><trkpt lat="44.25710929773256" lon="11.470024622739034"><ele>299.0</ele><time>2026-04-30T07:39:42Z</time></trkpt><trkpt lat="44.2570002615689" lon="11.470014833749003"><ele>299.0</ele><time>2026-04-30T07:39:43Z</time></trkpt><trkpt lat="44.256880600200795" lon="11.46998714949718"><ele>299.1666666666667</ele><time>2026-04-30T07:39:44Z</time></trkpt><trkpt lat="44.256774686558714" lon="11.469959389977745"><ele>299.33333333333337</ele><time>2026-04-30T07:39:45Z</time></trkpt><trkpt lat="44.25669186398952" lon="11.469945619078963"><ele>299.5</ele><time>2026-04-30T07:39:46Z</time></trkpt><trkpt lat="44.256615886536" lon="11.469928040163444"><ele>299.6666666666667</ele><time>2026-04-30T07:39:47Z</time></trkpt><trkpt lat="44.25654598874504" lon="11.469888819411869"><ele>299.8333333333333</ele><time>2026-04-30T07:39:48Z</time></trkpt><trkpt lat="44.25648933945431" lon="11.46982901500524"><ele>300.0</ele><time>2026-04-30T07:39:49Z</time></trkpt><trkpt lat="44.25640554044041" lon="11.469749887870293"><ele>300.0</ele><time>2026-04-30T07:39:51Z</time></trkpt><trkpt lat="44.25631342872787" lon="11.46968986975336"><ele>300.0</ele><time>2026-04-30T07:39:56Z</time></trkpt><trkpt lat="44.256241751603845" lon="11.469646745854758"><ele>300.0</ele><time>2026-04-30T07:39:58Z</time></trkpt><trkpt lat="44.2561351641117" lon="11.469716268010346"><ele>300.0</ele><time>2026-04-30T07:40:00Z</time></trkpt><trkpt lat="44.25603636753658" lon="11.469773808673477"><ele>300.0</ele><time>2026-04-30T07:40:01Z</time></trkpt><trkpt lat="44.255907238714144" lon="11.469816380716741"><ele>300.0</ele><time>2026-04-30T07:40:02Z</time></trkpt><trkpt lat="44.25579220576593" lon="11.4698191174866"><ele>300.0</ele><time>2026-04-30T07:40:03Z</time></trkpt><trkpt lat="44.25566751304166" lon="11.469837670492984"><ele>300.0</ele><time>2026-04-30T07:40:04Z</time></trkpt><trkpt lat="44.255560416452525" lon="11.469861334915139"><ele>300.0</ele><time>2026-04-30T07:40:05Z</time></trkpt><trkpt lat="44.25545907892544" lon="11.469856184859697"><ele>300.2</ele><time>2026-04-30T07:40:06Z</time></trkpt><trkpt lat="44.25532428673234" lon="11.469825941785567"><ele>300.4</ele><time>2026-04-30T07:40:07Z</time></trkpt><trkpt lat="44.25523028658893" lon="11.46981128910807"><ele>300.6</ele><time>2026-04-30T07:40:08Z</time></trkpt><trkpt lat="44.2551606413861" lon="11.4697989127457"><ele>300.8</ele><time>2026-04-30T07:40:09Z</time></trkpt><trkpt lat="44.25503194157749" lon="11.46981675260034"><ele>301.0</ele><time>2026-04-30T07:40:11Z</time></trkpt><trkpt lat="44.254956175764384" lon="11.469875358656724"><ele>301.0</ele><time>2026-04-30T07:40:12Z</time></trkpt><trkpt lat="44.25488921017382" lon="11.469927128207528"><ele>301.0</ele><time>2026-04-30T07:40:13Z</time></trkpt><trkpt lat="44.254830234890456" lon="11.46996536339839"><ele>301.0</ele><time>2026-04-30T07:40:14Z</time></trkpt><trkpt lat="44.25476022758738" lon="11.469962801239888"><ele>301.0</ele><time>2026-04-30T07:40:15Z</time></trkpt><trkpt lat="44.254677091330876" lon="11.469956833076514"><ele>301.0</ele><time>2026-04-30T07:40:16Z</time></trkpt><trkpt lat="44.25457216945595" lon="11.469928291159881"><ele>301.0</ele><time>2026-04-30T07:40:17Z</time></trkpt><trkpt lat="44.25447892455882" lon="11.469888723076217"><ele>301.16666666666663</ele><time>2026-04-30T07:40:18Z</time></trkpt><trkpt lat="44.25438705453399" lon="11.469845121243388"><ele>301.3333333333333</ele><time>2026-04-30T07:40:19Z</time></trkpt><trkpt lat="44.25429716044425" lon="11.469814258130572"><ele>301.5</ele><time>2026-04-30T07:40:20Z</time></trkpt><trkpt lat="44.25421280981947" lon="11.469764426633112"><ele>301.6666666666667</ele><time>2026-04-30T07:40:21Z</time></trkpt><trkpt lat="44.25413610028131" lon="11.469736623931496"><ele>301.83333333333337</ele><time>2026-04-30T07:40:22Z</time></trkpt><trkpt lat="44.25405786386861" lon="11.469752219986947"><ele>302.0</ele><time>2026-04-30T07:40:23Z</time></trkpt><trkpt lat="44.25398118869568" lon="11.469802449159735"><ele>302.33333333333337</ele><time>2026-04-30T07:40:24Z</time></trkpt><trkpt lat="44.253909681853315" lon="11.46981975115461"><ele>302.6666666666667</ele><time>2026-04-30T07:40:25Z</time></trkpt><trkpt lat="44.253815992719794" lon="11.46988721051505"><ele>303.0</ele><time>2026-04-30T07:40:27Z</time></trkpt><trkpt lat="44.25374395641298" lon="11.469944496144524"><ele>303.3333333333333</ele><time>2026-04-30T07:40:29Z</time></trkpt><trkpt lat="44.253678676921794" lon="11.469917804186721"><ele>303.66666666666663</ele><time>2026-04-30T07:40:39Z</time></trkpt><trkpt lat="44.253584573108604" lon="11.469903833842864"><ele>304.0</ele><time>2026-04-30T07:41:10Z</time></trkpt><trkpt lat="44.253525791581104" lon="11.469948694655608"><ele>304.0</ele><time>2026-04-30T07:41:13Z</time></trkpt><trkpt lat="44.253489320698" lon="11.470052204972738"><ele>304.0</ele><time>2026-04-30T07:41:38Z</time></trkpt><trkpt lat="44.25343459831518" lon="11.470122293304819"><ele>304.0</ele><time>2026-04-30T07:41:40Z</time></trkpt><trkpt lat="44.25333245860694" lon="11.470162436460365"><ele>304.0</ele><time>2026-04-30T07:41:42Z</time></trkpt><trkpt lat="44.25324528000612" lon="11.470158419906019"><ele>304.0</ele><time>2026-04-30T07:41:43Z</time></trkpt><trkpt lat="44.25315111772756" lon="11.470169513157833"><ele>304.0</ele><time>2026-04-30T07:41:44Z</time></trkpt><trkpt lat="44.25305213570432" lon="11.470176793936202"><ele>304.2</ele><time>2026-04-30T07:41:45Z</time></trkpt><trkpt lat="44.25293408405983" lon="11.47017713269884"><ele>304.4</ele><time>2026-04-30T07:41:46Z</time></trkpt><trkpt lat="44.25282897663484" lon="11.470169319704688"><ele>304.6</ele><time>2026-04-30T07:41:47Z</time></trkpt><trkpt lat="44.25274587565848" lon="11.470161980084546"><ele>304.8</ele><time>2026-04-30T07:41:48Z</time></trkpt><trkpt lat="44.25267629372801" lon="11.470122421771695"><ele>305.0</ele><time>2026-04-30T07:41:49Z</time></trkpt><trkpt lat="44.25260637610887" lon="11.47003329857528"><ele>305.0</ele><time>2026-04-30T07:41:50Z</time></trkpt><trkpt lat="44.25253717591124" lon="11.469948521884529"><ele>305.0</ele><time>2026-04-30T07:41:51Z</time></trkpt><trkpt lat="44.25246461185856" lon="11.469924403845193"><ele>305.0</ele><time>2026-04-30T07:41:52Z</time></trkpt><trkpt lat="44.25236956255449" lon="11.469952151558171"><ele>305.0</ele><time>2026-04-30T07:41:53Z</time></trkpt><trkpt lat="44.252272556931125" lon="11.46999711480678"><ele>305.0</ele><time>2026-04-30T07:41:54Z</time></trkpt><trkpt lat="44.25218037901897" lon="11.470033816957685"><ele>305.6</ele><time>2026-04-30T07:41:55Z</time></trkpt><trkpt lat="44.25208050513605" lon="11.470064780043804"><ele>306.2</ele><time>2026-04-30T07:41:56Z</time></trkpt><trkpt lat="44.25198669855674" lon="11.470113941194361"><ele>306.8</ele><time>2026-04-30T07:41:57Z</time></trkpt><trkpt lat="44.25188790773907" lon="11.470140670917738"><ele>307.4</ele><time>2026-04-30T07:41:58Z</time></trkpt><trkpt lat="44.25180840189918" lon="11.470132502854765"><ele>308.0</ele><time>2026-04-30T07:41:59Z</time></trkpt><trkpt lat="44.25174106492582" lon="11.4700145996893"><ele>308.0</ele><time>2026-04-30T07:42:01Z</time></trkpt><trkpt lat="44.25169516776449" lon="11.469927762823463"><ele>308.0</ele><time>2026-04-30T07:42:02Z</time></trkpt><trkpt lat="44.25160829440293" lon="11.469872810237813"><ele>308.0</ele><time>2026-04-30T07:42:03Z</time></trkpt><trkpt lat="44.251495233414126" lon="11.46980798304789"><ele>308.0</ele><time>2026-04-30T07:42:04Z</time></trkpt><trkpt lat="44.25138612991007" lon="11.469710209870465"><ele>308.0</ele><time>2026-04-30T07:42:05Z</time></trkpt><trkpt lat="44.25129044252668" lon="11.46964817861838"><ele>308.0</ele><time>2026-04-30T07:42:06Z</time></trkpt><trkpt lat="44.25118618474469" lon="11.469628278776188"><ele>308.0</ele><time>2026-04-30T07:42:07Z</time></trkpt><trkpt lat="44.251066280621515" lon="11.469616381551912"><ele>308.0</ele><time>2026-04-30T07:42:08Z</time></trkpt><trkpt lat="44.2509432719485" lon="11.469563445977158"><ele>308.0</ele><time>2026-04-30T07:42:09Z</time></trkpt><trkpt lat="44.25084466295742" lon="11.469505819351642"><ele>307.8</ele><time>2026-04-30T07:42:10Z</time></trkpt><trkpt lat="44.25078224221593" lon="11.46948017974174"><ele>307.6</ele><time>2026-04-30T07:42:11Z</time></trkpt><trkpt lat="44.250652921754565" lon="11.469548379842433"><ele>307.4</ele><time>2026-04-30T07:42:13Z</time></trkpt><trkpt lat="44.250550500062545" lon="11.469637427341057"><ele>307.2</ele><time>2026-04-30T07:42:14Z</time></trkpt><trkpt lat="44.25045296872261" lon="11.469697083357952"><ele>307.0</ele><time>2026-04-30T07:42:15Z</time></trkpt><trkpt lat="44.25037024670934" lon="11.469725559256498"><ele>307.6</ele><time>2026-04-30T07:42:16Z</time></trkpt><trkpt lat="44.2502946026387" lon="11.469719642789377"><ele>308.2</ele><time>2026-04-30T07:42:17Z</time></trkpt><trkpt lat="44.25023022221556" lon="11.469683674982646"><ele>308.8</ele><time>2026-04-30T07:42:18Z</time></trkpt><trkpt lat="44.25018129077321" lon="11.469557279567331"><ele>309.4</ele><time>2026-04-30T07:42:20Z</time></trkpt><trkpt lat="44.25019679327656" lon="11.469412641207693"><ele>310.0</ele><time>2026-04-30T07:42:22Z</time></trkpt><trkpt lat="44.25015334130995" lon="11.469282096057457"><ele>310.0</ele><time>2026-04-30T07:42:24Z</time></trkpt><trkpt lat="44.25012732171545" lon="11.46915271178558"><ele>310.0</ele><time>2026-04-30T07:42:26Z</time></trkpt><trkpt lat="44.25000157180101" lon="11.469087224491563"><ele>310.0</ele><time>2026-04-30T07:42:28Z</time></trkpt><trkpt lat="44.24990752058636" lon="11.469085782037316"><ele>310.0</ele><time>2026-04-30T07:42:29Z</time></trkpt><trkpt lat="44.24981183860313" lon="11.469080158034782"><ele>310.0</ele><time>2026-04-30T07:42:32Z</time></trkpt><trkpt lat="44.24974167891328" lon="11.469099371946527"><ele>310.5</ele><time>2026-04-30T07:42:33Z</time></trkpt><trkpt lat="44.24966554297103" lon="11.469126992717712"><ele>311.0</ele><time>2026-04-30T07:42:34Z</time></trkpt><trkpt lat="44.24954481760336" lon="11.469154363200188"><ele>311.5</ele><time>2026-04-30T07:42:36Z</time></trkpt><trkpt lat="44.24947053316233" lon="11.46913228579402"><ele>312.0</ele><time>2026-04-30T07:42:37Z</time></trkpt><trkpt lat="44.24938787055329" lon="11.46910119481021"><ele>312.5</ele><time>2026-04-30T07:42:38Z</time></trkpt><trkpt lat="44.24930574661123" lon="11.469071404849071"><ele>313.0</ele><time>2026-04-30T07:42:39Z</time></trkpt><trkpt lat="44.24924434901602" lon="11.469018485514226"><ele>313.0</ele><time>2026-04-30T07:42:40Z</time></trkpt><trkpt lat="44.24918995074482" lon="11.46893842044261"><ele>313.0</ele><time>2026-04-30T07:42:41Z</time></trkpt><trkpt lat="44.24914393628579" lon="11.468854897575197"><ele>313.0</ele><time>2026-04-30T07:42:42Z</time></trkpt><trkpt lat="44.24905954289418" lon="11.468760470065595"><ele>313.0</ele><time>2026-04-30T07:42:44Z</time></trkpt><trkpt lat="44.24904899292958" lon="11.468631824871801"><ele>313.0</ele><time>2026-04-30T07:42:51Z</time></trkpt><trkpt lat="44.249020178985475" lon="11.468520301979206"><ele>313.0</ele><time>2026-04-30T07:42:53Z</time></trkpt><trkpt lat="44.24896269691971" lon="11.468438876157057"><ele>312.8333333333333</ele><time>2026-04-30T07:42:55Z</time></trkpt><trkpt lat="44.248862735480934" lon="11.468361850769979"><ele>312.66666666666663</ele><time>2026-04-30T07:49:38Z</time></trkpt><trkpt lat="44.24878342941172" lon="11.468332395337876"><ele>312.5</ele><time>2026-04-30T07:49:40Z</time></trkpt><trkpt lat="44.24868296906008" lon="11.46831723865387"><ele>312.3333333333333</ele><time>2026-04-30T07:49:42Z</time></trkpt><trkpt lat="44.248620380209246" lon="11.468272283139408"><ele>312.1666666666667</ele><time>2026-04-30T07:49:43Z</time></trkpt><trkpt lat="44.24854738683191" lon="11.468256029987423"><ele>312.0</ele><time>2026-04-30T07:49:45Z</time></trkpt><trkpt lat="44.248466289841645" lon="11.468255847829285"><ele>312.0</ele><time>2026-04-30T07:49:53Z</time></trkpt><trkpt lat="44.24838652809214" lon="11.46825302074696"><ele>312.0</ele><time>2026-04-30T07:49:55Z</time></trkpt><trkpt lat="44.24831741169763" lon="11.468248867691933"><ele>312.0</ele><time>2026-04-30T07:49:57Z</time></trkpt><trkpt lat="44.248236185717985" lon="11.46824839497866"><ele>312.0</ele><time>2026-04-30T07:50:00Z</time></trkpt><trkpt lat="44.248142847352646" lon="11.46820858269477"><ele>312.0</ele><time>2026-04-30T07:50:02Z</time></trkpt><trkpt lat="44.24801554149394" lon="11.46810731192807"><ele>312.0</ele><time>2026-04-30T07:50:04Z</time></trkpt><trkpt lat="44.24792765307516" lon="11.468037894587889"><ele>312.0</ele><time>2026-04-30T07:50:05Z</time></trkpt><trkpt lat="44.24782945918572" lon="11.467986218740192"><ele>312.0</ele><time>2026-04-30T07:50:06Z</time></trkpt><trkpt lat="44.247725716993976" lon="11.467923972829155"><ele>312.0</ele><time>2026-04-30T07:50:07Z</time></trkpt><trkpt lat="44.24762426200548" lon="11.467874320628972"><ele>312.0</ele><time>2026-04-30T07:50:08Z</time></trkpt><trkpt lat="44.24753784522635" lon="11.467847934171962"><ele>312.6666666666667</ele><time>2026-04-30T07:50:09Z</time></trkpt><trkpt lat="44.24746244192377" lon="11.467830333129386"><ele>313.3333333333333</ele><time>2026-04-30T07:50:10Z</time></trkpt><trkpt lat="44.24739786347916" lon="11.467817827013617"><ele>314.0</ele><time>2026-04-30T07:50:11Z</time></trkpt><trkpt lat="44.24729401593378" lon="11.467784471999835"><ele>314.66666666666663</ele><time>2026-04-30T07:50:13Z</time></trkpt><trkpt lat="44.24718888942125" lon="11.467741635769828"><ele>315.3333333333333</ele><time>2026-04-30T07:50:15Z</time></trkpt><trkpt lat="44.24709929295235" lon="11.467726105171256"><ele>316.0</ele><time>2026-04-30T07:50:17Z</time></trkpt><trkpt lat="44.247014353850865" lon="11.467735376185018"><ele>316.0</ele><time>2026-04-30T07:50:20Z</time></trkpt><trkpt lat="44.246939068466034" lon="11.467851940272846"><ele>316.0</ele><time>2026-04-30T07:50:22Z</time></trkpt><trkpt lat="44.2469089655187" lon="11.467934570833037"><ele>316.0</ele><time>2026-04-30T07:50:23Z</time></trkpt><trkpt lat="44.24680298968781" lon="11.468036734363967"><ele>316.0</ele><time>2026-04-30T07:50:25Z</time></trkpt><trkpt lat="44.246729528416736" lon="11.468081065943219"><ele>316.0</ele><time>2026-04-30T07:50:26Z</time></trkpt><trkpt lat="44.24667223403524" lon="11.468154313870468"><ele>315.8</ele><time>2026-04-30T07:50:27Z</time></trkpt><trkpt lat="44.24664955750632" lon="11.468246045658768"><ele>315.6</ele><time>2026-04-30T07:50:28Z</time></trkpt><trkpt lat="44.24659304886559" lon="11.468365421933228"><ele>315.4</ele><time>2026-04-30T07:50:30Z</time></trkpt><trkpt lat="44.246527887491126" lon="11.468355515538784"><ele>315.2</ele><time>2026-04-30T07:50:31Z</time></trkpt><trkpt lat="44.246441673562586" lon="11.468291243284636"><ele>315.0</ele><time>2026-04-30T07:50:32Z</time></trkpt><trkpt lat="44.24633514280482" lon="11.468185078243188"><ele>315.0</ele><time>2026-04-30T07:50:33Z</time></trkpt><trkpt lat="44.246224130490255" lon="11.468051398560764"><ele>315.0</ele><time>2026-04-30T07:50:34Z</time></trkpt><trkpt lat="44.24613346455528" lon="11.46794930199935"><ele>315.0</ele><time>2026-04-30T07:50:35Z</time></trkpt><trkpt lat="44.24605924817674" lon="11.467910143568679"><ele>315.0</ele><time>2026-04-30T07:50:36Z</time></trkpt><trkpt lat="44.24599425023424" lon="11.467884451499868"><ele>315.0</ele><time>2026-04-30T07:50:37Z</time></trkpt><trkpt lat="44.245875976727156" lon="11.467895336772619"><ele>315.0</ele><time>2026-04-30T07:50:39Z</time></trkpt><trkpt lat="44.24580741290522" lon="11.467919121757605"><ele>315.0</ele><time>2026-04-30T07:50:45Z</time></trkpt><trkpt lat="44.24573316075236" lon="11.467902377976388"><ele>315.0</ele><time>2026-04-30T07:50:47Z</time></trkpt><trkpt lat="44.24563322808803" lon="11.467831961711477"><ele>315.0</ele><time>2026-04-30T07:50:49Z</time></trkpt><trkpt lat="44.245554110208154" lon="11.467781298018421"><ele>315.0</ele><time>2026-04-30T07:50:50Z</time></trkpt><trkpt lat="44.245461354577785" lon="11.467713586841215"><ele>315.6666666666667</ele><time>2026-04-30T07:50:51Z</time></trkpt><trkpt lat="44.24537229420245" lon="11.46764295416048"><ele>316.3333333333333</ele><time>2026-04-30T07:50:52Z</time></trkpt><trkpt lat="44.24530788025006" lon="11.467573133455264"><ele>317.0</ele><time>2026-04-30T07:50:53Z</time></trkpt><trkpt lat="44.24525858855233" lon="11.467513284827612"><ele>317.66666666666663</ele><time>2026-04-30T07:50:54Z</time></trkpt><trkpt lat="44.24516367534649" lon="11.467516002107086"><ele>318.3333333333333</ele><time>2026-04-30T07:50:56Z</time></trkpt><trkpt lat="44.24511559618597" lon="11.467607873642086"><ele>319.0</ele><time>2026-04-30T07:50:57Z</time></trkpt><trkpt lat="44.245067183608796" lon="11.467712352543288"><ele>319.0</ele><time>2026-04-30T07:50:58Z</time></trkpt><trkpt lat="44.244972039731365" lon="11.46775557251094"><ele>319.0</ele><time>2026-04-30T07:51:00Z</time></trkpt><trkpt lat="44.24490780048464" lon="11.46771079491149"><ele>319.0</ele><time>2026-04-30T07:51:01Z</time></trkpt><trkpt lat="44.24483129559815" lon="11.46761011479661"><ele>319.0</ele><time>2026-04-30T07:51:02Z</time></trkpt><trkpt lat="44.24477118941112" lon="11.46753366313199"><ele>319.0</ele><time>2026-04-30T07:51:03Z</time></trkpt><trkpt lat="44.24468417366818" lon="11.467483952316982"><ele>320.0</ele><time>2026-04-30T07:51:05Z</time></trkpt><trkpt lat="44.244622366863126" lon="11.467379034908843"><ele>321.0</ele><time>2026-04-30T07:51:07Z</time></trkpt><trkpt lat="44.24452484237916" lon="11.467249641603836"><ele>322.0</ele><time>2026-04-30T07:51:09Z</time></trkpt><trkpt lat="44.24445294354459" lon="11.467190781307162"><ele>323.0</ele><time>2026-04-30T07:51:10Z</time></trkpt><trkpt lat="44.24437766358767" lon="11.467162376697402"><ele>324.0</ele><time>2026-04-30T07:51:11Z</time></trkpt><trkpt lat="44.24429489272648" lon="11.467152713273315"><ele>324.0</ele><time>2026-04-30T07:51:12Z</time></trkpt><trkpt lat="44.244209693054714" lon="11.467121699263966"><ele>324.0</ele><time>2026-04-30T07:51:13Z</time></trkpt><trkpt lat="44.24412155764939" lon="11.46707423041369"><ele>324.0</ele><time>2026-04-30T07:51:14Z</time></trkpt><trkpt lat="44.24406100337446" lon="11.467044277581662"><ele>324.0</ele><time>2026-04-30T07:51:15Z</time></trkpt><trkpt lat="44.24399435259077" lon="11.4670120240959"><ele>324.0</ele><time>2026-04-30T07:51:17Z</time></trkpt><trkpt lat="44.24392010879571" lon="11.466949897134157"><ele>324.0</ele><time>2026-04-30T07:51:19Z</time></trkpt><trkpt lat="44.243803666099815" lon="11.466886771064555"><ele>323.6</ele><time>2026-04-30T07:51:21Z</time></trkpt><trkpt lat="44.24366423560378" lon="11.466908104433076"><ele>323.2</ele><time>2026-04-30T07:51:23Z</time></trkpt><trkpt lat="44.243590831028484" lon="11.466926120431314"><ele>322.8</ele><time>2026-04-30T07:51:24Z</time></trkpt><trkpt lat="44.24348912681748" lon="11.466958587506063"><ele>322.40000000000003</ele><time>2026-04-30T07:51:26Z</time></trkpt><trkpt lat="44.243401066721646" lon="11.466989859994014"><ele>322.0</ele><time>2026-04-30T07:51:28Z</time></trkpt><trkpt lat="44.24332985025569" lon="11.466945981620473"><ele>322.0</ele><time>2026-04-30T07:51:30Z</time></trkpt><trkpt lat="44.24330204238458" lon="11.466848396101078"><ele>322.0</ele><time>2026-04-30T07:51:32Z</time></trkpt><trkpt lat="44.24328589818088" lon="11.466758694064492"><ele>322.0</ele><time>2026-04-30T07:51:36Z</time></trkpt><trkpt lat="44.2432393500631" lon="11.466655058214798"><ele>322.0</ele><time>2026-04-30T07:51:39Z</time></trkpt><trkpt lat="44.2431473486352" lon="11.466565476925748"><ele>322.0</ele><time>2026-04-30T07:51:41Z</time></trkpt><trkpt lat="44.24308600326759" lon="11.46654030068086"><ele>322.0</ele><time>2026-04-30T07:51:42Z</time></trkpt><trkpt lat="44.242959479570445" lon="11.466469650416471"><ele>322.3333333333333</ele><time>2026-04-30T07:51:44Z</time></trkpt><trkpt lat="44.24289496049332" lon="11.46642416649453"><ele>322.66666666666663</ele><time>2026-04-30T07:51:45Z</time></trkpt><trkpt lat="44.242798277380395" lon="11.466405943089832"><ele>323.0</ele><time>2026-04-30T07:51:47Z</time></trkpt><trkpt lat="44.24272203903653" lon="11.466452646103523"><ele>323.3333333333333</ele><time>2026-04-30T07:51:48Z</time></trkpt><trkpt lat="44.24265923572694" lon="11.466483336643334"><ele>323.6666666666667</ele><time>2026-04-30T07:51:49Z</time></trkpt><trkpt lat="44.242561063602494" lon="11.466542021758947"><ele>324.0</ele><time>2026-04-30T07:51:51Z</time></trkpt><trkpt lat="44.24246366286873" lon="11.466629153223135"><ele>324.0</ele><time>2026-04-30T07:51:53Z</time></trkpt><trkpt lat="44.24239941521032" lon="11.466659407864793"><ele>324.0</ele><time>2026-04-30T07:51:54Z</time></trkpt><trkpt lat="44.24229784154301" lon="11.466561858314327"><ele>324.0</ele><time>2026-04-30T07:51:56Z</time></trkpt><trkpt lat="44.24224600539687" lon="11.466445157367078"><ele>324.0</ele><time>2026-04-30T07:51:57Z</time></trkpt><trkpt lat="44.24219473019529" lon="11.46636849314815"><ele>324.0</ele><time>2026-04-30T07:51:58Z</time></trkpt><trkpt lat="44.242134760983745" lon="11.46632880882755"><ele>324.0</ele><time>2026-04-30T07:51:59Z</time></trkpt><trkpt lat="44.24206408699901" lon="11.466336826302303"><ele>324.2</ele><time>2026-04-30T07:52:00Z</time></trkpt><trkpt lat="44.241974747857604" lon="11.466343829845442"><ele>324.4</ele><time>2026-04-30T07:52:01Z</time></trkpt><trkpt lat="44.241864659859175" lon="11.466335371432654"><ele>324.6</ele><time>2026-04-30T07:52:02Z</time></trkpt><trkpt lat="44.24178689681239" lon="11.466323218702128"><ele>324.8</ele><time>2026-04-30T07:52:03Z</time></trkpt><trkpt lat="44.241689183633184" lon="11.466289252612176"><ele>325.0</ele><time>2026-04-30T07:52:05Z</time></trkpt><trkpt lat="44.24161224728642" lon="11.466240696028933"><ele>325.16666666666663</ele><time>2026-04-30T07:52:07Z</time></trkpt><trkpt lat="44.241496557481376" lon="11.466191682880211"><ele>325.3333333333333</ele><time>2026-04-30T07:52:09Z</time></trkpt><trkpt lat="44.24142782188032" lon="11.466197486383104"><ele>325.5</ele><time>2026-04-30T07:52:10Z</time></trkpt><trkpt lat="44.24133396618602" lon="11.466203789289937"><ele>325.6666666666667</ele><time>2026-04-30T07:52:12Z</time></trkpt><trkpt lat="44.24126967132515" lon="11.466154941853972"><ele>325.83333333333337</ele><time>2026-04-30T07:52:14Z</time></trkpt><trkpt lat="44.24119576194525" lon="11.466086775091206"><ele>326.0</ele><time>2026-04-30T07:52:16Z</time></trkpt><trkpt lat="44.24113966199302" lon="11.465993496071071"><ele>326.0</ele><time>2026-04-30T07:52:18Z</time></trkpt><trkpt lat="44.24105394328365" lon="11.465850959804351"><ele>326.0</ele><time>2026-04-30T07:52:20Z</time></trkpt><trkpt lat="44.240993590606436" lon="11.46575356469856"><ele>326.0</ele><time>2026-04-30T07:52:21Z</time></trkpt><trkpt lat="44.2409330658611" lon="11.465654802869127"><ele>326.0</ele><time>2026-04-30T07:52:22Z</time></trkpt><trkpt lat="44.2408549216048" lon="11.465547840054155"><ele>326.0</ele><time>2026-04-30T07:52:23Z</time></trkpt><trkpt lat="44.2407951606586" lon="11.465429789491367"><ele>326.5</ele><time>2026-04-30T07:52:24Z</time></trkpt><trkpt lat="44.24074991173371" lon="11.465308706520494"><ele>327.0</ele><time>2026-04-30T07:52:25Z</time></trkpt><trkpt lat="44.240714176492105" lon="11.465178730278145"><ele>327.5</ele><time>2026-04-30T07:52:26Z</time></trkpt><trkpt lat="44.24069709867124" lon="11.465053740284404"><ele>328.0</ele><time>2026-04-30T07:52:27Z</time></trkpt><trkpt lat="44.240697208357915" lon="11.464946577387792"><ele>328.5</ele><time>2026-04-30T07:52:28Z</time></trkpt><trkpt lat="44.240720256357335" lon="11.46484715064958"><ele>329.0</ele><time>2026-04-30T07:52:29Z</time></trkpt><trkpt lat="44.24077099112265" lon="11.464719877197362"><ele>329.0</ele><time>2026-04-30T07:52:30Z</time></trkpt><trkpt lat="44.240831897597324" lon="11.464575935074706"><ele>329.0</ele><time>2026-04-30T07:52:31Z</time></trkpt><trkpt lat="44.2408757509103" lon="11.464440130585915"><ele>329.0</ele><time>2026-04-30T07:52:32Z</time></trkpt><trkpt lat="44.24089698405667" lon="11.464295725453335"><ele>329.0</ele><time>2026-04-30T07:52:33Z</time></trkpt><trkpt lat="44.24086449883239" lon="11.464182562462817"><ele>329.0</ele><time>2026-04-30T07:52:35Z</time></trkpt><trkpt lat="44.240765483697686" lon="11.46413534026986"><ele>329.0</ele><time>2026-04-30T07:52:37Z</time></trkpt><trkpt lat="44.240658812189686" lon="11.464202078693134"><ele>329.0</ele><time>2026-04-30T07:52:39Z</time></trkpt><trkpt lat="44.24058199614324" lon="11.464287841718814"><ele>329.0</ele><time>2026-04-30T07:52:40Z</time></trkpt><trkpt lat="44.2405108117808" lon="11.464364642917891"><ele>329.0</ele><time>2026-04-30T07:52:41Z</time></trkpt><trkpt lat="44.240448554187516" lon="11.464396078145201"><ele>329.0</ele><time>2026-04-30T07:52:42Z</time></trkpt><trkpt lat="44.24032219401232" lon="11.464371156229184"><ele>329.2</ele><time>2026-04-30T07:52:44Z</time></trkpt><trkpt lat="44.240237102738874" lon="11.464322251990273"><ele>329.4</ele><time>2026-04-30T07:52:45Z</time></trkpt><trkpt lat="44.24015008166346" lon="11.46429826586773"><ele>329.6</ele><time>2026-04-30T07:52:46Z</time></trkpt><trkpt lat="44.24006723737734" lon="11.46431558831963"><ele>329.8</ele><time>2026-04-30T07:52:47Z</time></trkpt><trkpt lat="44.23998154819617" lon="11.464354323621146"><ele>330.0</ele><time>2026-04-30T07:52:48Z</time></trkpt><trkpt lat="44.239873842078225" lon="11.464357784659363"><ele>330.0</ele><time>2026-04-30T07:52:49Z</time></trkpt><trkpt lat="44.23977575409879" lon="11.464345462108856"><ele>330.0</ele><time>2026-04-30T07:52:50Z</time></trkpt><trkpt lat="44.239698728175995" lon="11.46434573693359"><ele>330.0</ele><time>2026-04-30T07:52:51Z</time></trkpt><trkpt lat="44.239626948219" lon="11.464350288670998"><ele>330.0</ele><time>2026-04-30T07:52:52Z</time></trkpt><trkpt lat="44.239514121010394" lon="11.464358355950452"><ele>330.0</ele><time>2026-04-30T07:52:54Z</time></trkpt><trkpt lat="44.23939366574991" lon="11.464371420383731"><ele>330.0</ele><time>2026-04-30T07:52:56Z</time></trkpt><trkpt lat="44.2392639421215" lon="11.464360941124392"><ele>330.0</ele><time>2026-04-30T07:52:58Z</time></trkpt><trkpt lat="44.23918868294963" lon="11.46437896578867"><ele>330.0</ele><time>2026-04-30T07:52:59Z</time></trkpt><trkpt lat="44.23906060443144" lon="11.464393814357472"><ele>330.0</ele><time>2026-04-30T07:53:01Z</time></trkpt><trkpt lat="44.23898271367019" lon="11.464404883799787"><ele>330.0</ele><time>2026-04-30T07:53:02Z</time></trkpt><trkpt lat="44.238895973284876" lon="11.464438615763665"><ele>330.1666666666667</ele><time>2026-04-30T07:53:03Z</time></trkpt><trkpt lat="44.238827708099095" lon="11.464467028102268"><ele>330.3333333333333</ele><time>2026-04-30T07:53:04Z</time></trkpt><trkpt lat="44.23868952400622" lon="11.464460906433855"><ele>330.5</ele><time>2026-04-30T07:53:06Z</time></trkpt><trkpt lat="44.238614185561346" lon="11.464462124010225"><ele>330.66666666666663</ele><time>2026-04-30T07:53:07Z</time></trkpt><trkpt lat="44.2385382686069" lon="11.464443519689187"><ele>330.8333333333333</ele><time>2026-04-30T07:53:08Z</time></trkpt><trkpt lat="44.23846775701499" lon="11.464420653493251"><ele>331.0</ele><time>2026-04-30T07:53:09Z</time></trkpt><trkpt lat="44.2383537192937" lon="11.464349388336721"><ele>331.0</ele><time>2026-04-30T07:53:11Z</time></trkpt><trkpt lat="44.23829938825585" lon="11.464288901834559"><ele>331.0</ele><time>2026-04-30T07:53:12Z</time></trkpt><trkpt lat="44.238231562862055" lon="11.464207292776466"><ele>331.0</ele><time>2026-04-30T07:53:13Z</time></trkpt><trkpt lat="44.23812492425424" lon="11.464141476750896"><ele>331.0</ele><time>2026-04-30T07:53:14Z</time></trkpt><trkpt lat="44.23800033490955" lon="11.464062298369848"><ele>331.0</ele><time>2026-04-30T07:53:15Z</time></trkpt><trkpt lat="44.237904446613165" lon="11.463988857287967"><ele>331.3333333333333</ele><time>2026-04-30T07:53:16Z</time></trkpt><trkpt lat="44.237832178918396" lon="11.463899842697845"><ele>331.66666666666663</ele><time>2026-04-30T07:53:17Z</time></trkpt><trkpt lat="44.237761089041506" lon="11.463801665692413"><ele>332.0</ele><time>2026-04-30T07:53:18Z</time></trkpt><trkpt lat="44.23769048270903" lon="11.463725594324313"><ele>332.3333333333333</ele><time>2026-04-30T07:53:19Z</time></trkpt><trkpt lat="44.23762938844049" lon="11.46366527183822"><ele>332.6666666666667</ele><time>2026-04-30T07:53:20Z</time></trkpt><trkpt lat="44.237560247539854" lon="11.46359869919452"><ele>333.0</ele><time>2026-04-30T07:53:21Z</time></trkpt><trkpt lat="44.237474428599114" lon="11.463514705437113"><ele>333.1666666666667</ele><time>2026-04-30T07:53:22Z</time></trkpt><trkpt lat="44.23739098171812" lon="11.463413805731186"><ele>333.3333333333333</ele><time>2026-04-30T07:53:23Z</time></trkpt><trkpt lat="44.23732813872315" lon="11.463322757790039"><ele>333.5</ele><time>2026-04-30T07:53:24Z</time></trkpt><trkpt lat="44.237270034063776" lon="11.463247316836854"><ele>333.66666666666663</ele><time>2026-04-30T07:53:25Z</time></trkpt><trkpt lat="44.23722045446251" lon="11.463178790762154"><ele>333.8333333333333</ele><time>2026-04-30T07:53:26Z</time></trkpt><trkpt lat="44.237181144783015" lon="11.463097401140256"><ele>334.0</ele><time>2026-04-30T07:53:27Z</time></trkpt><trkpt lat="44.237154118947146" lon="11.463010486776096"><ele>334.8333333333333</ele><time>2026-04-30T07:53:28Z</time></trkpt><trkpt lat="44.23712174891454" lon="11.462925152107434"><ele>335.66666666666663</ele><time>2026-04-30T07:53:29Z</time></trkpt><trkpt lat="44.237098428804764" lon="11.462827381143995"><ele>336.5</ele><time>2026-04-30T07:53:30Z</time></trkpt><trkpt lat="44.237068709664314" lon="11.462749370001248"><ele>337.3333333333333</ele><time>2026-04-30T07:53:31Z</time></trkpt><trkpt lat="44.23705123975043" lon="11.462648527354325"><ele>338.1666666666667</ele><time>2026-04-30T07:53:34Z</time></trkpt><trkpt lat="44.23708403151166" lon="11.462459981944479"><ele>339.0</ele><time>2026-04-30T07:53:36Z</time></trkpt><trkpt lat="44.23706951189642" lon="11.462351753826692"><ele>339.0</ele><time>2026-04-30T07:53:37Z</time></trkpt><trkpt lat="44.23701860005795" lon="11.462256114910021"><ele>339.0</ele><time>2026-04-30T07:53:38Z</time></trkpt><trkpt lat="44.23693662456285" lon="11.46216888558248"><ele>339.0</ele><time>2026-04-30T07:53:39Z</time></trkpt><trkpt lat="44.23684623727319" lon="11.462101315792333"><ele>339.0</ele><time>2026-04-30T07:53:40Z</time></trkpt><trkpt lat="44.23676409717608" lon="11.462034796253324"><ele>339.0</ele><time>2026-04-30T07:53:41Z</time></trkpt><trkpt lat="44.2366953151996" lon="11.461967003987386"><ele>338.8333333333333</ele><time>2026-04-30T07:53:42Z</time></trkpt><trkpt lat="44.236626308231415" lon="11.461901937993051"><ele>338.6666666666667</ele><time>2026-04-30T07:53:43Z</time></trkpt><trkpt lat="44.23656459117299" lon="11.461847794732227"><ele>338.5</ele><time>2026-04-30T07:53:44Z</time></trkpt><trkpt lat="44.23650548470957" lon="11.461786652224234"><ele>338.33333333333337</ele><time>2026-04-30T07:53:45Z</time></trkpt><trkpt lat="44.236437243582124" lon="11.461708263459302"><ele>338.1666666666667</ele><time>2026-04-30T07:53:46Z</time></trkpt><trkpt lat="44.23636176645662" lon="11.46162183921287"><ele>338.0</ele><time>2026-04-30T07:53:47Z</time></trkpt><trkpt lat="44.23627992227432" lon="11.461531211162722"><ele>338.1666666666667</ele><time>2026-04-30T07:53:48Z</time></trkpt><trkpt lat="44.23619829297106" lon="11.46144960681728"><ele>338.33333333333337</ele><time>2026-04-30T07:53:49Z</time></trkpt><trkpt lat="44.236127103167306" lon="11.461378914035302"><ele>338.5</ele><time>2026-04-30T07:53:50Z</time></trkpt><trkpt lat="44.2360625412768" lon="11.461327935116469"><ele>338.6666666666667</ele><time>2026-04-30T07:53:51Z</time></trkpt><trkpt lat="44.235996404317724" lon="11.461290123242057"><ele>338.8333333333333</ele><time>2026-04-30T07:53:52Z</time></trkpt><trkpt lat="44.235926667504884" lon="11.461290743885149"><ele>339.0</ele><time>2026-04-30T07:53:53Z</time></trkpt><trkpt lat="44.23583947409235" lon="11.46126990293091"><ele>339.0</ele><time>2026-04-30T07:53:54Z</time></trkpt><trkpt lat="44.23576023115417" lon="11.461227450597889"><ele>339.0</ele><time>2026-04-30T07:53:55Z</time></trkpt><trkpt lat="44.23567945868804" lon="11.46116404682548"><ele>339.0</ele><time>2026-04-30T07:53:56Z</time></trkpt><trkpt lat="44.23560170592592" lon="11.461112327179896"><ele>339.0</ele><time>2026-04-30T07:53:57Z</time></trkpt><trkpt lat="44.23552446506081" lon="11.46107723042528"><ele>339.0</ele><time>2026-04-30T07:53:58Z</time></trkpt><trkpt lat="44.235441291037304" lon="11.461043313436505"><ele>339.0</ele><time>2026-04-30T07:53:59Z</time></trkpt><trkpt lat="44.23535921980622" lon="11.46099076175347"><ele>339.1666666666667</ele><time>2026-04-30T07:54:00Z</time></trkpt><trkpt lat="44.23526414474146" lon="11.460959503505238"><ele>339.3333333333333</ele><time>2026-04-30T07:54:01Z</time></trkpt><trkpt lat="44.23517757069676" lon="11.460952878174469"><ele>339.5</ele><time>2026-04-30T07:54:02Z</time></trkpt><trkpt lat="44.23509619381853" lon="11.460938561978379"><ele>339.66666666666663</ele><time>2026-04-30T07:54:03Z</time></trkpt><trkpt lat="44.235006784169435" lon="11.460910521445774"><ele>339.8333333333333</ele><time>2026-04-30T07:54:04Z</time></trkpt><trkpt lat="44.23491948998399" lon="11.460880511329352"><ele>340.0</ele><time>2026-04-30T07:54:05Z</time></trkpt><trkpt lat="44.23483252854987" lon="11.460833907471578"><ele>340.0</ele><time>2026-04-30T07:54:06Z</time></trkpt><trkpt lat="44.23477087207552" lon="11.460774166486972"><ele>340.0</ele><time>2026-04-30T07:54:07Z</time></trkpt><trkpt lat="44.23471195366273" lon="11.460719988037493"><ele>340.0</ele><time>2026-04-30T07:54:08Z</time></trkpt><trkpt lat="44.23466383819168" lon="11.460661203335057"><ele>340.0</ele><time>2026-04-30T07:54:09Z</time></trkpt><trkpt lat="44.234613750785556" lon="11.46055665771716"><ele>340.0</ele><time>2026-04-30T07:54:11Z</time></trkpt><trkpt lat="44.23455717028687" lon="11.460421278859279"><ele>340.0</ele><time>2026-04-30T07:54:13Z</time></trkpt><trkpt lat="44.23453619246541" lon="11.46032622147447"><ele>340.0</ele><time>2026-04-30T07:54:14Z</time></trkpt><trkpt lat="44.234534339791146" lon="11.460231635625062"><ele>340.0</ele><time>2026-04-30T07:54:15Z</time></trkpt><trkpt lat="44.23453062752662" lon="11.460048231027267"><ele>340.0</ele><time>2026-04-30T07:54:17Z</time></trkpt><trkpt lat="44.23452456818673" lon="11.459936498782104"><ele>340.0</ele><time>2026-04-30T07:54:18Z</time></trkpt><trkpt lat="44.234525461741825" lon="11.459824072513584"><ele>340.0</ele><time>2026-04-30T07:54:19Z</time></trkpt><trkpt lat="44.23454564263152" lon="11.459716812036671"><ele>340.0</ele><time>2026-04-30T07:54:20Z</time></trkpt><trkpt lat="44.23456452619176" lon="11.459574607413577"><ele>340.8333333333333</ele><time>2026-04-30T07:54:21Z</time></trkpt><trkpt lat="44.2345748827808" lon="11.459458453604611"><ele>341.66666666666663</ele><time>2026-04-30T07:54:22Z</time></trkpt><trkpt lat="44.2345549088214" lon="11.459348099916381"><ele>342.5</ele><time>2026-04-30T07:54:23Z</time></trkpt><trkpt lat="44.23451455380255" lon="11.459255847479035"><ele>343.3333333333333</ele><time>2026-04-30T07:54:24Z</time></trkpt><trkpt lat="44.2344456863558" lon="11.459180559455021"><ele>344.1666666666667</ele><time>2026-04-30T07:54:25Z</time></trkpt><trkpt lat="44.234370766188" lon="11.459107000200305"><ele>345.0</ele><time>2026-04-30T07:54:26Z</time></trkpt><trkpt lat="44.23430358166858" lon="11.45904256694673"><ele>345.0</ele><time>2026-04-30T07:54:27Z</time></trkpt><trkpt lat="44.23420803276434" lon="11.459029238384954"><ele>345.0</ele><time>2026-04-30T07:54:28Z</time></trkpt><trkpt lat="44.2341204474723" lon="11.458970969952533"><ele>345.0</ele><time>2026-04-30T07:54:29Z</time></trkpt><trkpt lat="44.2340433476041" lon="11.458886350858112"><ele>345.0</ele><time>2026-04-30T07:54:30Z</time></trkpt><trkpt lat="44.233977851642855" lon="11.45884503000771"><ele>345.0</ele><time>2026-04-30T07:54:31Z</time></trkpt><trkpt lat="44.23387307390781" lon="11.458779918435823"><ele>344.8</ele><time>2026-04-30T07:54:33Z</time></trkpt><trkpt lat="44.233759021028966" lon="11.458863849744203"><ele>344.6</ele><time>2026-04-30T07:54:35Z</time></trkpt><trkpt lat="44.2336939318205" lon="11.4589301698091"><ele>344.4</ele><time>2026-04-30T07:54:37Z</time></trkpt><trkpt lat="44.233626793107845" lon="11.458967204618377"><ele>344.2</ele><time>2026-04-30T07:54:40Z</time></trkpt><trkpt lat="44.23356022093877" lon="11.458974993120671"><ele>344.0</ele><time>2026-04-30T07:54:43Z</time></trkpt><trkpt lat="44.23346423527856" lon="11.45893056077565"><ele>344.0</ele><time>2026-04-30T07:54:45Z</time></trkpt><trkpt lat="44.23332951299549" lon="11.458869816093943"><ele>344.0</ele><time>2026-04-30T07:54:47Z</time></trkpt><trkpt lat="44.23321529123005" lon="11.458793111067072"><ele>344.0</ele><time>2026-04-30T07:54:48Z</time></trkpt><trkpt lat="44.23310127557662" lon="11.458681962073209"><ele>344.0</ele><time>2026-04-30T07:54:49Z</time></trkpt><trkpt lat="44.232998237259864" lon="11.45859220361711"><ele>344.0</ele><time>2026-04-30T07:54:50Z</time></trkpt><trkpt lat="44.232920155237586" lon="11.45853898902453"><ele>344.0</ele><time>2026-04-30T07:54:51Z</time></trkpt><trkpt lat="44.2328105649301" lon="11.45857438291813"><ele>344.0</ele><time>2026-04-30T07:54:53Z</time></trkpt><trkpt lat="44.23272302688201" lon="11.45854615516918"><ele>344.0</ele><time>2026-04-30T07:54:55Z</time></trkpt><trkpt lat="44.232654680475534" lon="11.458522803528462"><ele>344.0</ele><time>2026-04-30T07:54:56Z</time></trkpt><trkpt lat="44.23257923836437" lon="11.458499855863485"><ele>344.0</ele><time>2026-04-30T07:54:57Z</time></trkpt><trkpt lat="44.232494665730755" lon="11.458493586536761"><ele>344.0</ele><time>2026-04-30T07:54:58Z</time></trkpt><trkpt lat="44.232384048470216" lon="11.458413234595398"><ele>344.0</ele><time>2026-04-30T07:54:59Z</time></trkpt><trkpt lat="44.232260916658625" lon="11.458274141950271"><ele>344.0</ele><time>2026-04-30T07:55:00Z</time></trkpt><trkpt lat="44.23215499370583" lon="11.458240063011537"><ele>344.0</ele><time>2026-04-30T07:55:01Z</time></trkpt><trkpt lat="44.23206665120368" lon="11.458221048130524"><ele>344.6</ele><time>2026-04-30T07:55:02Z</time></trkpt><trkpt lat="44.23197684161953" lon="11.458156464515696"><ele>345.2</ele><time>2026-04-30T07:55:03Z</time></trkpt><trkpt lat="44.23191318303569" lon="11.45809772037925"><ele>345.8</ele><time>2026-04-30T07:55:04Z</time></trkpt><trkpt lat="44.23180521867555" lon="11.458016194729113"><ele>346.40000000000003</ele><time>2026-04-30T07:55:05Z</time></trkpt><trkpt lat="44.23173334638378" lon="11.457984331674316"><ele>347.0</ele><time>2026-04-30T07:55:06Z</time></trkpt><trkpt lat="44.2316235043677" lon="11.457949214962373"><ele>347.1666666666667</ele><time>2026-04-30T07:55:07Z</time></trkpt><trkpt lat="44.231556859778706" lon="11.457906822457641"><ele>347.33333333333337</ele><time>2026-04-30T07:55:08Z</time></trkpt><trkpt lat="44.23148521619183" lon="11.457831669996947"><ele>347.5</ele><time>2026-04-30T07:55:10Z</time></trkpt><trkpt lat="44.23146762988689" lon="11.457676743771884"><ele>347.6666666666667</ele><time>2026-04-30T07:55:12Z</time></trkpt><trkpt lat="44.23150365839876" lon="11.457543403705419"><ele>347.8333333333333</ele><time>2026-04-30T07:55:14Z</time></trkpt><trkpt lat="44.23145296624527" lon="11.457473896667267"><ele>348.0</ele><time>2026-04-30T07:55:19Z</time></trkpt><trkpt lat="44.23138053246753" lon="11.457470042078425"><ele>348.6666666666667</ele><time>2026-04-30T07:55:25Z</time></trkpt><trkpt lat="44.231299094940624" lon="11.45751733025692"><ele>349.3333333333333</ele><time>2026-04-30T07:55:28Z</time></trkpt><trkpt lat="44.23120371139204" lon="11.45755072111651"><ele>350.0</ele><time>2026-04-30T07:55:31Z</time></trkpt><trkpt lat="44.2311434713167" lon="11.457601549965242"><ele>350.66666666666663</ele><time>2026-04-30T07:55:33Z</time></trkpt><trkpt lat="44.2310491203354" lon="11.457685814708306"><ele>351.3333333333333</ele><time>2026-04-30T07:55:35Z</time></trkpt><trkpt lat="44.230989907205014" lon="11.457738523635214"><ele>352.0</ele><time>2026-04-30T07:55:36Z</time></trkpt><trkpt lat="44.23093159707088" lon="11.457785071140291"><ele>352.0</ele><time>2026-04-30T07:55:37Z</time></trkpt><trkpt lat="44.230864416407314" lon="11.457817548658507"><ele>352.0</ele><time>2026-04-30T07:55:39Z</time></trkpt><trkpt lat="44.23079184590182" lon="11.457851777468454"><ele>352.0</ele><time>2026-04-30T07:55:41Z</time></trkpt><trkpt lat="44.230685454469366" lon="11.45788506994022"><ele>352.0</ele><time>2026-04-30T07:55:43Z</time></trkpt><trkpt lat="44.2306261287932" lon="11.45792072050314"><ele>352.0</ele><time>2026-04-30T07:55:45Z</time></trkpt><trkpt lat="44.230536627202675" lon="11.457926262281614"><ele>352.0</ele><time>2026-04-30T07:55:48Z</time></trkpt><trkpt lat="44.230466205612665" lon="11.457941014409347"><ele>352.66666666666663</ele><time>2026-04-30T07:55:53Z</time></trkpt><trkpt lat="44.23039322968552" lon="11.457958735991722"><ele>353.3333333333333</ele><time>2026-04-30T07:56:40Z</time></trkpt><trkpt lat="44.23032146129921" lon="11.457968843671745"><ele>354.0</ele><time>2026-04-30T07:56:44Z</time></trkpt><trkpt lat="44.230230751650176" lon="11.458011167324772"><ele>354.6666666666667</ele><time>2026-04-30T07:56:49Z</time></trkpt><trkpt lat="44.23017236355987" lon="11.45809161010337"><ele>355.33333333333337</ele><time>2026-04-30T07:56:51Z</time></trkpt><trkpt lat="44.230133719182135" lon="11.458216937528706"><ele>356.0</ele><time>2026-04-30T07:56:53Z</time></trkpt><trkpt lat="44.23009167426012" lon="11.458318869725213"><ele>356.0</ele><time>2026-04-30T07:56:55Z</time></trkpt><trkpt lat="44.230069355673486" lon="11.458445706866618"><ele>356.0</ele><time>2026-04-30T07:56:57Z</time></trkpt><trkpt lat="44.23004396843424" lon="11.458544336774771"><ele>356.0</ele><time>2026-04-30T07:56:59Z</time></trkpt><trkpt lat="44.230031277437185" lon="11.458650959702307"><ele>356.0</ele><time>2026-04-30T07:57:01Z</time></trkpt><trkpt lat="44.2300393058356" lon="11.45875269399729"><ele>356.0</ele><time>2026-04-30T07:57:03Z</time></trkpt><trkpt lat="44.23001189209039" lon="11.458857124026695"><ele>356.0</ele><time>2026-04-30T07:57:05Z</time></trkpt><trkpt lat="44.230010697555215" lon="11.459008420112935"><ele>358.0</ele><time>2026-04-30T07:57:07Z</time></trkpt><trkpt lat="44.23001677637298" lon="11.45912248516853"><ele>360.0</ele><time>2026-04-30T07:57:09Z</time></trkpt><trkpt lat="44.23001394462667" lon="11.45922993036523"><ele>362.0</ele><time>2026-04-30T07:57:11Z</time></trkpt><trkpt lat="44.23000811381916" lon="11.459363257698064"><ele>364.0</ele><time>2026-04-30T07:57:13Z</time></trkpt><trkpt lat="44.23000306412258" lon="11.459492175454026"><ele>366.0</ele><time>2026-04-30T07:57:15Z</time></trkpt><trkpt lat="44.229992446492396" lon="11.45962700133714"><ele>368.0</ele><time>2026-04-30T07:57:19Z</time></trkpt><trkpt lat="44.229963251963184" lon="11.459751501546203"><ele>370.4</ele><time>2026-04-30T07:57:21Z</time></trkpt><trkpt lat="44.22996947953899" lon="11.459950016852527"><ele>372.79999999999995</ele><time>2026-04-30T07:57:23Z</time></trkpt><trkpt lat="44.229980012389994" lon="11.460060109815927"><ele>375.2</ele><time>2026-04-30T07:57:24Z</time></trkpt><trkpt lat="44.229987873701305" lon="11.46018122642956"><ele>377.6</ele><time>2026-04-30T07:57:25Z</time></trkpt><trkpt lat="44.229985198476975" lon="11.46028502274265"><ele>380.0</ele><time>2026-04-30T07:57:26Z</time></trkpt><trkpt lat="44.22996921312962" lon="11.460444702022548"><ele>381.0</ele><time>2026-04-30T07:57:28Z</time></trkpt><trkpt lat="44.22995875920025" lon="11.460533153340512"><ele>382.0</ele><time>2026-04-30T07:57:29Z</time></trkpt><trkpt lat="44.2299325218718" lon="11.460695535470828"><ele>383.0</ele><time>2026-04-30T07:57:31Z</time></trkpt><trkpt lat="44.229923163208255" lon="11.46084579353079"><ele>384.0</ele><time>2026-04-30T07:57:33Z</time></trkpt><trkpt lat="44.22991065112543" lon="11.460991067315073"><ele>385.0</ele><time>2026-04-30T07:57:35Z</time></trkpt><trkpt lat="44.22991220623717" lon="11.461082826266567"><ele>385.00000000000006</ele><time>2026-04-30T07:57:36Z</time></trkpt><trkpt lat="44.229919124357664" lon="11.461170264157927"><ele>385.0</ele><time>2026-04-30T07:57:37Z</time></trkpt><trkpt lat="44.229963937876654" lon="11.461314999196428"><ele>385.0</ele><time>2026-04-30T07:57:39Z</time></trkpt><trkpt lat="44.22998922719768" lon="11.461493543171224"><ele>385.0</ele><time>2026-04-30T07:57:41Z</time></trkpt><trkpt lat="44.22999931001057" lon="11.461585703559598"><ele>385.00000000000006</ele><time>2026-04-30T07:57:42Z</time></trkpt><trkpt lat="44.23000372702371" lon="11.461690036052733"><ele>385.0</ele><time>2026-04-30T07:57:43Z</time></trkpt><trkpt lat="44.2300057603197" lon="11.461781589082229"><ele>386.1666666666667</ele><time>2026-04-30T07:57:44Z</time></trkpt><trkpt lat="44.22997451866603" lon="11.461906844530164"><ele>387.33333333333337</ele><time>2026-04-30T07:57:46Z</time></trkpt><trkpt lat="44.22991544325312" lon="11.462063330344844"><ele>388.5</ele><time>2026-04-30T07:57:48Z</time></trkpt><trkpt lat="44.22990166917468" lon="11.46215685467723"><ele>389.66666666666663</ele><time>2026-04-30T07:57:50Z</time></trkpt><trkpt lat="44.229945088836125" lon="11.462240356294663"><ele>390.8333333333333</ele><time>2026-04-30T07:57:53Z</time></trkpt><trkpt lat="44.22998819870969" lon="11.462311024526084"><ele>392.0</ele><time>2026-04-30T07:57:55Z</time></trkpt><trkpt lat="44.229986237603484" lon="11.462438548255975"><ele>392.6</ele><time>2026-04-30T07:57:58Z</time></trkpt><trkpt lat="44.22997139611687" lon="11.462538582005651"><ele>393.20000000000005</ele><time>2026-04-30T07:58:00Z</time></trkpt><trkpt lat="44.22995271967613" lon="11.462624901339408"><ele>393.8</ele><time>2026-04-30T07:58:03Z</time></trkpt><trkpt lat="44.22986954384407" lon="11.462732805320053"><ele>394.4</ele><time>2026-04-30T07:58:06Z</time></trkpt><trkpt lat="44.22979371844255" lon="11.462831588928184"><ele>395.0</ele><time>2026-04-30T07:58:08Z</time></trkpt><trkpt lat="44.22971972489873" lon="11.462946061861818"><ele>396.6</ele><time>2026-04-30T07:58:10Z</time></trkpt><trkpt lat="44.229659934972716" lon="11.463067570371706"><ele>398.2</ele><time>2026-04-30T07:58:12Z</time></trkpt><trkpt lat="44.22961980611377" lon="11.463200900962875"><ele>399.79999999999995</ele><time>2026-04-30T07:58:14Z</time></trkpt><trkpt lat="44.22957792829302" lon="11.4633520247495"><ele>401.4</ele><time>2026-04-30T07:58:16Z</time></trkpt><trkpt lat="44.22954763138534" lon="11.463508790696762"><ele>403.0</ele><time>2026-04-30T07:58:18Z</time></trkpt><trkpt lat="44.22950316067931" lon="11.463670763625663"><ele>403.0</ele><time>2026-04-30T07:58:20Z</time></trkpt><trkpt lat="44.22947545516828" lon="11.463762103841658"><ele>403.0</ele><time>2026-04-30T07:58:21Z</time></trkpt><trkpt lat="44.2294555246848" lon="11.463845709087293"><ele>403.0</ele><time>2026-04-30T07:58:22Z</time></trkpt><trkpt lat="44.22941433879829" lon="11.463993477426008"><ele>403.0</ele><time>2026-04-30T07:58:24Z</time></trkpt><trkpt lat="44.229392555483585" lon="11.46413308784028"><ele>403.0</ele><time>2026-04-30T07:58:26Z</time></trkpt><trkpt lat="44.22937358584635" lon="11.464275855123173"><ele>405.25</ele><time>2026-04-30T07:58:28Z</time></trkpt><trkpt lat="44.229343126629864" lon="11.464398542347546"><ele>407.5</ele><time>2026-04-30T07:58:30Z</time></trkpt><trkpt lat="44.22929745750178" lon="11.46454897950566"><ele>409.75</ele><time>2026-04-30T07:58:32Z</time></trkpt><trkpt lat="44.22925149127376" lon="11.464711528969833"><ele>412.0</ele><time>2026-04-30T07:58:34Z</time></trkpt><trkpt lat="44.22920393878817" lon="11.464865655958786"><ele>412.83333333333337</ele><time>2026-04-30T07:58:36Z</time></trkpt><trkpt lat="44.22915380904559" lon="11.465019755273353"><ele>413.6666666666667</ele><time>2026-04-30T07:58:38Z</time></trkpt><trkpt lat="44.22913387014632" lon="11.465134767531183"><ele>414.5</ele><time>2026-04-30T07:58:40Z</time></trkpt><trkpt lat="44.22918802118163" lon="11.465188187389964"><ele>415.33333333333337</ele><time>2026-04-30T07:58:44Z</time></trkpt><trkpt lat="44.22921287778222" lon="11.46527978593627"><ele>416.1666666666667</ele><time>2026-04-30T07:58:52Z</time></trkpt><trkpt lat="44.22915907779828" lon="11.4653345298497"><ele>417.0</ele><time>2026-04-30T07:58:54Z</time></trkpt><trkpt lat="44.22910593314882" lon="11.465407259309837"><ele>417.0</ele><time>2026-04-30T07:58:56Z</time></trkpt><trkpt lat="44.22904185448128" lon="11.465439102512573"><ele>417.0</ele><time>2026-04-30T07:59:04Z</time></trkpt><trkpt lat="44.22900244852764" lon="11.465553146590347"><ele>417.0</ele><time>2026-04-30T07:59:07Z</time></trkpt><trkpt lat="44.228978364733045" lon="11.465660178332438"><ele>417.0</ele><time>2026-04-30T07:59:09Z</time></trkpt><trkpt lat="44.22891367169689" lon="11.465814977092212"><ele>417.0</ele><time>2026-04-30T07:59:11Z</time></trkpt><trkpt lat="44.2288762215043" lon="11.465896419414122"><ele>417.0</ele><time>2026-04-30T07:59:12Z</time></trkpt><trkpt lat="44.228822248360395" lon="11.466014101407147"><ele>420.0</ele><time>2026-04-30T07:59:14Z</time></trkpt><trkpt lat="44.22877445452217" lon="11.466083271452172"><ele>423.0</ele><time>2026-04-30T07:59:16Z</time></trkpt><trkpt lat="44.22872392934628" lon="11.46614682001493"><ele>426.0</ele><time>2026-04-30T07:59:33Z</time></trkpt><trkpt lat="44.22876313265298" lon="11.466071519616147"><ele>429.0</ele><time>2026-04-30T08:00:55Z</time></trkpt><trkpt lat="44.22870747238808" lon="11.46616216121109"><ele>432.0</ele><time>2026-04-30T08:01:01Z</time></trkpt><trkpt lat="44.22862331469" lon="11.46622853092931"><ele>435.0</ele><time>2026-04-30T08:01:03Z</time></trkpt><trkpt lat="44.22855180701107" lon="11.466292799429826"><ele>435.6666666666667</ele><time>2026-04-30T08:01:05Z</time></trkpt><trkpt lat="44.22845097723886" lon="11.466377635886872"><ele>436.33333333333337</ele><time>2026-04-30T08:01:07Z</time></trkpt><trkpt lat="44.22839412402941" lon="11.46642974238601"><ele>437.0</ele><time>2026-04-30T08:01:08Z</time></trkpt><trkpt lat="44.22832011462457" lon="11.466500005550365"><ele>437.6666666666667</ele><time>2026-04-30T08:01:10Z</time></trkpt><trkpt lat="44.22826414911605" lon="11.466558932038623"><ele>438.33333333333337</ele><time>2026-04-30T08:01:12Z</time></trkpt><trkpt lat="44.22821406996366" lon="11.46664089277862"><ele>439.0</ele><time>2026-04-30T08:01:14Z</time></trkpt><trkpt lat="44.228254428919435" lon="11.466734424211758"><ele>439.0</ele><time>2026-04-30T08:01:18Z</time></trkpt><trkpt lat="44.22829293272061" lon="11.466835777091312"><ele>439.0</ele><time>2026-04-30T08:01:21Z</time></trkpt><trkpt lat="44.228340262127624" lon="11.466955937435042"><ele>439.0</ele><time>2026-04-30T08:01:23Z</time></trkpt><trkpt lat="44.22837134752204" lon="11.467073052351408"><ele>439.0</ele><time>2026-04-30T08:01:25Z</time></trkpt><trkpt lat="44.22839835129136" lon="11.467168268261075"><ele>439.0</ele><time>2026-04-30T08:01:26Z</time></trkpt><trkpt lat="44.22843680014664" lon="11.46730892427819"><ele>441.79999999999995</ele><time>2026-04-30T08:01:28Z</time></trkpt><trkpt lat="44.22847291237749" lon="11.467438976052657"><ele>444.59999999999997</ele><time>2026-04-30T08:01:30Z</time></trkpt><trkpt lat="44.22852199800365" lon="11.467524324481607"><ele>447.4</ele><time>2026-04-30T08:01:32Z</time></trkpt><trkpt lat="44.22858613627437" lon="11.467614800427775"><ele>450.2</ele><time>2026-04-30T08:01:34Z</time></trkpt><trkpt lat="44.228660191127524" lon="11.467746023042256"><ele>453.0</ele><time>2026-04-30T08:01:36Z</time></trkpt><trkpt lat="44.228697413582964" lon="11.467818422819565"><ele>453.0</ele><time>2026-04-30T08:01:37Z</time></trkpt><trkpt lat="44.22875888202975" lon="11.467939698470419"><ele>452.99999999999994</ele><time>2026-04-30T08:01:39Z</time></trkpt><trkpt lat="44.228815739649036" lon="11.468076338020268"><ele>452.99999999999994</ele><time>2026-04-30T08:01:41Z</time></trkpt><trkpt lat="44.22881946681391" lon="11.468210564795282"><ele>453.0</ele><time>2026-04-30T08:01:44Z</time></trkpt><trkpt lat="44.228818375812764" lon="11.468332276078119"><ele>453.0</ele><time>2026-04-30T08:01:46Z</time></trkpt><trkpt lat="44.228851112615565" lon="11.468412356645807"><ele>452.4</ele><time>2026-04-30T08:01:48Z</time></trkpt><trkpt lat="44.22889173077531" lon="11.468483300524623"><ele>451.79999999999995</ele><time>2026-04-30T08:01:49Z</time></trkpt><trkpt lat="44.22897877461808" lon="11.468621698030729"><ele>451.2</ele><time>2026-04-30T08:01:51Z</time></trkpt><trkpt lat="44.22901861404448" lon="11.468705171690559"><ele>450.6</ele><time>2026-04-30T08:01:52Z</time></trkpt><trkpt lat="44.229052797661474" lon="11.46879882957048"><ele>450.0</ele><time>2026-04-30T08:01:53Z</time></trkpt><trkpt lat="44.22910062792593" lon="11.46895031346004"><ele>451.6</ele><time>2026-04-30T08:01:55Z</time></trkpt><trkpt lat="44.2290861244529" lon="11.46903934609202"><ele>453.2</ele><time>2026-04-30T08:01:56Z</time></trkpt><trkpt lat="44.229117511165555" lon="11.469116040087169"><ele>454.79999999999995</ele><time>2026-04-30T08:01:58Z</time></trkpt><trkpt lat="44.2290185745188" lon="11.469214301011803"><ele>456.4</ele><time>2026-04-30T08:02:01Z</time></trkpt><trkpt lat="44.22889406612929" lon="11.469189867982386"><ele>458.0</ele><time>2026-04-30T08:02:03Z</time></trkpt><trkpt lat="44.22881408855863" lon="11.46913947912131"><ele>459.16666666666663</ele><time>2026-04-30T08:02:04Z</time></trkpt><trkpt lat="44.22873910294232" lon="11.46913058834511"><ele>460.3333333333333</ele><time>2026-04-30T08:02:05Z</time></trkpt><trkpt lat="44.22865693237082" lon="11.469141681816364"><ele>461.5</ele><time>2026-04-30T08:02:06Z</time></trkpt><trkpt lat="44.228559711568586" lon="11.469195516603579"><ele>462.66666666666663</ele><time>2026-04-30T08:02:07Z</time></trkpt><trkpt lat="44.22847195489722" lon="11.46925779954048"><ele>463.8333333333333</ele><time>2026-04-30T08:02:08Z</time></trkpt><trkpt lat="44.22839979143261" lon="11.469319947371078"><ele>465.0</ele><time>2026-04-30T08:02:09Z</time></trkpt><trkpt lat="44.22833677002911" lon="11.469330520360561"><ele>465.0</ele><time>2026-04-30T08:02:10Z</time></trkpt><trkpt lat="44.22821562078721" lon="11.469361394644167"><ele>465.0</ele><time>2026-04-30T08:02:12Z</time></trkpt><trkpt lat="44.22813822923415" lon="11.46937231362366"><ele>465.0</ele><time>2026-04-30T08:02:13Z</time></trkpt><trkpt lat="44.228058378703764" lon="11.469350205103973"><ele>465.0</ele><time>2026-04-30T08:02:14Z</time></trkpt><trkpt lat="44.22798166174796" lon="11.469376739518076"><ele>465.0</ele><time>2026-04-30T08:02:15Z</time></trkpt><trkpt lat="44.22786172286087" lon="11.469323930899733"><ele>465.0</ele><time>2026-04-30T08:02:17Z</time></trkpt><trkpt lat="44.22778359850623" lon="11.469286961799794"><ele>465.0</ele><time>2026-04-30T08:02:18Z</time></trkpt><trkpt lat="44.22768967671165" lon="11.469244056447613"><ele>465.0</ele><time>2026-04-30T08:02:19Z</time></trkpt><trkpt lat="44.22759770860369" lon="11.469172276612046"><ele>465.0</ele><time>2026-04-30T08:02:20Z</time></trkpt><trkpt lat="44.227499020307526" lon="11.469116326595245"><ele>465.0</ele><time>2026-04-30T08:02:21Z</time></trkpt><trkpt lat="44.227421585499314" lon="11.469068337718776"><ele>465.0</ele><time>2026-04-30T08:02:22Z</time></trkpt><trkpt lat="44.227349527681106" lon="11.469033685568546"><ele>465.0</ele><time>2026-04-30T08:02:23Z</time></trkpt><trkpt lat="44.22728996517275" lon="11.468984807747622"><ele>465.0</ele><time>2026-04-30T08:02:24Z</time></trkpt><trkpt lat="44.22718452777281" lon="11.468923909137853"><ele>465.0</ele><time>2026-04-30T08:02:26Z</time></trkpt><trkpt lat="44.227103464717594" lon="11.468827124583184"><ele>465.0</ele><time>2026-04-30T08:02:28Z</time></trkpt><trkpt lat="44.22699584578609" lon="11.468909122562437"><ele>464.5</ele><time>2026-04-30T08:02:29Z</time></trkpt><trkpt lat="44.226918118454435" lon="11.468917691690995"><ele>464.0</ele><time>2026-04-30T08:02:30Z</time></trkpt><trkpt lat="44.22683355200564" lon="11.468936212092366"><ele>463.5</ele><time>2026-04-30T08:02:31Z</time></trkpt><trkpt lat="44.22675022266061" lon="11.468946124856226"><ele>463.0</ele><time>2026-04-30T08:02:32Z</time></trkpt><trkpt lat="44.226690734708995" lon="11.468915949055294"><ele>462.5</ele><time>2026-04-30T08:02:33Z</time></trkpt><trkpt lat="44.226587352511046" lon="11.468821894400149"><ele>462.0</ele><time>2026-04-30T08:02:35Z</time></trkpt><trkpt lat="44.22651769489168" lon="11.468788017873813"><ele>462.8333333333333</ele><time>2026-04-30T08:02:36Z</time></trkpt><trkpt lat="44.226442205878" lon="11.468762370814511"><ele>463.66666666666663</ele><time>2026-04-30T08:02:37Z</time></trkpt><trkpt lat="44.22636725742933" lon="11.468744693347482"><ele>464.5</ele><time>2026-04-30T08:02:38Z</time></trkpt><trkpt lat="44.22628900779127" lon="11.468733513238272"><ele>465.3333333333333</ele><time>2026-04-30T08:02:39Z</time></trkpt><trkpt lat="44.226203084307144" lon="11.46874791829371"><ele>466.16666666666663</ele><time>2026-04-30T08:02:40Z</time></trkpt><trkpt lat="44.22612945740345" lon="11.468722179540258"><ele>467.0</ele><time>2026-04-30T08:02:41Z</time></trkpt><trkpt lat="44.22605123870425" lon="11.468727342141898"><ele>466.99999999999994</ele><time>2026-04-30T08:02:42Z</time></trkpt><trkpt lat="44.225977514198284" lon="11.468691201533792"><ele>467.0</ele><time>2026-04-30T08:02:43Z</time></trkpt><trkpt lat="44.225864717377576" lon="11.46862420089856"><ele>467.0</ele><time>2026-04-30T08:02:45Z</time></trkpt><trkpt lat="44.22580310234837" lon="11.46858584311703"><ele>467.0</ele><time>2026-04-30T08:02:46Z</time></trkpt><trkpt lat="44.22576993616393" lon="11.46848833613119"><ele>466.99999999999994</ele><time>2026-04-30T08:02:47Z</time></trkpt><trkpt lat="44.22572696003511" lon="11.468404774242902"><ele>467.0</ele><time>2026-04-30T08:02:48Z</time></trkpt><trkpt lat="44.225683660624576" lon="11.468318581179707"><ele>465.40000000000003</ele><time>2026-04-30T08:02:49Z</time></trkpt><trkpt lat="44.22562494362433" lon="11.468235555323139"><ele>463.80000000000007</ele><time>2026-04-30T08:02:50Z</time></trkpt><trkpt lat="44.225573189533534" lon="11.468145146103057"><ele>462.2</ele><time>2026-04-30T08:02:51Z</time></trkpt><trkpt lat="44.2255027484833" lon="11.4680819305018"><ele>460.6</ele><time>2026-04-30T08:02:52Z</time></trkpt><trkpt lat="44.2254116409573" lon="11.468061395615889"><ele>459.0</ele><time>2026-04-30T08:02:53Z</time></trkpt><trkpt lat="44.225292040187355" lon="11.468034190334082"><ele>459.0</ele><time>2026-04-30T08:02:54Z</time></trkpt><trkpt lat="44.22519578454596" lon="11.468012834864139"><ele>459.0</ele><time>2026-04-30T08:02:55Z</time></trkpt><trkpt lat="44.225126113397884" lon="11.467995653231043"><ele>459.0</ele><time>2026-04-30T08:02:56Z</time></trkpt><trkpt lat="44.225035871036255" lon="11.468017336790012"><ele>459.0</ele><time>2026-04-30T08:02:58Z</time></trkpt><trkpt lat="44.22497659568679" lon="11.468064657300657"><ele>459.0</ele><time>2026-04-30T08:02:59Z</time></trkpt><trkpt lat="44.22490605782784" lon="11.468134059016771"><ele>459.0</ele><time>2026-04-30T08:03:00Z</time></trkpt><trkpt lat="44.22484518256229" lon="11.468203377245583"><ele>459.3333333333333</ele><time>2026-04-30T08:03:01Z</time></trkpt><trkpt lat="44.22472498315752" lon="11.468245766098793"><ele>459.66666666666663</ele><time>2026-04-30T08:03:03Z</time></trkpt><trkpt lat="44.2246527919696" lon="11.468203509241741"><ele>460.0</ele><time>2026-04-30T08:03:04Z</time></trkpt><trkpt lat="44.224586196592384" lon="11.468168756403681"><ele>460.3333333333333</ele><time>2026-04-30T08:03:05Z</time></trkpt><trkpt lat="44.22451703647279" lon="11.468166039563119"><ele>460.66666666666663</ele><time>2026-04-30T08:03:06Z</time></trkpt><trkpt lat="44.224445280229865" lon="11.468176343135"><ele>461.0</ele><time>2026-04-30T08:03:07Z</time></trkpt><trkpt lat="44.22438025658442" lon="11.468212501908633"><ele>461.0</ele><time>2026-04-30T08:03:08Z</time></trkpt><trkpt lat="44.22434087659097" lon="11.468291223317259"><ele>461.00000000000006</ele><time>2026-04-30T08:03:09Z</time></trkpt><trkpt lat="44.224331018187094" lon="11.468381576145372"><ele>461.0</ele><time>2026-04-30T08:03:10Z</time></trkpt><trkpt lat="44.22433613021878" lon="11.468480210754809"><ele>461.0</ele><time>2026-04-30T08:03:11Z</time></trkpt><trkpt lat="44.2243246959289" lon="11.468597270441043"><ele>461.00000000000006</ele><time>2026-04-30T08:03:12Z</time></trkpt><trkpt lat="44.22428827177003" lon="11.46869424644506"><ele>461.0</ele><time>2026-04-30T08:03:13Z</time></trkpt><trkpt lat="44.22423920565995" lon="11.46877418049356"><ele>461.0</ele><time>2026-04-30T08:03:14Z</time></trkpt><trkpt lat="44.22420153199714" lon="11.468871263298377"><ele>461.16666666666663</ele><time>2026-04-30T08:03:15Z</time></trkpt><trkpt lat="44.22420114183057" lon="11.468993714218517"><ele>461.3333333333333</ele><time>2026-04-30T08:03:16Z</time></trkpt><trkpt lat="44.22422387599565" lon="11.469113640922858"><ele>461.5</ele><time>2026-04-30T08:03:17Z</time></trkpt><trkpt lat="44.22427586894184" lon="11.469227429154348"><ele>461.66666666666663</ele><time>2026-04-30T08:03:18Z</time></trkpt><trkpt lat="44.22432044664507" lon="11.46932243855771"><ele>461.8333333333333</ele><time>2026-04-30T08:03:19Z</time></trkpt><trkpt lat="44.22435443889745" lon="11.469396425291611"><ele>462.0</ele><time>2026-04-30T08:03:20Z</time></trkpt><trkpt lat="44.22439856568794" lon="11.469491768067616"><ele>462.1666666666667</ele><time>2026-04-30T08:03:23Z</time></trkpt><trkpt lat="44.224386951823604" lon="11.469645491419142"><ele>462.33333333333337</ele><time>2026-04-30T08:03:25Z</time></trkpt><trkpt lat="44.224401761722014" lon="11.469737887204309"><ele>462.5</ele><time>2026-04-30T08:03:26Z</time></trkpt><trkpt lat="44.224411512339465" lon="11.469841470269072"><ele>462.6666666666667</ele><time>2026-04-30T08:03:27Z</time></trkpt><trkpt lat="44.22441770168041" lon="11.469933110672702"><ele>462.83333333333337</ele><time>2026-04-30T08:03:28Z</time></trkpt><trkpt lat="44.22440886993756" lon="11.47009858821187"><ele>463.0</ele><time>2026-04-30T08:03:30Z</time></trkpt><trkpt lat="44.224384055419385" lon="11.470188051548707"><ele>463.00000000000006</ele><time>2026-04-30T08:03:31Z</time></trkpt><trkpt lat="44.22435014030217" lon="11.470272814391041"><ele>463.0</ele><time>2026-04-30T08:03:32Z</time></trkpt><trkpt lat="44.22427102554979" lon="11.47040667164048"><ele>463.0</ele><time>2026-04-30T08:03:34Z</time></trkpt><trkpt lat="44.22421223437629" lon="11.47045725225205"><ele>463.0</ele><time>2026-04-30T08:03:35Z</time></trkpt><trkpt lat="44.22412859738944" lon="11.47047270096589"><ele>463.00000000000006</ele><time>2026-04-30T08:03:36Z</time></trkpt><trkpt lat="44.22405575329969" lon="11.47054793675041"><ele>463.0</ele><time>2026-04-30T08:03:37Z</time></trkpt><trkpt lat="44.22397126187738" lon="11.470614688982694"><ele>464.4</ele><time>2026-04-30T08:03:38Z</time></trkpt><trkpt lat="44.223920307372275" lon="11.470725333457716"><ele>465.79999999999995</ele><time>2026-04-30T08:03:39Z</time></trkpt><trkpt lat="44.2238670738666" lon="11.47082104661064"><ele>467.2</ele><time>2026-04-30T08:03:40Z</time></trkpt><trkpt lat="44.22383396917563" lon="11.470911369453082"><ele>468.6</ele><time>2026-04-30T08:03:41Z</time></trkpt><trkpt lat="44.22380049333834" lon="11.471072090546395"><ele>470.0</ele><time>2026-04-30T08:03:43Z</time></trkpt><trkpt lat="44.22382584727163" lon="11.471182137206231"><ele>467.49999999999994</ele><time>2026-04-30T08:03:44Z</time></trkpt><trkpt lat="44.22388380572439" lon="11.47129215498174"><ele>465.0</ele><time>2026-04-30T08:03:45Z</time></trkpt><trkpt lat="44.22395354360095" lon="11.471359302510463"><ele>462.5</ele><time>2026-04-30T08:03:46Z</time></trkpt><trkpt lat="44.224010683248764" lon="11.47143537713466"><ele>460.0</ele><time>2026-04-30T08:03:47Z</time></trkpt><trkpt lat="44.224086158568674" lon="11.471498308166602"><ele>457.49999999999994</ele><time>2026-04-30T08:03:49Z</time></trkpt><trkpt lat="44.22414446226834" lon="11.47159449348936"><ele>455.0</ele><time>2026-04-30T08:03:51Z</time></trkpt><trkpt lat="44.224090082769784" lon="11.471723795456667"><ele>455.0</ele><time>2026-04-30T08:03:53Z</time></trkpt><trkpt lat="44.22401491136006" lon="11.47170959667483"><ele>455.0</ele><time>2026-04-30T08:03:54Z</time></trkpt><trkpt lat="44.223921902717116" lon="11.471687955520752"><ele>455.0</ele><time>2026-04-30T08:03:56Z</time></trkpt><trkpt lat="44.223793602650794" lon="11.471708827204305"><ele>455.0</ele><time>2026-04-30T08:03:58Z</time></trkpt><trkpt lat="44.223723707880644" lon="11.471721763028125"><ele>455.0</ele><time>2026-04-30T08:03:59Z</time></trkpt><trkpt lat="44.22364382248473" lon="11.471736962923607"><ele>454.4</ele><time>2026-04-30T08:04:00Z</time></trkpt><trkpt lat="44.2235629297477" lon="11.471746836473656"><ele>453.8</ele><time>2026-04-30T08:04:01Z</time></trkpt><trkpt lat="44.22348003097447" lon="11.471746209736477"><ele>453.20000000000005</ele><time>2026-04-30T08:04:02Z</time></trkpt><trkpt lat="44.22341450452211" lon="11.471719101566798"><ele>452.6</ele><time>2026-04-30T08:04:03Z</time></trkpt><trkpt lat="44.22332495474861" lon="11.471616635029593"><ele>452.0</ele><time>2026-04-30T08:04:05Z</time></trkpt><trkpt lat="44.223235750319134" lon="11.47148051275293"><ele>451.99999999999994</ele><time>2026-04-30T08:04:07Z</time></trkpt><trkpt lat="44.223176400859735" lon="11.471414306266098"><ele>452.0</ele><time>2026-04-30T08:04:08Z</time></trkpt><trkpt lat="44.2230927260459" lon="11.471405539482838"><ele>452.0</ele><time>2026-04-30T08:04:09Z</time></trkpt><trkpt lat="44.22301833928599" lon="11.471370778591806"><ele>452.0</ele><time>2026-04-30T08:04:10Z</time></trkpt><trkpt lat="44.22293360998104" lon="11.471398876415662"><ele>451.99999999999994</ele><time>2026-04-30T08:04:11Z</time></trkpt><trkpt lat="44.22285455933953" lon="11.471450401411508"><ele>452.0</ele><time>2026-04-30T08:04:12Z</time></trkpt><trkpt lat="44.22278327862036" lon="11.471491750544574"><ele>449.66666666666663</ele><time>2026-04-30T08:04:13Z</time></trkpt><trkpt lat="44.22270601844241" lon="11.471553519843475"><ele>447.3333333333333</ele><time>2026-04-30T08:04:14Z</time></trkpt><trkpt lat="44.22264355439298" lon="11.47151955611228"><ele>445.0</ele><time>2026-04-30T08:04:15Z</time></trkpt><trkpt lat="44.22251919287638" lon="11.47149074690956"><ele>442.66666666666663</ele><time>2026-04-30T08:04:17Z</time></trkpt><trkpt lat="44.22245909562959" lon="11.471527479130575"><ele>440.3333333333333</ele><time>2026-04-30T08:04:18Z</time></trkpt><trkpt lat="44.222405316237975" lon="11.471581066244502"><ele>438.0</ele><time>2026-04-30T08:04:19Z</time></trkpt><trkpt lat="44.222350963760725" lon="11.471648164847897"><ele>440.1666666666667</ele><time>2026-04-30T08:04:20Z</time></trkpt><trkpt lat="44.2222363608744" lon="11.471699444398228"><ele>442.33333333333337</ele><time>2026-04-30T08:04:22Z</time></trkpt><trkpt lat="44.222165747974074" lon="11.471660901787393"><ele>444.5</ele><time>2026-04-30T08:04:23Z</time></trkpt><trkpt lat="44.22210239864426" lon="11.471605570563357"><ele>446.6666666666667</ele><time>2026-04-30T08:04:24Z</time></trkpt><trkpt lat="44.222034227829305" lon="11.471594777890676"><ele>448.83333333333337</ele><time>2026-04-30T08:04:25Z</time></trkpt><trkpt lat="44.22197250868132" lon="11.471630486002526"><ele>451.0</ele><time>2026-04-30T08:04:26Z</time></trkpt><trkpt lat="44.22189951032311" lon="11.471743179261118"><ele>451.0</ele><time>2026-04-30T08:04:27Z</time></trkpt><trkpt lat="44.22183391314214" lon="11.47186154850163"><ele>451.0</ele><time>2026-04-30T08:04:28Z</time></trkpt><trkpt lat="44.2217667975198" lon="11.471946366879795"><ele>451.0</ele><time>2026-04-30T08:04:29Z</time></trkpt><trkpt lat="44.22171841356455" lon="11.472028373048094"><ele>451.0</ele><time>2026-04-30T08:04:30Z</time></trkpt><trkpt lat="44.221588829171324" lon="11.472008270689571"><ele>451.0</ele><time>2026-04-30T08:04:32Z</time></trkpt><trkpt lat="44.221463579310175" lon="11.472039263603873"><ele>453.0</ele><time>2026-04-30T08:04:34Z</time></trkpt><trkpt lat="44.221410069449874" lon="11.472134198332357"><ele>455.0</ele><time>2026-04-30T08:04:35Z</time></trkpt><trkpt lat="44.22134895721092" lon="11.472219658910847"><ele>457.0</ele><time>2026-04-30T08:04:36Z</time></trkpt><trkpt lat="44.221284476400385" lon="11.472309468997256"><ele>459.0</ele><time>2026-04-30T08:04:37Z</time></trkpt><trkpt lat="44.22122985863307" lon="11.472413516412173"><ele>461.0</ele><time>2026-04-30T08:04:38Z</time></trkpt><trkpt lat="44.22117794421726" lon="11.47252624011792"><ele>461.0</ele><time>2026-04-30T08:04:39Z</time></trkpt><trkpt lat="44.22113359670215" lon="11.472633488743957"><ele>461.0</ele><time>2026-04-30T08:04:40Z</time></trkpt><trkpt lat="44.22110086304404" lon="11.472750927126166"><ele>461.0</ele><time>2026-04-30T08:04:41Z</time></trkpt><trkpt lat="44.2210757914416" lon="11.472869098191829"><ele>461.0</ele><time>2026-04-30T08:04:42Z</time></trkpt><trkpt lat="44.22105774860236" lon="11.47299391834742"><ele>461.0</ele><time>2026-04-30T08:04:43Z</time></trkpt><trkpt lat="44.221044471869014" lon="11.473125079107387"><ele>457.6</ele><time>2026-04-30T08:04:44Z</time></trkpt><trkpt lat="44.22103683199477" lon="11.473245140711132"><ele>454.20000000000005</ele><time>2026-04-30T08:04:45Z</time></trkpt><trkpt lat="44.22103410947966" lon="11.473356414519502"><ele>450.79999999999995</ele><time>2026-04-30T08:04:46Z</time></trkpt><trkpt lat="44.22100552775608" lon="11.473453887960488"><ele>447.4</ele><time>2026-04-30T08:04:47Z</time></trkpt><trkpt lat="44.22093495437361" lon="11.473569955850264"><ele>444.0</ele><time>2026-04-30T08:04:48Z</time></trkpt><trkpt lat="44.220842972793726" lon="11.473672296923487"><ele>440.1666666666667</ele><time>2026-04-30T08:04:49Z</time></trkpt><trkpt lat="44.220770944728145" lon="11.473772993863738"><ele>436.33333333333337</ele><time>2026-04-30T08:04:50Z</time></trkpt><trkpt lat="44.220692980185056" lon="11.473861347617378"><ele>432.5</ele><time>2026-04-30T08:04:51Z</time></trkpt><trkpt lat="44.220640399557034" lon="11.47394755952738"><ele>428.6666666666667</ele><time>2026-04-30T08:04:52Z</time></trkpt><trkpt lat="44.22059635042133" lon="11.474026293889134"><ele>424.83333333333337</ele><time>2026-04-30T08:04:53Z</time></trkpt><trkpt lat="44.220507183272204" lon="11.474038549607938"><ele>421.0</ele><time>2026-04-30T08:04:55Z</time></trkpt><trkpt lat="44.22044690526752" lon="11.474011514670797"><ele>419.6</ele><time>2026-04-30T08:04:56Z</time></trkpt><trkpt lat="44.22037104423692" lon="11.473959068193455"><ele>418.20000000000005</ele><time>2026-04-30T08:04:57Z</time></trkpt><trkpt lat="44.220285317286894" lon="11.47390949749884"><ele>416.79999999999995</ele><time>2026-04-30T08:04:58Z</time></trkpt><trkpt lat="44.220194106493985" lon="11.473866784412724"><ele>415.4</ele><time>2026-04-30T08:04:59Z</time></trkpt><trkpt lat="44.22009700207957" lon="11.473823400389758"><ele>414.0</ele><time>2026-04-30T08:05:00Z</time></trkpt><trkpt lat="44.220015675544985" lon="11.473790495680824"><ele>416.0</ele><time>2026-04-30T08:05:01Z</time></trkpt><trkpt lat="44.219946256727845" lon="11.47373000511149"><ele>418.0</ele><time>2026-04-30T08:05:02Z</time></trkpt><trkpt lat="44.21990298815638" lon="11.473625608801093"><ele>420.0</ele><time>2026-04-30T08:05:03Z</time></trkpt><trkpt lat="44.219839937246114" lon="11.473548517366728"><ele>422.0</ele><time>2026-04-30T08:05:04Z</time></trkpt><trkpt lat="44.219765960084366" lon="11.473480802554892"><ele>424.0</ele><time>2026-04-30T08:05:05Z</time></trkpt><trkpt lat="44.219705744723505" lon="11.473411350799807"><ele>426.0</ele><time>2026-04-30T08:05:06Z</time></trkpt><trkpt lat="44.21963149202899" lon="11.473359404748205"><ele>426.0</ele><time>2026-04-30T08:05:07Z</time></trkpt><trkpt lat="44.219546893308916" lon="11.473322986977367"><ele>426.0</ele><time>2026-04-30T08:05:08Z</time></trkpt><trkpt lat="44.21946390166803" lon="11.473304595227665"><ele>426.0</ele><time>2026-04-30T08:05:09Z</time></trkpt><trkpt lat="44.219386134596704" lon="11.473310264275788"><ele>426.0</ele><time>2026-04-30T08:05:10Z</time></trkpt><trkpt lat="44.21931687696061" lon="11.473330880246438"><ele>426.0</ele><time>2026-04-30T08:05:11Z</time></trkpt><trkpt lat="44.2192496905297" lon="11.473331946121055"><ele>426.0</ele><time>2026-04-30T08:05:12Z</time></trkpt><trkpt lat="44.21918638680874" lon="11.473343750931733"><ele>426.0</ele><time>2026-04-30T08:05:13Z</time></trkpt><trkpt lat="44.2190916735935" lon="11.4732673435179"><ele>426.0</ele><time>2026-04-30T08:05:15Z</time></trkpt><trkpt lat="44.21903752490773" lon="11.473202175945769"><ele>426.0</ele><time>2026-04-30T08:05:16Z</time></trkpt><trkpt lat="44.21896696173955" lon="11.47311819987815"><ele>426.0</ele><time>2026-04-30T08:05:17Z</time></trkpt><trkpt lat="44.2188638898541" lon="11.473071761764832"><ele>426.0</ele><time>2026-04-30T08:05:18Z</time></trkpt><trkpt lat="44.21875480845134" lon="11.473027634737242"><ele>423.1666666666667</ele><time>2026-04-30T08:05:19Z</time></trkpt><trkpt lat="44.218671763152315" lon="11.472988022424317"><ele>420.33333333333337</ele><time>2026-04-30T08:05:20Z</time></trkpt><trkpt lat="44.218597441541085" lon="11.472949540842619"><ele>417.5</ele><time>2026-04-30T08:05:21Z</time></trkpt><trkpt lat="44.218476927821065" lon="11.473020236624"><ele>414.6666666666667</ele><time>2026-04-30T08:05:23Z</time></trkpt><trkpt lat="44.218433521392654" lon="11.473091262526578"><ele>411.83333333333337</ele><time>2026-04-30T08:05:24Z</time></trkpt><trkpt lat="44.21838058513763" lon="11.473143989876336"><ele>409.0</ele><time>2026-04-30T08:05:25Z</time></trkpt><trkpt lat="44.218309153212054" lon="11.473120454580163"><ele>409.0</ele><time>2026-04-30T08:05:26Z</time></trkpt><trkpt lat="44.218201331311995" lon="11.473055892863323"><ele>409.0</ele><time>2026-04-30T08:05:28Z</time></trkpt><trkpt lat="44.21813108788013" lon="11.473030892870089"><ele>409.0</ele><time>2026-04-30T08:05:29Z</time></trkpt><trkpt lat="44.21806367838446" lon="11.472999344492749"><ele>409.0</ele><time>2026-04-30T08:05:30Z</time></trkpt><trkpt lat="44.21797037065724" lon="11.472915665258476"><ele>409.0</ele><time>2026-04-30T08:05:32Z</time></trkpt><trkpt lat="44.21795403234953" lon="11.47280934265114"><ele>406.83333333333337</ele><time>2026-04-30T08:05:33Z</time></trkpt><trkpt lat="44.2179420747933" lon="11.472688015902676"><ele>404.6666666666667</ele><time>2026-04-30T08:05:34Z</time></trkpt><trkpt lat="44.21791878902391" lon="11.472567184308547"><ele>402.5</ele><time>2026-04-30T08:05:35Z</time></trkpt><trkpt lat="44.21787517328004" lon="11.472465373439793"><ele>400.33333333333337</ele><time>2026-04-30T08:05:36Z</time></trkpt><trkpt lat="44.217811933531586" lon="11.472383203349036"><ele>398.1666666666667</ele><time>2026-04-30T08:05:37Z</time></trkpt><trkpt lat="44.21776324668373" lon="11.472292218596554"><ele>396.0</ele><time>2026-04-30T08:05:38Z</time></trkpt><trkpt lat="44.217746569379" lon="11.472204363206297"><ele>398.0</ele><time>2026-04-30T08:05:39Z</time></trkpt><trkpt lat="44.21774036967908" lon="11.472063165645192"><ele>400.0</ele><time>2026-04-30T08:05:41Z</time></trkpt><trkpt lat="44.217737322911105" lon="11.471886448147009"><ele>402.0</ele><time>2026-04-30T08:05:43Z</time></trkpt><trkpt lat="44.2177446336715" lon="11.471783183837266"><ele>404.0</ele><time>2026-04-30T08:05:44Z</time></trkpt><trkpt lat="44.21775981952724" lon="11.471670925104169"><ele>406.0</ele><time>2026-04-30T08:05:45Z</time></trkpt><trkpt lat="44.21775266221231" lon="11.471559938783916"><ele>406.00000000000006</ele><time>2026-04-30T08:05:46Z</time></trkpt><trkpt lat="44.21774066126293" lon="11.471439213101807"><ele>406.0</ele><time>2026-04-30T08:05:47Z</time></trkpt><trkpt lat="44.21773397779358" lon="11.47132494983518"><ele>406.0</ele><time>2026-04-30T08:05:48Z</time></trkpt><trkpt lat="44.21772587360934" lon="11.471217254195764"><ele>406.0</ele><time>2026-04-30T08:05:49Z</time></trkpt><trkpt lat="44.21770527501762" lon="11.47111824851093"><ele>406.00000000000006</ele><time>2026-04-30T08:05:50Z</time></trkpt><trkpt lat="44.21766759386604" lon="11.471028307444255"><ele>406.0</ele><time>2026-04-30T08:05:51Z</time></trkpt><trkpt lat="44.217612182289834" lon="11.470959282977962"><ele>408.0</ele><time>2026-04-30T08:05:52Z</time></trkpt><trkpt lat="44.21753884273481" lon="11.470917304625742"><ele>410.0</ele><time>2026-04-30T08:05:53Z</time></trkpt><trkpt lat="44.2174318001846" lon="11.470907087501972"><ele>412.0</ele><time>2026-04-30T08:05:54Z</time></trkpt><trkpt lat="44.21730875508645" lon="11.470903327253374"><ele>414.0</ele><time>2026-04-30T08:05:55Z</time></trkpt><trkpt lat="44.21720807008699" lon="11.47088007696803"><ele>416.0</ele><time>2026-04-30T08:05:56Z</time></trkpt><trkpt lat="44.21713967965427" lon="11.470884533560563"><ele>418.0</ele><time>2026-04-30T08:05:57Z</time></trkpt><trkpt lat="44.217093688187" lon="11.470944851316823"><ele>420.0</ele><time>2026-04-30T08:05:58Z</time></trkpt><trkpt lat="44.21704336636273" lon="11.471095918471299"><ele>422.0</ele><time>2026-04-30T08:05:59Z</time></trkpt><trkpt lat="44.2169869241285" lon="11.471256416891075"><ele>424.0</ele><time>2026-04-30T08:06:00Z</time></trkpt><trkpt lat="44.21695703205579" lon="11.471358555509072"><ele>426.0</ele><time>2026-04-30T08:06:01Z</time></trkpt><trkpt lat="44.21691877044244" lon="11.471435726486717"><ele>420.4</ele><time>2026-04-30T08:06:02Z</time></trkpt><trkpt lat="44.21687923293439" lon="11.471505205409143"><ele>414.8</ele><time>2026-04-30T08:06:03Z</time></trkpt><trkpt lat="44.21677737967448" lon="11.471543978013242"><ele>409.2</ele><time>2026-04-30T08:06:05Z</time></trkpt><trkpt lat="44.21665975692294" lon="11.471506282800041"><ele>403.59999999999997</ele><time>2026-04-30T08:06:07Z</time></trkpt><trkpt lat="44.21660184026518" lon="11.471437148300453"><ele>398.0</ele><time>2026-04-30T08:06:08Z</time></trkpt><trkpt lat="44.21653724680877" lon="11.471344493619165"><ele>400.59999999999997</ele><time>2026-04-30T08:06:09Z</time></trkpt><trkpt lat="44.21645848219403" lon="11.471255730351917"><ele>403.2</ele><time>2026-04-30T08:06:10Z</time></trkpt><trkpt lat="44.216365108530326" lon="11.471181663778193"><ele>405.8</ele><time>2026-04-30T08:06:11Z</time></trkpt><trkpt lat="44.216264967073" lon="11.471131506168161"><ele>408.4</ele><time>2026-04-30T08:06:12Z</time></trkpt><trkpt lat="44.21615565164377" lon="11.47109957424986"><ele>411.0</ele><time>2026-04-30T08:06:13Z</time></trkpt><trkpt lat="44.21606814211595" lon="11.471071854024855"><ele>411.0</ele><time>2026-04-30T08:06:14Z</time></trkpt><trkpt lat="44.21601430647514" lon="11.471016447007452"><ele>411.0</ele><time>2026-04-30T08:06:15Z</time></trkpt><trkpt lat="44.215982656374564" lon="11.470861958448367"><ele>411.0</ele><time>2026-04-30T08:06:17Z</time></trkpt><trkpt lat="44.215959217792566" lon="11.470776866637221"><ele>411.0</ele><time>2026-04-30T08:06:18Z</time></trkpt><trkpt lat="44.215931294516544" lon="11.470690688898895"><ele>411.0</ele><time>2026-04-30T08:06:19Z</time></trkpt><trkpt lat="44.215857087073495" lon="11.470569045628876"><ele>411.0</ele><time>2026-04-30T08:06:21Z</time></trkpt><trkpt lat="44.21573887668153" lon="11.470602386797426"><ele>411.0</ele><time>2026-04-30T08:06:23Z</time></trkpt><trkpt lat="44.21567883581041" lon="11.470647438414415"><ele>411.0</ele><time>2026-04-30T08:06:24Z</time></trkpt><trkpt lat="44.21562525477015" lon="11.470732129258526"><ele>411.0</ele><time>2026-04-30T08:06:25Z</time></trkpt><trkpt lat="44.21555984636534" lon="11.470882510705378"><ele>411.0</ele><time>2026-04-30T08:06:27Z</time></trkpt><trkpt lat="44.21547625109037" lon="11.471007158458288"><ele>411.0</ele><time>2026-04-30T08:06:29Z</time></trkpt><trkpt lat="44.21541129546274" lon="11.471017505863568"><ele>410.6666666666667</ele><time>2026-04-30T08:06:30Z</time></trkpt><trkpt lat="44.21534797407762" lon="11.471003326146857"><ele>410.33333333333337</ele><time>2026-04-30T08:06:31Z</time></trkpt><trkpt lat="44.215281294978304" lon="11.470982738173467"><ele>410.0</ele><time>2026-04-30T08:06:32Z</time></trkpt><trkpt lat="44.2151994465177" lon="11.470934112556577"><ele>409.6666666666667</ele><time>2026-04-30T08:06:34Z</time></trkpt><trkpt lat="44.215124121170106" lon="11.47093831592961"><ele>409.33333333333337</ele><time>2026-04-30T08:07:40Z</time></trkpt><trkpt lat="44.21514062464329" lon="11.471030443259776"><ele>409.0</ele><time>2026-04-30T08:07:44Z</time></trkpt><trkpt lat="44.21525505535227" lon="11.47108971475855"><ele>409.0</ele><time>2026-04-30T08:07:46Z</time></trkpt><trkpt lat="44.21531301137705" lon="11.471125270773708"><ele>409.0</ele><time>2026-04-30T08:07:47Z</time></trkpt><trkpt lat="44.21541044950035" lon="11.471022696716743"><ele>409.0</ele><time>2026-04-30T08:07:49Z</time></trkpt><trkpt lat="44.21547377652738" lon="11.471017438089117"><ele>409.0</ele><time>2026-04-30T08:07:51Z</time></trkpt><trkpt lat="44.21554361599961" lon="11.47101468377346"><ele>409.0</ele><time>2026-04-30T08:07:54Z</time></trkpt><trkpt lat="44.2155576004914" lon="11.471241270426786"><ele>408.0</ele><time>2026-04-30T08:07:55Z</time></trkpt><trkpt lat="44.21562270348623" lon="11.47130256036444"><ele>407.0</ele><time>2026-04-30T08:07:59Z</time></trkpt><trkpt lat="44.21568969295754" lon="11.471293891457893"><ele>406.0</ele><time>2026-04-30T08:08:03Z</time></trkpt><trkpt lat="44.215752515916186" lon="11.471485211850844"><ele>405.0</ele><time>2026-04-30T08:08:12Z</time></trkpt><trkpt lat="44.21568702490456" lon="11.471527319478398"><ele>404.0</ele><time>2026-04-30T08:08:16Z</time></trkpt><trkpt lat="44.215769868349035" lon="11.471528155963272"><ele>404.0</ele><time>2026-04-30T08:10:05Z</time></trkpt><trkpt lat="44.21569109171224" lon="11.471282977419136"><ele>404.0</ele><time>2026-04-30T08:10:14Z</time></trkpt><trkpt lat="44.2156225768196" lon="11.471283910060908"><ele>404.0</ele><time>2026-04-30T08:10:16Z</time></trkpt><trkpt lat="44.21555635535696" lon="11.471260696841481"><ele>404.0</ele><time>2026-04-30T08:10:17Z</time></trkpt><trkpt lat="44.21540627929572" lon="11.471188915526016"><ele>405.25</ele><time>2026-04-30T08:10:19Z</time></trkpt><trkpt lat="44.21534381990886" lon="11.47097328668043"><ele>406.5</ele><time>2026-04-30T08:10:20Z</time></trkpt><trkpt lat="44.215251072021424" lon="11.471128968444633"><ele>407.75</ele><time>2026-04-30T08:10:21Z</time></trkpt><trkpt lat="44.21518398424695" lon="11.471074000107164"><ele>409.0</ele><time>2026-04-30T08:10:22Z</time></trkpt><trkpt lat="44.21512274385158" lon="11.470989459425017"><ele>409.0</ele><time>2026-04-30T08:10:23Z</time></trkpt><trkpt lat="44.215098064246256" lon="11.470899416913108"><ele>409.0</ele><time>2026-04-30T08:10:25Z</time></trkpt><trkpt lat="44.21519600837249" lon="11.470924142118013"><ele>409.0</ele><time>2026-04-30T08:12:50Z</time></trkpt><trkpt lat="44.21530360121348" lon="11.47098542692597"><ele>409.0</ele><time>2026-04-30T08:12:51Z</time></trkpt><trkpt lat="44.21540998407687" lon="11.47103178881441"><ele>409.0</ele><time>2026-04-30T08:12:52Z</time></trkpt><trkpt lat="44.21549911150783" lon="11.471018948385112"><ele>409.0</ele><time>2026-04-30T08:12:53Z</time></trkpt><trkpt lat="44.21554727170483" lon="11.470947374615617"><ele>409.0</ele><time>2026-04-30T08:12:54Z</time></trkpt><trkpt lat="44.21559926568407" lon="11.47084087892909"><ele>409.0</ele><time>2026-04-30T08:12:55Z</time></trkpt><trkpt lat="44.2156974757641" lon="11.470723843714978"><ele>409.0</ele><time>2026-04-30T08:12:56Z</time></trkpt><trkpt lat="44.21577930162098" lon="11.470642041870615"><ele>409.0</ele><time>2026-04-30T08:12:57Z</time></trkpt><trkpt lat="44.21587000390453" lon="11.470625238497474"><ele>409.5</ele><time>2026-04-30T08:12:59Z</time></trkpt><trkpt lat="44.21596739317047" lon="11.470725876777712"><ele>410.0</ele><time>2026-04-30T08:13:01Z</time></trkpt><trkpt lat="44.216006111296544" lon="11.470919348258532"><ele>410.5</ele><time>2026-04-30T08:13:02Z</time></trkpt><trkpt lat="44.21606605101242" lon="11.47104167541991"><ele>411.0</ele><time>2026-04-30T08:13:03Z</time></trkpt><trkpt lat="44.216131762782304" lon="11.471111895213179"><ele>411.0</ele><time>2026-04-30T08:13:04Z</time></trkpt><trkpt lat="44.216225169986444" lon="11.471135963335847"><ele>411.0</ele><time>2026-04-30T08:13:05Z</time></trkpt><trkpt lat="44.216357511804674" lon="11.471196694494273"><ele>411.0</ele><time>2026-04-30T08:13:06Z</time></trkpt><trkpt lat="44.21645691857611" lon="11.471280795056684"><ele>411.0</ele><time>2026-04-30T08:13:07Z</time></trkpt><trkpt lat="44.216557469103165" lon="11.471350678328552"><ele>408.4</ele><time>2026-04-30T08:13:08Z</time></trkpt><trkpt lat="44.21664907931665" lon="11.471456884473751"><ele>405.8</ele><time>2026-04-30T08:13:09Z</time></trkpt><trkpt lat="44.21670161195216" lon="11.471530449261133"><ele>403.2</ele><time>2026-04-30T08:13:10Z</time></trkpt><trkpt lat="44.21677684108754" lon="11.47157225266379"><ele>400.59999999999997</ele><time>2026-04-30T08:13:12Z</time></trkpt><trkpt lat="44.21688786679475" lon="11.471486579071744"><ele>398.0</ele><time>2026-04-30T08:13:14Z</time></trkpt><trkpt lat="44.21693427719509" lon="11.471406124997388"><ele>397.99999999999994</ele><time>2026-04-30T08:13:15Z</time></trkpt><trkpt lat="44.21696723029575" lon="11.471311454381164"><ele>398.0</ele><time>2026-04-30T08:13:16Z</time></trkpt><trkpt lat="44.217013109754404" lon="11.471235648004575"><ele>398.0</ele><time>2026-04-30T08:13:17Z</time></trkpt><trkpt lat="44.21706051455671" lon="11.471098521547589"><ele>398.0</ele><time>2026-04-30T08:13:19Z</time></trkpt><trkpt lat="44.21709811513308" lon="11.471002137822676"><ele>397.99999999999994</ele><time>2026-04-30T08:13:21Z</time></trkpt><trkpt lat="44.21715075653425" lon="11.47089757860118"><ele>398.0</ele><time>2026-04-30T08:13:23Z</time></trkpt><trkpt lat="44.2172379460524" lon="11.470934089719549"><ele>401.59999999999997</ele><time>2026-04-30T08:13:25Z</time></trkpt><trkpt lat="44.21732581676707" lon="11.470951596059168"><ele>405.2</ele><time>2026-04-30T08:13:26Z</time></trkpt><trkpt lat="44.21744675443014" lon="11.470962202744063"><ele>408.8</ele><time>2026-04-30T08:13:27Z</time></trkpt><trkpt lat="44.217547095096194" lon="11.470985993669863"><ele>412.4</ele><time>2026-04-30T08:13:28Z</time></trkpt><trkpt lat="44.21763208714071" lon="11.471023211827802"><ele>416.0</ele><time>2026-04-30T08:13:29Z</time></trkpt><trkpt lat="44.21768456255694" lon="11.471087709928744"><ele>416.0</ele><time>2026-04-30T08:13:30Z</time></trkpt><trkpt lat="44.21771068404301" lon="11.471205754840863"><ele>416.0</ele><time>2026-04-30T08:13:31Z</time></trkpt><trkpt lat="44.21773817069484" lon="11.471375546552428"><ele>416.0</ele><time>2026-04-30T08:13:32Z</time></trkpt><trkpt lat="44.21773738020899" lon="11.471578837750352"><ele>416.0</ele><time>2026-04-30T08:13:33Z</time></trkpt><trkpt lat="44.217733881833304" lon="11.471796938433117"><ele>414.0</ele><time>2026-04-30T08:13:34Z</time></trkpt><trkpt lat="44.21774604880351" lon="11.471952007122296"><ele>412.0</ele><time>2026-04-30T08:13:35Z</time></trkpt><trkpt lat="44.21774418132794" lon="11.472075698356358"><ele>410.0</ele><time>2026-04-30T08:13:36Z</time></trkpt><trkpt lat="44.21773897267036" lon="11.472188492399214"><ele>408.0</ele><time>2026-04-30T08:13:37Z</time></trkpt><trkpt lat="44.217748761973546" lon="11.472310082061355"><ele>406.0</ele><time>2026-04-30T08:13:38Z</time></trkpt><trkpt lat="44.21778288089833" lon="11.47241716908193"><ele>404.33333333333337</ele><time>2026-04-30T08:13:39Z</time></trkpt><trkpt lat="44.21783706667689" lon="11.472499364590394"><ele>402.6666666666667</ele><time>2026-04-30T08:13:40Z</time></trkpt><trkpt lat="44.21790100925951" lon="11.47258824323626"><ele>401.0</ele><time>2026-04-30T08:13:41Z</time></trkpt><trkpt lat="44.21795732159975" lon="11.472700188589272"><ele>399.33333333333337</ele><time>2026-04-30T08:13:42Z</time></trkpt><trkpt lat="44.21797844291357" lon="11.47281666845901"><ele>397.6666666666667</ele><time>2026-04-30T08:13:43Z</time></trkpt><trkpt lat="44.217988240323095" lon="11.472948320683948"><ele>396.0</ele><time>2026-04-30T08:13:44Z</time></trkpt><trkpt lat="44.21802287938237" lon="11.47305021360371"><ele>398.1666666666667</ele><time>2026-04-30T08:13:45Z</time></trkpt><trkpt lat="44.218142782111215" lon="11.473098884297702"><ele>400.33333333333337</ele><time>2026-04-30T08:13:47Z</time></trkpt><trkpt lat="44.21822302998401" lon="11.473118763438572"><ele>402.5</ele><time>2026-04-30T08:13:48Z</time></trkpt><trkpt lat="44.21829360530141" lon="11.473127178501324"><ele>404.6666666666667</ele><time>2026-04-30T08:13:49Z</time></trkpt><trkpt lat="44.2183703208706" lon="11.473136226500388"><ele>406.83333333333337</ele><time>2026-04-30T08:13:50Z</time></trkpt><trkpt lat="44.218440560564986" lon="11.473124652434509"><ele>409.0</ele><time>2026-04-30T08:13:51Z</time></trkpt><trkpt lat="44.21853431890896" lon="11.472987803695238"><ele>409.0</ele><time>2026-04-30T08:13:53Z</time></trkpt><trkpt lat="44.21862233814507" lon="11.472940177164926"><ele>409.0</ele><time>2026-04-30T08:13:55Z</time></trkpt><trkpt lat="44.21868161759808" lon="11.472977987782208"><ele>409.0</ele><time>2026-04-30T08:13:56Z</time></trkpt><trkpt lat="44.218749767854426" lon="11.473057541784438"><ele>409.0</ele><time>2026-04-30T08:13:57Z</time></trkpt><trkpt lat="44.21886720791696" lon="11.473085930125075"><ele>409.0</ele><time>2026-04-30T08:13:58Z</time></trkpt><trkpt lat="44.21897447225229" lon="11.473148767344236"><ele>411.83333333333337</ele><time>2026-04-30T08:13:59Z</time></trkpt><trkpt lat="44.21904035031098" lon="11.473238351167337"><ele>414.6666666666667</ele><time>2026-04-30T08:14:00Z</time></trkpt><trkpt lat="44.21909566409682" lon="11.473325497281332"><ele>417.5</ele><time>2026-04-30T08:14:01Z</time></trkpt><trkpt lat="44.21913687995324" lon="11.473397227994012"><ele>420.33333333333337</ele><time>2026-04-30T08:14:02Z</time></trkpt><trkpt lat="44.21920037808527" lon="11.473403277518237"><ele>423.1666666666667</ele><time>2026-04-30T08:14:03Z</time></trkpt><trkpt lat="44.21928564120641" lon="11.473366971717526"><ele>426.0</ele><time>2026-04-30T08:14:04Z</time></trkpt><trkpt lat="44.21937698029545" lon="11.473350584555435"><ele>426.0</ele><time>2026-04-30T08:14:05Z</time></trkpt><trkpt lat="44.2194747360019" lon="11.47334377070434"><ele>426.0</ele><time>2026-04-30T08:14:06Z</time></trkpt><trkpt lat="44.219578134281136" lon="11.473337801739152"><ele>426.0</ele><time>2026-04-30T08:14:07Z</time></trkpt><trkpt lat="44.219675322848566" lon="11.47340530480756"><ele>426.0</ele><time>2026-04-30T08:14:08Z</time></trkpt><trkpt lat="44.21976246044623" lon="11.473501432635052"><ele>426.0</ele><time>2026-04-30T08:14:09Z</time></trkpt><trkpt lat="44.219832375666755" lon="11.473600022125341"><ele>423.6</ele><time>2026-04-30T08:14:10Z</time></trkpt><trkpt lat="44.21991087189641" lon="11.47371602941374"><ele>421.20000000000005</ele><time>2026-04-30T08:14:11Z</time></trkpt><trkpt lat="44.22000036633517" lon="11.47378564508684"><ele>418.79999999999995</ele><time>2026-04-30T08:14:12Z</time></trkpt><trkpt lat="44.22007379234753" lon="11.473849850867275"><ele>416.4</ele><time>2026-04-30T08:14:13Z</time></trkpt><trkpt lat="44.22016990404065" lon="11.473878023593649"><ele>414.0</ele><time>2026-04-30T08:14:14Z</time></trkpt><trkpt lat="44.220282595132645" lon="11.473922465709121"><ele>414.0</ele><time>2026-04-30T08:14:15Z</time></trkpt><trkpt lat="44.220377573510454" lon="11.473981907552945"><ele>414.0</ele><time>2026-04-30T08:14:16Z</time></trkpt><trkpt lat="44.220444235332266" lon="11.474035173058008"><ele>414.0</ele><time>2026-04-30T08:14:17Z</time></trkpt><trkpt lat="44.22050623076884" lon="11.474059911371056"><ele>414.0</ele><time>2026-04-30T08:14:18Z</time></trkpt><trkpt lat="44.220587626938865" lon="11.474016290487302"><ele>414.0</ele><time>2026-04-30T08:14:20Z</time></trkpt><trkpt lat="44.220639119772166" lon="11.47395605449385"><ele>414.0</ele><time>2026-04-30T08:14:21Z</time></trkpt><trkpt lat="44.22069442039592" lon="11.47385892801584"><ele>421.5</ele><time>2026-04-30T08:14:22Z</time></trkpt><trkpt lat="44.22077639931569" lon="11.473764270320647"><ele>429.0</ele><time>2026-04-30T08:14:23Z</time></trkpt><trkpt lat="44.22086426394004" lon="11.473666824047747"><ele>436.5</ele><time>2026-04-30T08:14:24Z</time></trkpt><trkpt lat="44.22096657240696" lon="11.473532504636168"><ele>444.0</ele><time>2026-04-30T08:14:25Z</time></trkpt><trkpt lat="44.22103516911107" lon="11.473395292082762"><ele>444.0</ele><time>2026-04-30T08:14:26Z</time></trkpt><trkpt lat="44.221060694190285" lon="11.473268593573868"><ele>444.0</ele><time>2026-04-30T08:14:27Z</time></trkpt><trkpt lat="44.22106134264039" lon="11.473151745658155"><ele>444.0</ele><time>2026-04-30T08:14:28Z</time></trkpt><trkpt lat="44.221054072429034" lon="11.47301311019601"><ele>444.0</ele><time>2026-04-30T08:14:29Z</time></trkpt><trkpt lat="44.22107424405424" lon="11.472876598083447"><ele>444.0</ele><time>2026-04-30T08:14:30Z</time></trkpt><trkpt lat="44.221103316473574" lon="11.472752751583684"><ele>447.4</ele><time>2026-04-30T08:14:31Z</time></trkpt><trkpt lat="44.221138142482" lon="11.472642930549554"><ele>450.79999999999995</ele><time>2026-04-30T08:14:32Z</time></trkpt><trkpt lat="44.22118391458515" lon="11.47252001993495"><ele>454.20000000000005</ele><time>2026-04-30T08:14:33Z</time></trkpt><trkpt lat="44.221233706934754" lon="11.472414155008225"><ele>457.6</ele><time>2026-04-30T08:14:34Z</time></trkpt><trkpt lat="44.22129349997674" lon="11.47230583928116"><ele>461.0</ele><time>2026-04-30T08:14:35Z</time></trkpt><trkpt lat="44.22136566575943" lon="11.47218667557358"><ele>460.99999999999994</ele><time>2026-04-30T08:14:36Z</time></trkpt><trkpt lat="44.22142991016563" lon="11.47211286935092"><ele>461.0</ele><time>2026-04-30T08:14:37Z</time></trkpt><trkpt lat="44.22149961010698" lon="11.472073560391781"><ele>461.0</ele><time>2026-04-30T08:14:38Z</time></trkpt><trkpt lat="44.22158694205672" lon="11.472052259278435"><ele>461.0</ele><time>2026-04-30T08:14:39Z</time></trkpt><trkpt lat="44.22166621189614" lon="11.472019557324261"><ele>460.99999999999994</ele><time>2026-04-30T08:14:40Z</time></trkpt><trkpt lat="44.22175030874225" lon="11.47198528636327"><ele>461.0</ele><time>2026-04-30T08:14:41Z</time></trkpt><trkpt lat="44.22183758396853" lon="11.471866843838923"><ele>459.0</ele><time>2026-04-30T08:14:42Z</time></trkpt><trkpt lat="44.2219194018424" lon="11.471757642575342"><ele>457.0</ele><time>2026-04-30T08:14:43Z</time></trkpt><trkpt lat="44.2219945179634" lon="11.471666378465008"><ele>455.0</ele><time>2026-04-30T08:14:44Z</time></trkpt><trkpt lat="44.222063422261954" lon="11.471614863475263"><ele>453.0</ele><time>2026-04-30T08:14:45Z</time></trkpt><trkpt lat="44.22220350629031" lon="11.471638306962207"><ele>451.0</ele><time>2026-04-30T08:14:47Z</time></trkpt><trkpt lat="44.222279192029035" lon="11.471657614582151"><ele>448.83333333333337</ele><time>2026-04-30T08:14:48Z</time></trkpt><trkpt lat="44.222343618063306" lon="11.471625843619556"><ele>446.6666666666667</ele><time>2026-04-30T08:14:49Z</time></trkpt><trkpt lat="44.22241442633296" lon="11.471577436600398"><ele>444.5</ele><time>2026-04-30T08:14:50Z</time></trkpt><trkpt lat="44.222488558169744" lon="11.471518633264544"><ele>442.33333333333337</ele><time>2026-04-30T08:14:51Z</time></trkpt><trkpt lat="44.22255678150704" lon="11.471511214578776"><ele>440.1666666666667</ele><time>2026-04-30T08:14:52Z</time></trkpt><trkpt lat="44.2226582411954" lon="11.47150752089683"><ele>438.0</ele><time>2026-04-30T08:14:53Z</time></trkpt><trkpt lat="44.22275209370263" lon="11.471515280064192"><ele>438.0</ele><time>2026-04-30T08:14:54Z</time></trkpt><trkpt lat="44.22284794534637" lon="11.471509027387631"><ele>438.0</ele><time>2026-04-30T08:14:55Z</time></trkpt><trkpt lat="44.22294131545268" lon="11.471487523995185"><ele>438.0</ele><time>2026-04-30T08:14:56Z</time></trkpt><trkpt lat="44.22302508371169" lon="11.471475661091151"><ele>438.0</ele><time>2026-04-30T08:14:57Z</time></trkpt><trkpt lat="44.22310155211618" lon="11.471471949135744"><ele>438.0</ele><time>2026-04-30T08:14:58Z</time></trkpt><trkpt lat="44.223171524954275" lon="11.471494021365725"><ele>438.0</ele><time>2026-04-30T08:14:59Z</time></trkpt><trkpt lat="44.223257788197046" lon="11.471576952694766"><ele>440.79999999999995</ele><time>2026-04-30T08:15:00Z</time></trkpt><trkpt lat="44.22332049058499" lon="11.471667124010338"><ele>443.59999999999997</ele><time>2026-04-30T08:15:01Z</time></trkpt><trkpt lat="44.22336972993176" lon="11.47172888063737"><ele>446.40000000000003</ele><time>2026-04-30T08:15:02Z</time></trkpt><trkpt lat="44.223486300808325" lon="11.47180354315921"><ele>449.20000000000005</ele><time>2026-04-30T08:15:04Z</time></trkpt><trkpt lat="44.22357596152497" lon="11.471816000565838"><ele>452.0</ele><time>2026-04-30T08:15:05Z</time></trkpt><trkpt lat="44.22364878048334" lon="11.471782752981458"><ele>452.0</ele><time>2026-04-30T08:15:06Z</time></trkpt><trkpt lat="44.223715255564244" lon="11.471775520380742"><ele>452.00000000000006</ele><time>2026-04-30T08:15:07Z</time></trkpt><trkpt lat="44.22379629093518" lon="11.471746406489784"><ele>452.00000000000006</ele><time>2026-04-30T08:15:08Z</time></trkpt><trkpt lat="44.22389786351569" lon="11.47174720103046"><ele>452.0</ele><time>2026-04-30T08:15:09Z</time></trkpt><trkpt lat="44.22399766321756" lon="11.471738944398062"><ele>452.0</ele><time>2026-04-30T08:15:10Z</time></trkpt><trkpt lat="44.22410891901011" lon="11.47172184340907"><ele>452.0</ele><time>2026-04-30T08:15:12Z</time></trkpt><trkpt lat="44.22413191009718" lon="11.47159703421176"><ele>452.00000000000006</ele><time>2026-04-30T08:15:14Z</time></trkpt><trkpt lat="44.22405386664932" lon="11.471532533415917"><ele>452.00000000000006</ele><time>2026-04-30T08:15:16Z</time></trkpt><trkpt lat="44.22394951406386" lon="11.47159646173336"><ele>452.0</ele><time>2026-04-30T08:15:18Z</time></trkpt><trkpt lat="44.22386834262342" lon="11.471544488847952"><ele>452.0</ele><time>2026-04-30T08:15:20Z</time></trkpt><trkpt lat="44.22378339792157" lon="11.471424126403447"><ele>451.99999999999994</ele><time>2026-04-30T08:15:22Z</time></trkpt><trkpt lat="44.22372288510018" lon="11.471349197349111"><ele>452.0</ele><time>2026-04-30T08:15:23Z</time></trkpt><trkpt lat="44.22366630375838" lon="11.471290490982458"><ele>452.0</ele><time>2026-04-30T08:15:24Z</time></trkpt><trkpt lat="44.22360946652107" lon="11.471235580508523"><ele>452.0</ele><time>2026-04-30T08:15:26Z</time></trkpt><trkpt lat="44.22353223437302" lon="11.471138925357517"><ele>451.99999999999994</ele><time>2026-04-30T08:15:30Z</time></trkpt><trkpt lat="44.22347845438381" lon="11.471029900195752"><ele>452.0</ele><time>2026-04-30T08:15:32Z</time></trkpt><trkpt lat="44.223411140658946" lon="11.470952553695843"><ele>454.8333333333333</ele><time>2026-04-30T08:15:35Z</time></trkpt><trkpt lat="44.22333939223955" lon="11.470875345075692"><ele>457.66666666666663</ele><time>2026-04-30T08:15:37Z</time></trkpt><trkpt lat="44.2232680042895" lon="11.470789766560987"><ele>460.5</ele><time>2026-04-30T08:15:39Z</time></trkpt><trkpt lat="44.22320493397979" lon="11.470738278588582"><ele>463.33333333333337</ele><time>2026-04-30T08:15:41Z</time></trkpt><trkpt lat="44.22314009822807" lon="11.470710795117933"><ele>466.1666666666667</ele><time>2026-04-30T08:15:44Z</time></trkpt><trkpt lat="44.223058603437295" lon="11.47069035436226"><ele>469.0</ele><time>2026-04-30T08:15:46Z</time></trkpt><trkpt lat="44.2229608833724" lon="11.470678279518607"><ele>469.00000000000006</ele><time>2026-04-30T08:15:49Z</time></trkpt><trkpt lat="44.222884263844534" lon="11.47065147427136"><ele>469.0</ele><time>2026-04-30T08:15:52Z</time></trkpt><trkpt lat="44.22280582120762" lon="11.470609796606647"><ele>469.0</ele><time>2026-04-30T08:15:54Z</time></trkpt><trkpt lat="44.22273280558962" lon="11.470559316978816"><ele>469.0</ele><time>2026-04-30T08:15:56Z</time></trkpt><trkpt lat="44.22265788308443" lon="11.47049006794688"><ele>469.00000000000006</ele><time>2026-04-30T08:15:58Z</time></trkpt><trkpt lat="44.222586296517484" lon="11.470413211122793"><ele>469.0</ele><time>2026-04-30T08:16:00Z</time></trkpt><trkpt lat="44.2225397012397" lon="11.470339385306255"><ele>472.83333333333337</ele><time>2026-04-30T08:16:15Z</time></trkpt><trkpt lat="44.22247713445351" lon="11.470355130228887"><ele>476.6666666666667</ele><time>2026-04-30T08:16:19Z</time></trkpt><trkpt lat="44.22240907966564" lon="11.47031625856796"><ele>480.5</ele><time>2026-04-30T08:16:23Z</time></trkpt><trkpt lat="44.22236683351377" lon="11.470229839453806"><ele>484.33333333333337</ele><time>2026-04-30T08:16:25Z</time></trkpt><trkpt lat="44.22231438796971" lon="11.470134069168294"><ele>488.1666666666667</ele><time>2026-04-30T08:16:27Z</time></trkpt><trkpt lat="44.222249987164204" lon="11.470045877559091"><ele>492.0</ele><time>2026-04-30T08:16:30Z</time></trkpt><trkpt lat="44.222194661684924" lon="11.469979417983682"><ele>492.6666666666667</ele><time>2026-04-30T08:16:38Z</time></trkpt><trkpt lat="44.222131836430634" lon="11.469928685062033"><ele>493.33333333333337</ele><time>2026-04-30T08:16:42Z</time></trkpt><trkpt lat="44.222067433580925" lon="11.469875439705799"><ele>494.0</ele><time>2026-04-30T08:16:48Z</time></trkpt><trkpt lat="44.222009068931335" lon="11.469777983153705"><ele>494.6666666666667</ele><time>2026-04-30T08:16:51Z</time></trkpt><trkpt lat="44.221961195722756" lon="11.469690566512467"><ele>495.33333333333337</ele><time>2026-04-30T08:16:53Z</time></trkpt><trkpt lat="44.22191699659378" lon="11.46960810846271"><ele>496.0</ele><time>2026-04-30T08:16:55Z</time></trkpt><trkpt lat="44.22187432775102" lon="11.469506367724511"><ele>497.20000000000005</ele><time>2026-04-30T08:16:57Z</time></trkpt><trkpt lat="44.22182338380092" lon="11.469393689510715"><ele>498.40000000000003</ele><time>2026-04-30T08:16:59Z</time></trkpt><trkpt lat="44.22173814013231" lon="11.469249237904632"><ele>499.6</ele><time>2026-04-30T08:17:01Z</time></trkpt><trkpt lat="44.22170893221024" lon="11.4691327329238"><ele>500.8</ele><time>2026-04-30T08:17:02Z</time></trkpt><trkpt lat="44.221679700760205" lon="11.469032839554329"><ele>502.0</ele><time>2026-04-30T08:17:03Z</time></trkpt><trkpt lat="44.22166216294484" lon="11.46893899899561"><ele>502.0</ele><time>2026-04-30T08:17:04Z</time></trkpt><trkpt lat="44.22165962962792" lon="11.468819850143513"><ele>502.00000000000006</ele><time>2026-04-30T08:17:05Z</time></trkpt><trkpt lat="44.221681683972264" lon="11.468698165200577"><ele>502.00000000000006</ele><time>2026-04-30T08:17:06Z</time></trkpt><trkpt lat="44.22170230757896" lon="11.468528902504167"><ele>502.0</ele><time>2026-04-30T08:17:07Z</time></trkpt><trkpt lat="44.22171010854291" lon="11.468352647363767"><ele>502.0</ele><time>2026-04-30T08:17:08Z</time></trkpt><trkpt lat="44.221714400494854" lon="11.468175652221733"><ele>503.6</ele><time>2026-04-30T08:17:09Z</time></trkpt><trkpt lat="44.22171997032307" lon="11.46804906810956"><ele>505.20000000000005</ele><time>2026-04-30T08:17:10Z</time></trkpt><trkpt lat="44.22172763539065" lon="11.467919129785555"><ele>506.8</ele><time>2026-04-30T08:17:11Z</time></trkpt><trkpt lat="44.221714500464316" lon="11.467777752029575"><ele>508.4</ele><time>2026-04-30T08:17:12Z</time></trkpt><trkpt lat="44.22171126874629" lon="11.467655818955276"><ele>510.0</ele><time>2026-04-30T08:17:13Z</time></trkpt><trkpt lat="44.221697162062455" lon="11.46753941162546"><ele>510.1666666666667</ele><time>2026-04-30T08:17:14Z</time></trkpt><trkpt lat="44.221678022570785" lon="11.467412339981538"><ele>510.33333333333337</ele><time>2026-04-30T08:17:15Z</time></trkpt><trkpt lat="44.22166195387972" lon="11.467290792768406"><ele>510.5</ele><time>2026-04-30T08:17:16Z</time></trkpt><trkpt lat="44.22164982547689" lon="11.467200165576607"><ele>510.6666666666667</ele><time>2026-04-30T08:17:17Z</time></trkpt><trkpt lat="44.22161452429678" lon="11.467113321481987"><ele>510.83333333333337</ele><time>2026-04-30T08:17:19Z</time></trkpt><trkpt lat="44.22153401962076" lon="11.467125661963207"><ele>511.0</ele><time>2026-04-30T08:17:21Z</time></trkpt><trkpt lat="44.22147756919192" lon="11.467083431661127"><ele>511.0</ele><time>2026-04-30T08:17:22Z</time></trkpt><trkpt lat="44.221406599907816" lon="11.46700905942232"><ele>511.0</ele><time>2026-04-30T08:17:23Z</time></trkpt><trkpt lat="44.221310059155115" lon="11.466938026229911"><ele>511.0</ele><time>2026-04-30T08:17:24Z</time></trkpt><trkpt lat="44.22121991958392" lon="11.466877367230087"><ele>511.0</ele><time>2026-04-30T08:17:25Z</time></trkpt><trkpt lat="44.22113192864024" lon="11.4668263139982"><ele>511.0</ele><time>2026-04-30T08:17:26Z</time></trkpt><trkpt lat="44.22103890911791" lon="11.466796298248084"><ele>511.0</ele><time>2026-04-30T08:17:27Z</time></trkpt><trkpt lat="44.22094661680195" lon="11.466784130425165"><ele>511.0</ele><time>2026-04-30T08:17:28Z</time></trkpt><trkpt lat="44.220858707736035" lon="11.46677868870512"><ele>511.0</ele><time>2026-04-30T08:17:29Z</time></trkpt><trkpt lat="44.22076073071217" lon="11.466795474816974"><ele>511.0</ele><time>2026-04-30T08:17:30Z</time></trkpt><trkpt lat="44.220653281868955" lon="11.46682035753319"><ele>511.0</ele><time>2026-04-30T08:17:31Z</time></trkpt><trkpt lat="44.220562031988166" lon="11.466820551044924"><ele>514.3333333333334</ele><time>2026-04-30T08:17:32Z</time></trkpt><trkpt lat="44.22048533678802" lon="11.466803402865208"><ele>517.6666666666667</ele><time>2026-04-30T08:17:33Z</time></trkpt><trkpt lat="44.22041339279422" lon="11.466771925279808"><ele>521.0</ele><time>2026-04-30T08:17:34Z</time></trkpt><trkpt lat="44.220344852649106" lon="11.466706021513536"><ele>524.3333333333334</ele><time>2026-04-30T08:17:35Z</time></trkpt><trkpt lat="44.220267975912336" lon="11.466681003101879"><ele>527.6666666666666</ele><time>2026-04-30T08:17:36Z</time></trkpt><trkpt lat="44.22019454045345" lon="11.466685549196344"><ele>531.0</ele><time>2026-04-30T08:17:37Z</time></trkpt><trkpt lat="44.220126003775036" lon="11.466734438437232"><ele>531.0</ele><time>2026-04-30T08:17:38Z</time></trkpt><trkpt lat="44.22007342638021" lon="11.466849127035315"><ele>531.0</ele><time>2026-04-30T08:17:39Z</time></trkpt><trkpt lat="44.220019636661476" lon="11.466985852261962"><ele>531.0</ele><time>2026-04-30T08:17:40Z</time></trkpt><trkpt lat="44.21995221652962" lon="11.467110840870829"><ele>531.0</ele><time>2026-04-30T08:17:41Z</time></trkpt><trkpt lat="44.219873442128964" lon="11.467204514834751"><ele>531.0</ele><time>2026-04-30T08:17:42Z</time></trkpt><trkpt lat="44.219797656925955" lon="11.467294475395038"><ele>525.3333333333334</ele><time>2026-04-30T08:17:43Z</time></trkpt><trkpt lat="44.21973000556997" lon="11.467372317567275"><ele>519.6666666666666</ele><time>2026-04-30T08:17:44Z</time></trkpt><trkpt lat="44.219666767663654" lon="11.467454151732387"><ele>514.0</ele><time>2026-04-30T08:17:45Z</time></trkpt><trkpt lat="44.219609880232355" lon="11.467520522326591"><ele>508.3333333333333</ele><time>2026-04-30T08:17:46Z</time></trkpt><trkpt lat="44.21950511551063" lon="11.467537850919394"><ele>502.66666666666663</ele><time>2026-04-30T08:17:48Z</time></trkpt><trkpt lat="44.21944543210652" lon="11.467465758831096"><ele>497.0</ele><time>2026-04-30T08:17:49Z</time></trkpt><trkpt lat="44.21938566264349" lon="11.467337278850316"><ele>497.0</ele><time>2026-04-30T08:17:50Z</time></trkpt><trkpt lat="44.21933280461815" lon="11.467202664320691"><ele>497.00000000000006</ele><time>2026-04-30T08:17:51Z</time></trkpt><trkpt lat="44.21931445964549" lon="11.467083634537957"><ele>497.00000000000006</ele><time>2026-04-30T08:17:52Z</time></trkpt><trkpt lat="44.219302608934896" lon="11.466979498545438"><ele>497.0</ele><time>2026-04-30T08:17:53Z</time></trkpt><trkpt lat="44.219246669183796" lon="11.466885577766433"><ele>497.0</ele><time>2026-04-30T08:17:54Z</time></trkpt><trkpt lat="44.219164318437585" lon="11.46678689582148"><ele>497.16666666666663</ele><time>2026-04-30T08:17:55Z</time></trkpt><trkpt lat="44.219092194249605" lon="11.466720002813101"><ele>497.3333333333333</ele><time>2026-04-30T08:17:56Z</time></trkpt><trkpt lat="44.219057708708796" lon="11.466633433662349"><ele>497.5</ele><time>2026-04-30T08:17:57Z</time></trkpt><trkpt lat="44.219041537524" lon="11.466539276413245"><ele>497.66666666666663</ele><time>2026-04-30T08:17:58Z</time></trkpt><trkpt lat="44.218934094731736" lon="11.466415114571191"><ele>497.8333333333333</ele><time>2026-04-30T08:18:00Z</time></trkpt><trkpt lat="44.218858872906885" lon="11.466384909913156"><ele>498.0</ele><time>2026-04-30T08:18:01Z</time></trkpt><trkpt lat="44.21881017010216" lon="11.466328940741173"><ele>503.3333333333333</ele><time>2026-04-30T08:18:02Z</time></trkpt><trkpt lat="44.21879416250332" lon="11.466243368383756"><ele>508.66666666666663</ele><time>2026-04-30T08:18:03Z</time></trkpt><trkpt lat="44.21880464323047" lon="11.466149849477068"><ele>514.0</ele><time>2026-04-30T08:18:04Z</time></trkpt><trkpt lat="44.218801497055665" lon="11.466050998261528"><ele>519.3333333333333</ele><time>2026-04-30T08:18:05Z</time></trkpt><trkpt lat="44.21875909235489" lon="11.465952217071493"><ele>524.6666666666666</ele><time>2026-04-30T08:18:06Z</time></trkpt><trkpt lat="44.21867891138387" lon="11.465888914664271"><ele>530.0</ele><time>2026-04-30T08:18:07Z</time></trkpt><trkpt lat="44.21861445590617" lon="11.465840994276853"><ele>530.0</ele><time>2026-04-30T08:18:08Z</time></trkpt><trkpt lat="44.21854991372416" lon="11.465791665831214"><ele>530.0</ele><time>2026-04-30T08:18:09Z</time></trkpt><trkpt lat="44.218482108109576" lon="11.465760056266168"><ele>530.0</ele><time>2026-04-30T08:18:10Z</time></trkpt><trkpt lat="44.218409768244285" lon="11.465774815639353"><ele>530.0</ele><time>2026-04-30T08:18:11Z</time></trkpt><trkpt lat="44.218329046243646" lon="11.465806721847311"><ele>530.0</ele><time>2026-04-30T08:18:12Z</time></trkpt><trkpt lat="44.21824713152764" lon="11.46582057459544"><ele>530.0</ele><time>2026-04-30T08:18:13Z</time></trkpt><trkpt lat="44.21817197698875" lon="11.465812063380119"><ele>535.5</ele><time>2026-04-30T08:18:14Z</time></trkpt><trkpt lat="44.218108337861366" lon="11.465799717130773"><ele>541.0</ele><time>2026-04-30T08:18:15Z</time></trkpt><trkpt lat="44.21799444067627" lon="11.465894729710367"><ele>546.5</ele><time>2026-04-30T08:18:17Z</time></trkpt><trkpt lat="44.21794117242687" lon="11.465986696892616"><ele>552.0</ele><time>2026-04-30T08:18:18Z</time></trkpt><trkpt lat="44.21788857161655" lon="11.46606033214617"><ele>557.5</ele><time>2026-04-30T08:18:19Z</time></trkpt><trkpt lat="44.2178154192722" lon="11.466122566649055"><ele>563.0</ele><time>2026-04-30T08:18:20Z</time></trkpt><trkpt lat="44.21773860406294" lon="11.466180633773421"><ele>563.0</ele><time>2026-04-30T08:18:21Z</time></trkpt><trkpt lat="44.21763723319199" lon="11.466236322753202"><ele>563.0</ele><time>2026-04-30T08:18:22Z</time></trkpt><trkpt lat="44.21756445084685" lon="11.46628312492521"><ele>563.0</ele><time>2026-04-30T08:18:23Z</time></trkpt><trkpt lat="44.217488144289604" lon="11.466345431117492"><ele>563.0</ele><time>2026-04-30T08:18:25Z</time></trkpt><trkpt lat="44.217447398015764" lon="11.466486548143918"><ele>563.0</ele><time>2026-04-30T08:18:27Z</time></trkpt><trkpt lat="44.21744952784105" lon="11.466587640359757"><ele>565.0</ele><time>2026-04-30T08:18:28Z</time></trkpt><trkpt lat="44.217459819501144" lon="11.46670869737524"><ele>567.0</ele><time>2026-04-30T08:18:29Z</time></trkpt><trkpt lat="44.21745381404372" lon="11.466800653802427"><ele>569.0</ele><time>2026-04-30T08:18:30Z</time></trkpt><trkpt lat="44.217380909731986" lon="11.46688295653194"><ele>571.0</ele><time>2026-04-30T08:18:32Z</time></trkpt><trkpt lat="44.21726428452166" lon="11.466832572143183"><ele>573.0</ele><time>2026-04-30T08:18:34Z</time></trkpt><trkpt lat="44.21718527786396" lon="11.466811401862454"><ele>573.0</ele><time>2026-04-30T08:18:35Z</time></trkpt><trkpt lat="44.21711136850549" lon="11.466828311282995"><ele>573.0</ele><time>2026-04-30T08:18:36Z</time></trkpt><trkpt lat="44.217069085196435" lon="11.466925327255764"><ele>573.0</ele><time>2026-04-30T08:18:37Z</time></trkpt><trkpt lat="44.21704535265972" lon="11.467057438823437"><ele>573.0</ele><time>2026-04-30T08:18:38Z</time></trkpt><trkpt lat="44.21702267582914" lon="11.467195587775898"><ele>573.0</ele><time>2026-04-30T08:18:39Z</time></trkpt><trkpt lat="44.216970608102386" lon="11.467316608809046"><ele>568.5</ele><time>2026-04-30T08:18:41Z</time></trkpt><trkpt lat="44.216900890961355" lon="11.467410970374674"><ele>564.0</ele><time>2026-04-30T08:18:43Z</time></trkpt><trkpt lat="44.216831322654855" lon="11.467458399466198"><ele>559.5</ele><time>2026-04-30T08:18:44Z</time></trkpt><trkpt lat="44.2167612302993" lon="11.467507596770416"><ele>555.0</ele><time>2026-04-30T08:18:45Z</time></trkpt><trkpt lat="44.21668591403849" lon="11.467571958311764"><ele>550.5</ele><time>2026-04-30T08:18:46Z</time></trkpt><trkpt lat="44.21659787005624" lon="11.467630708092319"><ele>546.0</ele><time>2026-04-30T08:18:47Z</time></trkpt><trkpt lat="44.21650826285268" lon="11.467686341955805"><ele>543.5</ele><time>2026-04-30T08:18:48Z</time></trkpt><trkpt lat="44.216433170070815" lon="11.467713603339037"><ele>541.0</ele><time>2026-04-30T08:18:49Z</time></trkpt><trkpt lat="44.21633780478914" lon="11.46769242695501"><ele>538.5</ele><time>2026-04-30T08:18:51Z</time></trkpt><trkpt lat="44.216294761924004" lon="11.467619785798908"><ele>536.0</ele><time>2026-04-30T08:18:52Z</time></trkpt><trkpt lat="44.21627186553515" lon="11.467520421566913"><ele>533.5</ele><time>2026-04-30T08:18:53Z</time></trkpt><trkpt lat="44.21627713154444" lon="11.46741890554108"><ele>531.0</ele><time>2026-04-30T08:18:54Z</time></trkpt><trkpt lat="44.216275113293776" lon="11.467330515254405"><ele>531.0</ele><time>2026-04-30T08:18:55Z</time></trkpt><trkpt lat="44.21626079629438" lon="11.467220653750541"><ele>531.0</ele><time>2026-04-30T08:18:56Z</time></trkpt><trkpt lat="44.21628279438837" lon="11.467101644518493"><ele>531.0</ele><time>2026-04-30T08:18:57Z</time></trkpt><trkpt lat="44.21626453793656" lon="11.466982245408236"><ele>531.0</ele><time>2026-04-30T08:18:58Z</time></trkpt><trkpt lat="44.216243788916245" lon="11.466872310529988"><ele>531.0</ele><time>2026-04-30T08:18:59Z</time></trkpt><trkpt lat="44.21621199475137" lon="11.46675572798946"><ele>531.0</ele><time>2026-04-30T08:19:00Z</time></trkpt><trkpt lat="44.21612241754358" lon="11.466682342219721"><ele>534.8333333333334</ele><time>2026-04-30T08:19:01Z</time></trkpt><trkpt lat="44.21609764858103" lon="11.466590042380846"><ele>538.6666666666666</ele><time>2026-04-30T08:19:02Z</time></trkpt><trkpt lat="44.216044668451154" lon="11.46654126820098"><ele>542.5</ele><time>2026-04-30T08:19:03Z</time></trkpt><trkpt lat="44.21607984768736" lon="11.466393968214067"><ele>546.3333333333333</ele><time>2026-04-30T08:19:05Z</time></trkpt><trkpt lat="44.216139089337894" lon="11.466346847629083"><ele>550.1666666666666</ele><time>2026-04-30T08:19:06Z</time></trkpt><trkpt lat="44.21611922464826" lon="11.46623615021588"><ele>554.0</ele><time>2026-04-30T08:19:07Z</time></trkpt><trkpt lat="44.21616492983041" lon="11.466091933032269"><ele>557.8333333333333</ele><time>2026-04-30T08:19:09Z</time></trkpt><trkpt lat="44.21616382703135" lon="11.46598840575135"><ele>561.6666666666666</ele><time>2026-04-30T08:19:10Z</time></trkpt><trkpt lat="44.216148936502776" lon="11.465872397309834"><ele>565.5</ele><time>2026-04-30T08:19:11Z</time></trkpt><trkpt lat="44.21611139137328" lon="11.46577228948834"><ele>569.3333333333334</ele><time>2026-04-30T08:19:12Z</time></trkpt><trkpt lat="44.216054643081016" lon="11.46567857773565"><ele>573.1666666666667</ele><time>2026-04-30T08:19:13Z</time></trkpt><trkpt lat="44.216003593372" lon="11.465610276569905"><ele>577.0</ele><time>2026-04-30T08:19:14Z</time></trkpt><trkpt lat="44.215936241050414" lon="11.465575822497453"><ele>577.0</ele><time>2026-04-30T08:19:15Z</time></trkpt><trkpt lat="44.21584232580977" lon="11.46554075370804"><ele>577.0</ele><time>2026-04-30T08:19:16Z</time></trkpt><trkpt lat="44.21574025558718" lon="11.465492101380338"><ele>577.0</ele><time>2026-04-30T08:19:17Z</time></trkpt><trkpt lat="44.2156597433559" lon="11.465439576942007"><ele>577.0</ele><time>2026-04-30T08:19:18Z</time></trkpt><trkpt lat="44.215591645545445" lon="11.465371223170504"><ele>577.0</ele><time>2026-04-30T08:19:19Z</time></trkpt><trkpt lat="44.21551953221013" lon="11.465319151637683"><ele>573.4</ele><time>2026-04-30T08:19:20Z</time></trkpt><trkpt lat="44.215444208210805" lon="11.46527800051927"><ele>569.8000000000001</ele><time>2026-04-30T08:19:21Z</time></trkpt><trkpt lat="44.21538317547389" lon="11.465232229266443"><ele>566.2</ele><time>2026-04-30T08:19:22Z</time></trkpt><trkpt lat="44.215351628261374" lon="11.465052680938074"><ele>562.6</ele><time>2026-04-30T08:19:24Z</time></trkpt><trkpt lat="44.21539191273343" lon="11.464928040912033"><ele>559.0</ele><time>2026-04-30T08:19:26Z</time></trkpt><trkpt lat="44.215457178627624" lon="11.46479605270966"><ele>559.0</ele><time>2026-04-30T08:19:28Z</time></trkpt><trkpt lat="44.215483065207785" lon="11.464715064356204"><ele>559.0</ele><time>2026-04-30T08:19:29Z</time></trkpt><trkpt lat="44.215479871594106" lon="11.464614217286043"><ele>559.0</ele><time>2026-04-30T08:19:30Z</time></trkpt><trkpt lat="44.21546634268419" lon="11.464521447067694"><ele>559.0</ele><time>2026-04-30T08:19:31Z</time></trkpt><trkpt lat="44.21542880546159" lon="11.464446745221581"><ele>559.0</ele><time>2026-04-30T08:19:32Z</time></trkpt><trkpt lat="44.21535995459818" lon="11.46438157899525"><ele>559.0</ele><time>2026-04-30T08:19:33Z</time></trkpt><trkpt lat="44.2152853662476" lon="11.46429270571964"><ele>561.5</ele><time>2026-04-30T08:19:34Z</time></trkpt><trkpt lat="44.2152232780794" lon="11.464209853132548"><ele>564.0</ele><time>2026-04-30T08:19:35Z</time></trkpt><trkpt lat="44.215156857226184" lon="11.464160791162776"><ele>566.5</ele><time>2026-04-30T08:19:36Z</time></trkpt><trkpt lat="44.21507476328992" lon="11.464139438000736"><ele>569.0</ele><time>2026-04-30T08:19:37Z</time></trkpt><trkpt lat="44.214974799205486" lon="11.464105971151502"><ele>571.5</ele><time>2026-04-30T08:19:38Z</time></trkpt><trkpt lat="44.21489144707" lon="11.464066710723348"><ele>574.0</ele><time>2026-04-30T08:19:39Z</time></trkpt><trkpt lat="44.21480683229106" lon="11.464058103005229"><ele>574.0</ele><time>2026-04-30T08:19:40Z</time></trkpt><trkpt lat="44.21473669973854" lon="11.464048508956987"><ele>574.0</ele><time>2026-04-30T08:19:41Z</time></trkpt><trkpt lat="44.21462230377529" lon="11.463970881993143"><ele>574.0</ele><time>2026-04-30T08:19:43Z</time></trkpt><trkpt lat="44.214508185464" lon="11.46404525876077"><ele>574.0</ele><time>2026-04-30T08:19:45Z</time></trkpt><trkpt lat="44.21445959834156" lon="11.46413217402622"><ele>574.0</ele><time>2026-04-30T08:19:46Z</time></trkpt><trkpt lat="44.21440127820761" lon="11.464182679453991"><ele>574.0</ele><time>2026-04-30T08:19:47Z</time></trkpt><trkpt lat="44.21433592585972" lon="11.464162204262154"><ele>574.0</ele><time>2026-04-30T08:19:48Z</time></trkpt><trkpt lat="44.21428078425272" lon="11.464095303133817"><ele>574.0</ele><time>2026-04-30T08:19:49Z</time></trkpt><trkpt lat="44.214246918685056" lon="11.46400397570706"><ele>574.0</ele><time>2026-04-30T08:19:50Z</time></trkpt><trkpt lat="44.214208788233506" lon="11.463898774890549"><ele>574.0</ele><time>2026-04-30T08:19:51Z</time></trkpt><trkpt lat="44.21417843087888" lon="11.463773589759661"><ele>574.0</ele><time>2026-04-30T08:19:52Z</time></trkpt><trkpt lat="44.21415265058513" lon="11.46362970951558"><ele>573.8</ele><time>2026-04-30T08:19:53Z</time></trkpt><trkpt lat="44.214117571935354" lon="11.463501940603834"><ele>573.5999999999999</ele><time>2026-04-30T08:19:54Z</time></trkpt><trkpt lat="44.21405452167522" lon="11.463404562051073"><ele>573.4</ele><time>2026-04-30T08:19:55Z</time></trkpt><trkpt lat="44.213956754227674" lon="11.463327294716176"><ele>573.1999999999999</ele><time>2026-04-30T08:19:56Z</time></trkpt><trkpt lat="44.21387338303159" lon="11.463275134606397"><ele>573.0</ele><time>2026-04-30T08:19:57Z</time></trkpt><trkpt lat="44.21381925532857" lon="11.463192238954866"><ele>573.0</ele><time>2026-04-30T08:19:58Z</time></trkpt><trkpt lat="44.213786623767035" lon="11.46306799752718"><ele>573.0</ele><time>2026-04-30T08:19:59Z</time></trkpt><trkpt lat="44.2137494849753" lon="11.462928244246964"><ele>573.0</ele><time>2026-04-30T08:20:00Z</time></trkpt><trkpt lat="44.21369180954131" lon="11.462819712268516"><ele>573.0</ele><time>2026-04-30T08:20:01Z</time></trkpt><trkpt lat="44.21362113292792" lon="11.462763699264755"><ele>573.0</ele><time>2026-04-30T08:20:02Z</time></trkpt><trkpt lat="44.21352704732207" lon="11.462733766469494"><ele>576.3333333333334</ele><time>2026-04-30T08:20:03Z</time></trkpt><trkpt lat="44.21342311284186" lon="11.46267931193852"><ele>579.6666666666666</ele><time>2026-04-30T08:20:04Z</time></trkpt><trkpt lat="44.21334895893182" lon="11.462639157138753"><ele>583.0</ele><time>2026-04-30T08:20:05Z</time></trkpt><trkpt lat="44.21329408200235" lon="11.462595477293245"><ele>586.3333333333333</ele><time>2026-04-30T08:20:06Z</time></trkpt><trkpt lat="44.21322446652763" lon="11.462550453424104"><ele>589.6666666666666</ele><time>2026-04-30T08:20:08Z</time></trkpt><trkpt lat="44.21314939256547" lon="11.462510473268521"><ele>593.0</ele><time>2026-04-30T08:20:10Z</time></trkpt><trkpt lat="44.21303878994592" lon="11.462437187228906"><ele>593.0</ele><time>2026-04-30T08:20:12Z</time></trkpt><trkpt lat="44.21293730930591" lon="11.46247007291218"><ele>593.0</ele><time>2026-04-30T08:20:14Z</time></trkpt><trkpt lat="44.21287880659412" lon="11.46251047650932"><ele>593.0</ele><time>2026-04-30T08:20:15Z</time></trkpt><trkpt lat="44.21280350269674" lon="11.462512987749282"><ele>593.0</ele><time>2026-04-30T08:20:16Z</time></trkpt><trkpt lat="44.21269229261267" lon="11.462447359841688"><ele>593.0</ele><time>2026-04-30T08:20:17Z</time></trkpt><trkpt lat="44.21257036456336" lon="11.462368853032428"><ele>593.0</ele><time>2026-04-30T08:20:18Z</time></trkpt><trkpt lat="44.21248311799179" lon="11.462290045706473"><ele>593.0</ele><time>2026-04-30T08:20:19Z</time></trkpt><trkpt lat="44.21240771074341" lon="11.462252718087788"><ele>593.0</ele><time>2026-04-30T08:20:20Z</time></trkpt><trkpt lat="44.212314335974646" lon="11.46223455070512"><ele>593.0</ele><time>2026-04-30T08:20:21Z</time></trkpt><trkpt lat="44.21219001441532" lon="11.462315567661204"><ele>593.0</ele><time>2026-04-30T08:20:23Z</time></trkpt><trkpt lat="44.21208775204468" lon="11.462310581244271"><ele>592.4</ele><time>2026-04-30T08:20:25Z</time></trkpt><trkpt lat="44.21199605924098" lon="11.462227164132072"><ele>591.8</ele><time>2026-04-30T08:20:27Z</time></trkpt><trkpt lat="44.21191465116228" lon="11.462150923194736"><ele>591.2</ele><time>2026-04-30T08:20:29Z</time></trkpt><trkpt lat="44.21183329355364" lon="11.462114160226998"><ele>590.6</ele><time>2026-04-30T08:20:31Z</time></trkpt><trkpt lat="44.21175923193452" lon="11.462068968137018"><ele>590.0</ele><time>2026-04-30T08:20:33Z</time></trkpt><trkpt lat="44.21168954652875" lon="11.462007128816763"><ele>590.0</ele><time>2026-04-30T08:20:36Z</time></trkpt><trkpt lat="44.211597508113336" lon="11.462019153717353"><ele>590.0</ele><time>2026-04-30T08:20:39Z</time></trkpt><trkpt lat="44.21153974134884" lon="11.46211887728141"><ele>590.0</ele><time>2026-04-30T08:20:42Z</time></trkpt><trkpt lat="44.211477121721124" lon="11.462228333225296"><ele>590.0</ele><time>2026-04-30T08:20:44Z</time></trkpt><trkpt lat="44.21144711176141" lon="11.462310431878239"><ele>590.0</ele><time>2026-04-30T08:20:45Z</time></trkpt><trkpt lat="44.211415840542976" lon="11.46240464016678"><ele>590.0</ele><time>2026-04-30T08:20:46Z</time></trkpt><trkpt lat="44.21138463980434" lon="11.462506685623831"><ele>594.4</ele><time>2026-04-30T08:20:47Z</time></trkpt><trkpt lat="44.21135518525225" lon="11.462611800400795"><ele>598.8</ele><time>2026-04-30T08:20:48Z</time></trkpt><trkpt lat="44.21130654777381" lon="11.462712237040387"><ele>603.2</ele><time>2026-04-30T08:20:49Z</time></trkpt><trkpt lat="44.21122821111754" lon="11.462773564021498"><ele>607.6</ele><time>2026-04-30T08:20:50Z</time></trkpt><trkpt lat="44.21116145295464" lon="11.462839977226318"><ele>612.0</ele><time>2026-04-30T08:20:51Z</time></trkpt><trkpt lat="44.21107055291072" lon="11.462953394372821"><ele>612.0</ele><time>2026-04-30T08:20:53Z</time></trkpt><trkpt lat="44.21101462313982" lon="11.463013299997323"><ele>612.0</ele><time>2026-04-30T08:20:54Z</time></trkpt><trkpt lat="44.21093937726509" lon="11.463121846416398"><ele>612.0</ele><time>2026-04-30T08:20:56Z</time></trkpt><trkpt lat="44.2109287123459" lon="11.46330248296379"><ele>612.0</ele><time>2026-04-30T08:20:58Z</time></trkpt><trkpt lat="44.21090303086672" lon="11.463399127930307"><ele>612.0</ele><time>2026-04-30T08:21:00Z</time></trkpt><trkpt lat="44.210824162748345" lon="11.463378395666476"><ele>612.0</ele><time>2026-04-30T08:21:02Z</time></trkpt><trkpt lat="44.2107637356146" lon="11.463317833351097"><ele>612.0</ele><time>2026-04-30T08:21:05Z</time></trkpt><trkpt lat="44.210658694225856" lon="11.463254633562073"><ele>612.0</ele><time>2026-04-30T08:21:07Z</time></trkpt><trkpt lat="44.21058323216757" lon="11.463222870407293"><ele>612.0</ele><time>2026-04-30T08:21:08Z</time></trkpt><trkpt lat="44.21051226558635" lon="11.463190973786293"><ele>612.0</ele><time>2026-04-30T08:21:09Z</time></trkpt><trkpt lat="44.21044893386261" lon="11.4631935981409"><ele>612.0</ele><time>2026-04-30T08:21:10Z</time></trkpt><trkpt lat="44.21041253936479" lon="11.463289027833502"><ele>610.8333333333334</ele><time>2026-04-30T08:21:11Z</time></trkpt><trkpt lat="44.21033750316495" lon="11.46332785393637"><ele>609.6666666666666</ele><time>2026-04-30T08:21:12Z</time></trkpt><trkpt lat="44.210230540029855" lon="11.463339050423238"><ele>608.5</ele><time>2026-04-30T08:21:14Z</time></trkpt><trkpt lat="44.21017331382941" lon="11.463301995750294"><ele>607.3333333333333</ele><time>2026-04-30T08:21:15Z</time></trkpt><trkpt lat="44.21012618620638" lon="11.463234811489073"><ele>606.1666666666666</ele><time>2026-04-30T08:21:16Z</time></trkpt><trkpt lat="44.210074786452864" lon="11.463113303913364"><ele>605.0</ele><time>2026-04-30T08:21:18Z</time></trkpt><trkpt lat="44.210058849178" lon="11.46299035848108"><ele>612.8</ele><time>2026-04-30T08:21:20Z</time></trkpt><trkpt lat="44.210057098697675" lon="11.462894280065099"><ele>620.6</ele><time>2026-04-30T08:21:21Z</time></trkpt><trkpt lat="44.21004837580162" lon="11.462797552796468"><ele>628.4000000000001</ele><time>2026-04-30T08:21:22Z</time></trkpt><trkpt lat="44.20998186643775" lon="11.462696285426718"><ele>636.2</ele><time>2026-04-30T08:21:24Z</time></trkpt><trkpt lat="44.209843604673715" lon="11.462692366308296"><ele>644.0</ele><time>2026-04-30T08:21:26Z</time></trkpt><trkpt lat="44.20975247559201" lon="11.462747450049626"><ele>644.0</ele><time>2026-04-30T08:21:27Z</time></trkpt><trkpt lat="44.20964772279965" lon="11.46277616904928"><ele>644.0</ele><time>2026-04-30T08:21:28Z</time></trkpt><trkpt lat="44.20955633658405" lon="11.46277202227683"><ele>644.0</ele><time>2026-04-30T08:21:29Z</time></trkpt><trkpt lat="44.20948388257734" lon="11.462767161721109"><ele>644.0</ele><time>2026-04-30T08:21:30Z</time></trkpt><trkpt lat="44.20941224421659" lon="11.462761196965225"><ele>644.0</ele><time>2026-04-30T08:21:31Z</time></trkpt><trkpt lat="44.209331735372274" lon="11.462752442457841"><ele>644.0</ele><time>2026-04-30T08:21:32Z</time></trkpt><trkpt lat="44.20924268442035" lon="11.4627334009908"><ele>644.0</ele><time>2026-04-30T08:21:33Z</time></trkpt><trkpt lat="44.20914422640231" lon="11.462671937898783"><ele>644.0</ele><time>2026-04-30T08:21:34Z</time></trkpt><trkpt lat="44.20906457731446" lon="11.462562339937527"><ele>644.0</ele><time>2026-04-30T08:21:35Z</time></trkpt><trkpt lat="44.209017226515655" lon="11.462474302118661"><ele>644.0</ele><time>2026-04-30T08:21:36Z</time></trkpt><trkpt lat="44.20898356212012" lon="11.462379421476719"><ele>644.0</ele><time>2026-04-30T08:21:37Z</time></trkpt><trkpt lat="44.20897985560725" lon="11.462245124618809"><ele>645.3333333333333</ele><time>2026-04-30T08:21:38Z</time></trkpt><trkpt lat="44.208989064942465" lon="11.462122462657705"><ele>646.6666666666666</ele><time>2026-04-30T08:21:39Z</time></trkpt><trkpt lat="44.20900814551534" lon="11.462020302234455"><ele>648.0</ele><time>2026-04-30T08:21:40Z</time></trkpt><trkpt lat="44.2090306103362" lon="11.461919618452809"><ele>649.3333333333334</ele><time>2026-04-30T08:21:41Z</time></trkpt><trkpt lat="44.20898153303786" lon="11.461789784262951"><ele>650.6666666666667</ele><time>2026-04-30T08:21:43Z</time></trkpt><trkpt lat="44.20891076454634" lon="11.461781085341771"><ele>652.0</ele><time>2026-04-30T08:21:44Z</time></trkpt><trkpt lat="44.208819933382586" lon="11.461800676579827"><ele>658.0</ele><time>2026-04-30T08:21:45Z</time></trkpt><trkpt lat="44.20873257971003" lon="11.46178806584631"><ele>664.0</ele><time>2026-04-30T08:21:46Z</time></trkpt><trkpt lat="44.20863260716281" lon="11.461787567194165"><ele>670.0</ele><time>2026-04-30T08:21:47Z</time></trkpt><trkpt lat="44.208540261809596" lon="11.461844276097468"><ele>676.0</ele><time>2026-04-30T08:21:48Z</time></trkpt><trkpt lat="44.20846516588528" lon="11.46190874464297"><ele>682.0</ele><time>2026-04-30T08:21:49Z</time></trkpt><trkpt lat="44.208358151624765" lon="11.461928829046245"><ele>682.0</ele><time>2026-04-30T08:21:51Z</time></trkpt><trkpt lat="44.208287350319644" lon="11.461941871593327"><ele>682.0</ele><time>2026-04-30T08:21:52Z</time></trkpt><trkpt lat="44.208212667964695" lon="11.461958454740802"><ele>682.0</ele><time>2026-04-30T08:21:53Z</time></trkpt><trkpt lat="44.20813724868086" lon="11.461985488066105"><ele>682.0</ele><time>2026-04-30T08:21:54Z</time></trkpt><trkpt lat="44.20804665244161" lon="11.462078729729052"><ele>682.0</ele><time>2026-04-30T08:21:56Z</time></trkpt><trkpt lat="44.20800332940944" lon="11.462178461396846"><ele>682.0</ele><time>2026-04-30T08:21:57Z</time></trkpt><trkpt lat="44.20797002398466" lon="11.462304296501172"><ele>680.0</ele><time>2026-04-30T08:21:58Z</time></trkpt><trkpt lat="44.20792715644372" lon="11.462421132462287"><ele>678.0</ele><time>2026-04-30T08:21:59Z</time></trkpt><trkpt lat="44.20786798611535" lon="11.462541313987726"><ele>676.0</ele><time>2026-04-30T08:22:00Z</time></trkpt><trkpt lat="44.20780316756066" lon="11.462659337430198"><ele>674.0</ele><time>2026-04-30T08:22:01Z</time></trkpt><trkpt lat="44.20774519870027" lon="11.462766576929619"><ele>672.0</ele><time>2026-04-30T08:22:02Z</time></trkpt><trkpt lat="44.20770338303051" lon="11.462884076071978"><ele>671.4000000000001</ele><time>2026-04-30T08:22:03Z</time></trkpt><trkpt lat="44.20767223263962" lon="11.463011836975495"><ele>670.8000000000001</ele><time>2026-04-30T08:22:04Z</time></trkpt><trkpt lat="44.207674383726314" lon="11.46311969358789"><ele>670.2</ele><time>2026-04-30T08:22:05Z</time></trkpt><trkpt lat="44.20769565183754" lon="11.463248396462724"><ele>669.6</ele><time>2026-04-30T08:22:06Z</time></trkpt><trkpt lat="44.2076723162769" lon="11.463330021587442"><ele>669.0</ele><time>2026-04-30T08:22:07Z</time></trkpt><trkpt lat="44.20755493203948" lon="11.463350546968362"><ele>669.0</ele><time>2026-04-30T08:22:09Z</time></trkpt><trkpt lat="44.207484208273" lon="11.463278107450828"><ele>669.0</ele><time>2026-04-30T08:22:11Z</time></trkpt><trkpt lat="44.20745135868735" lon="11.463182516928077"><ele>669.0</ele><time>2026-04-30T08:22:14Z</time></trkpt><trkpt lat="44.2074370426339" lon="11.463096810645725"><ele>669.0</ele><time>2026-04-30T08:22:16Z</time></trkpt><trkpt lat="44.20740382172222" lon="11.462983007022878"><ele>669.0</ele><time>2026-04-30T08:22:18Z</time></trkpt><trkpt lat="44.20734980969921" lon="11.462851985877553"><ele>669.0</ele><time>2026-04-30T08:22:20Z</time></trkpt><trkpt lat="44.207311627135994" lon="11.46268847946091"><ele>663.0</ele><time>2026-04-30T08:22:22Z</time></trkpt><trkpt lat="44.20729584991375" lon="11.462594987600387"><ele>657.0</ele><time>2026-04-30T08:22:23Z</time></trkpt><trkpt lat="44.207272065426814" lon="11.462499828136949"><ele>651.0</ele><time>2026-04-30T08:22:24Z</time></trkpt><trkpt lat="44.207233100449365" lon="11.46240402376972"><ele>645.0</ele><time>2026-04-30T08:22:25Z</time></trkpt><trkpt lat="44.20718084920062" lon="11.462322255211603"><ele>639.0</ele><time>2026-04-30T08:22:26Z</time></trkpt><trkpt lat="44.20711546568203" lon="11.462251933334036"><ele>633.0</ele><time>2026-04-30T08:22:27Z</time></trkpt><trkpt lat="44.207053580384404" lon="11.46220953723744"><ele>634.1999999999999</ele><time>2026-04-30T08:22:28Z</time></trkpt><trkpt lat="44.20700138526967" lon="11.46206560714192"><ele>635.4</ele><time>2026-04-30T08:22:30Z</time></trkpt><trkpt lat="44.20701321255428" lon="11.461930103579176"><ele>636.5999999999999</ele><time>2026-04-30T08:22:31Z</time></trkpt><trkpt lat="44.20703901873593" lon="11.461780858402374"><ele>637.8</ele><time>2026-04-30T08:22:32Z</time></trkpt><trkpt lat="44.20705119245765" lon="11.461672988457885"><ele>639.0</ele><time>2026-04-30T08:22:33Z</time></trkpt><trkpt lat="44.20704464601547" lon="11.461559285721524"><ele>639.0</ele><time>2026-04-30T08:22:34Z</time></trkpt><trkpt lat="44.2070254963075" lon="11.461437475762981"><ele>639.0</ele><time>2026-04-30T08:22:35Z</time></trkpt><trkpt lat="44.20699768750714" lon="11.461316148222487"><ele>639.0</ele><time>2026-04-30T08:22:36Z</time></trkpt><trkpt lat="44.2069725075061" lon="11.461223751205946"><ele>639.0</ele><time>2026-04-30T08:22:37Z</time></trkpt><trkpt lat="44.20696303347366" lon="11.461129308234113"><ele>639.0</ele><time>2026-04-30T08:22:38Z</time></trkpt><trkpt lat="44.20698925628198" lon="11.46100427291407"><ele>639.0</ele><time>2026-04-30T08:22:39Z</time></trkpt><trkpt lat="44.20704332959995" lon="11.460868981980614"><ele>643.2</ele><time>2026-04-30T08:22:40Z</time></trkpt><trkpt lat="44.20702549624326" lon="11.46074697746916"><ele>647.4</ele><time>2026-04-30T08:22:41Z</time></trkpt><trkpt lat="44.20700762952788" lon="11.460648245543414"><ele>651.6</ele><time>2026-04-30T08:22:42Z</time></trkpt><trkpt lat="44.20694890080205" lon="11.46056928031882"><ele>655.8</ele><time>2026-04-30T08:22:43Z</time></trkpt><trkpt lat="44.20687129017256" lon="11.46044953854918"><ele>660.0</ele><time>2026-04-30T08:22:44Z</time></trkpt><trkpt lat="44.206801094596095" lon="11.460353909907393"><ele>659.8</ele><time>2026-04-30T08:22:45Z</time></trkpt><trkpt lat="44.206743522692626" lon="11.460315236382128"><ele>659.6</ele><time>2026-04-30T08:22:46Z</time></trkpt><trkpt lat="44.206621644620924" lon="11.460272977313865"><ele>659.4000000000001</ele><time>2026-04-30T08:22:48Z</time></trkpt><trkpt lat="44.20654732575336" lon="11.460291968665723"><ele>659.2</ele><time>2026-04-30T08:22:49Z</time></trkpt><trkpt lat="44.20647107288794" lon="11.460405076782747"><ele>659.0</ele><time>2026-04-30T08:22:50Z</time></trkpt><trkpt lat="44.20639587990316" lon="11.460509199850366"><ele>659.0</ele><time>2026-04-30T08:22:51Z</time></trkpt><trkpt lat="44.20633234292651" lon="11.460614725451615"><ele>659.0</ele><time>2026-04-30T08:22:52Z</time></trkpt><trkpt lat="44.20627722170843" lon="11.460689591405826"><ele>659.0</ele><time>2026-04-30T08:22:53Z</time></trkpt><trkpt lat="44.20622793969454" lon="11.46078414373847"><ele>659.0</ele><time>2026-04-30T08:22:54Z</time></trkpt><trkpt lat="44.20617405316588" lon="11.460839900219048"><ele>659.0</ele><time>2026-04-30T08:22:55Z</time></trkpt><trkpt lat="44.20611506096202" lon="11.460874697884892"><ele>659.0</ele><time>2026-04-30T08:22:56Z</time></trkpt><trkpt lat="44.20603587760568" lon="11.460862606117635"><ele>659.0</ele><time>2026-04-30T08:22:57Z</time></trkpt><trkpt lat="44.205946532504036" lon="11.460836417574582"><ele>659.0</ele><time>2026-04-30T08:22:58Z</time></trkpt><trkpt lat="44.20587961019985" lon="11.460802924515761"><ele>659.0</ele><time>2026-04-30T08:22:59Z</time></trkpt><trkpt lat="44.20579188514833" lon="11.460680420045396"><ele>659.0</ele><time>2026-04-30T08:23:01Z</time></trkpt><trkpt lat="44.20575639313192" lon="11.460553460257952"><ele>659.0</ele><time>2026-04-30T08:23:02Z</time></trkpt><trkpt lat="44.205708177739744" lon="11.460425127452812"><ele>657.6666666666666</ele><time>2026-04-30T08:23:03Z</time></trkpt><trkpt lat="44.205652677188866" lon="11.460303316823294"><ele>656.3333333333333</ele><time>2026-04-30T08:23:04Z</time></trkpt><trkpt lat="44.205590790590946" lon="11.46020174269094"><ele>655.0</ele><time>2026-04-30T08:23:05Z</time></trkpt><trkpt lat="44.205529463070555" lon="11.460130425664694"><ele>653.6666666666666</ele><time>2026-04-30T08:23:06Z</time></trkpt><trkpt lat="44.20545671801318" lon="11.460100552282565"><ele>652.3333333333334</ele><time>2026-04-30T08:23:07Z</time></trkpt><trkpt lat="44.20537173423098" lon="11.460090530560077"><ele>651.0</ele><time>2026-04-30T08:23:08Z</time></trkpt><trkpt lat="44.20530132339128" lon="11.46004487566114"><ele>651.0</ele><time>2026-04-30T08:23:09Z</time></trkpt><trkpt lat="44.20523947518836" lon="11.459989726387963"><ele>651.0</ele><time>2026-04-30T08:23:10Z</time></trkpt><trkpt lat="44.20513056381111" lon="11.459885096637214"><ele>651.0</ele><time>2026-04-30T08:23:12Z</time></trkpt><trkpt lat="44.20508595096306" lon="11.459820026520323"><ele>651.0</ele><time>2026-04-30T08:23:13Z</time></trkpt><trkpt lat="44.205102662151" lon="11.459669116768914"><ele>651.0</ele><time>2026-04-30T08:23:15Z</time></trkpt><trkpt lat="44.2051444269849" lon="11.459579672629463"><ele>652.8333333333334</ele><time>2026-04-30T08:23:17Z</time></trkpt><trkpt lat="44.20521050232106" lon="11.459440412466066"><ele>654.6666666666666</ele><time>2026-04-30T08:23:19Z</time></trkpt><trkpt lat="44.2052552943655" lon="11.459366997452852"><ele>656.5</ele><time>2026-04-30T08:23:20Z</time></trkpt><trkpt lat="44.20527056520133" lon="11.459273846982407"><ele>658.3333333333333</ele><time>2026-04-30T08:23:21Z</time></trkpt><trkpt lat="44.20524307587205" lon="11.459187353368831"><ele>660.1666666666666</ele><time>2026-04-30T08:23:22Z</time></trkpt><trkpt lat="44.20519433476003" lon="11.459120212500633"><ele>662.0</ele><time>2026-04-30T08:23:23Z</time></trkpt><trkpt lat="44.20512839622407" lon="11.459059386462968"><ele>662.0</ele><time>2026-04-30T08:23:24Z</time></trkpt><trkpt lat="44.205079564082" lon="11.458974521156037"><ele>662.0</ele><time>2026-04-30T08:23:25Z</time></trkpt><trkpt lat="44.20505015642242" lon="11.458876000238646"><ele>662.0</ele><time>2026-04-30T08:23:26Z</time></trkpt><trkpt lat="44.205016671568565" lon="11.458771342095702"><ele>662.0</ele><time>2026-04-30T08:23:27Z</time></trkpt><trkpt lat="44.204975378333565" lon="11.458696536370924"><ele>662.0</ele><time>2026-04-30T08:23:28Z</time></trkpt><trkpt lat="44.204880520573376" lon="11.458658984333184"><ele>662.0</ele><time>2026-04-30T08:23:30Z</time></trkpt><trkpt lat="44.204805739008826" lon="11.4586570818621"><ele>661.6</ele><time>2026-04-30T08:23:31Z</time></trkpt><trkpt lat="44.204719119040796" lon="11.458660756909756"><ele>661.2</ele><time>2026-04-30T08:23:32Z</time></trkpt><trkpt lat="44.20463840265915" lon="11.458722441095153"><ele>660.8</ele><time>2026-04-30T08:23:33Z</time></trkpt><trkpt lat="44.204562696989974" lon="11.458836848341873"><ele>660.4</ele><time>2026-04-30T08:23:34Z</time></trkpt><trkpt lat="44.204496739583156" lon="11.458884478154525"><ele>660.0</ele><time>2026-04-30T08:23:35Z</time></trkpt><trkpt lat="44.20437850275049" lon="11.458865135896138"><ele>660.0</ele><time>2026-04-30T08:23:37Z</time></trkpt><trkpt lat="44.204301146848366" lon="11.458842202461982"><ele>660.0</ele><time>2026-04-30T08:23:38Z</time></trkpt><trkpt lat="44.204216323243344" lon="11.458834976154016"><ele>660.0</ele><time>2026-04-30T08:23:39Z</time></trkpt><trkpt lat="44.204137535122854" lon="11.458823100533927"><ele>660.0</ele><time>2026-04-30T08:23:40Z</time></trkpt><trkpt lat="44.20406083186514" lon="11.458765921805064"><ele>660.0</ele><time>2026-04-30T08:23:41Z</time></trkpt><trkpt lat="44.204027821742756" lon="11.458668915222708"><ele>660.0</ele><time>2026-04-30T08:23:42Z</time></trkpt><trkpt lat="44.20399830874204" lon="11.458579812796403"><ele>667.2</ele><time>2026-04-30T08:23:43Z</time></trkpt><trkpt lat="44.203886192467756" lon="11.458526074935607"><ele>674.4</ele><time>2026-04-30T08:23:45Z</time></trkpt><trkpt lat="44.20377824148158" lon="11.458622953749948"><ele>681.5999999999999</ele><time>2026-04-30T08:23:47Z</time></trkpt><trkpt lat="44.20374697739033" lon="11.45873478117864"><ele>688.8</ele><time>2026-04-30T08:23:48Z</time></trkpt><trkpt lat="44.20372410722253" lon="11.4588452877312"><ele>696.0</ele><time>2026-04-30T08:23:49Z</time></trkpt><trkpt lat="44.203696679501085" lon="11.458937039749573"><ele>696.0</ele><time>2026-04-30T08:23:50Z</time></trkpt><trkpt lat="44.20365029992617" lon="11.459042531930924"><ele>696.0</ele><time>2026-04-30T08:23:51Z</time></trkpt><trkpt lat="44.203623685603276" lon="11.459154151204725"><ele>696.0</ele><time>2026-04-30T08:23:52Z</time></trkpt><trkpt lat="44.20361743463348" lon="11.459298738776237"><ele>696.0</ele><time>2026-04-30T08:23:53Z</time></trkpt><trkpt lat="44.20362212266814" lon="11.459468407313901"><ele>696.0</ele><time>2026-04-30T08:23:54Z</time></trkpt><trkpt lat="44.20362872374206" lon="11.459620057634147"><ele>694.5999999999999</ele><time>2026-04-30T08:23:55Z</time></trkpt><trkpt lat="44.20362928298181" lon="11.459763857943384"><ele>693.2</ele><time>2026-04-30T08:23:56Z</time></trkpt><trkpt lat="44.20360939875935" lon="11.459884442003483"><ele>691.8</ele><time>2026-04-30T08:23:57Z</time></trkpt><trkpt lat="44.2035948819598" lon="11.460017667200317"><ele>690.4000000000001</ele><time>2026-04-30T08:23:58Z</time></trkpt><trkpt lat="44.20358863670526" lon="11.460137406561815"><ele>689.0</ele><time>2026-04-30T08:23:59Z</time></trkpt><trkpt lat="44.203580212215954" lon="11.460293572225968"><ele>689.0</ele><time>2026-04-30T08:24:01Z</time></trkpt><trkpt lat="44.20347541168141" lon="11.460400941422446"><ele>689.0</ele><time>2026-04-30T08:24:03Z</time></trkpt><trkpt lat="44.203372656602795" lon="11.46044582732803"><ele>689.0</ele><time>2026-04-30T08:24:04Z</time></trkpt><trkpt lat="44.20326176255864" lon="11.460515699591216"><ele>689.0</ele><time>2026-04-30T08:24:05Z</time></trkpt><trkpt lat="44.20313905038509" lon="11.460622197393281"><ele>690.8000000000001</ele><time>2026-04-30T08:24:06Z</time></trkpt><trkpt lat="44.20302728464757" lon="11.460683462800876"><ele>692.6</ele><time>2026-04-30T08:24:07Z</time></trkpt><trkpt lat="44.202938352319" lon="11.460779328779335"><ele>694.4</ele><time>2026-04-30T08:24:08Z</time></trkpt><trkpt lat="44.2028460389619" lon="11.460842737459675"><ele>696.2</ele><time>2026-04-30T08:24:09Z</time></trkpt><trkpt lat="44.20276809841699" lon="11.460911276047304"><ele>698.0</ele><time>2026-04-30T08:24:10Z</time></trkpt><trkpt lat="44.202698855997454" lon="11.460969437715184"><ele>698.0</ele><time>2026-04-30T08:24:11Z</time></trkpt><trkpt lat="44.20263700524076" lon="11.461016019306003"><ele>698.0</ele><time>2026-04-30T08:24:12Z</time></trkpt><trkpt lat="44.20256794654321" lon="11.461157526267382"><ele>698.0</ele><time>2026-04-30T08:24:14Z</time></trkpt><trkpt lat="44.202571623596924" lon="11.461268224848709"><ele>698.0</ele><time>2026-04-30T08:24:15Z</time></trkpt><trkpt lat="44.20259425788383" lon="11.461367287273571"><ele>698.0</ele><time>2026-04-30T08:24:16Z</time></trkpt><trkpt lat="44.20258075161399" lon="11.461518813627439"><ele>699.8</ele><time>2026-04-30T08:24:18Z</time></trkpt><trkpt lat="44.20252950290255" lon="11.46157819195606"><ele>701.5999999999999</ele><time>2026-04-30T08:24:19Z</time></trkpt><trkpt lat="44.20244459399246" lon="11.461655365997924"><ele>703.4000000000001</ele><time>2026-04-30T08:24:20Z</time></trkpt><trkpt lat="44.20233663754221" lon="11.461743071726264"><ele>705.2</ele><time>2026-04-30T08:24:21Z</time></trkpt><trkpt lat="44.20224936134751" lon="11.461838968380022"><ele>707.0</ele><time>2026-04-30T08:24:22Z</time></trkpt><trkpt lat="44.202182284788144" lon="11.461940190794142"><ele>707.0</ele><time>2026-04-30T08:24:23Z</time></trkpt><trkpt lat="44.20211842393954" lon="11.462032423146612"><ele>707.0</ele><time>2026-04-30T08:24:24Z</time></trkpt><trkpt lat="44.202056532011376" lon="11.462090769986885"><ele>707.0</ele><time>2026-04-30T08:24:25Z</time></trkpt><trkpt lat="44.201972015096445" lon="11.46218445611615"><ele>707.0</ele><time>2026-04-30T08:24:27Z</time></trkpt><trkpt lat="44.20192986110317" lon="11.462264051164798"><ele>707.0</ele><time>2026-04-30T08:24:28Z</time></trkpt><trkpt lat="44.201889980394974" lon="11.462351987504196"><ele>707.0</ele><time>2026-04-30T08:24:29Z</time></trkpt><trkpt lat="44.20184604048573" lon="11.462427895930656"><ele>703.8571428571429</ele><time>2026-04-30T08:24:30Z</time></trkpt><trkpt lat="44.20179710871181" lon="11.462499576252164"><ele>700.7142857142858</ele><time>2026-04-30T08:24:31Z</time></trkpt><trkpt lat="44.2017430944029" lon="11.462578307074445"><ele>697.5714285714286</ele><time>2026-04-30T08:24:32Z</time></trkpt><trkpt lat="44.201706038084495" lon="11.462664284118198"><ele>694.4285714285714</ele><time>2026-04-30T08:24:33Z</time></trkpt><trkpt lat="44.201681432077876" lon="11.462759306910485"><ele>691.2857142857143</ele><time>2026-04-30T08:24:34Z</time></trkpt><trkpt lat="44.20166699898542" lon="11.462858047509041"><ele>688.1428571428571</ele><time>2026-04-30T08:24:35Z</time></trkpt><trkpt lat="44.20164135303399" lon="11.46296102243641"><ele>685.0</ele><time>2026-04-30T08:24:36Z</time></trkpt><trkpt lat="44.20160598076718" lon="11.463060577436494"><ele>685.5</ele><time>2026-04-30T08:24:37Z</time></trkpt><trkpt lat="44.201562050938854" lon="11.463155533367619"><ele>686.0</ele><time>2026-04-30T08:24:38Z</time></trkpt><trkpt lat="44.20152878178127" lon="11.463255049510652"><ele>686.5</ele><time>2026-04-30T08:24:39Z</time></trkpt><trkpt lat="44.201498328714784" lon="11.463350360698326"><ele>687.0</ele><time>2026-04-30T08:24:40Z</time></trkpt><trkpt lat="44.201468813942114" lon="11.463441530042362"><ele>687.5</ele><time>2026-04-30T08:24:41Z</time></trkpt><trkpt lat="44.201429081949016" lon="11.463525770310019"><ele>688.0</ele><time>2026-04-30T08:24:42Z</time></trkpt><trkpt lat="44.20136915007491" lon="11.46359374104717"><ele>688.0</ele><time>2026-04-30T08:24:43Z</time></trkpt><trkpt lat="44.201306809774714" lon="11.463644878188397"><ele>688.0</ele><time>2026-04-30T08:24:44Z</time></trkpt><trkpt lat="44.20124782188486" lon="11.463683448443334"><ele>688.0</ele><time>2026-04-30T08:24:45Z</time></trkpt><trkpt lat="44.20114953474604" lon="11.463774995599232"><ele>688.0</ele><time>2026-04-30T08:24:47Z</time></trkpt><trkpt lat="44.20109263642846" lon="11.463830623002524"><ele>688.0</ele><time>2026-04-30T08:24:48Z</time></trkpt><trkpt lat="44.201034141821324" lon="11.46398360313509"><ele>688.0</ele><time>2026-04-30T08:24:50Z</time></trkpt><trkpt lat="44.20095915372782" lon="11.464073530212106"><ele>681.8</ele><time>2026-04-30T08:24:52Z</time></trkpt><trkpt lat="44.200872613972045" lon="11.464060231545009"><ele>675.5999999999999</ele><time>2026-04-30T08:24:54Z</time></trkpt><trkpt lat="44.20076107570658" lon="11.463975992116207"><ele>669.4000000000001</ele><time>2026-04-30T08:24:56Z</time></trkpt><trkpt lat="44.200636241209885" lon="11.463943642461023"><ele>663.2</ele><time>2026-04-30T08:24:58Z</time></trkpt><trkpt lat="44.20057102286954" lon="11.46395824683545"><ele>657.0</ele><time>2026-04-30T08:24:59Z</time></trkpt><trkpt lat="44.20050703918877" lon="11.463993538910676"><ele>657.0</ele><time>2026-04-30T08:25:00Z</time></trkpt><trkpt lat="44.2004359291812" lon="11.464013211032391"><ele>657.0</ele><time>2026-04-30T08:25:01Z</time></trkpt><trkpt lat="44.20031335402542" lon="11.46401367781867"><ele>657.0</ele><time>2026-04-30T08:25:03Z</time></trkpt><trkpt lat="44.2002432547359" lon="11.464057705206008"><ele>657.0</ele><time>2026-04-30T08:25:06Z</time></trkpt><trkpt lat="44.20012625445841" lon="11.464107778457786"><ele>657.0</ele><time>2026-04-30T08:25:08Z</time></trkpt><trkpt lat="44.20003690240705" lon="11.464123643323513"><ele>657.0</ele><time>2026-04-30T08:25:09Z</time></trkpt><trkpt lat="44.19992938267328" lon="11.464154407451533"><ele>657.0</ele><time>2026-04-30T08:25:10Z</time></trkpt><trkpt lat="44.199827358243056" lon="11.46418196183868"><ele>657.0</ele><time>2026-04-30T08:25:11Z</time></trkpt><trkpt lat="44.19974754839673" lon="11.464234695296774"><ele>657.0</ele><time>2026-04-30T08:25:12Z</time></trkpt><trkpt lat="44.1996764335996" lon="11.464282572256097"><ele>657.0</ele><time>2026-04-30T08:25:13Z</time></trkpt><trkpt lat="44.19961701727795" lon="11.464322701415053"><ele>657.0</ele><time>2026-04-30T08:25:14Z</time></trkpt><trkpt lat="44.19953675880597" lon="11.46439687974713"><ele>659.4000000000001</ele><time>2026-04-30T08:25:16Z</time></trkpt><trkpt lat="44.19951804440357" lon="11.464510507543004"><ele>661.8000000000001</ele><time>2026-04-30T08:25:18Z</time></trkpt><trkpt lat="44.199573051933974" lon="11.464650617792785"><ele>664.2</ele><time>2026-04-30T08:25:20Z</time></trkpt><trkpt lat="44.19961895241928" lon="11.46474665308707"><ele>666.6</ele><time>2026-04-30T08:25:21Z</time></trkpt><trkpt lat="44.19965649514727" lon="11.464860663700145"><ele>669.0</ele><time>2026-04-30T08:25:22Z</time></trkpt><trkpt lat="44.19968373949044" lon="11.464975649403524"><ele>669.0</ele><time>2026-04-30T08:25:23Z</time></trkpt><trkpt lat="44.19970398309851" lon="11.465134666301086"><ele>669.0</ele><time>2026-04-30T08:25:24Z</time></trkpt><trkpt lat="44.19971986659708" lon="11.465303142626444"><ele>669.0</ele><time>2026-04-30T08:25:25Z</time></trkpt><trkpt lat="44.19972858248215" lon="11.465454174167915"><ele>669.0</ele><time>2026-04-30T08:25:26Z</time></trkpt><trkpt lat="44.19969680815039" lon="11.465573181731312"><ele>669.0</ele><time>2026-04-30T08:25:27Z</time></trkpt><trkpt lat="44.19966294424828" lon="11.465672640500879"><ele>670.1666666666666</ele><time>2026-04-30T08:25:28Z</time></trkpt><trkpt lat="44.199630287567885" lon="11.465767948442068"><ele>671.3333333333334</ele><time>2026-04-30T08:25:29Z</time></trkpt><trkpt lat="44.19960309109764" lon="11.465870886057262"><ele>672.5</ele><time>2026-04-30T08:25:30Z</time></trkpt><trkpt lat="44.199585484032404" lon="11.465979290567297"><ele>673.6666666666667</ele><time>2026-04-30T08:25:31Z</time></trkpt><trkpt lat="44.19956556611723" lon="11.466093746866783"><ele>674.8333333333334</ele><time>2026-04-30T08:25:32Z</time></trkpt><trkpt lat="44.19954819422916" lon="11.466224264306165"><ele>676.0</ele><time>2026-04-30T08:25:33Z</time></trkpt><trkpt lat="44.19951862748995" lon="11.466351741378029"><ele>677.5999999999999</ele><time>2026-04-30T08:25:34Z</time></trkpt><trkpt lat="44.199489937519594" lon="11.466496950155994"><ele>679.2</ele><time>2026-04-30T08:25:36Z</time></trkpt><trkpt lat="44.19948779197884" lon="11.466672025670174"><ele>680.8</ele><time>2026-04-30T08:25:38Z</time></trkpt><trkpt lat="44.199490241917886" lon="11.466767944626524"><ele>682.4000000000001</ele><time>2026-04-30T08:25:39Z</time></trkpt><trkpt lat="44.19949697660221" lon="11.4668876229185"><ele>684.0</ele><time>2026-04-30T08:25:40Z</time></trkpt><trkpt lat="44.19948268675849" lon="11.466983697455902"><ele>684.0</ele><time>2026-04-30T08:25:41Z</time></trkpt><trkpt lat="44.19942309104431" lon="11.467042711622884"><ele>684.0</ele><time>2026-04-30T08:25:42Z</time></trkpt><trkpt lat="44.19935165420224" lon="11.467091959950993"><ele>684.0</ele><time>2026-04-30T08:25:43Z</time></trkpt><trkpt lat="44.19925736753692" lon="11.467142494858265"><ele>684.0</ele><time>2026-04-30T08:25:44Z</time></trkpt><trkpt lat="44.19916882233585" lon="11.467219168072571"><ele>684.0</ele><time>2026-04-30T08:25:45Z</time></trkpt><trkpt lat="44.19908517663345" lon="11.467321099685728"><ele>682.2</ele><time>2026-04-30T08:25:46Z</time></trkpt><trkpt lat="44.19903404569064" lon="11.467431429959607"><ele>680.4000000000001</ele><time>2026-04-30T08:25:47Z</time></trkpt><trkpt lat="44.198973635692994" lon="11.467503335846015"><ele>678.6</ele><time>2026-04-30T08:25:48Z</time></trkpt><trkpt lat="44.19890704672861" lon="11.467546413808222"><ele>676.8</ele><time>2026-04-30T08:25:49Z</time></trkpt><trkpt lat="44.198838782948435" lon="11.467613254724826"><ele>675.0</ele><time>2026-04-30T08:25:50Z</time></trkpt><trkpt lat="44.19876399220941" lon="11.467745398336643"><ele>677.3333333333334</ele><time>2026-04-30T08:25:52Z</time></trkpt><trkpt lat="44.19871781966252" lon="11.467831176457999"><ele>679.6666666666666</ele><time>2026-04-30T08:25:53Z</time></trkpt><trkpt lat="44.19864747336303" lon="11.467916629643335"><ele>682.0</ele><time>2026-04-30T08:25:54Z</time></trkpt><trkpt lat="44.19857075507008" lon="11.46795736569301"><ele>684.3333333333333</ele><time>2026-04-30T08:25:55Z</time></trkpt><trkpt lat="44.19846257603298" lon="11.467990302873858"><ele>686.6666666666666</ele><time>2026-04-30T08:25:57Z</time></trkpt><trkpt lat="44.1984294846914" lon="11.468085303935108"><ele>689.0</ele><time>2026-04-30T08:25:58Z</time></trkpt><trkpt lat="44.198403071779055" lon="11.468189948601863"><ele>689.0</ele><time>2026-04-30T08:25:59Z</time></trkpt><trkpt lat="44.19836609110732" lon="11.46828197787022"><ele>689.0</ele><time>2026-04-30T08:26:00Z</time></trkpt><trkpt lat="44.19827613389489" lon="11.468387102912743"><ele>689.0</ele><time>2026-04-30T08:26:02Z</time></trkpt><trkpt lat="44.19820398136211" lon="11.468503764129846"><ele>689.0</ele><time>2026-04-30T08:26:04Z</time></trkpt><trkpt lat="44.19816222065596" lon="11.468616199706355"><ele>689.0</ele><time>2026-04-30T08:26:06Z</time></trkpt><trkpt lat="44.19816221978764" lon="11.468748719837066"><ele>688.8000000000001</ele><time>2026-04-30T08:26:08Z</time></trkpt><trkpt lat="44.19824846921939" lon="11.468922722178176"><ele>688.6</ele><time>2026-04-30T08:26:10Z</time></trkpt><trkpt lat="44.19829229673137" lon="11.469023766128629"><ele>688.4</ele><time>2026-04-30T08:26:11Z</time></trkpt><trkpt lat="44.198344353092416" lon="11.46913855143046"><ele>688.2</ele><time>2026-04-30T08:26:12Z</time></trkpt><trkpt lat="44.19840280167" lon="11.469235252356416"><ele>688.0</ele><time>2026-04-30T08:26:13Z</time></trkpt><trkpt lat="44.19845732561111" lon="11.469295083363628"><ele>688.0</ele><time>2026-04-30T08:26:14Z</time></trkpt><trkpt lat="44.19851239569228" lon="11.469339565700045"><ele>688.0</ele><time>2026-04-30T08:26:15Z</time></trkpt><trkpt lat="44.198580186474004" lon="11.469389768347463"><ele>688.0</ele><time>2026-04-30T08:26:16Z</time></trkpt><trkpt lat="44.19865687877932" lon="11.469465125533075"><ele>688.0</ele><time>2026-04-30T08:26:17Z</time></trkpt><trkpt lat="44.19871158774622" lon="11.469543070841421"><ele>688.0</ele><time>2026-04-30T08:26:18Z</time></trkpt><trkpt lat="44.19876107668248" lon="11.469644116758362"><ele>688.0</ele><time>2026-04-30T08:26:19Z</time></trkpt><trkpt lat="44.19880226585411" lon="11.469767610024999"><ele>688.0</ele><time>2026-04-30T08:26:20Z</time></trkpt><trkpt lat="44.19886256342589" lon="11.469857240378579"><ele>688.0</ele><time>2026-04-30T08:26:21Z</time></trkpt><trkpt lat="44.19894445200759" lon="11.469925034707884"><ele>688.0</ele><time>2026-04-30T08:26:22Z</time></trkpt><trkpt lat="44.199023850942204" lon="11.469999142673936"><ele>688.0</ele><time>2026-04-30T08:26:23Z</time></trkpt><trkpt lat="44.19908195335908" lon="11.470082780283754"><ele>688.0</ele><time>2026-04-30T08:26:24Z</time></trkpt><trkpt lat="44.19913513766411" lon="11.470168316423274"><ele>688.0</ele><time>2026-04-30T08:26:25Z</time></trkpt><trkpt lat="44.19918405862287" lon="11.470280341868778"><ele>688.0</ele><time>2026-04-30T08:26:26Z</time></trkpt><trkpt lat="44.19923364072765" lon="11.470396298005673"><ele>688.0</ele><time>2026-04-30T08:26:27Z</time></trkpt><trkpt lat="44.199282742913375" lon="11.470515686856952"><ele>688.0</ele><time>2026-04-30T08:26:28Z</time></trkpt><trkpt lat="44.19932451546327" lon="11.47063046438692"><ele>688.0</ele><time>2026-04-30T08:26:29Z</time></trkpt><trkpt lat="44.19936682177159" lon="11.470742218349239"><ele>688.0</ele><time>2026-04-30T08:26:30Z</time></trkpt><trkpt lat="44.19942035546193" lon="11.470848226344925"><ele>690.0</ele><time>2026-04-30T08:26:31Z</time></trkpt><trkpt lat="44.19948446678073" lon="11.470979229316494"><ele>692.0</ele><time>2026-04-30T08:26:32Z</time></trkpt><trkpt lat="44.19956526840856" lon="11.471102980964844"><ele>694.0</ele><time>2026-04-30T08:26:33Z</time></trkpt><trkpt lat="44.19963285604913" lon="11.471208606601914"><ele>696.0</ele><time>2026-04-30T08:26:34Z</time></trkpt><trkpt lat="44.19969784829286" lon="11.471300165986518"><ele>698.0</ele><time>2026-04-30T08:26:35Z</time></trkpt><trkpt lat="44.19977641009292" lon="11.471392244725466"><ele>697.8</ele><time>2026-04-30T08:26:36Z</time></trkpt><trkpt lat="44.19985582218502" lon="11.471503122531777"><ele>697.5999999999999</ele><time>2026-04-30T08:26:37Z</time></trkpt><trkpt lat="44.199930290296614" lon="11.471617249530537"><ele>697.4000000000001</ele><time>2026-04-30T08:26:38Z</time></trkpt><trkpt lat="44.19999337127806" lon="11.47171737687185"><ele>697.2</ele><time>2026-04-30T08:26:39Z</time></trkpt><trkpt lat="44.200051436339734" lon="11.471806705523989"><ele>697.0</ele><time>2026-04-30T08:26:40Z</time></trkpt><trkpt lat="44.2001055179913" lon="11.471911213778373"><ele>697.0</ele><time>2026-04-30T08:26:41Z</time></trkpt><trkpt lat="44.200152525906624" lon="11.472028290852693"><ele>697.0</ele><time>2026-04-30T08:26:42Z</time></trkpt><trkpt lat="44.20019085553394" lon="11.472162382388476"><ele>697.0</ele><time>2026-04-30T08:26:43Z</time></trkpt><trkpt lat="44.20023229442755" lon="11.47228301340328"><ele>697.0</ele><time>2026-04-30T08:26:44Z</time></trkpt><trkpt lat="44.20028034784417" lon="11.472373948468602"><ele>697.0</ele><time>2026-04-30T08:26:45Z</time></trkpt><trkpt lat="44.20034394026631" lon="11.472466094372868"><ele>698.6666666666667</ele><time>2026-04-30T08:26:46Z</time></trkpt><trkpt lat="44.20039046135148" lon="11.47255711154651"><ele>700.3333333333334</ele><time>2026-04-30T08:26:47Z</time></trkpt><trkpt lat="44.200451587790084" lon="11.472652148631912"><ele>702.0</ele><time>2026-04-30T08:26:49Z</time></trkpt><trkpt lat="44.20042543439413" lon="11.47275343339371"><ele>703.6666666666666</ele><time>2026-04-30T08:26:53Z</time></trkpt><trkpt lat="44.20032366049877" lon="11.472669449386652"><ele>705.3333333333333</ele><time>2026-04-30T08:26:55Z</time></trkpt><trkpt lat="44.200265648991106" lon="11.472592640462754"><ele>707.0</ele><time>2026-04-30T08:26:56Z</time></trkpt><trkpt lat="44.20019242710326" lon="11.47254809907023"><ele>707.0</ele><time>2026-04-30T08:26:57Z</time></trkpt><trkpt lat="44.20010846643062" lon="11.472524047830184"><ele>707.0</ele><time>2026-04-30T08:26:58Z</time></trkpt><trkpt lat="44.200021949472614" lon="11.472508215253338"><ele>707.0</ele><time>2026-04-30T08:26:59Z</time></trkpt><trkpt lat="44.199939287232695" lon="11.472486954982692"><ele>707.0</ele><time>2026-04-30T08:27:00Z</time></trkpt><trkpt lat="44.19985631475418" lon="11.472467521560334"><ele>707.0</ele><time>2026-04-30T08:27:01Z</time></trkpt><trkpt lat="44.19977812083321" lon="11.472467338097188"><ele>707.0</ele><time>2026-04-30T08:27:02Z</time></trkpt><trkpt lat="44.19971206442621" lon="11.472459976505437"><ele>709.1666666666666</ele><time>2026-04-30T08:27:03Z</time></trkpt><trkpt lat="44.19965008981021" lon="11.47240196255885"><ele>711.3333333333333</ele><time>2026-04-30T08:27:04Z</time></trkpt><trkpt lat="44.19957704563681" lon="11.472325964822222"><ele>713.5</ele><time>2026-04-30T08:27:05Z</time></trkpt><trkpt lat="44.19950276031598" lon="11.472264178997655"><ele>715.6666666666666</ele><time>2026-04-30T08:27:06Z</time></trkpt><trkpt lat="44.19942303041159" lon="11.472248998503462"><ele>717.8333333333334</ele><time>2026-04-30T08:27:07Z</time></trkpt><trkpt lat="44.19934290386297" lon="11.472283478538404"><ele>720.0</ele><time>2026-04-30T08:27:08Z</time></trkpt><trkpt lat="44.19926308339853" lon="11.472326351256486"><ele>720.0</ele><time>2026-04-30T08:27:09Z</time></trkpt><trkpt lat="44.19917357584221" lon="11.472349875642854"><ele>720.0</ele><time>2026-04-30T08:27:10Z</time></trkpt><trkpt lat="44.19907190669779" lon="11.47233525505919"><ele>720.0</ele><time>2026-04-30T08:27:11Z</time></trkpt><trkpt lat="44.198983142352006" lon="11.472313103415695"><ele>720.0</ele><time>2026-04-30T08:27:12Z</time></trkpt><trkpt lat="44.19889457871472" lon="11.472298559631627"><ele>720.0</ele><time>2026-04-30T08:27:13Z</time></trkpt><trkpt lat="44.19883079869885" lon="11.472272154721146"><ele>720.0</ele><time>2026-04-30T08:27:14Z</time></trkpt><trkpt lat="44.19874517330663" lon="11.472264246201123"><ele>721.8</ele><time>2026-04-30T08:27:16Z</time></trkpt><trkpt lat="44.19860977953961" lon="11.472211237150024"><ele>723.6</ele><time>2026-04-30T08:27:18Z</time></trkpt><trkpt lat="44.19852827351678" lon="11.472165402357032"><ele>725.4000000000001</ele><time>2026-04-30T08:27:19Z</time></trkpt><trkpt lat="44.1984598487877" lon="11.472114566888092"><ele>727.2</ele><time>2026-04-30T08:27:20Z</time></trkpt><trkpt lat="44.19840160199202" lon="11.472075832784437"><ele>729.0</ele><time>2026-04-30T08:27:21Z</time></trkpt><trkpt lat="44.19830433618601" lon="11.47198329445241"><ele>730.1666666666666</ele><time>2026-04-30T08:27:23Z</time></trkpt><trkpt lat="44.198230679620615" lon="11.47188867719399"><ele>731.3333333333334</ele><time>2026-04-30T08:27:25Z</time></trkpt><trkpt lat="44.198171338449264" lon="11.47176879890678"><ele>732.5</ele><time>2026-04-30T08:27:27Z</time></trkpt><trkpt lat="44.19813352387287" lon="11.471698015584687"><ele>733.6666666666667</ele><time>2026-04-30T08:27:28Z</time></trkpt><trkpt lat="44.198076478573036" lon="11.471632816036534"><ele>734.8333333333334</ele><time>2026-04-30T08:27:29Z</time></trkpt><trkpt lat="44.198005847573135" lon="11.47159212179182"><ele>736.0</ele><time>2026-04-30T08:27:30Z</time></trkpt><trkpt lat="44.19793147925909" lon="11.471569925341022"><ele>738.6666666666667</ele><time>2026-04-30T08:27:31Z</time></trkpt><trkpt lat="44.197858868147534" lon="11.471575985679646"><ele>741.3333333333334</ele><time>2026-04-30T08:27:32Z</time></trkpt><trkpt lat="44.197780259384714" lon="11.471578261617381"><ele>744.0</ele><time>2026-04-30T08:27:33Z</time></trkpt><trkpt lat="44.19769047563848" lon="11.471554633459958"><ele>746.6666666666666</ele><time>2026-04-30T08:27:34Z</time></trkpt><trkpt lat="44.197610472702216" lon="11.47149024361811"><ele>749.3333333333333</ele><time>2026-04-30T08:27:35Z</time></trkpt><trkpt lat="44.19751980868119" lon="11.471396445891243"><ele>752.0</ele><time>2026-04-30T08:27:36Z</time></trkpt><trkpt lat="44.19744353747328" lon="11.471306137969648"><ele>750.4000000000001</ele><time>2026-04-30T08:27:37Z</time></trkpt><trkpt lat="44.19738677006935" lon="11.471210860946899"><ele>748.8000000000001</ele><time>2026-04-30T08:27:38Z</time></trkpt><trkpt lat="44.19734291956793" lon="11.47110352976698"><ele>747.2</ele><time>2026-04-30T08:27:39Z</time></trkpt><trkpt lat="44.19730243426914" lon="11.470983955731507"><ele>745.6</ele><time>2026-04-30T08:27:40Z</time></trkpt><trkpt lat="44.19726177656247" lon="11.470863138376918"><ele>744.0</ele><time>2026-04-30T08:27:41Z</time></trkpt><trkpt lat="44.197229821389776" lon="11.470746419959237"><ele>746.0</ele><time>2026-04-30T08:27:42Z</time></trkpt><trkpt lat="44.19720385891919" lon="11.470659614911455"><ele>748.0</ele><time>2026-04-30T08:27:43Z</time></trkpt><trkpt lat="44.1971369807412" lon="11.470570703051099"><ele>750.0</ele><time>2026-04-30T08:27:44Z</time></trkpt><trkpt lat="44.1970545547313" lon="11.470515082936412"><ele>752.0</ele><time>2026-04-30T08:27:45Z</time></trkpt><trkpt lat="44.19699565012956" lon="11.470441923332217"><ele>754.0</ele><time>2026-04-30T08:27:46Z</time></trkpt><trkpt lat="44.196968242200114" lon="11.470336342295637"><ele>756.0</ele><time>2026-04-30T08:27:47Z</time></trkpt><trkpt lat="44.19690482664071" lon="11.470236423588288"><ele>756.0</ele><time>2026-04-30T08:27:49Z</time></trkpt><trkpt lat="44.19677276869565" lon="11.470223540055063"><ele>756.0</ele><time>2026-04-30T08:27:51Z</time></trkpt><trkpt lat="44.19671078219061" lon="11.470184013632526"><ele>756.0</ele><time>2026-04-30T08:27:52Z</time></trkpt><trkpt lat="44.19659639572847" lon="11.470137697660164"><ele>756.0</ele><time>2026-04-30T08:27:54Z</time></trkpt><trkpt lat="44.19652470525178" lon="11.47013155986559"><ele>756.0</ele><time>2026-04-30T08:27:55Z</time></trkpt><trkpt lat="44.196463187679534" lon="11.470094955236954"><ele>760.1999999999999</ele><time>2026-04-30T08:27:56Z</time></trkpt><trkpt lat="44.1963598277869" lon="11.470040300804623"><ele>764.4</ele><time>2026-04-30T08:27:58Z</time></trkpt><trkpt lat="44.19627084028554" lon="11.4699868507878"><ele>768.6</ele><time>2026-04-30T08:28:00Z</time></trkpt><trkpt lat="44.19621753739932" lon="11.46992029280046"><ele>772.8</ele><time>2026-04-30T08:28:03Z</time></trkpt><trkpt lat="44.196095799582444" lon="11.46981689055771"><ele>777.0</ele><time>2026-04-30T08:28:06Z</time></trkpt><trkpt lat="44.19603775516052" lon="11.469765061361358"><ele>777.0</ele><time>2026-04-30T08:28:07Z</time></trkpt><trkpt lat="44.195973878204306" lon="11.469751634738886"><ele>777.0</ele><time>2026-04-30T08:28:08Z</time></trkpt><trkpt lat="44.195893481309206" lon="11.469771395927625"><ele>777.0</ele><time>2026-04-30T08:28:09Z</time></trkpt><trkpt lat="44.19581071820224" lon="11.46975925670124"><ele>777.0</ele><time>2026-04-30T08:28:10Z</time></trkpt><trkpt lat="44.195730570284766" lon="11.4697191583834"><ele>777.0</ele><time>2026-04-30T08:28:11Z</time></trkpt><trkpt lat="44.19567220262989" lon="11.469679742888708"><ele>777.0</ele><time>2026-04-30T08:28:12Z</time></trkpt><trkpt lat="44.195611891077725" lon="11.469543385413562"><ele>781.0</ele><time>2026-04-30T08:28:14Z</time></trkpt><trkpt lat="44.19556190890132" lon="11.46947401854205"><ele>785.0</ele><time>2026-04-30T08:28:16Z</time></trkpt><trkpt lat="44.19546621447722" lon="11.46941031028374"><ele>789.0</ele><time>2026-04-30T08:28:18Z</time></trkpt><trkpt lat="44.195383200019435" lon="11.46929611162292"><ele>793.0</ele><time>2026-04-30T08:28:20Z</time></trkpt><trkpt lat="44.195345312300425" lon="11.469211543037098"><ele>797.0</ele><time>2026-04-30T08:28:21Z</time></trkpt><trkpt lat="44.19526265560965" lon="11.469117486574735"><ele>797.0000000000001</ele><time>2026-04-30T08:28:23Z</time></trkpt><trkpt lat="44.19526143285813" lon="11.468995776087631"><ele>797.0</ele><time>2026-04-30T08:28:27Z</time></trkpt><trkpt lat="44.19525297564289" lon="11.468905833264294"><ele>797.0</ele><time>2026-04-30T08:28:29Z</time></trkpt><trkpt lat="44.19526059338266" lon="11.468792932367766"><ele>797.0</ele><time>2026-04-30T08:28:32Z</time></trkpt><trkpt lat="44.195325710218206" lon="11.468753658030183"><ele>797.0000000000001</ele><time>2026-04-30T08:28:34Z</time></trkpt><trkpt lat="44.195389295273316" lon="11.468736267305959"><ele>797.0</ele><time>2026-04-30T08:28:35Z</time></trkpt><trkpt lat="44.19546954094108" lon="11.468751364968522"><ele>797.6</ele><time>2026-04-30T08:28:36Z</time></trkpt><trkpt lat="44.1955734405649" lon="11.46869451939522"><ele>798.2</ele><time>2026-04-30T08:28:38Z</time></trkpt><trkpt lat="44.19556107357524" lon="11.468583977018808"><ele>798.8</ele><time>2026-04-30T08:28:41Z</time></trkpt><trkpt lat="44.19543771029453" lon="11.468614510206747"><ele>799.4</ele><time>2026-04-30T08:28:43Z</time></trkpt><trkpt lat="44.19537575814681" lon="11.468642240342572"><ele>800.0</ele><time>2026-04-30T08:28:44Z</time></trkpt><trkpt lat="44.19525761661605" lon="11.468604267448137"><ele>800.0000000000001</ele><time>2026-04-30T08:28:46Z</time></trkpt><trkpt lat="44.19519397446539" lon="11.468564526876177"><ele>800.0</ele><time>2026-04-30T08:28:47Z</time></trkpt><trkpt lat="44.19512806399162" lon="11.46853344559722"><ele>800.0</ele><time>2026-04-30T08:28:48Z</time></trkpt><trkpt lat="44.19505731869661" lon="11.468519867125927"><ele>800.0</ele><time>2026-04-30T08:28:49Z</time></trkpt><trkpt lat="44.19499476773888" lon="11.468498685002608"><ele>800.0000000000001</ele><time>2026-04-30T08:28:50Z</time></trkpt><trkpt lat="44.19486874432403" lon="11.468464435839108"><ele>800.0</ele><time>2026-04-30T08:28:52Z</time></trkpt><trkpt lat="44.194799695714146" lon="11.468441829633067"><ele>799.5</ele><time>2026-04-30T08:28:53Z</time></trkpt><trkpt lat="44.19468479055233" lon="11.468366749353933"><ele>799.0</ele><time>2026-04-30T08:28:55Z</time></trkpt><trkpt lat="44.194584020076036" lon="11.46830811183484"><ele>798.5</ele><time>2026-04-30T08:28:57Z</time></trkpt><trkpt lat="44.19446354269729" lon="11.46825352336031"><ele>798.0</ele><time>2026-04-30T08:28:59Z</time></trkpt><trkpt lat="44.194396205148315" lon="11.468146823296959"><ele>798.0</ele><time>2026-04-30T08:29:01Z</time></trkpt><trkpt lat="44.19442655398068" lon="11.468045441596606"><ele>798.0</ele><time>2026-04-30T08:29:03Z</time></trkpt><trkpt lat="44.1944761790208" lon="11.467981307358635"><ele>798.0</ele><time>2026-04-30T08:29:05Z</time></trkpt><trkpt lat="44.19449778108239" lon="11.467820441918954"><ele>798.0</ele><time>2026-04-30T08:29:07Z</time></trkpt><trkpt lat="44.194489302237216" lon="11.467724646012854"><ele>798.0</ele><time>2026-04-30T08:29:08Z</time></trkpt><trkpt lat="44.19450316091836" lon="11.46760439602638"><ele>798.0</ele><time>2026-04-30T08:29:10Z</time></trkpt><trkpt lat="44.19456596016936" lon="11.467537269962603"><ele>796.5</ele><time>2026-04-30T08:29:13Z</time></trkpt><trkpt lat="44.19462535569242" lon="11.467419257662273"><ele>795.0</ele><time>2026-04-30T08:29:22Z</time></trkpt><trkpt lat="44.19464143330396" lon="11.46733357205014"><ele>793.5</ele><time>2026-04-30T08:29:23Z</time></trkpt><trkpt lat="44.194643361475144" lon="11.467224032290046"><ele>792.0</ele><time>2026-04-30T08:29:24Z</time></trkpt><trkpt lat="44.194643828193826" lon="11.467114301990877"><ele>790.5</ele><time>2026-04-30T08:29:25Z</time></trkpt><trkpt lat="44.19465778592149" lon="11.467005358603757"><ele>789.0</ele><time>2026-04-30T08:29:26Z</time></trkpt><trkpt lat="44.19465313596266" lon="11.466893254814984"><ele>789.4000000000001</ele><time>2026-04-30T08:29:27Z</time></trkpt><trkpt lat="44.194657622652834" lon="11.466799713794378"><ele>789.8</ele><time>2026-04-30T08:29:28Z</time></trkpt><trkpt lat="44.19479778659684" lon="11.466684892103121"><ele>790.2</ele><time>2026-04-30T08:29:30Z</time></trkpt><trkpt lat="44.194868808494036" lon="11.466618744496209"><ele>790.5999999999999</ele><time>2026-04-30T08:29:31Z</time></trkpt><trkpt lat="44.19490952404345" lon="11.466543122855787"><ele>791.0</ele><time>2026-04-30T08:29:32Z</time></trkpt><trkpt lat="44.19494048526801" lon="11.466436764512508"><ele>791.0</ele><time>2026-04-30T08:29:33Z</time></trkpt><trkpt lat="44.19495788116007" lon="11.466334670425425"><ele>791.0</ele><time>2026-04-30T08:29:34Z</time></trkpt><trkpt lat="44.194957771512314" lon="11.46618649488259"><ele>791.0</ele><time>2026-04-30T08:29:36Z</time></trkpt><trkpt lat="44.19491851557991" lon="11.46606438463734"><ele>791.0</ele><time>2026-04-30T08:29:38Z</time></trkpt><trkpt lat="44.19489638470352" lon="11.46593278837031"><ele>791.0</ele><time>2026-04-30T08:29:40Z</time></trkpt><trkpt lat="44.19490380742618" lon="11.465809241384708"><ele>791.5000000000001</ele><time>2026-04-30T08:29:42Z</time></trkpt><trkpt lat="44.194928291801055" lon="11.465684912884603"><ele>792.0</ele><time>2026-04-30T08:29:44Z</time></trkpt><trkpt lat="44.194925904018426" lon="11.465585425383235"><ele>792.5</ele><time>2026-04-30T08:29:45Z</time></trkpt><trkpt lat="44.19490251832987" lon="11.465484680894633"><ele>793.0</ele><time>2026-04-30T08:29:46Z</time></trkpt><trkpt lat="44.194879628493865" lon="11.465372077946226"><ele>793.5000000000001</ele><time>2026-04-30T08:29:47Z</time></trkpt><trkpt lat="44.19486083037281" lon="11.465284060885237"><ele>794.0</ele><time>2026-04-30T08:29:48Z</time></trkpt><trkpt lat="44.19485051590472" lon="11.465124868123386"><ele>794.3333333333334</ele><time>2026-04-30T08:29:50Z</time></trkpt><trkpt lat="44.194843916991545" lon="11.465020684974307"><ele>794.6666666666667</ele><time>2026-04-30T08:29:51Z</time></trkpt><trkpt lat="44.19482238606691" lon="11.464928771277599"><ele>795.0</ele><time>2026-04-30T08:29:52Z</time></trkpt><trkpt lat="44.194786402526034" lon="11.464838034334655"><ele>795.3333333333333</ele><time>2026-04-30T08:29:53Z</time></trkpt><trkpt lat="44.1947261521232" lon="11.464704568001084"><ele>795.6666666666666</ele><time>2026-04-30T08:29:55Z</time></trkpt><trkpt lat="44.19466955922046" lon="11.464592001840709"><ele>796.0</ele><time>2026-04-30T08:29:57Z</time></trkpt><trkpt lat="44.19467881536718" lon="11.464434972640626"><ele>796.0</ele><time>2026-04-30T08:29:59Z</time></trkpt><trkpt lat="44.19469149228656" lon="11.464339278064536"><ele>796.0</ele><time>2026-04-30T08:30:00Z</time></trkpt><trkpt lat="44.19467547213355" lon="11.464203740686635"><ele>796.0</ele><time>2026-04-30T08:30:02Z</time></trkpt><trkpt lat="44.19463130463557" lon="11.464091788199376"><ele>796.0</ele><time>2026-04-30T08:30:04Z</time></trkpt><trkpt lat="44.19453823570642" lon="11.463984104952198"><ele>796.0</ele><time>2026-04-30T08:30:06Z</time></trkpt><trkpt lat="44.19447711698855" lon="11.463926866685252"><ele>795.9999999999999</ele><time>2026-04-30T08:30:07Z</time></trkpt><trkpt lat="44.19442971935685" lon="11.463865205451553"><ele>796.0</ele><time>2026-04-30T08:30:08Z</time></trkpt><trkpt lat="44.19438109030199" lon="11.463801015185041"><ele>796.0</ele><time>2026-04-30T08:30:09Z</time></trkpt><trkpt lat="44.19432121640962" lon="11.463733865480377"><ele>796.0</ele><time>2026-04-30T08:30:10Z</time></trkpt><trkpt lat="44.19419047951368" lon="11.463702550293315"><ele>795.9999999999999</ele><time>2026-04-30T08:30:12Z</time></trkpt><trkpt lat="44.19411936279657" lon="11.463641490542775"><ele>796.0</ele><time>2026-04-30T08:30:14Z</time></trkpt><trkpt lat="44.19405822032783" lon="11.463550714157266"><ele>799.4999999999999</ele><time>2026-04-30T08:30:16Z</time></trkpt><trkpt lat="44.19401909687413" lon="11.463477859960042"><ele>803.0</ele><time>2026-04-30T08:30:17Z</time></trkpt><trkpt lat="44.19394452715446" lon="11.463342648777907"><ele>806.5</ele><time>2026-04-30T08:30:19Z</time></trkpt><trkpt lat="44.193875617501426" lon="11.463265758863383"><ele>810.0</ele><time>2026-04-30T08:30:21Z</time></trkpt><trkpt lat="44.19382127977271" lon="11.463210001215547"><ele>813.4999999999999</ele><time>2026-04-30T08:30:22Z</time></trkpt><trkpt lat="44.19377126135937" lon="11.463143098652974"><ele>817.0</ele><time>2026-04-30T08:30:23Z</time></trkpt><trkpt lat="44.19370090110639" lon="11.463023913013918"><ele>817.0</ele><time>2026-04-30T08:30:25Z</time></trkpt><trkpt lat="44.19360434879803" lon="11.463038464286733"><ele>817.0</ele><time>2026-04-30T08:30:28Z</time></trkpt><trkpt lat="44.19351808701689" lon="11.4630815058562"><ele>817.0</ele><time>2026-04-30T08:30:30Z</time></trkpt><trkpt lat="44.193426269405464" lon="11.463004441252481"><ele>817.0</ele><time>2026-04-30T08:30:32Z</time></trkpt><trkpt lat="44.19334146932102" lon="11.462894654668393"><ele>817.0</ele><time>2026-04-30T08:30:34Z</time></trkpt><trkpt lat="44.193275382847695" lon="11.46278848459955"><ele>816.9999999999999</ele><time>2026-04-30T08:30:36Z</time></trkpt><trkpt lat="44.19323313738387" lon="11.462716076486485"><ele>817.0</ele><time>2026-04-30T08:30:37Z</time></trkpt><trkpt lat="44.19319052916781" lon="11.46264374410425"><ele>817.0</ele><time>2026-04-30T08:30:39Z</time></trkpt><trkpt lat="44.193144760642326" lon="11.4625464130906"><ele>817.0</ele><time>2026-04-30T08:30:43Z</time></trkpt><trkpt lat="44.19318162038599" lon="11.462444847102239"><ele>816.9999999999999</ele><time>2026-04-30T08:30:46Z</time></trkpt><trkpt lat="44.193261864191506" lon="11.462403944753477"><ele>817.0</ele><time>2026-04-30T08:30:49Z</time></trkpt><trkpt lat="44.19332480221692" lon="11.46230370933413"><ele>819.3333333333333</ele><time>2026-04-30T08:31:01Z</time></trkpt><trkpt lat="44.19337905076579" lon="11.462229982165121"><ele>821.6666666666666</ele><time>2026-04-30T08:31:02Z</time></trkpt><trkpt lat="44.193426720301275" lon="11.462155601642538"><ele>824.0</ele><time>2026-04-30T08:31:03Z</time></trkpt><trkpt lat="44.19347281351905" lon="11.46207926211847"><ele>826.3333333333333</ele><time>2026-04-30T08:31:04Z</time></trkpt><trkpt lat="44.19345096542154" lon="11.461984338698313"><ele>828.6666666666666</ele><time>2026-04-30T08:31:06Z</time></trkpt><trkpt lat="44.193401625674355" lon="11.461852546038664"><ele>831.0</ele><time>2026-04-30T08:31:08Z</time></trkpt><trkpt lat="44.19337275748887" lon="11.461773443459695"><ele>832.5999999999999</ele><time>2026-04-30T08:31:09Z</time></trkpt><trkpt lat="44.19333993688101" lon="11.461647360290259"><ele>834.2</ele><time>2026-04-30T08:31:10Z</time></trkpt><trkpt lat="44.19330851767" lon="11.461534289332961"><ele>835.8</ele><time>2026-04-30T08:31:11Z</time></trkpt><trkpt lat="44.19322915087597" lon="11.461438636483976"><ele>837.4000000000001</ele><time>2026-04-30T08:31:13Z</time></trkpt><trkpt lat="44.19317265764588" lon="11.461293675851737"><ele>839.0</ele><time>2026-04-30T08:31:15Z</time></trkpt><trkpt lat="44.19316680869103" lon="11.46120478188165"><ele>837.6</ele><time>2026-04-30T08:31:16Z</time></trkpt><trkpt lat="44.19317372024232" lon="11.461034082068323"><ele>836.2</ele><time>2026-04-30T08:31:18Z</time></trkpt><trkpt lat="44.193206235565505" lon="11.460949694044182"><ele>834.8000000000001</ele><time>2026-04-30T08:31:19Z</time></trkpt><trkpt lat="44.19327480395321" lon="11.460834858587695"><ele>833.4000000000001</ele><time>2026-04-30T08:31:20Z</time></trkpt><trkpt lat="44.19333163170461" lon="11.460766044901831"><ele>832.0</ele><time>2026-04-30T08:31:21Z</time></trkpt><trkpt lat="44.193455439957525" lon="11.46074118227092"><ele>831.9999999999999</ele><time>2026-04-30T08:31:23Z</time></trkpt><trkpt lat="44.193561379018604" lon="11.460717538325385"><ele>832.0</ele><time>2026-04-30T08:31:24Z</time></trkpt><trkpt lat="44.19363550144234" lon="11.460695391934031"><ele>832.0</ele><time>2026-04-30T08:31:25Z</time></trkpt><trkpt lat="44.193738746332066" lon="11.460647672505255"><ele>832.0</ele><time>2026-04-30T08:31:27Z</time></trkpt><trkpt lat="44.19379387752487" lon="11.460595214169576"><ele>831.9999999999999</ele><time>2026-04-30T08:31:28Z</time></trkpt><trkpt lat="44.19385132408311" lon="11.460555908967615"><ele>832.0</ele><time>2026-04-30T08:31:29Z</time></trkpt><trkpt lat="44.193967050197855" lon="11.460524525316817"><ele>831.8</ele><time>2026-04-30T08:31:31Z</time></trkpt><trkpt lat="44.19404211830456" lon="11.460481241696709"><ele>831.6</ele><time>2026-04-30T08:31:33Z</time></trkpt><trkpt lat="44.19409885468638" lon="11.460398303803316"><ele>831.4</ele><time>2026-04-30T08:31:35Z</time></trkpt><trkpt lat="44.19417975578168" lon="11.460306324738864"><ele>831.1999999999999</ele><time>2026-04-30T08:31:37Z</time></trkpt><trkpt lat="44.1942722838659" lon="11.460275204925555"><ele>831.0</ele><time>2026-04-30T08:31:39Z</time></trkpt><trkpt lat="44.194379118672536" lon="11.460224176758885"><ele>831.0</ele><time>2026-04-30T08:31:41Z</time></trkpt><trkpt lat="44.19446478223893" lon="11.460165018357381"><ele>831.0</ele><time>2026-04-30T08:31:43Z</time></trkpt><trkpt lat="44.19444874391587" lon="11.460031259485778"><ele>831.0</ele><time>2026-04-30T08:31:45Z</time></trkpt><trkpt lat="44.19444158993626" lon="11.459867040865094"><ele>831.0</ele><time>2026-04-30T08:31:47Z</time></trkpt><trkpt lat="44.194426724407414" lon="11.459708705308554"><ele>831.0</ele><time>2026-04-30T08:31:49Z</time></trkpt><trkpt lat="44.19441428590275" lon="11.459607145025055"><ele>829.1999999999999</ele><time>2026-04-30T08:31:50Z</time></trkpt><trkpt lat="44.194417671137124" lon="11.459463699579945"><ele>827.4</ele><time>2026-04-30T08:31:52Z</time></trkpt><trkpt lat="44.194506259794004" lon="11.459482352301608"><ele>825.6</ele><time>2026-04-30T08:31:55Z</time></trkpt><trkpt lat="44.19455881348453" lon="11.459559924806136"><ele>823.8</ele><time>2026-04-30T08:31:57Z</time></trkpt><trkpt lat="44.19464694649716" lon="11.459578783911882"><ele>822.0</ele><time>2026-04-30T08:31:59Z</time></trkpt><trkpt lat="44.194755840924905" lon="11.459522904149255"><ele>822.0</ele><time>2026-04-30T08:32:01Z</time></trkpt><trkpt lat="44.19482429724534" lon="11.459506016280208"><ele>822.0</ele><time>2026-04-30T08:32:02Z</time></trkpt><trkpt lat="44.19490563380576" lon="11.459500663012237"><ele>822.0</ele><time>2026-04-30T08:32:03Z</time></trkpt><trkpt lat="44.19500735428748" lon="11.459496157506907"><ele>822.0</ele><time>2026-04-30T08:32:05Z</time></trkpt><trkpt lat="44.195101272949316" lon="11.459480302914361"><ele>822.0</ele><time>2026-04-30T08:32:07Z</time></trkpt><trkpt lat="44.195182163419396" lon="11.459497478676031"><ele>822.0</ele><time>2026-04-30T08:32:09Z</time></trkpt><trkpt lat="44.19530956493313" lon="11.459447490385145"><ele>824.3333333333334</ele><time>2026-04-30T08:32:11Z</time></trkpt><trkpt lat="44.19538429817329" lon="11.459385648169738"><ele>826.6666666666667</ele><time>2026-04-30T08:32:12Z</time></trkpt><trkpt lat="44.19543787347317" lon="11.459329341325406"><ele>829.0</ele><time>2026-04-30T08:32:13Z</time></trkpt><trkpt lat="44.195504114085686" lon="11.459309022519102"><ele>831.3333333333334</ele><time>2026-04-30T08:32:14Z</time></trkpt><trkpt lat="44.195560110615844" lon="11.459263363186867"><ele>833.6666666666667</ele><time>2026-04-30T08:32:15Z</time></trkpt><trkpt lat="44.195661650513095" lon="11.459157763581949"><ele>836.0</ele><time>2026-04-30T08:32:17Z</time></trkpt><trkpt lat="44.19571746532559" lon="11.459109716230381"><ele>836.0</ele><time>2026-04-30T08:32:18Z</time></trkpt><trkpt lat="44.195833393718125" lon="11.459050973592266"><ele>836.0</ele><time>2026-04-30T08:32:20Z</time></trkpt><trkpt lat="44.19589048117343" lon="11.459012112748747"><ele>836.0</ele><time>2026-04-30T08:32:21Z</time></trkpt><trkpt lat="44.195990710647536" lon="11.45895857327352"><ele>836.0</ele><time>2026-04-30T08:32:23Z</time></trkpt><trkpt lat="44.19608139883204" lon="11.458907239077375"><ele>836.0</ele><time>2026-04-30T08:32:25Z</time></trkpt><trkpt lat="44.19617548113804" lon="11.45886259255226"><ele>836.0</ele><time>2026-04-30T08:32:27Z</time></trkpt><trkpt lat="44.19629106633899" lon="11.458840053415033"><ele>836.0</ele><time>2026-04-30T08:32:29Z</time></trkpt><trkpt lat="44.196362540753334" lon="11.458825391593793"><ele>836.0</ele><time>2026-04-30T08:32:30Z</time></trkpt><trkpt lat="44.19646214548318" lon="11.458870514382372"><ele>836.0</ele><time>2026-04-30T08:32:32Z</time></trkpt><trkpt lat="44.19652391744706" lon="11.458941549484996"><ele>836.0</ele><time>2026-04-30T08:32:34Z</time></trkpt><trkpt lat="44.19659580612896" lon="11.459060907158538"><ele>836.4</ele><time>2026-04-30T08:32:37Z</time></trkpt><trkpt lat="44.19667803462652" lon="11.459126787664141"><ele>836.8</ele><time>2026-04-30T08:32:39Z</time></trkpt><trkpt lat="44.196744599397135" lon="11.459095876113542"><ele>837.1999999999999</ele><time>2026-04-30T08:32:40Z</time></trkpt><trkpt lat="44.196832828801035" lon="11.459042971009856"><ele>837.5999999999999</ele><time>2026-04-30T08:32:41Z</time></trkpt><trkpt lat="44.19689765442218" lon="11.459004084074069"><ele>838.0</ele><time>2026-04-30T08:32:42Z</time></trkpt><trkpt lat="44.19701797864659" lon="11.458975452710174"><ele>838.0</ele><time>2026-04-30T08:32:44Z</time></trkpt><trkpt lat="44.19716191525183" lon="11.459009443694045"><ele>838.0</ele><time>2026-04-30T08:32:46Z</time></trkpt><trkpt lat="44.197254514547815" lon="11.459066733673009"><ele>838.0</ele><time>2026-04-30T08:32:47Z</time></trkpt><trkpt lat="44.19732731895773" lon="11.459077643699956"><ele>838.0</ele><time>2026-04-30T08:32:48Z</time></trkpt><trkpt lat="44.19741620577132" lon="11.459000235535996"><ele>838.0</ele><time>2026-04-30T08:32:50Z</time></trkpt><trkpt lat="44.197466660470894" lon="11.458946114937461"><ele>837.6666666666666</ele><time>2026-04-30T08:32:51Z</time></trkpt><trkpt lat="44.19752524479792" lon="11.458911002053988"><ele>837.3333333333333</ele><time>2026-04-30T08:32:52Z</time></trkpt><trkpt lat="44.197622909494065" lon="11.458841062231894"><ele>837.0</ele><time>2026-04-30T08:32:54Z</time></trkpt><trkpt lat="44.19771653209951" lon="11.458806271711703"><ele>836.6666666666667</ele><time>2026-04-30T08:32:56Z</time></trkpt><trkpt lat="44.19779227592347" lon="11.458768237791016"><ele>836.3333333333334</ele><time>2026-04-30T08:32:58Z</time></trkpt><trkpt lat="44.19786163368207" lon="11.458749163091055"><ele>836.0</ele><time>2026-04-30T08:33:01Z</time></trkpt><trkpt lat="44.197936766458994" lon="11.45869720517238"><ele>835.75</ele><time>2026-04-30T08:33:10Z</time></trkpt><trkpt lat="44.19802123615196" lon="11.458639125835912"><ele>835.5</ele><time>2026-04-30T08:33:11Z</time></trkpt><trkpt lat="44.19813378184864" lon="11.458547049178094"><ele>835.25</ele><time>2026-04-30T08:33:12Z</time></trkpt><trkpt lat="44.19826141480498" lon="11.458464371372925"><ele>835.0</ele><time>2026-04-30T08:33:13Z</time></trkpt><trkpt lat="44.19836052474982" lon="11.458394385554938"><ele>835.0</ele><time>2026-04-30T08:33:14Z</time></trkpt><trkpt lat="44.198444888557" lon="11.458304400530995"><ele>835.0</ele><time>2026-04-30T08:33:15Z</time></trkpt><trkpt lat="44.19851911872325" lon="11.458200199034842"><ele>835.0</ele><time>2026-04-30T08:33:16Z</time></trkpt><trkpt lat="44.198581142822356" lon="11.458117620002138"><ele>835.0</ele><time>2026-04-30T08:33:17Z</time></trkpt><trkpt lat="44.19863254739742" lon="11.45802574043089"><ele>835.0</ele><time>2026-04-30T08:33:18Z</time></trkpt><trkpt lat="44.19866410188521" lon="11.457933446997835"><ele>833.8</ele><time>2026-04-30T08:33:19Z</time></trkpt><trkpt lat="44.19871068384671" lon="11.457860343608393"><ele>832.6</ele><time>2026-04-30T08:33:20Z</time></trkpt><trkpt lat="44.19875255972565" lon="11.457717807733511"><ele>831.4000000000001</ele><time>2026-04-30T08:33:22Z</time></trkpt><trkpt lat="44.198791904096275" lon="11.457576523151886"><ele>830.2</ele><time>2026-04-30T08:33:24Z</time></trkpt><trkpt lat="44.19886872218703" lon="11.457445371967522"><ele>829.0</ele><time>2026-04-30T08:33:26Z</time></trkpt><trkpt lat="44.198941852378184" lon="11.457386953116202"><ele>830.9999999999999</ele><time>2026-04-30T08:33:27Z</time></trkpt><trkpt lat="44.199023462682334" lon="11.457353159094463"><ele>833.0</ele><time>2026-04-30T08:33:29Z</time></trkpt><trkpt lat="44.19907818205401" lon="11.457304038924626"><ele>835.0</ele><time>2026-04-30T08:33:30Z</time></trkpt><trkpt lat="44.19912651693865" lon="11.457234751821131"><ele>837.0</ele><time>2026-04-30T08:33:31Z</time></trkpt><trkpt lat="44.199197082825165" lon="11.45709257257053"><ele>838.9999999999999</ele><time>2026-04-30T08:33:33Z</time></trkpt><trkpt lat="44.19925525859263" lon="11.457017288041207"><ele>841.0</ele><time>2026-04-30T08:33:34Z</time></trkpt><trkpt lat="44.19928883656623" lon="11.456921712395369"><ele>840.9999999999999</ele><time>2026-04-30T08:33:36Z</time></trkpt><trkpt lat="44.19935307694212" lon="11.456850485645404"><ele>841.0</ele><time>2026-04-30T08:33:44Z</time></trkpt><trkpt lat="44.19942462994968" lon="11.456752017439284"><ele>841.0</ele><time>2026-04-30T08:33:47Z</time></trkpt><trkpt lat="44.19945719862891" lon="11.45664368749882"><ele>841.0</ele><time>2026-04-30T08:33:49Z</time></trkpt><trkpt lat="44.199520613841386" lon="11.456548529973437"><ele>840.9999999999999</ele><time>2026-04-30T08:33:51Z</time></trkpt><trkpt lat="44.19957269896379" lon="11.45647565434896"><ele>841.0</ele><time>2026-04-30T08:33:53Z</time></trkpt><trkpt lat="44.199595514366266" lon="11.456354548232525"><ele>842.1666666666666</ele><time>2026-04-30T08:33:55Z</time></trkpt><trkpt lat="44.19958376305451" lon="11.456186217234439"><ele>843.3333333333333</ele><time>2026-04-30T08:33:57Z</time></trkpt><trkpt lat="44.199580476041994" lon="11.456065545496354"><ele>844.5</ele><time>2026-04-30T08:33:58Z</time></trkpt><trkpt lat="44.19959177063168" lon="11.455962247759704"><ele>845.6666666666667</ele><time>2026-04-30T08:33:59Z</time></trkpt><trkpt lat="44.19957876973173" lon="11.455859071240855"><ele>846.8333333333334</ele><time>2026-04-30T08:34:00Z</time></trkpt><trkpt lat="44.19956090134077" lon="11.455742555179116"><ele>848.0</ele><time>2026-04-30T08:34:01Z</time></trkpt><trkpt lat="44.19954141539998" lon="11.45561549142026"><ele>848.0</ele><time>2026-04-30T08:34:02Z</time></trkpt><trkpt lat="44.19951282759663" lon="11.455501183218649"><ele>848.0</ele><time>2026-04-30T08:34:03Z</time></trkpt><trkpt lat="44.1994893398366" lon="11.455418316370862"><ele>848.0</ele><time>2026-04-30T08:34:04Z</time></trkpt><trkpt lat="44.19945098648329" lon="11.455299982932276"><ele>848.0</ele><time>2026-04-30T08:34:07Z</time></trkpt><trkpt lat="44.19939520878892" lon="11.455139315273913"><ele>848.0</ele><time>2026-04-30T08:34:09Z</time></trkpt><trkpt lat="44.19930004281635" lon="11.455027305805364"><ele>851.0</ele><time>2026-04-30T08:34:10Z</time></trkpt><trkpt lat="44.19914088042428" lon="11.45498287510621"><ele>854.0</ele><time>2026-04-30T08:34:11Z</time></trkpt><trkpt lat="44.199037258177235" lon="11.454993608584244"><ele>857.0</ele><time>2026-04-30T08:34:12Z</time></trkpt><trkpt lat="44.19894550395716" lon="11.454975066799118"><ele>860.0</ele><time>2026-04-30T08:34:14Z</time></trkpt><trkpt lat="44.198818771654814" lon="11.454915913186879"><ele>860.0000000000001</ele><time>2026-04-30T08:34:17Z</time></trkpt><trkpt lat="44.198753297249766" lon="11.454887010013689"><ele>860.0</ele><time>2026-04-30T08:34:18Z</time></trkpt><trkpt lat="44.19868984507198" lon="11.454847513308053"><ele>860.0</ele><time>2026-04-30T08:34:19Z</time></trkpt><trkpt lat="44.19861620882675" lon="11.454773528605635"><ele>860.0</ele><time>2026-04-30T08:34:20Z</time></trkpt><trkpt lat="44.198550028912045" lon="11.454715204931265"><ele>860.0000000000001</ele><time>2026-04-30T08:34:21Z</time></trkpt><trkpt lat="44.198457194253" lon="11.454652464237258"><ele>860.0</ele><time>2026-04-30T08:34:23Z</time></trkpt><trkpt lat="44.198381675065825" lon="11.454542757309715"><ele>862.3333333333334</ele><time>2026-04-30T08:34:25Z</time></trkpt><trkpt lat="44.1983073538023" lon="11.454488159127461"><ele>864.6666666666667</ele><time>2026-04-30T08:34:27Z</time></trkpt><trkpt lat="44.19822637559164" lon="11.454405466082891"><ele>867.0</ele><time>2026-04-30T08:34:30Z</time></trkpt><trkpt lat="44.19816966763307" lon="11.454353806477018"><ele>869.3333333333333</ele><time>2026-04-30T08:34:32Z</time></trkpt><trkpt lat="44.198110676443605" lon="11.45426175857083"><ele>871.6666666666666</ele><time>2026-04-30T08:34:34Z</time></trkpt><trkpt lat="44.198073651715234" lon="11.454140778042582"><ele>874.0</ele><time>2026-04-30T08:34:37Z</time></trkpt><trkpt lat="44.198148502674655" lon="11.454144770368941"><ele>873.9999999999999</ele><time>2026-04-30T08:38:12Z</time></trkpt><trkpt lat="44.19823862047744" lon="11.454190803800646"><ele>874.0</ele><time>2026-04-30T08:38:14Z</time></trkpt><trkpt lat="44.198301404325875" lon="11.454180703334087"><ele>874.0</ele><time>2026-04-30T08:38:16Z</time></trkpt><trkpt lat="44.19839633852437" lon="11.454156838421016"><ele>874.0</ele><time>2026-04-30T08:38:19Z</time></trkpt><trkpt lat="44.1984546899559" lon="11.454234267044907"><ele>873.9999999999999</ele><time>2026-04-30T08:38:21Z</time></trkpt><trkpt lat="44.19849969802035" lon="11.454306003112736"><ele>874.0</ele><time>2026-04-30T08:38:22Z</time></trkpt><trkpt lat="44.198583545986075" lon="11.45426706645937"><ele>873.9999999999999</ele><time>2026-04-30T08:38:35Z</time></trkpt><trkpt lat="44.1986490935181" lon="11.454276638523847"><ele>874.0</ele><time>2026-04-30T08:38:37Z</time></trkpt><trkpt lat="44.19872363029717" lon="11.454289601075583"><ele>874.0</ele><time>2026-04-30T08:38:39Z</time></trkpt><trkpt lat="44.19879294978734" lon="11.454262088259092"><ele>874.0</ele><time>2026-04-30T08:38:41Z</time></trkpt><trkpt lat="44.19888472156495" lon="11.45430784427855"><ele>873.9999999999999</ele><time>2026-04-30T08:38:44Z</time></trkpt><trkpt lat="44.19894493130366" lon="11.454344966902875"><ele>874.0</ele><time>2026-04-30T08:38:46Z</time></trkpt><trkpt lat="44.199015202243274" lon="11.454403213560319"><ele>874.9999999999999</ele><time>2026-04-30T08:38:48Z</time></trkpt><trkpt lat="44.19909755751172" lon="11.454439441899456"><ele>876.0</ele><time>2026-04-30T08:38:50Z</time></trkpt><trkpt lat="44.19916726125477" lon="11.454435108823853"><ele>877.0</ele><time>2026-04-30T08:38:54Z</time></trkpt><trkpt lat="44.199103384296535" lon="11.454435170589885"><ele>878.0</ele><time>2026-04-30T08:39:13Z</time></trkpt><trkpt lat="44.199188537282446" lon="11.454445398250922"><ele>878.9999999999999</ele><time>2026-04-30T08:39:33Z</time></trkpt><trkpt lat="44.19928417935787" lon="11.454451716846563"><ele>880.0</ele><time>2026-04-30T08:39:35Z</time></trkpt><trkpt lat="44.19940185533833" lon="11.454446712112514"><ele>879.9999999999999</ele><time>2026-04-30T08:39:37Z</time></trkpt><trkpt lat="44.199469553848616" lon="11.45444482358792"><ele>880.0</ele><time>2026-04-30T08:39:39Z</time></trkpt><trkpt lat="44.19953721537214" lon="11.454412424854366"><ele>880.0</ele><time>2026-04-30T08:39:41Z</time></trkpt><trkpt lat="44.199597379870426" lon="11.454379958856721"><ele>880.0</ele><time>2026-04-30T08:39:43Z</time></trkpt><trkpt lat="44.199699677934646" lon="11.454311705036314"><ele>879.9999999999999</ele><time>2026-04-30T08:39:51Z</time></trkpt><trkpt lat="44.19978029736534" lon="11.454285204483"><ele>880.0</ele><time>2026-04-30T08:39:52Z</time></trkpt><trkpt lat="44.19984674288177" lon="11.454272437624908"><ele>882.8333333333333</ele><time>2026-04-30T08:39:53Z</time></trkpt><trkpt lat="44.19994294831605" lon="11.454323089716551"><ele>885.6666666666666</ele><time>2026-04-30T08:39:55Z</time></trkpt><trkpt lat="44.19994974182659" lon="11.454459373031769"><ele>888.5</ele><time>2026-04-30T08:39:57Z</time></trkpt><trkpt lat="44.19995767568109" lon="11.454550380445536"><ele>891.3333333333333</ele><time>2026-04-30T08:39:59Z</time></trkpt><trkpt lat="44.200038917005806" lon="11.454476771231402"><ele>894.1666666666666</ele><time>2026-04-30T08:40:56Z</time></trkpt><trkpt lat="44.20011486030128" lon="11.454421195515936"><ele>897.0</ele><time>2026-04-30T08:40:58Z</time></trkpt><trkpt lat="44.20020099692511" lon="11.454431872869808"><ele>897.0</ele><time>2026-04-30T08:41:00Z</time></trkpt><trkpt lat="44.20025532960017" lon="11.454485824532764"><ele>897.0</ele><time>2026-04-30T08:41:02Z</time></trkpt><trkpt lat="44.200339936887204" lon="11.45447217572373"><ele>897.0</ele><time>2026-04-30T08:41:06Z</time></trkpt><trkpt lat="44.200415849267756" lon="11.454465700948216"><ele>897.0</ele><time>2026-04-30T08:41:08Z</time></trkpt><trkpt lat="44.20049623609848" lon="11.454470518264916"><ele>897.0</ele><time>2026-04-30T08:41:10Z</time></trkpt><trkpt lat="44.20055349781071" lon="11.454427237511558"><ele>897.0</ele><time>2026-04-30T08:41:11Z</time></trkpt><trkpt lat="44.200673039218366" lon="11.454339396441211"><ele>901.4000000000001</ele><time>2026-04-30T08:41:13Z</time></trkpt><trkpt lat="44.20075565683066" lon="11.454302556932737"><ele>905.8000000000001</ele><time>2026-04-30T08:41:14Z</time></trkpt><trkpt lat="44.20082318753864" lon="11.454281708426366"><ele>910.2</ele><time>2026-04-30T08:41:15Z</time></trkpt><trkpt lat="44.200825902804446" lon="11.454193222395588"><ele>914.6</ele><time>2026-04-30T08:41:18Z</time></trkpt><trkpt lat="44.200837316102465" lon="11.454093833582931"><ele>919.0</ele><time>2026-04-30T08:41:20Z</time></trkpt><trkpt lat="44.20089878927775" lon="11.453705819734155"><ele>919.1666666666666</ele><time>2026-04-30T08:41:22Z</time></trkpt><trkpt lat="44.20098622952181" lon="11.453577505257416"><ele>919.3333333333333</ele><time>2026-04-30T08:41:23Z</time></trkpt><trkpt lat="44.20103337264439" lon="11.453453346686894"><ele>919.5</ele><time>2026-04-30T08:41:24Z</time></trkpt><trkpt lat="44.201042113875054" lon="11.4533421547372"><ele>919.6666666666667</ele><time>2026-04-30T08:41:25Z</time></trkpt><trkpt lat="44.20103190676774" lon="11.453245860487824"><ele>919.8333333333334</ele><time>2026-04-30T08:41:27Z</time></trkpt><trkpt lat="44.201091470858756" lon="11.453197723975187"><ele>920.0</ele><time>2026-04-30T08:41:29Z</time></trkpt><trkpt lat="44.20112475945407" lon="11.453087505937651"><ele>920.0</ele><time>2026-04-30T08:41:31Z</time></trkpt><trkpt lat="44.20114392797066" lon="11.452971206951048"><ele>920.0</ele><time>2026-04-30T08:41:33Z</time></trkpt><trkpt lat="44.20114086083489" lon="11.452836245501656"><ele>920.0</ele><time>2026-04-30T08:41:35Z</time></trkpt><trkpt lat="44.201138757463255" lon="11.4527319901139"><ele>920.0</ele><time>2026-04-30T08:41:36Z</time></trkpt><trkpt lat="44.20111763013188" lon="11.452564614088532"><ele>920.0</ele><time>2026-04-30T08:41:38Z</time></trkpt><trkpt lat="44.20107519019391" lon="11.45247631732946"><ele>920.8333333333334</ele><time>2026-04-30T08:41:39Z</time></trkpt><trkpt lat="44.20102867846212" lon="11.452396697176866"><ele>921.6666666666667</ele><time>2026-04-30T08:41:40Z</time></trkpt><trkpt lat="44.20101722559364" lon="11.452259589336645"><ele>922.5</ele><time>2026-04-30T08:41:42Z</time></trkpt><trkpt lat="44.200982195235866" lon="11.452141429522557"><ele>923.3333333333333</ele><time>2026-04-30T08:41:43Z</time></trkpt><trkpt lat="44.200951721543966" lon="11.452057683003531"><ele>924.1666666666666</ele><time>2026-04-30T08:41:44Z</time></trkpt><trkpt lat="44.200938845360604" lon="11.451912621626484"><ele>925.0</ele><time>2026-04-30T08:41:46Z</time></trkpt><trkpt lat="44.20093029192538" lon="11.451825364625531"><ele>925.3333333333333</ele><time>2026-04-30T08:41:47Z</time></trkpt><trkpt lat="44.20087705503943" lon="11.451721856715558"><ele>925.6666666666666</ele><time>2026-04-30T08:41:48Z</time></trkpt><trkpt lat="44.20083611208647" lon="11.451620100674047"><ele>926.0</ele><time>2026-04-30T08:41:49Z</time></trkpt><trkpt lat="44.20080986097085" lon="11.451511348007188"><ele>926.3333333333333</ele><time>2026-04-30T08:41:50Z</time></trkpt><trkpt lat="44.200766290814585" lon="11.451404001009395"><ele>926.6666666666666</ele><time>2026-04-30T08:41:51Z</time></trkpt><trkpt lat="44.20071820831919" lon="11.451298203719698"><ele>927.0</ele><time>2026-04-30T08:41:52Z</time></trkpt><trkpt lat="44.20066297685568" lon="11.451208799650885"><ele>925.0</ele><time>2026-04-30T08:41:53Z</time></trkpt><trkpt lat="44.200647433380695" lon="11.451086102741705"><ele>923.0</ele><time>2026-04-30T08:41:54Z</time></trkpt><trkpt lat="44.20064866395006" lon="11.450953363020991"><ele>921.0</ele><time>2026-04-30T08:41:55Z</time></trkpt><trkpt lat="44.20065881801046" lon="11.45084942978732"><ele>919.0</ele><time>2026-04-30T08:41:56Z</time></trkpt><trkpt lat="44.20063746909696" lon="11.450714421045973"><ele>917.0</ele><time>2026-04-30T08:41:58Z</time></trkpt><trkpt lat="44.20058705620649" lon="11.45054258742221"><ele>916.3333333333334</ele><time>2026-04-30T08:42:00Z</time></trkpt><trkpt lat="44.200570005929265" lon="11.45045105499095"><ele>915.6666666666667</ele><time>2026-04-30T08:42:01Z</time></trkpt><trkpt lat="44.20055220231418" lon="11.450360904435513"><ele>915.0</ele><time>2026-04-30T08:42:02Z</time></trkpt><trkpt lat="44.20052453533261" lon="11.450205991011407"><ele>914.3333333333333</ele><time>2026-04-30T08:42:04Z</time></trkpt><trkpt lat="44.20050280102076" lon="11.450104324581442"><ele>913.6666666666666</ele><time>2026-04-30T08:42:05Z</time></trkpt><trkpt lat="44.20046769462111" lon="11.450012845353578"><ele>913.0</ele><time>2026-04-30T08:42:06Z</time></trkpt><trkpt lat="44.20047795802999" lon="11.44991564073249"><ele>912.9999999999999</ele><time>2026-04-30T08:42:07Z</time></trkpt><trkpt lat="44.200467486233954" lon="11.449802632183976"><ele>913.0</ele><time>2026-04-30T08:42:08Z</time></trkpt><trkpt lat="44.20045167647633" lon="11.449678209916371"><ele>913.0</ele><time>2026-04-30T08:42:09Z</time></trkpt><trkpt lat="44.20041894407282" lon="11.449569447582993"><ele>913.0</ele><time>2026-04-30T08:42:10Z</time></trkpt><trkpt lat="44.20038905842007" lon="11.44946641602392"><ele>912.9999999999999</ele><time>2026-04-30T08:42:11Z</time></trkpt><trkpt lat="44.2003773409235" lon="11.449356969090077"><ele>913.0</ele><time>2026-04-30T08:42:12Z</time></trkpt><trkpt lat="44.20038692196783" lon="11.449260774012501"><ele>913.1666666666666</ele><time>2026-04-30T08:42:13Z</time></trkpt><trkpt lat="44.200409361831625" lon="11.449108593423999"><ele>913.3333333333333</ele><time>2026-04-30T08:42:15Z</time></trkpt><trkpt lat="44.200402785889004" lon="11.44899920285511"><ele>913.5</ele><time>2026-04-30T08:42:17Z</time></trkpt><trkpt lat="44.20036826309258" lon="11.448922251965472"><ele>913.6666666666667</ele><time>2026-04-30T08:42:18Z</time></trkpt><trkpt lat="44.200331623545175" lon="11.448841811753626"><ele>913.8333333333334</ele><time>2026-04-30T08:42:19Z</time></trkpt><trkpt lat="44.20028223806784" lon="11.44869463986361"><ele>914.0</ele><time>2026-04-30T08:42:21Z</time></trkpt><trkpt lat="44.200241822209094" lon="11.448617890024266"><ele>913.8000000000001</ele><time>2026-04-30T08:42:24Z</time></trkpt><trkpt lat="44.20017141930435" lon="11.448514303385235"><ele>913.6000000000001</ele><time>2026-04-30T08:42:30Z</time></trkpt><trkpt lat="44.20007694188687" lon="11.448429709309943"><ele>913.4</ele><time>2026-04-30T08:42:32Z</time></trkpt><trkpt lat="44.19999847639166" lon="11.448344317443457"><ele>913.2</ele><time>2026-04-30T08:42:33Z</time></trkpt><trkpt lat="44.19990603466337" lon="11.448271399209812"><ele>913.0</ele><time>2026-04-30T08:42:34Z</time></trkpt><trkpt lat="44.199832177427375" lon="11.448199408082715"><ele>913.0</ele><time>2026-04-30T08:42:35Z</time></trkpt><trkpt lat="44.19973212847663" lon="11.448113393667413"><ele>913.0</ele><time>2026-04-30T08:42:36Z</time></trkpt><trkpt lat="44.19967812473361" lon="11.448011269335613"><ele>913.0</ele><time>2026-04-30T08:42:37Z</time></trkpt><trkpt lat="44.199621430732854" lon="11.447897172131514"><ele>913.0</ele><time>2026-04-30T08:42:38Z</time></trkpt><trkpt lat="44.19954794950745" lon="11.447786061951707"><ele>913.0</ele><time>2026-04-30T08:42:39Z</time></trkpt><trkpt lat="44.199492251977816" lon="11.44769511298185"><ele>915.4999999999999</ele><time>2026-04-30T08:42:40Z</time></trkpt><trkpt lat="44.19944392769787" lon="11.447621215798058"><ele>918.0</ele><time>2026-04-30T08:42:41Z</time></trkpt><trkpt lat="44.199402680045004" lon="11.447469044220034"><ele>920.5</ele><time>2026-04-30T08:42:43Z</time></trkpt><trkpt lat="44.199399689193655" lon="11.447381271228005"><ele>923.0</ele><time>2026-04-30T08:42:44Z</time></trkpt><trkpt lat="44.19934631985388" lon="11.447290973715262"><ele>925.4999999999999</ele><time>2026-04-30T08:42:48Z</time></trkpt><trkpt lat="44.19927034399302" lon="11.447194054301928"><ele>928.0</ele><time>2026-04-30T08:42:50Z</time></trkpt><trkpt lat="44.19925774482042" lon="11.447084118487734"><ele>928.9999999999999</ele><time>2026-04-30T08:42:51Z</time></trkpt><trkpt lat="44.199236045703024" lon="11.446957043008627"><ele>930.0</ele><time>2026-04-30T08:42:52Z</time></trkpt><trkpt lat="44.19921540734822" lon="11.446848978464413"><ele>931.0</ele><time>2026-04-30T08:42:53Z</time></trkpt><trkpt lat="44.199196859474945" lon="11.446748542345288"><ele>932.0</ele><time>2026-04-30T08:42:54Z</time></trkpt><trkpt lat="44.19918497365947" lon="11.446662086225452"><ele>932.9999999999999</ele><time>2026-04-30T08:42:55Z</time></trkpt><trkpt lat="44.19918731731006" lon="11.44656038186493"><ele>934.0</ele><time>2026-04-30T08:42:56Z</time></trkpt><trkpt lat="44.19917764581979" lon="11.446427232358863"><ele>934.0</ele><time>2026-04-30T08:42:57Z</time></trkpt><trkpt lat="44.19920439945433" lon="11.446310601245933"><ele>934.0000000000001</ele><time>2026-04-30T08:42:58Z</time></trkpt><trkpt lat="44.19917309662013" lon="11.446168220994236"><ele>934.0000000000001</ele><time>2026-04-30T08:43:00Z</time></trkpt><trkpt lat="44.19915274926729" lon="11.44608034365622"><ele>934.0</ele><time>2026-04-30T08:43:02Z</time></trkpt><trkpt lat="44.19913278266676" lon="11.445954271396918"><ele>934.0</ele><time>2026-04-30T08:43:17Z</time></trkpt><trkpt lat="44.199116132714025" lon="11.445804975069867"><ele>934.6666666666666</ele><time>2026-04-30T08:43:19Z</time></trkpt><trkpt lat="44.19913142042301" lon="11.44570050594911"><ele>935.3333333333333</ele><time>2026-04-30T08:43:20Z</time></trkpt><trkpt lat="44.19915075050142" lon="11.445614227282537"><ele>936.0</ele><time>2026-04-30T08:43:21Z</time></trkpt><trkpt lat="44.199174130562376" lon="11.445487333756315"><ele>936.6666666666667</ele><time>2026-04-30T08:43:22Z</time></trkpt><trkpt lat="44.19920027864188" lon="11.445390937971455"><ele>937.3333333333334</ele><time>2026-04-30T08:43:23Z</time></trkpt><trkpt lat="44.19923067073127" lon="11.445205044793713"><ele>938.0</ele><time>2026-04-30T08:43:25Z</time></trkpt><trkpt lat="44.19922328641169" lon="11.445113815406561"><ele>940.5000000000001</ele><time>2026-04-30T08:43:26Z</time></trkpt><trkpt lat="44.199218852634196" lon="11.445023846642483"><ele>943.0</ele><time>2026-04-30T08:43:27Z</time></trkpt><trkpt lat="44.19921134488722" lon="11.444911418915856"><ele>945.5</ele><time>2026-04-30T08:43:28Z</time></trkpt><trkpt lat="44.19918885945187" lon="11.444784716460386"><ele>948.0</ele><time>2026-04-30T08:43:29Z</time></trkpt><trkpt lat="44.199151468077574" lon="11.444671941501166"><ele>950.5000000000001</ele><time>2026-04-30T08:43:30Z</time></trkpt><trkpt lat="44.199138298945606" lon="11.444506226965302"><ele>953.0</ele><time>2026-04-30T08:43:32Z</time></trkpt><trkpt lat="44.19909443272732" lon="11.444407059448674"><ele>954.1666666666667</ele><time>2026-04-30T08:43:34Z</time></trkpt><trkpt lat="44.199048551251195" lon="11.444318872369173"><ele>955.3333333333334</ele><time>2026-04-30T08:43:35Z</time></trkpt><trkpt lat="44.19898905410858" lon="11.444257674606213"><ele>956.5</ele><time>2026-04-30T08:43:36Z</time></trkpt><trkpt lat="44.19888842257083" lon="11.44416820147895"><ele>957.6666666666667</ele><time>2026-04-30T08:43:38Z</time></trkpt><trkpt lat="44.19883126787188" lon="11.444094843674659"><ele>958.8333333333334</ele><time>2026-04-30T08:43:39Z</time></trkpt><trkpt lat="44.1987889106703" lon="11.444021026706293"><ele>960.0</ele><time>2026-04-30T08:43:40Z</time></trkpt><trkpt lat="44.198737855753286" lon="11.443961358943609"><ele>960.0</ele><time>2026-04-30T08:43:41Z</time></trkpt><trkpt lat="44.19868793521806" lon="11.44389591792058"><ele>960.0</ele><time>2026-04-30T08:43:42Z</time></trkpt><trkpt lat="44.19863170222592" lon="11.443799157799946"><ele>960.0</ele><time>2026-04-30T08:43:43Z</time></trkpt><trkpt lat="44.19854782794924" lon="11.443703402472128"><ele>960.0</ele><time>2026-04-30T08:43:44Z</time></trkpt><trkpt lat="44.19845595342204" lon="11.443613192588428"><ele>960.0</ele><time>2026-04-30T08:43:45Z</time></trkpt><trkpt lat="44.19836850666105" lon="11.443549687671334"><ele>962.8333333333334</ele><time>2026-04-30T08:43:46Z</time></trkpt><trkpt lat="44.19828153752907" lon="11.443478441188184"><ele>965.6666666666667</ele><time>2026-04-30T08:43:48Z</time></trkpt><trkpt lat="44.198240172230754" lon="11.443335656215663"><ele>968.5</ele><time>2026-04-30T08:43:50Z</time></trkpt><trkpt lat="44.19825115323829" lon="11.443247407377335"><ele>971.3333333333334</ele><time>2026-04-30T08:43:51Z</time></trkpt><trkpt lat="44.1982709626228" lon="11.443162668049295"><ele>974.1666666666667</ele><time>2026-04-30T08:43:52Z</time></trkpt><trkpt lat="44.19830997000374" lon="11.443080085988218"><ele>977.0</ele><time>2026-04-30T08:43:53Z</time></trkpt><trkpt lat="44.198375355587736" lon="11.442978495873648"><ele>976.4285714285716</ele><time>2026-04-30T08:43:54Z</time></trkpt><trkpt lat="44.19841744580573" lon="11.44287554647528"><ele>975.8571428571429</ele><time>2026-04-30T08:43:55Z</time></trkpt><trkpt lat="44.19845531129821" lon="11.442804635254209"><ele>975.2857142857143</ele><time>2026-04-30T08:43:56Z</time></trkpt><trkpt lat="44.198501265908895" lon="11.442741915263248"><ele>974.7142857142858</ele><time>2026-04-30T08:43:57Z</time></trkpt><trkpt lat="44.19855367956486" lon="11.442681152684774"><ele>974.1428571428571</ele><time>2026-04-30T08:43:58Z</time></trkpt><trkpt lat="44.198618271805486" lon="11.442579940352186"><ele>973.5714285714286</ele><time>2026-04-30T08:44:00Z</time></trkpt><trkpt lat="44.19859142960972" lon="11.44249591373696"><ele>973.0</ele><time>2026-04-30T08:44:16Z</time></trkpt><trkpt lat="44.198578354375414" lon="11.442405806223519"><ele>972.9999999999999</ele><time>2026-04-30T08:44:29Z</time></trkpt><trkpt lat="44.198605828068054" lon="11.44230820003525"><ele>973.0</ele><time>2026-04-30T08:44:47Z</time></trkpt><trkpt lat="44.19867776279508" lon="11.442225539743164"><ele>973.0</ele><time>2026-04-30T08:44:50Z</time></trkpt><trkpt lat="44.19868925864571" lon="11.442133901196412"><ele>973.0</ele><time>2026-04-30T08:44:52Z</time></trkpt><trkpt lat="44.19865815881953" lon="11.442009484781249"><ele>972.9999999999999</ele><time>2026-04-30T08:44:54Z</time></trkpt><trkpt lat="44.198675774795305" lon="11.44190627520335"><ele>973.0</ele><time>2026-04-30T08:45:11Z</time></trkpt><trkpt lat="44.19869517588644" lon="11.441816951717636"><ele>970.4999999999999</ele><time>2026-04-30T08:45:13Z</time></trkpt><trkpt lat="44.198720019090196" lon="11.44171177957224"><ele>968.0</ele><time>2026-04-30T08:45:16Z</time></trkpt><trkpt lat="44.19874669125945" lon="11.441616348604649"><ele>965.5</ele><time>2026-04-30T08:45:19Z</time></trkpt><trkpt lat="44.198776319003535" lon="11.44150672875279"><ele>963.0</ele><time>2026-04-30T08:45:22Z</time></trkpt><trkpt lat="44.198802869750914" lon="11.441383138002061"><ele>960.4999999999999</ele><time>2026-04-30T08:45:24Z</time></trkpt><trkpt lat="44.19883619487256" lon="11.441265175400755"><ele>958.0</ele><time>2026-04-30T08:45:26Z</time></trkpt><trkpt lat="44.1988670593118" lon="11.441153244902074"><ele>955.2</ele><time>2026-04-30T08:45:28Z</time></trkpt><trkpt lat="44.19887319470192" lon="11.441034231392269"><ele>952.4</ele><time>2026-04-30T08:45:30Z</time></trkpt><trkpt lat="44.19888995097228" lon="11.440881786970653"><ele>949.6000000000001</ele><time>2026-04-30T08:45:32Z</time></trkpt><trkpt lat="44.19888567358425" lon="11.440744683861483"><ele>946.8000000000001</ele><time>2026-04-30T08:45:34Z</time></trkpt><trkpt lat="44.198873918909115" lon="11.440640614563753"><ele>944.0</ele><time>2026-04-30T08:45:36Z</time></trkpt><trkpt lat="44.198900028082186" lon="11.440514292388428"><ele>941.1666666666667</ele><time>2026-04-30T08:45:38Z</time></trkpt><trkpt lat="44.19894101918454" lon="11.440379079823114"><ele>938.3333333333334</ele><time>2026-04-30T08:45:40Z</time></trkpt><trkpt lat="44.19898689906005" lon="11.440243979516476"><ele>935.5</ele><time>2026-04-30T08:45:42Z</time></trkpt><trkpt lat="44.19902272960663" lon="11.440160678170573"><ele>932.6666666666667</ele><time>2026-04-30T08:45:43Z</time></trkpt><trkpt lat="44.199042663897934" lon="11.440076122079448"><ele>929.8333333333334</ele><time>2026-04-30T08:45:44Z</time></trkpt><trkpt lat="44.19908309134053" lon="11.439961299236346"><ele>927.0</ele><time>2026-04-30T08:45:46Z</time></trkpt><trkpt lat="44.19913956512344" lon="11.439906270057408"><ele>931.6666666666666</ele><time>2026-04-30T08:45:47Z</time></trkpt><trkpt lat="44.19922070341159" lon="11.439815700371918"><ele>936.3333333333333</ele><time>2026-04-30T08:45:49Z</time></trkpt><trkpt lat="44.19924013669626" lon="11.439725733976932"><ele>941.0</ele><time>2026-04-30T08:45:52Z</time></trkpt><trkpt lat="44.19925963202474" lon="11.439637391579387"><ele>945.6666666666666</ele><time>2026-04-30T08:45:54Z</time></trkpt><trkpt lat="44.19928336685726" lon="11.439522063821745"><ele>950.3333333333333</ele><time>2026-04-30T08:45:56Z</time></trkpt><trkpt lat="44.199271146359465" lon="11.43940451692882"><ele>955.0</ele><time>2026-04-30T08:45:58Z</time></trkpt><trkpt lat="44.19923794905318" lon="11.43925874949668"><ele>955.0</ele><time>2026-04-30T08:46:00Z</time></trkpt><trkpt lat="44.199214304218735" lon="11.43910982611578"><ele>955.0</ele><time>2026-04-30T08:46:02Z</time></trkpt><trkpt lat="44.199192160203474" lon="11.438988839131286"><ele>955.0</ele><time>2026-04-30T08:46:04Z</time></trkpt><trkpt lat="44.19915287536212" lon="11.438859379044812"><ele>955.0</ele><time>2026-04-30T08:46:06Z</time></trkpt><trkpt lat="44.199117673720146" lon="11.43869471433736"><ele>955.0</ele><time>2026-04-30T08:46:08Z</time></trkpt><trkpt lat="44.199097985607345" lon="11.43861088750802"><ele>951.6</ele><time>2026-04-30T08:46:09Z</time></trkpt><trkpt lat="44.19906277040367" lon="11.438456280537038"><ele>948.2</ele><time>2026-04-30T08:46:11Z</time></trkpt><trkpt lat="44.19904029376306" lon="11.438319745004259"><ele>944.8</ele><time>2026-04-30T08:46:13Z</time></trkpt><trkpt lat="44.19902684497741" lon="11.438194145306252"><ele>941.4</ele><time>2026-04-30T08:46:15Z</time></trkpt><trkpt lat="44.199016033173045" lon="11.438060263088218"><ele>938.0</ele><time>2026-04-30T08:46:17Z</time></trkpt><trkpt lat="44.19896122607563" lon="11.437904431833621"><ele>933.0000000000001</ele><time>2026-04-30T08:46:19Z</time></trkpt><trkpt lat="44.198925928975456" lon="11.437800896309831"><ele>928.0</ele><time>2026-04-30T08:46:20Z</time></trkpt><trkpt lat="44.19891756455087" lon="11.437707927197764"><ele>923.0</ele><time>2026-04-30T08:46:21Z</time></trkpt><trkpt lat="44.19894292017919" lon="11.437593045110887"><ele>918.0</ele><time>2026-04-30T08:46:23Z</time></trkpt><trkpt lat="44.19894345515834" lon="11.437466100633438"><ele>913.0000000000001</ele><time>2026-04-30T08:46:25Z</time></trkpt><trkpt lat="44.19895705038048" lon="11.437351419846319"><ele>908.0</ele><time>2026-04-30T08:46:27Z</time></trkpt><trkpt lat="44.198982048348796" lon="11.43723451035018"><ele>910.5000000000001</ele><time>2026-04-30T08:46:29Z</time></trkpt><trkpt lat="44.19897087363644" lon="11.437120225021927"><ele>913.0</ele><time>2026-04-30T08:46:31Z</time></trkpt><trkpt lat="44.19895479374692" lon="11.437005293666633"><ele>915.5</ele><time>2026-04-30T08:46:33Z</time></trkpt><trkpt lat="44.198945908759725" lon="11.43691669226801"><ele>918.0</ele><time>2026-04-30T08:46:35Z</time></trkpt><trkpt lat="44.19896167491208" lon="11.436806214344431"><ele>920.5000000000001</ele><time>2026-04-30T08:46:37Z</time></trkpt><trkpt lat="44.198981694950746" lon="11.436719236528875"><ele>923.0</ele><time>2026-04-30T08:46:39Z</time></trkpt><trkpt lat="44.198983969720004" lon="11.43659652881588"><ele>923.0000000000001</ele><time>2026-04-30T08:46:42Z</time></trkpt><trkpt lat="44.19899194253505" lon="11.436466371326539"><ele>923.0</ele><time>2026-04-30T08:46:44Z</time></trkpt><trkpt lat="44.19899226479146" lon="11.436372941439947"><ele>923.0</ele><time>2026-04-30T08:46:48Z</time></trkpt><trkpt lat="44.198965493107174" lon="11.436234320635243"><ele>923.0</ele><time>2026-04-30T08:46:51Z</time></trkpt><trkpt lat="44.19895295929646" lon="11.43612862289975"><ele>923.0000000000001</ele><time>2026-04-30T08:46:54Z</time></trkpt><trkpt lat="44.19896032489116" lon="11.436021388396625"><ele>923.0</ele><time>2026-04-30T08:46:57Z</time></trkpt><trkpt lat="44.198935734156414" lon="11.435905571563145"><ele>923.4</ele><time>2026-04-30T08:47:00Z</time></trkpt><trkpt lat="44.198913837847094" lon="11.435708641639957"><ele>923.8</ele><time>2026-04-30T08:47:02Z</time></trkpt><trkpt lat="44.19890835809931" lon="11.435596927490094"><ele>924.2</ele><time>2026-04-30T08:47:04Z</time></trkpt><trkpt lat="44.19892407418502" lon="11.435468806187222"><ele>924.6</ele><time>2026-04-30T08:47:06Z</time></trkpt><trkpt lat="44.198926808494676" lon="11.435344770701407"><ele>925.0</ele><time>2026-04-30T08:47:08Z</time></trkpt><trkpt lat="44.19891712669066" lon="11.435195557542594"><ele>924.3333333333333</ele><time>2026-04-30T08:47:09Z</time></trkpt><trkpt lat="44.198957738081965" lon="11.43504502483676"><ele>923.6666666666666</ele><time>2026-04-30T08:47:11Z</time></trkpt><trkpt lat="44.19903284328063" lon="11.434983570202988"><ele>923.0</ele><time>2026-04-30T08:47:13Z</time></trkpt><trkpt lat="44.199089200884394" lon="11.43492133933155"><ele>922.3333333333333</ele><time>2026-04-30T08:47:15Z</time></trkpt><trkpt lat="44.199104369375895" lon="11.434804505255697"><ele>921.6666666666666</ele><time>2026-04-30T08:47:17Z</time></trkpt><trkpt lat="44.199132720870466" lon="11.434694757401987"><ele>921.0</ele><time>2026-04-30T08:47:38Z</time></trkpt><trkpt lat="44.199175151553646" lon="11.434603652294541"><ele>921.0</ele><time>2026-04-30T08:47:40Z</time></trkpt><trkpt lat="44.19922660357188" lon="11.434474589916917"><ele>920.9999999999999</ele><time>2026-04-30T08:47:43Z</time></trkpt><trkpt lat="44.199256541491245" lon="11.434350685680595"><ele>920.9999999999999</ele><time>2026-04-30T08:47:45Z</time></trkpt><trkpt lat="44.19930410743148" lon="11.434190980168854"><ele>921.0</ele><time>2026-04-30T08:47:47Z</time></trkpt><trkpt lat="44.19934522470685" lon="11.434029378354346"><ele>921.0</ele><time>2026-04-30T08:47:49Z</time></trkpt><trkpt lat="44.19937205498941" lon="11.433865604272583"><ele>919.0</ele><time>2026-04-30T08:47:51Z</time></trkpt><trkpt lat="44.19940655917343" lon="11.433712824980093"><ele>917.0</ele><time>2026-04-30T08:47:53Z</time></trkpt><trkpt lat="44.19943943973313" lon="11.433614853473944"><ele>915.0</ele><time>2026-04-30T08:47:55Z</time></trkpt><trkpt lat="44.199419233599684" lon="11.43353014472007"><ele>913.0</ele><time>2026-04-30T08:47:56Z</time></trkpt><trkpt lat="44.19941049573807" lon="11.4334357624339"><ele>911.0</ele><time>2026-04-30T08:47:57Z</time></trkpt><trkpt lat="44.19941020879241" lon="11.433325486640934"><ele>909.0</ele><time>2026-04-30T08:47:58Z</time></trkpt><trkpt lat="44.1994351521486" lon="11.433226796446982"><ele>909.0</ele><time>2026-04-30T08:47:59Z</time></trkpt><trkpt lat="44.199443586672885" lon="11.433085264635453"><ele>909.0</ele><time>2026-04-30T08:48:00Z</time></trkpt><trkpt lat="44.199449439909756" lon="11.432958719229811"><ele>909.0</ele><time>2026-04-30T08:48:01Z</time></trkpt><trkpt lat="44.19945027096381" lon="11.432848302198314"><ele>909.0</ele><time>2026-04-30T08:48:02Z</time></trkpt><trkpt lat="44.19944425936893" lon="11.432727080047785"><ele>909.0</ele><time>2026-04-30T08:48:03Z</time></trkpt><trkpt lat="44.19943967125233" lon="11.43262743855705"><ele>909.0</ele><time>2026-04-30T08:48:05Z</time></trkpt><trkpt lat="44.19937424082982" lon="11.43249534696134"><ele>908.8333333333334</ele><time>2026-04-30T08:48:07Z</time></trkpt><trkpt lat="44.19934269009308" lon="11.432403500622693"><ele>908.6666666666667</ele><time>2026-04-30T08:48:12Z</time></trkpt><trkpt lat="44.19928686945212" lon="11.43232202354092"><ele>908.5</ele><time>2026-04-30T08:48:13Z</time></trkpt><trkpt lat="44.19924324924974" lon="11.432239815529604"><ele>908.3333333333334</ele><time>2026-04-30T08:48:15Z</time></trkpt><trkpt lat="44.19919847440714" lon="11.432163978546118"><ele>908.1666666666667</ele><time>2026-04-30T08:48:17Z</time></trkpt><trkpt lat="44.19914240009722" lon="11.432065366858874"><ele>908.0</ele><time>2026-04-30T08:48:47Z</time></trkpt><trkpt lat="44.199132303529275" lon="11.43196685943241"><ele>907.0</ele><time>2026-04-30T08:48:51Z</time></trkpt><trkpt lat="44.19911539913641" lon="11.43185969555285"><ele>906.0</ele><time>2026-04-30T08:48:54Z</time></trkpt><trkpt lat="44.19909711317719" lon="11.431750593554936"><ele>905.0</ele><time>2026-04-30T08:48:58Z</time></trkpt><trkpt lat="44.19901869171685" lon="11.43164813650715"><ele>904.0</ele><time>2026-04-30T08:49:01Z</time></trkpt><trkpt lat="44.198949745534854" lon="11.431537157858052"><ele>903.0</ele><time>2026-04-30T08:49:03Z</time></trkpt><trkpt lat="44.19888054765618" lon="11.431455257951885"><ele>899.1428571428571</ele><time>2026-04-30T08:49:05Z</time></trkpt><trkpt lat="44.19883655507196" lon="11.431368574549838"><ele>895.2857142857142</ele><time>2026-04-30T08:49:17Z</time></trkpt><trkpt lat="44.19880492335934" lon="11.431288576151434"><ele>891.4285714285714</ele><time>2026-04-30T08:49:27Z</time></trkpt><trkpt lat="44.198767943389726" lon="11.431216739736552"><ele>887.5714285714286</ele><time>2026-04-30T08:49:38Z</time></trkpt><trkpt lat="44.198726482694276" lon="11.431134067340109"><ele>883.7142857142857</ele><time>2026-04-30T08:49:41Z</time></trkpt><trkpt lat="44.19870845885559" lon="11.431034775599077"><ele>879.8571428571429</ele><time>2026-04-30T08:49:43Z</time></trkpt><trkpt lat="44.198667142027034" lon="11.43096788593309"><ele>876.0</ele><time>2026-04-30T08:49:50Z</time></trkpt><trkpt lat="44.19864681380998" lon="11.430872479346577"><ele>876.0</ele><time>2026-04-30T08:51:22Z</time></trkpt><trkpt lat="44.198658843977434" lon="11.430784158506679"><ele>876.0</ele><time>2026-04-30T08:51:30Z</time></trkpt><trkpt lat="44.198673507301066" lon="11.430695029978564"><ele>876.0</ele><time>2026-04-30T08:51:35Z</time></trkpt><trkpt lat="44.19868920855604" lon="11.430603664652912"><ele>876.0</ele><time>2026-04-30T08:51:40Z</time></trkpt><trkpt lat="44.19873231609399" lon="11.430533220708067"><ele>876.0</ele><time>2026-04-30T08:51:44Z</time></trkpt><trkpt lat="44.19877905012959" lon="11.430460987498469"><ele>876.0</ele><time>2026-04-30T08:51:46Z</time></trkpt><trkpt lat="44.19882844190704" lon="11.430389075169622"><ele>876.0</ele><time>2026-04-30T08:51:49Z</time></trkpt><trkpt lat="44.1988656653631" lon="11.430306272013942"><ele>875.3333333333334</ele><time>2026-04-30T08:51:57Z</time></trkpt><trkpt lat="44.19891708562534" lon="11.430218886737686"><ele>874.6666666666667</ele><time>2026-04-30T08:52:05Z</time></trkpt><trkpt lat="44.19897539724162" lon="11.430128706718644"><ele>874.0</ele><time>2026-04-30T08:52:09Z</time></trkpt><trkpt lat="44.19902415833779" lon="11.430067326248208"><ele>873.3333333333334</ele><time>2026-04-30T08:52:12Z</time></trkpt><trkpt lat="44.199053199181115" lon="11.42998025222374"><ele>872.6666666666667</ele><time>2026-04-30T08:52:14Z</time></trkpt><trkpt lat="44.19911942837562" lon="11.429892411678194"><ele>872.0</ele><time>2026-04-30T08:52:17Z</time></trkpt><trkpt lat="44.19915029596516" lon="11.429788749146132"><ele>872.0</ele><time>2026-04-30T08:52:20Z</time></trkpt><trkpt lat="44.19919230154529" lon="11.429716732297608"><ele>872.0</ele><time>2026-04-30T08:52:27Z</time></trkpt><trkpt lat="44.199236853014845" lon="11.429598658724144"><ele>872.0</ele><time>2026-04-30T08:52:30Z</time></trkpt><trkpt lat="44.19929631650294" lon="11.429473661180054"><ele>872.0</ele><time>2026-04-30T08:52:32Z</time></trkpt><trkpt lat="44.199365196433064" lon="11.429352289381033"><ele>872.0</ele><time>2026-04-30T08:52:34Z</time></trkpt><trkpt lat="44.199403456678304" lon="11.429250884628596"><ele>869.1428571428571</ele><time>2026-04-30T08:52:36Z</time></trkpt><trkpt lat="44.19944302952793" lon="11.429169229629576"><ele>866.2857142857143</ele><time>2026-04-30T08:52:39Z</time></trkpt><trkpt lat="44.199502577075435" lon="11.4290695906749"><ele>863.4285714285713</ele><time>2026-04-30T08:52:43Z</time></trkpt><trkpt lat="44.199552430781466" lon="11.429014990837072"><ele>860.5714285714286</ele><time>2026-04-30T08:52:45Z</time></trkpt><trkpt lat="44.199604571704846" lon="11.428939408808084"><ele>857.7142857142857</ele><time>2026-04-30T08:52:53Z</time></trkpt><trkpt lat="44.19957111956105" lon="11.428862110615345"><ele>854.8571428571428</ele><time>2026-04-30T08:52:57Z</time></trkpt><trkpt lat="44.19950887726822" lon="11.428820127380764"><ele>852.0</ele><time>2026-04-30T08:53:03Z</time></trkpt><trkpt lat="44.19942801449597" lon="11.428833155187549"><ele>852.0</ele><time>2026-04-30T08:53:06Z</time></trkpt><trkpt lat="44.1993534321682" lon="11.428862830908058"><ele>852.0</ele><time>2026-04-30T08:53:08Z</time></trkpt><trkpt lat="44.19925478462922" lon="11.428922994495576"><ele>852.0</ele><time>2026-04-30T08:53:10Z</time></trkpt><trkpt lat="44.199185944420385" lon="11.428939855836918"><ele>852.0</ele><time>2026-04-30T08:53:13Z</time></trkpt><trkpt lat="44.19911801848403" lon="11.428967725943346"><ele>852.0</ele><time>2026-04-30T08:53:23Z</time></trkpt><trkpt lat="44.199049563095315" lon="11.42895641483916"><ele>852.0</ele><time>2026-04-30T08:53:42Z</time></trkpt><trkpt lat="44.19897354874165" lon="11.429003551207593"><ele>853.0</ele><time>2026-04-30T08:53:49Z</time></trkpt><trkpt lat="44.198910929034774" lon="11.428976647614588"><ele>854.0</ele><time>2026-04-30T08:53:52Z</time></trkpt><trkpt lat="44.19884984918545" lon="11.428931596630012"><ele>855.0</ele><time>2026-04-30T08:54:23Z</time></trkpt><trkpt lat="44.19880847478817" lon="11.428864209414973"><ele>856.0</ele><time>2026-04-30T08:55:22Z</time></trkpt><trkpt lat="44.19876991550775" lon="11.428724340416165"><ele>857.0</ele><time>2026-04-30T08:58:33Z</time></trkpt><trkpt lat="44.198732940014914" lon="11.428614454205217"><ele>858.0</ele><time>2026-04-30T08:58:38Z</time></trkpt><trkpt lat="44.19868953171513" lon="11.42850053356854"><ele>854.8333333333334</ele><time>2026-04-30T08:58:40Z</time></trkpt><trkpt lat="44.1986503917046" lon="11.428364325432499"><ele>851.6666666666667</ele><time>2026-04-30T08:58:42Z</time></trkpt><trkpt lat="44.19864863144535" lon="11.428270605436149"><ele>848.5</ele><time>2026-04-30T08:58:44Z</time></trkpt><trkpt lat="44.198627487561346" lon="11.428150800603563"><ele>845.3333333333334</ele><time>2026-04-30T08:58:47Z</time></trkpt><trkpt lat="44.19865703982403" lon="11.428035804442047"><ele>842.1666666666667</ele><time>2026-04-30T08:58:49Z</time></trkpt><trkpt lat="44.1986515683362" lon="11.427939452866642"><ele>839.0</ele><time>2026-04-30T08:58:51Z</time></trkpt><trkpt lat="44.198629093579605" lon="11.427800684342744"><ele>835.1666666666667</ele><time>2026-04-30T08:58:53Z</time></trkpt><trkpt lat="44.198649213880394" lon="11.427648321246833"><ele>831.3333333333334</ele><time>2026-04-30T08:58:55Z</time></trkpt><trkpt lat="44.198678741181546" lon="11.42756769071869"><ele>827.5</ele><time>2026-04-30T08:58:56Z</time></trkpt><trkpt lat="44.198694028142846" lon="11.427480682414282"><ele>823.6666666666667</ele><time>2026-04-30T08:58:57Z</time></trkpt><trkpt lat="44.1987295198244" lon="11.427370060579118"><ele>819.8333333333334</ele><time>2026-04-30T08:58:59Z</time></trkpt><trkpt lat="44.19876469916013" lon="11.427248184655932"><ele>816.0</ele><time>2026-04-30T08:59:02Z</time></trkpt><trkpt lat="44.19879553860621" lon="11.427122028028338"><ele>817.3333333333334</ele><time>2026-04-30T08:59:04Z</time></trkpt><trkpt lat="44.19881830437569" lon="11.427000776276948"><ele>818.6666666666667</ele><time>2026-04-30T08:59:06Z</time></trkpt><trkpt lat="44.19887202671316" lon="11.426839178667498"><ele>820.0</ele><time>2026-04-30T08:59:08Z</time></trkpt><trkpt lat="44.19891599063507" lon="11.426768979973676"><ele>821.3333333333334</ele><time>2026-04-30T08:59:09Z</time></trkpt><trkpt lat="44.19897740132684" lon="11.42670595167271"><ele>822.6666666666667</ele><time>2026-04-30T08:59:10Z</time></trkpt><trkpt lat="44.19901806502116" lon="11.426623865131061"><ele>824.0</ele><time>2026-04-30T08:59:11Z</time></trkpt><trkpt lat="44.19904081364181" lon="11.426535651366754"><ele>824.0000000000001</ele><time>2026-04-30T08:59:12Z</time></trkpt><trkpt lat="44.199067889416746" lon="11.426444344136614"><ele>824.0</ele><time>2026-04-30T08:59:13Z</time></trkpt><trkpt lat="44.199090467031766" lon="11.426337640813944"><ele>824.0</ele><time>2026-04-30T08:59:14Z</time></trkpt><trkpt lat="44.199102555785394" lon="11.426205763934707"><ele>824.0</ele><time>2026-04-30T08:59:15Z</time></trkpt><trkpt lat="44.19910868541923" lon="11.42610240205681"><ele>824.0000000000001</ele><time>2026-04-30T08:59:16Z</time></trkpt><trkpt lat="44.199116567556146" lon="11.426012699758738"><ele>824.0</ele><time>2026-04-30T08:59:17Z</time></trkpt><trkpt lat="44.199130812548475" lon="11.425880740724834"><ele>823.6666666666667</ele><time>2026-04-30T08:59:19Z</time></trkpt><trkpt lat="44.1991090879985" lon="11.425757580586218"><ele>823.3333333333334</ele><time>2026-04-30T08:59:21Z</time></trkpt><trkpt lat="44.1990905363518" lon="11.425607127871952"><ele>823.0</ele><time>2026-04-30T08:59:23Z</time></trkpt><trkpt lat="44.1990767291304" lon="11.42552113157344"><ele>822.6666666666667</ele><time>2026-04-30T08:59:25Z</time></trkpt><trkpt lat="44.199063988590474" lon="11.425397823499562"><ele>822.3333333333334</ele><time>2026-04-30T08:59:29Z</time></trkpt><trkpt lat="44.19907229305314" lon="11.425275063791796"><ele>822.0</ele><time>2026-04-30T08:59:32Z</time></trkpt><trkpt lat="44.1990778083888" lon="11.42517562769817"><ele>821.1666666666666</ele><time>2026-04-30T08:59:34Z</time></trkpt><trkpt lat="44.19909349263556" lon="11.425076264984828"><ele>820.3333333333333</ele><time>2026-04-30T08:59:36Z</time></trkpt><trkpt lat="44.19905928812492" lon="11.42497722623095"><ele>819.5</ele><time>2026-04-30T08:59:38Z</time></trkpt><trkpt lat="44.19901001947929" lon="11.424867947490425"><ele>818.6666666666666</ele><time>2026-04-30T08:59:41Z</time></trkpt><trkpt lat="44.19899826675033" lon="11.424765355862473"><ele>817.8333333333333</ele><time>2026-04-30T08:59:43Z</time></trkpt><trkpt lat="44.19898702885307" lon="11.424635780544847"><ele>817.0</ele><time>2026-04-30T08:59:45Z</time></trkpt><trkpt lat="44.198983040506505" lon="11.424498255749093"><ele>815.6666666666666</ele><time>2026-04-30T08:59:47Z</time></trkpt><trkpt lat="44.19899990602626" lon="11.424383900157004"><ele>814.3333333333333</ele><time>2026-04-30T08:59:49Z</time></trkpt><trkpt lat="44.199041855828156" lon="11.424273777054841"><ele>813.0</ele><time>2026-04-30T08:59:51Z</time></trkpt><trkpt lat="44.19905150210287" lon="11.424180100517733"><ele>811.6666666666667</ele><time>2026-04-30T08:59:54Z</time></trkpt><trkpt lat="44.19901902989543" lon="11.424104010677656"><ele>810.3333333333334</ele><time>2026-04-30T08:59:57Z</time></trkpt><trkpt lat="44.19900413080801" lon="11.423990029874162"><ele>809.0</ele><time>2026-04-30T09:00:04Z</time></trkpt><trkpt lat="44.19900081983331" lon="11.423869577361707"><ele>807.2</ele><time>2026-04-30T09:00:07Z</time></trkpt><trkpt lat="44.19904164727571" lon="11.423725168952688"><ele>805.4000000000001</ele><time>2026-04-30T09:00:10Z</time></trkpt><trkpt lat="44.19911326332747" lon="11.423684883759494"><ele>803.6</ele><time>2026-04-30T09:00:12Z</time></trkpt><trkpt lat="44.19920531647769" lon="11.423729452656694"><ele>801.8</ele><time>2026-04-30T09:00:15Z</time></trkpt><trkpt lat="44.19928505290712" lon="11.423754240194448"><ele>800.0</ele><time>2026-04-30T09:00:21Z</time></trkpt><trkpt lat="44.199358092365976" lon="11.42380928222441"><ele>800.1428571428572</ele><time>2026-04-30T09:00:24Z</time></trkpt><trkpt lat="44.19942437650078" lon="11.423840305449678"><ele>800.2857142857143</ele><time>2026-04-30T09:00:26Z</time></trkpt><trkpt lat="44.19949668963393" lon="11.423869746066156"><ele>800.4285714285714</ele><time>2026-04-30T09:00:28Z</time></trkpt><trkpt lat="44.19956742398211" lon="11.423866997372674"><ele>800.5714285714287</ele><time>2026-04-30T09:00:30Z</time></trkpt><trkpt lat="44.199634250526564" lon="11.423908348044058"><ele>800.7142857142857</ele><time>2026-04-30T09:00:32Z</time></trkpt><trkpt lat="44.199709054564195" lon="11.423929133933605"><ele>800.8571428571429</ele><time>2026-04-30T09:00:35Z</time></trkpt><trkpt lat="44.19978685255224" lon="11.423940292064765"><ele>801.0</ele><time>2026-04-30T09:00:38Z</time></trkpt><trkpt lat="44.199859737595936" lon="11.42394282145037"><ele>801.0</ele><time>2026-04-30T09:00:47Z</time></trkpt><trkpt lat="44.1999649886058" lon="11.423902672289422"><ele>801.0</ele><time>2026-04-30T09:00:50Z</time></trkpt><trkpt lat="44.19998063912578" lon="11.42380678064494"><ele>801.0</ele><time>2026-04-30T09:00:52Z</time></trkpt><trkpt lat="44.19999094362398" lon="11.423716912405904"><ele>801.0</ele><time>2026-04-30T09:00:54Z</time></trkpt><trkpt lat="44.20000404080024" lon="11.423626349126842"><ele>801.0</ele><time>2026-04-30T09:00:56Z</time></trkpt><trkpt lat="44.20002082641232" lon="11.42353794199208"><ele>801.0</ele><time>2026-04-30T09:01:20Z</time></trkpt><trkpt lat="44.20007463958067" lon="11.423479094926122"><ele>801.0</ele><time>2026-04-30T09:02:08Z</time></trkpt><trkpt lat="44.20009137171704" lon="11.42338015890175"><ele>799.5714285714286</ele><time>2026-04-30T09:02:15Z</time></trkpt><trkpt lat="44.200113052679555" lon="11.423291768474153"><ele>798.1428571428571</ele><time>2026-04-30T09:02:18Z</time></trkpt><trkpt lat="44.20014627893527" lon="11.423196833713385"><ele>796.7142857142858</ele><time>2026-04-30T09:02:21Z</time></trkpt><trkpt lat="44.200170131505885" lon="11.423090849995772"><ele>795.2857142857142</ele><time>2026-04-30T09:02:24Z</time></trkpt><trkpt lat="44.20018644004602" lon="11.423002926033458"><ele>793.8571428571429</ele><time>2026-04-30T09:02:27Z</time></trkpt><trkpt lat="44.20022976252311" lon="11.422919397514173"><ele>792.4285714285714</ele><time>2026-04-30T09:02:30Z</time></trkpt><trkpt lat="44.20026795486225" lon="11.422833060256607"><ele>791.0</ele><time>2026-04-30T09:02:56Z</time></trkpt><trkpt lat="44.20029494513255" lon="11.422727867337306"><ele>789.6666666666667</ele><time>2026-04-30T09:03:10Z</time></trkpt><trkpt lat="44.20030917955436" lon="11.422615828816657"><ele>788.3333333333334</ele><time>2026-04-30T09:03:17Z</time></trkpt><trkpt lat="44.20038241163115" lon="11.42258363292571"><ele>787.0</ele><time>2026-04-30T09:03:21Z</time></trkpt><trkpt lat="44.20041531766073" lon="11.422490925829349"><ele>785.6666666666667</ele><time>2026-04-30T09:03:39Z</time></trkpt><trkpt lat="44.20047705127598" lon="11.4224252558145"><ele>784.3333333333334</ele><time>2026-04-30T09:06:17Z</time></trkpt><trkpt lat="44.20056258208093" lon="11.422395566934021"><ele>783.0</ele><time>2026-04-30T09:06:19Z</time></trkpt><trkpt lat="44.20063855466002" lon="11.422357093127127"><ele>782.75</ele><time>2026-04-30T09:06:21Z</time></trkpt><trkpt lat="44.20085983193257" lon="11.422338169364314"><ele>782.5</ele><time>2026-04-30T09:06:26Z</time></trkpt><trkpt lat="44.20093213291868" lon="11.422311237232513"><ele>782.25</ele><time>2026-04-30T09:06:28Z</time></trkpt><trkpt lat="44.20102639128251" lon="11.422281395129913"><ele>782.0</ele><time>2026-04-30T09:06:30Z</time></trkpt><trkpt lat="44.201115825232954" lon="11.422293239356287"><ele>782.0</ele><time>2026-04-30T09:06:32Z</time></trkpt><trkpt lat="44.20120231842658" lon="11.422312309092389"><ele>782.0</ele><time>2026-04-30T09:06:34Z</time></trkpt><trkpt lat="44.20130917607715" lon="11.42229626158797"><ele>782.0</ele><time>2026-04-30T09:06:36Z</time></trkpt><trkpt lat="44.201400529409575" lon="11.422322059096386"><ele>782.0</ele><time>2026-04-30T09:06:38Z</time></trkpt><trkpt lat="44.20148921558317" lon="11.422323208440138"><ele>782.0</ele><time>2026-04-30T09:06:40Z</time></trkpt><trkpt lat="44.20163026013097" lon="11.422370550308111"><ele>780.8571428571428</ele><time>2026-04-30T09:06:44Z</time></trkpt><trkpt lat="44.20170591359008" lon="11.422370626042444"><ele>779.7142857142857</ele><time>2026-04-30T09:06:47Z</time></trkpt><trkpt lat="44.20177376558343" lon="11.422344059765924"><ele>778.5714285714286</ele><time>2026-04-30T09:06:49Z</time></trkpt><trkpt lat="44.20184166901884" lon="11.422361400083574"><ele>777.4285714285713</ele><time>2026-04-30T09:06:51Z</time></trkpt><trkpt lat="44.20191311432552" lon="11.42234022207939"><ele>776.2857142857143</ele><time>2026-04-30T09:06:53Z</time></trkpt><trkpt lat="44.20197791938356" lon="11.422291994268106"><ele>775.1428571428571</ele><time>2026-04-30T09:07:01Z</time></trkpt><trkpt lat="44.20201059877054" lon="11.422197066240502"><ele>774.0</ele><time>2026-04-30T09:07:03Z</time></trkpt><trkpt lat="44.202086654100555" lon="11.422107453397878"><ele>771.6666666666666</ele><time>2026-04-30T09:07:05Z</time></trkpt><trkpt lat="44.202130450136636" lon="11.42203780551418"><ele>769.3333333333334</ele><time>2026-04-30T09:07:07Z</time></trkpt><trkpt lat="44.202247865247166" lon="11.422059664260674"><ele>767.0</ele><time>2026-04-30T09:07:09Z</time></trkpt><trkpt lat="44.202311359614775" lon="11.42198625732705"><ele>764.6666666666667</ele><time>2026-04-30T09:07:11Z</time></trkpt><trkpt lat="44.202308017163396" lon="11.42187146923663"><ele>762.3333333333334</ele><time>2026-04-30T09:07:13Z</time></trkpt><trkpt lat="44.20231193757804" lon="11.421769054856577"><ele>760.0</ele><time>2026-04-30T09:07:16Z</time></trkpt><trkpt lat="44.202289956464966" lon="11.421662064219458"><ele>760.0</ele><time>2026-04-30T09:07:18Z</time></trkpt><trkpt lat="44.202260144514575" lon="11.421549191799505"><ele>760.0</ele><time>2026-04-30T09:07:20Z</time></trkpt><trkpt lat="44.20219453585815" lon="11.421446131877167"><ele>760.0</ele><time>2026-04-30T09:07:22Z</time></trkpt><trkpt lat="44.202121983412226" lon="11.42134121746051"><ele>760.0</ele><time>2026-04-30T09:07:24Z</time></trkpt><trkpt lat="44.20208889551768" lon="11.421263282654486"><ele>760.0</ele><time>2026-04-30T09:07:26Z</time></trkpt><trkpt lat="44.202023664656814" lon="11.421197157561354"><ele>760.0</ele><time>2026-04-30T09:07:30Z</time></trkpt><trkpt lat="44.20195127342033" lon="11.421166667116095"><ele>759.1666666666667</ele><time>2026-04-30T09:07:33Z</time></trkpt><trkpt lat="44.20191998880873" lon="11.421071993254692"><ele>758.3333333333334</ele><time>2026-04-30T09:07:36Z</time></trkpt><trkpt lat="44.20197794605795" lon="11.421009189862897"><ele>757.5</ele><time>2026-04-30T09:07:41Z</time></trkpt><trkpt lat="44.20207020976163" lon="11.420977863626371"><ele>756.6666666666666</ele><time>2026-04-30T09:07:45Z</time></trkpt><trkpt lat="44.20213345751258" lon="11.42090598908193"><ele>755.8333333333333</ele><time>2026-04-30T09:07:47Z</time></trkpt><trkpt lat="44.20219621773668" lon="11.420856273738355"><ele>755.0</ele><time>2026-04-30T09:07:48Z</time></trkpt><trkpt lat="44.2022680734605" lon="11.42078909487956"><ele>751.2</ele><time>2026-04-30T09:07:50Z</time></trkpt><trkpt lat="44.20236970952712" lon="11.420722578085254"><ele>747.4</ele><time>2026-04-30T09:07:52Z</time></trkpt><trkpt lat="44.20243032182762" lon="11.420637034675192"><ele>743.5999999999999</ele><time>2026-04-30T09:07:54Z</time></trkpt><trkpt lat="44.20244684277275" lon="11.420509803554502"><ele>739.8</ele><time>2026-04-30T09:07:56Z</time></trkpt><trkpt lat="44.20245653312699" lon="11.420335534497994"><ele>736.0</ele><time>2026-04-30T09:07:58Z</time></trkpt><trkpt lat="44.20246434735253" lon="11.420233341311244"><ele>735.1666666666667</ele><time>2026-04-30T09:07:59Z</time></trkpt><trkpt lat="44.202438841625764" lon="11.420128457603345"><ele>734.3333333333334</ele><time>2026-04-30T09:08:01Z</time></trkpt><trkpt lat="44.20238133828644" lon="11.420071610188138"><ele>733.5</ele><time>2026-04-30T09:08:03Z</time></trkpt><trkpt lat="44.20230237642726" lon="11.419988294042103"><ele>732.6666666666666</ele><time>2026-04-30T09:08:05Z</time></trkpt><trkpt lat="44.202229318676835" lon="11.419953550947275"><ele>731.8333333333333</ele><time>2026-04-30T09:08:06Z</time></trkpt><trkpt lat="44.202151881803076" lon="11.419918359564681"><ele>731.0</ele><time>2026-04-30T09:08:07Z</time></trkpt><trkpt lat="44.20210186665674" lon="11.419839925908432"><ele>733.0</ele><time>2026-04-30T09:08:08Z</time></trkpt><trkpt lat="44.20206106332832" lon="11.419745967303484"><ele>735.0</ele><time>2026-04-30T09:08:09Z</time></trkpt><trkpt lat="44.20200266095022" lon="11.419663995313519"><ele>737.0</ele><time>2026-04-30T09:08:10Z</time></trkpt><trkpt lat="44.201969582928584" lon="11.419563157264172"><ele>739.0</ele><time>2026-04-30T09:08:11Z</time></trkpt><trkpt lat="44.20191576773015" lon="11.419430808157632"><ele>741.0</ele><time>2026-04-30T09:08:12Z</time></trkpt><trkpt lat="44.201867684677026" lon="11.419297206583682"><ele>741.0</ele><time>2026-04-30T09:08:13Z</time></trkpt><trkpt lat="44.201818971316804" lon="11.419191645359435"><ele>741.0</ele><time>2026-04-30T09:08:14Z</time></trkpt><trkpt lat="44.20178030819955" lon="11.419099155620167"><ele>741.0</ele><time>2026-04-30T09:08:15Z</time></trkpt><trkpt lat="44.20173201057076" lon="11.419011013720045"><ele>741.0</ele><time>2026-04-30T09:08:16Z</time></trkpt><trkpt lat="44.201665024463956" lon="11.418938990000807"><ele>741.0</ele><time>2026-04-30T09:08:17Z</time></trkpt><trkpt lat="44.20160648840302" lon="11.418905775568186"><ele>741.0</ele><time>2026-04-30T09:08:18Z</time></trkpt><trkpt lat="44.201555090025884" lon="11.41885485889882"><ele>739.6666666666666</ele><time>2026-04-30T09:08:19Z</time></trkpt><trkpt lat="44.20149502280717" lon="11.418795948007727"><ele>738.3333333333334</ele><time>2026-04-30T09:08:20Z</time></trkpt><trkpt lat="44.20142787321898" lon="11.418736943864138"><ele>737.0</ele><time>2026-04-30T09:08:21Z</time></trkpt><trkpt lat="44.20134829846929" lon="11.41869647747001"><ele>735.6666666666667</ele><time>2026-04-30T09:08:22Z</time></trkpt><trkpt lat="44.201263174985336" lon="11.418670780388146"><ele>734.3333333333334</ele><time>2026-04-30T09:08:23Z</time></trkpt><trkpt lat="44.20119804163883" lon="11.418619911876233"><ele>733.0</ele><time>2026-04-30T09:08:24Z</time></trkpt><trkpt lat="44.20112661233015" lon="11.418592644802295"><ele>732.9999999999999</ele><time>2026-04-30T09:08:25Z</time></trkpt><trkpt lat="44.20106244308692" lon="11.418541042178898"><ele>733.0</ele><time>2026-04-30T09:08:26Z</time></trkpt><trkpt lat="44.200995259711156" lon="11.418499596677906"><ele>733.0</ele><time>2026-04-30T09:08:27Z</time></trkpt><trkpt lat="44.200927749476556" lon="11.418467399975578"><ele>733.0</ele><time>2026-04-30T09:08:28Z</time></trkpt><trkpt lat="44.20086584933449" lon="11.418440670080425"><ele>733.0</ele><time>2026-04-30T09:08:29Z</time></trkpt><trkpt lat="44.200797973439734" lon="11.418409613811779"><ele>732.9999999999999</ele><time>2026-04-30T09:08:30Z</time></trkpt><trkpt lat="44.2007085519152" lon="11.41838215465668"><ele>733.0</ele><time>2026-04-30T09:08:31Z</time></trkpt><trkpt lat="44.20061059463223" lon="11.41835477930671"><ele>733.0</ele><time>2026-04-30T09:08:32Z</time></trkpt><trkpt lat="44.200518355036515" lon="11.418290890935564"><ele>733.0</ele><time>2026-04-30T09:08:33Z</time></trkpt><trkpt lat="44.20044032152219" lon="11.41824593872258"><ele>733.0</ele><time>2026-04-30T09:08:34Z</time></trkpt><trkpt lat="44.20037242626724" lon="11.418191202217749"><ele>733.0</ele><time>2026-04-30T09:08:35Z</time></trkpt><trkpt lat="44.20030845848688" lon="11.418150988934578"><ele>733.0</ele><time>2026-04-30T09:08:36Z</time></trkpt><trkpt lat="44.20024176914833" lon="11.418128683234068"><ele>733.0</ele><time>2026-04-30T09:08:37Z</time></trkpt><trkpt lat="44.200168975989754" lon="11.418149902784476"><ele>733.0</ele><time>2026-04-30T09:08:38Z</time></trkpt><trkpt lat="44.20009835128362" lon="11.418202465058034"><ele>733.0</ele><time>2026-04-30T09:08:39Z</time></trkpt><trkpt lat="44.20004239172401" lon="11.418295728120201"><ele>733.0</ele><time>2026-04-30T09:08:40Z</time></trkpt><trkpt lat="44.199976505785735" lon="11.418335664769986"><ele>733.0</ele><time>2026-04-30T09:08:41Z</time></trkpt><trkpt lat="44.199862649147605" lon="11.418370022085064"><ele>733.0</ele><time>2026-04-30T09:08:43Z</time></trkpt><trkpt lat="44.199750143536896" lon="11.41831111213526"><ele>733.6666666666667</ele><time>2026-04-30T09:08:45Z</time></trkpt><trkpt lat="44.199700579097204" lon="11.41823676683084"><ele>734.3333333333334</ele><time>2026-04-30T09:08:46Z</time></trkpt><trkpt lat="44.199649467917624" lon="11.418156220517123"><ele>735.0</ele><time>2026-04-30T09:08:47Z</time></trkpt><trkpt lat="44.19959887405175" lon="11.418066522030761"><ele>735.6666666666666</ele><time>2026-04-30T09:08:48Z</time></trkpt><trkpt lat="44.19955241664752" lon="11.417990188530823"><ele>736.3333333333333</ele><time>2026-04-30T09:08:49Z</time></trkpt><trkpt lat="44.19954196883173" lon="11.417878326323072"><ele>737.0</ele><time>2026-04-30T09:08:50Z</time></trkpt><trkpt lat="44.1995883647383" lon="11.417752942567377"><ele>737.0</ele><time>2026-04-30T09:08:51Z</time></trkpt><trkpt lat="44.199593596699614" lon="11.417626234739624"><ele>737.0</ele><time>2026-04-30T09:08:52Z</time></trkpt><trkpt lat="44.19959479872166" lon="11.417508968930978"><ele>737.0</ele><time>2026-04-30T09:08:53Z</time></trkpt><trkpt lat="44.19956234738121" lon="11.417385857718058"><ele>737.0</ele><time>2026-04-30T09:08:54Z</time></trkpt><trkpt lat="44.19957202391826" lon="11.417265639159723"><ele>737.0</ele><time>2026-04-30T09:08:55Z</time></trkpt><trkpt lat="44.199666629501145" lon="11.41720533524932"><ele>734.6666666666666</ele><time>2026-04-30T09:08:57Z</time></trkpt><trkpt lat="44.199725684270355" lon="11.417133695237771"><ele>732.3333333333333</ele><time>2026-04-30T09:08:59Z</time></trkpt><trkpt lat="44.199783836776255" lon="11.41702724696328"><ele>730.0</ele><time>2026-04-30T09:09:01Z</time></trkpt><trkpt lat="44.199789903993974" lon="11.416874370787605"><ele>727.6666666666666</ele><time>2026-04-30T09:09:03Z</time></trkpt><trkpt lat="44.19978356025852" lon="11.416774140735543"><ele>725.3333333333334</ele><time>2026-04-30T09:09:04Z</time></trkpt><trkpt lat="44.1997692745553" lon="11.41666446745639"><ele>723.0</ele><time>2026-04-30T09:09:05Z</time></trkpt><trkpt lat="44.19976488621949" lon="11.416562096289416"><ele>723.0</ele><time>2026-04-30T09:09:06Z</time></trkpt><trkpt lat="44.19976785830531" lon="11.416462835819765"><ele>723.0</ele><time>2026-04-30T09:09:07Z</time></trkpt><trkpt lat="44.19974233945828" lon="11.416357396470774"><ele>723.0</ele><time>2026-04-30T09:09:08Z</time></trkpt><trkpt lat="44.1997407293222" lon="11.416246448312819"><ele>723.0</ele><time>2026-04-30T09:09:09Z</time></trkpt><trkpt lat="44.199746371446" lon="11.416129357714452"><ele>723.0</ele><time>2026-04-30T09:09:10Z</time></trkpt><trkpt lat="44.19974750038816" lon="11.416038018445128"><ele>723.0</ele><time>2026-04-30T09:09:11Z</time></trkpt><trkpt lat="44.19973838110107" lon="11.41593065416713"><ele>721.0</ele><time>2026-04-30T09:09:12Z</time></trkpt><trkpt lat="44.199703190737665" lon="11.415833708306618"><ele>719.0</ele><time>2026-04-30T09:09:13Z</time></trkpt><trkpt lat="44.199665568749005" lon="11.415736131511814"><ele>717.0</ele><time>2026-04-30T09:09:14Z</time></trkpt><trkpt lat="44.19961830625662" lon="11.41560607543993"><ele>715.0</ele><time>2026-04-30T09:09:16Z</time></trkpt><trkpt lat="44.199670637973135" lon="11.415462733216948"><ele>713.0</ele><time>2026-04-30T09:09:18Z</time></trkpt><trkpt lat="44.19972120397273" lon="11.415388326065186"><ele>711.5</ele><time>2026-04-30T09:09:19Z</time></trkpt><trkpt lat="44.199768555233526" lon="11.415278850351894"><ele>710.0</ele><time>2026-04-30T09:09:20Z</time></trkpt><trkpt lat="44.19980445975525" lon="11.415177907596949"><ele>708.5</ele><time>2026-04-30T09:09:21Z</time></trkpt><trkpt lat="44.19983902100527" lon="11.41505747023076"><ele>707.0</ele><time>2026-04-30T09:09:22Z</time></trkpt><trkpt lat="44.19987957748345" lon="11.414945269960144"><ele>705.5</ele><time>2026-04-30T09:09:23Z</time></trkpt><trkpt lat="44.19989093908222" lon="11.414848840794475"><ele>704.0</ele><time>2026-04-30T09:09:24Z</time></trkpt><trkpt lat="44.199850948034516" lon="11.414695956876887"><ele>699.1666666666666</ele><time>2026-04-30T09:09:26Z</time></trkpt><trkpt lat="44.19984642092301" lon="11.414576695114642"><ele>694.3333333333333</ele><time>2026-04-30T09:09:27Z</time></trkpt><trkpt lat="44.199868031347535" lon="11.414459403551657"><ele>689.5</ele><time>2026-04-30T09:09:29Z</time></trkpt><trkpt lat="44.19996620262439" lon="11.414409575205646"><ele>684.6666666666666</ele><time>2026-04-30T09:09:31Z</time></trkpt><trkpt lat="44.20003396387109" lon="11.414422442406675"><ele>679.8333333333334</ele><time>2026-04-30T09:09:32Z</time></trkpt><trkpt lat="44.20012078672244" lon="11.414467636948753"><ele>675.0</ele><time>2026-04-30T09:09:33Z</time></trkpt><trkpt lat="44.2002183502512" lon="11.414540637578328"><ele>675.0</ele><time>2026-04-30T09:09:34Z</time></trkpt><trkpt lat="44.20033184648242" lon="11.4146294394954"><ele>675.0</ele><time>2026-04-30T09:09:35Z</time></trkpt><trkpt lat="44.200440028605236" lon="11.414729355665472"><ele>675.0</ele><time>2026-04-30T09:09:36Z</time></trkpt><trkpt lat="44.20053360247893" lon="11.414815995425908"><ele>675.0</ele><time>2026-04-30T09:09:37Z</time></trkpt><trkpt lat="44.20062791841411" lon="11.414892215835673"><ele>674.6</ele><time>2026-04-30T09:09:38Z</time></trkpt><trkpt lat="44.200729539956505" lon="11.414941957305633"><ele>674.2</ele><time>2026-04-30T09:09:39Z</time></trkpt><trkpt lat="44.20083816896208" lon="11.414949450513259"><ele>673.8</ele><time>2026-04-30T09:09:40Z</time></trkpt><trkpt lat="44.200952183008305" lon="11.414916566363265"><ele>673.4</ele><time>2026-04-30T09:09:41Z</time></trkpt><trkpt lat="44.20105557094272" lon="11.414846992726586"><ele>673.0</ele><time>2026-04-30T09:09:42Z</time></trkpt><trkpt lat="44.20115529783002" lon="11.414771294816894"><ele>673.0</ele><time>2026-04-30T09:09:43Z</time></trkpt><trkpt lat="44.20125727316948" lon="11.414721517279022"><ele>673.0</ele><time>2026-04-30T09:09:44Z</time></trkpt><trkpt lat="44.201366465504904" lon="11.414705116614533"><ele>673.0</ele><time>2026-04-30T09:09:45Z</time></trkpt><trkpt lat="44.201477208489194" lon="11.414700648695018"><ele>673.0</ele><time>2026-04-30T09:09:46Z</time></trkpt><trkpt lat="44.20159403096168" lon="11.414709062351537"><ele>673.0</ele><time>2026-04-30T09:09:47Z</time></trkpt><trkpt lat="44.201707418291676" lon="11.41472732691507"><ele>671.5</ele><time>2026-04-30T09:09:48Z</time></trkpt><trkpt lat="44.20182392975328" lon="11.41476103657873"><ele>670.0</ele><time>2026-04-30T09:09:49Z</time></trkpt><trkpt lat="44.20194659755404" lon="11.41480378117633"><ele>668.5</ele><time>2026-04-30T09:09:50Z</time></trkpt><trkpt lat="44.20207703332892" lon="11.41485695548174"><ele>667.0</ele><time>2026-04-30T09:09:51Z</time></trkpt><trkpt lat="44.20220738286365" lon="11.414911091347147"><ele>664.25</ele><time>2026-04-30T09:09:52Z</time></trkpt><trkpt lat="44.202343256276144" lon="11.414966829298388"><ele>661.5</ele><time>2026-04-30T09:09:53Z</time></trkpt><trkpt lat="44.20248109113758" lon="11.415021468528737"><ele>658.75</ele><time>2026-04-30T09:09:54Z</time></trkpt><trkpt lat="44.202619524389554" lon="11.41507865111762"><ele>656.0</ele><time>2026-04-30T09:09:55Z</time></trkpt><trkpt lat="44.202750839481574" lon="11.415126169150883"><ele>656.0</ele><time>2026-04-30T09:09:56Z</time></trkpt><trkpt lat="44.20287642355596" lon="11.41516786196516"><ele>656.0</ele><time>2026-04-30T09:09:57Z</time></trkpt><trkpt lat="44.202987458577944" lon="11.415219353827338"><ele>656.0</ele><time>2026-04-30T09:09:58Z</time></trkpt><trkpt lat="44.20306570999858" lon="11.415340163849622"><ele>656.0</ele><time>2026-04-30T09:09:59Z</time></trkpt><trkpt lat="44.203150639191776" lon="11.415449455028256"><ele>655.5</ele><time>2026-04-30T09:10:00Z</time></trkpt><trkpt lat="44.20325681795117" lon="11.415540195862084"><ele>655.0</ele><time>2026-04-30T09:10:01Z</time></trkpt><trkpt lat="44.20336574726647" lon="11.41564357796874"><ele>654.5</ele><time>2026-04-30T09:10:02Z</time></trkpt><trkpt lat="44.20348736202309" lon="11.415740504087104"><ele>654.0</ele><time>2026-04-30T09:10:03Z</time></trkpt><trkpt lat="44.2036177087931" lon="11.415831374343366"><ele>654.0</ele><time>2026-04-30T09:10:04Z</time></trkpt><trkpt lat="44.20373324275697" lon="11.415918283281044"><ele>654.0</ele><time>2026-04-30T09:10:05Z</time></trkpt><trkpt lat="44.2038450108185" lon="11.416018163787292"><ele>654.0</ele><time>2026-04-30T09:10:06Z</time></trkpt><trkpt lat="44.20395668943666" lon="11.416122143069728"><ele>654.0</ele><time>2026-04-30T09:10:07Z</time></trkpt><trkpt lat="44.20406728382077" lon="11.416225112928888"><ele>652.5</ele><time>2026-04-30T09:10:08Z</time></trkpt><trkpt lat="44.20417433702971" lon="11.416324787270904"><ele>651.0</ele><time>2026-04-30T09:10:09Z</time></trkpt><trkpt lat="44.20427774809638" lon="11.41642014719639"><ele>649.5</ele><time>2026-04-30T09:10:10Z</time></trkpt><trkpt lat="44.20437560127236" lon="11.416509893166156"><ele>648.0</ele><time>2026-04-30T09:10:11Z</time></trkpt><trkpt lat="44.20446811010549" lon="11.416595992758468"><ele>648.0</ele><time>2026-04-30T09:10:12Z</time></trkpt><trkpt lat="44.20456217746705" lon="11.416684672722965"><ele>648.0</ele><time>2026-04-30T09:10:13Z</time></trkpt><trkpt lat="44.204655950558234" lon="11.416773075388685"><ele>648.0</ele><time>2026-04-30T09:10:14Z</time></trkpt><trkpt lat="44.204749044681584" lon="11.416863883563622"><ele>648.0</ele><time>2026-04-30T09:10:15Z</time></trkpt><trkpt lat="44.20483707061425" lon="11.416965343396853"><ele>644.0</ele><time>2026-04-30T09:10:16Z</time></trkpt><trkpt lat="44.204926350889004" lon="11.417076209019152"><ele>640.0</ele><time>2026-04-30T09:10:17Z</time></trkpt><trkpt lat="44.205028002077384" lon="11.417175845172324"><ele>636.0</ele><time>2026-04-30T09:10:18Z</time></trkpt><trkpt lat="44.20511942484144" lon="11.417299553646014"><ele>632.0</ele><time>2026-04-30T09:10:19Z</time></trkpt><trkpt lat="44.20521694671617" lon="11.417431194596947"><ele>632.0</ele><time>2026-04-30T09:10:20Z</time></trkpt><trkpt lat="44.20531986049422" lon="11.41756364022521"><ele>632.0</ele><time>2026-04-30T09:10:21Z</time></trkpt><trkpt lat="44.20542783560343" lon="11.41769312761875"><ele>632.0</ele><time>2026-04-30T09:10:22Z</time></trkpt><trkpt lat="44.20553825535702" lon="11.417817072047479"><ele>632.0</ele><time>2026-04-30T09:10:23Z</time></trkpt><trkpt lat="44.2056569607462" lon="11.417934093007965"><ele>629.25</ele><time>2026-04-30T09:10:24Z</time></trkpt><trkpt lat="44.2057755133865" lon="11.418048603308767"><ele>626.5</ele><time>2026-04-30T09:10:25Z</time></trkpt><trkpt lat="44.205894831200524" lon="11.418171504250285"><ele>623.75</ele><time>2026-04-30T09:10:26Z</time></trkpt><trkpt lat="44.20600944653668" lon="11.418300100835507"><ele>621.0</ele><time>2026-04-30T09:10:27Z</time></trkpt><trkpt lat="44.20610757001587" lon="11.41845047341702"><ele>621.0</ele><time>2026-04-30T09:10:28Z</time></trkpt><trkpt lat="44.206217580558516" lon="11.418604612750334"><ele>621.0</ele><time>2026-04-30T09:10:29Z</time></trkpt><trkpt lat="44.20633415071633" lon="11.418773722469425"><ele>621.0</ele><time>2026-04-30T09:10:30Z</time></trkpt><trkpt lat="44.20644576260497" lon="11.418935111515697"><ele>616.3333333333334</ele><time>2026-04-30T09:10:31Z</time></trkpt><trkpt lat="44.206557073518816" lon="11.419092653737495"><ele>611.6666666666667</ele><time>2026-04-30T09:10:32Z</time></trkpt><trkpt lat="44.206665269307656" lon="11.41924622227039"><ele>607.0</ele><time>2026-04-30T09:10:33Z</time></trkpt><trkpt lat="44.206772584999385" lon="11.41939979105529"><ele>607.0</ele><time>2026-04-30T09:10:34Z</time></trkpt><trkpt lat="44.20687917233589" lon="11.419552317252395"><ele>607.0</ele><time>2026-04-30T09:10:35Z</time></trkpt><trkpt lat="44.20698403148456" lon="11.419702457821751"><ele>607.0</ele><time>2026-04-30T09:10:36Z</time></trkpt><trkpt lat="44.20708830980597" lon="11.419852501680133"><ele>611.0</ele><time>2026-04-30T09:10:37Z</time></trkpt><trkpt lat="44.20719024223289" lon="11.419999380612946"><ele>615.0</ele><time>2026-04-30T09:10:38Z</time></trkpt><trkpt lat="44.207286773230784" lon="11.420152466579667"><ele>619.0</ele><time>2026-04-30T09:10:39Z</time></trkpt><trkpt lat="44.20737035638196" lon="11.420316457955192"><ele>623.0</ele><time>2026-04-30T09:10:40Z</time></trkpt><trkpt lat="44.20745235153241" lon="11.420486292645199"><ele>613.5</ele><time>2026-04-30T09:10:41Z</time></trkpt><trkpt lat="44.20752231350491" lon="11.420646937002783"><ele>604.0</ele><time>2026-04-30T09:10:42Z</time></trkpt><trkpt lat="44.207578010618086" lon="11.420788194727871"><ele>594.5</ele><time>2026-04-30T09:10:43Z</time></trkpt><trkpt lat="44.20762120269901" lon="11.420931882959765"><ele>585.0</ele><time>2026-04-30T09:10:44Z</time></trkpt><trkpt lat="44.207635404072434" lon="11.421088383309039"><ele>585.0</ele><time>2026-04-30T09:10:45Z</time></trkpt><trkpt lat="44.20762960111555" lon="11.421248786772258"><ele>585.0</ele><time>2026-04-30T09:10:46Z</time></trkpt><trkpt lat="44.2076308397981" lon="11.421419387404061"><ele>585.0</ele><time>2026-04-30T09:10:47Z</time></trkpt><trkpt lat="44.20767485095847" lon="11.421579195376836"><ele>585.0</ele><time>2026-04-30T09:10:48Z</time></trkpt><trkpt lat="44.207767003360935" lon="11.421705516191489"><ele>586.0</ele><time>2026-04-30T09:10:49Z</time></trkpt><trkpt lat="44.2078735807893" lon="11.421809750866464"><ele>587.0</ele><time>2026-04-30T09:10:50Z</time></trkpt><trkpt lat="44.207971924814416" lon="11.42192715978335"><ele>588.0</ele><time>2026-04-30T09:10:51Z</time></trkpt><trkpt lat="44.208066955804384" lon="11.422054831172122"><ele>589.0</ele><time>2026-04-30T09:10:52Z</time></trkpt><trkpt lat="44.20812277403772" lon="11.422228770981903"><ele>584.25</ele><time>2026-04-30T09:10:53Z</time></trkpt><trkpt lat="44.20818366785753" lon="11.422419093841908"><ele>579.5</ele><time>2026-04-30T09:10:54Z</time></trkpt><trkpt lat="44.20823864652473" lon="11.422600075117964"><ele>574.75</ele><time>2026-04-30T09:10:55Z</time></trkpt><trkpt lat="44.208292314931995" lon="11.422777211888018"><ele>570.0</ele><time>2026-04-30T09:10:56Z</time></trkpt><trkpt lat="44.208343982524106" lon="11.422951522948443"><ele>571.2</ele><time>2026-04-30T09:10:57Z</time></trkpt><trkpt lat="44.20839110335416" lon="11.423113249223581"><ele>572.4</ele><time>2026-04-30T09:10:58Z</time></trkpt><trkpt lat="44.20843280302576" lon="11.423255133146634"><ele>573.6</ele><time>2026-04-30T09:10:59Z</time></trkpt><trkpt lat="44.208468548543564" lon="11.423371870868523"><ele>574.8</ele><time>2026-04-30T09:11:00Z</time></trkpt><trkpt lat="44.20849597606591" lon="11.423475140321026"><ele>576.0</ele><time>2026-04-30T09:11:01Z</time></trkpt><trkpt lat="44.20851606907796" lon="11.423567464392216"><ele>576.0</ele><time>2026-04-30T09:11:02Z</time></trkpt><trkpt lat="44.20852613848163" lon="11.42370305851612"><ele>576.0</ele><time>2026-04-30T09:11:04Z</time></trkpt><trkpt lat="44.20865190443343" lon="11.423636217069747"><ele>576.0</ele><time>2026-04-30T09:11:10Z</time></trkpt><trkpt lat="44.20862197560938" lon="11.423527965267628"><ele>576.0</ele><time>2026-04-30T09:11:11Z</time></trkpt><trkpt lat="44.20861680790791" lon="11.423438681359823"><ele>576.0</ele><time>2026-04-30T09:11:12Z</time></trkpt><trkpt lat="44.20860509901018" lon="11.423326851045665"><ele>576.0</ele><time>2026-04-30T09:11:13Z</time></trkpt><trkpt lat="44.20859084155939" lon="11.423200789005831"><ele>576.0</ele><time>2026-04-30T09:11:14Z</time></trkpt><trkpt lat="44.20857833729512" lon="11.423062226581571"><ele>576.0</ele><time>2026-04-30T09:11:15Z</time></trkpt><trkpt lat="44.208566943686186" lon="11.42292913406135"><ele>576.0</ele><time>2026-04-30T09:11:16Z</time></trkpt><trkpt lat="44.20855417640057" lon="11.42279319034373"><ele>576.0</ele><time>2026-04-30T09:11:17Z</time></trkpt><trkpt lat="44.20853983085267" lon="11.422656764696999"><ele>574.8</ele><time>2026-04-30T09:11:18Z</time></trkpt><trkpt lat="44.20852309534248" lon="11.42251900040112"><ele>573.6</ele><time>2026-04-30T09:11:19Z</time></trkpt><trkpt lat="44.20850679396995" lon="11.42237714098998"><ele>572.4</ele><time>2026-04-30T09:11:20Z</time></trkpt><trkpt lat="44.20848494869544" lon="11.422239817098038"><ele>571.2</ele><time>2026-04-30T09:11:21Z</time></trkpt><trkpt lat="44.2084648336607" lon="11.422104118732634"><ele>570.0</ele><time>2026-04-30T09:11:22Z</time></trkpt><trkpt lat="44.208448304617704" lon="11.42196046908733"><ele>567.4</ele><time>2026-04-30T09:11:23Z</time></trkpt><trkpt lat="44.208435623916195" lon="11.421811520472321"><ele>564.8</ele><time>2026-04-30T09:11:24Z</time></trkpt><trkpt lat="44.208424524548406" lon="11.421669027094914"><ele>562.2</ele><time>2026-04-30T09:11:25Z</time></trkpt><trkpt lat="44.208409234226394" lon="11.421527954329566"><ele>559.6</ele><time>2026-04-30T09:11:26Z</time></trkpt><trkpt lat="44.20839674200962" lon="11.421385546689102"><ele>557.0</ele><time>2026-04-30T09:11:27Z</time></trkpt><trkpt lat="44.20840284922105" lon="11.421252716070825"><ele>556.4</ele><time>2026-04-30T09:11:28Z</time></trkpt><trkpt lat="44.20842194980906" lon="11.421128314998633"><ele>555.8000000000001</ele><time>2026-04-30T09:11:29Z</time></trkpt><trkpt lat="44.20843883723252" lon="11.421004370271463"><ele>555.2</ele><time>2026-04-30T09:11:30Z</time></trkpt><trkpt lat="44.20845894556462" lon="11.42088236422867"><ele>554.6</ele><time>2026-04-30T09:11:31Z</time></trkpt><trkpt lat="44.208465101396236" lon="11.420735926598821"><ele>554.0</ele><time>2026-04-30T09:11:32Z</time></trkpt><trkpt lat="44.2084562456179" lon="11.420581503595995"><ele>553.2</ele><time>2026-04-30T09:11:33Z</time></trkpt><trkpt lat="44.20843471665896" lon="11.420435598969043"><ele>552.4</ele><time>2026-04-30T09:11:34Z</time></trkpt><trkpt lat="44.208420336035765" lon="11.420285282848278"><ele>551.6</ele><time>2026-04-30T09:11:35Z</time></trkpt><trkpt lat="44.208396603752526" lon="11.420150355616382"><ele>550.8</ele><time>2026-04-30T09:11:36Z</time></trkpt><trkpt lat="44.2083654352514" lon="11.420021693052393"><ele>550.0</ele><time>2026-04-30T09:11:37Z</time></trkpt><trkpt lat="44.20835229793366" lon="11.41990006735994"><ele>550.0</ele><time>2026-04-30T09:11:38Z</time></trkpt><trkpt lat="44.20837351481657" lon="11.419788471650039"><ele>550.0</ele><time>2026-04-30T09:11:39Z</time></trkpt><trkpt lat="44.2084087402241" lon="11.419712864153935"><ele>550.0</ele><time>2026-04-30T09:11:40Z</time></trkpt><trkpt lat="44.20852928302775" lon="11.419661856089425"><ele>550.0</ele><time>2026-04-30T09:11:42Z</time></trkpt><trkpt lat="44.20860702065527" lon="11.419598033870576"><ele>550.0</ele><time>2026-04-30T09:11:43Z</time></trkpt><trkpt lat="44.20868113722081" lon="11.419510377719996"><ele>549.5</ele><time>2026-04-30T09:11:44Z</time></trkpt><trkpt lat="44.20876887233442" lon="11.419457382017226"><ele>549.0</ele><time>2026-04-30T09:11:45Z</time></trkpt><trkpt lat="44.20885746671655" lon="11.41944872318288"><ele>548.5</ele><time>2026-04-30T09:11:46Z</time></trkpt><trkpt lat="44.208951323728996" lon="11.419481214281602"><ele>548.0</ele><time>2026-04-30T09:11:47Z</time></trkpt><trkpt lat="44.20902054202394" lon="11.419543240920808"><ele>547.5</ele><time>2026-04-30T09:11:48Z</time></trkpt><trkpt lat="44.20905432468519" lon="11.419631196084156"><ele>547.0</ele><time>2026-04-30T09:11:49Z</time></trkpt><trkpt lat="44.20905231970357" lon="11.419731534887019"><ele>547.0</ele><time>2026-04-30T09:11:50Z</time></trkpt><trkpt lat="44.20902396424625" lon="11.419833779551961"><ele>547.0</ele><time>2026-04-30T09:11:51Z</time></trkpt><trkpt lat="44.20896523813596" lon="11.419936039934258"><ele>547.0</ele><time>2026-04-30T09:11:52Z</time></trkpt><trkpt lat="44.20890520013289" lon="11.42005510845358"><ele>547.0</ele><time>2026-04-30T09:11:53Z</time></trkpt><trkpt lat="44.20885698215844" lon="11.420170464313541"><ele>547.0</ele><time>2026-04-30T09:11:54Z</time></trkpt><trkpt lat="44.20887162606986" lon="11.420287461363873"><ele>546.8000000000001</ele><time>2026-04-30T09:11:55Z</time></trkpt><trkpt lat="44.20891872246512" lon="11.420400074087544"><ele>546.6</ele><time>2026-04-30T09:11:56Z</time></trkpt><trkpt lat="44.20902457692443" lon="11.420485127392416"><ele>546.4000000000001</ele><time>2026-04-30T09:11:57Z</time></trkpt><trkpt lat="44.20912315006937" lon="11.420561199926158"><ele>546.2</ele><time>2026-04-30T09:11:58Z</time></trkpt><trkpt lat="44.209223159002484" lon="11.420646498081444"><ele>546.0</ele><time>2026-04-30T09:11:59Z</time></trkpt><trkpt lat="44.20931790338104" lon="11.420679457084288"><ele>546.0</ele><time>2026-04-30T09:12:00Z</time></trkpt><trkpt lat="44.20942055979979" lon="11.420664984806576"><ele>546.0</ele><time>2026-04-30T09:12:01Z</time></trkpt><trkpt lat="44.209532506000286" lon="11.420634709376957"><ele>546.0</ele><time>2026-04-30T09:12:02Z</time></trkpt><trkpt lat="44.20964657358647" lon="11.420635194468517"><ele>546.0</ele><time>2026-04-30T09:12:03Z</time></trkpt><trkpt lat="44.20975428253734" lon="11.420687204163466"><ele>546.0</ele><time>2026-04-30T09:12:04Z</time></trkpt><trkpt lat="44.20986553310332" lon="11.420783799542894"><ele>550.5</ele><time>2026-04-30T09:12:05Z</time></trkpt><trkpt lat="44.20997131942984" lon="11.420915497176905"><ele>555.0</ele><time>2026-04-30T09:12:06Z</time></trkpt><trkpt lat="44.210064251947735" lon="11.421049977291949"><ele>559.5</ele><time>2026-04-30T09:12:07Z</time></trkpt><trkpt lat="44.21012726475064" lon="11.421159316694794"><ele>564.0</ele><time>2026-04-30T09:12:08Z</time></trkpt><trkpt lat="44.210144793460586" lon="11.421295053757918"><ele>564.0</ele><time>2026-04-30T09:12:09Z</time></trkpt><trkpt lat="44.21019481278488" lon="11.42135748651683"><ele>564.0</ele><time>2026-04-30T09:12:10Z</time></trkpt><trkpt lat="44.21034270985015" lon="11.421287094539704"><ele>564.0</ele><time>2026-04-30T09:12:11Z</time></trkpt><trkpt lat="44.21043039193522" lon="11.421319320427152"><ele>564.0</ele><time>2026-04-30T09:12:12Z</time></trkpt><trkpt lat="44.21051961595654" lon="11.421309871056499"><ele>564.0</ele><time>2026-04-30T09:12:13Z</time></trkpt><trkpt lat="44.21060351374451" lon="11.421278836099859"><ele>566.3333333333334</ele><time>2026-04-30T09:12:14Z</time></trkpt><trkpt lat="44.21068286602409" lon="11.421240418267224"><ele>568.6666666666666</ele><time>2026-04-30T09:12:15Z</time></trkpt><trkpt lat="44.21074511539082" lon="11.421195371748093"><ele>571.0</ele><time>2026-04-30T09:12:16Z</time></trkpt><trkpt lat="44.21081153200568" lon="11.421124297065598"><ele>573.3333333333333</ele><time>2026-04-30T09:12:17Z</time></trkpt><trkpt lat="44.21088156295441" lon="11.421024758262819"><ele>575.6666666666666</ele><time>2026-04-30T09:12:18Z</time></trkpt><trkpt lat="44.21092434821484" lon="11.420900132033733"><ele>578.0</ele><time>2026-04-30T09:12:19Z</time></trkpt><trkpt lat="44.2109583793565" lon="11.420756504045778"><ele>578.0</ele><time>2026-04-30T09:12:20Z</time></trkpt><trkpt lat="44.211045302665916" lon="11.42065731376905"><ele>578.0</ele><time>2026-04-30T09:12:21Z</time></trkpt><trkpt lat="44.211142464604464" lon="11.420578456696425"><ele>578.0</ele><time>2026-04-30T09:12:22Z</time></trkpt><trkpt lat="44.211243129995594" lon="11.4205059596941"><ele>578.0</ele><time>2026-04-30T09:12:23Z</time></trkpt><trkpt lat="44.21134299096082" lon="11.420436195400123"><ele>579.8</ele><time>2026-04-30T09:12:24Z</time></trkpt><trkpt lat="44.21143903273794" lon="11.420361774781224"><ele>581.5999999999999</ele><time>2026-04-30T09:12:25Z</time></trkpt><trkpt lat="44.21153363311842" lon="11.420279927601966"><ele>583.4000000000001</ele><time>2026-04-30T09:12:26Z</time></trkpt><trkpt lat="44.2116233864948" lon="11.420286482989543"><ele>585.2</ele><time>2026-04-30T09:12:27Z</time></trkpt><trkpt lat="44.21169828517491" lon="11.420290064702302"><ele>587.0</ele><time>2026-04-30T09:12:28Z</time></trkpt><trkpt lat="44.211774226242134" lon="11.420354949782242"><ele>589.8000000000001</ele><time>2026-04-30T09:12:29Z</time></trkpt><trkpt lat="44.21188491804649" lon="11.420392607003741"><ele>592.6</ele><time>2026-04-30T09:12:30Z</time></trkpt><trkpt lat="44.21200146621334" lon="11.420402718483338"><ele>595.4000000000001</ele><time>2026-04-30T09:12:31Z</time></trkpt><trkpt lat="44.212097846477214" lon="11.420422112060043"><ele>598.2</ele><time>2026-04-30T09:12:32Z</time></trkpt><trkpt lat="44.21218126118836" lon="11.420408976412713"><ele>601.0</ele><time>2026-04-30T09:12:33Z</time></trkpt><trkpt lat="44.212271837543376" lon="11.420353886491414"><ele>603.0</ele><time>2026-04-30T09:12:34Z</time></trkpt><trkpt lat="44.212375540581135" lon="11.420284093012016"><ele>605.0</ele><time>2026-04-30T09:12:35Z</time></trkpt><trkpt lat="44.21248053267008" lon="11.420200607216227"><ele>607.0</ele><time>2026-04-30T09:12:36Z</time></trkpt><trkpt lat="44.21259861765695" lon="11.420106994532313"><ele>609.0</ele><time>2026-04-30T09:12:37Z</time></trkpt><trkpt lat="44.21269885572968" lon="11.420013102315561"><ele>609.0</ele><time>2026-04-30T09:12:38Z</time></trkpt><trkpt lat="44.21278020086904" lon="11.419893364230463"><ele>609.0</ele><time>2026-04-30T09:12:39Z</time></trkpt><trkpt lat="44.21286243919957" lon="11.419755939530152"><ele>609.0</ele><time>2026-04-30T09:12:40Z</time></trkpt><trkpt lat="44.212961239937385" lon="11.419625065611223"><ele>609.0</ele><time>2026-04-30T09:12:41Z</time></trkpt><trkpt lat="44.21305738260035" lon="11.419523990930976"><ele>610.0</ele><time>2026-04-30T09:12:42Z</time></trkpt><trkpt lat="44.213130886783965" lon="11.41943494405505"><ele>611.0</ele><time>2026-04-30T09:12:43Z</time></trkpt><trkpt lat="44.21320228432976" lon="11.419332658970118"><ele>612.0</ele><time>2026-04-30T09:12:44Z</time></trkpt><trkpt lat="44.21327801876065" lon="11.41921997568038"><ele>613.0</ele><time>2026-04-30T09:12:45Z</time></trkpt><trkpt lat="44.21334054729041" lon="11.419101319466408"><ele>614.0</ele><time>2026-04-30T09:12:46Z</time></trkpt><trkpt lat="44.21339727992343" lon="11.418979817429095"><ele>614.4</ele><time>2026-04-30T09:12:47Z</time></trkpt><trkpt lat="44.21343417419569" lon="11.418844860133142"><ele>614.8</ele><time>2026-04-30T09:12:48Z</time></trkpt><trkpt lat="44.213466114339106" lon="11.41869676677918"><ele>615.2</ele><time>2026-04-30T09:12:49Z</time></trkpt><trkpt lat="44.213505469554796" lon="11.418557660849753"><ele>615.6</ele><time>2026-04-30T09:12:50Z</time></trkpt><trkpt lat="44.213555843193994" lon="11.418438039781687"><ele>616.0</ele><time>2026-04-30T09:12:51Z</time></trkpt><trkpt lat="44.2136230439361" lon="11.418347312048216"><ele>617.2</ele><time>2026-04-30T09:12:52Z</time></trkpt><trkpt lat="44.21370187426859" lon="11.418268087590022"><ele>618.4000000000001</ele><time>2026-04-30T09:12:53Z</time></trkpt><trkpt lat="44.213787393362054" lon="11.418193976997154"><ele>619.6</ele><time>2026-04-30T09:12:54Z</time></trkpt><trkpt lat="44.21387671363659" lon="11.418121238230878"><ele>620.8000000000001</ele><time>2026-04-30T09:12:55Z</time></trkpt><trkpt lat="44.21397144515256" lon="11.418046172969474"><ele>622.0</ele><time>2026-04-30T09:12:56Z</time></trkpt><trkpt lat="44.21406556242525" lon="11.417965400652925"><ele>626.25</ele><time>2026-04-30T09:12:57Z</time></trkpt><trkpt lat="44.2141550734415" lon="11.417870469622065"><ele>630.5</ele><time>2026-04-30T09:12:58Z</time></trkpt><trkpt lat="44.21424444459834" lon="11.417767043157689"><ele>634.75</ele><time>2026-04-30T09:12:59Z</time></trkpt><trkpt lat="44.21434624995898" lon="11.417665516044146"><ele>639.0</ele><time>2026-04-30T09:13:00Z</time></trkpt><trkpt lat="44.21443562254541" lon="11.417560649802045"><ele>639.0</ele><time>2026-04-30T09:13:01Z</time></trkpt><trkpt lat="44.21451257449619" lon="11.417446792791681"><ele>639.0</ele><time>2026-04-30T09:13:02Z</time></trkpt><trkpt lat="44.21458405848168" lon="11.417316636630439"><ele>639.0</ele><time>2026-04-30T09:13:03Z</time></trkpt><trkpt lat="44.21466096188064" lon="11.417185309785252"><ele>639.0</ele><time>2026-04-30T09:13:04Z</time></trkpt><trkpt lat="44.21474545377772" lon="11.417068019309804"><ele>642.75</ele><time>2026-04-30T09:13:05Z</time></trkpt><trkpt lat="44.21485672262535" lon="11.41699568672084"><ele>646.5</ele><time>2026-04-30T09:13:06Z</time></trkpt><trkpt lat="44.21496946337264" lon="11.416915615861525"><ele>650.25</ele><time>2026-04-30T09:13:07Z</time></trkpt><trkpt lat="44.21507546689965" lon="11.416825743731476"><ele>654.0</ele><time>2026-04-30T09:13:08Z</time></trkpt><trkpt lat="44.2151726102242" lon="11.416775626649912"><ele>654.0</ele><time>2026-04-30T09:13:09Z</time></trkpt><trkpt lat="44.215232972152045" lon="11.41671145812366"><ele>654.0</ele><time>2026-04-30T09:13:10Z</time></trkpt><trkpt lat="44.21527356059292" lon="11.416629565912391"><ele>654.0</ele><time>2026-04-30T09:13:11Z</time></trkpt><trkpt lat="44.21530510804626" lon="11.416522299608772"><ele>654.0</ele><time>2026-04-30T09:13:12Z</time></trkpt><trkpt lat="44.215338132924074" lon="11.416407668532054"><ele>654.0</ele><time>2026-04-30T09:13:13Z</time></trkpt><trkpt lat="44.21536534113578" lon="11.416294894541286"><ele>654.0</ele><time>2026-04-30T09:13:14Z</time></trkpt><trkpt lat="44.21540356884048" lon="11.416203697207914"><ele>655.6666666666666</ele><time>2026-04-30T09:13:15Z</time></trkpt><trkpt lat="44.215453445655605" lon="11.416118591532511"><ele>657.3333333333334</ele><time>2026-04-30T09:13:16Z</time></trkpt><trkpt lat="44.21551350033837" lon="11.416025107288556"><ele>659.0</ele><time>2026-04-30T09:13:17Z</time></trkpt><trkpt lat="44.215565873129265" lon="11.415956142138903"><ele>660.6666666666667</ele><time>2026-04-30T09:13:18Z</time></trkpt><trkpt lat="44.21561879223347" lon="11.415893852584688"><ele>662.3333333333334</ele><time>2026-04-30T09:13:19Z</time></trkpt><trkpt lat="44.21568233600325" lon="11.415818201883406"><ele>664.0</ele><time>2026-04-30T09:13:20Z</time></trkpt><trkpt lat="44.215738446620165" lon="11.415728797921824"><ele>664.0</ele><time>2026-04-30T09:13:21Z</time></trkpt><trkpt lat="44.215707116523696" lon="11.415569476066743"><ele>664.0</ele><time>2026-04-30T09:13:23Z</time></trkpt><trkpt lat="44.21564156807435" lon="11.415528900890946"><ele>664.0</ele><time>2026-04-30T09:13:24Z</time></trkpt><trkpt lat="44.21557033329394" lon="11.415559824452592"><ele>664.0</ele><time>2026-04-30T09:13:25Z</time></trkpt><trkpt lat="44.21549354626726" lon="11.415649319834296"><ele>664.0</ele><time>2026-04-30T09:13:26Z</time></trkpt><trkpt lat="44.21541903403749" lon="11.415724518676882"><ele>665.4000000000001</ele><time>2026-04-30T09:13:27Z</time></trkpt><trkpt lat="44.215337503068326" lon="11.415780499443526"><ele>666.8</ele><time>2026-04-30T09:13:28Z</time></trkpt><trkpt lat="44.21523055012515" lon="11.415822032108576"><ele>668.2</ele><time>2026-04-30T09:13:29Z</time></trkpt><trkpt lat="44.21513924404378" lon="11.415825974290499"><ele>669.5999999999999</ele><time>2026-04-30T09:13:30Z</time></trkpt><trkpt lat="44.21503793706802" lon="11.415807567233758"><ele>671.0</ele><time>2026-04-30T09:13:31Z</time></trkpt><trkpt lat="44.2149448295769" lon="11.415775693203612"><ele>671.0</ele><time>2026-04-30T09:13:32Z</time></trkpt><trkpt lat="44.21484626996712" lon="11.41575380526602"><ele>671.0</ele><time>2026-04-30T09:13:33Z</time></trkpt><trkpt lat="44.21475010587188" lon="11.41574340581937"><ele>671.0</ele><time>2026-04-30T09:13:34Z</time></trkpt><trkpt lat="44.21465360773726" lon="11.415747166461609"><ele>671.0</ele><time>2026-04-30T09:13:35Z</time></trkpt><trkpt lat="44.214572809108766" lon="11.415755793570906"><ele>671.0</ele><time>2026-04-30T09:13:36Z</time></trkpt><trkpt lat="44.21450592798621" lon="11.415762245804538"><ele>671.0</ele><time>2026-04-30T09:13:37Z</time></trkpt><trkpt lat="44.2144442891892" lon="11.415662033193282"><ele>670.1666666666666</ele><time>2026-04-30T09:13:39Z</time></trkpt><trkpt lat="44.21445963049339" lon="11.415576049204102"><ele>669.3333333333333</ele><time>2026-04-30T09:13:40Z</time></trkpt><trkpt lat="44.214503855062915" lon="11.415509467381053"><ele>668.5</ele><time>2026-04-30T09:13:41Z</time></trkpt><trkpt lat="44.214572812201965" lon="11.415479601020882"><ele>667.6666666666666</ele><time>2026-04-30T09:13:42Z</time></trkpt><trkpt lat="44.21468634913112" lon="11.41539681409937"><ele>666.8333333333334</ele><time>2026-04-30T09:13:44Z</time></trkpt><trkpt lat="44.214747174338925" lon="11.415332080180958"><ele>666.0</ele><time>2026-04-30T09:13:45Z</time></trkpt><trkpt lat="44.21480087700841" lon="11.415274067698052"><ele>668.5</ele><time>2026-04-30T09:13:46Z</time></trkpt><trkpt lat="44.21485118709428" lon="11.415207465019177"><ele>671.0</ele><time>2026-04-30T09:13:47Z</time></trkpt><trkpt lat="44.21490677326776" lon="11.41513330525024"><ele>673.5</ele><time>2026-04-30T09:13:48Z</time></trkpt><trkpt lat="44.2149707481163" lon="11.415056013824719"><ele>676.0</ele><time>2026-04-30T09:13:49Z</time></trkpt><trkpt lat="44.21504240482328" lon="11.414968506045351"><ele>678.5</ele><time>2026-04-30T09:13:50Z</time></trkpt><trkpt lat="44.2151249049579" lon="11.414868524554981"><ele>681.0</ele><time>2026-04-30T09:13:51Z</time></trkpt><trkpt lat="44.215194492223155" lon="11.414783404693058"><ele>681.0</ele><time>2026-04-30T09:13:52Z</time></trkpt><trkpt lat="44.215252488460415" lon="11.414712849769257"><ele>681.0</ele><time>2026-04-30T09:13:53Z</time></trkpt><trkpt lat="44.21531766824225" lon="11.414637242403566"><ele>681.0</ele><time>2026-04-30T09:13:54Z</time></trkpt><trkpt lat="44.21538840723909" lon="11.41454891431979"><ele>681.0</ele><time>2026-04-30T09:13:55Z</time></trkpt><trkpt lat="44.215463986474504" lon="11.414443981208462"><ele>681.0</ele><time>2026-04-30T09:13:56Z</time></trkpt><trkpt lat="44.21555058634935" lon="11.414331240620632"><ele>680.5999999999999</ele><time>2026-04-30T09:13:57Z</time></trkpt><trkpt lat="44.21563397198944" lon="11.41421662879002"><ele>680.2</ele><time>2026-04-30T09:13:58Z</time></trkpt><trkpt lat="44.21569558489003" lon="11.414101938371456"><ele>679.8</ele><time>2026-04-30T09:13:59Z</time></trkpt><trkpt lat="44.21572744823787" lon="11.413984209594751"><ele>679.4000000000001</ele><time>2026-04-30T09:14:00Z</time></trkpt><trkpt lat="44.21575611881059" lon="11.413854896614962"><ele>679.0</ele><time>2026-04-30T09:14:01Z</time></trkpt><trkpt lat="44.21578594952794" lon="11.413711189859095"><ele>681.0</ele><time>2026-04-30T09:14:02Z</time></trkpt><trkpt lat="44.21581199189093" lon="11.413562990062024"><ele>683.0</ele><time>2026-04-30T09:14:03Z</time></trkpt><trkpt lat="44.21583801250369" lon="11.413419017371272"><ele>685.0</ele><time>2026-04-30T09:14:04Z</time></trkpt><trkpt lat="44.215886115827374" lon="11.413283322140016"><ele>687.0</ele><time>2026-04-30T09:14:05Z</time></trkpt><trkpt lat="44.21595656271887" lon="11.413166122107526"><ele>689.0</ele><time>2026-04-30T09:14:06Z</time></trkpt><trkpt lat="44.21603913210661" lon="11.413071875489761"><ele>688.5</ele><time>2026-04-30T09:14:07Z</time></trkpt><trkpt lat="44.21612555193418" lon="11.412974518207044"><ele>688.0</ele><time>2026-04-30T09:14:08Z</time></trkpt><trkpt lat="44.216221717328445" lon="11.41286720542773"><ele>687.5</ele><time>2026-04-30T09:14:09Z</time></trkpt><trkpt lat="44.21632002729568" lon="11.412765319188152"><ele>687.0</ele><time>2026-04-30T09:14:10Z</time></trkpt><trkpt lat="44.21641492816163" lon="11.412672192418336"><ele>688.2</ele><time>2026-04-30T09:14:11Z</time></trkpt><trkpt lat="44.216502128438854" lon="11.412596792605372"><ele>689.4000000000001</ele><time>2026-04-30T09:14:12Z</time></trkpt><trkpt lat="44.21658906164385" lon="11.412536227047505"><ele>690.5999999999999</ele><time>2026-04-30T09:14:13Z</time></trkpt><trkpt lat="44.216687603025015" lon="11.41249339514089"><ele>691.8</ele><time>2026-04-30T09:14:14Z</time></trkpt><trkpt lat="44.21678267832729" lon="11.412464672154947"><ele>693.0</ele><time>2026-04-30T09:14:15Z</time></trkpt><trkpt lat="44.21687175690306" lon="11.4124428183158"><ele>693.0</ele><time>2026-04-30T09:14:16Z</time></trkpt><trkpt lat="44.21696579962221" lon="11.412398276518829"><ele>693.0</ele><time>2026-04-30T09:14:17Z</time></trkpt><trkpt lat="44.21706443931941" lon="11.412339003425657"><ele>693.0</ele><time>2026-04-30T09:14:18Z</time></trkpt><trkpt lat="44.21715055629676" lon="11.412272791214498"><ele>693.0</ele><time>2026-04-30T09:14:19Z</time></trkpt><trkpt lat="44.21723400943917" lon="11.412199498584995"><ele>693.0</ele><time>2026-04-30T09:14:20Z</time></trkpt><trkpt lat="44.21732613823552" lon="11.412134654869098"><ele>695.0</ele><time>2026-04-30T09:14:21Z</time></trkpt><trkpt lat="44.217405561195314" lon="11.412048853144448"><ele>697.0</ele><time>2026-04-30T09:14:22Z</time></trkpt><trkpt lat="44.2174566187551" lon="11.411931139605947"><ele>699.0</ele><time>2026-04-30T09:14:23Z</time></trkpt><trkpt lat="44.217490167075226" lon="11.411784219589816"><ele>701.0</ele><time>2026-04-30T09:14:24Z</time></trkpt><trkpt lat="44.21752449381428" lon="11.411641350363949"><ele>703.0</ele><time>2026-04-30T09:14:25Z</time></trkpt><trkpt lat="44.21757405179921" lon="11.411507284690856"><ele>703.0</ele><time>2026-04-30T09:14:26Z</time></trkpt><trkpt lat="44.21763299189422" lon="11.411380930617664"><ele>703.0</ele><time>2026-04-30T09:14:27Z</time></trkpt><trkpt lat="44.21768258970847" lon="11.411280129747531"><ele>703.0</ele><time>2026-04-30T09:14:28Z</time></trkpt><trkpt lat="44.21771575555759" lon="11.411181800923064"><ele>703.0</ele><time>2026-04-30T09:14:29Z</time></trkpt><trkpt lat="44.21774636212713" lon="11.411069158859133"><ele>703.0</ele><time>2026-04-30T09:14:30Z</time></trkpt><trkpt lat="44.21778701060704" lon="11.41095208447485"><ele>703.4</ele><time>2026-04-30T09:14:31Z</time></trkpt><trkpt lat="44.21783318862247" lon="11.410828678654621"><ele>703.8</ele><time>2026-04-30T09:14:32Z</time></trkpt><trkpt lat="44.217875924589784" lon="11.410721611262915"><ele>704.2</ele><time>2026-04-30T09:14:33Z</time></trkpt><trkpt lat="44.21791298690832" lon="11.41061804502901"><ele>704.6</ele><time>2026-04-30T09:14:34Z</time></trkpt><trkpt lat="44.217958257366625" lon="11.410498476648247"><ele>705.0</ele><time>2026-04-30T09:14:35Z</time></trkpt><trkpt lat="44.21801831087435" lon="11.410387075752803"><ele>705.0</ele><time>2026-04-30T09:14:36Z</time></trkpt><trkpt lat="44.2180882799918" lon="11.41027518810105"><ele>705.0</ele><time>2026-04-30T09:14:37Z</time></trkpt><trkpt lat="44.218133400252825" lon="11.410130675445481"><ele>705.0</ele><time>2026-04-30T09:14:38Z</time></trkpt><trkpt lat="44.21817241428326" lon="11.409985229231353"><ele>705.0</ele><time>2026-04-30T09:14:39Z</time></trkpt><trkpt lat="44.21822534589236" lon="11.40985458982477"><ele>705.0</ele><time>2026-04-30T09:14:40Z</time></trkpt><trkpt lat="44.21829181326078" lon="11.409730600100396"><ele>707.2</ele><time>2026-04-30T09:14:41Z</time></trkpt><trkpt lat="44.21836021885906" lon="11.40962485643035"><ele>709.4</ele><time>2026-04-30T09:14:42Z</time></trkpt><trkpt lat="44.218438787851305" lon="11.40953403549317"><ele>711.5999999999999</ele><time>2026-04-30T09:14:43Z</time></trkpt><trkpt lat="44.2185129861958" lon="11.409436730449666"><ele>713.8</ele><time>2026-04-30T09:14:44Z</time></trkpt><trkpt lat="44.21858603933872" lon="11.409323534015833"><ele>716.0</ele><time>2026-04-30T09:14:45Z</time></trkpt><trkpt lat="44.21866769046143" lon="11.409213722510945"><ele>716.0</ele><time>2026-04-30T09:14:46Z</time></trkpt><trkpt lat="44.21874158147768" lon="11.409112970502166"><ele>716.0</ele><time>2026-04-30T09:14:47Z</time></trkpt><trkpt lat="44.21881178452986" lon="11.409005211474682"><ele>716.0</ele><time>2026-04-30T09:14:48Z</time></trkpt><trkpt lat="44.21888673160031" lon="11.408896573957273"><ele>716.0</ele><time>2026-04-30T09:14:49Z</time></trkpt><trkpt lat="44.21896001599199" lon="11.408793378239535"><ele>716.0</ele><time>2026-04-30T09:14:50Z</time></trkpt><trkpt lat="44.2190300676451" lon="11.408680060392447"><ele>718.8</ele><time>2026-04-30T09:14:51Z</time></trkpt><trkpt lat="44.21909813653928" lon="11.408569193049317"><ele>721.5999999999999</ele><time>2026-04-30T09:14:52Z</time></trkpt><trkpt lat="44.219172618584345" lon="11.408471243044184"><ele>724.4</ele><time>2026-04-30T09:14:53Z</time></trkpt><trkpt lat="44.219242748952006" lon="11.408358885417233"><ele>727.2</ele><time>2026-04-30T09:14:54Z</time></trkpt><trkpt lat="44.21931863271099" lon="11.408247981909314"><ele>730.0</ele><time>2026-04-30T09:14:55Z</time></trkpt><trkpt lat="44.219398721462426" lon="11.408153180984458"><ele>730.0</ele><time>2026-04-30T09:14:56Z</time></trkpt><trkpt lat="44.219474657935926" lon="11.408051424760314"><ele>730.0</ele><time>2026-04-30T09:14:57Z</time></trkpt><trkpt lat="44.21954125814506" lon="11.407946885912121"><ele>730.0</ele><time>2026-04-30T09:14:58Z</time></trkpt><trkpt lat="44.21960251007984" lon="11.407876553037127"><ele>730.0</ele><time>2026-04-30T09:14:59Z</time></trkpt><trkpt lat="44.21968912565829" lon="11.40778124885846"><ele>730.0</ele><time>2026-04-30T09:15:01Z</time></trkpt><trkpt lat="44.219701205834795" lon="11.407641308627012"><ele>730.1666666666667</ele><time>2026-04-30T09:15:03Z</time></trkpt><trkpt lat="44.219730414113435" lon="11.407478210764273"><ele>730.3333333333334</ele><time>2026-04-30T09:15:05Z</time></trkpt><trkpt lat="44.21974919585371" lon="11.407390266671724"><ele>730.5</ele><time>2026-04-30T09:15:06Z</time></trkpt><trkpt lat="44.21977379802364" lon="11.407285532046338"><ele>730.6666666666666</ele><time>2026-04-30T09:15:07Z</time></trkpt><trkpt lat="44.21980117654637" lon="11.407196447112781"><ele>730.8333333333333</ele><time>2026-04-30T09:15:08Z</time></trkpt><trkpt lat="44.21983000775132" lon="11.407046841923567"><ele>731.0</ele><time>2026-04-30T09:15:10Z</time></trkpt><trkpt lat="44.219859151039635" lon="11.406877447792713"><ele>732.5999999999999</ele><time>2026-04-30T09:15:12Z</time></trkpt><trkpt lat="44.21988033622792" lon="11.406780992879531"><ele>734.2</ele><time>2026-04-30T09:15:13Z</time></trkpt><trkpt lat="44.219904584549816" lon="11.406691987989278"><ele>735.8</ele><time>2026-04-30T09:15:14Z</time></trkpt><trkpt lat="44.21994483526801" lon="11.406547780164358"><ele>737.4000000000001</ele><time>2026-04-30T09:15:16Z</time></trkpt><trkpt lat="44.219987794778326" lon="11.40643060698439"><ele>739.0</ele><time>2026-04-30T09:15:18Z</time></trkpt><trkpt lat="44.22003914299547" lon="11.406302113797267"><ele>739.6666666666667</ele><time>2026-04-30T09:15:20Z</time></trkpt><trkpt lat="44.2200627213167" lon="11.40621141995552"><ele>740.3333333333334</ele><time>2026-04-30T09:15:21Z</time></trkpt><trkpt lat="44.22009029135015" lon="11.406103449052756"><ele>741.0</ele><time>2026-04-30T09:15:22Z</time></trkpt><trkpt lat="44.2201101916552" lon="11.405978826849827"><ele>741.6666666666666</ele><time>2026-04-30T09:15:23Z</time></trkpt><trkpt lat="44.22012965112501" lon="11.405848838178219"><ele>742.3333333333333</ele><time>2026-04-30T09:15:24Z</time></trkpt><trkpt lat="44.22015353772299" lon="11.405735153508385"><ele>743.0</ele><time>2026-04-30T09:15:25Z</time></trkpt><trkpt lat="44.220180631826146" lon="11.405646840712539"><ele>743.0</ele><time>2026-04-30T09:15:26Z</time></trkpt><trkpt lat="44.2202055228809" lon="11.405563708412979"><ele>743.0</ele><time>2026-04-30T09:15:27Z</time></trkpt><trkpt lat="44.22023085520003" lon="11.405470391954122"><ele>743.0</ele><time>2026-04-30T09:15:28Z</time></trkpt><trkpt lat="44.22025967093782" lon="11.40537390723571"><ele>743.0</ele><time>2026-04-30T09:15:29Z</time></trkpt><trkpt lat="44.22028545166383" lon="11.4052683707591"><ele>743.0</ele><time>2026-04-30T09:15:30Z</time></trkpt><trkpt lat="44.220313785834115" lon="11.405169930472024"><ele>743.0</ele><time>2026-04-30T09:15:31Z</time></trkpt><trkpt lat="44.22034470653239" lon="11.40507115360721"><ele>743.0</ele><time>2026-04-30T09:15:32Z</time></trkpt><trkpt lat="44.220364391586436" lon="11.40498185645382"><ele>743.6666666666666</ele><time>2026-04-30T09:15:33Z</time></trkpt><trkpt lat="44.220402274736" lon="11.404816894096491"><ele>744.3333333333333</ele><time>2026-04-30T09:15:35Z</time></trkpt><trkpt lat="44.22044073927249" lon="11.40473306513107"><ele>745.0</ele><time>2026-04-30T09:15:36Z</time></trkpt><trkpt lat="44.220484561630265" lon="11.404642356226361"><ele>745.6666666666666</ele><time>2026-04-30T09:15:37Z</time></trkpt><trkpt lat="44.220538029199396" lon="11.404556036968943"><ele>746.3333333333334</ele><time>2026-04-30T09:15:38Z</time></trkpt><trkpt lat="44.22058274652222" lon="11.40446703771528"><ele>747.0</ele><time>2026-04-30T09:15:39Z</time></trkpt><trkpt lat="44.220614071657806" lon="11.40436669532288"><ele>747.0</ele><time>2026-04-30T09:15:40Z</time></trkpt><trkpt lat="44.22064910679698" lon="11.40425266332981"><ele>747.0</ele><time>2026-04-30T09:15:41Z</time></trkpt><trkpt lat="44.22068888859" lon="11.404161487190086"><ele>747.0</ele><time>2026-04-30T09:15:42Z</time></trkpt><trkpt lat="44.220754609806704" lon="11.40401521661607"><ele>747.0</ele><time>2026-04-30T09:15:44Z</time></trkpt><trkpt lat="44.22081445696667" lon="11.403861221476964"><ele>747.0</ele><time>2026-04-30T09:15:46Z</time></trkpt><trkpt lat="44.22084867325729" lon="11.403774291735502"><ele>750.5</ele><time>2026-04-30T09:15:47Z</time></trkpt><trkpt lat="44.22088979387579" lon="11.403675610563452"><ele>754.0</ele><time>2026-04-30T09:15:48Z</time></trkpt><trkpt lat="44.22092228129654" lon="11.403556592256635"><ele>757.5</ele><time>2026-04-30T09:15:49Z</time></trkpt><trkpt lat="44.22094870821482" lon="11.403433839073656"><ele>761.0</ele><time>2026-04-30T09:15:50Z</time></trkpt><trkpt lat="44.22096986676284" lon="11.403339027592882"><ele>764.5</ele><time>2026-04-30T09:15:51Z</time></trkpt><trkpt lat="44.22099726710206" lon="11.403220080333181"><ele>768.0</ele><time>2026-04-30T09:15:53Z</time></trkpt><trkpt lat="44.22096312758704" lon="11.403057295745299"><ele>769.2</ele><time>2026-04-30T09:15:55Z</time></trkpt><trkpt lat="44.22095684661334" lon="11.402900086804939"><ele>770.4</ele><time>2026-04-30T09:15:57Z</time></trkpt><trkpt lat="44.220940406703285" lon="11.40272931713669"><ele>771.6</ele><time>2026-04-30T09:15:59Z</time></trkpt><trkpt lat="44.22094678165421" lon="11.40260006320144"><ele>772.8000000000001</ele><time>2026-04-30T09:16:01Z</time></trkpt><trkpt lat="44.22100201288067" lon="11.402533328481086"><ele>774.0</ele><time>2026-04-30T09:16:03Z</time></trkpt><trkpt lat="44.22098538489231" lon="11.402416466484858"><ele>774.0</ele><time>2026-04-30T09:16:05Z</time></trkpt><trkpt lat="44.220920074075686" lon="11.40236396151278"><ele>774.0</ele><time>2026-04-30T09:16:07Z</time></trkpt><trkpt lat="44.2208499351624" lon="11.402297754146154"><ele>774.0</ele><time>2026-04-30T09:16:09Z</time></trkpt><trkpt lat="44.22075069466626" lon="11.40221890588355"><ele>774.0</ele><time>2026-04-30T09:16:11Z</time></trkpt><trkpt lat="44.22064759350055" lon="11.402121842847887"><ele>774.0</ele><time>2026-04-30T09:16:13Z</time></trkpt><trkpt lat="44.220599805610426" lon="11.402022005562074"><ele>773.0</ele><time>2026-04-30T09:16:14Z</time></trkpt><trkpt lat="44.220564251793526" lon="11.401921417085951"><ele>772.0</ele><time>2026-04-30T09:16:15Z</time></trkpt><trkpt lat="44.22054090539671" lon="11.401778039895484"><ele>771.0</ele><time>2026-04-30T09:16:17Z</time></trkpt><trkpt lat="44.22054240700635" lon="11.401681962607519"><ele>770.0</ele><time>2026-04-30T09:16:18Z</time></trkpt><trkpt lat="44.22054331246557" lon="11.40158336231976"><ele>769.0</ele><time>2026-04-30T09:16:19Z</time></trkpt><trkpt lat="44.220520983263" lon="11.401463013564058"><ele>768.0</ele><time>2026-04-30T09:16:21Z</time></trkpt><trkpt lat="44.22052258245012" lon="11.401356473890916"><ele>767.9999999999999</ele><time>2026-04-30T09:16:24Z</time></trkpt><trkpt lat="44.22053084122028" lon="11.401234528037799"><ele>768.0</ele><time>2026-04-30T09:16:26Z</time></trkpt><trkpt lat="44.22054822149842" lon="11.401147712516227"><ele>768.0</ele><time>2026-04-30T09:16:27Z</time></trkpt><trkpt lat="44.22056659572999" lon="11.401051647980804"><ele>768.0</ele><time>2026-04-30T09:16:28Z</time></trkpt><trkpt lat="44.2205785156182" lon="11.400958458619806"><ele>768.0</ele><time>2026-04-30T09:16:29Z</time></trkpt><trkpt lat="44.220595330270214" lon="11.400842250481235"><ele>767.9999999999999</ele><time>2026-04-30T09:16:31Z</time></trkpt><trkpt lat="44.22058661869383" lon="11.40075271957955"><ele>768.0</ele><time>2026-04-30T09:16:34Z</time></trkpt><trkpt lat="44.22058368734263" lon="11.400659893390028"><ele>768.0</ele><time>2026-04-30T09:16:36Z</time></trkpt><trkpt lat="44.22060386718615" lon="11.40054728210502"><ele>768.0</ele><time>2026-04-30T09:16:38Z</time></trkpt><trkpt lat="44.220665096953695" lon="11.400414640479267"><ele>768.0</ele><time>2026-04-30T09:16:40Z</time></trkpt><trkpt lat="44.22070568471799" lon="11.40034416627673"><ele>768.0</ele><time>2026-04-30T09:16:41Z</time></trkpt><trkpt lat="44.22072408321348" lon="11.400163722400759"><ele>768.0</ele><time>2026-04-30T09:16:43Z</time></trkpt><trkpt lat="44.22068571039693" lon="11.400041691728712"><ele>769.4</ele><time>2026-04-30T09:16:45Z</time></trkpt><trkpt lat="44.22060344668363" lon="11.399936314741712"><ele>770.8</ele><time>2026-04-30T09:16:47Z</time></trkpt><trkpt lat="44.22048384921869" lon="11.399872429400473"><ele>772.2</ele><time>2026-04-30T09:16:49Z</time></trkpt><trkpt lat="44.22041067450837" lon="11.399854382901266"><ele>773.6</ele><time>2026-04-30T09:16:50Z</time></trkpt><trkpt lat="44.22035077154303" lon="11.399753523173034"><ele>775.0</ele><time>2026-04-30T09:16:52Z</time></trkpt><trkpt lat="44.220304050617834" lon="11.399668550477074"><ele>777.3333333333333</ele><time>2026-04-30T09:16:54Z</time></trkpt><trkpt lat="44.22025861926831" lon="11.399600010267758"><ele>779.6666666666666</ele><time>2026-04-30T09:16:56Z</time></trkpt><trkpt lat="44.22020686402817" lon="11.399512645103039"><ele>782.0</ele><time>2026-04-30T09:16:58Z</time></trkpt><trkpt lat="44.22016549962265" lon="11.39938686103415"><ele>784.3333333333333</ele><time>2026-04-30T09:17:00Z</time></trkpt><trkpt lat="44.22016132116841" lon="11.39929105430688"><ele>786.6666666666666</ele><time>2026-04-30T09:17:02Z</time></trkpt><trkpt lat="44.22017517508852" lon="11.39919843843801"><ele>789.0</ele><time>2026-04-30T09:17:04Z</time></trkpt><trkpt lat="44.220245280239375" lon="11.399140165293284"><ele>789.0</ele><time>2026-04-30T09:17:06Z</time></trkpt><trkpt lat="44.220291909872074" lon="11.399012439637046"><ele>789.0</ele><time>2026-04-30T09:17:08Z</time></trkpt><trkpt lat="44.2203588093864" lon="11.398902075266983"><ele>789.0</ele><time>2026-04-30T09:17:10Z</time></trkpt><trkpt lat="44.22042221685334" lon="11.398887259297938"><ele>789.0</ele><time>2026-04-30T09:17:11Z</time></trkpt><trkpt lat="44.22049694438981" lon="11.39887020613902"><ele>789.0</ele><time>2026-04-30T09:17:12Z</time></trkpt><trkpt lat="44.22054635811982" lon="11.398809791188668"><ele>789.0</ele><time>2026-04-30T09:17:13Z</time></trkpt><trkpt lat="44.22057553754476" lon="11.398712401355477"><ele>791.4000000000001</ele><time>2026-04-30T09:17:14Z</time></trkpt><trkpt lat="44.220607060029934" lon="11.39861483543184"><ele>793.8</ele><time>2026-04-30T09:17:15Z</time></trkpt><trkpt lat="44.220634626784026" lon="11.398454155631676"><ele>796.2</ele><time>2026-04-30T09:17:17Z</time></trkpt><trkpt lat="44.2206303868455" lon="11.398332410235062"><ele>798.5999999999999</ele><time>2026-04-30T09:17:18Z</time></trkpt><trkpt lat="44.22062553183617" lon="11.398186012840561"><ele>801.0</ele><time>2026-04-30T09:17:19Z</time></trkpt><trkpt lat="44.22064021755191" lon="11.398037978958392"><ele>801.0</ele><time>2026-04-30T09:17:20Z</time></trkpt><trkpt lat="44.220647729429906" lon="11.397927191253372"><ele>801.0</ele><time>2026-04-30T09:17:21Z</time></trkpt><trkpt lat="44.2206262310161" lon="11.397806164401912"><ele>801.0</ele><time>2026-04-30T09:17:22Z</time></trkpt><trkpt lat="44.220557396584624" lon="11.397680329789228"><ele>801.0</ele><time>2026-04-30T09:17:23Z</time></trkpt><trkpt lat="44.2204968245441" lon="11.397536955159081"><ele>801.0</ele><time>2026-04-30T09:17:24Z</time></trkpt><trkpt lat="44.220488647386574" lon="11.397386154399964"><ele>801.0</ele><time>2026-04-30T09:17:25Z</time></trkpt><trkpt lat="44.220456845549975" lon="11.397218328495752"><ele>801.0</ele><time>2026-04-30T09:17:26Z</time></trkpt><trkpt lat="44.22046494232093" lon="11.397045082642821"><ele>801.0</ele><time>2026-04-30T09:17:27Z</time></trkpt><trkpt lat="44.22046489183079" lon="11.396893525636601"><ele>801.0</ele><time>2026-04-30T09:17:28Z</time></trkpt><trkpt lat="44.2204292351343" lon="11.396744126986889"><ele>801.5999999999999</ele><time>2026-04-30T09:17:29Z</time></trkpt><trkpt lat="44.2203849361394" lon="11.396579742092342"><ele>802.2</ele><time>2026-04-30T09:17:30Z</time></trkpt><trkpt lat="44.220352506450325" lon="11.39644462281876"><ele>802.8</ele><time>2026-04-30T09:17:31Z</time></trkpt><trkpt lat="44.2203431752179" lon="11.396349081087727"><ele>803.4000000000001</ele><time>2026-04-30T09:17:32Z</time></trkpt><trkpt lat="44.22031526374539" lon="11.39624863784887"><ele>804.0</ele><time>2026-04-30T09:17:34Z</time></trkpt><trkpt lat="44.22025788283499" lon="11.396157886370206"><ele>805.0</ele><time>2026-04-30T09:17:36Z</time></trkpt><trkpt lat="44.22023448718998" lon="11.396043730918434"><ele>806.0</ele><time>2026-04-30T09:17:38Z</time></trkpt><trkpt lat="44.22020920554254" lon="11.39591978933008"><ele>807.0</ele><time>2026-04-30T09:17:40Z</time></trkpt><trkpt lat="44.220157646515624" lon="11.395851324646832"><ele>808.0</ele><time>2026-04-30T09:17:42Z</time></trkpt><trkpt lat="44.220123886142375" lon="11.395777047527778"><ele>809.0</ele><time>2026-04-30T09:17:45Z</time></trkpt><trkpt lat="44.22016976968591" lon="11.39570397801383"><ele>810.0</ele><time>2026-04-30T09:17:48Z</time></trkpt><trkpt lat="44.22012950650961" lon="11.39561595619581"><ele>810.0</ele><time>2026-04-30T09:17:52Z</time></trkpt><trkpt lat="44.220106152512244" lon="11.395528247248873"><ele>810.0</ele><time>2026-04-30T09:17:54Z</time></trkpt><trkpt lat="44.22003955171952" lon="11.395472858757481"><ele>810.0</ele><time>2026-04-30T09:17:56Z</time></trkpt><trkpt lat="44.21996222713201" lon="11.395442414375644"><ele>810.0</ele><time>2026-04-30T09:17:58Z</time></trkpt><trkpt lat="44.21987862306171" lon="11.39543234110725"><ele>810.0</ele><time>2026-04-30T09:18:01Z</time></trkpt><trkpt lat="44.2197656838109" lon="11.395427456062144"><ele>810.0</ele><time>2026-04-30T09:18:04Z</time></trkpt><trkpt lat="44.21957828338358" lon="11.395368032110456"><ele>810.6666666666666</ele><time>2026-04-30T09:18:06Z</time></trkpt><trkpt lat="44.21946998939295" lon="11.395345820458907"><ele>811.3333333333333</ele><time>2026-04-30T09:18:08Z</time></trkpt><trkpt lat="44.2193843180343" lon="11.395327088307127"><ele>812.0</ele><time>2026-04-30T09:18:09Z</time></trkpt><trkpt lat="44.21932162788558" lon="11.395301921473221"><ele>812.6666666666666</ele><time>2026-04-30T09:18:10Z</time></trkpt><trkpt lat="44.21925168000195" lon="11.395268364382739"><ele>813.3333333333333</ele><time>2026-04-30T09:18:11Z</time></trkpt><trkpt lat="44.21918538583015" lon="11.395234237889047"><ele>814.0</ele><time>2026-04-30T09:18:12Z</time></trkpt><trkpt lat="44.219086540652455" lon="11.395203314646364"><ele>815.0</ele><time>2026-04-30T09:18:14Z</time></trkpt><trkpt lat="44.21897224662974" lon="11.395211102735987"><ele>816.0</ele><time>2026-04-30T09:18:16Z</time></trkpt><trkpt lat="44.21888367013598" lon="11.395223227525872"><ele>817.0</ele><time>2026-04-30T09:18:17Z</time></trkpt><trkpt lat="44.21882118433851" lon="11.395242300256374"><ele>818.0</ele><time>2026-04-30T09:18:18Z</time></trkpt><trkpt lat="44.21873278684696" lon="11.395304835375214"><ele>819.0</ele><time>2026-04-30T09:18:20Z</time></trkpt><trkpt lat="44.218611141241276" lon="11.395229509844249"><ele>819.0</ele><time>2026-04-30T09:18:22Z</time></trkpt><trkpt lat="44.218575336562424" lon="11.395155880409789"><ele>819.0</ele><time>2026-04-30T09:18:23Z</time></trkpt><trkpt lat="44.21846505755253" lon="11.39514749177079"><ele>819.0</ele><time>2026-04-30T09:18:25Z</time></trkpt><trkpt lat="44.21838720843523" lon="11.39512307062838"><ele>819.0</ele><time>2026-04-30T09:18:26Z</time></trkpt><trkpt lat="44.2183085324041" lon="11.395114004136005"><ele>819.0</ele><time>2026-04-30T09:18:27Z</time></trkpt><trkpt lat="44.218242160877224" lon="11.395095264455193"><ele>819.0</ele><time>2026-04-30T09:18:28Z</time></trkpt><trkpt lat="44.21817199491447" lon="11.395034299732055"><ele>819.6666666666666</ele><time>2026-04-30T09:18:29Z</time></trkpt><trkpt lat="44.21811318273137" lon="11.39494429220566"><ele>820.3333333333333</ele><time>2026-04-30T09:18:30Z</time></trkpt><trkpt lat="44.21805901832175" lon="11.394833530903616"><ele>821.0</ele><time>2026-04-30T09:18:31Z</time></trkpt><trkpt lat="44.2180111381383" lon="11.394752186660705"><ele>821.6666666666666</ele><time>2026-04-30T09:18:32Z</time></trkpt><trkpt lat="44.21797179151158" lon="11.394670646893239"><ele>822.3333333333333</ele><time>2026-04-30T09:18:33Z</time></trkpt><trkpt lat="44.217952381491145" lon="11.394549456889571"><ele>823.0</ele><time>2026-04-30T09:18:34Z</time></trkpt><trkpt lat="44.217914858487745" lon="11.39445644346355"><ele>823.9999999999999</ele><time>2026-04-30T09:18:35Z</time></trkpt><trkpt lat="44.217865558695834" lon="11.394398282747472"><ele>825.0</ele><time>2026-04-30T09:18:36Z</time></trkpt><trkpt lat="44.217800501045296" lon="11.394370164801003"><ele>826.0</ele><time>2026-04-30T09:18:37Z</time></trkpt><trkpt lat="44.21771687211487" lon="11.394340849307568"><ele>827.0</ele><time>2026-04-30T09:18:38Z</time></trkpt><trkpt lat="44.217621110346805" lon="11.39433546219924"><ele>827.9999999999999</ele><time>2026-04-30T09:18:39Z</time></trkpt><trkpt lat="44.21752515249887" lon="11.394365835704527"><ele>829.0</ele><time>2026-04-30T09:18:40Z</time></trkpt><trkpt lat="44.21744632825693" lon="11.394434534234769"><ele>829.0</ele><time>2026-04-30T09:18:41Z</time></trkpt><trkpt lat="44.2173749359276" lon="11.394510700327253"><ele>829.0</ele><time>2026-04-30T09:18:42Z</time></trkpt><trkpt lat="44.21729041565943" lon="11.394551777074486"><ele>829.0</ele><time>2026-04-30T09:18:43Z</time></trkpt><trkpt lat="44.21717778608225" lon="11.394570404073567"><ele>829.0</ele><time>2026-04-30T09:18:44Z</time></trkpt><trkpt lat="44.217040276586" lon="11.394568307587226"><ele>829.0</ele><time>2026-04-30T09:18:45Z</time></trkpt><trkpt lat="44.21688432619778" lon="11.394530224813858"><ele>829.5</ele><time>2026-04-30T09:18:46Z</time></trkpt><trkpt lat="44.21674715694936" lon="11.39445390119856"><ele>830.0</ele><time>2026-04-30T09:18:47Z</time></trkpt><trkpt lat="44.21661793404595" lon="11.394354229526407"><ele>830.5</ele><time>2026-04-30T09:18:48Z</time></trkpt><trkpt lat="44.21651128603017" lon="11.394275971151037"><ele>831.0</ele><time>2026-04-30T09:18:49Z</time></trkpt><trkpt lat="44.21643367522568" lon="11.39419717685295"><ele>833.1999999999999</ele><time>2026-04-30T09:18:50Z</time></trkpt><trkpt lat="44.21638024564265" lon="11.394051763379867"><ele>835.4</ele><time>2026-04-30T09:18:52Z</time></trkpt><trkpt lat="44.2163718129457" lon="11.3938781518098"><ele>837.6</ele><time>2026-04-30T09:18:54Z</time></trkpt><trkpt lat="44.21635089148141" lon="11.393783683661603"><ele>839.8</ele><time>2026-04-30T09:18:55Z</time></trkpt><trkpt lat="44.216307551966565" lon="11.393682611780438"><ele>842.0</ele><time>2026-04-30T09:18:56Z</time></trkpt><trkpt lat="44.216263683646865" lon="11.393616864888585"><ele>842.6666666666667</ele><time>2026-04-30T09:18:57Z</time></trkpt><trkpt lat="44.216164135069796" lon="11.39364414650901"><ele>843.3333333333334</ele><time>2026-04-30T09:18:59Z</time></trkpt><trkpt lat="44.21609377269201" lon="11.393687700019973"><ele>844.0</ele><time>2026-04-30T09:19:00Z</time></trkpt><trkpt lat="44.21602611472309" lon="11.39370585474754"><ele>844.6666666666667</ele><time>2026-04-30T09:19:01Z</time></trkpt><trkpt lat="44.21596380750152" lon="11.393670729846917"><ele>845.3333333333334</ele><time>2026-04-30T09:19:02Z</time></trkpt><trkpt lat="44.21589281165982" lon="11.393629326085833"><ele>846.0</ele><time>2026-04-30T09:19:03Z</time></trkpt><trkpt lat="44.21582859447118" lon="11.393599565114545"><ele>846.0</ele><time>2026-04-30T09:19:04Z</time></trkpt><trkpt lat="44.21575646279525" lon="11.393583259401405"><ele>846.0</ele><time>2026-04-30T09:19:05Z</time></trkpt><trkpt lat="44.21569068145142" lon="11.393564545848752"><ele>846.0</ele><time>2026-04-30T09:19:06Z</time></trkpt><trkpt lat="44.215563698299796" lon="11.393562862044256"><ele>846.0</ele><time>2026-04-30T09:19:09Z</time></trkpt><trkpt lat="44.21549432018134" lon="11.39352821527617"><ele>846.0</ele><time>2026-04-30T09:19:10Z</time></trkpt><trkpt lat="44.215438213626726" lon="11.393478714245663"><ele>846.0</ele><time>2026-04-30T09:19:11Z</time></trkpt><trkpt lat="44.215374666924056" lon="11.393447002386683"><ele>847.5</ele><time>2026-04-30T09:19:12Z</time></trkpt><trkpt lat="44.215274576710414" lon="11.393490557791843"><ele>849.0</ele><time>2026-04-30T09:19:14Z</time></trkpt><trkpt lat="44.21517264789069" lon="11.393552371852577"><ele>850.5</ele><time>2026-04-30T09:19:16Z</time></trkpt><trkpt lat="44.21510084482387" lon="11.39355616726346"><ele>852.0</ele><time>2026-04-30T09:19:17Z</time></trkpt><trkpt lat="44.21501417716351" lon="11.393548694727544"><ele>853.5</ele><time>2026-04-30T09:19:19Z</time></trkpt><trkpt lat="44.214951679641736" lon="11.393527989475162"><ele>855.0</ele><time>2026-04-30T09:19:22Z</time></trkpt><trkpt lat="44.21486305900999" lon="11.393491878725834"><ele>853.2</ele><time>2026-04-30T09:19:30Z</time></trkpt><trkpt lat="44.21480163246773" lon="11.393459849458"><ele>851.4</ele><time>2026-04-30T09:19:32Z</time></trkpt><trkpt lat="44.21471907156476" lon="11.39342995054789"><ele>849.5999999999999</ele><time>2026-04-30T09:19:34Z</time></trkpt><trkpt lat="44.21464069238729" lon="11.393366301698615"><ele>847.8</ele><time>2026-04-30T09:19:36Z</time></trkpt><trkpt lat="44.21454993152144" lon="11.39325614753315"><ele>846.0</ele><time>2026-04-30T09:19:38Z</time></trkpt><trkpt lat="44.214481320778106" lon="11.393170818977177"><ele>846.0</ele><time>2026-04-30T09:19:39Z</time></trkpt><trkpt lat="44.21441071098482" lon="11.393061940062138"><ele>846.0</ele><time>2026-04-30T09:19:40Z</time></trkpt><trkpt lat="44.21433849597872" lon="11.392935920532615"><ele>846.0</ele><time>2026-04-30T09:19:41Z</time></trkpt><trkpt lat="44.21427980209878" lon="11.392834100898302"><ele>846.0</ele><time>2026-04-30T09:19:42Z</time></trkpt><trkpt lat="44.21423344255569" lon="11.392750473165874"><ele>846.0</ele><time>2026-04-30T09:19:43Z</time></trkpt><trkpt lat="44.21419321732315" lon="11.39266853886881"><ele>847.0</ele><time>2026-04-30T09:19:44Z</time></trkpt><trkpt lat="44.21414604068616" lon="11.392572782615268"><ele>848.0</ele><time>2026-04-30T09:19:45Z</time></trkpt><trkpt lat="44.214104499501644" lon="11.392483507511558"><ele>849.0</ele><time>2026-04-30T09:19:46Z</time></trkpt><trkpt lat="44.21407450252839" lon="11.39238118853855"><ele>850.0</ele><time>2026-04-30T09:19:47Z</time></trkpt><trkpt lat="44.21404925444246" lon="11.392259049024092"><ele>851.0</ele><time>2026-04-30T09:19:48Z</time></trkpt><trkpt lat="44.21403427427534" lon="11.392150616337775"><ele>852.0</ele><time>2026-04-30T09:19:49Z</time></trkpt><trkpt lat="44.21403240264268" lon="11.391996255938889"><ele>852.0</ele><time>2026-04-30T09:19:51Z</time></trkpt><trkpt lat="44.214050900633396" lon="11.391874135122517"><ele>852.0</ele><time>2026-04-30T09:19:53Z</time></trkpt><trkpt lat="44.2140022297996" lon="11.39178128571623"><ele>852.0</ele><time>2026-04-30T09:28:30Z</time></trkpt><trkpt lat="44.21391821298358" lon="11.391722505832805"><ele>852.0</ele><time>2026-04-30T09:28:33Z</time></trkpt><trkpt lat="44.21384161796414" lon="11.391594856283499"><ele>852.0</ele><time>2026-04-30T09:28:35Z</time></trkpt><trkpt lat="44.213795643853196" lon="11.391522639346569"><ele>852.2857142857142</ele><time>2026-04-30T09:28:36Z</time></trkpt><trkpt lat="44.21374287849633" lon="11.39144692283097"><ele>852.5714285714286</ele><time>2026-04-30T09:28:37Z</time></trkpt><trkpt lat="44.21368798466228" lon="11.391387901404993"><ele>852.8571428571429</ele><time>2026-04-30T09:28:38Z</time></trkpt><trkpt lat="44.213615200287485" lon="11.391339646886424"><ele>853.1428571428571</ele><time>2026-04-30T09:28:39Z</time></trkpt><trkpt lat="44.213553052939865" lon="11.39129548268397"><ele>853.4285714285714</ele><time>2026-04-30T09:28:40Z</time></trkpt><trkpt lat="44.21350008214702" lon="11.391237216839517"><ele>853.7142857142857</ele><time>2026-04-30T09:28:41Z</time></trkpt><trkpt lat="44.21344315070519" lon="11.391166758332467"><ele>854.0</ele><time>2026-04-30T09:28:42Z</time></trkpt><trkpt lat="44.21337738254237" lon="11.391089488833646"><ele>854.0000000000001</ele><time>2026-04-30T09:28:43Z</time></trkpt><trkpt lat="44.213307419931084" lon="11.391009474628742"><ele>854.0</ele><time>2026-04-30T09:28:44Z</time></trkpt><trkpt lat="44.21324890087629" lon="11.390930346214219"><ele>854.0</ele><time>2026-04-30T09:28:45Z</time></trkpt><trkpt lat="44.21318354356542" lon="11.390873733220408"><ele>854.0</ele><time>2026-04-30T09:28:46Z</time></trkpt><trkpt lat="44.21311076357388" lon="11.390836771081563"><ele>854.0000000000001</ele><time>2026-04-30T09:28:47Z</time></trkpt><trkpt lat="44.213050661178386" lon="11.390786527994107"><ele>854.0</ele><time>2026-04-30T09:28:48Z</time></trkpt><trkpt lat="44.21299713316394" lon="11.390726934660321"><ele>853.1666666666667</ele><time>2026-04-30T09:28:49Z</time></trkpt><trkpt lat="44.21305394011452" lon="11.390772564282232"><ele>852.3333333333334</ele><time>2026-04-30T09:30:22Z</time></trkpt><trkpt lat="44.21300816185367" lon="11.39071003828986"><ele>851.5</ele><time>2026-04-30T09:31:01Z</time></trkpt><trkpt lat="44.212945369804345" lon="11.390672098553203"><ele>850.6666666666667</ele><time>2026-04-30T09:58:50Z</time></trkpt><trkpt lat="44.21288015981908" lon="11.390581779176028"><ele>849.8333333333334</ele><time>2026-04-30T09:58:53Z</time></trkpt><trkpt lat="44.21282781374787" lon="11.390500314554467"><ele>849.0</ele><time>2026-04-30T09:58:55Z</time></trkpt><trkpt lat="44.212728514750474" lon="11.390445627836566"><ele>850.6666666666666</ele><time>2026-04-30T09:58:57Z</time></trkpt><trkpt lat="44.212668351110544" lon="11.390390500900766"><ele>852.3333333333333</ele><time>2026-04-30T09:58:58Z</time></trkpt><trkpt lat="44.21260947377875" lon="11.390313514239857"><ele>854.0</ele><time>2026-04-30T09:58:59Z</time></trkpt><trkpt lat="44.21256145184724" lon="11.390237056894163"><ele>855.6666666666666</ele><time>2026-04-30T09:59:00Z</time></trkpt><trkpt lat="44.212519197833075" lon="11.390168501614971"><ele>857.3333333333333</ele><time>2026-04-30T09:59:01Z</time></trkpt><trkpt lat="44.21245416678921" lon="11.390037202137103"><ele>859.0</ele><time>2026-04-30T09:59:03Z</time></trkpt><trkpt lat="44.21241289234206" lon="11.389945883584122"><ele>859.0</ele><time>2026-04-30T09:59:04Z</time></trkpt><trkpt lat="44.21236732223983" lon="11.389862569526345"><ele>859.0000000000001</ele><time>2026-04-30T09:59:05Z</time></trkpt><trkpt lat="44.212306638725366" lon="11.389765271289118"><ele>859.0000000000001</ele><time>2026-04-30T09:59:06Z</time></trkpt><trkpt lat="44.21223031904814" lon="11.389667609001743"><ele>859.0</ele><time>2026-04-30T09:59:07Z</time></trkpt><trkpt lat="44.21216255737637" lon="11.389583958256054"><ele>859.0</ele><time>2026-04-30T09:59:08Z</time></trkpt><trkpt lat="44.212091310808596" lon="11.38948939778237"><ele>859.8000000000001</ele><time>2026-04-30T09:59:09Z</time></trkpt><trkpt lat="44.21200399624678" lon="11.389399946702756"><ele>860.6000000000001</ele><time>2026-04-30T09:59:10Z</time></trkpt><trkpt lat="44.211909537127795" lon="11.389320923178062"><ele>861.4</ele><time>2026-04-30T09:59:11Z</time></trkpt><trkpt lat="44.2118287455704" lon="11.389254405189586"><ele>862.2</ele><time>2026-04-30T09:59:12Z</time></trkpt><trkpt lat="44.21174092542649" lon="11.38918963958662"><ele>863.0</ele><time>2026-04-30T09:59:13Z</time></trkpt><trkpt lat="44.2116290379914" lon="11.389134030689338"><ele>863.0</ele><time>2026-04-30T09:59:14Z</time></trkpt><trkpt lat="44.21152431701933" lon="11.389100005228405"><ele>863.0</ele><time>2026-04-30T09:59:15Z</time></trkpt><trkpt lat="44.211430032686856" lon="11.389086532234401"><ele>863.0</ele><time>2026-04-30T09:59:16Z</time></trkpt><trkpt lat="44.21134683833713" lon="11.389066280415255"><ele>863.0</ele><time>2026-04-30T09:59:17Z</time></trkpt><trkpt lat="44.21127543212127" lon="11.389002688425876"><ele>863.0</ele><time>2026-04-30T09:59:18Z</time></trkpt><trkpt lat="44.21117154138784" lon="11.388930006172355"><ele>862.2</ele><time>2026-04-30T09:59:19Z</time></trkpt><trkpt lat="44.21108014979297" lon="11.38888625268273"><ele>861.4</ele><time>2026-04-30T09:59:20Z</time></trkpt><trkpt lat="44.21099458727113" lon="11.388877224728311"><ele>860.6000000000001</ele><time>2026-04-30T09:59:21Z</time></trkpt><trkpt lat="44.21090374059308" lon="11.388846758400254"><ele>859.8000000000001</ele><time>2026-04-30T09:59:22Z</time></trkpt><trkpt lat="44.21081001278549" lon="11.388781963081593"><ele>859.0</ele><time>2026-04-30T09:59:23Z</time></trkpt><trkpt lat="44.21071756183936" lon="11.388713331732054"><ele>859.4000000000001</ele><time>2026-04-30T09:59:24Z</time></trkpt><trkpt lat="44.2106325853513" lon="11.388659314709297"><ele>859.8000000000001</ele><time>2026-04-30T09:59:25Z</time></trkpt><trkpt lat="44.2105475161186" lon="11.388602970776912"><ele>860.1999999999999</ele><time>2026-04-30T09:59:26Z</time></trkpt><trkpt lat="44.21045855865131" lon="11.38852229995507"><ele>860.5999999999999</ele><time>2026-04-30T09:59:27Z</time></trkpt><trkpt lat="44.21036561654368" lon="11.388453072174965"><ele>861.0</ele><time>2026-04-30T09:59:28Z</time></trkpt><trkpt lat="44.21028577850033" lon="11.38838950516447"><ele>861.0</ele><time>2026-04-30T09:59:29Z</time></trkpt><trkpt lat="44.210207695300454" lon="11.388318235697227"><ele>861.0</ele><time>2026-04-30T09:59:30Z</time></trkpt><trkpt lat="44.210108492351075" lon="11.388259697768149"><ele>861.0</ele><time>2026-04-30T09:59:31Z</time></trkpt><trkpt lat="44.209986538124795" lon="11.388216514315182"><ele>861.0</ele><time>2026-04-30T09:59:32Z</time></trkpt><trkpt lat="44.20986011724838" lon="11.388180869541605"><ele>862.25</ele><time>2026-04-30T09:59:33Z</time></trkpt><trkpt lat="44.20973154300912" lon="11.388142917237689"><ele>863.5</ele><time>2026-04-30T09:59:34Z</time></trkpt><trkpt lat="44.20960198262563" lon="11.388111052816805"><ele>864.75</ele><time>2026-04-30T09:59:35Z</time></trkpt><trkpt lat="44.20947657282123" lon="11.388082868449763"><ele>866.0</ele><time>2026-04-30T09:59:36Z</time></trkpt><trkpt lat="44.2093535117516" lon="11.38806079984448"><ele>866.0</ele><time>2026-04-30T09:59:37Z</time></trkpt><trkpt lat="44.209235092072184" lon="11.388035098135381"><ele>866.0</ele><time>2026-04-30T09:59:38Z</time></trkpt><trkpt lat="44.209120093063724" lon="11.388006553646504"><ele>866.0</ele><time>2026-04-30T09:59:39Z</time></trkpt><trkpt lat="44.20900651674323" lon="11.387972195867986"><ele>866.0</ele><time>2026-04-30T09:59:40Z</time></trkpt><trkpt lat="44.2088877836874" lon="11.387936848507048"><ele>866.5</ele><time>2026-04-30T09:59:41Z</time></trkpt><trkpt lat="44.208769868245064" lon="11.387912290471712"><ele>867.0</ele><time>2026-04-30T09:59:42Z</time></trkpt><trkpt lat="44.20865274898617" lon="11.38789956388598"><ele>867.5</ele><time>2026-04-30T09:59:43Z</time></trkpt><trkpt lat="44.20853714779199" lon="11.387907072197464"><ele>868.0</ele><time>2026-04-30T09:59:44Z</time></trkpt><trkpt lat="44.20841777732551" lon="11.387931922118227"><ele>868.0</ele><time>2026-04-30T09:59:45Z</time></trkpt><trkpt lat="44.20829635604256" lon="11.387961356439616"><ele>868.0</ele><time>2026-04-30T09:59:46Z</time></trkpt><trkpt lat="44.20816960063198" lon="11.387989027449954"><ele>868.0</ele><time>2026-04-30T09:59:47Z</time></trkpt><trkpt lat="44.20804926980589" lon="11.388004222017315"><ele>868.0</ele><time>2026-04-30T09:59:48Z</time></trkpt><trkpt lat="44.20793768579019" lon="11.388011970991602"><ele>869.5999999999999</ele><time>2026-04-30T09:59:49Z</time></trkpt><trkpt lat="44.20782223761998" lon="11.38799742880236"><ele>871.1999999999999</ele><time>2026-04-30T09:59:50Z</time></trkpt><trkpt lat="44.20771404076923" lon="11.388028915184185"><ele>872.8</ele><time>2026-04-30T09:59:51Z</time></trkpt><trkpt lat="44.2076211390021" lon="11.388071255015536"><ele>874.4</ele><time>2026-04-30T09:59:52Z</time></trkpt><trkpt lat="44.20755419931718" lon="11.388127284526021"><ele>876.0</ele><time>2026-04-30T09:59:53Z</time></trkpt><trkpt lat="44.20750318830536" lon="11.388186045874864"><ele>876.8333333333334</ele><time>2026-04-30T09:59:54Z</time></trkpt><trkpt lat="44.20745362255886" lon="11.38824054890211"><ele>877.6666666666667</ele><time>2026-04-30T09:59:56Z</time></trkpt><trkpt lat="44.20736737534203" lon="11.388302308716375"><ele>878.5</ele><time>2026-04-30T09:59:59Z</time></trkpt><trkpt lat="44.20728830854916" lon="11.388386888103264"><ele>879.3333333333334</ele><time>2026-04-30T10:00:00Z</time></trkpt><trkpt lat="44.207194199015284" lon="11.38838135555369"><ele>880.1666666666667</ele><time>2026-04-30T10:00:01Z</time></trkpt><trkpt lat="44.207133836244374" lon="11.388356260885386"><ele>881.0</ele><time>2026-04-30T10:00:02Z</time></trkpt><trkpt lat="44.20701869010567" lon="11.388329224728082"><ele>882.4</ele><time>2026-04-30T10:00:04Z</time></trkpt><trkpt lat="44.206953145199016" lon="11.388320963139778"><ele>883.8</ele><time>2026-04-30T10:00:05Z</time></trkpt><trkpt lat="44.20681696838185" lon="11.38831891150509"><ele>885.1999999999999</ele><time>2026-04-30T10:00:07Z</time></trkpt><trkpt lat="44.20673647174366" lon="11.388353157027202"><ele>886.5999999999999</ele><time>2026-04-30T10:00:08Z</time></trkpt><trkpt lat="44.206601941495144" lon="11.388350969365156"><ele>888.0</ele><time>2026-04-30T10:00:09Z</time></trkpt><trkpt lat="44.20654340914112" lon="11.388024444076864"><ele>889.1666666666666</ele><time>2026-04-30T10:00:10Z</time></trkpt><trkpt lat="44.206469447821085" lon="11.38802545658863"><ele>890.3333333333333</ele><time>2026-04-30T10:00:11Z</time></trkpt><trkpt lat="44.2063929548215" lon="11.38804346295051"><ele>891.5</ele><time>2026-04-30T10:00:12Z</time></trkpt><trkpt lat="44.20631922441442" lon="11.38804109081682"><ele>892.6666666666666</ele><time>2026-04-30T10:00:13Z</time></trkpt><trkpt lat="44.20622388733266" lon="11.388026211105808"><ele>893.8333333333333</ele><time>2026-04-30T10:00:14Z</time></trkpt><trkpt lat="44.20612652647674" lon="11.38801950253927"><ele>895.0</ele><time>2026-04-30T10:00:15Z</time></trkpt><trkpt lat="44.20605510783504" lon="11.3880196050372"><ele>894.9999999999999</ele><time>2026-04-30T10:00:16Z</time></trkpt><trkpt lat="44.20599107656233" lon="11.387994676152399"><ele>895.0</ele><time>2026-04-30T10:00:17Z</time></trkpt><trkpt lat="44.205919946630615" lon="11.387969001363789"><ele>895.0</ele><time>2026-04-30T10:00:18Z</time></trkpt><trkpt lat="44.20583200036526" lon="11.387951846399112"><ele>895.0</ele><time>2026-04-30T10:00:19Z</time></trkpt><trkpt lat="44.20574410155358" lon="11.387943349987351"><ele>894.9999999999999</ele><time>2026-04-30T10:00:20Z</time></trkpt><trkpt lat="44.20567614609804" lon="11.387918753932476"><ele>895.0</ele><time>2026-04-30T10:00:21Z</time></trkpt><trkpt lat="44.2056028371103" lon="11.387805285309428"><ele>897.8</ele><time>2026-04-30T10:00:23Z</time></trkpt><trkpt lat="44.205515931202555" lon="11.387724539666511"><ele>900.6</ele><time>2026-04-30T10:00:25Z</time></trkpt><trkpt lat="44.205408093473544" lon="11.387641775792948"><ele>903.4000000000001</ele><time>2026-04-30T10:00:27Z</time></trkpt><trkpt lat="44.20533422282394" lon="11.387585931470367"><ele>906.2</ele><time>2026-04-30T10:00:28Z</time></trkpt><trkpt lat="44.20526564620992" lon="11.38752315982833"><ele>909.0</ele><time>2026-04-30T10:00:29Z</time></trkpt><trkpt lat="44.20519864629313" lon="11.387454660160166"><ele>909.0</ele><time>2026-04-30T10:00:30Z</time></trkpt><trkpt lat="44.205131951624615" lon="11.387398594873464"><ele>909.0</ele><time>2026-04-30T10:00:31Z</time></trkpt><trkpt lat="44.20506162755339" lon="11.38734988823609"><ele>909.0</ele><time>2026-04-30T10:00:32Z</time></trkpt><trkpt lat="44.20498818372279" lon="11.387304352709988"><ele>909.0</ele><time>2026-04-30T10:00:33Z</time></trkpt><trkpt lat="44.20492481799006" lon="11.38725319846358"><ele>909.0</ele><time>2026-04-30T10:00:34Z</time></trkpt><trkpt lat="44.20481424804876" lon="11.38721283932653"><ele>909.0</ele><time>2026-04-30T10:00:36Z</time></trkpt><trkpt lat="44.204751111178844" lon="11.387235424597927"><ele>909.6</ele><time>2026-04-30T10:00:37Z</time></trkpt><trkpt lat="44.20467841897461" lon="11.387251133270384"><ele>910.2</ele><time>2026-04-30T10:00:38Z</time></trkpt><trkpt lat="44.20459857314675" lon="11.387241436342666"><ele>910.8000000000001</ele><time>2026-04-30T10:00:39Z</time></trkpt><trkpt lat="44.20452570775633" lon="11.38712002020742"><ele>911.4000000000001</ele><time>2026-04-30T10:00:41Z</time></trkpt><trkpt lat="44.20451569051145" lon="11.38695840290927"><ele>912.0</ele><time>2026-04-30T10:00:43Z</time></trkpt><trkpt lat="44.204435445810965" lon="11.386835538500167"><ele>913.6</ele><time>2026-04-30T10:00:45Z</time></trkpt><trkpt lat="44.204384103196865" lon="11.386761883228278"><ele>915.2</ele><time>2026-04-30T10:00:46Z</time></trkpt><trkpt lat="44.20434435535304" lon="11.386679610811564"><ele>916.8</ele><time>2026-04-30T10:00:47Z</time></trkpt><trkpt lat="44.20428739318093" lon="11.386553940127131"><ele>918.4</ele><time>2026-04-30T10:00:49Z</time></trkpt><trkpt lat="44.204220686266105" lon="11.386412154892067"><ele>920.0</ele><time>2026-04-30T10:00:51Z</time></trkpt><trkpt lat="44.20418244108071" lon="11.386315637483298"><ele>920.0</ele><time>2026-04-30T10:00:53Z</time></trkpt><trkpt lat="44.20411674355198" lon="11.386217316321249"><ele>920.0</ele><time>2026-04-30T10:00:56Z</time></trkpt><trkpt lat="44.20406316880076" lon="11.386115606109984"><ele>920.0</ele><time>2026-04-30T10:00:59Z</time></trkpt><trkpt lat="44.20398113449913" lon="11.385976608817959"><ele>920.0</ele><time>2026-04-30T10:01:01Z</time></trkpt><trkpt lat="44.20388944858858" lon="11.385901377638026"><ele>920.0</ele><time>2026-04-30T10:01:03Z</time></trkpt><trkpt lat="44.20379588814152" lon="11.38582681948627"><ele>920.8</ele><time>2026-04-30T10:01:05Z</time></trkpt><trkpt lat="44.20371524592786" lon="11.385707859279487"><ele>921.6</ele><time>2026-04-30T10:01:07Z</time></trkpt><trkpt lat="44.20366681498306" lon="11.385564116479076"><ele>922.4000000000001</ele><time>2026-04-30T10:01:09Z</time></trkpt><trkpt lat="44.20356420943841" lon="11.385485153497807"><ele>923.2</ele><time>2026-04-30T10:01:11Z</time></trkpt><trkpt lat="44.20350654499558" lon="11.385435615914473"><ele>924.0</ele><time>2026-04-30T10:01:12Z</time></trkpt><trkpt lat="44.203424157286314" lon="11.385373167567892"><ele>924.1666666666666</ele><time>2026-04-30T10:01:14Z</time></trkpt><trkpt lat="44.20331258078675" lon="11.385347930666557"><ele>924.3333333333333</ele><time>2026-04-30T10:01:16Z</time></trkpt><trkpt lat="44.2032529401475" lon="11.38530525722324"><ele>924.5</ele><time>2026-04-30T10:01:17Z</time></trkpt><trkpt lat="44.203213528062086" lon="11.38523404983959"><ele>924.6666666666666</ele><time>2026-04-30T10:01:18Z</time></trkpt><trkpt lat="44.20317921943581" lon="11.385149533716634"><ele>924.8333333333333</ele><time>2026-04-30T10:01:19Z</time></trkpt><trkpt lat="44.20312182280073" lon="11.385061785392098"><ele>925.0</ele><time>2026-04-30T10:01:21Z</time></trkpt><trkpt lat="44.203057575156244" lon="11.385022609066922"><ele>925.3333333333333</ele><time>2026-04-30T10:01:23Z</time></trkpt><trkpt lat="44.20299366189856" lon="11.384960666421854"><ele>925.6666666666666</ele><time>2026-04-30T10:01:25Z</time></trkpt><trkpt lat="44.202911408857126" lon="11.38488478911158"><ele>926.0</ele><time>2026-04-30T10:01:27Z</time></trkpt><trkpt lat="44.20284780743686" lon="11.384849457320596"><ele>926.3333333333333</ele><time>2026-04-30T10:01:30Z</time></trkpt><trkpt lat="44.20278857191516" lon="11.384754385028678"><ele>926.6666666666666</ele><time>2026-04-30T10:01:33Z</time></trkpt><trkpt lat="44.20271182989591" lon="11.384668011729678"><ele>927.0</ele><time>2026-04-30T10:01:35Z</time></trkpt><trkpt lat="44.202619410182216" lon="11.384536194891883"><ele>927.6666666666666</ele><time>2026-04-30T10:01:37Z</time></trkpt><trkpt lat="44.20258670334416" lon="11.384431596214766"><ele>928.3333333333333</ele><time>2026-04-30T10:01:38Z</time></trkpt><trkpt lat="44.20256861567773" lon="11.384334555155727"><ele>929.0</ele><time>2026-04-30T10:01:39Z</time></trkpt><trkpt lat="44.20252399924811" lon="11.384246248293532"><ele>929.6666666666666</ele><time>2026-04-30T10:01:40Z</time></trkpt><trkpt lat="44.20248132041636" lon="11.384156633756678"><ele>930.3333333333333</ele><time>2026-04-30T10:01:41Z</time></trkpt><trkpt lat="44.20244454891268" lon="11.384061353654808"><ele>931.0</ele><time>2026-04-30T10:01:42Z</time></trkpt><trkpt lat="44.20240767231152" lon="11.383965852439593"><ele>930.9999999999999</ele><time>2026-04-30T10:01:43Z</time></trkpt><trkpt lat="44.202363431729836" lon="11.383875750535006"><ele>931.0</ele><time>2026-04-30T10:01:44Z</time></trkpt><trkpt lat="44.20231206678178" lon="11.383816120131044"><ele>931.0</ele><time>2026-04-30T10:01:45Z</time></trkpt><trkpt lat="44.202256149020194" lon="11.383755807682364"><ele>931.0</ele><time>2026-04-30T10:01:46Z</time></trkpt><trkpt lat="44.202221018995175" lon="11.383671647980135"><ele>930.9999999999999</ele><time>2026-04-30T10:01:47Z</time></trkpt><trkpt lat="44.20218999342303" lon="11.38356631047085"><ele>931.0</ele><time>2026-04-30T10:01:48Z</time></trkpt><trkpt lat="44.20213408446985" lon="11.383439684109417"><ele>931.4999999999999</ele><time>2026-04-30T10:01:50Z</time></trkpt><trkpt lat="44.202078728460954" lon="11.38328114055546"><ele>932.0</ele><time>2026-04-30T10:01:52Z</time></trkpt><trkpt lat="44.20205143597264" lon="11.383180260433157"><ele>932.5</ele><time>2026-04-30T10:01:53Z</time></trkpt><trkpt lat="44.20197578616995" lon="11.383067452157631"><ele>933.0</ele><time>2026-04-30T10:01:55Z</time></trkpt><trkpt lat="44.20191827565525" lon="11.383018669142912"><ele>933.4999999999999</ele><time>2026-04-30T10:01:56Z</time></trkpt><trkpt lat="44.2018678713453" lon="11.382959363691263"><ele>934.0</ele><time>2026-04-30T10:01:57Z</time></trkpt><trkpt lat="44.201786893354864" lon="11.38286663025774"><ele>933.9999999999999</ele><time>2026-04-30T10:01:59Z</time></trkpt><trkpt lat="44.20170794999673" lon="11.382754145185183"><ele>934.0</ele><time>2026-04-30T10:02:01Z</time></trkpt><trkpt lat="44.20166584511887" lon="11.382669012278233"><ele>934.0</ele><time>2026-04-30T10:02:03Z</time></trkpt><trkpt lat="44.20159865560449" lon="11.382634148349126"><ele>934.0</ele><time>2026-04-30T10:02:07Z</time></trkpt><trkpt lat="44.20154816994193" lon="11.382576138198957"><ele>933.9999999999999</ele><time>2026-04-30T10:02:09Z</time></trkpt><trkpt lat="44.20147134526784" lon="11.382497609798387"><ele>934.0</ele><time>2026-04-30T10:02:11Z</time></trkpt><trkpt lat="44.20140967739556" lon="11.38243137648763"><ele>934.4000000000001</ele><time>2026-04-30T10:02:12Z</time></trkpt><trkpt lat="44.201358959745356" lon="11.382339212336225"><ele>934.8000000000001</ele><time>2026-04-30T10:02:13Z</time></trkpt><trkpt lat="44.201316593027435" lon="11.382215681145288"><ele>935.1999999999999</ele><time>2026-04-30T10:02:15Z</time></trkpt><trkpt lat="44.201227192100774" lon="11.382066127711848"><ele>935.5999999999999</ele><time>2026-04-30T10:02:17Z</time></trkpt><trkpt lat="44.201171637402815" lon="11.382015676134204"><ele>936.0</ele><time>2026-04-30T10:02:18Z</time></trkpt><trkpt lat="44.20111208377354" lon="11.38197595637111"><ele>936.0</ele><time>2026-04-30T10:02:19Z</time></trkpt><trkpt lat="44.20105025449995" lon="11.381920592318238"><ele>935.9999999999999</ele><time>2026-04-30T10:02:20Z</time></trkpt><trkpt lat="44.200998398870844" lon="11.381835497538411"><ele>935.9999999999999</ele><time>2026-04-30T10:02:24Z</time></trkpt><trkpt lat="44.2009154889438" lon="11.381755735794037"><ele>936.0</ele><time>2026-04-30T10:02:26Z</time></trkpt><trkpt lat="44.200823070957966" lon="11.381666283615203"><ele>936.0</ele><time>2026-04-30T10:02:28Z</time></trkpt><trkpt lat="44.20072143445006" lon="11.381554293850535"><ele>936.0</ele><time>2026-04-30T10:02:30Z</time></trkpt><trkpt lat="44.20066903715717" lon="11.381503915701588"><ele>936.0</ele><time>2026-04-30T10:02:31Z</time></trkpt><trkpt lat="44.200610503654396" lon="11.381432970924244"><ele>936.0</ele><time>2026-04-30T10:02:32Z</time></trkpt><trkpt lat="44.200515239028284" lon="11.381343647405167"><ele>936.0</ele><time>2026-04-30T10:02:34Z</time></trkpt><trkpt lat="44.20044160554019" lon="11.38124118998592"><ele>936.0</ele><time>2026-04-30T10:02:36Z</time></trkpt><trkpt lat="44.20037175863052" lon="11.381204810724777"><ele>936.0</ele><time>2026-04-30T10:02:37Z</time></trkpt><trkpt lat="44.20028535444085" lon="11.381091927910694"><ele>936.6666666666666</ele><time>2026-04-30T10:02:39Z</time></trkpt><trkpt lat="44.200224381752925" lon="11.381038576910933"><ele>937.3333333333333</ele><time>2026-04-30T10:02:40Z</time></trkpt><trkpt lat="44.20018060950794" lon="11.380935480621186"><ele>938.0</ele><time>2026-04-30T10:02:41Z</time></trkpt><trkpt lat="44.20012748865162" lon="11.380879544297642"><ele>938.6666666666666</ele><time>2026-04-30T10:02:42Z</time></trkpt><trkpt lat="44.20003725401354" lon="11.380795923603024"><ele>939.3333333333333</ele><time>2026-04-30T10:02:44Z</time></trkpt><trkpt lat="44.19997186007692" lon="11.380749767536296"><ele>940.0</ele><time>2026-04-30T10:02:45Z</time></trkpt><trkpt lat="44.199937688582665" lon="11.380661760332917"><ele>939.9999999999999</ele><time>2026-04-30T10:02:46Z</time></trkpt><trkpt lat="44.199886132978726" lon="11.38059149925696"><ele>940.0</ele><time>2026-04-30T10:02:48Z</time></trkpt><trkpt lat="44.199837916981295" lon="11.380501850616676"><ele>940.0</ele><time>2026-04-30T10:02:56Z</time></trkpt><trkpt lat="44.19980180957073" lon="11.380423715108721"><ele>940.0</ele><time>2026-04-30T10:02:57Z</time></trkpt><trkpt lat="44.199757480662996" lon="11.380305750265771"><ele>939.9999999999999</ele><time>2026-04-30T10:02:59Z</time></trkpt><trkpt lat="44.199696369590775" lon="11.380185769299667"><ele>940.0</ele><time>2026-04-30T10:03:01Z</time></trkpt><trkpt lat="44.19965840787645" lon="11.380025978197297"><ele>941.1666666666666</ele><time>2026-04-30T10:03:03Z</time></trkpt><trkpt lat="44.19962680860414" lon="11.379942307667081"><ele>942.3333333333333</ele><time>2026-04-30T10:03:04Z</time></trkpt><trkpt lat="44.199588825111114" lon="11.379870776575835"><ele>943.5</ele><time>2026-04-30T10:03:05Z</time></trkpt><trkpt lat="44.19953373120679" lon="11.379717959034247"><ele>944.6666666666667</ele><time>2026-04-30T10:03:07Z</time></trkpt><trkpt lat="44.19951830217169" lon="11.379598694755751"><ele>945.8333333333334</ele><time>2026-04-30T10:03:08Z</time></trkpt><trkpt lat="44.19948246704308" lon="11.379523371470569"><ele>947.0</ele><time>2026-04-30T10:03:09Z</time></trkpt><trkpt lat="44.199405941253374" lon="11.379440789219695"><ele>947.8333333333334</ele><time>2026-04-30T10:03:11Z</time></trkpt><trkpt lat="44.199359568946974" lon="11.379269152058635"><ele>948.6666666666667</ele><time>2026-04-30T10:03:13Z</time></trkpt><trkpt lat="44.19932169110589" lon="11.379195544659101"><ele>949.5</ele><time>2026-04-30T10:03:14Z</time></trkpt><trkpt lat="44.19929841933469" lon="11.379101917330843"><ele>950.3333333333333</ele><time>2026-04-30T10:03:16Z</time></trkpt><trkpt lat="44.199305181535834" lon="11.379003169597311"><ele>951.1666666666666</ele><time>2026-04-30T10:03:18Z</time></trkpt><trkpt lat="44.19928022008446" lon="11.378904411591588"><ele>952.0</ele><time>2026-04-30T10:03:20Z</time></trkpt><trkpt lat="44.199224461669054" lon="11.378788474939679"><ele>952.4999999999999</ele><time>2026-04-30T10:03:22Z</time></trkpt><trkpt lat="44.199204989877664" lon="11.378669395120069"><ele>953.0</ele><time>2026-04-30T10:03:24Z</time></trkpt><trkpt lat="44.199164976306726" lon="11.378526969728698"><ele>953.5</ele><time>2026-04-30T10:03:26Z</time></trkpt><trkpt lat="44.19915985480849" lon="11.378419693313948"><ele>954.0</ele><time>2026-04-30T10:03:28Z</time></trkpt><trkpt lat="44.19914742983042" lon="11.378321070140993"><ele>954.4999999999999</ele><time>2026-04-30T10:04:18Z</time></trkpt><trkpt lat="44.19911898304508" lon="11.3782300506726"><ele>955.0</ele><time>2026-04-30T10:04:23Z</time></trkpt><trkpt lat="44.19908760690451" lon="11.378147895889857"><ele>954.9999999999999</ele><time>2026-04-30T10:04:26Z</time></trkpt><trkpt lat="44.19903207361473" lon="11.378090343908491"><ele>955.0</ele><time>2026-04-30T10:04:29Z</time></trkpt><trkpt lat="44.198975804237065" lon="11.378002756326518"><ele>955.0</ele><time>2026-04-30T10:04:32Z</time></trkpt><trkpt lat="44.198929270244435" lon="11.377903859013115"><ele>955.0</ele><time>2026-04-30T10:04:34Z</time></trkpt><trkpt lat="44.198877565180965" lon="11.377839571500035"><ele>954.9999999999999</ele><time>2026-04-30T10:04:36Z</time></trkpt><trkpt lat="44.198797956712475" lon="11.377762827787018"><ele>955.0</ele><time>2026-04-30T10:04:38Z</time></trkpt><trkpt lat="44.198723843419465" lon="11.377667225775047"><ele>953.6</ele><time>2026-04-30T10:04:40Z</time></trkpt><trkpt lat="44.19868219722331" lon="11.377552673196785"><ele>952.2</ele><time>2026-04-30T10:04:42Z</time></trkpt><trkpt lat="44.19862386136252" lon="11.377481958891927"><ele>950.8</ele><time>2026-04-30T10:04:46Z</time></trkpt><trkpt lat="44.19857099062988" lon="11.377380767301837"><ele>949.4</ele><time>2026-04-30T10:04:48Z</time></trkpt><trkpt lat="44.19849628767183" lon="11.377287273560302"><ele>948.0</ele><time>2026-04-30T10:04:50Z</time></trkpt><trkpt lat="44.19841322706459" lon="11.377175492968295"><ele>947.8</ele><time>2026-04-30T10:04:52Z</time></trkpt><trkpt lat="44.19832985718839" lon="11.377053873674821"><ele>947.5999999999999</ele><time>2026-04-30T10:04:54Z</time></trkpt><trkpt lat="44.19825708109914" lon="11.376954979277295"><ele>947.4000000000001</ele><time>2026-04-30T10:04:56Z</time></trkpt><trkpt lat="44.19819256753406" lon="11.376870724126679"><ele>947.2</ele><time>2026-04-30T10:05:01Z</time></trkpt><trkpt lat="44.19815108408502" lon="11.376744851401511"><ele>947.0</ele><time>2026-04-30T10:05:04Z</time></trkpt><trkpt lat="44.198084417895544" lon="11.37664739536039"><ele>945.6</ele><time>2026-04-30T10:05:07Z</time></trkpt><trkpt lat="44.19801277063985" lon="11.376578950343161"><ele>944.2</ele><time>2026-04-30T10:05:09Z</time></trkpt><trkpt lat="44.19795503202134" lon="11.376502076989656"><ele>942.8</ele><time>2026-04-30T10:05:14Z</time></trkpt><trkpt lat="44.19786598320992" lon="11.376507305496892"><ele>941.4</ele><time>2026-04-30T10:05:19Z</time></trkpt><trkpt lat="44.197698941811865" lon="11.376500073860466"><ele>940.0</ele><time>2026-04-30T10:05:22Z</time></trkpt><trkpt lat="44.1976309392266" lon="11.376473157599866"><ele>939.9999999999999</ele><time>2026-04-30T10:05:23Z</time></trkpt><trkpt lat="44.19755779068511" lon="11.376443114369376"><ele>940.0</ele><time>2026-04-30T10:05:24Z</time></trkpt><trkpt lat="44.19745653370122" lon="11.376409291021709"><ele>940.0</ele><time>2026-04-30T10:05:25Z</time></trkpt><trkpt lat="44.19739406070108" lon="11.376388645348552"><ele>940.0</ele><time>2026-04-30T10:05:26Z</time></trkpt><trkpt lat="44.19732858709892" lon="11.376385591503507"><ele>939.9999999999999</ele><time>2026-04-30T10:05:27Z</time></trkpt><trkpt lat="44.1972222557869" lon="11.376375693404727"><ele>940.0</ele><time>2026-04-30T10:05:29Z</time></trkpt><trkpt lat="44.19714946691193" lon="11.376381932168723"><ele>938.4999999999999</ele><time>2026-04-30T10:05:30Z</time></trkpt><trkpt lat="44.19708258250104" lon="11.3763869219217"><ele>937.0</ele><time>2026-04-30T10:05:31Z</time></trkpt><trkpt lat="44.196981122472735" lon="11.376341552461248"><ele>935.5</ele><time>2026-04-30T10:05:33Z</time></trkpt><trkpt lat="44.196933242313776" lon="11.376277319193909"><ele>934.0</ele><time>2026-04-30T10:05:34Z</time></trkpt><trkpt lat="44.1968835140274" lon="11.376204932721404"><ele>932.4999999999999</ele><time>2026-04-30T10:05:35Z</time></trkpt><trkpt lat="44.19682390439052" lon="11.376144988807896"><ele>931.0</ele><time>2026-04-30T10:05:36Z</time></trkpt><trkpt lat="44.196751911949235" lon="11.376081393184949"><ele>930.9999999999999</ele><time>2026-04-30T10:05:37Z</time></trkpt><trkpt lat="44.19668979763067" lon="11.376022295200919"><ele>931.0</ele><time>2026-04-30T10:05:38Z</time></trkpt><trkpt lat="44.196630210580366" lon="11.37597319975911"><ele>931.0</ele><time>2026-04-30T10:05:39Z</time></trkpt><trkpt lat="44.19651241330761" lon="11.375897159010535"><ele>931.0</ele><time>2026-04-30T10:05:41Z</time></trkpt><trkpt lat="44.19646570575772" lon="11.375835140506737"><ele>930.9999999999999</ele><time>2026-04-30T10:05:42Z</time></trkpt><trkpt lat="44.19636670463477" lon="11.37580076617505"><ele>931.0</ele><time>2026-04-30T10:05:43Z</time></trkpt><trkpt lat="44.19625884020685" lon="11.375788292415768"><ele>932.6666666666666</ele><time>2026-04-30T10:05:44Z</time></trkpt><trkpt lat="44.196185190348" lon="11.375806119348153"><ele>934.3333333333333</ele><time>2026-04-30T10:05:45Z</time></trkpt><trkpt lat="44.196101013411464" lon="11.375766652340271"><ele>936.0</ele><time>2026-04-30T10:05:47Z</time></trkpt><trkpt lat="44.19598657788184" lon="11.375708713297753"><ele>937.6666666666667</ele><time>2026-04-30T10:05:49Z</time></trkpt><trkpt lat="44.195921372502646" lon="11.375689304090274"><ele>939.3333333333334</ele><time>2026-04-30T10:05:50Z</time></trkpt><trkpt lat="44.195843581333364" lon="11.375638783448375"><ele>941.0</ele><time>2026-04-30T10:05:51Z</time></trkpt><trkpt lat="44.19577218278566" lon="11.375606995798897"><ele>941.0000000000001</ele><time>2026-04-30T10:05:52Z</time></trkpt><trkpt lat="44.195693030417935" lon="11.375585936245496"><ele>941.0</ele><time>2026-04-30T10:05:53Z</time></trkpt><trkpt lat="44.19560673372718" lon="11.375556703776466"><ele>941.0</ele><time>2026-04-30T10:05:54Z</time></trkpt><trkpt lat="44.19550223798525" lon="11.375537878657843"><ele>941.0</ele><time>2026-04-30T10:05:56Z</time></trkpt><trkpt lat="44.19540170314842" lon="11.375537112167487"><ele>941.0000000000001</ele><time>2026-04-30T10:05:58Z</time></trkpt><trkpt lat="44.195331793263236" lon="11.375510178145168"><ele>941.0</ele><time>2026-04-30T10:05:59Z</time></trkpt><trkpt lat="44.1952425058866" lon="11.375471906376688"><ele>941.1999999999999</ele><time>2026-04-30T10:06:01Z</time></trkpt><trkpt lat="44.195168603378164" lon="11.375469991401014"><ele>941.3999999999999</ele><time>2026-04-30T10:06:03Z</time></trkpt><trkpt lat="44.195106680855766" lon="11.375438950222215"><ele>941.6</ele><time>2026-04-30T10:06:05Z</time></trkpt><trkpt lat="44.195011588037765" lon="11.375411521383972"><ele>941.8</ele><time>2026-04-30T10:06:07Z</time></trkpt><trkpt lat="44.194897824231724" lon="11.375339316003169"><ele>942.0</ele><time>2026-04-30T10:06:09Z</time></trkpt><trkpt lat="44.19484434636063" lon="11.375236567369337"><ele>941.5</ele><time>2026-04-30T10:06:10Z</time></trkpt><trkpt lat="44.19480420213346" lon="11.375125001500269"><ele>941.0</ele><time>2026-04-30T10:06:11Z</time></trkpt><trkpt lat="44.1947685429494" lon="11.375046201072301"><ele>940.5</ele><time>2026-04-30T10:06:12Z</time></trkpt><trkpt lat="44.19473100076345" lon="11.374965863917508"><ele>940.0</ele><time>2026-04-30T10:06:13Z</time></trkpt><trkpt lat="44.19469711500786" lon="11.374869697190542"><ele>939.5</ele><time>2026-04-30T10:06:14Z</time></trkpt><trkpt lat="44.19466948953448" lon="11.3747686905891"><ele>939.0</ele><time>2026-04-30T10:06:15Z</time></trkpt><trkpt lat="44.19464698865238" lon="11.374669446276208"><ele>939.0</ele><time>2026-04-30T10:06:16Z</time></trkpt><trkpt lat="44.19461136997456" lon="11.374578375134245"><ele>939.0</ele><time>2026-04-30T10:06:17Z</time></trkpt><trkpt lat="44.194566378184696" lon="11.374505841842469"><ele>939.0</ele><time>2026-04-30T10:06:20Z</time></trkpt><trkpt lat="44.19448617796303" lon="11.374425448763384"><ele>939.0</ele><time>2026-04-30T10:06:22Z</time></trkpt><trkpt lat="44.194405102745854" lon="11.374291119642656"><ele>939.0</ele><time>2026-04-30T10:06:24Z</time></trkpt><trkpt lat="44.19434600659217" lon="11.374221066092444"><ele>939.0</ele><time>2026-04-30T10:06:25Z</time></trkpt><trkpt lat="44.194282627180804" lon="11.374168322566144"><ele>939.0</ele><time>2026-04-30T10:06:26Z</time></trkpt><trkpt lat="44.19422455347842" lon="11.374122851031277"><ele>939.0000000000001</ele><time>2026-04-30T10:06:27Z</time></trkpt><trkpt lat="44.19417533972758" lon="11.374067985139368"><ele>939.0000000000001</ele><time>2026-04-30T10:06:28Z</time></trkpt><trkpt lat="44.19412635160059" lon="11.373951509981023"><ele>939.0</ele><time>2026-04-30T10:06:30Z</time></trkpt><trkpt lat="44.194023364312834" lon="11.37371773665313"><ele>939.0</ele><time>2026-04-30T10:06:33Z</time></trkpt><trkpt lat="44.19398892482402" lon="11.373628212425148"><ele>936.4000000000001</ele><time>2026-04-30T10:06:34Z</time></trkpt><trkpt lat="44.19393903575043" lon="11.373514330373116"><ele>933.8000000000001</ele><time>2026-04-30T10:06:35Z</time></trkpt><trkpt lat="44.19390022651327" lon="11.373425809405243"><ele>931.1999999999999</ele><time>2026-04-30T10:06:37Z</time></trkpt><trkpt lat="44.19380726100606" lon="11.373295621935142"><ele>928.5999999999999</ele><time>2026-04-30T10:06:39Z</time></trkpt><trkpt lat="44.193732018368316" lon="11.37322556507173"><ele>926.0</ele><time>2026-04-30T10:06:40Z</time></trkpt><trkpt lat="44.19370221846234" lon="11.373126890276358"><ele>926.0000000000001</ele><time>2026-04-30T10:06:41Z</time></trkpt><trkpt lat="44.193661892830654" lon="11.373052042078424"><ele>926.0</ele><time>2026-04-30T10:06:42Z</time></trkpt><trkpt lat="44.193599948293176" lon="11.373007535874999"><ele>926.0</ele><time>2026-04-30T10:06:43Z</time></trkpt><trkpt lat="44.19352580981126" lon="11.37296880255185"><ele>926.0</ele><time>2026-04-30T10:06:44Z</time></trkpt><trkpt lat="44.19344251710863" lon="11.372937500602454"><ele>926.0000000000001</ele><time>2026-04-30T10:06:45Z</time></trkpt><trkpt lat="44.19338522600528" lon="11.372885824331233"><ele>926.0</ele><time>2026-04-30T10:06:46Z</time></trkpt><trkpt lat="44.19331551640928" lon="11.372817972910768"><ele>926.0</ele><time>2026-04-30T10:06:47Z</time></trkpt><trkpt lat="44.193209540134205" lon="11.372758671391608"><ele>925.9999999999999</ele><time>2026-04-30T10:06:48Z</time></trkpt><trkpt lat="44.193139939736184" lon="11.372668731163591"><ele>925.9999999999999</ele><time>2026-04-30T10:06:49Z</time></trkpt><trkpt lat="44.193080964843084" lon="11.372587108696024"><ele>926.0</ele><time>2026-04-30T10:06:50Z</time></trkpt><trkpt lat="44.19301352349305" lon="11.372492205146084"><ele>926.0</ele><time>2026-04-30T10:06:51Z</time></trkpt><trkpt lat="44.19296447889764" lon="11.372403047901662"><ele>926.0000000000001</ele><time>2026-04-30T10:06:52Z</time></trkpt><trkpt lat="44.19290998092212" lon="11.3723388551102"><ele>926.0</ele><time>2026-04-30T10:06:53Z</time></trkpt><trkpt lat="44.19283548060661" lon="11.372259279336912"><ele>926.0</ele><time>2026-04-30T10:06:55Z</time></trkpt><trkpt lat="44.19278148998231" lon="11.37219311747266"><ele>926.0</ele><time>2026-04-30T10:06:56Z</time></trkpt><trkpt lat="44.192714910187966" lon="11.372119796098676"><ele>926.0000000000001</ele><time>2026-04-30T10:06:57Z</time></trkpt><trkpt lat="44.19262956391501" lon="11.372027222665315"><ele>926.0</ele><time>2026-04-30T10:06:58Z</time></trkpt><trkpt lat="44.19254346180919" lon="11.371916041032753"><ele>926.0000000000001</ele><time>2026-04-30T10:06:59Z</time></trkpt><trkpt lat="44.19246685335187" lon="11.371784974175226"><ele>926.0</ele><time>2026-04-30T10:07:00Z</time></trkpt><trkpt lat="44.19241047143162" lon="11.37168504781485"><ele>926.0</ele><time>2026-04-30T10:07:01Z</time></trkpt><trkpt lat="44.1923680713113" lon="11.371607513375476"><ele>926.0</ele><time>2026-04-30T10:07:02Z</time></trkpt><trkpt lat="44.19233173833316" lon="11.371509186222015"><ele>926.0000000000001</ele><time>2026-04-30T10:07:04Z</time></trkpt><trkpt lat="44.19229121155854" lon="11.37142069064474"><ele>926.0</ele><time>2026-04-30T10:07:06Z</time></trkpt><trkpt lat="44.19224693893322" lon="11.371344551158991"><ele>923.0</ele><time>2026-04-30T10:07:08Z</time></trkpt><trkpt lat="44.19217473130444" lon="11.37118603468405"><ele>919.9999999999999</ele><time>2026-04-30T10:07:10Z</time></trkpt><trkpt lat="44.19212847770541" lon="11.37110865301952"><ele>916.9999999999999</ele><time>2026-04-30T10:07:11Z</time></trkpt><trkpt lat="44.19207426381275" lon="11.37103672206309"><ele>914.0</ele><time>2026-04-30T10:07:12Z</time></trkpt><trkpt lat="44.19202085929207" lon="11.37095492065999"><ele>911.0</ele><time>2026-04-30T10:07:13Z</time></trkpt><trkpt lat="44.19196670469977" lon="11.370850725878975"><ele>911.0000000000001</ele><time>2026-04-30T10:07:14Z</time></trkpt><trkpt lat="44.191917032884895" lon="11.370725054043188"><ele>911.0</ele><time>2026-04-30T10:07:15Z</time></trkpt><trkpt lat="44.19188362622768" lon="11.370606606142674"><ele>911.0</ele><time>2026-04-30T10:07:16Z</time></trkpt><trkpt lat="44.191852195441356" lon="11.370499086605207"><ele>911.0</ele><time>2026-04-30T10:07:17Z</time></trkpt><trkpt lat="44.191826755305314" lon="11.370397949366012"><ele>911.0000000000001</ele><time>2026-04-30T10:07:18Z</time></trkpt><trkpt lat="44.191790093905794" lon="11.370310999646343"><ele>911.0</ele><time>2026-04-30T10:07:19Z</time></trkpt><trkpt lat="44.19174773855063" lon="11.370236217016236"><ele>911.5000000000001</ele><time>2026-04-30T10:07:20Z</time></trkpt><trkpt lat="44.191687093804944" lon="11.370171367766526"><ele>912.0</ele><time>2026-04-30T10:07:21Z</time></trkpt><trkpt lat="44.191613648693725" lon="11.370123218010766"><ele>912.5</ele><time>2026-04-30T10:07:22Z</time></trkpt><trkpt lat="44.19154257312185" lon="11.370071410552574"><ele>913.0</ele><time>2026-04-30T10:07:23Z</time></trkpt><trkpt lat="44.1914668564373" lon="11.369996432372528"><ele>913.5000000000001</ele><time>2026-04-30T10:07:24Z</time></trkpt><trkpt lat="44.191398069877664" lon="11.369875148892772"><ele>914.0</ele><time>2026-04-30T10:07:25Z</time></trkpt><trkpt lat="44.1913335757378" lon="11.36975308653186"><ele>912.3333333333334</ele><time>2026-04-30T10:07:26Z</time></trkpt><trkpt lat="44.19128022821386" lon="11.369679469577171"><ele>910.6666666666667</ele><time>2026-04-30T10:07:27Z</time></trkpt><trkpt lat="44.191232146143385" lon="11.369612437573577"><ele>909.0</ele><time>2026-04-30T10:07:28Z</time></trkpt><trkpt lat="44.191149430027714" lon="11.369487181867182"><ele>907.3333333333333</ele><time>2026-04-30T10:07:30Z</time></trkpt><trkpt lat="44.19110470831542" lon="11.369413221985514"><ele>905.6666666666666</ele><time>2026-04-30T10:07:31Z</time></trkpt><trkpt lat="44.19105398904431" lon="11.369326714163236"><ele>904.0</ele><time>2026-04-30T10:07:32Z</time></trkpt><trkpt lat="44.19099857541375" lon="11.369244844509893"><ele>904.0</ele><time>2026-04-30T10:07:33Z</time></trkpt><trkpt lat="44.1909397371407" lon="11.369181148428906"><ele>904.0</ele><time>2026-04-30T10:07:34Z</time></trkpt><trkpt lat="44.19088959177934" lon="11.369117475196296"><ele>904.0</ele><time>2026-04-30T10:07:35Z</time></trkpt><trkpt lat="44.19085253777709" lon="11.36904549822145"><ele>904.0</ele><time>2026-04-30T10:07:36Z</time></trkpt><trkpt lat="44.19082532887734" lon="11.36895743381884"><ele>904.0</ele><time>2026-04-30T10:07:37Z</time></trkpt><trkpt lat="44.190801648641354" lon="11.36886428262129"><ele>904.0</ele><time>2026-04-30T10:07:38Z</time></trkpt><trkpt lat="44.19076169549354" lon="11.368788204239037"><ele>904.0</ele><time>2026-04-30T10:07:40Z</time></trkpt><trkpt lat="44.190647268800625" lon="11.36874256903509"><ele>901.2</ele><time>2026-04-30T10:07:45Z</time></trkpt><trkpt lat="44.19053465422355" lon="11.368666481702421"><ele>898.4000000000001</ele><time>2026-04-30T10:07:47Z</time></trkpt><trkpt lat="44.190455370249346" lon="11.368682148140346"><ele>895.6</ele><time>2026-04-30T10:07:48Z</time></trkpt><trkpt lat="44.190372510546716" lon="11.368712711162724"><ele>892.8</ele><time>2026-04-30T10:07:49Z</time></trkpt><trkpt lat="44.19028852002173" lon="11.368730592093334"><ele>890.0</ele><time>2026-04-30T10:07:50Z</time></trkpt><trkpt lat="44.1902105338515" lon="11.368741750194445"><ele>890.0000000000001</ele><time>2026-04-30T10:07:51Z</time></trkpt><trkpt lat="44.19012575306546" lon="11.368765408022076"><ele>890.0</ele><time>2026-04-30T10:07:52Z</time></trkpt><trkpt lat="44.1900387749007" lon="11.368784474120773"><ele>890.0</ele><time>2026-04-30T10:07:53Z</time></trkpt><trkpt lat="44.18996741174917" lon="11.368800003006093"><ele>890.0</ele><time>2026-04-30T10:07:54Z</time></trkpt><trkpt lat="44.18989620702034" lon="11.368827429714141"><ele>890.0000000000001</ele><time>2026-04-30T10:07:56Z</time></trkpt><trkpt lat="44.18982866448887" lon="11.368773963373332"><ele>890.0</ele><time>2026-04-30T10:07:58Z</time></trkpt><trkpt lat="44.189767706866995" lon="11.368712186392365"><ele>888.75</ele><time>2026-04-30T10:07:59Z</time></trkpt><trkpt lat="44.18969714581702" lon="11.36862534385836"><ele>887.5</ele><time>2026-04-30T10:08:00Z</time></trkpt><trkpt lat="44.18960942000382" lon="11.368514348343476"><ele>886.25</ele><time>2026-04-30T10:08:01Z</time></trkpt><trkpt lat="44.18950937643188" lon="11.368385088674309"><ele>885.0</ele><time>2026-04-30T10:08:02Z</time></trkpt><trkpt lat="44.18939902075922" lon="11.368249907684197"><ele>885.0</ele><time>2026-04-30T10:08:03Z</time></trkpt><trkpt lat="44.1892888105731" lon="11.368129960953645"><ele>885.0</ele><time>2026-04-30T10:08:04Z</time></trkpt><trkpt lat="44.18918866449679" lon="11.368025270861104"><ele>885.0</ele><time>2026-04-30T10:08:05Z</time></trkpt><trkpt lat="44.189097748862444" lon="11.367930274703303"><ele>885.0</ele><time>2026-04-30T10:08:06Z</time></trkpt><trkpt lat="44.18901154609413" lon="11.367841422004608"><ele>883.75</ele><time>2026-04-30T10:08:07Z</time></trkpt><trkpt lat="44.1889202356029" lon="11.367746722986404"><ele>882.5</ele><time>2026-04-30T10:08:08Z</time></trkpt><trkpt lat="44.18882699405851" lon="11.367631198942894"><ele>881.25</ele><time>2026-04-30T10:08:09Z</time></trkpt><trkpt lat="44.18874292980546" lon="11.367492783093825"><ele>880.0</ele><time>2026-04-30T10:08:10Z</time></trkpt><trkpt lat="44.18866719703398" lon="11.367343458971458"><ele>880.0</ele><time>2026-04-30T10:08:11Z</time></trkpt><trkpt lat="44.18860096648131" lon="11.3671978108009"><ele>880.0</ele><time>2026-04-30T10:08:12Z</time></trkpt><trkpt lat="44.188538574740654" lon="11.367068827739711"><ele>880.0</ele><time>2026-04-30T10:08:13Z</time></trkpt><trkpt lat="44.18846410543534" lon="11.36696698468433"><ele>880.0</ele><time>2026-04-30T10:08:14Z</time></trkpt><trkpt lat="44.188382100520634" lon="11.366900942516878"><ele>880.0</ele><time>2026-04-30T10:08:15Z</time></trkpt><trkpt lat="44.18830873219893" lon="11.366874775332722"><ele>881.0</ele><time>2026-04-30T10:08:16Z</time></trkpt><trkpt lat="44.188216816027094" lon="11.366810651776985"><ele>882.0</ele><time>2026-04-30T10:08:18Z</time></trkpt><trkpt lat="44.18815487125165" lon="11.366766790019476"><ele>883.0</ele><time>2026-04-30T10:08:20Z</time></trkpt><trkpt lat="44.18806737767572" lon="11.366846030785865"><ele>884.0</ele><time>2026-04-30T10:08:21Z</time></trkpt><trkpt lat="44.18796326632878" lon="11.366833671477828"><ele>885.0</ele><time>2026-04-30T10:08:23Z</time></trkpt><trkpt lat="44.18790797533745" lon="11.366734563267357"><ele>885.0</ele><time>2026-04-30T10:08:25Z</time></trkpt><trkpt lat="44.187852436781256" lon="11.366609798472775"><ele>885.0</ele><time>2026-04-30T10:08:27Z</time></trkpt><trkpt lat="44.18779978589574" lon="11.366541855272503"><ele>885.0</ele><time>2026-04-30T10:08:28Z</time></trkpt><trkpt lat="44.187739165743736" lon="11.366480104547952"><ele>885.0</ele><time>2026-04-30T10:08:29Z</time></trkpt><trkpt lat="44.187684717218936" lon="11.366415292485081"><ele>885.0</ele><time>2026-04-30T10:08:30Z</time></trkpt><trkpt lat="44.18764875150316" lon="11.366338728972533"><ele>885.0</ele><time>2026-04-30T10:08:31Z</time></trkpt><trkpt lat="44.1875891419678" lon="11.366273771820584"><ele>886.3333333333334</ele><time>2026-04-30T10:08:32Z</time></trkpt><trkpt lat="44.18753371441969" lon="11.366187247947728"><ele>887.6666666666667</ele><time>2026-04-30T10:08:33Z</time></trkpt><trkpt lat="44.18747362353011" lon="11.366100247568399"><ele>889.0</ele><time>2026-04-30T10:08:34Z</time></trkpt><trkpt lat="44.18740912158233" lon="11.366038485691421"><ele>890.3333333333334</ele><time>2026-04-30T10:08:35Z</time></trkpt><trkpt lat="44.18734261262287" lon="11.366012986032905"><ele>891.6666666666667</ele><time>2026-04-30T10:08:36Z</time></trkpt><trkpt lat="44.18727712371674" lon="11.366011579716485"><ele>893.0</ele><time>2026-04-30T10:08:37Z</time></trkpt><trkpt lat="44.18720690883311" lon="11.365986915435126"><ele>893.0000000000001</ele><time>2026-04-30T10:08:38Z</time></trkpt><trkpt lat="44.18712875665343" lon="11.365946240358817"><ele>893.0</ele><time>2026-04-30T10:08:39Z</time></trkpt><trkpt lat="44.1870348505359" lon="11.365881486809569"><ele>893.0</ele><time>2026-04-30T10:08:40Z</time></trkpt><trkpt lat="44.186944019781954" lon="11.365819089403868"><ele>893.0</ele><time>2026-04-30T10:08:41Z</time></trkpt><trkpt lat="44.18686789582468" lon="11.36578362186392"><ele>893.0000000000001</ele><time>2026-04-30T10:08:42Z</time></trkpt><trkpt lat="44.186805755455815" lon="11.365744107646805"><ele>893.0</ele><time>2026-04-30T10:08:43Z</time></trkpt><trkpt lat="44.18674141577676" lon="11.365711385987613"><ele>893.0000000000001</ele><time>2026-04-30T10:08:44Z</time></trkpt><trkpt lat="44.18666943625068" lon="11.365676286483522"><ele>893.0</ele><time>2026-04-30T10:08:45Z</time></trkpt><trkpt lat="44.186598889201115" lon="11.365627426681439"><ele>893.0</ele><time>2026-04-30T10:08:46Z</time></trkpt><trkpt lat="44.186517419596754" lon="11.365525706499499"><ele>893.0</ele><time>2026-04-30T10:08:48Z</time></trkpt><trkpt lat="44.186466598274905" lon="11.365460519103873"><ele>893.0000000000001</ele><time>2026-04-30T10:08:49Z</time></trkpt><trkpt lat="44.186416527460636" lon="11.365375117802271"><ele>893.0</ele><time>2026-04-30T10:08:50Z</time></trkpt><trkpt lat="44.18637480433757" lon="11.365282464281847"><ele>892.4</ele><time>2026-04-30T10:08:51Z</time></trkpt><trkpt lat="44.18633597850649" lon="11.36518088008006"><ele>891.8</ele><time>2026-04-30T10:08:52Z</time></trkpt><trkpt lat="44.18630287095804" lon="11.365085652472395"><ele>891.2</ele><time>2026-04-30T10:08:53Z</time></trkpt><trkpt lat="44.186273940433956" lon="11.364930758002597"><ele>890.6</ele><time>2026-04-30T10:08:55Z</time></trkpt><trkpt lat="44.18621665471887" lon="11.364758524584206"><ele>890.0</ele><time>2026-04-30T10:08:57Z</time></trkpt><trkpt lat="44.18618894125031" lon="11.364668489826101"><ele>891.5</ele><time>2026-04-30T10:08:58Z</time></trkpt><trkpt lat="44.1861321032792" lon="11.364512892012256"><ele>893.0</ele><time>2026-04-30T10:09:00Z</time></trkpt><trkpt lat="44.18603748424599" lon="11.36441191434552"><ele>894.5</ele><time>2026-04-30T10:09:02Z</time></trkpt><trkpt lat="44.18591427764167" lon="11.364314338593026"><ele>896.0</ele><time>2026-04-30T10:09:04Z</time></trkpt><trkpt lat="44.185839215043096" lon="11.364252147791673"><ele>896.0000000000001</ele><time>2026-04-30T10:09:05Z</time></trkpt><trkpt lat="44.18577453378312" lon="11.364188003636663"><ele>896.0</ele><time>2026-04-30T10:09:06Z</time></trkpt><trkpt lat="44.185715081712985" lon="11.364127560887288"><ele>896.0</ele><time>2026-04-30T10:09:07Z</time></trkpt><trkpt lat="44.18565990442784" lon="11.364069587525716"><ele>896.0</ele><time>2026-04-30T10:09:08Z</time></trkpt><trkpt lat="44.18559168803922" lon="11.36402057314686"><ele>896.0000000000001</ele><time>2026-04-30T10:09:09Z</time></trkpt><trkpt lat="44.1855396716689" lon="11.363959416775906"><ele>896.0</ele><time>2026-04-30T10:09:10Z</time></trkpt><trkpt lat="44.185451118725865" lon="11.363843148023358"><ele>896.5999999999999</ele><time>2026-04-30T10:09:12Z</time></trkpt><trkpt lat="44.18535648431164" lon="11.363758379913646"><ele>897.1999999999999</ele><time>2026-04-30T10:09:14Z</time></trkpt><trkpt lat="44.18532488735539" lon="11.363644145392517"><ele>897.8000000000001</ele><time>2026-04-30T10:09:16Z</time></trkpt><trkpt lat="44.18519680449631" lon="11.36354073322597"><ele>898.4000000000001</ele><time>2026-04-30T10:09:18Z</time></trkpt><trkpt lat="44.185118119420494" lon="11.363496630963153"><ele>899.0</ele><time>2026-04-30T10:09:19Z</time></trkpt><trkpt lat="44.185050290405485" lon="11.36341911466768"><ele>899.0</ele><time>2026-04-30T10:09:20Z</time></trkpt><trkpt lat="44.18497673096067" lon="11.36333561028242"><ele>899.0000000000001</ele><time>2026-04-30T10:09:21Z</time></trkpt><trkpt lat="44.18492423279395" lon="11.363272358298245"><ele>899.0000000000001</ele><time>2026-04-30T10:09:22Z</time></trkpt><trkpt lat="44.18492304844069" lon="11.363151776469273"><ele>899.0</ele><time>2026-04-30T10:09:24Z</time></trkpt><trkpt lat="44.1849394687811" lon="11.363004601517407"><ele>899.0</ele><time>2026-04-30T10:09:26Z</time></trkpt><trkpt lat="44.18488391710978" lon="11.362885521037343"><ele>899.5000000000001</ele><time>2026-04-30T10:09:28Z</time></trkpt><trkpt lat="44.18477975433986" lon="11.36280417378638"><ele>900.0</ele><time>2026-04-30T10:09:30Z</time></trkpt><trkpt lat="44.18470613949271" lon="11.362791707744545"><ele>900.5</ele><time>2026-04-30T10:09:31Z</time></trkpt><trkpt lat="44.18462806292665" lon="11.362793554872924"><ele>901.0</ele><time>2026-04-30T10:09:32Z</time></trkpt><trkpt lat="44.18455700670806" lon="11.362782207487248"><ele>901.5000000000001</ele><time>2026-04-30T10:09:33Z</time></trkpt><trkpt lat="44.1844556281358" lon="11.362745671492874"><ele>902.0</ele><time>2026-04-30T10:09:35Z</time></trkpt><trkpt lat="44.18433811468303" lon="11.362756670671484"><ele>902.0</ele><time>2026-04-30T10:09:37Z</time></trkpt><trkpt lat="44.18423175681249" lon="11.362821028697564"><ele>902.0</ele><time>2026-04-30T10:09:39Z</time></trkpt><trkpt lat="44.18411409599525" lon="11.362788001664411"><ele>902.0</ele><time>2026-04-30T10:09:41Z</time></trkpt><trkpt lat="44.18405082108857" lon="11.362741418380683"><ele>902.0</ele><time>2026-04-30T10:09:42Z</time></trkpt><trkpt lat="44.183971559133965" lon="11.362671619628975"><ele>902.0</ele><time>2026-04-30T10:09:43Z</time></trkpt><trkpt lat="44.183883384868615" lon="11.362618284172148"><ele>900.5000000000001</ele><time>2026-04-30T10:09:44Z</time></trkpt><trkpt lat="44.18379148283456" lon="11.362594514852873"><ele>899.0</ele><time>2026-04-30T10:09:45Z</time></trkpt><trkpt lat="44.183712765298175" lon="11.362580908847498"><ele>897.5</ele><time>2026-04-30T10:09:46Z</time></trkpt><trkpt lat="44.18363960326709" lon="11.362573559058069"><ele>896.0</ele><time>2026-04-30T10:09:47Z</time></trkpt><trkpt lat="44.183558314128675" lon="11.36257324907184"><ele>894.5000000000001</ele><time>2026-04-30T10:09:48Z</time></trkpt><trkpt lat="44.18346850683407" lon="11.362580629089479"><ele>893.0</ele><time>2026-04-30T10:09:49Z</time></trkpt><trkpt lat="44.18337823744612" lon="11.362604029620595"><ele>893.0000000000001</ele><time>2026-04-30T10:09:50Z</time></trkpt><trkpt lat="44.183295282042835" lon="11.36261627707755"><ele>893.0</ele><time>2026-04-30T10:09:51Z</time></trkpt><trkpt lat="44.18321188784712" lon="11.362634101295447"><ele>893.0</ele><time>2026-04-30T10:09:52Z</time></trkpt><trkpt lat="44.183133328465146" lon="11.362664249957987"><ele>893.0</ele><time>2026-04-30T10:09:53Z</time></trkpt><trkpt lat="44.183049333650054" lon="11.362700908701884"><ele>893.0000000000001</ele><time>2026-04-30T10:09:54Z</time></trkpt><trkpt lat="44.18296574290118" lon="11.362725270248548"><ele>893.0</ele><time>2026-04-30T10:09:55Z</time></trkpt><trkpt lat="44.18288077230168" lon="11.362720184768524"><ele>891.2</ele><time>2026-04-30T10:09:56Z</time></trkpt><trkpt lat="44.182802013752784" lon="11.362694644904096"><ele>889.4</ele><time>2026-04-30T10:09:57Z</time></trkpt><trkpt lat="44.18270012701619" lon="11.362640727912005"><ele>887.6000000000001</ele><time>2026-04-30T10:09:59Z</time></trkpt><trkpt lat="44.18262359613254" lon="11.362583521839252"><ele>885.8000000000001</ele><time>2026-04-30T10:10:01Z</time></trkpt><trkpt lat="44.182532384367626" lon="11.362501749777538"><ele>884.0</ele><time>2026-04-30T10:10:03Z</time></trkpt><trkpt lat="44.182473154652854" lon="11.362453178246984"><ele>884.0000000000001</ele><time>2026-04-30T10:10:04Z</time></trkpt><trkpt lat="44.18241634239742" lon="11.362410968939761"><ele>884.0</ele><time>2026-04-30T10:10:05Z</time></trkpt><trkpt lat="44.18232715171682" lon="11.362367481969095"><ele>884.0</ele><time>2026-04-30T10:10:07Z</time></trkpt><trkpt lat="44.182249148920846" lon="11.362473902011367"><ele>884.0</ele><time>2026-04-30T10:10:09Z</time></trkpt><trkpt lat="44.18224140736482" lon="11.36256878022444"><ele>884.0000000000001</ele><time>2026-04-30T10:10:10Z</time></trkpt><trkpt lat="44.182258999927406" lon="11.362661078322517"><ele>884.0</ele><time>2026-04-30T10:10:11Z</time></trkpt><trkpt lat="44.18230498873509" lon="11.362722015895912"><ele>884.0000000000001</ele><time>2026-04-30T10:10:12Z</time></trkpt><trkpt lat="44.1823793057815" lon="11.362771914159218"><ele>884.0</ele><time>2026-04-30T10:10:13Z</time></trkpt><trkpt lat="44.18245234889573" lon="11.362820054479442"><ele>884.0</ele><time>2026-04-30T10:10:14Z</time></trkpt><trkpt lat="44.18251347726478" lon="11.362875107104468"><ele>884.0</ele><time>2026-04-30T10:10:15Z</time></trkpt><trkpt lat="44.18257315055848" lon="11.362934447831595"><ele>884.0000000000001</ele><time>2026-04-30T10:10:16Z</time></trkpt><trkpt lat="44.18265086978301" lon="11.363028952743592"><ele>884.0</ele><time>2026-04-30T10:10:18Z</time></trkpt><trkpt lat="44.18262676505313" lon="11.363119153973523"><ele>884.0</ele><time>2026-04-30T10:10:20Z</time></trkpt><trkpt lat="44.182559073907335" lon="11.363135146810174"><ele>884.0000000000001</ele><time>2026-04-30T10:10:22Z</time></trkpt><trkpt lat="44.182462794112176" lon="11.363082899929745"><ele>884.0000000000001</ele><time>2026-04-30T10:10:24Z</time></trkpt><trkpt lat="44.1823568042668" lon="11.363048007296703"><ele>884.0</ele><time>2026-04-30T10:10:26Z</time></trkpt><trkpt lat="44.18224967289832" lon="11.363009399919717"><ele>884.0</ele><time>2026-04-30T10:10:28Z</time></trkpt><trkpt lat="44.18212584126155" lon="11.362990613256027"><ele>884.0000000000001</ele><time>2026-04-30T10:10:30Z</time></trkpt><trkpt lat="44.182059938307574" lon="11.3630175955912"><ele>884.0</ele><time>2026-04-30T10:10:31Z</time></trkpt><trkpt lat="44.1820001187216" lon="11.363051888192096"><ele>884.0</ele><time>2026-04-30T10:10:32Z</time></trkpt><trkpt lat="44.18188584570008" lon="11.36313739250958"><ele>884.0</ele><time>2026-04-30T10:10:34Z</time></trkpt><trkpt lat="44.18182237494565" lon="11.363179460881208"><ele>884.0000000000001</ele><time>2026-04-30T10:10:35Z</time></trkpt><trkpt lat="44.18176644960391" lon="11.363223817611326"><ele>884.0</ele><time>2026-04-30T10:10:36Z</time></trkpt><trkpt lat="44.18170734385877" lon="11.363275252201827"><ele>879.0</ele><time>2026-04-30T10:10:37Z</time></trkpt><trkpt lat="44.1816056585932" lon="11.363372763929267"><ele>874.0</ele><time>2026-04-30T10:10:39Z</time></trkpt><trkpt lat="44.181492248777964" lon="11.363429776117599"><ele>869.0</ele><time>2026-04-30T10:10:41Z</time></trkpt><trkpt lat="44.18139062637737" lon="11.36347674420349"><ele>864.0</ele><time>2026-04-30T10:10:43Z</time></trkpt><trkpt lat="44.18130765206076" lon="11.363601008222439"><ele>864.0</ele><time>2026-04-30T10:10:45Z</time></trkpt><trkpt lat="44.18119879474268" lon="11.363651549534005"><ele>864.0000000000001</ele><time>2026-04-30T10:10:47Z</time></trkpt><trkpt lat="44.1810875466389" lon="11.363643927254621"><ele>864.0000000000001</ele><time>2026-04-30T10:10:49Z</time></trkpt><trkpt lat="44.18097941539831" lon="11.363678061544716"><ele>864.0</ele><time>2026-04-30T10:10:51Z</time></trkpt><trkpt lat="44.18091539469276" lon="11.363752438568461"><ele>864.0</ele><time>2026-04-30T10:10:52Z</time></trkpt><trkpt lat="44.18086005884852" lon="11.363815283644396"><ele>863.8000000000001</ele><time>2026-04-30T10:10:53Z</time></trkpt><trkpt lat="44.18076981177487" lon="11.36390888205086"><ele>863.6000000000001</ele><time>2026-04-30T10:10:55Z</time></trkpt><trkpt lat="44.1806500763054" lon="11.363936239771911"><ele>863.4</ele><time>2026-04-30T10:10:57Z</time></trkpt><trkpt lat="44.180576436285264" lon="11.363949223621919"><ele>863.2</ele><time>2026-04-30T10:10:58Z</time></trkpt><trkpt lat="44.180489511196974" lon="11.363931692173757"><ele>863.0</ele><time>2026-04-30T10:11:00Z</time></trkpt><trkpt lat="44.180457249361616" lon="11.363846774114164"><ele>863.0</ele><time>2026-04-30T10:11:01Z</time></trkpt><trkpt lat="44.18042768614386" lon="11.363720048146584"><ele>863.0</ele><time>2026-04-30T10:11:02Z</time></trkpt><trkpt lat="44.18040077073098" lon="11.363591336181806"><ele>863.0</ele><time>2026-04-30T10:11:03Z</time></trkpt><trkpt lat="44.18038965983403" lon="11.363460762144085"><ele>863.0</ele><time>2026-04-30T10:11:04Z</time></trkpt><trkpt lat="44.18039221798325" lon="11.363293520803179"><ele>863.0</ele><time>2026-04-30T10:11:06Z</time></trkpt><trkpt lat="44.180396080273916" lon="11.363183795820747"><ele>863.0</ele><time>2026-04-30T10:11:07Z</time></trkpt><trkpt lat="44.180400458340415" lon="11.363082765638627"><ele>863.0</ele><time>2026-04-30T10:11:08Z</time></trkpt><trkpt lat="44.1803945706873" lon="11.362904157072691"><ele>863.0</ele><time>2026-04-30T10:11:10Z</time></trkpt><trkpt lat="44.1803608334412" lon="11.362785235297219"><ele>863.0</ele><time>2026-04-30T10:11:11Z</time></trkpt><trkpt lat="44.18029940532111" lon="11.362706084392547"><ele>863.0</ele><time>2026-04-30T10:11:12Z</time></trkpt><trkpt lat="44.180219072194205" lon="11.362629911730734"><ele>866.4</ele><time>2026-04-30T10:11:13Z</time></trkpt><trkpt lat="44.180154037000996" lon="11.362559165065914"><ele>869.8</ele><time>2026-04-30T10:11:14Z</time></trkpt><trkpt lat="44.180051185404174" lon="11.362510357186462"><ele>873.2</ele><time>2026-04-30T10:11:16Z</time></trkpt><trkpt lat="44.179944729623756" lon="11.362455777836496"><ele>876.6</ele><time>2026-04-30T10:11:18Z</time></trkpt><trkpt lat="44.179843525594826" lon="11.362414783798672"><ele>880.0</ele><time>2026-04-30T10:11:20Z</time></trkpt><trkpt lat="44.179777079362744" lon="11.362388992254774"><ele>879.9999999999999</ele><time>2026-04-30T10:11:22Z</time></trkpt><trkpt lat="44.17970860842131" lon="11.362317760182602"><ele>880.0</ele><time>2026-04-30T10:11:24Z</time></trkpt><trkpt lat="44.179652523447736" lon="11.362272672401154"><ele>880.0</ele><time>2026-04-30T10:11:25Z</time></trkpt><trkpt lat="44.179573136457826" lon="11.362188011427673"><ele>880.0</ele><time>2026-04-30T10:11:27Z</time></trkpt><trkpt lat="44.179531595666994" lon="11.362111325601463"><ele>879.9999999999999</ele><time>2026-04-30T10:11:28Z</time></trkpt><trkpt lat="44.17948590327093" lon="11.362032537720623"><ele>880.0</ele><time>2026-04-30T10:11:29Z</time></trkpt><trkpt lat="44.179429878537995" lon="11.361975489321198"><ele>881.9999999999999</ele><time>2026-04-30T10:11:30Z</time></trkpt><trkpt lat="44.179367802029155" lon="11.361936131768404"><ele>884.0</ele><time>2026-04-30T10:11:31Z</time></trkpt><trkpt lat="44.17927135493203" lon="11.36181015212517"><ele>886.0</ele><time>2026-04-30T10:11:33Z</time></trkpt><trkpt lat="44.179219682238156" lon="11.3617376563512"><ele>888.0</ele><time>2026-04-30T10:11:34Z</time></trkpt><trkpt lat="44.17915256256076" lon="11.36167003322068"><ele>889.9999999999999</ele><time>2026-04-30T10:11:35Z</time></trkpt><trkpt lat="44.179081555679744" lon="11.361608463192564"><ele>892.0</ele><time>2026-04-30T10:11:36Z</time></trkpt><trkpt lat="44.17902446450018" lon="11.361568923348168"><ele>892.6</ele><time>2026-04-30T10:11:37Z</time></trkpt><trkpt lat="44.17892631805659" lon="11.361485871159575"><ele>893.2</ele><time>2026-04-30T10:11:39Z</time></trkpt><trkpt lat="44.17887100483009" lon="11.361438419314046"><ele>893.8</ele><time>2026-04-30T10:11:40Z</time></trkpt><trkpt lat="44.17879122404531" lon="11.361379635186097"><ele>894.4</ele><time>2026-04-30T10:11:42Z</time></trkpt><trkpt lat="44.178697829116174" lon="11.361321311001396"><ele>895.0</ele><time>2026-04-30T10:11:44Z</time></trkpt><trkpt lat="44.17859345507386" lon="11.361259163020705"><ele>896.3333333333333</ele><time>2026-04-30T10:11:46Z</time></trkpt><trkpt lat="44.178489231402104" lon="11.361215601300858"><ele>897.6666666666666</ele><time>2026-04-30T10:11:48Z</time></trkpt><trkpt lat="44.17842181302916" lon="11.361172655587302"><ele>899.0</ele><time>2026-04-30T10:11:49Z</time></trkpt><trkpt lat="44.17834518848531" lon="11.361114472971787"><ele>900.3333333333333</ele><time>2026-04-30T10:11:50Z</time></trkpt><trkpt lat="44.178277721524275" lon="11.361049429937912"><ele>901.6666666666666</ele><time>2026-04-30T10:11:51Z</time></trkpt><trkpt lat="44.17821089738307" lon="11.360967168524768"><ele>903.0</ele><time>2026-04-30T10:11:52Z</time></trkpt><trkpt lat="44.17817048189959" lon="11.36089148310287"><ele>903.0</ele><time>2026-04-30T10:11:53Z</time></trkpt><trkpt lat="44.17815076440586" lon="11.360804028817322"><ele>903.0</ele><time>2026-04-30T10:11:55Z</time></trkpt><trkpt lat="44.1780825006498" lon="11.360698194758164"><ele>903.0</ele><time>2026-04-30T10:12:00Z</time></trkpt><trkpt lat="44.17803537897441" lon="11.360629448895343"><ele>903.0</ele><time>2026-04-30T10:12:01Z</time></trkpt><trkpt lat="44.17792915225153" lon="11.36057802044482"><ele>903.0</ele><time>2026-04-30T10:12:03Z</time></trkpt><trkpt lat="44.1778502293534" lon="11.360586737554428"><ele>903.0</ele><time>2026-04-30T10:12:04Z</time></trkpt><trkpt lat="44.177735216716115" lon="11.360597217876645"><ele>904.8333333333334</ele><time>2026-04-30T10:12:06Z</time></trkpt><trkpt lat="44.177621442356326" lon="11.360506565981249"><ele>906.6666666666667</ele><time>2026-04-30T10:12:08Z</time></trkpt><trkpt lat="44.17754933660725" lon="11.360408564050134"><ele>908.5</ele><time>2026-04-30T10:12:10Z</time></trkpt><trkpt lat="44.177500178407435" lon="11.360328336795215"><ele>910.3333333333334</ele><time>2026-04-30T10:12:11Z</time></trkpt><trkpt lat="44.177440814660656" lon="11.36027276397332"><ele>912.1666666666667</ele><time>2026-04-30T10:12:12Z</time></trkpt><trkpt lat="44.1773736622493" lon="11.360294131595525"><ele>914.0</ele><time>2026-04-30T10:12:14Z</time></trkpt><trkpt lat="44.17727134854764" lon="11.360328061337086"><ele>914.0000000000001</ele><time>2026-04-30T10:12:18Z</time></trkpt><trkpt lat="44.17715630481765" lon="11.360359783093866"><ele>914.0</ele><time>2026-04-30T10:12:21Z</time></trkpt><trkpt lat="44.17709171499792" lon="11.360346759053904"><ele>914.0</ele><time>2026-04-30T10:12:22Z</time></trkpt><trkpt lat="44.17699636294876" lon="11.36029475931318"><ele>914.0</ele><time>2026-04-30T10:12:23Z</time></trkpt><trkpt lat="44.176935038281655" lon="11.360248694638855"><ele>914.0000000000001</ele><time>2026-04-30T10:12:24Z</time></trkpt><trkpt lat="44.17688907987144" lon="11.360172518295713"><ele>914.0</ele><time>2026-04-30T10:12:25Z</time></trkpt><trkpt lat="44.176778423898334" lon="11.360143932439078"><ele>914.0</ele><time>2026-04-30T10:12:27Z</time></trkpt><trkpt lat="44.17666288340193" lon="11.36017968586204"><ele>914.0000000000001</ele><time>2026-04-30T10:12:28Z</time></trkpt><trkpt lat="44.17657330070206" lon="11.360188829347496"><ele>914.0000000000001</ele><time>2026-04-30T10:12:29Z</time></trkpt><trkpt lat="44.176481616016176" lon="11.360189232664563"><ele>914.0</ele><time>2026-04-30T10:12:30Z</time></trkpt><trkpt lat="44.1764011613308" lon="11.3602095505931"><ele>914.0</ele><time>2026-04-30T10:12:31Z</time></trkpt><trkpt lat="44.17630680331497" lon="11.360119532553147"><ele>914.0000000000001</ele><time>2026-04-30T10:12:34Z</time></trkpt><trkpt lat="44.17624168642401" lon="11.360085526110904"><ele>914.0</ele><time>2026-04-30T10:12:35Z</time></trkpt><trkpt lat="44.176158584484696" lon="11.36005138880776"><ele>914.0</ele><time>2026-04-30T10:12:36Z</time></trkpt><trkpt lat="44.176085016344764" lon="11.360069946194912"><ele>914.0</ele><time>2026-04-30T10:12:38Z</time></trkpt><trkpt lat="44.176017284414435" lon="11.360017034276554"><ele>914.0000000000001</ele><time>2026-04-30T10:12:40Z</time></trkpt><trkpt lat="44.175953519707214" lon="11.359989742099623"><ele>914.0</ele><time>2026-04-30T10:12:42Z</time></trkpt><trkpt lat="44.175844401147586" lon="11.359936955237272"><ele>914.0000000000001</ele><time>2026-04-30T10:12:44Z</time></trkpt><trkpt lat="44.17578038580497" lon="11.359909050244218"><ele>914.0</ele><time>2026-04-30T10:12:45Z</time></trkpt><trkpt lat="44.17571643719849" lon="11.35989919858012"><ele>914.0</ele><time>2026-04-30T10:12:46Z</time></trkpt><trkpt lat="44.1756545324735" lon="11.359957183610502"><ele>914.0</ele><time>2026-04-30T10:12:48Z</time></trkpt><trkpt lat="44.175582867261156" lon="11.359976858068697"><ele>914.0000000000001</ele><time>2026-04-30T10:12:50Z</time></trkpt><trkpt lat="44.17546861037747" lon="11.35997666769112"><ele>914.0</ele><time>2026-04-30T10:12:52Z</time></trkpt><trkpt lat="44.17540349587377" lon="11.359999678718937"><ele>915.0</ele><time>2026-04-30T10:12:53Z</time></trkpt><trkpt lat="44.17529671094554" lon="11.360007247997439"><ele>916.0000000000001</ele><time>2026-04-30T10:12:55Z</time></trkpt><trkpt lat="44.175226124031845" lon="11.359995051493463"><ele>917.0000000000001</ele><time>2026-04-30T10:12:57Z</time></trkpt><trkpt lat="44.175122556270416" lon="11.35997774542524"><ele>918.0</ele><time>2026-04-30T10:13:01Z</time></trkpt><trkpt lat="44.17501599355188" lon="11.359965057143912"><ele>919.0</ele><time>2026-04-30T10:13:03Z</time></trkpt><trkpt lat="44.174903615708125" lon="11.359965084478928"><ele>921.25</ele><time>2026-04-30T10:13:05Z</time></trkpt><trkpt lat="44.174788026994264" lon="11.359961800522171"><ele>923.5</ele><time>2026-04-30T10:13:07Z</time></trkpt><trkpt lat="44.17469440110703" lon="11.359879759089239"><ele>925.75</ele><time>2026-04-30T10:13:09Z</time></trkpt><trkpt lat="44.17459125754161" lon="11.359840210410121"><ele>928.0</ele><time>2026-04-30T10:13:11Z</time></trkpt><trkpt lat="44.1744817388334" lon="11.359896388118562"><ele>928.0</ele><time>2026-04-30T10:13:13Z</time></trkpt><trkpt lat="44.17437353975553" lon="11.359960346519758"><ele>928.0</ele><time>2026-04-30T10:13:15Z</time></trkpt><trkpt lat="44.174290684312325" lon="11.35995524256454"><ele>928.0</ele><time>2026-04-30T10:13:17Z</time></trkpt><trkpt lat="44.17420078184653" lon="11.359956523938681"><ele>928.0</ele><time>2026-04-30T10:13:19Z</time></trkpt><trkpt lat="44.17409821846742" lon="11.360017336957862"><ele>928.0</ele><time>2026-04-30T10:13:22Z</time></trkpt><trkpt lat="44.174025850919634" lon="11.360056717023394"><ele>926.9999999999999</ele><time>2026-04-30T10:13:23Z</time></trkpt><trkpt lat="44.17394658347612" lon="11.360080845726019"><ele>926.0</ele><time>2026-04-30T10:13:25Z</time></trkpt><trkpt lat="44.173883902595826" lon="11.360107026271656"><ele>925.0</ele><time>2026-04-30T10:13:30Z</time></trkpt><trkpt lat="44.173796405683014" lon="11.360114261595047"><ele>924.0</ele><time>2026-04-30T10:13:37Z</time></trkpt><trkpt lat="44.17372457723362" lon="11.360097116725168"><ele>922.9999999999999</ele><time>2026-04-30T10:13:40Z</time></trkpt><trkpt lat="44.17362888867453" lon="11.360097085386357"><ele>922.0</ele><time>2026-04-30T10:13:43Z</time></trkpt><trkpt lat="44.17360383736485" lon="11.360219719190523"><ele>921.9999999999999</ele><time>2026-04-30T10:13:45Z</time></trkpt><trkpt lat="44.17363961919078" lon="11.360310274850164"><ele>922.0</ele><time>2026-04-30T10:13:47Z</time></trkpt><trkpt lat="44.17366036729913" lon="11.360432285915627"><ele>922.0</ele><time>2026-04-30T10:13:50Z</time></trkpt><trkpt lat="44.17367869622681" lon="11.360567870546983"><ele>922.0</ele><time>2026-04-30T10:13:52Z</time></trkpt><trkpt lat="44.17369451668266" lon="11.3606532961045"><ele>921.9999999999999</ele><time>2026-04-30T10:13:53Z</time></trkpt><trkpt lat="44.17371143322076" lon="11.360741132710768"><ele>922.0</ele><time>2026-04-30T10:13:54Z</time></trkpt><trkpt lat="44.17372102063703" lon="11.360903956400861"><ele>919.6</ele><time>2026-04-30T10:13:56Z</time></trkpt><trkpt lat="44.17369682304662" lon="11.361006500943684"><ele>917.2</ele><time>2026-04-30T10:13:58Z</time></trkpt><trkpt lat="44.173619905576416" lon="11.361066931664359"><ele>914.8</ele><time>2026-04-30T10:14:08Z</time></trkpt><trkpt lat="44.17352130718305" lon="11.361141762918022"><ele>912.4</ele><time>2026-04-30T10:14:10Z</time></trkpt><trkpt lat="44.173468502868104" lon="11.361193344389145"><ele>910.0</ele><time>2026-04-30T10:14:11Z</time></trkpt><trkpt lat="44.17337875009427" lon="11.361304136889464"><ele>907.9999999999999</ele><time>2026-04-30T10:14:13Z</time></trkpt><trkpt lat="44.173310779533765" lon="11.361404244402513"><ele>906.0</ele><time>2026-04-30T10:14:15Z</time></trkpt><trkpt lat="44.17323524990022" lon="11.361541122255657"><ele>904.0</ele><time>2026-04-30T10:14:17Z</time></trkpt><trkpt lat="44.173190918181" lon="11.361604285225729"><ele>902.0</ele><time>2026-04-30T10:14:18Z</time></trkpt><trkpt lat="44.17316685991269" lon="11.361686860832085"><ele>899.9999999999999</ele><time>2026-04-30T10:14:19Z</time></trkpt><trkpt lat="44.17315347670483" lon="11.36180755821539"><ele>898.0</ele><time>2026-04-30T10:14:20Z</time></trkpt><trkpt lat="44.17313542494788" lon="11.361935248634673"><ele>896.6666666666666</ele><time>2026-04-30T10:14:21Z</time></trkpt><trkpt lat="44.173112515801215" lon="11.362064788855665"><ele>895.3333333333333</ele><time>2026-04-30T10:14:23Z</time></trkpt><trkpt lat="44.17309653796357" lon="11.362160134989162"><ele>894.0</ele><time>2026-04-30T10:14:29Z</time></trkpt><trkpt lat="44.17307955989221" lon="11.362252434958716"><ele>892.6666666666667</ele><time>2026-04-30T10:14:32Z</time></trkpt><trkpt lat="44.17305635477621" lon="11.362343044905645"><ele>891.3333333333334</ele><time>2026-04-30T10:14:38Z</time></trkpt><trkpt lat="44.17302288504557" lon="11.362452030371724"><ele>890.0</ele><time>2026-04-30T10:14:41Z</time></trkpt><trkpt lat="44.17296260915438" lon="11.362548002869342"><ele>888.3333333333334</ele><time>2026-04-30T10:14:48Z</time></trkpt><trkpt lat="44.172893531289205" lon="11.362626273300188"><ele>886.6666666666667</ele><time>2026-04-30T10:14:51Z</time></trkpt><trkpt lat="44.17281384859599" lon="11.362664685728811"><ele>885.0</ele><time>2026-04-30T10:15:02Z</time></trkpt><trkpt lat="44.1727474135522" lon="11.362718710193969"><ele>883.3333333333333</ele><time>2026-04-30T10:15:05Z</time></trkpt><trkpt lat="44.17268445860368" lon="11.362763784527301"><ele>881.6666666666666</ele><time>2026-04-30T10:15:08Z</time></trkpt><trkpt lat="44.17262392491741" lon="11.362811422035849"><ele>880.0</ele><time>2026-04-30T10:15:11Z</time></trkpt><trkpt lat="44.17255118843746" lon="11.362858047724924"><ele>879.9999999999999</ele><time>2026-04-30T10:15:16Z</time></trkpt><trkpt lat="44.17249652364594" lon="11.36293254688349"><ele>880.0</ele><time>2026-04-30T10:15:19Z</time></trkpt><trkpt lat="44.172431318058685" lon="11.3629883992423"><ele>880.0</ele><time>2026-04-30T10:15:22Z</time></trkpt><trkpt lat="44.17236372960299" lon="11.363035439798262"><ele>880.0</ele><time>2026-04-30T10:15:25Z</time></trkpt><trkpt lat="44.17231283703799" lon="11.36309754078177"><ele>879.9999999999999</ele><time>2026-04-30T10:15:27Z</time></trkpt><trkpt lat="44.17226572656023" lon="11.363158287517216"><ele>880.0</ele><time>2026-04-30T10:15:29Z</time></trkpt><trkpt lat="44.17221952083316" lon="11.363268917257283"><ele>876.0</ele><time>2026-04-30T10:15:31Z</time></trkpt><trkpt lat="44.172168531771156" lon="11.363394826651716"><ele>872.0</ele><time>2026-04-30T10:15:33Z</time></trkpt><trkpt lat="44.17205132061575" lon="11.363543085332147"><ele>868.0</ele><time>2026-04-30T10:15:35Z</time></trkpt><trkpt lat="44.17197416913599" lon="11.363637411880473"><ele>864.0</ele><time>2026-04-30T10:15:37Z</time></trkpt><trkpt lat="44.17190110364833" lon="11.363723597308818"><ele>864.0</ele><time>2026-04-30T10:15:39Z</time></trkpt><trkpt lat="44.17182994679968" lon="11.363826084825003"><ele>864.0000000000001</ele><time>2026-04-30T10:15:41Z</time></trkpt><trkpt lat="44.17176959478594" lon="11.363909732149764"><ele>864.0000000000001</ele><time>2026-04-30T10:15:43Z</time></trkpt><trkpt lat="44.17168349817424" lon="11.363967279459864"><ele>864.0</ele><time>2026-04-30T10:15:46Z</time></trkpt><trkpt lat="44.17161299712691" lon="11.364027209127944"><ele>864.0</ele><time>2026-04-30T10:15:48Z</time></trkpt><trkpt lat="44.17155071182288" lon="11.364130222799723"><ele>861.0</ele><time>2026-04-30T10:15:51Z</time></trkpt><trkpt lat="44.17147822987495" lon="11.364233798784072"><ele>858.0000000000001</ele><time>2026-04-30T10:15:53Z</time></trkpt><trkpt lat="44.17141780901642" lon="11.364330378633355"><ele>855.0</ele><time>2026-04-30T10:15:55Z</time></trkpt><trkpt lat="44.171404493372" lon="11.364542371043163"><ele>852.0</ele><time>2026-04-30T10:15:58Z</time></trkpt><trkpt lat="44.17135552302573" lon="11.36462079383247"><ele>849.0</ele><time>2026-04-30T10:15:59Z</time></trkpt><trkpt lat="44.17135092318049" lon="11.364718844428603"><ele>848.1666666666666</ele><time>2026-04-30T10:16:00Z</time></trkpt><trkpt lat="44.171352157699786" lon="11.364849485373583"><ele>847.3333333333333</ele><time>2026-04-30T10:16:02Z</time></trkpt><trkpt lat="44.17133204973875" lon="11.36493383752801"><ele>846.5</ele><time>2026-04-30T10:16:04Z</time></trkpt><trkpt lat="44.17131596254269" lon="11.36503484442714"><ele>845.6666666666666</ele><time>2026-04-30T10:16:06Z</time></trkpt><trkpt lat="44.1712990776207" lon="11.36517355618046"><ele>844.8333333333333</ele><time>2026-04-30T10:16:08Z</time></trkpt><trkpt lat="44.17128914630587" lon="11.365268653964764"><ele>844.0</ele><time>2026-04-30T10:16:09Z</time></trkpt><trkpt lat="44.17128491702358" lon="11.3654424976095"><ele>843.1666666666666</ele><time>2026-04-30T10:16:11Z</time></trkpt><trkpt lat="44.17129113394092" lon="11.36554072708123"><ele>842.3333333333333</ele><time>2026-04-30T10:16:12Z</time></trkpt><trkpt lat="44.17129999946472" lon="11.36568656442102"><ele>841.5</ele><time>2026-04-30T10:16:14Z</time></trkpt><trkpt lat="44.17126836079636" lon="11.365789724545266"><ele>840.6666666666667</ele><time>2026-04-30T10:16:22Z</time></trkpt><trkpt lat="44.17123236326402" lon="11.365899756935757"><ele>839.8333333333334</ele><time>2026-04-30T10:16:28Z</time></trkpt><trkpt lat="44.17119918350997" lon="11.365994384865653"><ele>839.0</ele><time>2026-04-30T10:16:30Z</time></trkpt><trkpt lat="44.17118425372841" lon="11.366104343154891"><ele>839.0000000000001</ele><time>2026-04-30T10:16:34Z</time></trkpt><trkpt lat="44.17116274545529" lon="11.366216364526306"><ele>839.0</ele><time>2026-04-30T10:16:36Z</time></trkpt><trkpt lat="44.17116383441153" lon="11.366305223580211"><ele>839.0</ele><time>2026-04-30T10:16:38Z</time></trkpt><trkpt lat="44.17115442848091" lon="11.36644237639484"><ele>839.0</ele><time>2026-04-30T10:16:41Z</time></trkpt><trkpt lat="44.17118141962223" lon="11.366576695909634"><ele>839.0000000000001</ele><time>2026-04-30T10:16:43Z</time></trkpt><trkpt lat="44.171210887373746" lon="11.366709474022691"><ele>839.0</ele><time>2026-04-30T10:16:45Z</time></trkpt><trkpt lat="44.17122328890296" lon="11.366810071304124"><ele>838.0</ele><time>2026-04-30T10:16:46Z</time></trkpt><trkpt lat="44.17123111498108" lon="11.366903590268675"><ele>837.0</ele><time>2026-04-30T10:16:47Z</time></trkpt><trkpt lat="44.17123638248779" lon="11.367053342469244"><ele>836.0</ele><time>2026-04-30T10:16:49Z</time></trkpt><trkpt lat="44.17120792511631" lon="11.36722183848762"><ele>835.0</ele><time>2026-04-30T10:16:52Z</time></trkpt><trkpt lat="44.17118669217869" lon="11.3673291047304"><ele>834.0</ele><time>2026-04-30T10:16:54Z</time></trkpt><trkpt lat="44.17123831181307" lon="11.367408971379191"><ele>834.0</ele><time>2026-04-30T10:16:56Z</time></trkpt><trkpt lat="44.171295635009855" lon="11.36746980809376"><ele>834.0</ele><time>2026-04-30T10:16:58Z</time></trkpt><trkpt lat="44.17136007880253" lon="11.367537237899603"><ele>834.0</ele><time>2026-04-30T10:17:01Z</time></trkpt><trkpt lat="44.17143935531762" lon="11.3675836046144"><ele>834.0</ele><time>2026-04-30T10:17:03Z</time></trkpt><trkpt lat="44.17151735952813" lon="11.367623086698716"><ele>834.0</ele><time>2026-04-30T10:17:05Z</time></trkpt><trkpt lat="44.17160561251708" lon="11.367714795129837"><ele>834.0</ele><time>2026-04-30T10:17:07Z</time></trkpt><trkpt lat="44.1716834994115" lon="11.367747984284234"><ele>834.0</ele><time>2026-04-30T10:17:09Z</time></trkpt><trkpt lat="44.17175385825" lon="11.367751647280407"><ele>834.0</ele><time>2026-04-30T10:17:14Z</time></trkpt><trkpt lat="44.171857990066876" lon="11.367764313228756"><ele>834.0</ele><time>2026-04-30T10:17:17Z</time></trkpt><trkpt lat="44.17193230783944" lon="11.367722852094591"><ele>834.0</ele><time>2026-04-30T10:17:19Z</time></trkpt><trkpt lat="44.17199648943774" lon="11.367740455136957"><ele>834.0</ele><time>2026-04-30T10:17:22Z</time></trkpt><trkpt lat="44.17207593451787" lon="11.367794451106304"><ele>834.0</ele><time>2026-04-30T10:17:24Z</time></trkpt><trkpt lat="44.17214665366313" lon="11.367859637479544"><ele>834.0</ele><time>2026-04-30T10:17:26Z</time></trkpt><trkpt lat="44.172201458678536" lon="11.367949534828051"><ele>834.0</ele><time>2026-04-30T10:17:28Z</time></trkpt><trkpt lat="44.17224524637837" lon="11.368025158735893"><ele>834.0</ele><time>2026-04-30T10:17:30Z</time></trkpt><trkpt lat="44.172289234198345" lon="11.36810531606837"><ele>834.0</ele><time>2026-04-30T10:17:32Z</time></trkpt><trkpt lat="44.17236270816465" lon="11.368123232714659"><ele>834.0</ele><time>2026-04-30T10:17:34Z</time></trkpt><trkpt lat="44.17242849459422" lon="11.36814441995737"><ele>834.0</ele><time>2026-04-30T10:17:36Z</time></trkpt><trkpt lat="44.17249415528938" lon="11.368110909323034"><ele>834.0</ele><time>2026-04-30T10:17:39Z</time></trkpt><trkpt lat="44.17255466538654" lon="11.368063221625262"><ele>832.0</ele><time>2026-04-30T10:17:42Z</time></trkpt><trkpt lat="44.17263453700841" lon="11.368055536086343"><ele>830.0</ele><time>2026-04-30T10:17:45Z</time></trkpt><trkpt lat="44.172706057840024" lon="11.368009211546187"><ele>828.0</ele><time>2026-04-30T10:17:49Z</time></trkpt><trkpt lat="44.1727859119301" lon="11.36806164588712"><ele>826.0</ele><time>2026-04-30T10:18:08Z</time></trkpt><trkpt lat="44.172841160995084" lon="11.368146587819805"><ele>824.0</ele><time>2026-04-30T10:18:21Z</time></trkpt><trkpt lat="44.17289140901186" lon="11.368214599683707"><ele>822.0</ele><time>2026-04-30T10:18:24Z</time></trkpt><trkpt lat="44.17296437322809" lon="11.368267375568724"><ele>819.5</ele><time>2026-04-30T10:18:29Z</time></trkpt><trkpt lat="44.173030150978796" lon="11.368363753339965"><ele>817.0</ele><time>2026-04-30T10:18:31Z</time></trkpt><trkpt lat="44.17306413968896" lon="11.368444742455702"><ele>814.5</ele><time>2026-04-30T10:18:33Z</time></trkpt><trkpt lat="44.173048766080804" lon="11.368597976402404"><ele>812.0</ele><time>2026-04-30T10:18:35Z</time></trkpt><trkpt lat="44.17308978775446" lon="11.368673892432914"><ele>809.5</ele><time>2026-04-30T10:18:36Z</time></trkpt><trkpt lat="44.17314840719179" lon="11.368779619378358"><ele>807.0</ele><time>2026-04-30T10:18:37Z</time></trkpt><trkpt lat="44.17325992311835" lon="11.36880018834898"><ele>803.5</ele><time>2026-04-30T10:18:39Z</time></trkpt><trkpt lat="44.17328150093671" lon="11.368903412661352"><ele>800.0</ele><time>2026-04-30T10:18:41Z</time></trkpt><trkpt lat="44.173349034241774" lon="11.369041846001558"><ele>796.5</ele><time>2026-04-30T10:18:43Z</time></trkpt><trkpt lat="44.17342083354477" lon="11.369089960085525"><ele>793.0</ele><time>2026-04-30T10:18:44Z</time></trkpt><trkpt lat="44.173485941392485" lon="11.369157795279545"><ele>789.5</ele><time>2026-04-30T10:18:45Z</time></trkpt><trkpt lat="44.17352637435952" lon="11.369247934878748"><ele>786.0</ele><time>2026-04-30T10:18:47Z</time></trkpt><trkpt lat="44.17358204713908" lon="11.369310511378627"><ele>786.0</ele><time>2026-04-30T10:18:49Z</time></trkpt><trkpt lat="44.173618113943476" lon="11.36939229932196"><ele>786.0</ele><time>2026-04-30T10:18:52Z</time></trkpt><trkpt lat="44.17359035699281" lon="11.369503782428442"><ele>786.0</ele><time>2026-04-30T10:18:55Z</time></trkpt><trkpt lat="44.1735219531856" lon="11.369569666960862"><ele>786.0</ele><time>2026-04-30T10:19:00Z</time></trkpt><trkpt lat="44.173419343598425" lon="11.369585062039127"><ele>786.0</ele><time>2026-04-30T10:19:03Z</time></trkpt><trkpt lat="44.17326461519753" lon="11.369524189423275"><ele>785.6666666666666</ele><time>2026-04-30T10:19:05Z</time></trkpt><trkpt lat="44.17318773581157" lon="11.369506149085115"><ele>785.3333333333333</ele><time>2026-04-30T10:19:06Z</time></trkpt><trkpt lat="44.17309430265694" lon="11.369513775222261"><ele>785.0</ele><time>2026-04-30T10:19:07Z</time></trkpt><trkpt lat="44.17300335116389" lon="11.369541625454149"><ele>784.6666666666666</ele><time>2026-04-30T10:19:08Z</time></trkpt><trkpt lat="44.17292785169317" lon="11.369539043561211"><ele>784.3333333333333</ele><time>2026-04-30T10:19:09Z</time></trkpt><trkpt lat="44.172826352331626" lon="11.369539015778749"><ele>784.0</ele><time>2026-04-30T10:19:10Z</time></trkpt><trkpt lat="44.172740563251786" lon="11.369532065078001"><ele>784.0</ele><time>2026-04-30T10:19:11Z</time></trkpt><trkpt lat="44.17264543640094" lon="11.369520390052246"><ele>784.0</ele><time>2026-04-30T10:19:12Z</time></trkpt><trkpt lat="44.17254008346401" lon="11.36950648411001"><ele>784.0</ele><time>2026-04-30T10:19:13Z</time></trkpt><trkpt lat="44.17244666643162" lon="11.369503955198441"><ele>784.0</ele><time>2026-04-30T10:19:14Z</time></trkpt><trkpt lat="44.17236254201246" lon="11.369511683665884"><ele>784.0</ele><time>2026-04-30T10:19:15Z</time></trkpt><trkpt lat="44.1722874018678" lon="11.369521294826521"><ele>781.6</ele><time>2026-04-30T10:19:16Z</time></trkpt><trkpt lat="44.172183290292416" lon="11.369459628363035"><ele>779.2</ele><time>2026-04-30T10:19:18Z</time></trkpt><trkpt lat="44.17215758852123" lon="11.369361171610455"><ele>776.8000000000001</ele><time>2026-04-30T10:19:20Z</time></trkpt><trkpt lat="44.17209486445642" lon="11.369237193659725"><ele>774.4000000000001</ele><time>2026-04-30T10:19:22Z</time></trkpt><trkpt lat="44.1719841909628" lon="11.369229060440707"><ele>772.0</ele><time>2026-04-30T10:19:24Z</time></trkpt><trkpt lat="44.17188160644915" lon="11.369255466974266"><ele>772.0</ele><time>2026-04-30T10:19:26Z</time></trkpt><trkpt lat="44.17181892282363" lon="11.369267284074514"><ele>772.0</ele><time>2026-04-30T10:19:27Z</time></trkpt><trkpt lat="44.17171935071529" lon="11.369257001169847"><ele>772.0</ele><time>2026-04-30T10:19:29Z</time></trkpt><trkpt lat="44.17164327803685" lon="11.369265945813757"><ele>772.0</ele><time>2026-04-30T10:19:31Z</time></trkpt><trkpt lat="44.17153612442089" lon="11.369224801763737"><ele>772.0</ele><time>2026-04-30T10:19:45Z</time></trkpt><trkpt lat="44.17142706819663" lon="11.369232076817378"><ele>769.6</ele><time>2026-04-30T10:19:46Z</time></trkpt><trkpt lat="44.17130482683217" lon="11.369278995837872"><ele>767.2</ele><time>2026-04-30T10:19:47Z</time></trkpt><trkpt lat="44.171219171179004" lon="11.369276597399093"><ele>764.8</ele><time>2026-04-30T10:19:48Z</time></trkpt><trkpt lat="44.17112534522245" lon="11.369218301517874"><ele>762.4</ele><time>2026-04-30T10:19:49Z</time></trkpt><trkpt lat="44.171024260981405" lon="11.369128262296556"><ele>760.0</ele><time>2026-04-30T10:19:50Z</time></trkpt><trkpt lat="44.17091804178199" lon="11.369039729733112"><ele>760.0</ele><time>2026-04-30T10:19:51Z</time></trkpt><trkpt lat="44.170829914151874" lon="11.368997064675865"><ele>760.0</ele><time>2026-04-30T10:19:52Z</time></trkpt><trkpt lat="44.17072690119261" lon="11.368982059034195"><ele>760.0</ele><time>2026-04-30T10:19:53Z</time></trkpt><trkpt lat="44.17062903664375" lon="11.368963029270862"><ele>760.0</ele><time>2026-04-30T10:19:54Z</time></trkpt><trkpt lat="44.17054399423735" lon="11.36891527609307"><ele>760.0</ele><time>2026-04-30T10:19:55Z</time></trkpt><trkpt lat="44.170432456069136" lon="11.368891240122206"><ele>759.8333333333334</ele><time>2026-04-30T10:19:57Z</time></trkpt><trkpt lat="44.170334519141335" lon="11.368940311400754"><ele>759.6666666666667</ele><time>2026-04-30T10:19:58Z</time></trkpt><trkpt lat="44.170253306953754" lon="11.368991662537764"><ele>759.5</ele><time>2026-04-30T10:19:59Z</time></trkpt><trkpt lat="44.1701949438205" lon="11.369084971770054"><ele>759.3333333333334</ele><time>2026-04-30T10:20:00Z</time></trkpt><trkpt lat="44.170110867457225" lon="11.369159924352283"><ele>759.1666666666666</ele><time>2026-04-30T10:20:02Z</time></trkpt><trkpt lat="44.17004597959592" lon="11.369151790610905"><ele>759.0</ele><time>2026-04-30T10:20:03Z</time></trkpt><trkpt lat="44.169973779084835" lon="11.369113052112024"><ele>759.0</ele><time>2026-04-30T10:20:04Z</time></trkpt><trkpt lat="44.169908764040414" lon="11.3690916983347"><ele>759.0</ele><time>2026-04-30T10:20:05Z</time></trkpt><trkpt lat="44.16984754403392" lon="11.369123198960335"><ele>759.0</ele><time>2026-04-30T10:20:06Z</time></trkpt><trkpt lat="44.169816314324564" lon="11.369217882174748"><ele>759.0</ele><time>2026-04-30T10:20:08Z</time></trkpt><trkpt lat="44.16992932655761" lon="11.369273782635405"><ele>759.0</ele><time>2026-04-30T10:20:10Z</time></trkpt><trkpt lat="44.16998952102056" lon="11.369306692604418"><ele>759.0</ele><time>2026-04-30T10:20:11Z</time></trkpt><trkpt lat="44.170114478059055" lon="11.369385495934138"><ele>759.0</ele><time>2026-04-30T10:20:13Z</time></trkpt><trkpt lat="44.17017743397186" lon="11.369484500165921"><ele>759.0</ele><time>2026-04-30T10:20:14Z</time></trkpt><trkpt lat="44.1702613765445" lon="11.369554269276847"><ele>759.0</ele><time>2026-04-30T10:20:15Z</time></trkpt><trkpt lat="44.1703411643715" lon="11.369620585155621"><ele>759.0</ele><time>2026-04-30T10:20:16Z</time></trkpt><trkpt lat="44.17042535350958" lon="11.369692459485526"><ele>759.0</ele><time>2026-04-30T10:20:17Z</time></trkpt><trkpt lat="44.17051358517081" lon="11.369769478973033"><ele>757.2</ele><time>2026-04-30T10:20:18Z</time></trkpt><trkpt lat="44.17060824346533" lon="11.369817963452807"><ele>755.4000000000001</ele><time>2026-04-30T10:20:19Z</time></trkpt><trkpt lat="44.17068890794456" lon="11.369893564967876"><ele>753.6</ele><time>2026-04-30T10:20:20Z</time></trkpt><trkpt lat="44.170770087363486" lon="11.369963927491565"><ele>751.8</ele><time>2026-04-30T10:20:21Z</time></trkpt><trkpt lat="44.1708662180486" lon="11.3700480703637"><ele>750.0</ele><time>2026-04-30T10:20:22Z</time></trkpt><trkpt lat="44.17096159835142" lon="11.370148066998206"><ele>749.0</ele><time>2026-04-30T10:20:23Z</time></trkpt><trkpt lat="44.171049046529205" lon="11.370239477703722"><ele>748.0</ele><time>2026-04-30T10:20:24Z</time></trkpt><trkpt lat="44.171140759785324" lon="11.370315453128326"><ele>747.0</ele><time>2026-04-30T10:20:25Z</time></trkpt><trkpt lat="44.171233042711265" lon="11.370386958784783"><ele>746.0</ele><time>2026-04-30T10:20:26Z</time></trkpt><trkpt lat="44.17131058150065" lon="11.370472166675217"><ele>745.0</ele><time>2026-04-30T10:20:27Z</time></trkpt><trkpt lat="44.17138649876604" lon="11.370567717549294"><ele>742.8</ele><time>2026-04-30T10:20:28Z</time></trkpt><trkpt lat="44.17146569039063" lon="11.370660727464761"><ele>740.6</ele><time>2026-04-30T10:20:29Z</time></trkpt><trkpt lat="44.171533802112855" lon="11.370761977558903"><ele>738.4000000000001</ele><time>2026-04-30T10:20:30Z</time></trkpt><trkpt lat="44.17159711332649" lon="11.370862520596722"><ele>736.2</ele><time>2026-04-30T10:20:31Z</time></trkpt><trkpt lat="44.17165893140327" lon="11.37096367812415"><ele>734.0</ele><time>2026-04-30T10:20:32Z</time></trkpt><trkpt lat="44.171708446210936" lon="11.371077330307246"><ele>734.0</ele><time>2026-04-30T10:20:33Z</time></trkpt><trkpt lat="44.17174422290482" lon="11.371210843804565"><ele>734.0</ele><time>2026-04-30T10:20:34Z</time></trkpt><trkpt lat="44.171778985120966" lon="11.371353568260918"><ele>734.0</ele><time>2026-04-30T10:20:35Z</time></trkpt><trkpt lat="44.17182104633596" lon="11.37148088403626"><ele>734.0</ele><time>2026-04-30T10:20:36Z</time></trkpt><trkpt lat="44.17186497916497" lon="11.371582723170908"><ele>734.0</ele><time>2026-04-30T10:20:37Z</time></trkpt><trkpt lat="44.17193512949213" lon="11.371652446501692"><ele>731.2</ele><time>2026-04-30T10:20:38Z</time></trkpt><trkpt lat="44.17202553215464" lon="11.371717973170218"><ele>728.4000000000001</ele><time>2026-04-30T10:20:39Z</time></trkpt><trkpt lat="44.172129090014806" lon="11.371771481651162"><ele>725.6</ele><time>2026-04-30T10:20:40Z</time></trkpt><trkpt lat="44.172223821516056" lon="11.371825963527975"><ele>722.8</ele><time>2026-04-30T10:20:41Z</time></trkpt><trkpt lat="44.17231752551936" lon="11.371889377009937"><ele>720.0</ele><time>2026-04-30T10:20:42Z</time></trkpt><trkpt lat="44.17239091486484" lon="11.37198412444159"><ele>719.8</ele><time>2026-04-30T10:20:43Z</time></trkpt><trkpt lat="44.17245416305453" lon="11.372118975070288"><ele>719.6</ele><time>2026-04-30T10:20:44Z</time></trkpt><trkpt lat="44.172518134538926" lon="11.372269588598781"><ele>719.4000000000001</ele><time>2026-04-30T10:20:45Z</time></trkpt><trkpt lat="44.17258450968486" lon="11.372381534501088"><ele>719.2</ele><time>2026-04-30T10:20:46Z</time></trkpt><trkpt lat="44.172654281851926" lon="11.372467870374106"><ele>719.0</ele><time>2026-04-30T10:20:47Z</time></trkpt><trkpt lat="44.172715570191436" lon="11.372554491600763"><ele>717.1666666666666</ele><time>2026-04-30T10:20:48Z</time></trkpt><trkpt lat="44.17277216718144" lon="11.372650179961658"><ele>715.3333333333333</ele><time>2026-04-30T10:20:49Z</time></trkpt><trkpt lat="44.172833438972276" lon="11.37272842132231"><ele>713.5</ele><time>2026-04-30T10:20:50Z</time></trkpt><trkpt lat="44.172903907201935" lon="11.372794230073177"><ele>711.6666666666666</ele><time>2026-04-30T10:20:51Z</time></trkpt><trkpt lat="44.17297371474063" lon="11.372847748838247"><ele>709.8333333333334</ele><time>2026-04-30T10:20:52Z</time></trkpt><trkpt lat="44.17304084526691" lon="11.372915028357115"><ele>708.0</ele><time>2026-04-30T10:20:53Z</time></trkpt><trkpt lat="44.17309154130442" lon="11.373021516345467"><ele>706.4</ele><time>2026-04-30T10:20:54Z</time></trkpt><trkpt lat="44.17312668113853" lon="11.373140358385323"><ele>704.8</ele><time>2026-04-30T10:20:55Z</time></trkpt><trkpt lat="44.17313878452477" lon="11.373252173065504"><ele>703.2</ele><time>2026-04-30T10:20:56Z</time></trkpt><trkpt lat="44.17312253500567" lon="11.373338258327284"><ele>701.6</ele><time>2026-04-30T10:20:57Z</time></trkpt><trkpt lat="44.17303634905848" lon="11.37342057512748"><ele>700.0</ele><time>2026-04-30T10:20:59Z</time></trkpt><trkpt lat="44.17292221643394" lon="11.373495224992364"><ele>700.0</ele><time>2026-04-30T10:21:01Z</time></trkpt><trkpt lat="44.172863136419615" lon="11.373548706596289"><ele>700.0</ele><time>2026-04-30T10:21:02Z</time></trkpt><trkpt lat="44.172784731764885" lon="11.37359647880829"><ele>700.0</ele><time>2026-04-30T10:21:03Z</time></trkpt><trkpt lat="44.17270067952516" lon="11.373667763026152"><ele>700.0</ele><time>2026-04-30T10:21:04Z</time></trkpt><trkpt lat="44.172600911253866" lon="11.373753461095776"><ele>700.0</ele><time>2026-04-30T10:21:05Z</time></trkpt><trkpt lat="44.172506998274415" lon="11.373866780297694"><ele>699.25</ele><time>2026-04-30T10:21:06Z</time></trkpt><trkpt lat="44.1723948403183" lon="11.374029426067365"><ele>698.5</ele><time>2026-04-30T10:21:07Z</time></trkpt><trkpt lat="44.17228186483288" lon="11.374186763574317"><ele>697.75</ele><time>2026-04-30T10:21:08Z</time></trkpt><trkpt lat="44.17219113573603" lon="11.374312146874482"><ele>697.0</ele><time>2026-04-30T10:21:09Z</time></trkpt><trkpt lat="44.172086447865624" lon="11.374418008933597"><ele>697.0</ele><time>2026-04-30T10:21:10Z</time></trkpt><trkpt lat="44.171980876009044" lon="11.374503082268916"><ele>697.0</ele><time>2026-04-30T10:21:11Z</time></trkpt><trkpt lat="44.171896209385274" lon="11.374583601003064"><ele>697.0</ele><time>2026-04-30T10:21:12Z</time></trkpt><trkpt lat="44.171836549227805" lon="11.374645234258663"><ele>697.0</ele><time>2026-04-30T10:21:13Z</time></trkpt><trkpt lat="44.17179608594316" lon="11.37472008623832"><ele>697.0</ele><time>2026-04-30T10:21:14Z</time></trkpt><trkpt lat="44.17176786878107" lon="11.37486298293456"><ele>695.4000000000001</ele><time>2026-04-30T10:21:15Z</time></trkpt><trkpt lat="44.17175299656701" lon="11.375028506170436"><ele>693.8000000000001</ele><time>2026-04-30T10:21:16Z</time></trkpt><trkpt lat="44.171745051355416" lon="11.375179591237835"><ele>692.2</ele><time>2026-04-30T10:21:17Z</time></trkpt><trkpt lat="44.17172689876484" lon="11.37530798016261"><ele>690.6</ele><time>2026-04-30T10:21:18Z</time></trkpt><trkpt lat="44.17171284497237" lon="11.375429834105796"><ele>689.0</ele><time>2026-04-30T10:21:19Z</time></trkpt><trkpt lat="44.171698717886215" lon="11.375550445533026"><ele>688.1666666666666</ele><time>2026-04-30T10:21:20Z</time></trkpt><trkpt lat="44.17168285161465" lon="11.375668976775241"><ele>687.3333333333333</ele><time>2026-04-30T10:21:21Z</time></trkpt><trkpt lat="44.17166608114078" lon="11.375785455172037"><ele>686.5</ele><time>2026-04-30T10:21:22Z</time></trkpt><trkpt lat="44.171652952222225" lon="11.375894769456885"><ele>685.6666666666666</ele><time>2026-04-30T10:21:23Z</time></trkpt><trkpt lat="44.1716359020347" lon="11.37600880326311"><ele>684.8333333333334</ele><time>2026-04-30T10:21:24Z</time></trkpt><trkpt lat="44.171610797516806" lon="11.376121367052223"><ele>684.0</ele><time>2026-04-30T10:21:25Z</time></trkpt><trkpt lat="44.17158661986202" lon="11.376232586928571"><ele>684.0</ele><time>2026-04-30T10:21:26Z</time></trkpt><trkpt lat="44.17156076477769" lon="11.376338347110133"><ele>684.0</ele><time>2026-04-30T10:21:27Z</time></trkpt><trkpt lat="44.17152903900662" lon="11.376443216505347"><ele>684.0</ele><time>2026-04-30T10:21:28Z</time></trkpt><trkpt lat="44.171501377972035" lon="11.376549346079377"><ele>684.0</ele><time>2026-04-30T10:21:29Z</time></trkpt><trkpt lat="44.17147537149305" lon="11.37665622995711"><ele>684.0</ele><time>2026-04-30T10:21:30Z</time></trkpt><trkpt lat="44.17144572224806" lon="11.376755372050777"><ele>684.0</ele><time>2026-04-30T10:21:31Z</time></trkpt><trkpt lat="44.17141502736604" lon="11.376858524588643"><ele>683.75</ele><time>2026-04-30T10:21:32Z</time></trkpt><trkpt lat="44.17137622812924" lon="11.376962559772254"><ele>683.5</ele><time>2026-04-30T10:21:33Z</time></trkpt><trkpt lat="44.17134535005136" lon="11.377091934291897"><ele>683.25</ele><time>2026-04-30T10:21:34Z</time></trkpt><trkpt lat="44.171301514086935" lon="11.377271527684918"><ele>683.0</ele><time>2026-04-30T10:21:35Z</time></trkpt><trkpt lat="44.17124675525209" lon="11.377490995579844"><ele>683.0</ele><time>2026-04-30T10:21:36Z</time></trkpt><trkpt lat="44.171197018659015" lon="11.377667283582937"><ele>683.0</ele><time>2026-04-30T10:21:37Z</time></trkpt><trkpt lat="44.171163613118736" lon="11.3778142638297"><ele>683.0</ele><time>2026-04-30T10:21:38Z</time></trkpt><trkpt lat="44.17111878787523" lon="11.377946132366656"><ele>683.0</ele><time>2026-04-30T10:21:39Z</time></trkpt><trkpt lat="44.17106850084566" lon="11.378047070957136"><ele>683.0</ele><time>2026-04-30T10:21:40Z</time></trkpt><trkpt lat="44.170987215257966" lon="11.378130024550515"><ele>682.0</ele><time>2026-04-30T10:21:41Z</time></trkpt><trkpt lat="44.1708703257378" lon="11.378223865806882"><ele>681.0</ele><time>2026-04-30T10:21:42Z</time></trkpt><trkpt lat="44.17073287064581" lon="11.378312731433798"><ele>680.0</ele><time>2026-04-30T10:21:43Z</time></trkpt><trkpt lat="44.170615133183865" lon="11.378383543963144"><ele>679.0</ele><time>2026-04-30T10:21:44Z</time></trkpt><trkpt lat="44.17051543364565" lon="11.37845219292407"><ele>679.0</ele><time>2026-04-30T10:21:45Z</time></trkpt><trkpt lat="44.170426991979745" lon="11.378534603090856"><ele>679.0</ele><time>2026-04-30T10:21:46Z</time></trkpt><trkpt lat="44.17031941993315" lon="11.378638470807534"><ele>679.0</ele><time>2026-04-30T10:21:47Z</time></trkpt><trkpt lat="44.170229671314516" lon="11.378772476457995"><ele>679.0</ele><time>2026-04-30T10:21:48Z</time></trkpt><trkpt lat="44.170086093196716" lon="11.378911588591713"><ele>680.0</ele><time>2026-04-30T10:21:49Z</time></trkpt><trkpt lat="44.16992941551898" lon="11.37909022493246"><ele>681.0</ele><time>2026-04-30T10:21:50Z</time></trkpt><trkpt lat="44.16980183767921" lon="11.379259496772372"><ele>682.0</ele><time>2026-04-30T10:21:51Z</time></trkpt><trkpt lat="44.16969300213674" lon="11.37939570034586"><ele>682.0</ele><time>2026-04-30T10:21:52Z</time></trkpt><trkpt lat="44.169577419957704" lon="11.379501538683021"><ele>682.0</ele><time>2026-04-30T10:21:53Z</time></trkpt><trkpt lat="44.169495696010536" lon="11.379579832908979"><ele>682.0</ele><time>2026-04-30T10:21:54Z</time></trkpt><trkpt lat="44.16944810380159" lon="11.379647923374709"><ele>682.0</ele><time>2026-04-30T10:21:56Z</time></trkpt><trkpt lat="44.16943414221151" lon="11.379745072264058"><ele>682.0</ele><time>2026-04-30T10:22:01Z</time></trkpt><trkpt lat="44.169503143876554" lon="11.37989011360716"><ele>680.6666666666667</ele><time>2026-04-30T10:22:02Z</time></trkpt><trkpt lat="44.16951368910983" lon="11.379996892365773"><ele>679.3333333333334</ele><time>2026-04-30T10:22:03Z</time></trkpt><trkpt lat="44.16951773884664" lon="11.380101083107501"><ele>678.0</ele><time>2026-04-30T10:22:04Z</time></trkpt><trkpt lat="44.169502604177424" lon="11.38018737524248"><ele>676.6666666666666</ele><time>2026-04-30T10:22:05Z</time></trkpt><trkpt lat="44.169432214870874" lon="11.380313986126541"><ele>675.3333333333333</ele><time>2026-04-30T10:22:07Z</time></trkpt><trkpt lat="44.16935746973512" lon="11.380372736016973"><ele>674.0</ele><time>2026-04-30T10:22:08Z</time></trkpt><trkpt lat="44.16926361503895" lon="11.380463555145836"><ele>673.0</ele><time>2026-04-30T10:22:09Z</time></trkpt><trkpt lat="44.16918509566759" lon="11.380519634395327"><ele>672.0</ele><time>2026-04-30T10:22:10Z</time></trkpt><trkpt lat="44.16910227860464" lon="11.380537242332323"><ele>671.0</ele><time>2026-04-30T10:22:12Z</time></trkpt><trkpt lat="44.16901901412694" lon="11.380514614448195"><ele>670.0</ele><time>2026-04-30T10:22:14Z</time></trkpt><trkpt lat="44.168923002626656" lon="11.380566003290083"><ele>669.0</ele><time>2026-04-30T10:22:16Z</time></trkpt><trkpt lat="44.16893567823347" lon="11.380693832518565"><ele>669.0</ele><time>2026-04-30T10:22:18Z</time></trkpt><trkpt lat="44.16899091451997" lon="11.380766498799025"><ele>669.0</ele><time>2026-04-30T10:22:19Z</time></trkpt><trkpt lat="44.1690454999845" lon="11.38084030104916"><ele>669.0</ele><time>2026-04-30T10:22:20Z</time></trkpt><trkpt lat="44.169135273057144" lon="11.380953842129601"><ele>669.0</ele><time>2026-04-30T10:22:22Z</time></trkpt><trkpt lat="44.16921780545517" lon="11.381073764033728"><ele>669.0</ele><time>2026-04-30T10:22:24Z</time></trkpt><trkpt lat="44.16932650434479" lon="11.381175726343214"><ele>668.0</ele><time>2026-04-30T10:22:26Z</time></trkpt><trkpt lat="44.16938508603177" lon="11.381248382946355"><ele>667.0</ele><time>2026-04-30T10:22:27Z</time></trkpt><trkpt lat="44.169429770775515" lon="11.381333980623921"><ele>666.0</ele><time>2026-04-30T10:22:28Z</time></trkpt><trkpt lat="44.16941426973476" lon="11.381469824759852"><ele>665.0</ele><time>2026-04-30T10:22:29Z</time></trkpt><trkpt lat="44.16945198768486" lon="11.381563577450184"><ele>664.0</ele><time>2026-04-30T10:22:30Z</time></trkpt><trkpt lat="44.1695028509635" lon="11.381658592596889"><ele>663.0</ele><time>2026-04-30T10:22:31Z</time></trkpt><trkpt lat="44.169579286596104" lon="11.381723071822664"><ele>660.8333333333334</ele><time>2026-04-30T10:22:32Z</time></trkpt><trkpt lat="44.16964172215896" lon="11.381806170716917"><ele>658.6666666666666</ele><time>2026-04-30T10:22:33Z</time></trkpt><trkpt lat="44.16969753086374" lon="11.38188856887744"><ele>656.5</ele><time>2026-04-30T10:22:34Z</time></trkpt><trkpt lat="44.16974703193291" lon="11.381961207173308"><ele>654.3333333333333</ele><time>2026-04-30T10:22:35Z</time></trkpt><trkpt lat="44.16979725528549" lon="11.382031326066484"><ele>652.1666666666666</ele><time>2026-04-30T10:22:36Z</time></trkpt><trkpt lat="44.169859747311754" lon="11.38210957757285"><ele>650.0</ele><time>2026-04-30T10:22:37Z</time></trkpt><trkpt lat="44.16992011067743" lon="11.382187782386323"><ele>646.8333333333333</ele><time>2026-04-30T10:22:38Z</time></trkpt><trkpt lat="44.16998749169352" lon="11.382255333852125"><ele>643.6666666666666</ele><time>2026-04-30T10:22:39Z</time></trkpt><trkpt lat="44.170058188849694" lon="11.382351457114575"><ele>640.5</ele><time>2026-04-30T10:22:40Z</time></trkpt><trkpt lat="44.17011096449833" lon="11.382439122294032"><ele>637.3333333333334</ele><time>2026-04-30T10:22:41Z</time></trkpt><trkpt lat="44.17018278846079" lon="11.38254407387592"><ele>634.1666666666667</ele><time>2026-04-30T10:22:43Z</time></trkpt><trkpt lat="44.17023945687069" lon="11.382614900331413"><ele>631.0</ele><time>2026-04-30T10:22:45Z</time></trkpt><trkpt lat="44.17029908426413" lon="11.382710712553896"><ele>631.0</ele><time>2026-04-30T10:22:48Z</time></trkpt><trkpt lat="44.17038622781595" lon="11.382911940747412"><ele>631.0</ele><time>2026-04-30T10:22:50Z</time></trkpt><trkpt lat="44.17045506950191" lon="11.383074935623844"><ele>631.0</ele><time>2026-04-30T10:22:51Z</time></trkpt><trkpt lat="44.17050995161543" lon="11.383226549555504"><ele>631.0</ele><time>2026-04-30T10:22:52Z</time></trkpt><trkpt lat="44.17054410454304" lon="11.383359482121758"><ele>629.6666666666667</ele><time>2026-04-30T10:22:53Z</time></trkpt><trkpt lat="44.17056964495143" lon="11.383485798637285"><ele>628.3333333333334</ele><time>2026-04-30T10:22:54Z</time></trkpt><trkpt lat="44.170607232880094" lon="11.3836114618931"><ele>627.0</ele><time>2026-04-30T10:22:55Z</time></trkpt><trkpt lat="44.17065788845338" lon="11.383725764914598"><ele>625.6666666666666</ele><time>2026-04-30T10:22:56Z</time></trkpt><trkpt lat="44.17070497975466" lon="11.38381949258658"><ele>624.3333333333333</ele><time>2026-04-30T10:22:57Z</time></trkpt><trkpt lat="44.17074378225738" lon="11.383901928901347"><ele>623.0</ele><time>2026-04-30T10:22:58Z</time></trkpt><trkpt lat="44.170777413580595" lon="11.383985410878314"><ele>622.6</ele><time>2026-04-30T10:22:59Z</time></trkpt><trkpt lat="44.17081335883862" lon="11.384060685796541"><ele>622.1999999999999</ele><time>2026-04-30T10:23:00Z</time></trkpt><trkpt lat="44.170855677267674" lon="11.384130651011407"><ele>621.8</ele><time>2026-04-30T10:23:01Z</time></trkpt><trkpt lat="44.170928890560916" lon="11.384274489814395"><ele>621.4</ele><time>2026-04-30T10:23:03Z</time></trkpt><trkpt lat="44.17099817989374" lon="11.38441048270957"><ele>621.0</ele><time>2026-04-30T10:23:05Z</time></trkpt><trkpt lat="44.17099976449951" lon="11.384514197551876"><ele>621.0</ele><time>2026-04-30T10:23:07Z</time></trkpt><trkpt lat="44.17092487680455" lon="11.384605142459487"><ele>621.0</ele><time>2026-04-30T10:23:18Z</time></trkpt><trkpt lat="44.170863365497844" lon="11.384698004256746"><ele>621.0</ele><time>2026-04-30T10:23:19Z</time></trkpt><trkpt lat="44.170791333501356" lon="11.38478069694868"><ele>621.0</ele><time>2026-04-30T10:23:20Z</time></trkpt><trkpt lat="44.17071339909272" lon="11.384857590599285"><ele>621.0</ele><time>2026-04-30T10:23:21Z</time></trkpt><trkpt lat="44.170626097105064" lon="11.384914900903027"><ele>618.0</ele><time>2026-04-30T10:23:22Z</time></trkpt><trkpt lat="44.17054012252133" lon="11.384933251484277"><ele>615.0</ele><time>2026-04-30T10:23:23Z</time></trkpt><trkpt lat="44.1704668940976" lon="11.384996074537314"><ele>612.0</ele><time>2026-04-30T10:23:24Z</time></trkpt><trkpt lat="44.17039075590502" lon="11.38508223965085"><ele>609.0</ele><time>2026-04-30T10:23:25Z</time></trkpt><trkpt lat="44.17032174295659" lon="11.385170299070042"><ele>606.0</ele><time>2026-04-30T10:23:26Z</time></trkpt><trkpt lat="44.17025537692045" lon="11.385261309710545"><ele>606.0</ele><time>2026-04-30T10:23:27Z</time></trkpt><trkpt lat="44.170201406655686" lon="11.385335339055125"><ele>606.0</ele><time>2026-04-30T10:23:28Z</time></trkpt><trkpt lat="44.170122218755594" lon="11.38544815436697"><ele>606.0</ele><time>2026-04-30T10:23:30Z</time></trkpt><trkpt lat="44.1700746801432" lon="11.385520795869406"><ele>606.0</ele><time>2026-04-30T10:23:31Z</time></trkpt><trkpt lat="44.17002084464402" lon="11.385610054091172"><ele>606.0</ele><time>2026-04-30T10:23:32Z</time></trkpt><trkpt lat="44.16997540900131" lon="11.38569005323263"><ele>606.0</ele><time>2026-04-30T10:23:33Z</time></trkpt><trkpt lat="44.169910681097534" lon="11.385829186553442"><ele>604.6666666666666</ele><time>2026-04-30T10:23:35Z</time></trkpt><trkpt lat="44.16992423099933" lon="11.385940432126757"><ele>603.3333333333334</ele><time>2026-04-30T10:23:36Z</time></trkpt><trkpt lat="44.169970622439955" lon="11.386055768834758"><ele>602.0</ele><time>2026-04-30T10:23:38Z</time></trkpt><trkpt lat="44.16998253430526" lon="11.386144345416875"><ele>600.6666666666667</ele><time>2026-04-30T10:23:41Z</time></trkpt><trkpt lat="44.17000884188472" lon="11.386226322929737"><ele>599.3333333333334</ele><time>2026-04-30T10:23:43Z</time></trkpt><trkpt lat="44.17004276497174" lon="11.38632930040057"><ele>598.0</ele><time>2026-04-30T10:23:45Z</time></trkpt><trkpt lat="44.17009602225523" lon="11.386411176569386"><ele>596.1666666666667</ele><time>2026-04-30T10:23:46Z</time></trkpt><trkpt lat="44.170130900720814" lon="11.386606428297451"><ele>594.3333333333334</ele><time>2026-04-30T10:23:47Z</time></trkpt><trkpt lat="44.170154758063774" lon="11.386690138238244"><ele>592.5</ele><time>2026-04-30T10:23:48Z</time></trkpt><trkpt lat="44.17020328692454" lon="11.38676451193567"><ele>590.6666666666666</ele><time>2026-04-30T10:23:49Z</time></trkpt><trkpt lat="44.170261154719036" lon="11.386841780088702"><ele>588.8333333333333</ele><time>2026-04-30T10:23:50Z</time></trkpt><trkpt lat="44.17033745127053" lon="11.38687613946445"><ele>587.0</ele><time>2026-04-30T10:23:51Z</time></trkpt><trkpt lat="44.17038285059533" lon="11.386953722717395"><ele>587.0</ele><time>2026-04-30T10:23:52Z</time></trkpt><trkpt lat="44.17039953938477" lon="11.387070116127155"><ele>587.0</ele><time>2026-04-30T10:23:54Z</time></trkpt><trkpt lat="44.17043728522126" lon="11.387174375666747"><ele>587.0</ele><time>2026-04-30T10:23:56Z</time></trkpt><trkpt lat="44.170460589162275" lon="11.387258351414225"><ele>587.0</ele><time>2026-04-30T10:23:57Z</time></trkpt><trkpt lat="44.17052685850277" lon="11.387340926440823"><ele>587.0</ele><time>2026-04-30T10:23:59Z</time></trkpt><trkpt lat="44.17059078750167" lon="11.387423665555717"><ele>587.0</ele><time>2026-04-30T10:24:01Z</time></trkpt><trkpt lat="44.17068970201877" lon="11.387533610584825"><ele>584.8333333333333</ele><time>2026-04-30T10:24:03Z</time></trkpt><trkpt lat="44.17073525203058" lon="11.387616507029808"><ele>582.6666666666666</ele><time>2026-04-30T10:24:04Z</time></trkpt><trkpt lat="44.17082026607885" lon="11.387697564266668"><ele>580.5</ele><time>2026-04-30T10:24:05Z</time></trkpt><trkpt lat="44.170907014702074" lon="11.38776296270532"><ele>578.3333333333334</ele><time>2026-04-30T10:24:06Z</time></trkpt><trkpt lat="44.17096817758604" lon="11.387815369652778"><ele>576.1666666666667</ele><time>2026-04-30T10:24:07Z</time></trkpt><trkpt lat="44.17100778031903" lon="11.387895681453992"><ele>574.0</ele><time>2026-04-30T10:24:08Z</time></trkpt><trkpt lat="44.17105305082253" lon="11.387973817430236"><ele>570.6666666666667</ele><time>2026-04-30T10:24:09Z</time></trkpt><trkpt lat="44.171092052302704" lon="11.388063283568425"><ele>567.3333333333334</ele><time>2026-04-30T10:24:10Z</time></trkpt><trkpt lat="44.171131148946536" lon="11.388147723204527"><ele>564.0</ele><time>2026-04-30T10:24:11Z</time></trkpt><trkpt lat="44.17120488089092" lon="11.388237603103203"><ele>560.6666666666666</ele><time>2026-04-30T10:24:12Z</time></trkpt><trkpt lat="44.17127491936506" lon="11.388332030234293"><ele>557.3333333333333</ele><time>2026-04-30T10:24:13Z</time></trkpt><trkpt lat="44.17133506119037" lon="11.388433983929959"><ele>554.0</ele><time>2026-04-30T10:24:14Z</time></trkpt><trkpt lat="44.17139420704398" lon="11.388549381145086"><ele>554.0</ele><time>2026-04-30T10:24:15Z</time></trkpt><trkpt lat="44.17145796871085" lon="11.388655505189599"><ele>554.0</ele><time>2026-04-30T10:24:16Z</time></trkpt><trkpt lat="44.171520886214005" lon="11.388764968738737"><ele>554.0</ele><time>2026-04-30T10:24:17Z</time></trkpt><trkpt lat="44.17156082367809" lon="11.388889218148524"><ele>554.0</ele><time>2026-04-30T10:24:18Z</time></trkpt><trkpt lat="44.17159923127167" lon="11.389009441215622"><ele>554.0</ele><time>2026-04-30T10:24:19Z</time></trkpt><trkpt lat="44.17165320994395" lon="11.38912401570561"><ele>551.5</ele><time>2026-04-30T10:24:20Z</time></trkpt><trkpt lat="44.171715803647025" lon="11.389209489687941"><ele>549.0</ele><time>2026-04-30T10:24:21Z</time></trkpt><trkpt lat="44.171779386479685" lon="11.389263874611464"><ele>546.5</ele><time>2026-04-30T10:24:22Z</time></trkpt><trkpt lat="44.17184697294211" lon="11.389304719632113"><ele>544.0</ele><time>2026-04-30T10:24:23Z</time></trkpt><trkpt lat="44.171923204891655" lon="11.38936703545809"><ele>541.5</ele><time>2026-04-30T10:24:25Z</time></trkpt><trkpt lat="44.17189701807938" lon="11.389453056807639"><ele>539.0</ele><time>2026-04-30T10:24:28Z</time></trkpt><trkpt lat="44.171873882751036" lon="11.389537325810059"><ele>539.0</ele><time>2026-04-30T10:24:29Z</time></trkpt><trkpt lat="44.17185913147182" lon="11.389633860375714"><ele>539.0</ele><time>2026-04-30T10:24:30Z</time></trkpt><trkpt lat="44.17190741067123" lon="11.389768990745456"><ele>539.0</ele><time>2026-04-30T10:24:32Z</time></trkpt><trkpt lat="44.17197696716262" lon="11.389882115350614"><ele>539.0</ele><time>2026-04-30T10:24:34Z</time></trkpt><trkpt lat="44.17205203267809" lon="11.389989440560454"><ele>539.0</ele><time>2026-04-30T10:24:36Z</time></trkpt><trkpt lat="44.17213806626443" lon="11.390077669360677"><ele>538.1666666666666</ele><time>2026-04-30T10:24:38Z</time></trkpt><trkpt lat="44.172157608571574" lon="11.390198710024869"><ele>537.3333333333333</ele><time>2026-04-30T10:24:40Z</time></trkpt><trkpt lat="44.1721745451475" lon="11.390323547506815"><ele>536.5</ele><time>2026-04-30T10:24:42Z</time></trkpt><trkpt lat="44.172211401946306" lon="11.390420057662535"><ele>535.6666666666666</ele><time>2026-04-30T10:24:44Z</time></trkpt><trkpt lat="44.17222955000736" lon="11.390507700844205"><ele>534.8333333333334</ele><time>2026-04-30T10:24:46Z</time></trkpt><trkpt lat="44.172272273766836" lon="11.39059366515027"><ele>534.0</ele><time>2026-04-30T10:24:48Z</time></trkpt><trkpt lat="44.172305491976" lon="11.390714317393384"><ele>533.6</ele><time>2026-04-30T10:24:50Z</time></trkpt><trkpt lat="44.17235262155299" lon="11.39084304410339"><ele>533.2</ele><time>2026-04-30T10:24:52Z</time></trkpt><trkpt lat="44.1723819684718" lon="11.390970350465713"><ele>532.8000000000001</ele><time>2026-04-30T10:24:54Z</time></trkpt><trkpt lat="44.172413878420116" lon="11.39109544011229"><ele>532.4</ele><time>2026-04-30T10:24:56Z</time></trkpt><trkpt lat="44.17242108991453" lon="11.391198550422622"><ele>532.0</ele><time>2026-04-30T10:24:58Z</time></trkpt><trkpt lat="44.1724320099582" lon="11.39137042737198"><ele>529.2</ele><time>2026-04-30T10:25:02Z</time></trkpt><trkpt lat="44.1724439698278" lon="11.391482507956002"><ele>526.4000000000001</ele><time>2026-04-30T10:25:03Z</time></trkpt><trkpt lat="44.17246331319649" lon="11.391630279028501"><ele>523.5999999999999</ele><time>2026-04-30T10:25:05Z</time></trkpt><trkpt lat="44.17248798699857" lon="11.391753857583783"><ele>520.8</ele><time>2026-04-30T10:25:07Z</time></trkpt><trkpt lat="44.17250156343748" lon="11.391907372743624"><ele>518.0</ele><time>2026-04-30T10:25:09Z</time></trkpt><trkpt lat="44.172496789754895" lon="11.3920540973007"><ele>518.0</ele><time>2026-04-30T10:25:11Z</time></trkpt><trkpt lat="44.17251935520599" lon="11.392160589700437"><ele>518.0</ele><time>2026-04-30T10:25:14Z</time></trkpt><trkpt lat="44.17256108845552" lon="11.392263599619282"><ele>518.0</ele><time>2026-04-30T10:25:17Z</time></trkpt><trkpt lat="44.17257397642993" lon="11.392368627761124"><ele>518.0</ele><time>2026-04-30T10:25:19Z</time></trkpt><trkpt lat="44.17257688000503" lon="11.392463687380861"><ele>518.0</ele><time>2026-04-30T10:25:20Z</time></trkpt><trkpt lat="44.172595034560146" lon="11.392560676445914"><ele>518.0</ele><time>2026-04-30T10:25:21Z</time></trkpt><trkpt lat="44.172616796105665" lon="11.392672473988288"><ele>517.0</ele><time>2026-04-30T10:25:22Z</time></trkpt><trkpt lat="44.172635038737646" lon="11.392786739278208"><ele>516.0</ele><time>2026-04-30T10:25:23Z</time></trkpt><trkpt lat="44.172635644728345" lon="11.392899875221763"><ele>515.0</ele><time>2026-04-30T10:25:24Z</time></trkpt><trkpt lat="44.17263900123025" lon="11.392999022364792"><ele>514.0</ele><time>2026-04-30T10:25:25Z</time></trkpt><trkpt lat="44.17262214798155" lon="11.393171107083125"><ele>513.0</ele><time>2026-04-30T10:25:27Z</time></trkpt><trkpt lat="44.17260481168313" lon="11.393260753391868"><ele>512.0</ele><time>2026-04-30T10:25:28Z</time></trkpt><trkpt lat="44.17258179181248" lon="11.393352564424134"><ele>510.49999999999994</ele><time>2026-04-30T10:25:29Z</time></trkpt><trkpt lat="44.17257499753612" lon="11.393457018197104"><ele>509.0</ele><time>2026-04-30T10:25:30Z</time></trkpt><trkpt lat="44.1725764823834" lon="11.393593112606544"><ele>507.5</ele><time>2026-04-30T10:25:31Z</time></trkpt><trkpt lat="44.17258409445762" lon="11.39371040725296"><ele>506.0</ele><time>2026-04-30T10:25:32Z</time></trkpt><trkpt lat="44.17258495196543" lon="11.393816628956882"><ele>504.49999999999994</ele><time>2026-04-30T10:25:33Z</time></trkpt><trkpt lat="44.17258864093045" lon="11.393905348526765"><ele>503.0</ele><time>2026-04-30T10:25:34Z</time></trkpt><trkpt lat="44.17259597120916" lon="11.393998672692694"><ele>501.59999999999997</ele><time>2026-04-30T10:25:35Z</time></trkpt><trkpt lat="44.172557276970124" lon="11.394085448052671"><ele>500.19999999999993</ele><time>2026-04-30T10:25:38Z</time></trkpt><trkpt lat="44.17248053210357" lon="11.394201123039736"><ele>498.8</ele><time>2026-04-30T10:25:40Z</time></trkpt><trkpt lat="44.17241446950074" lon="11.394336743238199"><ele>497.4</ele><time>2026-04-30T10:25:42Z</time></trkpt><trkpt lat="44.17237322525302" lon="11.394499034546707"><ele>496.0</ele><time>2026-04-30T10:25:44Z</time></trkpt><trkpt lat="44.17236219299669" lon="11.394588668262736"><ele>494.8</ele><time>2026-04-30T10:25:45Z</time></trkpt><trkpt lat="44.17232449620164" lon="11.394727416480322"><ele>493.6</ele><time>2026-04-30T10:25:47Z</time></trkpt><trkpt lat="44.17232375797129" lon="11.394876637844364"><ele>492.4</ele><time>2026-04-30T10:25:49Z</time></trkpt><trkpt lat="44.172310578757575" lon="11.395030901491863"><ele>491.2</ele><time>2026-04-30T10:25:51Z</time></trkpt><trkpt lat="44.17227617536541" lon="11.39518362796809"><ele>490.0</ele><time>2026-04-30T10:25:53Z</time></trkpt><trkpt lat="44.172272393522256" lon="11.395304164861097"><ele>490.0</ele><time>2026-04-30T10:25:55Z</time></trkpt><trkpt lat="44.17230140798069" lon="11.39539214507108"><ele>490.0</ele><time>2026-04-30T10:25:56Z</time></trkpt><trkpt lat="44.17232444852208" lon="11.39553199939554"><ele>490.0</ele><time>2026-04-30T10:25:58Z</time></trkpt><trkpt lat="44.1723356118163" lon="11.395620929457687"><ele>490.0</ele><time>2026-04-30T10:25:59Z</time></trkpt><trkpt lat="44.17237240248898" lon="11.395761496376894"><ele>490.0</ele><time>2026-04-30T10:26:01Z</time></trkpt><trkpt lat="44.172389805709834" lon="11.395909454528447"><ele>490.1666666666667</ele><time>2026-04-30T10:26:03Z</time></trkpt><trkpt lat="44.17239164570778" lon="11.396001060851981"><ele>490.33333333333337</ele><time>2026-04-30T10:26:04Z</time></trkpt><trkpt lat="44.17238731761592" lon="11.396178490288248"><ele>490.5</ele><time>2026-04-30T10:26:06Z</time></trkpt><trkpt lat="44.17238544108283" lon="11.396318063759425"><ele>490.66666666666663</ele><time>2026-04-30T10:26:08Z</time></trkpt><trkpt lat="44.172386793193624" lon="11.396419017123316"><ele>490.8333333333333</ele><time>2026-04-30T10:26:10Z</time></trkpt><trkpt lat="44.17238144218685" lon="11.396532699540156"><ele>491.0</ele><time>2026-04-30T10:26:12Z</time></trkpt><trkpt lat="44.17238598089278" lon="11.396682848513816"><ele>490.99999999999994</ele><time>2026-04-30T10:26:15Z</time></trkpt><trkpt lat="44.172370751710204" lon="11.396821408352393"><ele>491.0</ele><time>2026-04-30T10:26:17Z</time></trkpt><trkpt lat="44.17235355959846" lon="11.396911345631375"><ele>491.0</ele><time>2026-04-30T10:26:19Z</time></trkpt><trkpt lat="44.17239877942935" lon="11.397016482127096"><ele>491.0</ele><time>2026-04-30T10:26:21Z</time></trkpt><trkpt lat="44.17246930730862" lon="11.397143167762877"><ele>490.99999999999994</ele><time>2026-04-30T10:26:23Z</time></trkpt><trkpt lat="44.17251619507392" lon="11.397218857959393"><ele>491.0</ele><time>2026-04-30T10:26:26Z</time></trkpt><trkpt lat="44.17254799767533" lon="11.397317952836936"><ele>490.0</ele><time>2026-04-30T10:26:29Z</time></trkpt><trkpt lat="44.17255307613001" lon="11.397470583687081"><ele>489.0</ele><time>2026-04-30T10:26:32Z</time></trkpt><trkpt lat="44.17256584182097" lon="11.397561198986917"><ele>488.0</ele><time>2026-04-30T10:26:45Z</time></trkpt><trkpt lat="44.17257552855722" lon="11.397702578208293"><ele>487.0</ele><time>2026-04-30T10:26:47Z</time></trkpt><trkpt lat="44.17259573740197" lon="11.397854934345862"><ele>486.0</ele><time>2026-04-30T10:26:49Z</time></trkpt><trkpt lat="44.172618646546375" lon="11.397940685377518"><ele>483.8</ele><time>2026-04-30T10:26:50Z</time></trkpt><trkpt lat="44.17262955195491" lon="11.398027840745778"><ele>481.6</ele><time>2026-04-30T10:26:51Z</time></trkpt><trkpt lat="44.17269515817168" lon="11.398181549542162"><ele>479.4</ele><time>2026-04-30T10:26:53Z</time></trkpt><trkpt lat="44.172748261237395" lon="11.398279231923723"><ele>477.2</ele><time>2026-04-30T10:26:54Z</time></trkpt><trkpt lat="44.17275967563964" lon="11.398470755698238"><ele>475.0</ele><time>2026-04-30T10:26:56Z</time></trkpt><trkpt lat="44.172758079418585" lon="11.398579705157893"><ele>475.0</ele><time>2026-04-30T10:26:57Z</time></trkpt><trkpt lat="44.1727561175136" lon="11.398739773989712"><ele>475.0</ele><time>2026-04-30T10:26:59Z</time></trkpt><trkpt lat="44.17277140562759" lon="11.398894202371713"><ele>475.0</ele><time>2026-04-30T10:27:01Z</time></trkpt><trkpt lat="44.17277670692469" lon="11.398986139339337"><ele>475.0</ele><time>2026-04-30T10:27:02Z</time></trkpt><trkpt lat="44.172802062326554" lon="11.399146734062676"><ele>475.0</ele><time>2026-04-30T10:27:04Z</time></trkpt><trkpt lat="44.17282451016167" lon="11.399300477437933"><ele>473.33333333333337</ele><time>2026-04-30T10:27:06Z</time></trkpt><trkpt lat="44.17285704802297" lon="11.399415503551538"><ele>471.6666666666667</ele><time>2026-04-30T10:27:08Z</time></trkpt><trkpt lat="44.172894887359504" lon="11.39950309218058"><ele>470.0</ele><time>2026-04-30T10:27:09Z</time></trkpt><trkpt lat="44.17293761482846" lon="11.39961476876023"><ele>468.33333333333337</ele><time>2026-04-30T10:27:11Z</time></trkpt><trkpt lat="44.17297548136108" lon="11.399688567605144"><ele>466.6666666666667</ele><time>2026-04-30T10:27:20Z</time></trkpt><trkpt lat="44.173013322048206" lon="11.399764545313367"><ele>465.0</ele><time>2026-04-30T10:27:22Z</time></trkpt><trkpt lat="44.17304651567463" lon="11.399883353109571"><ele>462.4</ele><time>2026-04-30T10:27:24Z</time></trkpt><trkpt lat="44.17307588000159" lon="11.4000525586366"><ele>459.8</ele><time>2026-04-30T10:27:26Z</time></trkpt><trkpt lat="44.17309425692305" lon="11.400238044945517"><ele>457.20000000000005</ele><time>2026-04-30T10:27:28Z</time></trkpt><trkpt lat="44.17308914235765" lon="11.400343283141735"><ele>454.6</ele><time>2026-04-30T10:27:29Z</time></trkpt><trkpt lat="44.17308808494034" lon="11.400454883659892"><ele>452.0</ele><time>2026-04-30T10:27:30Z</time></trkpt><trkpt lat="44.17310283458609" lon="11.4005483833447"><ele>450.66666666666663</ele><time>2026-04-30T10:27:31Z</time></trkpt><trkpt lat="44.17314726044602" lon="11.400629180324291"><ele>449.3333333333333</ele><time>2026-04-30T10:27:32Z</time></trkpt><trkpt lat="44.173209572215235" lon="11.400702560782166"><ele>448.0</ele><time>2026-04-30T10:27:33Z</time></trkpt><trkpt lat="44.17327191256177" lon="11.400741463262323"><ele>446.66666666666663</ele><time>2026-04-30T10:27:34Z</time></trkpt><trkpt lat="44.17333421845747" lon="11.400772943815205"><ele>445.3333333333333</ele><time>2026-04-30T10:27:35Z</time></trkpt><trkpt lat="44.17337877980151" lon="11.40095434874518"><ele>444.0</ele><time>2026-04-30T10:27:37Z</time></trkpt><trkpt lat="44.17336506492854" lon="11.401071667998256"><ele>444.0</ele><time>2026-04-30T10:27:38Z</time></trkpt><trkpt lat="44.173323344473715" lon="11.401200674211488"><ele>444.0</ele><time>2026-04-30T10:27:39Z</time></trkpt><trkpt lat="44.17328395958638" lon="11.4013619650687"><ele>444.0</ele><time>2026-04-30T10:27:40Z</time></trkpt><trkpt lat="44.173258790008965" lon="11.401534161459336"><ele>444.0</ele><time>2026-04-30T10:27:41Z</time></trkpt><trkpt lat="44.173240383839726" lon="11.401657500361763"><ele>444.0</ele><time>2026-04-30T10:27:42Z</time></trkpt><trkpt lat="44.17321532020131" lon="11.401753225861968"><ele>443.0</ele><time>2026-04-30T10:27:43Z</time></trkpt><trkpt lat="44.17319381958009" lon="11.401851522576486"><ele>442.0</ele><time>2026-04-30T10:27:44Z</time></trkpt><trkpt lat="44.17319037144756" lon="11.401954580033408"><ele>441.0</ele><time>2026-04-30T10:27:45Z</time></trkpt><trkpt lat="44.173191082279835" lon="11.402076622385245"><ele>440.0</ele><time>2026-04-30T10:27:47Z</time></trkpt><trkpt lat="44.173233418870566" lon="11.402206828705284"><ele>439.0</ele><time>2026-04-30T10:28:01Z</time></trkpt><trkpt lat="44.17330431823936" lon="11.402316385108518"><ele>438.0</ele><time>2026-04-30T10:28:03Z</time></trkpt><trkpt lat="44.17333724052361" lon="11.402395114220209"><ele>437.79999999999995</ele><time>2026-04-30T10:28:04Z</time></trkpt><trkpt lat="44.17335407852826" lon="11.402514319878591"><ele>437.59999999999997</ele><time>2026-04-30T10:28:05Z</time></trkpt><trkpt lat="44.17334198415152" lon="11.402662038024301"><ele>437.40000000000003</ele><time>2026-04-30T10:28:06Z</time></trkpt><trkpt lat="44.17332191942265" lon="11.402841535125367"><ele>437.20000000000005</ele><time>2026-04-30T10:28:07Z</time></trkpt><trkpt lat="44.173316996728175" lon="11.402986990946532"><ele>437.0</ele><time>2026-04-30T10:28:08Z</time></trkpt><trkpt lat="44.1733277241789" lon="11.403099333041908"><ele>437.0</ele><time>2026-04-30T10:28:09Z</time></trkpt><trkpt lat="44.173360669646854" lon="11.403197327737885"><ele>437.00000000000006</ele><time>2026-04-30T10:28:10Z</time></trkpt><trkpt lat="44.1734136469227" lon="11.403324740521203"><ele>437.00000000000006</ele><time>2026-04-30T10:28:11Z</time></trkpt><trkpt lat="44.17346836544897" lon="11.403426289884333"><ele>437.0</ele><time>2026-04-30T10:28:12Z</time></trkpt><trkpt lat="44.173528917266516" lon="11.403505711520943"><ele>437.0</ele><time>2026-04-30T10:28:13Z</time></trkpt><trkpt lat="44.17362186560585" lon="11.403614327955852"><ele>437.0</ele><time>2026-04-30T10:28:14Z</time></trkpt><trkpt lat="44.17371722660766" lon="11.403735609321506"><ele>437.00000000000006</ele><time>2026-04-30T10:28:15Z</time></trkpt><trkpt lat="44.17376466553344" lon="11.403841818389862"><ele>437.00000000000006</ele><time>2026-04-30T10:28:16Z</time></trkpt><trkpt lat="44.17377488996453" lon="11.403975976610166"><ele>437.0</ele><time>2026-04-30T10:28:18Z</time></trkpt><trkpt lat="44.17371152516802" lon="11.404073939371617"><ele>437.0</ele><time>2026-04-30T10:28:19Z</time></trkpt><trkpt lat="44.17373162581873" lon="11.404224415323037"><ele>436.66666666666663</ele><time>2026-04-30T10:28:20Z</time></trkpt><trkpt lat="44.173691469793695" lon="11.404341623866406"><ele>436.3333333333333</ele><time>2026-04-30T10:28:21Z</time></trkpt><trkpt lat="44.17365013825721" lon="11.404442698505338"><ele>436.0</ele><time>2026-04-30T10:28:22Z</time></trkpt><trkpt lat="44.17361014440549" lon="11.404545691218358"><ele>435.66666666666663</ele><time>2026-04-30T10:28:23Z</time></trkpt><trkpt lat="44.17356787575676" lon="11.404646355864381"><ele>435.3333333333333</ele><time>2026-04-30T10:28:24Z</time></trkpt><trkpt lat="44.173514577231124" lon="11.404746673750255"><ele>435.0</ele><time>2026-04-30T10:28:25Z</time></trkpt><trkpt lat="44.17342887615873" lon="11.404808978196668"><ele>435.0</ele><time>2026-04-30T10:28:26Z</time></trkpt><trkpt lat="44.173327131522214" lon="11.404840278442173"><ele>435.0</ele><time>2026-04-30T10:28:27Z</time></trkpt><trkpt lat="44.17321232740144" lon="11.404833521165807"><ele>435.0</ele><time>2026-04-30T10:28:28Z</time></trkpt><trkpt lat="44.17309621661422" lon="11.404823198489341"><ele>435.0</ele><time>2026-04-30T10:28:29Z</time></trkpt><trkpt lat="44.17298137394749" lon="11.404830028721872"><ele>436.25</ele><time>2026-04-30T10:28:30Z</time></trkpt><trkpt lat="44.17287007753876" lon="11.404840356175736"><ele>437.5</ele><time>2026-04-30T10:28:31Z</time></trkpt><trkpt lat="44.17278855572433" lon="11.405009988603302"><ele>438.75</ele><time>2026-04-30T10:28:32Z</time></trkpt><trkpt lat="44.172704739921095" lon="11.4051367861317"><ele>440.0</ele><time>2026-04-30T10:28:33Z</time></trkpt><trkpt lat="44.172594538640446" lon="11.405184453659169"><ele>440.0</ele><time>2026-04-30T10:28:34Z</time></trkpt><trkpt lat="44.172471483216114" lon="11.405210623526688"><ele>440.0</ele><time>2026-04-30T10:28:35Z</time></trkpt><trkpt lat="44.17235848559067" lon="11.405292271396693"><ele>440.0</ele><time>2026-04-30T10:28:36Z</time></trkpt><trkpt lat="44.17226271105046" lon="11.405400298298648"><ele>440.0</ele><time>2026-04-30T10:28:37Z</time></trkpt><trkpt lat="44.17215977130925" lon="11.405510653973396"><ele>442.5</ele><time>2026-04-30T10:28:38Z</time></trkpt><trkpt lat="44.172043367293966" lon="11.405613542948386"><ele>445.0</ele><time>2026-04-30T10:28:39Z</time></trkpt><trkpt lat="44.171927548103625" lon="11.405722789105564"><ele>447.5</ele><time>2026-04-30T10:28:40Z</time></trkpt><trkpt lat="44.17179976938111" lon="11.40578944005878"><ele>450.0</ele><time>2026-04-30T10:28:41Z</time></trkpt><trkpt lat="44.171696223429336" lon="11.405908615901506"><ele>450.0</ele><time>2026-04-30T10:28:42Z</time></trkpt><trkpt lat="44.17160782223509" lon="11.406038480653423"><ele>450.0</ele><time>2026-04-30T10:28:43Z</time></trkpt><trkpt lat="44.17155856633082" lon="11.406212476340505"><ele>450.0</ele><time>2026-04-30T10:28:44Z</time></trkpt><trkpt lat="44.17154847049522" lon="11.406406161151807"><ele>450.0</ele><time>2026-04-30T10:28:45Z</time></trkpt><trkpt lat="44.171577836749115" lon="11.40659892545219"><ele>449.75</ele><time>2026-04-30T10:28:46Z</time></trkpt><trkpt lat="44.17158739801846" lon="11.406785926822279"><ele>449.5</ele><time>2026-04-30T10:28:47Z</time></trkpt><trkpt lat="44.17160968088011" lon="11.40693861566491"><ele>449.25</ele><time>2026-04-30T10:28:48Z</time></trkpt><trkpt lat="44.171627245852825" lon="11.407081410059671"><ele>449.0</ele><time>2026-04-30T10:28:49Z</time></trkpt><trkpt lat="44.1716411875658" lon="11.407232967256396"><ele>450.0</ele><time>2026-04-30T10:28:50Z</time></trkpt><trkpt lat="44.17163606117765" lon="11.407384536886017"><ele>451.0</ele><time>2026-04-30T10:28:51Z</time></trkpt><trkpt lat="44.17160803298014" lon="11.407527815493424"><ele>452.0</ele><time>2026-04-30T10:28:52Z</time></trkpt><trkpt lat="44.17155610678638" lon="11.407658087968509"><ele>453.0</ele><time>2026-04-30T10:28:53Z</time></trkpt><trkpt lat="44.17148055065482" lon="11.407769622426152"><ele>454.0</ele><time>2026-04-30T10:28:54Z</time></trkpt><trkpt lat="44.17139016943283" lon="11.40786459875208"><ele>456.0</ele><time>2026-04-30T10:28:55Z</time></trkpt><trkpt lat="44.1712814751617" lon="11.407925585601877"><ele>458.0</ele><time>2026-04-30T10:28:56Z</time></trkpt><trkpt lat="44.171158290135594" lon="11.40797922596653"><ele>460.0</ele><time>2026-04-30T10:28:57Z</time></trkpt><trkpt lat="44.17103558773928" lon="11.408052045302492"><ele>462.0</ele><time>2026-04-30T10:28:58Z</time></trkpt><trkpt lat="44.17090768305304" lon="11.408108040095202"><ele>462.0</ele><time>2026-04-30T10:28:59Z</time></trkpt><trkpt lat="44.17078711219301" lon="11.40817536133023"><ele>462.0</ele><time>2026-04-30T10:29:00Z</time></trkpt><trkpt lat="44.17069047880463" lon="11.408255656707631"><ele>462.0</ele><time>2026-04-30T10:29:01Z</time></trkpt><trkpt lat="44.17061854046085" lon="11.408354215955523"><ele>462.0</ele><time>2026-04-30T10:29:02Z</time></trkpt><trkpt lat="44.17054213683557" lon="11.40846842336587"><ele>467.0</ele><time>2026-04-30T10:29:03Z</time></trkpt><trkpt lat="44.17048853936333" lon="11.408630433673387"><ele>472.0</ele><time>2026-04-30T10:29:04Z</time></trkpt><trkpt lat="44.17044553928151" lon="11.408807004923842"><ele>477.0</ele><time>2026-04-30T10:29:05Z</time></trkpt><trkpt lat="44.170407532295194" lon="11.408981362136661"><ele>482.0</ele><time>2026-04-30T10:29:06Z</time></trkpt><trkpt lat="44.17038089872708" lon="11.409149548579677"><ele>482.20000000000005</ele><time>2026-04-30T10:29:07Z</time></trkpt><trkpt lat="44.17036889692674" lon="11.409298794291502"><ele>482.40000000000003</ele><time>2026-04-30T10:29:08Z</time></trkpt><trkpt lat="44.17036253776214" lon="11.409425179046405"><ele>482.59999999999997</ele><time>2026-04-30T10:29:09Z</time></trkpt><trkpt lat="44.170357259555836" lon="11.409530151699885"><ele>482.79999999999995</ele><time>2026-04-30T10:29:10Z</time></trkpt><trkpt lat="44.170340882905776" lon="11.409671524907765"><ele>483.0</ele><time>2026-04-30T10:29:12Z</time></trkpt><trkpt lat="44.17031394746037" lon="11.409769999369075"><ele>483.0</ele><time>2026-04-30T10:29:14Z</time></trkpt><trkpt lat="44.17040937412991" lon="11.409920412508702"><ele>482.99999999999994</ele><time>2026-04-30T10:29:16Z</time></trkpt><trkpt lat="44.17052605698748" lon="11.409924132519825"><ele>482.99999999999994</ele><time>2026-04-30T10:29:18Z</time></trkpt><trkpt lat="44.170621552628134" lon="11.409947769992227"><ele>483.0</ele><time>2026-04-30T10:29:20Z</time></trkpt><trkpt lat="44.17068377873168" lon="11.409984344975433"><ele>483.0</ele><time>2026-04-30T10:29:22Z</time></trkpt><trkpt lat="44.17070022980305" lon="11.41007220109888"><ele>460.0</ele><time>2026-04-30T10:29:26Z</time></trkpt><trkpt lat="44.17130895022386" lon="11.410044205755707"><ele>460.00000000000006</ele><time>2026-04-30T10:29:48Z</time></trkpt><trkpt lat="44.17137805377499" lon="11.410092691289"><ele>460.0</ele><time>2026-04-30T10:29:49Z</time></trkpt><trkpt lat="44.17143993785632" lon="11.41016449712818"><ele>460.0</ele><time>2026-04-30T10:29:50Z</time></trkpt><trkpt lat="44.17149123960293" lon="11.410262033397357"><ele>460.0</ele><time>2026-04-30T10:29:51Z</time></trkpt><trkpt lat="44.17153749591034" lon="11.410365823263865"><ele>460.00000000000006</ele><time>2026-04-30T10:29:52Z</time></trkpt><trkpt lat="44.171572733473646" lon="11.41045611252585"><ele>460.0</ele><time>2026-04-30T10:29:53Z</time></trkpt><trkpt lat="44.17159618000624" lon="11.410538042865157"><ele>457.4</ele><time>2026-04-30T10:29:54Z</time></trkpt><trkpt lat="44.171590641917234" lon="11.410697835410318"><ele>454.8</ele><time>2026-04-30T10:29:56Z</time></trkpt><trkpt lat="44.17154796169746" lon="11.41078285988501"><ele>452.20000000000005</ele><time>2026-04-30T10:29:57Z</time></trkpt><trkpt lat="44.17149081981996" lon="11.410869418831439"><ele>449.6</ele><time>2026-04-30T10:29:58Z</time></trkpt><trkpt lat="44.17143478747761" lon="11.410974902875706"><ele>447.0</ele><time>2026-04-30T10:29:59Z</time></trkpt><trkpt lat="44.17139560166405" lon="11.411093712107332"><ele>447.0</ele><time>2026-04-30T10:30:00Z</time></trkpt><trkpt lat="44.171376300103596" lon="11.411221833662465"><ele>447.00000000000006</ele><time>2026-04-30T10:30:01Z</time></trkpt><trkpt lat="44.171369434040216" lon="11.411356349880583"><ele>447.00000000000006</ele><time>2026-04-30T10:30:02Z</time></trkpt><trkpt lat="44.17137382660004" lon="11.41150012174026"><ele>447.0</ele><time>2026-04-30T10:30:03Z</time></trkpt><trkpt lat="44.17138717042331" lon="11.411651576154508"><ele>447.0</ele><time>2026-04-30T10:30:04Z</time></trkpt><trkpt lat="44.1714000080069" lon="11.4118029925204"><ele>443.8333333333333</ele><time>2026-04-30T10:30:05Z</time></trkpt><trkpt lat="44.17141575480355" lon="11.411942701622603"><ele>440.66666666666663</ele><time>2026-04-30T10:30:06Z</time></trkpt><trkpt lat="44.17143325715937" lon="11.41205378528774"><ele>437.5</ele><time>2026-04-30T10:30:07Z</time></trkpt><trkpt lat="44.17143799532257" lon="11.412160092032293"><ele>434.3333333333333</ele><time>2026-04-30T10:30:08Z</time></trkpt><trkpt lat="44.171449913883826" lon="11.412263052119906"><ele>431.16666666666663</ele><time>2026-04-30T10:30:09Z</time></trkpt><trkpt lat="44.1714687834108" lon="11.4123590732474"><ele>428.0</ele><time>2026-04-30T10:30:10Z</time></trkpt><trkpt lat="44.17148517141117" lon="11.412445511605096"><ele>425.59999999999997</ele><time>2026-04-30T10:30:11Z</time></trkpt><trkpt lat="44.1714618625701" lon="11.412573719578903"><ele>423.19999999999993</ele><time>2026-04-30T10:30:13Z</time></trkpt><trkpt lat="44.17135696522508" lon="11.41265893251605"><ele>420.8</ele><time>2026-04-30T10:30:15Z</time></trkpt><trkpt lat="44.17127764242781" lon="11.41267876373575"><ele>418.4</ele><time>2026-04-30T10:30:16Z</time></trkpt><trkpt lat="44.17121796294503" lon="11.412740019203135"><ele>416.0</ele><time>2026-04-30T10:30:17Z</time></trkpt><trkpt lat="44.17118731932403" lon="11.412866385796226"><ele>413.8</ele><time>2026-04-30T10:30:19Z</time></trkpt><trkpt lat="44.171260881857" lon="11.413021474335437"><ele>411.6</ele><time>2026-04-30T10:30:21Z</time></trkpt><trkpt lat="44.1713099439782" lon="11.41310604723415"><ele>409.4</ele><time>2026-04-30T10:30:22Z</time></trkpt><trkpt lat="44.17136647832647" lon="11.413201948171814"><ele>407.2</ele><time>2026-04-30T10:30:23Z</time></trkpt><trkpt lat="44.1714326331841" lon="11.413308402521453"><ele>405.0</ele><time>2026-04-30T10:30:24Z</time></trkpt><trkpt lat="44.17151945858132" lon="11.413382974303092"><ele>405.8</ele><time>2026-04-30T10:30:25Z</time></trkpt><trkpt lat="44.17158784393761" lon="11.41350237470162"><ele>406.6</ele><time>2026-04-30T10:30:26Z</time></trkpt><trkpt lat="44.17165327078273" lon="11.413615824305406"><ele>407.4</ele><time>2026-04-30T10:30:27Z</time></trkpt><trkpt lat="44.1717149671894" lon="11.413712762173938"><ele>408.2</ele><time>2026-04-30T10:30:28Z</time></trkpt><trkpt lat="44.171768161968174" lon="11.413802812772452"><ele>409.0</ele><time>2026-04-30T10:30:29Z</time></trkpt><trkpt lat="44.171812254159086" lon="11.413897341086416"><ele>409.5</ele><time>2026-04-30T10:30:30Z</time></trkpt><trkpt lat="44.17182911381009" lon="11.41402092399401"><ele>410.0</ele><time>2026-04-30T10:30:31Z</time></trkpt><trkpt lat="44.17180625304102" lon="11.414178669307491"><ele>410.5</ele><time>2026-04-30T10:30:32Z</time></trkpt><trkpt lat="44.171775149444564" lon="11.414355575119911"><ele>411.0</ele><time>2026-04-30T10:30:33Z</time></trkpt><trkpt lat="44.17174931049616" lon="11.414533384392932"><ele>411.25</ele><time>2026-04-30T10:30:34Z</time></trkpt><trkpt lat="44.17172406446353" lon="11.414713887273015"><ele>411.5</ele><time>2026-04-30T10:30:35Z</time></trkpt><trkpt lat="44.17169366747251" lon="11.414885493082934"><ele>411.75</ele><time>2026-04-30T10:30:36Z</time></trkpt><trkpt lat="44.171623095056226" lon="11.415007454170604"><ele>412.0</ele><time>2026-04-30T10:30:37Z</time></trkpt><trkpt lat="44.17158172001555" lon="11.4151044452816"><ele>412.1666666666667</ele><time>2026-04-30T10:30:38Z</time></trkpt><trkpt lat="44.1714944332359" lon="11.415190596411843"><ele>412.33333333333337</ele><time>2026-04-30T10:30:40Z</time></trkpt><trkpt lat="44.17143756027822" lon="11.41526368079274"><ele>412.5</ele><time>2026-04-30T10:30:46Z</time></trkpt><trkpt lat="44.1714259251371" lon="11.415351941407199"><ele>412.66666666666663</ele><time>2026-04-30T10:30:48Z</time></trkpt><trkpt lat="44.17141081410109" lon="11.415473626735473"><ele>412.8333333333333</ele><time>2026-04-30T10:30:50Z</time></trkpt><trkpt lat="44.171364377380776" lon="11.415546653384302"><ele>413.0</ele><time>2026-04-30T10:30:52Z</time></trkpt><trkpt lat="44.171358014134995" lon="11.415649888784273"><ele>413.0</ele><time>2026-04-30T10:30:54Z</time></trkpt><trkpt lat="44.17137418383672" lon="11.415740786199535"><ele>413.0</ele><time>2026-04-30T10:30:56Z</time></trkpt><trkpt lat="44.17139081114153" lon="11.41582841573904"><ele>413.0</ele><time>2026-04-30T10:30:58Z</time></trkpt><trkpt lat="44.1714135499464" lon="11.415925627471267"><ele>413.0</ele><time>2026-04-30T10:31:01Z</time></trkpt><trkpt lat="44.17142467011288" lon="11.416037026080629"><ele>413.0</ele><time>2026-04-30T10:31:16Z</time></trkpt><trkpt lat="44.17146225305425" lon="11.416138589678814"><ele>413.0</ele><time>2026-04-30T10:31:19Z</time></trkpt><trkpt lat="44.17149849317965" lon="11.416236132601762"><ele>413.0</ele><time>2026-04-30T10:31:21Z</time></trkpt><trkpt lat="44.17153168958046" lon="11.416339561772848"><ele>415.0</ele><time>2026-04-30T10:31:23Z</time></trkpt><trkpt lat="44.17152516071832" lon="11.416503109661186"><ele>417.0</ele><time>2026-04-30T10:31:25Z</time></trkpt><trkpt lat="44.17150488810908" lon="11.416655608747082"><ele>419.0</ele><time>2026-04-30T10:31:27Z</time></trkpt><trkpt lat="44.171506187112044" lon="11.416804481204563"><ele>421.0</ele><time>2026-04-30T10:31:29Z</time></trkpt><trkpt lat="44.17151894659941" lon="11.416952960458815"><ele>423.0</ele><time>2026-04-30T10:31:31Z</time></trkpt><trkpt lat="44.171556972785424" lon="11.41708341367058"><ele>426.59999999999997</ele><time>2026-04-30T10:31:33Z</time></trkpt><trkpt lat="44.17158519255935" lon="11.417241161674507"><ele>430.2</ele><time>2026-04-30T10:31:35Z</time></trkpt><trkpt lat="44.17157607344462" lon="11.417394819232445"><ele>433.8</ele><time>2026-04-30T10:31:37Z</time></trkpt><trkpt lat="44.171613061969" lon="11.417503395635473"><ele>437.4</ele><time>2026-04-30T10:31:39Z</time></trkpt><trkpt lat="44.171713383655174" lon="11.417545402412948"><ele>441.0</ele><time>2026-04-30T10:31:41Z</time></trkpt><trkpt lat="44.17177202584158" lon="11.417613185019485"><ele>441.0</ele><time>2026-04-30T10:31:43Z</time></trkpt><trkpt lat="44.1718064348813" lon="11.417762727715944"><ele>441.0</ele><time>2026-04-30T10:31:45Z</time></trkpt><trkpt lat="44.17187314892899" lon="11.417850402380449"><ele>441.0</ele><time>2026-04-30T10:31:47Z</time></trkpt><trkpt lat="44.17194086558233" lon="11.417927937007036"><ele>441.0</ele><time>2026-04-30T10:31:49Z</time></trkpt><trkpt lat="44.1719802098549" lon="11.41805111710382"><ele>441.0</ele><time>2026-04-30T10:31:51Z</time></trkpt><trkpt lat="44.17195454362943" lon="11.418139478445097"><ele>442.8333333333333</ele><time>2026-04-30T10:31:52Z</time></trkpt><trkpt lat="44.17193416725468" lon="11.418224766718836"><ele>444.66666666666663</ele><time>2026-04-30T10:31:53Z</time></trkpt><trkpt lat="44.17191157993419" lon="11.418326035708615"><ele>446.5</ele><time>2026-04-30T10:31:54Z</time></trkpt><trkpt lat="44.17188611709271" lon="11.41842710322607"><ele>448.3333333333333</ele><time>2026-04-30T10:31:55Z</time></trkpt><trkpt lat="44.17185540746223" lon="11.41853295705419"><ele>450.16666666666663</ele><time>2026-04-30T10:31:56Z</time></trkpt><trkpt lat="44.17182562249566" lon="11.418660265496463"><ele>452.0</ele><time>2026-04-30T10:31:57Z</time></trkpt><trkpt lat="44.1718106972862" lon="11.41875182773393"><ele>453.0</ele><time>2026-04-30T10:31:58Z</time></trkpt><trkpt lat="44.171823643991154" lon="11.418869471352611"><ele>454.00000000000006</ele><time>2026-04-30T10:31:59Z</time></trkpt><trkpt lat="44.17184077002822" lon="11.418967184881899"><ele>455.00000000000006</ele><time>2026-04-30T10:32:00Z</time></trkpt><trkpt lat="44.17186708552709" lon="11.419070308063652"><ele>456.0</ele><time>2026-04-30T10:32:02Z</time></trkpt><trkpt lat="44.171810361327864" lon="11.419211270979169"><ele>457.0</ele><time>2026-04-30T10:32:04Z</time></trkpt><trkpt lat="44.171835746407226" lon="11.419349666275904"><ele>457.00000000000006</ele><time>2026-04-30T10:32:06Z</time></trkpt><trkpt lat="44.17184424441249" lon="11.419459700980648"><ele>457.0</ele><time>2026-04-30T10:32:07Z</time></trkpt><trkpt lat="44.171861850456295" lon="11.419590762223503"><ele>457.0</ele><time>2026-04-30T10:32:08Z</time></trkpt><trkpt lat="44.171887194109374" lon="11.419689768489011"><ele>457.0</ele><time>2026-04-30T10:32:09Z</time></trkpt><trkpt lat="44.171955714888206" lon="11.419768978929406"><ele>457.00000000000006</ele><time>2026-04-30T10:32:10Z</time></trkpt><trkpt lat="44.17196492474972" lon="11.419879287756117"><ele>457.0</ele><time>2026-04-30T10:32:11Z</time></trkpt><trkpt lat="44.171943809740156" lon="11.41999813687543"><ele>458.50000000000006</ele><time>2026-04-30T10:32:12Z</time></trkpt><trkpt lat="44.17191198249096" lon="11.420096331581677"><ele>460.0</ele><time>2026-04-30T10:32:13Z</time></trkpt><trkpt lat="44.171894382482584" lon="11.420202481050778"><ele>461.5</ele><time>2026-04-30T10:32:15Z</time></trkpt><trkpt lat="44.17196991215426" lon="11.420237393343847"><ele>463.0</ele><time>2026-04-30T10:32:17Z</time></trkpt><trkpt lat="44.17204232027985" lon="11.420244852313278"><ele>464.50000000000006</ele><time>2026-04-30T10:32:18Z</time></trkpt><trkpt lat="44.17211608017824" lon="11.420297226575629"><ele>466.0</ele><time>2026-04-30T10:32:19Z</time></trkpt><trkpt lat="44.172189265119485" lon="11.420396157204095"><ele>468.4</ele><time>2026-04-30T10:32:20Z</time></trkpt><trkpt lat="44.17226513511643" lon="11.420509231280406"><ele>470.8</ele><time>2026-04-30T10:32:21Z</time></trkpt><trkpt lat="44.17235492501947" lon="11.420618246055831"><ele>473.19999999999993</ele><time>2026-04-30T10:32:22Z</time></trkpt><trkpt lat="44.172450814586966" lon="11.42070719445058"><ele>475.59999999999997</ele><time>2026-04-30T10:32:23Z</time></trkpt><trkpt lat="44.172535706275156" lon="11.420761392021365"><ele>478.0</ele><time>2026-04-30T10:32:24Z</time></trkpt><trkpt lat="44.172593413472185" lon="11.42080083189252"><ele>478.00000000000006</ele><time>2026-04-30T10:32:25Z</time></trkpt><trkpt lat="44.17266040103423" lon="11.420912202417943"><ele>478.0</ele><time>2026-04-30T10:32:27Z</time></trkpt><trkpt lat="44.172623146353835" lon="11.421064932482446"><ele>478.0</ele><time>2026-04-30T10:32:29Z</time></trkpt><trkpt lat="44.17256082280783" lon="11.42107930804853"><ele>478.0</ele><time>2026-04-30T10:32:30Z</time></trkpt><trkpt lat="44.172490336140314" lon="11.421063088110778"><ele>478.00000000000006</ele><time>2026-04-30T10:32:31Z</time></trkpt><trkpt lat="44.172419307457155" lon="11.421028576078854"><ele>478.0</ele><time>2026-04-30T10:32:32Z</time></trkpt><trkpt lat="44.172346723585605" lon="11.420981186748737"><ele>478.0</ele><time>2026-04-30T10:32:33Z</time></trkpt><trkpt lat="44.17227744369698" lon="11.420962041855315"><ele>477.99999999999994</ele><time>2026-04-30T10:32:34Z</time></trkpt><trkpt lat="44.17219504435" lon="11.421023474685445"><ele>477.99999999999994</ele><time>2026-04-30T10:32:35Z</time></trkpt><trkpt lat="44.1721351581456" lon="11.421132681696148"><ele>478.0</ele><time>2026-04-30T10:32:36Z</time></trkpt><trkpt lat="44.17209643903341" lon="11.42128157746264"><ele>478.0</ele><time>2026-04-30T10:32:37Z</time></trkpt><trkpt lat="44.17207912076799" lon="11.421459406764189"><ele>480.0</ele><time>2026-04-30T10:32:38Z</time></trkpt><trkpt lat="44.172076410051645" lon="11.421646792102596"><ele>482.0</ele><time>2026-04-30T10:32:39Z</time></trkpt><trkpt lat="44.17209944295292" lon="11.42185112379754"><ele>484.0</ele><time>2026-04-30T10:32:40Z</time></trkpt><trkpt lat="44.17212017698349" lon="11.42202651703213"><ele>486.0</ele><time>2026-04-30T10:32:41Z</time></trkpt><trkpt lat="44.17214567314508" lon="11.422185411802106"><ele>486.5</ele><time>2026-04-30T10:32:42Z</time></trkpt><trkpt lat="44.17214171544884" lon="11.422371477289726"><ele>487.0</ele><time>2026-04-30T10:32:43Z</time></trkpt><trkpt lat="44.17217666623496" lon="11.422567689367577"><ele>487.5</ele><time>2026-04-30T10:32:44Z</time></trkpt><trkpt lat="44.17220870288158" lon="11.422757438652605"><ele>488.0</ele><time>2026-04-30T10:32:45Z</time></trkpt><trkpt lat="44.17223434910321" lon="11.422924015836388"><ele>489.16666666666663</ele><time>2026-04-30T10:32:46Z</time></trkpt><trkpt lat="44.172255115654124" lon="11.423072683071085"><ele>490.3333333333333</ele><time>2026-04-30T10:32:47Z</time></trkpt><trkpt lat="44.17227348672865" lon="11.423204273128148"><ele>491.5</ele><time>2026-04-30T10:32:48Z</time></trkpt><trkpt lat="44.172293122384964" lon="11.423331820676465"><ele>492.66666666666663</ele><time>2026-04-30T10:32:49Z</time></trkpt><trkpt lat="44.17230753138991" lon="11.423421942978814"><ele>493.8333333333333</ele><time>2026-04-30T10:32:50Z</time></trkpt><trkpt lat="44.17232318459492" lon="11.423519847222634"><ele>495.0</ele><time>2026-04-30T10:32:51Z</time></trkpt><trkpt lat="44.172335813666166" lon="11.423608443985762"><ele>494.99999999999994</ele><time>2026-04-30T10:32:52Z</time></trkpt><trkpt lat="44.172347137611325" lon="11.42369863175153"><ele>495.0</ele><time>2026-04-30T10:32:53Z</time></trkpt><trkpt lat="44.17235431628232" lon="11.423787152128765"><ele>494.99999999999994</ele><time>2026-04-30T10:32:54Z</time></trkpt><trkpt lat="44.17235414753607" lon="11.423876853289098"><ele>494.99999999999994</ele><time>2026-04-30T10:32:55Z</time></trkpt><trkpt lat="44.17233574991151" lon="11.423966231996197"><ele>495.0</ele><time>2026-04-30T10:32:56Z</time></trkpt><trkpt lat="44.172312439773464" lon="11.424052475431468"><ele>494.99999999999994</ele><time>2026-04-30T10:32:57Z</time></trkpt><trkpt lat="44.17228140580473" lon="11.424155035650111"><ele>494.99999999999994</ele><time>2026-04-30T10:32:58Z</time></trkpt><trkpt lat="44.17225177504024" lon="11.424249854055734"><ele>497.2</ele><time>2026-04-30T10:32:59Z</time></trkpt><trkpt lat="44.172209720869525" lon="11.42441926612942"><ele>499.4</ele><time>2026-04-30T10:33:01Z</time></trkpt><trkpt lat="44.17219395610767" lon="11.424511903890673"><ele>501.6</ele><time>2026-04-30T10:33:02Z</time></trkpt><trkpt lat="44.17217697602433" lon="11.42459874558833"><ele>503.8</ele><time>2026-04-30T10:33:03Z</time></trkpt><trkpt lat="44.17209684224982" lon="11.42474108648602"><ele>506.0</ele><time>2026-04-30T10:33:05Z</time></trkpt><trkpt lat="44.17204480917057" lon="11.424814174701895"><ele>507.99999999999994</ele><time>2026-04-30T10:33:06Z</time></trkpt><trkpt lat="44.17199788353221" lon="11.424899829225472"><ele>510.0</ele><time>2026-04-30T10:33:07Z</time></trkpt><trkpt lat="44.17194031762068" lon="11.424969537001159"><ele>512.0</ele><time>2026-04-30T10:33:08Z</time></trkpt><trkpt lat="44.1718897606831" lon="11.425034041232085"><ele>514.0</ele><time>2026-04-30T10:33:09Z</time></trkpt><trkpt lat="44.17184051193665" lon="11.425100294677003"><ele>516.0</ele><time>2026-04-30T10:33:10Z</time></trkpt><trkpt lat="44.17175567292462" lon="11.425210502395236"><ele>518.0</ele><time>2026-04-30T10:33:12Z</time></trkpt><trkpt lat="44.17171286511654" lon="11.425325484357387"><ele>518.0</ele><time>2026-04-30T10:33:14Z</time></trkpt><trkpt lat="44.17184599224678" lon="11.42545637880834"><ele>518.0</ele><time>2026-04-30T10:33:15Z</time></trkpt><trkpt lat="44.17192939308295" lon="11.425570939289187"><ele>518.0</ele><time>2026-04-30T10:33:17Z</time></trkpt><trkpt lat="44.171966674737355" lon="11.425655088844211"><ele>518.0</ele><time>2026-04-30T10:33:18Z</time></trkpt><trkpt lat="44.17200321675446" lon="11.425759841191528"><ele>518.0</ele><time>2026-04-30T10:33:19Z</time></trkpt><trkpt lat="44.17204253075806" lon="11.425892742638858"><ele>520.8</ele><time>2026-04-30T10:33:20Z</time></trkpt><trkpt lat="44.17206103009345" lon="11.426037252603264"><ele>523.5999999999999</ele><time>2026-04-30T10:33:21Z</time></trkpt><trkpt lat="44.1720577510492" lon="11.426189861342754"><ele>526.4000000000001</ele><time>2026-04-30T10:33:22Z</time></trkpt><trkpt lat="44.17205180997414" lon="11.426320487007581"><ele>529.2</ele><time>2026-04-30T10:33:23Z</time></trkpt><trkpt lat="44.172039030637144" lon="11.42643322429973"><ele>532.0</ele><time>2026-04-30T10:33:24Z</time></trkpt><trkpt lat="44.172020883188075" lon="11.426538462359204"><ele>532.0</ele><time>2026-04-30T10:33:25Z</time></trkpt><trkpt lat="44.17194506082621" lon="11.426587593244383"><ele>532.0</ele><time>2026-04-30T10:33:28Z</time></trkpt><trkpt lat="44.17191211997188" lon="11.426382234586999"><ele>532.0</ele><time>2026-04-30T10:33:30Z</time></trkpt><trkpt lat="44.17189835943884" lon="11.426284583421651"><ele>532.0</ele><time>2026-04-30T10:33:31Z</time></trkpt><trkpt lat="44.17178711702915" lon="11.426276611909984"><ele>532.0</ele><time>2026-04-30T10:33:33Z</time></trkpt><trkpt lat="44.171735107891415" lon="11.426346773029202"><ele>534.5</ele><time>2026-04-30T10:33:34Z</time></trkpt><trkpt lat="44.17172596206909" lon="11.42649140610271"><ele>537.0</ele><time>2026-04-30T10:33:35Z</time></trkpt><trkpt lat="44.17173044370494" lon="11.426645970216846"><ele>539.5</ele><time>2026-04-30T10:33:36Z</time></trkpt><trkpt lat="44.17173951061327" lon="11.426803684374834"><ele>542.0</ele><time>2026-04-30T10:33:37Z</time></trkpt><trkpt lat="44.17176733448464" lon="11.426975614616921"><ele>542.0</ele><time>2026-04-30T10:33:38Z</time></trkpt><trkpt lat="44.171834462051315" lon="11.427116369177481"><ele>542.0</ele><time>2026-04-30T10:33:39Z</time></trkpt><trkpt lat="44.17186769844742" lon="11.42721419456542"><ele>542.0</ele><time>2026-04-30T10:33:40Z</time></trkpt><trkpt lat="44.17188621735172" lon="11.427318745556711"><ele>542.0</ele><time>2026-04-30T10:33:41Z</time></trkpt><trkpt lat="44.1718685124394" lon="11.427416746354046"><ele>542.0</ele><time>2026-04-30T10:33:42Z</time></trkpt><trkpt lat="44.17183686122398" lon="11.42753038550479"><ele>542.0</ele><time>2026-04-30T10:33:43Z</time></trkpt><trkpt lat="44.1718010700364" lon="11.427653691191736"><ele>544.0</ele><time>2026-04-30T10:33:44Z</time></trkpt><trkpt lat="44.17176927957388" lon="11.427778444809723"><ele>546.0</ele><time>2026-04-30T10:33:45Z</time></trkpt><trkpt lat="44.17172919390979" lon="11.427885516337312"><ele>548.0</ele><time>2026-04-30T10:33:46Z</time></trkpt><trkpt lat="44.17169501085282" lon="11.427990418681317"><ele>550.0</ele><time>2026-04-30T10:33:47Z</time></trkpt><trkpt lat="44.17164966395577" lon="11.428085321049418"><ele>552.0</ele><time>2026-04-30T10:33:48Z</time></trkpt><trkpt lat="44.17159868731214" lon="11.428140793210014"><ele>554.0</ele><time>2026-04-30T10:33:49Z</time></trkpt><trkpt lat="44.17147993969544" lon="11.428179776574888"><ele>556.8</ele><time>2026-04-30T10:33:51Z</time></trkpt><trkpt lat="44.17138362672262" lon="11.428281746885562"><ele>559.5999999999999</ele><time>2026-04-30T10:33:53Z</time></trkpt><trkpt lat="44.17127961852803" lon="11.428353579354928"><ele>562.4</ele><time>2026-04-30T10:33:55Z</time></trkpt><trkpt lat="44.17119296542951" lon="11.428373838334755"><ele>565.1999999999999</ele><time>2026-04-30T10:33:56Z</time></trkpt><trkpt lat="44.1711066016653" lon="11.428360921519378"><ele>568.0</ele><time>2026-04-30T10:33:57Z</time></trkpt><trkpt lat="44.17102136686368" lon="11.4283423777761"><ele>568.0</ele><time>2026-04-30T10:33:58Z</time></trkpt><trkpt lat="44.170927355326036" lon="11.428372210808401"><ele>568.0</ele><time>2026-04-30T10:33:59Z</time></trkpt><trkpt lat="44.17084897831385" lon="11.42841859578091"><ele>568.0</ele><time>2026-04-30T10:34:00Z</time></trkpt><trkpt lat="44.17078758960872" lon="11.42846852457936"><ele>568.0</ele><time>2026-04-30T10:34:01Z</time></trkpt><trkpt lat="44.17071536108817" lon="11.428533154498702"><ele>568.0</ele><time>2026-04-30T10:34:02Z</time></trkpt><trkpt lat="44.17061856671102" lon="11.428576838220978"><ele>568.0</ele><time>2026-04-30T10:34:03Z</time></trkpt><trkpt lat="44.170516244348526" lon="11.428615364728335"><ele>568.1999999999999</ele><time>2026-04-30T10:34:04Z</time></trkpt><trkpt lat="44.17044457434975" lon="11.428685368280757"><ele>568.4</ele><time>2026-04-30T10:34:05Z</time></trkpt><trkpt lat="44.17039611029384" lon="11.428770773878668"><ele>568.5999999999999</ele><time>2026-04-30T10:34:06Z</time></trkpt><trkpt lat="44.17034721982354" lon="11.428885690924544"><ele>568.8</ele><time>2026-04-30T10:34:07Z</time></trkpt><trkpt lat="44.17029922933595" lon="11.429016389530712"><ele>569.0</ele><time>2026-04-30T10:34:08Z</time></trkpt><trkpt lat="44.170265735298635" lon="11.429164073048886"><ele>570.75</ele><time>2026-04-30T10:34:09Z</time></trkpt><trkpt lat="44.17024127062363" lon="11.429314970587251"><ele>572.5</ele><time>2026-04-30T10:34:10Z</time></trkpt><trkpt lat="44.17019652777822" lon="11.429456057821469"><ele>574.25</ele><time>2026-04-30T10:34:11Z</time></trkpt><trkpt lat="44.17013083546856" lon="11.429596322858723"><ele>576.0</ele><time>2026-04-30T10:34:12Z</time></trkpt><trkpt lat="44.170082465913225" lon="11.42973914044188"><ele>578.75</ele><time>2026-04-30T10:34:13Z</time></trkpt><trkpt lat="44.170036448459456" lon="11.42989958772296"><ele>581.5</ele><time>2026-04-30T10:34:14Z</time></trkpt><trkpt lat="44.16997386932975" lon="11.430031860845006"><ele>584.25</ele><time>2026-04-30T10:34:15Z</time></trkpt><trkpt lat="44.16990686498394" lon="11.430173053152478"><ele>587.0</ele><time>2026-04-30T10:34:16Z</time></trkpt><trkpt lat="44.16984214961313" lon="11.4303165326233"><ele>588.6</ele><time>2026-04-30T10:34:17Z</time></trkpt><trkpt lat="44.16979389440149" lon="11.430446624422625"><ele>590.2</ele><time>2026-04-30T10:34:18Z</time></trkpt><trkpt lat="44.169771122050975" lon="11.430578073347347"><ele>591.8</ele><time>2026-04-30T10:34:19Z</time></trkpt><trkpt lat="44.16976728086369" lon="11.430704419841566"><ele>593.4</ele><time>2026-04-30T10:34:20Z</time></trkpt><trkpt lat="44.1698207290486" lon="11.4308432526924"><ele>595.0</ele><time>2026-04-30T10:34:21Z</time></trkpt><trkpt lat="44.169853111084194" lon="11.430993530148472"><ele>597.0</ele><time>2026-04-30T10:34:22Z</time></trkpt><trkpt lat="44.16984538268473" lon="11.431121059970778"><ele>599.0</ele><time>2026-04-30T10:34:23Z</time></trkpt><trkpt lat="44.16980017061406" lon="11.431232212194208"><ele>601.0</ele><time>2026-04-30T10:34:24Z</time></trkpt><trkpt lat="44.16973795228248" lon="11.431299004898314"><ele>603.0</ele><time>2026-04-30T10:34:25Z</time></trkpt><trkpt lat="44.16965092654863" lon="11.431312797017062"><ele>605.0</ele><time>2026-04-30T10:34:26Z</time></trkpt><trkpt lat="44.16954207213611" lon="11.431325011994636"><ele>606.25</ele><time>2026-04-30T10:34:27Z</time></trkpt><trkpt lat="44.169414937367534" lon="11.431338860101253"><ele>607.5</ele><time>2026-04-30T10:34:28Z</time></trkpt><trkpt lat="44.16926983706706" lon="11.431375257970485"><ele>608.75</ele><time>2026-04-30T10:34:29Z</time></trkpt><trkpt lat="44.169122764238324" lon="11.431412879500455"><ele>610.0</ele><time>2026-04-30T10:34:30Z</time></trkpt><trkpt lat="44.16901633996913" lon="11.431418551349953"><ele>613.2</ele><time>2026-04-30T10:34:31Z</time></trkpt><trkpt lat="44.16892511239224" lon="11.431432155423659"><ele>616.4</ele><time>2026-04-30T10:34:32Z</time></trkpt><trkpt lat="44.168842470180834" lon="11.431475104864456"><ele>619.6</ele><time>2026-04-30T10:34:33Z</time></trkpt><trkpt lat="44.1687491955766" lon="11.431532653109429"><ele>622.8</ele><time>2026-04-30T10:34:34Z</time></trkpt><trkpt lat="44.16866265060447" lon="11.431586076130488"><ele>626.0</ele><time>2026-04-30T10:34:35Z</time></trkpt><trkpt lat="44.16857589395049" lon="11.431615571838446"><ele>626.0</ele><time>2026-04-30T10:34:36Z</time></trkpt><trkpt lat="44.16851244817874" lon="11.431722006058028"><ele>626.0</ele><time>2026-04-30T10:34:37Z</time></trkpt><trkpt lat="44.168478171284775" lon="11.431857219196548"><ele>626.0</ele><time>2026-04-30T10:34:38Z</time></trkpt><trkpt lat="44.16842931574304" lon="11.431935757272147"><ele>626.0</ele><time>2026-04-30T10:34:39Z</time></trkpt><trkpt lat="44.16836041202924" lon="11.432070237586325"><ele>626.0</ele><time>2026-04-30T10:34:41Z</time></trkpt><trkpt lat="44.168310887859775" lon="11.432181194440956"><ele>626.4</ele><time>2026-04-30T10:34:42Z</time></trkpt><trkpt lat="44.16824561120315" lon="11.432303103545214"><ele>626.8</ele><time>2026-04-30T10:34:43Z</time></trkpt><trkpt lat="44.16819969609451" lon="11.432401723011752"><ele>627.1999999999999</ele><time>2026-04-30T10:34:44Z</time></trkpt><trkpt lat="44.16813543586113" lon="11.432530469266114"><ele>627.6</ele><time>2026-04-30T10:34:46Z</time></trkpt><trkpt lat="44.168143647285625" lon="11.432692579884002"><ele>628.0</ele><time>2026-04-30T10:34:48Z</time></trkpt><trkpt lat="44.16812859167361" lon="11.43286135093129"><ele>632.0</ele><time>2026-04-30T10:34:50Z</time></trkpt><trkpt lat="44.168095497534" lon="11.432949872252971"><ele>636.0</ele><time>2026-04-30T10:34:51Z</time></trkpt><trkpt lat="44.168047704811926" lon="11.433036895763086"><ele>640.0</ele><time>2026-04-30T10:34:52Z</time></trkpt><trkpt lat="44.16796129792461" lon="11.433116941056507"><ele>644.0</ele><time>2026-04-30T10:34:53Z</time></trkpt><trkpt lat="44.16788650182048" lon="11.43325962552281"><ele>648.0</ele><time>2026-04-30T10:34:54Z</time></trkpt><trkpt lat="44.167850211395276" lon="11.433376366588238"><ele>648.0</ele><time>2026-04-30T10:34:55Z</time></trkpt><trkpt lat="44.16780792102997" lon="11.433470554429329"><ele>648.0</ele><time>2026-04-30T10:34:56Z</time></trkpt><trkpt lat="44.16774611021168" lon="11.433513040609446"><ele>648.0</ele><time>2026-04-30T10:34:57Z</time></trkpt><trkpt lat="44.16765248032889" lon="11.43350762116494"><ele>648.0</ele><time>2026-04-30T10:34:58Z</time></trkpt><trkpt lat="44.167554732275974" lon="11.433491703587222"><ele>648.0</ele><time>2026-04-30T10:34:59Z</time></trkpt><trkpt lat="44.16748849245358" lon="11.433560294228894"><ele>648.0</ele><time>2026-04-30T10:35:00Z</time></trkpt><trkpt lat="44.16746683422188" lon="11.433687371624696"><ele>648.4</ele><time>2026-04-30T10:35:01Z</time></trkpt><trkpt lat="44.16745348873868" lon="11.433822272060963"><ele>648.8</ele><time>2026-04-30T10:35:02Z</time></trkpt><trkpt lat="44.16742057700545" lon="11.433975862240299"><ele>649.2</ele><time>2026-04-30T10:35:03Z</time></trkpt><trkpt lat="44.167383665846955" lon="11.434112364231135"><ele>649.6</ele><time>2026-04-30T10:35:04Z</time></trkpt><trkpt lat="44.16734994746514" lon="11.434210371102706"><ele>650.0</ele><time>2026-04-30T10:35:05Z</time></trkpt><trkpt lat="44.167288048043666" lon="11.434284250951295"><ele>654.4</ele><time>2026-04-30T10:35:07Z</time></trkpt><trkpt lat="44.16726940152645" lon="11.434368125367806"><ele>658.8</ele><time>2026-04-30T10:35:09Z</time></trkpt><trkpt lat="44.167270024885454" lon="11.4345235478507"><ele>663.2</ele><time>2026-04-30T10:35:11Z</time></trkpt><trkpt lat="44.1672248585117" lon="11.434689823182543"><ele>667.6</ele><time>2026-04-30T10:35:13Z</time></trkpt><trkpt lat="44.167199309933366" lon="11.434784723164187"><ele>672.0</ele><time>2026-04-30T10:35:14Z</time></trkpt><trkpt lat="44.16716311055887" lon="11.434887971789713"><ele>673.4000000000001</ele><time>2026-04-30T10:35:15Z</time></trkpt><trkpt lat="44.167146164031706" lon="11.43500832539943"><ele>674.8000000000001</ele><time>2026-04-30T10:35:16Z</time></trkpt><trkpt lat="44.16712357073981" lon="11.43514019107617"><ele>676.2</ele><time>2026-04-30T10:35:17Z</time></trkpt><trkpt lat="44.16709929974946" lon="11.435281316612611"><ele>677.6</ele><time>2026-04-30T10:35:18Z</time></trkpt><trkpt lat="44.16709071798106" lon="11.435406217442505"><ele>679.0</ele><time>2026-04-30T10:35:19Z</time></trkpt><trkpt lat="44.167049391753736" lon="11.435505112588721"><ele>680.4000000000001</ele><time>2026-04-30T10:35:20Z</time></trkpt><trkpt lat="44.166964961850454" lon="11.435594752264118"><ele>681.8</ele><time>2026-04-30T10:35:21Z</time></trkpt><trkpt lat="44.16687208697816" lon="11.43570177789013"><ele>683.2</ele><time>2026-04-30T10:35:22Z</time></trkpt><trkpt lat="44.16684983141538" lon="11.435833392261427"><ele>684.5999999999999</ele><time>2026-04-30T10:35:23Z</time></trkpt><trkpt lat="44.16685626868528" lon="11.435927036636043"><ele>686.0</ele><time>2026-04-30T10:35:24Z</time></trkpt><trkpt lat="44.16688814687195" lon="11.43601110773393"><ele>686.0</ele><time>2026-04-30T10:35:25Z</time></trkpt><trkpt lat="44.16691252089212" lon="11.436104617614257"><ele>686.0</ele><time>2026-04-30T10:35:26Z</time></trkpt><trkpt lat="44.16694209606069" lon="11.43622737968384"><ele>686.0</ele><time>2026-04-30T10:35:27Z</time></trkpt><trkpt lat="44.16697534457268" lon="11.436333156629464"><ele>686.0</ele><time>2026-04-30T10:35:28Z</time></trkpt><trkpt lat="44.16700129037783" lon="11.436424229436895"><ele>686.0</ele><time>2026-04-30T10:35:30Z</time></trkpt><trkpt lat="44.16696104100715" lon="11.436558590285708"><ele>686.0</ele><time>2026-04-30T10:35:32Z</time></trkpt><trkpt lat="44.166930423678075" lon="11.436714033106533"><ele>687.8</ele><time>2026-04-30T10:35:34Z</time></trkpt><trkpt lat="44.16693449499038" lon="11.436807115923996"><ele>689.5999999999999</ele><time>2026-04-30T10:35:35Z</time></trkpt><trkpt lat="44.166951570031785" lon="11.436920513262045"><ele>691.4</ele><time>2026-04-30T10:35:36Z</time></trkpt><trkpt lat="44.16697454472509" lon="11.437021190283305"><ele>693.2</ele><time>2026-04-30T10:35:37Z</time></trkpt><trkpt lat="44.16695479507862" lon="11.437142011132103"><ele>695.0</ele><time>2026-04-30T10:35:39Z</time></trkpt><trkpt lat="44.16686721893954" lon="11.437286418328844"><ele>695.4</ele><time>2026-04-30T10:35:41Z</time></trkpt><trkpt lat="44.16681707730034" lon="11.43736693033859"><ele>695.8</ele><time>2026-04-30T10:35:42Z</time></trkpt><trkpt lat="44.16677361893986" lon="11.43746009102497"><ele>696.2</ele><time>2026-04-30T10:35:43Z</time></trkpt><trkpt lat="44.16674945303882" lon="11.437565417177012"><ele>696.6</ele><time>2026-04-30T10:35:44Z</time></trkpt><trkpt lat="44.16676465208029" lon="11.43769343284697"><ele>697.0</ele><time>2026-04-30T10:35:45Z</time></trkpt><trkpt lat="44.16671606190513" lon="11.437860274446079"><ele>697.0</ele><time>2026-04-30T10:35:47Z</time></trkpt><trkpt lat="44.166648518586044" lon="11.437951656428094"><ele>697.0</ele><time>2026-04-30T10:35:48Z</time></trkpt><trkpt lat="44.166566280206716" lon="11.438042683318809"><ele>697.0</ele><time>2026-04-30T10:35:49Z</time></trkpt><trkpt lat="44.16649904440441" lon="11.43811826245165"><ele>697.0</ele><time>2026-04-30T10:35:50Z</time></trkpt><trkpt lat="44.1664647524231" lon="11.438200101830585"><ele>697.0</ele><time>2026-04-30T10:35:51Z</time></trkpt><trkpt lat="44.16640578571387" lon="11.438239643047487"><ele>697.0</ele><time>2026-04-30T10:35:52Z</time></trkpt><trkpt lat="44.16631958723288" lon="11.438248931349042"><ele>701.4000000000001</ele><time>2026-04-30T10:35:53Z</time></trkpt><trkpt lat="44.166258566461615" lon="11.438390834421552"><ele>705.8000000000001</ele><time>2026-04-30T10:35:55Z</time></trkpt><trkpt lat="44.16625936366787" lon="11.438479626124654"><ele>710.2</ele><time>2026-04-30T10:35:56Z</time></trkpt><trkpt lat="44.166213992413745" lon="11.438553983861954"><ele>714.6</ele><time>2026-04-30T10:35:57Z</time></trkpt><trkpt lat="44.16615564002157" lon="11.438647417745726"><ele>719.0</ele><time>2026-04-30T10:35:58Z</time></trkpt><trkpt lat="44.16604979500289" lon="11.438777070528548"><ele>718.0</ele><time>2026-04-30T10:35:59Z</time></trkpt><trkpt lat="44.165997581468666" lon="11.438876307563698"><ele>717.0</ele><time>2026-04-30T10:36:00Z</time></trkpt><trkpt lat="44.16596668584136" lon="11.438954402627822"><ele>716.0</ele><time>2026-04-30T10:36:01Z</time></trkpt><trkpt lat="44.1659012989385" lon="11.438940548928525"><ele>715.0</ele><time>2026-04-30T10:36:03Z</time></trkpt><trkpt lat="44.16577768236199" lon="11.438914888547632"><ele>714.0</ele><time>2026-04-30T10:36:05Z</time></trkpt><trkpt lat="44.16565741679474" lon="11.438955383406082"><ele>718.2</ele><time>2026-04-30T10:36:07Z</time></trkpt><trkpt lat="44.1655836956692" lon="11.439036071175522"><ele>722.4000000000001</ele><time>2026-04-30T10:36:08Z</time></trkpt><trkpt lat="44.165492489766116" lon="11.439112469568743"><ele>726.6</ele><time>2026-04-30T10:36:09Z</time></trkpt><trkpt lat="44.165421750605425" lon="11.439182025674898"><ele>730.8</ele><time>2026-04-30T10:36:10Z</time></trkpt><trkpt lat="44.165376860943866" lon="11.439321561005787"><ele>735.0</ele><time>2026-04-30T10:36:12Z</time></trkpt><trkpt lat="44.16538640045407" lon="11.43941580342701"><ele>735.0</ele><time>2026-04-30T10:36:13Z</time></trkpt><trkpt lat="44.16542111325015" lon="11.43952708931251"><ele>735.0</ele><time>2026-04-30T10:36:14Z</time></trkpt><trkpt lat="44.1654869562543" lon="11.439598361877637"><ele>735.0</ele><time>2026-04-30T10:36:15Z</time></trkpt><trkpt lat="44.165548125634274" lon="11.439739474997213"><ele>735.0</ele><time>2026-04-30T10:36:17Z</time></trkpt><trkpt lat="44.1655464971805" lon="11.439838832530944"><ele>735.0</ele><time>2026-04-30T10:36:18Z</time></trkpt><trkpt lat="44.165550474792845" lon="11.439931930493678"><ele>735.0</ele><time>2026-04-30T10:36:19Z</time></trkpt><trkpt lat="44.16557409714989" lon="11.440032961932609"><ele>735.0</ele><time>2026-04-30T10:36:21Z</time></trkpt><trkpt lat="44.165627687026095" lon="11.440155115465968"><ele>735.0</ele><time>2026-04-30T10:36:23Z</time></trkpt><trkpt lat="44.1657113045279" lon="11.440259170483124"><ele>735.0</ele><time>2026-04-30T10:36:25Z</time></trkpt><trkpt lat="44.165739587740504" lon="11.440338872679934"><ele>735.0</ele><time>2026-04-30T10:36:26Z</time></trkpt><trkpt lat="44.16576472181901" lon="11.440445873008835"><ele>735.0</ele><time>2026-04-30T10:36:27Z</time></trkpt><trkpt lat="44.165794882614236" lon="11.44058190792757"><ele>735.0</ele><time>2026-04-30T10:36:28Z</time></trkpt><trkpt lat="44.16584816692627" lon="11.440710361795722"><ele>735.0</ele><time>2026-04-30T10:36:29Z</time></trkpt><trkpt lat="44.1658949735614" lon="11.44082956100854"><ele>735.0</ele><time>2026-04-30T10:36:30Z</time></trkpt><trkpt lat="44.16594630822748" lon="11.440967074580177"><ele>735.0</ele><time>2026-04-30T10:36:31Z</time></trkpt><trkpt lat="44.16598117741415" lon="11.441098458218535"><ele>735.0</ele><time>2026-04-30T10:36:32Z</time></trkpt><trkpt lat="44.16602291309296" lon="11.441241263330062"><ele>735.5</ele><time>2026-04-30T10:36:33Z</time></trkpt><trkpt lat="44.16605084747938" lon="11.441363824601511"><ele>736.0</ele><time>2026-04-30T10:36:34Z</time></trkpt><trkpt lat="44.16606280175043" lon="11.441485279964759"><ele>736.5</ele><time>2026-04-30T10:36:35Z</time></trkpt><trkpt lat="44.16606395339304" lon="11.441618835734836"><ele>737.0</ele><time>2026-04-30T10:36:36Z</time></trkpt><trkpt lat="44.166076213012275" lon="11.44173206268074"><ele>737.5</ele><time>2026-04-30T10:36:37Z</time></trkpt><trkpt lat="44.166115955746385" lon="11.441828587746068"><ele>738.0</ele><time>2026-04-30T10:36:38Z</time></trkpt><trkpt lat="44.16616577733146" lon="11.44196905411587"><ele>738.0</ele><time>2026-04-30T10:36:40Z</time></trkpt><trkpt lat="44.16622913147523" lon="11.442039658720121"><ele>738.0</ele><time>2026-04-30T10:36:42Z</time></trkpt><trkpt lat="44.16634617769382" lon="11.442076385682183"><ele>738.0</ele><time>2026-04-30T10:36:44Z</time></trkpt><trkpt lat="44.166460775775334" lon="11.442115506684415"><ele>738.0</ele><time>2026-04-30T10:36:46Z</time></trkpt><trkpt lat="44.16652222190535" lon="11.44216698462121"><ele>738.0</ele><time>2026-04-30T10:36:47Z</time></trkpt><trkpt lat="44.16658987314205" lon="11.442232988226978"><ele>736.2</ele><time>2026-04-30T10:36:48Z</time></trkpt><trkpt lat="44.1666656836482" lon="11.442337912856761"><ele>734.4</ele><time>2026-04-30T10:36:49Z</time></trkpt><trkpt lat="44.16676498707809" lon="11.442462481213195"><ele>732.6</ele><time>2026-04-30T10:36:50Z</time></trkpt><trkpt lat="44.16686272166386" lon="11.442558212879446"><ele>730.8000000000001</ele><time>2026-04-30T10:36:51Z</time></trkpt><trkpt lat="44.16693671779505" lon="11.442626727216725"><ele>729.0</ele><time>2026-04-30T10:36:52Z</time></trkpt><trkpt lat="44.1669851738254" lon="11.442696937995867"><ele>729.0</ele><time>2026-04-30T10:36:53Z</time></trkpt><trkpt lat="44.166996125686026" lon="11.442807968678656"><ele>729.0</ele><time>2026-04-30T10:36:54Z</time></trkpt><trkpt lat="44.16699883754367" lon="11.442942261220821"><ele>729.0</ele><time>2026-04-30T10:36:55Z</time></trkpt><trkpt lat="44.16701803492933" lon="11.443074956254485"><ele>729.0</ele><time>2026-04-30T10:36:56Z</time></trkpt><trkpt lat="44.167059918990525" lon="11.443179553124342"><ele>729.0</ele><time>2026-04-30T10:36:57Z</time></trkpt><trkpt lat="44.167128198856744" lon="11.443248623180773"><ele>729.0</ele><time>2026-04-30T10:36:58Z</time></trkpt><trkpt lat="44.16722652802598" lon="11.443309465762276"><ele>729.0</ele><time>2026-04-30T10:36:59Z</time></trkpt><trkpt lat="44.167332141076194" lon="11.443368016486309"><ele>729.0</ele><time>2026-04-30T10:37:00Z</time></trkpt><trkpt lat="44.16740217947432" lon="11.44345573327565"><ele>729.0</ele><time>2026-04-30T10:37:01Z</time></trkpt><trkpt lat="44.16746049800165" lon="11.443523224670999"><ele>729.0</ele><time>2026-04-30T10:37:02Z</time></trkpt><trkpt lat="44.167518067534175" lon="11.443571238851868"><ele>729.0</ele><time>2026-04-30T10:37:03Z</time></trkpt><trkpt lat="44.16758302953338" lon="11.44359919252211"><ele>729.0</ele><time>2026-04-30T10:37:04Z</time></trkpt><trkpt lat="44.167650307452256" lon="11.44362754442558"><ele>729.0</ele><time>2026-04-30T10:37:05Z</time></trkpt><trkpt lat="44.16774278039616" lon="11.443693039301841"><ele>729.0</ele><time>2026-04-30T10:37:07Z</time></trkpt><trkpt lat="44.16779937638186" lon="11.443820183193852"><ele>729.0</ele><time>2026-04-30T10:37:09Z</time></trkpt><trkpt lat="44.167914317275" lon="11.443920154411671"><ele>729.0</ele><time>2026-04-30T10:37:11Z</time></trkpt><trkpt lat="44.16798478987283" lon="11.443975086637614"><ele>729.0</ele><time>2026-04-30T10:37:12Z</time></trkpt><trkpt lat="44.16805516778603" lon="11.444032240000508"><ele>730.4000000000001</ele><time>2026-04-30T10:37:13Z</time></trkpt><trkpt lat="44.1681562734984" lon="11.444100364262692"><ele>731.8</ele><time>2026-04-30T10:37:15Z</time></trkpt><trkpt lat="44.16824676816221" lon="11.444117541046456"><ele>733.2</ele><time>2026-04-30T10:37:16Z</time></trkpt><trkpt lat="44.16833722539888" lon="11.444162488594676"><ele>734.5999999999999</ele><time>2026-04-30T10:37:17Z</time></trkpt><trkpt lat="44.168421816952865" lon="11.444203059444593"><ele>736.0</ele><time>2026-04-30T10:37:18Z</time></trkpt><trkpt lat="44.16851788047092" lon="11.444249474896036"><ele>736.0</ele><time>2026-04-30T10:37:19Z</time></trkpt><trkpt lat="44.16861030278555" lon="11.44431107233578"><ele>736.0</ele><time>2026-04-30T10:37:20Z</time></trkpt><trkpt lat="44.16870449668196" lon="11.444380749176375"><ele>736.0</ele><time>2026-04-30T10:37:21Z</time></trkpt><trkpt lat="44.16879239964915" lon="11.444428106913499"><ele>736.0</ele><time>2026-04-30T10:37:22Z</time></trkpt><trkpt lat="44.1688694836174" lon="11.44445956554769"><ele>736.0</ele><time>2026-04-30T10:37:23Z</time></trkpt><trkpt lat="44.168942660614185" lon="11.444518529577822"><ele>736.0</ele><time>2026-04-30T10:37:24Z</time></trkpt><trkpt lat="44.1690062408258" lon="11.444580636387489"><ele>736.0</ele><time>2026-04-30T10:37:25Z</time></trkpt><trkpt lat="44.16906988205047" lon="11.444627177030805"><ele>736.0</ele><time>2026-04-30T10:37:26Z</time></trkpt><trkpt lat="44.169162741946636" lon="11.444655057400034"><ele>736.0</ele><time>2026-04-30T10:37:27Z</time></trkpt><trkpt lat="44.169276761565044" lon="11.444711120099223"><ele>736.0</ele><time>2026-04-30T10:37:28Z</time></trkpt><trkpt lat="44.16936332550817" lon="11.444769534004061"><ele>736.1999999999999</ele><time>2026-04-30T10:37:29Z</time></trkpt><trkpt lat="44.16945638433505" lon="11.444834737242793"><ele>736.4</ele><time>2026-04-30T10:37:30Z</time></trkpt><trkpt lat="44.16954967444232" lon="11.44490128817385"><ele>736.6</ele><time>2026-04-30T10:37:31Z</time></trkpt><trkpt lat="44.1696320110161" lon="11.444991900986631"><ele>736.8</ele><time>2026-04-30T10:37:32Z</time></trkpt><trkpt lat="44.169715852392194" lon="11.44510511983864"><ele>737.0</ele><time>2026-04-30T10:37:33Z</time></trkpt><trkpt lat="44.16976925221582" lon="11.445223530615369"><ele>737.0</ele><time>2026-04-30T10:37:34Z</time></trkpt><trkpt lat="44.16979714981089" lon="11.445319483563255"><ele>737.0</ele><time>2026-04-30T10:37:35Z</time></trkpt><trkpt lat="44.169825515684494" lon="11.445444997411165"><ele>737.0</ele><time>2026-04-30T10:37:36Z</time></trkpt><trkpt lat="44.16985495554094" lon="11.445622798067472"><ele>737.0</ele><time>2026-04-30T10:37:37Z</time></trkpt><trkpt lat="44.169892328672745" lon="11.44580787696093"><ele>737.0</ele><time>2026-04-30T10:37:38Z</time></trkpt><trkpt lat="44.16993495018367" lon="11.445946674795335"><ele>736.2</ele><time>2026-04-30T10:37:39Z</time></trkpt><trkpt lat="44.17000618437991" lon="11.446053154581161"><ele>735.4000000000001</ele><time>2026-04-30T10:37:40Z</time></trkpt><trkpt lat="44.17006794875663" lon="11.446132127797918"><ele>734.5999999999999</ele><time>2026-04-30T10:37:41Z</time></trkpt><trkpt lat="44.17011868256021" lon="11.446229959186237"><ele>733.8</ele><time>2026-04-30T10:37:42Z</time></trkpt><trkpt lat="44.17017337503462" lon="11.446320375599887"><ele>733.0</ele><time>2026-04-30T10:37:43Z</time></trkpt><trkpt lat="44.17023339856202" lon="11.446433980604683"><ele>733.0</ele><time>2026-04-30T10:37:44Z</time></trkpt><trkpt lat="44.17030784337482" lon="11.446521994470325"><ele>733.0</ele><time>2026-04-30T10:37:45Z</time></trkpt><trkpt lat="44.17038157315758" lon="11.446573794079098"><ele>733.0</ele><time>2026-04-30T10:37:46Z</time></trkpt><trkpt lat="44.1704640808383" lon="11.44663075984223"><ele>733.0</ele><time>2026-04-30T10:37:47Z</time></trkpt><trkpt lat="44.17052106485496" lon="11.446714510290768"><ele>733.0</ele><time>2026-04-30T10:37:48Z</time></trkpt><trkpt lat="44.170582946804664" lon="11.446779190554183"><ele>733.0</ele><time>2026-04-30T10:37:49Z</time></trkpt><trkpt lat="44.17064028834369" lon="11.44684501497158"><ele>733.0</ele><time>2026-04-30T10:37:50Z</time></trkpt><trkpt lat="44.170679204959534" lon="11.446917892640446"><ele>733.0</ele><time>2026-04-30T10:37:51Z</time></trkpt><trkpt lat="44.17078226839849" lon="11.447020798543667"><ele>733.0</ele><time>2026-04-30T10:37:53Z</time></trkpt><trkpt lat="44.17080604391132" lon="11.447164289032612"><ele>733.0</ele><time>2026-04-30T10:37:55Z</time></trkpt><trkpt lat="44.17083313796158" lon="11.447245272586338"><ele>733.0</ele><time>2026-04-30T10:37:56Z</time></trkpt><trkpt lat="44.170858027296525" lon="11.447341458089237"><ele>733.0</ele><time>2026-04-30T10:37:57Z</time></trkpt><trkpt lat="44.17088427922159" lon="11.447433699363682"><ele>729.8</ele><time>2026-04-30T10:37:58Z</time></trkpt><trkpt lat="44.170892821231085" lon="11.447529576181173"><ele>726.5999999999999</ele><time>2026-04-30T10:37:59Z</time></trkpt><trkpt lat="44.17089569490914" lon="11.447630169953598"><ele>723.4000000000001</ele><time>2026-04-30T10:38:00Z</time></trkpt><trkpt lat="44.17088978498859" lon="11.44774676308038"><ele>720.2</ele><time>2026-04-30T10:38:01Z</time></trkpt><trkpt lat="44.17091401696369" lon="11.447896101605089"><ele>717.0</ele><time>2026-04-30T10:38:02Z</time></trkpt><trkpt lat="44.170971643115536" lon="11.448057155325483"><ele>717.0</ele><time>2026-04-30T10:38:03Z</time></trkpt><trkpt lat="44.17104947186003" lon="11.448228732695735"><ele>717.0</ele><time>2026-04-30T10:38:04Z</time></trkpt><trkpt lat="44.171147556224106" lon="11.448371930499839"><ele>717.0</ele><time>2026-04-30T10:38:05Z</time></trkpt><trkpt lat="44.17123662424514" lon="11.448453625088023"><ele>717.0</ele><time>2026-04-30T10:38:06Z</time></trkpt><trkpt lat="44.17129853497063" lon="11.448545423207655"><ele>717.0</ele><time>2026-04-30T10:38:07Z</time></trkpt><trkpt lat="44.17134863131334" lon="11.448674757389092"><ele>717.0</ele><time>2026-04-30T10:38:08Z</time></trkpt><trkpt lat="44.17139851797246" lon="11.448820244031902"><ele>717.0</ele><time>2026-04-30T10:38:09Z</time></trkpt><trkpt lat="44.171449838298926" lon="11.448930690273714"><ele>717.0</ele><time>2026-04-30T10:38:10Z</time></trkpt><trkpt lat="44.17152120682267" lon="11.448990025977578"><ele>717.0</ele><time>2026-04-30T10:38:11Z</time></trkpt><trkpt lat="44.17158837342847" lon="11.44902598170424"><ele>716.0</ele><time>2026-04-30T10:38:12Z</time></trkpt><trkpt lat="44.17166567907419" lon="11.449033429292525"><ele>715.0</ele><time>2026-04-30T10:38:13Z</time></trkpt><trkpt lat="44.17173245714545" lon="11.449073602792797"><ele>714.0</ele><time>2026-04-30T10:38:14Z</time></trkpt><trkpt lat="44.17177495242798" lon="11.449167889989825"><ele>713.0</ele><time>2026-04-30T10:38:15Z</time></trkpt><trkpt lat="44.17180187116367" lon="11.449274563902067"><ele>712.0</ele><time>2026-04-30T10:38:16Z</time></trkpt><trkpt lat="44.17182546867749" lon="11.449394895060829"><ele>711.0</ele><time>2026-04-30T10:38:17Z</time></trkpt><trkpt lat="44.17185859093649" lon="11.449515802293151"><ele>712.1999999999999</ele><time>2026-04-30T10:38:18Z</time></trkpt><trkpt lat="44.17189177417102" lon="11.449632834871375"><ele>713.4</ele><time>2026-04-30T10:38:19Z</time></trkpt><trkpt lat="44.17191716105289" lon="11.449753779711289"><ele>714.6</ele><time>2026-04-30T10:38:20Z</time></trkpt><trkpt lat="44.171953362237765" lon="11.44988010881772"><ele>715.8</ele><time>2026-04-30T10:38:21Z</time></trkpt><trkpt lat="44.171970236732236" lon="11.450016630480006"><ele>717.0</ele><time>2026-04-30T10:38:22Z</time></trkpt><trkpt lat="44.17198628266153" lon="11.450143283905563"><ele>717.0</ele><time>2026-04-30T10:38:23Z</time></trkpt><trkpt lat="44.17199044962596" lon="11.450257808875607"><ele>717.0</ele><time>2026-04-30T10:38:24Z</time></trkpt><trkpt lat="44.17195230754272" lon="11.450385907632612"><ele>717.0</ele><time>2026-04-30T10:38:25Z</time></trkpt><trkpt lat="44.17196074862263" lon="11.450513142237396"><ele>717.0</ele><time>2026-04-30T10:38:26Z</time></trkpt><trkpt lat="44.172009008259415" lon="11.45062538592829"><ele>717.0</ele><time>2026-04-30T10:38:27Z</time></trkpt><trkpt lat="44.172041962362755" lon="11.450720880960008"><ele>717.0</ele><time>2026-04-30T10:38:28Z</time></trkpt><trkpt lat="44.17210128380304" lon="11.450806558839139"><ele>716.2</ele><time>2026-04-30T10:38:29Z</time></trkpt><trkpt lat="44.17213878421272" lon="11.450922617107011"><ele>715.4000000000001</ele><time>2026-04-30T10:38:30Z</time></trkpt><trkpt lat="44.17215402082829" lon="11.45102700594989"><ele>714.5999999999999</ele><time>2026-04-30T10:38:31Z</time></trkpt><trkpt lat="44.17222435087187" lon="11.451124628462772"><ele>713.8</ele><time>2026-04-30T10:38:33Z</time></trkpt><trkpt lat="44.1723024446453" lon="11.451198706650498"><ele>713.0</ele><time>2026-04-30T10:38:38Z</time></trkpt><trkpt lat="44.17236541202204" lon="11.451321103838888"><ele>712.1666666666666</ele><time>2026-04-30T10:38:41Z</time></trkpt><trkpt lat="44.17240547264413" lon="11.451414179358062"><ele>711.3333333333333</ele><time>2026-04-30T10:38:42Z</time></trkpt><trkpt lat="44.17244272774755" lon="11.451510748885253"><ele>710.5</ele><time>2026-04-30T10:38:43Z</time></trkpt><trkpt lat="44.172486039158514" lon="11.451612406862552"><ele>709.6666666666666</ele><time>2026-04-30T10:38:44Z</time></trkpt><trkpt lat="44.17251195416502" lon="11.451704369326926"><ele>708.8333333333334</ele><time>2026-04-30T10:38:45Z</time></trkpt><trkpt lat="44.17252973376318" lon="11.451826178077992"><ele>708.0</ele><time>2026-04-30T10:38:46Z</time></trkpt><trkpt lat="44.172530901886134" lon="11.451957106316815"><ele>708.0</ele><time>2026-04-30T10:38:47Z</time></trkpt><trkpt lat="44.172522163416225" lon="11.452094883703792"><ele>708.0</ele><time>2026-04-30T10:38:48Z</time></trkpt><trkpt lat="44.17251664827877" lon="11.452217928202167"><ele>708.0</ele><time>2026-04-30T10:38:49Z</time></trkpt><trkpt lat="44.17252763485843" lon="11.452322884695233"><ele>708.0</ele><time>2026-04-30T10:38:50Z</time></trkpt><trkpt lat="44.17256327701342" lon="11.452416458751689"><ele>708.0</ele><time>2026-04-30T10:38:51Z</time></trkpt><trkpt lat="44.1726731471198" lon="11.452461896628254"><ele>707.0</ele><time>2026-04-30T10:38:53Z</time></trkpt><trkpt lat="44.17275800439096" lon="11.452423826561848"><ele>706.0</ele><time>2026-04-30T10:38:54Z</time></trkpt><trkpt lat="44.17286695999537" lon="11.452367828070441"><ele>705.0</ele><time>2026-04-30T10:38:55Z</time></trkpt><trkpt lat="44.17296596666954" lon="11.45232747730413"><ele>704.0</ele><time>2026-04-30T10:38:56Z</time></trkpt><trkpt lat="44.173051735302536" lon="11.452311649788882"><ele>703.0</ele><time>2026-04-30T10:38:57Z</time></trkpt><trkpt lat="44.17312926926251" lon="11.45233113111195"><ele>702.1666666666667</ele><time>2026-04-30T10:38:58Z</time></trkpt><trkpt lat="44.17320878549263" lon="11.452379619184153"><ele>701.3333333333334</ele><time>2026-04-30T10:38:59Z</time></trkpt><trkpt lat="44.17328874325351" lon="11.452426305027194"><ele>700.5</ele><time>2026-04-30T10:39:00Z</time></trkpt><trkpt lat="44.17336999678965" lon="11.452467677267785"><ele>699.6666666666666</ele><time>2026-04-30T10:39:01Z</time></trkpt><trkpt lat="44.17344000238508" lon="11.452515389710024"><ele>698.8333333333333</ele><time>2026-04-30T10:39:02Z</time></trkpt><trkpt lat="44.173507370252025" lon="11.452570329866926"><ele>698.0</ele><time>2026-04-30T10:39:03Z</time></trkpt><trkpt lat="44.173563217378046" lon="11.452640095717845"><ele>698.0</ele><time>2026-04-30T10:39:04Z</time></trkpt><trkpt lat="44.17360924790361" lon="11.452731921840002"><ele>698.0</ele><time>2026-04-30T10:39:05Z</time></trkpt><trkpt lat="44.1736589081864" lon="11.45281752549123"><ele>698.0</ele><time>2026-04-30T10:39:06Z</time></trkpt><trkpt lat="44.173723409265804" lon="11.4528701680193"><ele>698.0</ele><time>2026-04-30T10:39:07Z</time></trkpt><trkpt lat="44.17379875501964" lon="11.452894131307607"><ele>698.0</ele><time>2026-04-30T10:39:08Z</time></trkpt><trkpt lat="44.17388711016731" lon="11.452898768518352"><ele>698.0</ele><time>2026-04-30T10:39:09Z</time></trkpt><trkpt lat="44.1739789578446" lon="11.45288715863184"><ele>695.2</ele><time>2026-04-30T10:39:10Z</time></trkpt><trkpt lat="44.17404644749557" lon="11.452871796143132"><ele>692.4</ele><time>2026-04-30T10:39:11Z</time></trkpt><trkpt lat="44.174160911237294" lon="11.452854561329278"><ele>689.6</ele><time>2026-04-30T10:39:13Z</time></trkpt><trkpt lat="44.17425466488958" lon="11.452850822243924"><ele>686.8000000000001</ele><time>2026-04-30T10:39:15Z</time></trkpt><trkpt lat="44.17435065653521" lon="11.452853860193551"><ele>684.0</ele><time>2026-04-30T10:39:17Z</time></trkpt><trkpt lat="44.17447619586435" lon="11.452870964573854"><ele>684.0</ele><time>2026-04-30T10:39:19Z</time></trkpt><trkpt lat="44.174544291846075" lon="11.452891320795636"><ele>684.0</ele><time>2026-04-30T10:39:20Z</time></trkpt><trkpt lat="44.17461773547019" lon="11.452898644222094"><ele>684.0</ele><time>2026-04-30T10:39:21Z</time></trkpt><trkpt lat="44.17469432667416" lon="11.452883758834128"><ele>684.0</ele><time>2026-04-30T10:39:22Z</time></trkpt><trkpt lat="44.17476760527292" lon="11.452847650546934"><ele>684.0</ele><time>2026-04-30T10:39:23Z</time></trkpt><trkpt lat="44.1748359547887" lon="11.452786502306536"><ele>684.0</ele><time>2026-04-30T10:39:24Z</time></trkpt><trkpt lat="44.17490689289739" lon="11.452731393592911"><ele>681.3333333333334</ele><time>2026-04-30T10:39:25Z</time></trkpt><trkpt lat="44.174980053516954" lon="11.45269471890425"><ele>678.6666666666666</ele><time>2026-04-30T10:39:26Z</time></trkpt><trkpt lat="44.1750515977173" lon="11.452679090913339"><ele>676.0</ele><time>2026-04-30T10:39:27Z</time></trkpt><trkpt lat="44.17512440706494" lon="11.452699720670346"><ele>673.3333333333333</ele><time>2026-04-30T10:39:28Z</time></trkpt><trkpt lat="44.17520374770829" lon="11.452736689970497"><ele>670.6666666666666</ele><time>2026-04-30T10:39:29Z</time></trkpt><trkpt lat="44.17528471843021" lon="11.45278083339381"><ele>668.0</ele><time>2026-04-30T10:39:30Z</time></trkpt><trkpt lat="44.17535973920626" lon="11.452817162190167"><ele>668.0</ele><time>2026-04-30T10:39:31Z</time></trkpt><trkpt lat="44.17543490603555" lon="11.452852854173937"><ele>668.0</ele><time>2026-04-30T10:39:32Z</time></trkpt><trkpt lat="44.17550314745352" lon="11.452887291695607"><ele>668.0</ele><time>2026-04-30T10:39:33Z</time></trkpt><trkpt lat="44.17557465756716" lon="11.452920893382755"><ele>668.0</ele><time>2026-04-30T10:39:34Z</time></trkpt><trkpt lat="44.17565049009621" lon="11.452959427479861"><ele>668.0</ele><time>2026-04-30T10:39:35Z</time></trkpt><trkpt lat="44.17573267835977" lon="11.453000554317413"><ele>668.0</ele><time>2026-04-30T10:39:36Z</time></trkpt><trkpt lat="44.1758068187706" lon="11.453040558327562"><ele>666.0</ele><time>2026-04-30T10:39:37Z</time></trkpt><trkpt lat="44.175866131468005" lon="11.453081780267123"><ele>664.0</ele><time>2026-04-30T10:39:38Z</time></trkpt><trkpt lat="44.17591642979343" lon="11.453136539533594"><ele>662.0</ele><time>2026-04-30T10:39:39Z</time></trkpt><trkpt lat="44.17595569947902" lon="11.453221272435405"><ele>660.0</ele><time>2026-04-30T10:39:40Z</time></trkpt><trkpt lat="44.17596281367465" lon="11.453347192075855"><ele>658.0</ele><time>2026-04-30T10:39:42Z</time></trkpt><trkpt lat="44.17595759489561" lon="11.453438363530813"><ele>656.0</ele><time>2026-04-30T10:39:43Z</time></trkpt><trkpt lat="44.17595803623044" lon="11.453541266581244"><ele>654.0</ele><time>2026-04-30T10:39:44Z</time></trkpt><trkpt lat="44.175965398020885" lon="11.453653209901766"><ele>654.0</ele><time>2026-04-30T10:39:45Z</time></trkpt><trkpt lat="44.175979106511484" lon="11.453740289780278"><ele>654.0</ele><time>2026-04-30T10:39:46Z</time></trkpt><trkpt lat="44.1760128575793" lon="11.453817760118815"><ele>654.0</ele><time>2026-04-30T10:39:47Z</time></trkpt><trkpt lat="44.176050329091666" lon="11.453920256913534"><ele>654.0</ele><time>2026-04-30T10:39:48Z</time></trkpt><trkpt lat="44.17606064084848" lon="11.454033172206628"><ele>654.0</ele><time>2026-04-30T10:39:49Z</time></trkpt><trkpt lat="44.17605610273248" lon="11.454130553914807"><ele>654.0</ele><time>2026-04-30T10:39:50Z</time></trkpt><trkpt lat="44.17600868504319" lon="11.454241732965054"><ele>653.2</ele><time>2026-04-30T10:39:52Z</time></trkpt><trkpt lat="44.17601113114143" lon="11.454377415053996"><ele>652.4000000000001</ele><time>2026-04-30T10:39:55Z</time></trkpt><trkpt lat="44.17604284510306" lon="11.454480504909164"><ele>651.6</ele><time>2026-04-30T10:39:57Z</time></trkpt><trkpt lat="44.17603922068875" lon="11.454587740670323"><ele>650.8</ele><time>2026-04-30T10:39:59Z</time></trkpt><trkpt lat="44.176072508771036" lon="11.454710244290407"><ele>650.0</ele><time>2026-04-30T10:40:01Z</time></trkpt><trkpt lat="44.176101954731436" lon="11.45484637593147"><ele>649.8333333333333</ele><time>2026-04-30T10:40:03Z</time></trkpt><trkpt lat="44.17611491176017" lon="11.454957897722522"><ele>649.6666666666666</ele><time>2026-04-30T10:40:05Z</time></trkpt><trkpt lat="44.176076308978026" lon="11.455100106965368"><ele>649.5</ele><time>2026-04-30T10:40:07Z</time></trkpt><trkpt lat="44.176064035283716" lon="11.455193371713314"><ele>649.3333333333334</ele><time>2026-04-30T10:40:08Z</time></trkpt><trkpt lat="44.17604932855539" lon="11.45529751625534"><ele>649.1666666666667</ele><time>2026-04-30T10:40:09Z</time></trkpt><trkpt lat="44.17602337730643" lon="11.455410282486769"><ele>649.0</ele><time>2026-04-30T10:40:10Z</time></trkpt><trkpt lat="44.17603461202471" lon="11.45558382295795"><ele>649.0</ele><time>2026-04-30T10:40:12Z</time></trkpt><trkpt lat="44.17605866485544" lon="11.455693971788547"><ele>649.0</ele><time>2026-04-30T10:40:13Z</time></trkpt><trkpt lat="44.17608496139859" lon="11.45579951034776"><ele>649.0</ele><time>2026-04-30T10:40:14Z</time></trkpt><trkpt lat="44.17610871810041" lon="11.45590857538179"><ele>649.0</ele><time>2026-04-30T10:40:15Z</time></trkpt><trkpt lat="44.17611995040568" lon="11.456001092783067"><ele>649.0</ele><time>2026-04-30T10:40:16Z</time></trkpt><trkpt lat="44.17613847001936" lon="11.456153315965453"><ele>649.0</ele><time>2026-04-30T10:40:17Z</time></trkpt><trkpt lat="44.17615418670527" lon="11.456289532680149"><ele>647.8000000000001</ele><time>2026-04-30T10:40:18Z</time></trkpt><trkpt lat="44.17616626337329" lon="11.456416996866965"><ele>646.6</ele><time>2026-04-30T10:40:19Z</time></trkpt><trkpt lat="44.17617611795941" lon="11.456520413655417"><ele>645.4</ele><time>2026-04-30T10:40:20Z</time></trkpt><trkpt lat="44.176254312863364" lon="11.456665496566552"><ele>644.2</ele><time>2026-04-30T10:40:22Z</time></trkpt><trkpt lat="44.176333801224864" lon="11.456731417404571"><ele>643.0</ele><time>2026-04-30T10:40:23Z</time></trkpt><trkpt lat="44.17643361861234" lon="11.456791165549738"><ele>639.3333333333334</ele><time>2026-04-30T10:40:24Z</time></trkpt><trkpt lat="44.176527226016056" lon="11.456825277007104"><ele>635.6666666666667</ele><time>2026-04-30T10:40:25Z</time></trkpt><trkpt lat="44.17660330836333" lon="11.45688204986999"><ele>632.0</ele><time>2026-04-30T10:40:26Z</time></trkpt><trkpt lat="44.176670831137535" lon="11.456961182261274"><ele>628.3333333333334</ele><time>2026-04-30T10:40:27Z</time></trkpt><trkpt lat="44.17674546039558" lon="11.45702113143283"><ele>624.6666666666666</ele><time>2026-04-30T10:40:28Z</time></trkpt><trkpt lat="44.176819947571104" lon="11.457055160692596"><ele>621.0</ele><time>2026-04-30T10:40:29Z</time></trkpt><trkpt lat="44.17689492334193" lon="11.457052003218584"><ele>621.0</ele><time>2026-04-30T10:40:30Z</time></trkpt><trkpt lat="44.176966556881546" lon="11.457023318978264"><ele>621.0</ele><time>2026-04-30T10:40:31Z</time></trkpt><trkpt lat="44.17702912642686" lon="11.457044852008309"><ele>621.0</ele><time>2026-04-30T10:40:32Z</time></trkpt><trkpt lat="44.17709051752656" lon="11.457125713367"><ele>621.0</ele><time>2026-04-30T10:40:33Z</time></trkpt><trkpt lat="44.17716628513639" lon="11.457202748978366"><ele>621.0</ele><time>2026-04-30T10:40:34Z</time></trkpt><trkpt lat="44.177242184808485" lon="11.457280478039753"><ele>621.0</ele><time>2026-04-30T10:40:35Z</time></trkpt><trkpt lat="44.17731104600528" lon="11.457362433713373"><ele>619.6</ele><time>2026-04-30T10:40:36Z</time></trkpt><trkpt lat="44.177383800336706" lon="11.457436711445077"><ele>618.2</ele><time>2026-04-30T10:40:37Z</time></trkpt><trkpt lat="44.177462943909255" lon="11.457503184243564"><ele>616.8</ele><time>2026-04-30T10:40:38Z</time></trkpt><trkpt lat="44.177551294254314" lon="11.457597464198308"><ele>615.4</ele><time>2026-04-30T10:40:39Z</time></trkpt><trkpt lat="44.177642999501906" lon="11.457700178059907"><ele>614.0</ele><time>2026-04-30T10:40:40Z</time></trkpt><trkpt lat="44.177736063493356" lon="11.457774360687619"><ele>614.0</ele><time>2026-04-30T10:40:41Z</time></trkpt><trkpt lat="44.17781928495064" lon="11.457824816208868"><ele>614.0</ele><time>2026-04-30T10:40:42Z</time></trkpt><trkpt lat="44.17787892438936" lon="11.45786638520839"><ele>614.0</ele><time>2026-04-30T10:40:43Z</time></trkpt><trkpt lat="44.17792183896515" lon="11.457933520479399"><ele>614.0</ele><time>2026-04-30T10:40:44Z</time></trkpt><trkpt lat="44.17794167302216" lon="11.4580364521661"><ele>614.0</ele><time>2026-04-30T10:40:45Z</time></trkpt><trkpt lat="44.177962007376564" lon="11.458167752738342"><ele>614.0</ele><time>2026-04-30T10:40:46Z</time></trkpt><trkpt lat="44.17799496577352" lon="11.458297681490357"><ele>613.1428571428571</ele><time>2026-04-30T10:40:47Z</time></trkpt><trkpt lat="44.178038643855004" lon="11.458396033324464"><ele>612.2857142857142</ele><time>2026-04-30T10:40:48Z</time></trkpt><trkpt lat="44.17808792720275" lon="11.458474423238616"><ele>611.4285714285713</ele><time>2026-04-30T10:40:49Z</time></trkpt><trkpt lat="44.17814073546908" lon="11.458541519243168"><ele>610.5714285714286</ele><time>2026-04-30T10:40:50Z</time></trkpt><trkpt lat="44.178197834311874" lon="11.458590863089485"><ele>609.7142857142858</ele><time>2026-04-30T10:40:51Z</time></trkpt><trkpt lat="44.17826555889903" lon="11.458628589209987"><ele>608.8571428571428</ele><time>2026-04-30T10:40:52Z</time></trkpt><trkpt lat="44.17833318457963" lon="11.458687406153661"><ele>608.0</ele><time>2026-04-30T10:40:53Z</time></trkpt><trkpt lat="44.178366911178365" lon="11.45876907550241"><ele>607.5</ele><time>2026-04-30T10:40:54Z</time></trkpt><trkpt lat="44.17838536728327" lon="11.45886910512979"><ele>607.0</ele><time>2026-04-30T10:40:55Z</time></trkpt><trkpt lat="44.178403841527214" lon="11.458961837025418"><ele>606.5</ele><time>2026-04-30T10:40:56Z</time></trkpt><trkpt lat="44.17841747586545" lon="11.459123874141069"><ele>606.0</ele><time>2026-04-30T10:40:58Z</time></trkpt><trkpt lat="44.17844115503221" lon="11.459219072374001"><ele>605.5</ele><time>2026-04-30T10:40:59Z</time></trkpt><trkpt lat="44.178480311285234" lon="11.45929874833718"><ele>605.0</ele><time>2026-04-30T10:41:00Z</time></trkpt><trkpt lat="44.17852310013079" lon="11.459385384673357"><ele>605.0</ele><time>2026-04-30T10:41:01Z</time></trkpt><trkpt lat="44.17855772492206" lon="11.459478349887519"><ele>605.0</ele><time>2026-04-30T10:41:02Z</time></trkpt><trkpt lat="44.17858696767813" lon="11.45958314920682"><ele>605.0</ele><time>2026-04-30T10:41:03Z</time></trkpt><trkpt lat="44.17861399813712" lon="11.459685075775626"><ele>605.0</ele><time>2026-04-30T10:41:04Z</time></trkpt><trkpt lat="44.178673701132176" lon="11.45982465271452"><ele>605.0</ele><time>2026-04-30T10:41:06Z</time></trkpt><trkpt lat="44.17870120517883" lon="11.459906072597628"><ele>605.0</ele><time>2026-04-30T10:41:07Z</time></trkpt><trkpt lat="44.17873703880376" lon="11.460000688654366"><ele>605.0</ele><time>2026-04-30T10:41:08Z</time></trkpt><trkpt lat="44.17876171954229" lon="11.46010316606728"><ele>605.0</ele><time>2026-04-30T10:41:09Z</time></trkpt><trkpt lat="44.17878113768809" lon="11.460194889802755"><ele>605.0</ele><time>2026-04-30T10:41:10Z</time></trkpt><trkpt lat="44.1787379179678" lon="11.460363243274545"><ele>605.0</ele><time>2026-04-30T10:41:12Z</time></trkpt><trkpt lat="44.17866846431986" lon="11.460476105593433"><ele>605.0</ele><time>2026-04-30T10:41:14Z</time></trkpt><trkpt lat="44.17860955296089" lon="11.46056634562321"><ele>605.0</ele><time>2026-04-30T10:41:16Z</time></trkpt><trkpt lat="44.17855492240803" lon="11.460667334712115"><ele>605.0</ele><time>2026-04-30T10:41:18Z</time></trkpt><trkpt lat="44.17849456485976" lon="11.460782830651954"><ele>605.0</ele><time>2026-04-30T10:41:20Z</time></trkpt><trkpt lat="44.178446758484505" lon="11.460898751188392"><ele>605.0</ele><time>2026-04-30T10:41:22Z</time></trkpt><trkpt lat="44.17836797795499" lon="11.461051880946389"><ele>605.0</ele><time>2026-04-30T10:41:24Z</time></trkpt><trkpt lat="44.17829764420874" lon="11.461122385052361"><ele>605.0</ele><time>2026-04-30T10:41:25Z</time></trkpt><trkpt lat="44.17822714359715" lon="11.461187040677126"><ele>605.0</ele><time>2026-04-30T10:41:26Z</time></trkpt><trkpt lat="44.17818213333288" lon="11.46125971643085"><ele>605.0</ele><time>2026-04-30T10:41:27Z</time></trkpt><trkpt lat="44.178104147956375" lon="11.461364871948803"><ele>605.0</ele><time>2026-04-30T10:41:29Z</time></trkpt><trkpt lat="44.178092265347836" lon="11.461527145961083"><ele>605.0</ele><time>2026-04-30T10:41:31Z</time></trkpt><trkpt lat="44.17808320080116" lon="11.461620903002757"><ele>605.0</ele><time>2026-04-30T10:41:33Z</time></trkpt><trkpt lat="44.17808302805933" lon="11.461759479831604"><ele>602.3333333333333</ele><time>2026-04-30T10:41:35Z</time></trkpt><trkpt lat="44.17808140167852" lon="11.46189193797679"><ele>599.6666666666666</ele><time>2026-04-30T10:41:37Z</time></trkpt><trkpt lat="44.17806563606595" lon="11.462012509389236"><ele>597.0</ele><time>2026-04-30T10:41:39Z</time></trkpt><trkpt lat="44.17802166104483" lon="11.462111752742913"><ele>594.3333333333334</ele><time>2026-04-30T10:41:41Z</time></trkpt><trkpt lat="44.177994194574104" lon="11.462237295642604"><ele>591.6666666666667</ele><time>2026-04-30T10:41:43Z</time></trkpt><trkpt lat="44.17796616916352" lon="11.462331252649037"><ele>589.0</ele><time>2026-04-30T10:41:44Z</time></trkpt><trkpt lat="44.177899216148404" lon="11.462416391870745"><ele>589.0</ele><time>2026-04-30T10:41:45Z</time></trkpt><trkpt lat="44.177838702830094" lon="11.4624630957581"><ele>589.0</ele><time>2026-04-30T10:41:46Z</time></trkpt><trkpt lat="44.17774913446954" lon="11.462573590612736"><ele>589.0</ele><time>2026-04-30T10:41:48Z</time></trkpt><trkpt lat="44.17771788151195" lon="11.462674403610503"><ele>589.0</ele><time>2026-04-30T10:41:49Z</time></trkpt><trkpt lat="44.1776818223105" lon="11.462805997126987"><ele>589.0</ele><time>2026-04-30T10:41:50Z</time></trkpt><trkpt lat="44.177629946774324" lon="11.46291019651927"><ele>589.0</ele><time>2026-04-30T10:41:51Z</time></trkpt><trkpt lat="44.177582889953605" lon="11.462987781020885"><ele>589.0</ele><time>2026-04-30T10:41:52Z</time></trkpt><trkpt lat="44.17757114828004" lon="11.463079613003142"><ele>589.0</ele><time>2026-04-30T10:41:53Z</time></trkpt><trkpt lat="44.17757194391092" lon="11.463176563002984"><ele>589.0</ele><time>2026-04-30T10:41:54Z</time></trkpt><trkpt lat="44.17759421247103" lon="11.463296687215712"><ele>589.0</ele><time>2026-04-30T10:41:55Z</time></trkpt><trkpt lat="44.17762161621678" lon="11.463435178614079"><ele>589.0</ele><time>2026-04-30T10:41:56Z</time></trkpt><trkpt lat="44.17763013587321" lon="11.463554466242172"><ele>589.0</ele><time>2026-04-30T10:41:57Z</time></trkpt><trkpt lat="44.17760727884079" lon="11.463664773270077"><ele>589.0</ele><time>2026-04-30T10:41:58Z</time></trkpt><trkpt lat="44.17755976957605" lon="11.463754618588409"><ele>589.0</ele><time>2026-04-30T10:41:59Z</time></trkpt><trkpt lat="44.1775321158113" lon="11.463845586673699"><ele>589.0</ele><time>2026-04-30T10:42:00Z</time></trkpt><trkpt lat="44.177525541700646" lon="11.463976771016146"><ele>589.0</ele><time>2026-04-30T10:42:01Z</time></trkpt><trkpt lat="44.17751831638435" lon="11.464127794888123"><ele>589.0</ele><time>2026-04-30T10:42:02Z</time></trkpt><trkpt lat="44.17749491119114" lon="11.464272715466933"><ele>588.5</ele><time>2026-04-30T10:42:03Z</time></trkpt><trkpt lat="44.17747175227469" lon="11.464386793313889"><ele>588.0</ele><time>2026-04-30T10:42:04Z</time></trkpt><trkpt lat="44.17744968728138" lon="11.464480496006567"><ele>587.5</ele><time>2026-04-30T10:42:05Z</time></trkpt><trkpt lat="44.17742239950623" lon="11.464561533090412"><ele>587.0</ele><time>2026-04-30T10:42:06Z</time></trkpt><trkpt lat="44.177375630639006" lon="11.46465890886674"><ele>586.5</ele><time>2026-04-30T10:42:08Z</time></trkpt><trkpt lat="44.17731334556489" lon="11.464707570821425"><ele>586.0</ele><time>2026-04-30T10:42:10Z</time></trkpt><trkpt lat="44.17726246974931" lon="11.464788094883337"><ele>584.1666666666667</ele><time>2026-04-30T10:42:13Z</time></trkpt><trkpt lat="44.17721564845844" lon="11.464894415203423"><ele>582.3333333333334</ele><time>2026-04-30T10:42:15Z</time></trkpt><trkpt lat="44.17717166988385" lon="11.4649767129154"><ele>580.5</ele><time>2026-04-30T10:42:17Z</time></trkpt><trkpt lat="44.177127947062495" lon="11.46507658046669"><ele>578.6666666666666</ele><time>2026-04-30T10:42:19Z</time></trkpt><trkpt lat="44.17705497839726" lon="11.465167596403127"><ele>576.8333333333333</ele><time>2026-04-30T10:42:21Z</time></trkpt><trkpt lat="44.17702161526394" lon="11.46525783209931"><ele>575.0</ele><time>2026-04-30T10:42:22Z</time></trkpt><trkpt lat="44.1769724003465" lon="11.465370483193722"><ele>578.2</ele><time>2026-04-30T10:42:23Z</time></trkpt><trkpt lat="44.17691152745807" lon="11.465517733330348"><ele>581.4</ele><time>2026-04-30T10:42:24Z</time></trkpt><trkpt lat="44.17686019243489" lon="11.465631158882326"><ele>584.6</ele><time>2026-04-30T10:42:25Z</time></trkpt><trkpt lat="44.17681104035362" lon="11.465704547409095"><ele>587.8</ele><time>2026-04-30T10:42:26Z</time></trkpt><trkpt lat="44.17673566094666" lon="11.465752525499482"><ele>591.0</ele><time>2026-04-30T10:42:27Z</time></trkpt><trkpt lat="44.17665922054856" lon="11.465774196253598"><ele>591.0</ele><time>2026-04-30T10:42:28Z</time></trkpt><trkpt lat="44.176529001654536" lon="11.465777736261638"><ele>591.0</ele><time>2026-04-30T10:42:30Z</time></trkpt><trkpt lat="44.17644081938315" lon="11.46585687138041"><ele>591.0</ele><time>2026-04-30T10:42:31Z</time></trkpt><trkpt lat="44.17637945105554" lon="11.465961833738492"><ele>591.0</ele><time>2026-04-30T10:42:32Z</time></trkpt><trkpt lat="44.17633138767583" lon="11.466056687930436"><ele>591.0</ele><time>2026-04-30T10:42:33Z</time></trkpt><trkpt lat="44.17626697026607" lon="11.466118180052597"><ele>590.0</ele><time>2026-04-30T10:42:34Z</time></trkpt><trkpt lat="44.17621407751947" lon="11.46616921925025"><ele>589.0</ele><time>2026-04-30T10:42:36Z</time></trkpt><trkpt lat="44.17625288617724" lon="11.466297654528983"><ele>588.0</ele><time>2026-04-30T10:42:38Z</time></trkpt><trkpt lat="44.1762036656361" lon="11.4663587657455"><ele>587.0</ele><time>2026-04-30T10:42:39Z</time></trkpt><trkpt lat="44.17612474883922" lon="11.466437712715123"><ele>586.0</ele><time>2026-04-30T10:42:40Z</time></trkpt><trkpt lat="44.176047795019585" lon="11.466553581348258"><ele>585.0</ele><time>2026-04-30T10:42:41Z</time></trkpt><trkpt lat="44.17601096391996" lon="11.466628530396964"><ele>588.0</ele><time>2026-04-30T10:42:42Z</time></trkpt><trkpt lat="44.175954239956326" lon="11.466678595388197"><ele>591.0</ele><time>2026-04-30T10:42:43Z</time></trkpt><trkpt lat="44.1758906618469" lon="11.466735670891154"><ele>594.0</ele><time>2026-04-30T10:42:44Z</time></trkpt><trkpt lat="44.175857514689284" lon="11.466851137913434"><ele>597.0</ele><time>2026-04-30T10:42:46Z</time></trkpt><trkpt lat="44.175836843711295" lon="11.466939755842594"><ele>600.0</ele><time>2026-04-30T10:42:53Z</time></trkpt><trkpt lat="44.17581237021205" lon="11.467023732715647"><ele>603.0</ele><time>2026-04-30T10:42:55Z</time></trkpt><trkpt lat="44.17575526534591" lon="11.467105471065024"><ele>606.0</ele><time>2026-04-30T10:42:56Z</time></trkpt><trkpt lat="44.175684398454784" lon="11.467173795330867"><ele>607.0</ele><time>2026-04-30T10:42:57Z</time></trkpt><trkpt lat="44.17562782804296" lon="11.467250064483391"><ele>608.0</ele><time>2026-04-30T10:43:00Z</time></trkpt><trkpt lat="44.175520637706136" lon="11.4673502872657"><ele>609.0</ele><time>2026-04-30T10:43:02Z</time></trkpt><trkpt lat="44.175438134412424" lon="11.467426847955007"><ele>610.0</ele><time>2026-04-30T10:43:03Z</time></trkpt><trkpt lat="44.17538163339705" lon="11.467507123672393"><ele>611.0</ele><time>2026-04-30T10:43:04Z</time></trkpt><trkpt lat="44.175355128398564" lon="11.467631879190947"><ele>611.0</ele><time>2026-04-30T10:43:05Z</time></trkpt><trkpt lat="44.17534145881634" lon="11.467774616746025"><ele>611.0</ele><time>2026-04-30T10:43:06Z</time></trkpt><trkpt lat="44.17534683109502" lon="11.4679125301766"><ele>611.0</ele><time>2026-04-30T10:43:07Z</time></trkpt><trkpt lat="44.175340978152036" lon="11.468037056121517"><ele>611.0</ele><time>2026-04-30T10:43:08Z</time></trkpt><trkpt lat="44.17532844779254" lon="11.468153607839179"><ele>611.0</ele><time>2026-04-30T10:43:09Z</time></trkpt><trkpt lat="44.17529008378472" lon="11.46825472715763"><ele>610.2</ele><time>2026-04-30T10:43:10Z</time></trkpt><trkpt lat="44.175226079394804" lon="11.468353883923907"><ele>609.4000000000001</ele><time>2026-04-30T10:43:11Z</time></trkpt><trkpt lat="44.17514630857275" lon="11.46847354149692"><ele>608.6</ele><time>2026-04-30T10:43:12Z</time></trkpt><trkpt lat="44.175078240637376" lon="11.46861393916343"><ele>607.8000000000001</ele><time>2026-04-30T10:43:13Z</time></trkpt><trkpt lat="44.175031923897926" lon="11.468738376738518"><ele>607.0</ele><time>2026-04-30T10:43:14Z</time></trkpt><trkpt lat="44.17500745902495" lon="11.468854867562793"><ele>605.4</ele><time>2026-04-30T10:43:15Z</time></trkpt><trkpt lat="44.174970225556976" lon="11.468987884519679"><ele>603.8000000000001</ele><time>2026-04-30T10:43:16Z</time></trkpt><trkpt lat="44.17493135358439" lon="11.469095701842361"><ele>602.2</ele><time>2026-04-30T10:43:17Z</time></trkpt><trkpt lat="44.174888494561465" lon="11.469225460476475"><ele>600.6</ele><time>2026-04-30T10:43:19Z</time></trkpt><trkpt lat="44.174831229225234" lon="11.469289889483807"><ele>599.0</ele><time>2026-04-30T10:43:23Z</time></trkpt><trkpt lat="44.1747928117377" lon="11.469395386051874"><ele>596.0</ele><time>2026-04-30T10:43:26Z</time></trkpt><trkpt lat="44.17474876219306" lon="11.469490801487096"><ele>593.0</ele><time>2026-04-30T10:43:27Z</time></trkpt><trkpt lat="44.17469351217716" lon="11.469655919004415"><ele>590.0</ele><time>2026-04-30T10:43:28Z</time></trkpt><trkpt lat="44.17465513976067" lon="11.469748520487078"><ele>587.0</ele><time>2026-04-30T10:43:29Z</time></trkpt><trkpt lat="44.17464322453651" lon="11.469874628073137"><ele>584.0</ele><time>2026-04-30T10:43:30Z</time></trkpt><trkpt lat="44.174608018023896" lon="11.469991569973415"><ele>584.0</ele><time>2026-04-30T10:43:31Z</time></trkpt><trkpt lat="44.17452125447307" lon="11.470177170939852"><ele>584.0</ele><time>2026-04-30T10:43:32Z</time></trkpt><trkpt lat="44.17445440310096" lon="11.470289912206578"><ele>584.0</ele><time>2026-04-30T10:43:33Z</time></trkpt><trkpt lat="44.174362260601896" lon="11.470330475336153"><ele>584.0</ele><time>2026-04-30T10:43:34Z</time></trkpt><trkpt lat="44.17429636719842" lon="11.470398572763973"><ele>584.0</ele><time>2026-04-30T10:43:35Z</time></trkpt><trkpt lat="44.174245816889844" lon="11.470462937707165"><ele>584.4</ele><time>2026-04-30T10:43:36Z</time></trkpt><trkpt lat="44.17425512775322" lon="11.470588895717784"><ele>584.8</ele><time>2026-04-30T10:43:37Z</time></trkpt><trkpt lat="44.17424167742129" lon="11.470713347479467"><ele>585.2</ele><time>2026-04-30T10:43:38Z</time></trkpt><trkpt lat="44.17418636222261" lon="11.470812423490479"><ele>585.6</ele><time>2026-04-30T10:43:40Z</time></trkpt><trkpt lat="44.174115374874255" lon="11.470820183618814"><ele>586.0</ele><time>2026-04-30T10:43:41Z</time></trkpt><trkpt lat="44.17400765371879" lon="11.470978947430204"><ele>582.2</ele><time>2026-04-30T10:43:43Z</time></trkpt><trkpt lat="44.17397590814654" lon="11.471177111755551"><ele>578.4000000000001</ele><time>2026-04-30T10:43:44Z</time></trkpt><trkpt lat="44.17395691974946" lon="11.471264299792066"><ele>574.6</ele><time>2026-04-30T10:43:45Z</time></trkpt><trkpt lat="44.17395615019398" lon="11.471404446666385"><ele>570.8000000000001</ele><time>2026-04-30T10:43:47Z</time></trkpt><trkpt lat="44.17387771304741" lon="11.47146117546144"><ele>567.0</ele><time>2026-04-30T10:43:49Z</time></trkpt><trkpt lat="44.17379403632478" lon="11.471509617449431"><ele>567.0</ele><time>2026-04-30T10:43:50Z</time></trkpt><trkpt lat="44.173722388596865" lon="11.471551675664854"><ele>567.0</ele><time>2026-04-30T10:43:51Z</time></trkpt><trkpt lat="44.173658141184994" lon="11.471567823691306"><ele>567.0</ele><time>2026-04-30T10:43:52Z</time></trkpt><trkpt lat="44.17359586483105" lon="11.471593707269502"><ele>567.0</ele><time>2026-04-30T10:43:54Z</time></trkpt><trkpt lat="44.17350218763193" lon="11.471600814164496"><ele>567.0</ele><time>2026-04-30T10:43:57Z</time></trkpt><trkpt lat="44.17341447087328" lon="11.471646886017458"><ele>567.0</ele><time>2026-04-30T10:43:59Z</time></trkpt><trkpt lat="44.1733544851284" lon="11.471698091911415"><ele>567.0</ele><time>2026-04-30T10:44:00Z</time></trkpt><trkpt lat="44.17328838084304" lon="11.47175076921812"><ele>567.0</ele><time>2026-04-30T10:44:01Z</time></trkpt><trkpt lat="44.17322060993081" lon="11.471785142676508"><ele>567.0</ele><time>2026-04-30T10:44:02Z</time></trkpt><trkpt lat="44.1731412451748" lon="11.47187090085335"><ele>567.0</ele><time>2026-04-30T10:44:04Z</time></trkpt><trkpt lat="44.17307977545429" lon="11.472005313272266"><ele>567.0</ele><time>2026-04-30T10:44:06Z</time></trkpt><trkpt lat="44.17316167802169" lon="11.472072580442278"><ele>567.0</ele><time>2026-04-30T10:44:07Z</time></trkpt><trkpt lat="44.1732350201005" lon="11.472125797168744"><ele>567.0</ele><time>2026-04-30T10:44:09Z</time></trkpt><trkpt lat="44.17331166189248" lon="11.472131267638721"><ele>567.0</ele><time>2026-04-30T10:44:10Z</time></trkpt><trkpt lat="44.173426779871996" lon="11.472112605852498"><ele>567.0</ele><time>2026-04-30T10:44:12Z</time></trkpt><trkpt lat="44.173530974802006" lon="11.472086096531877"><ele>567.0</ele><time>2026-04-30T10:44:14Z</time></trkpt><trkpt lat="44.17359892109286" lon="11.472082324702434"><ele>567.0</ele><time>2026-04-30T10:44:15Z</time></trkpt><trkpt lat="44.17367370929403" lon="11.4720813846698"><ele>567.0</ele><time>2026-04-30T10:44:16Z</time></trkpt><trkpt lat="44.17374443185053" lon="11.47208155761361"><ele>567.0</ele><time>2026-04-30T10:44:17Z</time></trkpt><trkpt lat="44.17382091164345" lon="11.472091322647278"><ele>567.0</ele><time>2026-04-30T10:44:18Z</time></trkpt><trkpt lat="44.1739039059543" lon="11.472093476052896"><ele>567.0</ele><time>2026-04-30T10:44:19Z</time></trkpt><trkpt lat="44.173984699558275" lon="11.472099066566042"><ele>567.0</ele><time>2026-04-30T10:44:20Z</time></trkpt><trkpt lat="44.17405852954769" lon="11.47211296973032"><ele>567.0</ele><time>2026-04-30T10:44:21Z</time></trkpt><trkpt lat="44.174131042985834" lon="11.472112209157704"><ele>567.8333333333334</ele><time>2026-04-30T10:44:22Z</time></trkpt><trkpt lat="44.174198036201005" lon="11.472100170076423"><ele>568.6666666666666</ele><time>2026-04-30T10:44:23Z</time></trkpt><trkpt lat="44.17430085405934" lon="11.472018684567292"><ele>569.5</ele><time>2026-04-30T10:44:25Z</time></trkpt><trkpt lat="44.174399343777516" lon="11.471932103880821"><ele>570.3333333333333</ele><time>2026-04-30T10:44:27Z</time></trkpt><trkpt lat="44.17445947953966" lon="11.4719013954028"><ele>571.1666666666666</ele><time>2026-04-30T10:44:28Z</time></trkpt><trkpt lat="44.1745241339834" lon="11.471870606304723"><ele>572.0</ele><time>2026-04-30T10:44:29Z</time></trkpt><trkpt lat="44.174632816660356" lon="11.471861509553865"><ele>572.0</ele><time>2026-04-30T10:44:31Z</time></trkpt><trkpt lat="44.1747590575423" lon="11.471895961055155"><ele>572.0</ele><time>2026-04-30T10:44:33Z</time></trkpt><trkpt lat="44.174822441303164" lon="11.471901701441022"><ele>572.0</ele><time>2026-04-30T10:44:34Z</time></trkpt><trkpt lat="44.174889898772925" lon="11.471893908011037"><ele>572.0</ele><time>2026-04-30T10:44:35Z</time></trkpt><trkpt lat="44.17499589224129" lon="11.47180716015985"><ele>572.0</ele><time>2026-04-30T10:44:37Z</time></trkpt><trkpt lat="44.1750209745121" lon="11.471719395267494"><ele>568.2857142857142</ele><time>2026-04-30T10:44:38Z</time></trkpt><trkpt lat="44.1750361115426" lon="11.47163307484411"><ele>564.5714285714286</ele><time>2026-04-30T10:44:39Z</time></trkpt><trkpt lat="44.175072571385286" lon="11.471560116736029"><ele>560.8571428571429</ele><time>2026-04-30T10:44:40Z</time></trkpt><trkpt lat="44.17512155518061" lon="11.47150477701123"><ele>557.1428571428571</ele><time>2026-04-30T10:44:41Z</time></trkpt><trkpt lat="44.17518550299536" lon="11.471486969258185"><ele>553.4285714285714</ele><time>2026-04-30T10:44:42Z</time></trkpt><trkpt lat="44.175269685058694" lon="11.471480414645274"><ele>549.7142857142857</ele><time>2026-04-30T10:44:44Z</time></trkpt><trkpt lat="44.175347232337074" lon="11.471449372340732"><ele>546.0</ele><time>2026-04-30T10:44:47Z</time></trkpt><trkpt lat="44.175436812319454" lon="11.471432573617676"><ele>546.0</ele><time>2026-04-30T10:44:49Z</time></trkpt><trkpt lat="44.17554210963727" lon="11.47135806210379"><ele>546.0</ele><time>2026-04-30T10:44:51Z</time></trkpt><trkpt lat="44.175607894115274" lon="11.471281140300837"><ele>546.0</ele><time>2026-04-30T10:44:52Z</time></trkpt><trkpt lat="44.17570823915775" lon="11.47113602451156"><ele>546.0</ele><time>2026-04-30T10:44:53Z</time></trkpt><trkpt lat="44.17580193816582" lon="11.471029524825813"><ele>540.5</ele><time>2026-04-30T10:44:54Z</time></trkpt><trkpt lat="44.175900110215856" lon="11.47091205549264"><ele>535.0</ele><time>2026-04-30T10:44:55Z</time></trkpt><trkpt lat="44.17597707908085" lon="11.470790357011547"><ele>529.5</ele><time>2026-04-30T10:44:56Z</time></trkpt><trkpt lat="44.17602855616843" lon="11.47064890866762"><ele>524.0</ele><time>2026-04-30T10:44:57Z</time></trkpt><trkpt lat="44.1760593131024" lon="11.470485371175911"><ele>526.1428571428571</ele><time>2026-04-30T10:44:58Z</time></trkpt><trkpt lat="44.1760778125466" lon="11.470335788104473"><ele>528.2857142857143</ele><time>2026-04-30T10:44:59Z</time></trkpt><trkpt lat="44.1760958608468" lon="11.470239897289645"><ele>530.4285714285714</ele><time>2026-04-30T10:45:00Z</time></trkpt><trkpt lat="44.17613656595801" lon="11.4701706552088"><ele>532.5714285714286</ele><time>2026-04-30T10:45:01Z</time></trkpt><trkpt lat="44.176186645239476" lon="11.470099715322288"><ele>534.7142857142858</ele><time>2026-04-30T10:45:02Z</time></trkpt><trkpt lat="44.176234516698045" lon="11.470037639581742"><ele>536.8571428571429</ele><time>2026-04-30T10:45:03Z</time></trkpt><trkpt lat="44.17629967823179" lon="11.470040591977284"><ele>539.0</ele><time>2026-04-30T10:45:05Z</time></trkpt><trkpt lat="44.17634540336698" lon="11.470156662630558"><ele>539.0</ele><time>2026-04-30T10:45:07Z</time></trkpt><trkpt lat="44.17636991756767" lon="11.470279477084041"><ele>539.0</ele><time>2026-04-30T10:45:09Z</time></trkpt><trkpt lat="44.1763615963456" lon="11.470405278747203"><ele>539.0</ele><time>2026-04-30T10:45:11Z</time></trkpt><trkpt lat="44.176335771823865" lon="11.47054694235053"><ele>539.0</ele><time>2026-04-30T10:45:13Z</time></trkpt><trkpt lat="44.17628751781261" lon="11.470722940785029"><ele>539.0</ele><time>2026-04-30T10:45:15Z</time></trkpt><trkpt lat="44.17627991453778" lon="11.470837794268732"><ele>536.5</ele><time>2026-04-30T10:45:16Z</time></trkpt><trkpt lat="44.17629277625216" lon="11.470961917345704"><ele>534.0</ele><time>2026-04-30T10:45:17Z</time></trkpt><trkpt lat="44.17628461179008" lon="11.471078129256792"><ele>531.5</ele><time>2026-04-30T10:45:18Z</time></trkpt><trkpt lat="44.17628032736997" lon="11.471187977692269"><ele>529.0</ele><time>2026-04-30T10:45:19Z</time></trkpt><trkpt lat="44.17626841039568" lon="11.471289223729212"><ele>526.5</ele><time>2026-04-30T10:45:20Z</time></trkpt><trkpt lat="44.17625129001568" lon="11.47138919641015"><ele>524.0</ele><time>2026-04-30T10:45:21Z</time></trkpt><trkpt lat="44.176230270182444" lon="11.471534229168169"><ele>522.5</ele><time>2026-04-30T10:45:23Z</time></trkpt><trkpt lat="44.17624078180605" lon="11.471635483603153"><ele>521.0</ele><time>2026-04-30T10:45:25Z</time></trkpt><trkpt lat="44.17623336662143" lon="11.471762758103523"><ele>519.5</ele><time>2026-04-30T10:45:27Z</time></trkpt><trkpt lat="44.17630954521974" lon="11.471869948658815"><ele>518.0</ele><time>2026-04-30T10:45:29Z</time></trkpt><trkpt lat="44.1763978060485" lon="11.471922516575416"><ele>516.5</ele><time>2026-04-30T10:45:31Z</time></trkpt><trkpt lat="44.17647727410897" lon="11.471920230870357"><ele>515.0</ele><time>2026-04-30T10:45:33Z</time></trkpt><trkpt lat="44.17653697094963" lon="11.47196073053059"><ele>508.8</ele><time>2026-04-30T10:45:38Z</time></trkpt><trkpt lat="44.17660720344642" lon="11.472083620892432"><ele>502.6</ele><time>2026-04-30T10:45:40Z</time></trkpt><trkpt lat="44.176624070755736" lon="11.47220513770659"><ele>496.4</ele><time>2026-04-30T10:45:42Z</time></trkpt><trkpt lat="44.17671616611454" lon="11.472177937199445"><ele>490.2</ele><time>2026-04-30T10:45:44Z</time></trkpt><trkpt lat="44.17678850778054" lon="11.472107492723275"><ele>484.0</ele><time>2026-04-30T10:45:45Z</time></trkpt><trkpt lat="44.1768389918001" lon="11.47203544453218"><ele>484.00000000000006</ele><time>2026-04-30T10:45:46Z</time></trkpt><trkpt lat="44.17688065940153" lon="11.471966215848427"><ele>484.0</ele><time>2026-04-30T10:45:47Z</time></trkpt><trkpt lat="44.17693973716279" lon="11.471934067255297"><ele>484.0</ele><time>2026-04-30T10:45:48Z</time></trkpt><trkpt lat="44.177023705892495" lon="11.47192370058139"><ele>484.0</ele><time>2026-04-30T10:45:49Z</time></trkpt><trkpt lat="44.17711907268798" lon="11.471951508983196"><ele>484.00000000000006</ele><time>2026-04-30T10:45:51Z</time></trkpt><trkpt lat="44.1771146597919" lon="11.472083302236403"><ele>484.0</ele><time>2026-04-30T10:45:53Z</time></trkpt><trkpt lat="44.17708514463017" lon="11.472220802334817"><ele>483.2</ele><time>2026-04-30T10:45:55Z</time></trkpt><trkpt lat="44.1770766908533" lon="11.472313513751947"><ele>482.4</ele><time>2026-04-30T10:45:57Z</time></trkpt><trkpt lat="44.17709929995657" lon="11.472450793359148"><ele>481.6</ele><time>2026-04-30T10:46:00Z</time></trkpt><trkpt lat="44.17706411398577" lon="11.47256291851559"><ele>480.8</ele><time>2026-04-30T10:46:02Z</time></trkpt><trkpt lat="44.177034514745095" lon="11.47271683919927"><ele>480.0</ele><time>2026-04-30T10:46:04Z</time></trkpt><trkpt lat="44.17707322875561" lon="11.472820669360608"><ele>480.0</ele><time>2026-04-30T10:46:06Z</time></trkpt><trkpt lat="44.177170913724474" lon="11.472932806010933"><ele>480.0</ele><time>2026-04-30T10:46:08Z</time></trkpt><trkpt lat="44.17720804103808" lon="11.473025956541898"><ele>480.0</ele><time>2026-04-30T10:46:09Z</time></trkpt><trkpt lat="44.177304529046275" lon="11.473107075339302"><ele>480.0</ele><time>2026-04-30T10:46:11Z</time></trkpt><trkpt lat="44.177367726622" lon="11.473105649322093"><ele>480.0</ele><time>2026-04-30T10:46:12Z</time></trkpt><trkpt lat="44.17743922492077" lon="11.473138090434997"><ele>474.0</ele><time>2026-04-30T10:46:13Z</time></trkpt><trkpt lat="44.177517830747234" lon="11.473211975778831"><ele>468.0</ele><time>2026-04-30T10:46:14Z</time></trkpt><trkpt lat="44.177591306838295" lon="11.473287753803296"><ele>462.0</ele><time>2026-04-30T10:46:15Z</time></trkpt><trkpt lat="44.177648659213816" lon="11.47334785763507"><ele>456.0</ele><time>2026-04-30T10:46:16Z</time></trkpt><trkpt lat="44.17770200059216" lon="11.473456731074481"><ele>450.0</ele><time>2026-04-30T10:46:17Z</time></trkpt><trkpt lat="44.17775471133777" lon="11.473583579275989"><ele>450.0</ele><time>2026-04-30T10:46:18Z</time></trkpt><trkpt lat="44.17778973171983" lon="11.473690714483656"><ele>450.0</ele><time>2026-04-30T10:46:19Z</time></trkpt><trkpt lat="44.17780729313628" lon="11.473783073910626"><ele>450.0</ele><time>2026-04-30T10:46:20Z</time></trkpt><trkpt lat="44.17783919072857" lon="11.47387452447836"><ele>450.0</ele><time>2026-04-30T10:46:21Z</time></trkpt><trkpt lat="44.17789883324107" lon="11.473984333187103"><ele>450.0</ele><time>2026-04-30T10:46:22Z</time></trkpt><trkpt lat="44.177964854851986" lon="11.474068863294775"><ele>450.0</ele><time>2026-04-30T10:46:23Z</time></trkpt><trkpt lat="44.1780068332632" lon="11.47415144702972"><ele>450.5</ele><time>2026-04-30T10:46:24Z</time></trkpt><trkpt lat="44.17805100706679" lon="11.474233970712104"><ele>451.0</ele><time>2026-04-30T10:46:25Z</time></trkpt><trkpt lat="44.17809250480101" lon="11.474341380528251"><ele>451.5</ele><time>2026-04-30T10:46:27Z</time></trkpt><trkpt lat="44.178089323242936" lon="11.474468960831674"><ele>452.0</ele><time>2026-04-30T10:46:30Z</time></trkpt><trkpt lat="44.17813276774669" lon="11.474583207845754"><ele>452.5</ele><time>2026-04-30T10:46:32Z</time></trkpt><trkpt lat="44.178196807205715" lon="11.47466016625254"><ele>453.0</ele><time>2026-04-30T10:46:33Z</time></trkpt><trkpt lat="44.1782627815309" lon="11.47473157618302"><ele>447.8333333333333</ele><time>2026-04-30T10:46:34Z</time></trkpt><trkpt lat="44.178310666397564" lon="11.474797975234361"><ele>442.66666666666663</ele><time>2026-04-30T10:46:35Z</time></trkpt><trkpt lat="44.17835862787124" lon="11.474986715360838"><ele>437.5</ele><time>2026-04-30T10:46:37Z</time></trkpt><trkpt lat="44.17836632279776" lon="11.475102032325147"><ele>432.3333333333333</ele><time>2026-04-30T10:46:38Z</time></trkpt><trkpt lat="44.17837140503396" lon="11.475207303694045"><ele>427.16666666666663</ele><time>2026-04-30T10:46:39Z</time></trkpt><trkpt lat="44.17839241418455" lon="11.475313743229014"><ele>422.0</ele><time>2026-04-30T10:46:40Z</time></trkpt><trkpt lat="44.17841189788719" lon="11.475422979777047"><ele>420.99999999999994</ele><time>2026-04-30T10:46:41Z</time></trkpt><trkpt lat="44.1784122973238" lon="11.475524915916418"><ele>420.0</ele><time>2026-04-30T10:46:42Z</time></trkpt><trkpt lat="44.17840402263147" lon="11.475620094230976"><ele>419.0</ele><time>2026-04-30T10:46:43Z</time></trkpt><trkpt lat="44.178451266178214" lon="11.475760339493874"><ele>418.0</ele><time>2026-04-30T10:46:45Z</time></trkpt><trkpt lat="44.17850575232071" lon="11.475832996651038"><ele>416.99999999999994</ele><time>2026-04-30T10:46:46Z</time></trkpt><trkpt lat="44.178530029080285" lon="11.47592198100402"><ele>416.0</ele><time>2026-04-30T10:46:47Z</time></trkpt><trkpt lat="44.178529374967766" lon="11.476011944106707"><ele>415.99999999999994</ele><time>2026-04-30T10:46:48Z</time></trkpt><trkpt lat="44.17851577588115" lon="11.476107875447205"><ele>416.0</ele><time>2026-04-30T10:46:49Z</time></trkpt><trkpt lat="44.17846374100953" lon="11.47625653375009"><ele>416.0</ele><time>2026-04-30T10:46:51Z</time></trkpt><trkpt lat="44.1784149573086" lon="11.476381894954237"><ele>416.0</ele><time>2026-04-30T10:46:53Z</time></trkpt><trkpt lat="44.17841485098795" lon="11.476487121818407"><ele>415.99999999999994</ele><time>2026-04-30T10:46:54Z</time></trkpt><trkpt lat="44.17843043895919" lon="11.476579667358203"><ele>416.0</ele><time>2026-04-30T10:46:55Z</time></trkpt><trkpt lat="44.17845838939463" lon="11.476663013008814"><ele>415.16666666666663</ele><time>2026-04-30T10:46:56Z</time></trkpt><trkpt lat="44.17849114962867" lon="11.476787012620383"><ele>414.3333333333333</ele><time>2026-04-30T10:46:58Z</time></trkpt><trkpt lat="44.1785204406625" lon="11.476901378863174"><ele>413.5</ele><time>2026-04-30T10:47:00Z</time></trkpt><trkpt lat="44.17854274459963" lon="11.476991390533756"><ele>412.66666666666663</ele><time>2026-04-30T10:47:01Z</time></trkpt><trkpt lat="44.17855674361543" lon="11.477103098197436"><ele>411.8333333333333</ele><time>2026-04-30T10:47:02Z</time></trkpt><trkpt lat="44.17856338822956" lon="11.477215804767823"><ele>411.0</ele><time>2026-04-30T10:47:03Z</time></trkpt><trkpt lat="44.178549937546705" lon="11.47731217620823"><ele>408.4</ele><time>2026-04-30T10:47:04Z</time></trkpt><trkpt lat="44.17850947880933" lon="11.477389826137065"><ele>405.8</ele><time>2026-04-30T10:47:05Z</time></trkpt><trkpt lat="44.17845895094784" lon="11.477452756846093"><ele>403.2</ele><time>2026-04-30T10:47:06Z</time></trkpt><trkpt lat="44.1783798492067" lon="11.477570447954871"><ele>400.59999999999997</ele><time>2026-04-30T10:47:08Z</time></trkpt><trkpt lat="44.17835562185483" lon="11.47776150615645"><ele>398.0</ele><time>2026-04-30T10:47:10Z</time></trkpt><trkpt lat="44.178323922031275" lon="11.477862833277726"><ele>394.66666666666663</ele><time>2026-04-30T10:47:11Z</time></trkpt><trkpt lat="44.178284131617175" lon="11.477937663805324"><ele>391.3333333333333</ele><time>2026-04-30T10:47:12Z</time></trkpt><trkpt lat="44.17821691819633" lon="11.47803992486155"><ele>388.0</ele><time>2026-04-30T10:47:14Z</time></trkpt><trkpt lat="44.17826495336558" lon="11.478134273659746"><ele>384.66666666666663</ele><time>2026-04-30T10:47:16Z</time></trkpt><trkpt lat="44.17836252717855" lon="11.478118888916075"><ele>381.3333333333333</ele><time>2026-04-30T10:47:18Z</time></trkpt><trkpt lat="44.17841230357504" lon="11.478056399919687"><ele>378.0</ele><time>2026-04-30T10:47:19Z</time></trkpt><trkpt lat="44.17846222769101" lon="11.478001846403632"><ele>378.0</ele><time>2026-04-30T10:47:20Z</time></trkpt><trkpt lat="44.17852399363908" lon="11.477937202149784"><ele>378.0</ele><time>2026-04-30T10:47:21Z</time></trkpt><trkpt lat="44.17859048870138" lon="11.477871091890485"><ele>378.0</ele><time>2026-04-30T10:47:22Z</time></trkpt><trkpt lat="44.17865178455025" lon="11.477794280262298"><ele>378.0</ele><time>2026-04-30T10:47:23Z</time></trkpt><trkpt lat="44.178709132147134" lon="11.477740596258574"><ele>378.0</ele><time>2026-04-30T10:47:24Z</time></trkpt><trkpt lat="44.178795716105675" lon="11.477688122548045"><ele>378.0</ele><time>2026-04-30T10:47:26Z</time></trkpt><trkpt lat="44.178865874252715" lon="11.477679317302568"><ele>378.0</ele><time>2026-04-30T10:47:28Z</time></trkpt><trkpt lat="44.17897148634421" lon="11.477656195785036"><ele>378.0</ele><time>2026-04-30T10:47:30Z</time></trkpt><trkpt lat="44.17900008716764" lon="11.477742389303797"><ele>378.0</ele><time>2026-04-30T10:47:32Z</time></trkpt><trkpt lat="44.1788822438875" lon="11.477866538028243"><ele>378.0</ele><time>2026-04-30T10:47:34Z</time></trkpt><trkpt lat="44.17883372145555" lon="11.47800338772007"><ele>378.0</ele><time>2026-04-30T10:47:36Z</time></trkpt><trkpt lat="44.17880828112755" lon="11.478099181381703"><ele>378.0</ele><time>2026-04-30T10:47:37Z</time></trkpt><trkpt lat="44.17877484794546" lon="11.478178554432038"><ele>378.0</ele><time>2026-04-30T10:47:38Z</time></trkpt><trkpt lat="44.17874320384533" lon="11.478269708764019"><ele>378.0</ele><time>2026-04-30T10:47:39Z</time></trkpt><trkpt lat="44.178711059297555" lon="11.478354422405742"><ele>378.0</ele><time>2026-04-30T10:47:40Z</time></trkpt><trkpt lat="44.17865996047975" lon="11.478434626584361"><ele>378.0</ele><time>2026-04-30T10:47:41Z</time></trkpt><trkpt lat="44.17861680320603" lon="11.478526882311794"><ele>378.0</ele><time>2026-04-30T10:47:42Z</time></trkpt><trkpt lat="44.1785489286743" lon="11.478623637107859"><ele>378.0</ele><time>2026-04-30T10:47:43Z</time></trkpt><trkpt lat="44.17849694177376" lon="11.478752192813166"><ele>378.0</ele><time>2026-04-30T10:47:44Z</time></trkpt><trkpt lat="44.178431955829325" lon="11.478870625597521"><ele>378.0</ele><time>2026-04-30T10:47:45Z</time></trkpt><trkpt lat="44.17838430277116" lon="11.478938570532009"><ele>378.0</ele><time>2026-04-30T10:47:46Z</time></trkpt><trkpt lat="44.17829336087653" lon="11.478983172222195"><ele>378.0</ele><time>2026-04-30T10:47:47Z</time></trkpt><trkpt lat="44.17819258885166" lon="11.479037901715277"><ele>374.59999999999997</ele><time>2026-04-30T10:47:48Z</time></trkpt><trkpt lat="44.1780919163684" lon="11.479067939285335"><ele>371.2</ele><time>2026-04-30T10:47:49Z</time></trkpt><trkpt lat="44.178002366043664" lon="11.479121728149838"><ele>367.8</ele><time>2026-04-30T10:47:50Z</time></trkpt><trkpt lat="44.17791541576691" lon="11.479129549515738"><ele>364.4</ele><time>2026-04-30T10:47:51Z</time></trkpt><trkpt lat="44.17782740807814" lon="11.479190754377205"><ele>361.0</ele><time>2026-04-30T10:47:52Z</time></trkpt><trkpt lat="44.1777323575611" lon="11.479258157015149"><ele>361.0</ele><time>2026-04-30T10:47:53Z</time></trkpt><trkpt lat="44.1776476057366" lon="11.479320154367949"><ele>361.0</ele><time>2026-04-30T10:47:54Z</time></trkpt><trkpt lat="44.17757373380598" lon="11.479357810578623"><ele>361.0</ele><time>2026-04-30T10:47:55Z</time></trkpt><trkpt lat="44.17749650204748" lon="11.479402741750555"><ele>361.0</ele><time>2026-04-30T10:47:56Z</time></trkpt><trkpt lat="44.177420585216176" lon="11.479488035428798"><ele>361.0</ele><time>2026-04-30T10:47:57Z</time></trkpt><trkpt lat="44.17734949396393" lon="11.47955760077843"><ele>361.0</ele><time>2026-04-30T10:47:58Z</time></trkpt><trkpt lat="44.17726928266988" lon="11.479607378806099"><ele>357.66666666666663</ele><time>2026-04-30T10:47:59Z</time></trkpt><trkpt lat="44.17719978443606" lon="11.479648485391756"><ele>354.3333333333333</ele><time>2026-04-30T10:48:00Z</time></trkpt><trkpt lat="44.17714319713893" lon="11.47976406672642"><ele>351.0</ele><time>2026-04-30T10:48:02Z</time></trkpt><trkpt lat="44.17720409645304" lon="11.47979830142002"><ele>347.6666666666667</ele><time>2026-04-30T10:48:03Z</time></trkpt><trkpt lat="44.17728736688512" lon="11.47983408306427"><ele>344.33333333333337</ele><time>2026-04-30T10:48:04Z</time></trkpt><trkpt lat="44.177382912340576" lon="11.479842284508246"><ele>341.0</ele><time>2026-04-30T10:48:05Z</time></trkpt><trkpt lat="44.17745417342965" lon="11.47985736212637"><ele>341.0</ele><time>2026-04-30T10:48:06Z</time></trkpt><trkpt lat="44.17755990536062" lon="11.47983343065109"><ele>341.0</ele><time>2026-04-30T10:48:08Z</time></trkpt><trkpt lat="44.17759211773" lon="11.47991116337956"><ele>341.0</ele><time>2026-04-30T10:48:10Z</time></trkpt><trkpt lat="44.17757140429387" lon="11.480003158459025"><ele>341.0</ele><time>2026-04-30T10:48:11Z</time></trkpt><trkpt lat="44.17748636996555" lon="11.48014496145185"><ele>341.0</ele><time>2026-04-30T10:48:13Z</time></trkpt><trkpt lat="44.1774267934393" lon="11.480188725251384"><ele>341.0</ele><time>2026-04-30T10:48:14Z</time></trkpt><trkpt lat="44.17731917972481" lon="11.480273203647487"><ele>339.1666666666667</ele><time>2026-04-30T10:48:16Z</time></trkpt><trkpt lat="44.1772331338052" lon="11.480291866296326"><ele>337.33333333333337</ele><time>2026-04-30T10:48:18Z</time></trkpt><trkpt lat="44.17713728548346" lon="11.480293062042655"><ele>335.5</ele><time>2026-04-30T10:48:20Z</time></trkpt><trkpt lat="44.177151416765994" lon="11.48040205548296"><ele>333.6666666666667</ele><time>2026-04-30T10:48:22Z</time></trkpt><trkpt lat="44.177218033985376" lon="11.480425361325992"><ele>331.8333333333333</ele><time>2026-04-30T10:48:24Z</time></trkpt><trkpt lat="44.17728935915098" lon="11.480412804782961"><ele>330.0</ele><time>2026-04-30T10:48:27Z</time></trkpt><trkpt lat="44.177364816664515" lon="11.48043583436174"><ele>329.8</ele><time>2026-04-30T10:48:30Z</time></trkpt><trkpt lat="44.177457638894936" lon="11.480494552464078"><ele>329.6</ele><time>2026-04-30T10:48:32Z</time></trkpt><trkpt lat="44.177538824980914" lon="11.48052409393238"><ele>329.4</ele><time>2026-04-30T10:48:34Z</time></trkpt><trkpt lat="44.17761223197083" lon="11.480597492018697"><ele>329.2</ele><time>2026-04-30T10:48:37Z</time></trkpt><trkpt lat="44.177611008339106" lon="11.480713218222888"><ele>329.0</ele><time>2026-04-30T10:48:40Z</time></trkpt><trkpt lat="44.17751029647594" lon="11.480805416339152"><ele>329.0</ele><time>2026-04-30T10:48:42Z</time></trkpt><trkpt lat="44.17738796378543" lon="11.48082921593212"><ele>329.0</ele><time>2026-04-30T10:48:43Z</time></trkpt><trkpt lat="44.17723564066802" lon="11.480866360598403"><ele>329.0</ele><time>2026-04-30T10:48:44Z</time></trkpt><trkpt lat="44.1771083022514" lon="11.480887883244625"><ele>329.0</ele><time>2026-04-30T10:48:45Z</time></trkpt><trkpt lat="44.177014411621265" lon="11.480932849001697"><ele>326.59999999999997</ele><time>2026-04-30T10:48:46Z</time></trkpt><trkpt lat="44.17693587780441" lon="11.48102555738214"><ele>324.2</ele><time>2026-04-30T10:48:47Z</time></trkpt><trkpt lat="44.17684616482895" lon="11.481112808224164"><ele>321.79999999999995</ele><time>2026-04-30T10:48:48Z</time></trkpt><trkpt lat="44.176774725307986" lon="11.481160663462402"><ele>319.4</ele><time>2026-04-30T10:48:49Z</time></trkpt><trkpt lat="44.17670369367497" lon="11.481179366591737"><ele>317.0</ele><time>2026-04-30T10:48:50Z</time></trkpt><trkpt lat="44.17661792826347" lon="11.481062377564555"><ele>317.0</ele><time>2026-04-30T10:48:52Z</time></trkpt><trkpt lat="44.1766585431306" lon="11.481175051221086"><ele>317.0</ele><time>2026-04-30T10:51:11Z</time></trkpt><trkpt lat="44.176566545763734" lon="11.481183890391518"><ele>317.0</ele><time>2026-04-30T10:53:14Z</time></trkpt><trkpt lat="44.17644276195041" lon="11.481068211952"><ele>317.0</ele><time>2026-04-30T10:53:16Z</time></trkpt><trkpt lat="44.17632420596728" lon="11.481051561063252"><ele>317.8</ele><time>2026-04-30T10:53:18Z</time></trkpt><trkpt lat="44.17624420193039" lon="11.481031001365425"><ele>318.6</ele><time>2026-04-30T10:53:19Z</time></trkpt><trkpt lat="44.17616943566445" lon="11.480992305333281"><ele>319.40000000000003</ele><time>2026-04-30T10:53:20Z</time></trkpt><trkpt lat="44.17608475995214" lon="11.480930540545506"><ele>320.2</ele><time>2026-04-30T10:53:22Z</time></trkpt><trkpt lat="44.17600816540085" lon="11.480855524753691"><ele>321.0</ele><time>2026-04-30T10:53:24Z</time></trkpt><trkpt lat="44.17590620801426" lon="11.480859295007921"><ele>321.0</ele><time>2026-04-30T10:53:26Z</time></trkpt><trkpt lat="44.17580614078476" lon="11.480854149537008"><ele>321.0</ele><time>2026-04-30T10:53:27Z</time></trkpt><trkpt lat="44.1756956728968" lon="11.48089681423599"><ele>321.0</ele><time>2026-04-30T10:53:28Z</time></trkpt><trkpt lat="44.17559829454368" lon="11.480949518528151"><ele>321.0</ele><time>2026-04-30T10:53:29Z</time></trkpt><trkpt lat="44.175466021595845" lon="11.481018698727274"><ele>323.0</ele><time>2026-04-30T10:53:30Z</time></trkpt><trkpt lat="44.175402642803995" lon="11.4810636465814"><ele>325.0</ele><time>2026-04-30T10:53:32Z</time></trkpt><trkpt lat="44.17523015351227" lon="11.481119273030936"><ele>327.0</ele><time>2026-04-30T10:53:34Z</time></trkpt><trkpt lat="44.175147283465975" lon="11.481167530357638"><ele>329.0</ele><time>2026-04-30T10:53:35Z</time></trkpt><trkpt lat="44.17507360952944" lon="11.48119597807809"><ele>331.0</ele><time>2026-04-30T10:53:36Z</time></trkpt><trkpt lat="44.175000566819165" lon="11.481262933354975"><ele>325.8</ele><time>2026-04-30T10:53:37Z</time></trkpt><trkpt lat="44.17492304186425" lon="11.481339464825385"><ele>320.6</ele><time>2026-04-30T10:53:38Z</time></trkpt><trkpt lat="44.174831568752374" lon="11.481376072561913"><ele>315.4</ele><time>2026-04-30T10:53:39Z</time></trkpt><trkpt lat="44.17472041800849" lon="11.481330528830803"><ele>310.2</ele><time>2026-04-30T10:53:41Z</time></trkpt><trkpt lat="44.17461223901567" lon="11.481281991309409"><ele>305.0</ele><time>2026-04-30T10:53:43Z</time></trkpt><trkpt lat="44.17454344965024" lon="11.481302576175823"><ele>303.1666666666667</ele><time>2026-04-30T10:53:44Z</time></trkpt><trkpt lat="44.174472531281644" lon="11.481323375523667"><ele>301.33333333333337</ele><time>2026-04-30T10:53:45Z</time></trkpt><trkpt lat="44.17439421086091" lon="11.481325430696817"><ele>299.5</ele><time>2026-04-30T10:53:46Z</time></trkpt><trkpt lat="44.17431156286322" lon="11.481330280594722"><ele>297.6666666666667</ele><time>2026-04-30T10:53:47Z</time></trkpt><trkpt lat="44.174230231190556" lon="11.48135365351651"><ele>295.8333333333333</ele><time>2026-04-30T10:53:48Z</time></trkpt><trkpt lat="44.174139297905775" lon="11.481387092109074"><ele>294.0</ele><time>2026-04-30T10:53:49Z</time></trkpt><trkpt lat="44.174030509501044" lon="11.481365136297589"><ele>294.0</ele><time>2026-04-30T10:53:51Z</time></trkpt><trkpt lat="44.17394759251299" lon="11.481379804660131"><ele>294.0</ele><time>2026-04-30T10:53:54Z</time></trkpt><trkpt lat="44.17397674517876" lon="11.481522332381884"><ele>294.0</ele><time>2026-04-30T10:53:56Z</time></trkpt><trkpt lat="44.17404242377838" lon="11.481579012259498"><ele>294.0</ele><time>2026-04-30T10:53:57Z</time></trkpt><trkpt lat="44.1741049199847" lon="11.481637130345561"><ele>294.0</ele><time>2026-04-30T10:53:58Z</time></trkpt><trkpt lat="44.174161124910974" lon="11.481689334402382"><ele>294.0</ele><time>2026-04-30T10:53:59Z</time></trkpt><trkpt lat="44.17415562774552" lon="11.481845406404547"><ele>294.0</ele><time>2026-04-30T10:54:01Z</time></trkpt><trkpt lat="44.17416030442559" lon="11.482004477555524"><ele>294.0</ele><time>2026-04-30T10:54:03Z</time></trkpt><trkpt lat="44.17420695442314" lon="11.482065287306325"><ele>294.0</ele><time>2026-04-30T10:54:04Z</time></trkpt><trkpt lat="44.17426927165085" lon="11.482102320243968"><ele>294.0</ele><time>2026-04-30T10:54:05Z</time></trkpt><trkpt lat="44.17433984336886" lon="11.482131797905751"><ele>294.0</ele><time>2026-04-30T10:54:06Z</time></trkpt><trkpt lat="44.174407765572965" lon="11.482143295614474"><ele>294.0</ele><time>2026-04-30T10:54:07Z</time></trkpt><trkpt lat="44.17453051779763" lon="11.482168748058113"><ele>292.2857142857143</ele><time>2026-04-30T10:54:09Z</time></trkpt><trkpt lat="44.17460153870438" lon="11.482187803585385"><ele>290.57142857142856</ele><time>2026-04-30T10:54:10Z</time></trkpt><trkpt lat="44.17467292456977" lon="11.482210674363019"><ele>288.8571428571429</ele><time>2026-04-30T10:54:11Z</time></trkpt><trkpt lat="44.17474922808496" lon="11.48221559259696"><ele>287.1428571428571</ele><time>2026-04-30T10:54:12Z</time></trkpt><trkpt lat="44.17482481776403" lon="11.48221379909797"><ele>285.42857142857144</ele><time>2026-04-30T10:54:13Z</time></trkpt><trkpt lat="44.174896755966714" lon="11.482210089192199"><ele>283.7142857142857</ele><time>2026-04-30T10:54:14Z</time></trkpt><trkpt lat="44.17497138460288" lon="11.482223830218183"><ele>282.0</ele><time>2026-04-30T10:54:15Z</time></trkpt><trkpt lat="44.175044092068106" lon="11.482251328106667"><ele>282.0</ele><time>2026-04-30T10:54:16Z</time></trkpt><trkpt lat="44.175120921456866" lon="11.4822795298039"><ele>282.0</ele><time>2026-04-30T10:54:17Z</time></trkpt><trkpt lat="44.17519327959795" lon="11.482305920294309"><ele>282.0</ele><time>2026-04-30T10:54:18Z</time></trkpt><trkpt lat="44.175259194530945" lon="11.482325737855287"><ele>282.0</ele><time>2026-04-30T10:54:19Z</time></trkpt><trkpt lat="44.17531965469345" lon="11.482380602566577"><ele>282.0</ele><time>2026-04-30T10:54:20Z</time></trkpt><trkpt lat="44.175369864744646" lon="11.482448286462427"><ele>282.0</ele><time>2026-04-30T10:54:21Z</time></trkpt><trkpt lat="44.175419455455454" lon="11.482514227166256"><ele>282.0</ele><time>2026-04-30T10:54:22Z</time></trkpt><trkpt lat="44.17547017342502" lon="11.482681392800886"><ele>282.0</ele><time>2026-04-30T10:54:24Z</time></trkpt><trkpt lat="44.1754849756763" lon="11.482788723608296"><ele>282.0</ele><time>2026-04-30T10:54:25Z</time></trkpt><trkpt lat="44.17550350935813" lon="11.482881220446654"><ele>282.0</ele><time>2026-04-30T10:54:26Z</time></trkpt><trkpt lat="44.17554347167419" lon="11.482955964530365"><ele>282.0</ele><time>2026-04-30T10:54:27Z</time></trkpt><trkpt lat="44.17557994743152" lon="11.483033857792465"><ele>282.0</ele><time>2026-04-30T10:54:28Z</time></trkpt><trkpt lat="44.17556967129993" lon="11.483183789533388"><ele>282.0</ele><time>2026-04-30T10:54:30Z</time></trkpt><trkpt lat="44.175521393353655" lon="11.48331416077843"><ele>278.6</ele><time>2026-04-30T10:54:32Z</time></trkpt><trkpt lat="44.17549261692881" lon="11.48342922777275"><ele>275.2</ele><time>2026-04-30T10:54:34Z</time></trkpt><trkpt lat="44.1754802489993" lon="11.483523437774997"><ele>271.8</ele><time>2026-04-30T10:54:35Z</time></trkpt><trkpt lat="44.17547830231093" lon="11.483639199060576"><ele>268.4</ele><time>2026-04-30T10:54:36Z</time></trkpt><trkpt lat="44.17546877941816" lon="11.483744366315056"><ele>265.0</ele><time>2026-04-30T10:54:37Z</time></trkpt><trkpt lat="44.175374548366044" lon="11.48388463404669"><ele>262.0</ele><time>2026-04-30T10:54:39Z</time></trkpt><trkpt lat="44.17535470572009" lon="11.483970960982532"><ele>259.0</ele><time>2026-04-30T10:54:40Z</time></trkpt><trkpt lat="44.17537576401828" lon="11.484126954951865"><ele>256.0</ele><time>2026-04-30T10:54:42Z</time></trkpt><trkpt lat="44.17538957426867" lon="11.484279266062302"><ele>253.0</ele><time>2026-04-30T10:54:44Z</time></trkpt><trkpt lat="44.17536633403728" lon="11.484361992796162"><ele>250.0</ele><time>2026-04-30T10:54:46Z</time></trkpt><trkpt lat="44.17527556045449" lon="11.4845124906378"><ele>248.33333333333331</ele><time>2026-04-30T10:54:48Z</time></trkpt><trkpt lat="44.17521541346626" lon="11.48460935833713"><ele>246.66666666666666</ele><time>2026-04-30T10:54:49Z</time></trkpt><trkpt lat="44.1751903841346" lon="11.484707443630697"><ele>245.0</ele><time>2026-04-30T10:54:50Z</time></trkpt><trkpt lat="44.17513060990259" lon="11.484827012831701"><ele>243.33333333333331</ele><time>2026-04-30T10:54:52Z</time></trkpt><trkpt lat="44.175054071454696" lon="11.484881343983853"><ele>241.66666666666666</ele><time>2026-04-30T10:54:54Z</time></trkpt><trkpt lat="44.17499527776875" lon="11.484947520607502"><ele>240.0</ele><time>2026-04-30T10:54:56Z</time></trkpt><trkpt lat="44.174943665963845" lon="11.484998819570094"><ele>240.0</ele><time>2026-04-30T10:55:49Z</time></trkpt><trkpt lat="44.17487430478084" lon="11.48508984683085"><ele>240.0</ele><time>2026-04-30T10:55:51Z</time></trkpt><trkpt lat="44.17481932224553" lon="11.485163602128388"><ele>240.0</ele><time>2026-04-30T10:55:52Z</time></trkpt><trkpt lat="44.17477211385136" lon="11.485238370918797"><ele>240.0</ele><time>2026-04-30T10:55:53Z</time></trkpt><trkpt lat="44.174712015167145" lon="11.485272372540702"><ele>240.0</ele><time>2026-04-30T10:55:54Z</time></trkpt><trkpt lat="44.17462028200016" lon="11.485329314555386"><ele>240.0</ele><time>2026-04-30T10:55:56Z</time></trkpt><trkpt lat="44.174552802724" lon="11.485296744505565"><ele>240.8</ele><time>2026-04-30T10:55:57Z</time></trkpt><trkpt lat="44.17448700438674" lon="11.485247449253023"><ele>241.6</ele><time>2026-04-30T10:55:58Z</time></trkpt><trkpt lat="44.174435447262034" lon="11.485186261160093"><ele>242.39999999999998</ele><time>2026-04-30T10:55:59Z</time></trkpt><trkpt lat="44.17435201416707" lon="11.485156628247283"><ele>243.2</ele><time>2026-04-30T10:56:00Z</time></trkpt><trkpt lat="44.17424127692655" lon="11.485085876083513"><ele>244.0</ele><time>2026-04-30T10:56:01Z</time></trkpt><trkpt lat="44.17413684195597" lon="11.485012680094208"><ele>247.0</ele><time>2026-04-30T10:56:02Z</time></trkpt><trkpt lat="44.17401880376931" lon="11.484955441016563"><ele>250.0</ele><time>2026-04-30T10:56:03Z</time></trkpt><trkpt lat="44.17391113948375" lon="11.484902747908563"><ele>253.0</ele><time>2026-04-30T10:56:04Z</time></trkpt><trkpt lat="44.17378675563012" lon="11.484877648758697"><ele>256.0</ele><time>2026-04-30T10:56:05Z</time></trkpt><trkpt lat="44.17365197604581" lon="11.4848589723012"><ele>256.0</ele><time>2026-04-30T10:56:06Z</time></trkpt><trkpt lat="44.173503757956055" lon="11.484852092385493"><ele>256.0</ele><time>2026-04-30T10:56:07Z</time></trkpt><trkpt lat="44.173361352662944" lon="11.484857170437714"><ele>256.0</ele><time>2026-04-30T10:56:08Z</time></trkpt><trkpt lat="44.173215073018135" lon="11.484849344499843"><ele>256.0</ele><time>2026-04-30T10:56:09Z</time></trkpt><trkpt lat="44.173082512997254" lon="11.48479510080277"><ele>257.40000000000003</ele><time>2026-04-30T10:56:10Z</time></trkpt><trkpt lat="44.17296657661016" lon="11.484752985776687"><ele>258.8</ele><time>2026-04-30T10:56:11Z</time></trkpt><trkpt lat="44.172855764993486" lon="11.48473461745477"><ele>260.20000000000005</ele><time>2026-04-30T10:56:12Z</time></trkpt><trkpt lat="44.172756631969534" lon="11.484703819846203"><ele>261.6</ele><time>2026-04-30T10:56:13Z</time></trkpt><trkpt lat="44.17265548596368" lon="11.484654994939904"><ele>263.0</ele><time>2026-04-30T10:56:14Z</time></trkpt><trkpt lat="44.17255016536676" lon="11.484637366465483"><ele>263.0</ele><time>2026-04-30T10:56:15Z</time></trkpt><trkpt lat="44.17246534020673" lon="11.484626228506293"><ele>263.0</ele><time>2026-04-30T10:56:16Z</time></trkpt><trkpt lat="44.172398828868566" lon="11.484620076565095"><ele>263.0</ele><time>2026-04-30T10:56:17Z</time></trkpt><trkpt lat="44.17232000700293" lon="11.484630776194315"><ele>263.0</ele><time>2026-04-30T10:56:19Z</time></trkpt><trkpt lat="44.17222856908597" lon="11.484700425890198"><ele>263.0</ele><time>2026-04-30T10:56:22Z</time></trkpt><trkpt lat="44.17230765121411" lon="11.485236967428817"><ele>263.0</ele><time>2026-04-30T10:56:24Z</time></trkpt><trkpt lat="44.17236997322627" lon="11.48527303111248"><ele>263.0</ele><time>2026-04-30T10:56:25Z</time></trkpt><trkpt lat="44.172446358478545" lon="11.485311481198258"><ele>263.0</ele><time>2026-04-30T10:56:26Z</time></trkpt><trkpt lat="44.172521492200936" lon="11.485348360977897"><ele>263.0</ele><time>2026-04-30T10:56:28Z</time></trkpt><trkpt lat="44.17254509888127" lon="11.484636319658911"><ele>263.0</ele><time>2026-04-30T10:56:31Z</time></trkpt><trkpt lat="44.172474490036244" lon="11.484627386206467"><ele>263.0</ele><time>2026-04-30T10:56:32Z</time></trkpt><trkpt lat="44.17213719017672" lon="11.48485625039027"><ele>263.0</ele><time>2026-04-30T10:56:36Z</time></trkpt><trkpt lat="44.17215353764248" lon="11.484986328054125"><ele>263.0</ele><time>2026-04-30T10:56:37Z</time></trkpt><trkpt lat="44.17220407384563" lon="11.485140713987667"><ele>263.0</ele><time>2026-04-30T10:56:39Z</time></trkpt><trkpt lat="44.172271408004306" lon="11.485210224587837"><ele>263.0</ele><time>2026-04-30T10:56:40Z</time></trkpt><trkpt lat="44.172344095184144" lon="11.485258451437778"><ele>263.0</ele><time>2026-04-30T10:56:41Z</time></trkpt><trkpt lat="44.172423371395425" lon="11.485300197801717"><ele>263.0</ele><time>2026-04-30T10:56:42Z</time></trkpt><trkpt lat="44.172498556598875" lon="11.485337102976901"><ele>263.0</ele><time>2026-04-30T10:56:43Z</time></trkpt><trkpt lat="44.172570406510836" lon="11.48537084025442"><ele>263.0</ele><time>2026-04-30T10:56:44Z</time></trkpt><trkpt lat="44.1726957242509" lon="11.485435179920817"><ele>263.0</ele><time>2026-04-30T10:56:46Z</time></trkpt><trkpt lat="44.17275972892041" lon="11.485474873868725"><ele>263.0</ele><time>2026-04-30T10:56:47Z</time></trkpt><trkpt lat="44.17282479264746" lon="11.485520725667563"><ele>263.0</ele><time>2026-04-30T10:56:48Z</time></trkpt><trkpt lat="44.17288923215917" lon="11.48556798870966"><ele>263.0</ele><time>2026-04-30T10:56:49Z</time></trkpt><trkpt lat="44.172973006574836" lon="11.485631042009025"><ele>269.2</ele><time>2026-04-30T10:56:51Z</time></trkpt><trkpt lat="44.17313214846638" lon="11.485649417625396"><ele>275.4</ele><time>2026-04-30T10:56:53Z</time></trkpt><trkpt lat="44.17321428353683" lon="11.485673758310668"><ele>281.59999999999997</ele><time>2026-04-30T10:56:54Z</time></trkpt><trkpt lat="44.17331633873532" lon="11.485673940288448"><ele>287.8</ele><time>2026-04-30T10:56:55Z</time></trkpt><trkpt lat="44.173418039272335" lon="11.485686438655877"><ele>294.0</ele><time>2026-04-30T10:56:56Z</time></trkpt><trkpt lat="44.17350727623368" lon="11.485702624436382"><ele>294.0</ele><time>2026-04-30T10:56:57Z</time></trkpt><trkpt lat="44.173586105216735" lon="11.4856991275168"><ele>294.0</ele><time>2026-04-30T10:56:58Z</time></trkpt><trkpt lat="44.17365762284504" lon="11.485705797513642"><ele>294.0</ele><time>2026-04-30T10:56:59Z</time></trkpt><trkpt lat="44.17373221531082" lon="11.485715532636492"><ele>294.0</ele><time>2026-04-30T10:57:00Z</time></trkpt><trkpt lat="44.17381740049977" lon="11.48574580659452"><ele>294.0</ele><time>2026-04-30T10:57:01Z</time></trkpt><trkpt lat="44.17391844077248" lon="11.485753121052104"><ele>294.0</ele><time>2026-04-30T10:57:02Z</time></trkpt><trkpt lat="44.174017236035425" lon="11.485795689848688"><ele>289.75</ele><time>2026-04-30T10:57:03Z</time></trkpt><trkpt lat="44.17412220877709" lon="11.485838797998744"><ele>285.5</ele><time>2026-04-30T10:57:04Z</time></trkpt><trkpt lat="44.17423154602285" lon="11.485891252723633"><ele>281.25</ele><time>2026-04-30T10:57:05Z</time></trkpt><trkpt lat="44.1743411885586" lon="11.485950834654288"><ele>277.0</ele><time>2026-04-30T10:57:06Z</time></trkpt><trkpt lat="44.174449898890046" lon="11.48601972241743"><ele>277.0</ele><time>2026-04-30T10:57:07Z</time></trkpt><trkpt lat="44.17455774136563" lon="11.486087391615053"><ele>277.0</ele><time>2026-04-30T10:57:08Z</time></trkpt><trkpt lat="44.17465470921509" lon="11.48614513147253"><ele>277.0</ele><time>2026-04-30T10:57:09Z</time></trkpt><trkpt lat="44.17472769711183" lon="11.486261552274582"><ele>277.0</ele><time>2026-04-30T10:57:10Z</time></trkpt><trkpt lat="44.17479788117862" lon="11.486379952866468"><ele>277.0</ele><time>2026-04-30T10:57:11Z</time></trkpt><trkpt lat="44.17484473169118" lon="11.48651249376815"><ele>277.25</ele><time>2026-04-30T10:57:12Z</time></trkpt><trkpt lat="44.174876007563185" lon="11.486663299690674"><ele>277.5</ele><time>2026-04-30T10:57:13Z</time></trkpt><trkpt lat="44.174918912141585" lon="11.486820187700312"><ele>277.75</ele><time>2026-04-30T10:57:14Z</time></trkpt><trkpt lat="44.17493828398947" lon="11.486978314399426"><ele>278.0</ele><time>2026-04-30T10:57:15Z</time></trkpt><trkpt lat="44.17498255768563" lon="11.487125809263993"><ele>278.75</ele><time>2026-04-30T10:57:16Z</time></trkpt><trkpt lat="44.17505724870762" lon="11.4872519307025"><ele>279.5</ele><time>2026-04-30T10:57:17Z</time></trkpt><trkpt lat="44.17515528553473" lon="11.487338838204286"><ele>280.25</ele><time>2026-04-30T10:57:18Z</time></trkpt><trkpt lat="44.17526376333744" lon="11.487416151064885"><ele>281.0</ele><time>2026-04-30T10:57:19Z</time></trkpt><trkpt lat="44.175362243451936" lon="11.487492259057271"><ele>281.0</ele><time>2026-04-30T10:57:20Z</time></trkpt><trkpt lat="44.17546492752566" lon="11.487573699516167"><ele>281.0</ele><time>2026-04-30T10:57:21Z</time></trkpt><trkpt lat="44.17558796643732" lon="11.487576073944172"><ele>281.0</ele><time>2026-04-30T10:57:22Z</time></trkpt><trkpt lat="44.17570544656053" lon="11.487564084824585"><ele>281.0</ele><time>2026-04-30T10:57:23Z</time></trkpt><trkpt lat="44.175815990257746" lon="11.487520423859255"><ele>281.8</ele><time>2026-04-30T10:57:24Z</time></trkpt><trkpt lat="44.17591470802772" lon="11.487448160149247"><ele>282.6</ele><time>2026-04-30T10:57:25Z</time></trkpt><trkpt lat="44.1759990759242" lon="11.487352416328305"><ele>283.4</ele><time>2026-04-30T10:57:26Z</time></trkpt><trkpt lat="44.17606965822304" lon="11.487252137296927"><ele>284.2</ele><time>2026-04-30T10:57:27Z</time></trkpt><trkpt lat="44.17613521682685" lon="11.487161650489417"><ele>285.0</ele><time>2026-04-30T10:57:28Z</time></trkpt><trkpt lat="44.17619556483722" lon="11.48709705418914"><ele>285.0</ele><time>2026-04-30T10:57:29Z</time></trkpt><trkpt lat="44.17627182235221" lon="11.487023135822628"><ele>285.0</ele><time>2026-04-30T10:57:31Z</time></trkpt><trkpt lat="44.17626130969464" lon="11.487122633099759"><ele>285.0</ele><time>2026-04-30T10:57:36Z</time></trkpt><trkpt lat="44.17622655479709" lon="11.487208236133052"><ele>285.0</ele><time>2026-04-30T10:57:37Z</time></trkpt><trkpt lat="44.176187765595735" lon="11.48731677303506"><ele>285.0</ele><time>2026-04-30T10:57:38Z</time></trkpt><trkpt lat="44.17613834746579" lon="11.487459397002823"><ele>285.0</ele><time>2026-04-30T10:57:40Z</time></trkpt><trkpt lat="44.176063921103065" lon="11.487616609493468"><ele>285.0</ele><time>2026-04-30T10:57:42Z</time></trkpt><trkpt lat="44.17603314361255" lon="11.487731127932921"><ele>285.0</ele><time>2026-04-30T10:57:44Z</time></trkpt><trkpt lat="44.176119666016795" lon="11.487733201969803"><ele>285.0</ele><time>2026-04-30T10:57:46Z</time></trkpt><trkpt lat="44.17616865328942" lon="11.487671040252867"><ele>285.0</ele><time>2026-04-30T10:57:47Z</time></trkpt><trkpt lat="44.17623036886736" lon="11.487607511864903"><ele>285.0</ele><time>2026-04-30T10:57:48Z</time></trkpt><trkpt lat="44.17630817261799" lon="11.487565959342993"><ele>285.0</ele><time>2026-04-30T10:57:49Z</time></trkpt><trkpt lat="44.17638238596342" lon="11.487555523368801"><ele>285.0</ele><time>2026-04-30T10:57:50Z</time></trkpt><trkpt lat="44.17644408753635" lon="11.487578238098594"><ele>285.0</ele><time>2026-04-30T10:57:51Z</time></trkpt><trkpt lat="44.176510117850995" lon="11.487607307597388"><ele>285.0</ele><time>2026-04-30T10:57:52Z</time></trkpt><trkpt lat="44.176570596355084" lon="11.487634246956551"><ele>285.0</ele><time>2026-04-30T10:57:54Z</time></trkpt><trkpt lat="44.176570509966375" lon="11.487725168433782"><ele>285.0</ele><time>2026-04-30T10:57:56Z</time></trkpt><trkpt lat="44.17651165210188" lon="11.48783151164469"><ele>285.0</ele><time>2026-04-30T10:57:59Z</time></trkpt><trkpt lat="44.176454864442654" lon="11.487905801101759"><ele>285.0</ele><time>2026-04-30T10:58:01Z</time></trkpt><trkpt lat="44.1764044216025" lon="11.487986368225084"><ele>288.5</ele><time>2026-04-30T10:58:03Z</time></trkpt><trkpt lat="44.17635626338145" lon="11.488044140898127"><ele>292.0</ele><time>2026-04-30T10:58:04Z</time></trkpt><trkpt lat="44.1763183574375" lon="11.488117779534104"><ele>295.5</ele><time>2026-04-30T10:58:05Z</time></trkpt><trkpt lat="44.176279664230194" lon="11.488218988544203"><ele>299.0</ele><time>2026-04-30T10:58:07Z</time></trkpt><trkpt lat="44.176219486306806" lon="11.488368903166673"><ele>302.5</ele><time>2026-04-30T10:58:09Z</time></trkpt><trkpt lat="44.17620110832212" lon="11.488474002984482"><ele>306.0</ele><time>2026-04-30T10:58:10Z</time></trkpt><trkpt lat="44.176185973458395" lon="11.488583929777612"><ele>306.0</ele><time>2026-04-30T10:58:11Z</time></trkpt><trkpt lat="44.17612532288518" lon="11.488708542672413"><ele>306.0</ele><time>2026-04-30T10:58:13Z</time></trkpt><trkpt lat="44.17607046054928" lon="11.488766201570252"><ele>306.0</ele><time>2026-04-30T10:58:14Z</time></trkpt><trkpt lat="44.17599954282656" lon="11.488903481844057"><ele>306.0</ele><time>2026-04-30T10:58:16Z</time></trkpt><trkpt lat="44.17596982361463" lon="11.48899026591285"><ele>306.0</ele><time>2026-04-30T10:58:17Z</time></trkpt><trkpt lat="44.17595042538804" lon="11.489091021825184"><ele>306.0</ele><time>2026-04-30T10:58:18Z</time></trkpt><trkpt lat="44.17592304256684" lon="11.4891849679046"><ele>308.57142857142856</ele><time>2026-04-30T10:58:19Z</time></trkpt><trkpt lat="44.17588707924917" lon="11.489268077264208"><ele>311.14285714285717</ele><time>2026-04-30T10:58:20Z</time></trkpt><trkpt lat="44.17584836864691" lon="11.489343375192227"><ele>313.7142857142857</ele><time>2026-04-30T10:58:21Z</time></trkpt><trkpt lat="44.1757925400374" lon="11.489407382583597"><ele>316.2857142857143</ele><time>2026-04-30T10:58:22Z</time></trkpt><trkpt lat="44.175746730108315" lon="11.489500000362916"><ele>318.85714285714283</ele><time>2026-04-30T10:58:23Z</time></trkpt><trkpt lat="44.17572804341991" lon="11.489612564915806"><ele>321.42857142857144</ele><time>2026-04-30T10:58:24Z</time></trkpt><trkpt lat="44.17572017712114" lon="11.489716521388724"><ele>324.0</ele><time>2026-04-30T10:58:25Z</time></trkpt><trkpt lat="44.175708309175775" lon="11.489820165800348"><ele>324.2</ele><time>2026-04-30T10:58:26Z</time></trkpt><trkpt lat="44.17568529302753" lon="11.489986474466814"><ele>324.4</ele><time>2026-04-30T10:58:28Z</time></trkpt><trkpt lat="44.17561637850679" lon="11.490108389945"><ele>324.6</ele><time>2026-04-30T10:58:30Z</time></trkpt><trkpt lat="44.1755455945606" lon="11.490156224657282"><ele>324.8</ele><time>2026-04-30T10:58:31Z</time></trkpt><trkpt lat="44.17548552279062" lon="11.490209980976054"><ele>325.0</ele><time>2026-04-30T10:58:32Z</time></trkpt><trkpt lat="44.17543211041955" lon="11.490273391447534"><ele>325.0</ele><time>2026-04-30T10:58:33Z</time></trkpt><trkpt lat="44.17537045062218" lon="11.49035839356989"><ele>325.0</ele><time>2026-04-30T10:58:35Z</time></trkpt><trkpt lat="44.17533764988655" lon="11.49044895346537"><ele>325.0</ele><time>2026-04-30T10:58:39Z</time></trkpt><trkpt lat="44.175395867801946" lon="11.490521283874543"><ele>325.0</ele><time>2026-04-30T10:58:41Z</time></trkpt><trkpt lat="44.17546651490957" lon="11.490596254601916"><ele>325.0</ele><time>2026-04-30T10:58:43Z</time></trkpt><trkpt lat="44.17553306465116" lon="11.490670433676375"><ele>325.0</ele><time>2026-04-30T10:58:45Z</time></trkpt><trkpt lat="44.17552708214168" lon="11.49075903209729"><ele>332.0</ele><time>2026-04-30T10:58:48Z</time></trkpt><trkpt lat="44.17541397674373" lon="11.490800418167098"><ele>339.0</ele><time>2026-04-30T10:58:50Z</time></trkpt><trkpt lat="44.17533824526282" lon="11.490834832913674"><ele>346.0</ele><time>2026-04-30T10:58:51Z</time></trkpt><trkpt lat="44.175271008020204" lon="11.490900417461525"><ele>353.0</ele><time>2026-04-30T10:58:52Z</time></trkpt><trkpt lat="44.1752002200755" lon="11.491002349206992"><ele>360.0</ele><time>2026-04-30T10:58:53Z</time></trkpt><trkpt lat="44.17512568365055" lon="11.491092309438597"><ele>360.0</ele><time>2026-04-30T10:58:54Z</time></trkpt><trkpt lat="44.17507397286514" lon="11.491158642663056"><ele>360.0</ele><time>2026-04-30T10:58:55Z</time></trkpt><trkpt lat="44.17503913487481" lon="11.491266742895059"><ele>360.0</ele><time>2026-04-30T10:59:00Z</time></trkpt><trkpt lat="44.17502715076704" lon="11.491365099287517"><ele>360.0</ele><time>2026-04-30T10:59:03Z</time></trkpt><trkpt lat="44.17493278532162" lon="11.491504072944913"><ele>360.0</ele><time>2026-04-30T10:59:04Z</time></trkpt><trkpt lat="44.174861491690116" lon="11.491561662642377"><ele>360.0</ele><time>2026-04-30T10:59:05Z</time></trkpt><trkpt lat="44.17477442188938" lon="11.491610712229335"><ele>363.0</ele><time>2026-04-30T10:59:06Z</time></trkpt><trkpt lat="44.17470357595992" lon="11.491706303140841"><ele>366.0</ele><time>2026-04-30T10:59:08Z</time></trkpt><trkpt lat="44.17463979917848" lon="11.491862705552077"><ele>369.0</ele><time>2026-04-30T10:59:10Z</time></trkpt><trkpt lat="44.17456299678441" lon="11.491923827711839"><ele>372.0</ele><time>2026-04-30T10:59:11Z</time></trkpt><trkpt lat="44.17450584504152" lon="11.491999912529137"><ele>375.0</ele><time>2026-04-30T10:59:13Z</time></trkpt><trkpt lat="44.17442849046438" lon="11.492145920961285"><ele>379.1666666666667</ele><time>2026-04-30T10:59:15Z</time></trkpt><trkpt lat="44.174406709492565" lon="11.492233085989007"><ele>383.33333333333337</ele><time>2026-04-30T10:59:16Z</time></trkpt><trkpt lat="44.174352269142645" lon="11.49236142485795"><ele>387.5</ele><time>2026-04-30T10:59:18Z</time></trkpt><trkpt lat="44.1742802312928" lon="11.49243588209056"><ele>391.6666666666667</ele><time>2026-04-30T10:59:19Z</time></trkpt><trkpt lat="44.17422895391484" lon="11.49250135258194"><ele>395.83333333333337</ele><time>2026-04-30T10:59:20Z</time></trkpt><trkpt lat="44.174165373611494" lon="11.492529991090935"><ele>400.0</ele><time>2026-04-30T10:59:21Z</time></trkpt><trkpt lat="44.17408874805367" lon="11.49258787588886"><ele>400.00000000000006</ele><time>2026-04-30T10:59:23Z</time></trkpt><trkpt lat="44.174069507397704" lon="11.492727867713452"><ele>400.0</ele><time>2026-04-30T10:59:26Z</time></trkpt><trkpt lat="44.17406525715572" lon="11.492824957669159"><ele>400.0</ele><time>2026-04-30T10:59:28Z</time></trkpt><trkpt lat="44.17405107533054" lon="11.4929588145553"><ele>400.0</ele><time>2026-04-30T10:59:30Z</time></trkpt><trkpt lat="44.17403852523914" lon="11.493095990250335"><ele>400.00000000000006</ele><time>2026-04-30T10:59:32Z</time></trkpt><trkpt lat="44.17407292887532" lon="11.49318184602112"><ele>400.0</ele><time>2026-04-30T10:59:35Z</time></trkpt><trkpt lat="44.1741503117009" lon="11.493244145756853"><ele>399.33333333333337</ele><time>2026-04-30T10:59:38Z</time></trkpt><trkpt lat="44.17418036248222" lon="11.493362711405178"><ele>398.6666666666667</ele><time>2026-04-30T10:59:40Z</time></trkpt><trkpt lat="44.17420298124988" lon="11.493471461110028"><ele>398.0</ele><time>2026-04-30T10:59:42Z</time></trkpt><trkpt lat="44.17420170230039" lon="11.493612394157402"><ele>397.33333333333337</ele><time>2026-04-30T10:59:44Z</time></trkpt><trkpt lat="44.174187271335036" lon="11.493724590419372"><ele>396.6666666666667</ele><time>2026-04-30T10:59:46Z</time></trkpt><trkpt lat="44.17417667980889" lon="11.493839984575338"><ele>396.0</ele><time>2026-04-30T10:59:48Z</time></trkpt><trkpt lat="44.17415489566578" lon="11.493934495941048"><ele>396.0</ele><time>2026-04-30T10:59:51Z</time></trkpt><trkpt lat="44.174142670832104" lon="11.494046368101102"><ele>396.0</ele><time>2026-04-30T10:59:53Z</time></trkpt><trkpt lat="44.17414343581022" lon="11.494152067787157"><ele>396.0</ele><time>2026-04-30T10:59:54Z</time></trkpt><trkpt lat="44.17414342799605" lon="11.494317208048441"><ele>396.0</ele><time>2026-04-30T10:59:56Z</time></trkpt><trkpt lat="44.174164302197276" lon="11.49441672160645"><ele>396.0</ele><time>2026-04-30T10:59:58Z</time></trkpt><trkpt lat="44.17416875847805" lon="11.494512134902152"><ele>396.0</ele><time>2026-04-30T11:00:02Z</time></trkpt><trkpt lat="44.17415324971358" lon="11.494625087248174"><ele>394.5</ele><time>2026-04-30T11:00:04Z</time></trkpt><trkpt lat="44.17415715274477" lon="11.494759278355541"><ele>393.0</ele><time>2026-04-30T11:00:06Z</time></trkpt><trkpt lat="44.174168318723105" lon="11.494876633443104"><ele>391.5</ele><time>2026-04-30T11:00:09Z</time></trkpt><trkpt lat="44.17420049981861" lon="11.49498381208787"><ele>390.0</ele><time>2026-04-30T11:00:13Z</time></trkpt><trkpt lat="44.1742839889586" lon="11.49495066114825"><ele>388.5</ele><time>2026-04-30T11:00:16Z</time></trkpt><trkpt lat="44.17436623669453" lon="11.49487995391054"><ele>387.0</ele><time>2026-04-30T11:00:19Z</time></trkpt><trkpt lat="44.17444841940941" lon="11.494794138383877"><ele>387.0</ele><time>2026-04-30T11:00:21Z</time></trkpt><trkpt lat="44.174483667021725" lon="11.494717267193696"><ele>387.0</ele><time>2026-04-30T11:00:23Z</time></trkpt><trkpt lat="44.17456358864476" lon="11.494773680915236"><ele>387.0</ele><time>2026-04-30T11:00:26Z</time></trkpt><trkpt lat="44.174577241413616" lon="11.494912384223122"><ele>387.0</ele><time>2026-04-30T11:00:28Z</time></trkpt><trkpt lat="44.17464049170804" lon="11.49501092650954"><ele>387.0</ele><time>2026-04-30T11:00:31Z</time></trkpt><trkpt lat="44.17470915262785" lon="11.495029524721899"><ele>387.0</ele><time>2026-04-30T11:00:33Z</time></trkpt><trkpt lat="44.17475895409097" lon="11.495102043602682"><ele>387.0</ele><time>2026-04-30T11:00:35Z</time></trkpt><trkpt lat="44.17480704347478" lon="11.495176173976875"><ele>387.0</ele><time>2026-04-30T11:00:37Z</time></trkpt><trkpt lat="44.17489498594574" lon="11.495144464449059"><ele>387.0</ele><time>2026-04-30T11:00:40Z</time></trkpt><trkpt lat="44.17499032798208" lon="11.495188135504616"><ele>387.0</ele><time>2026-04-30T11:00:42Z</time></trkpt><trkpt lat="44.17510627764904" lon="11.495229537634573"><ele>387.0</ele><time>2026-04-30T11:00:44Z</time></trkpt><trkpt lat="44.175187576944325" lon="11.495236970903603"><ele>380.40000000000003</ele><time>2026-04-30T11:00:47Z</time></trkpt><trkpt lat="44.17525753243951" lon="11.495268823650624"><ele>373.8</ele><time>2026-04-30T11:00:49Z</time></trkpt><trkpt lat="44.17525371468183" lon="11.49535836299148"><ele>367.2</ele><time>2026-04-30T11:00:51Z</time></trkpt><trkpt lat="44.17517261173735" lon="11.495467020964004"><ele>360.6</ele><time>2026-04-30T11:00:53Z</time></trkpt><trkpt lat="44.17521009033002" lon="11.49558133583679"><ele>354.0</ele><time>2026-04-30T11:00:55Z</time></trkpt><trkpt lat="44.175239294354135" lon="11.495738573818333"><ele>352.6666666666667</ele><time>2026-04-30T11:00:57Z</time></trkpt><trkpt lat="44.17522589039605" lon="11.4958340360342"><ele>351.3333333333333</ele><time>2026-04-30T11:00:58Z</time></trkpt><trkpt lat="44.17522045881944" lon="11.495925190939259"><ele>350.0</ele><time>2026-04-30T11:00:59Z</time></trkpt><trkpt lat="44.17520287421474" lon="11.496012533052813"><ele>348.66666666666663</ele><time>2026-04-30T11:01:00Z</time></trkpt><trkpt lat="44.175177544486274" lon="11.496108244627559"><ele>347.3333333333333</ele><time>2026-04-30T11:01:01Z</time></trkpt><trkpt lat="44.17517879101197" lon="11.496197237894936"><ele>346.0</ele><time>2026-04-30T11:01:02Z</time></trkpt><trkpt lat="44.1751881532478" lon="11.49635648792772"><ele>344.3333333333333</ele><time>2026-04-30T11:01:04Z</time></trkpt><trkpt lat="44.175210120382914" lon="11.496498720348322"><ele>342.66666666666663</ele><time>2026-04-30T11:01:06Z</time></trkpt><trkpt lat="44.175245317318065" lon="11.496578396198467"><ele>341.0</ele><time>2026-04-30T11:01:07Z</time></trkpt><trkpt lat="44.175274809787076" lon="11.496661778926411"><ele>339.3333333333333</ele><time>2026-04-30T11:01:08Z</time></trkpt><trkpt lat="44.17530437623359" lon="11.496817763623087"><ele>337.6666666666667</ele><time>2026-04-30T11:01:10Z</time></trkpt><trkpt lat="44.175330169806735" lon="11.496937686733538"><ele>336.0</ele><time>2026-04-30T11:01:12Z</time></trkpt><trkpt lat="44.175350479447594" lon="11.497047261765301"><ele>335.4</ele><time>2026-04-30T11:01:14Z</time></trkpt><trkpt lat="44.17533456592863" lon="11.497145894935834"><ele>334.8</ele><time>2026-04-30T11:01:16Z</time></trkpt><trkpt lat="44.17533436035916" lon="11.497302300250684"><ele>334.2</ele><time>2026-04-30T11:01:19Z</time></trkpt><trkpt lat="44.17532515132748" lon="11.497457610135331"><ele>333.59999999999997</ele><time>2026-04-30T11:01:21Z</time></trkpt><trkpt lat="44.17529067128014" lon="11.49757170494475"><ele>333.0</ele><time>2026-04-30T11:01:23Z</time></trkpt><trkpt lat="44.17532141669691" lon="11.497655345842983"><ele>333.0</ele><time>2026-04-30T11:01:25Z</time></trkpt><trkpt lat="44.175310262558995" lon="11.497786557998205"><ele>333.0</ele><time>2026-04-30T11:01:28Z</time></trkpt><trkpt lat="44.17532251206878" lon="11.497969650770541"><ele>333.0</ele><time>2026-04-30T11:01:30Z</time></trkpt><trkpt lat="44.175329470894816" lon="11.49810926545809"><ele>333.0</ele><time>2026-04-30T11:01:32Z</time></trkpt><trkpt lat="44.175288865230975" lon="11.498187869317649"><ele>333.0</ele><time>2026-04-30T11:01:34Z</time></trkpt><trkpt lat="44.175273389609366" lon="11.498310582200173"><ele>331.4</ele><time>2026-04-30T11:01:37Z</time></trkpt><trkpt lat="44.175360551557496" lon="11.498308299850164"><ele>329.79999999999995</ele><time>2026-04-30T11:01:39Z</time></trkpt><trkpt lat="44.175427963415096" lon="11.498232355237684"><ele>328.2</ele><time>2026-04-30T11:01:40Z</time></trkpt><trkpt lat="44.17552619244284" lon="11.498146493182622"><ele>326.6</ele><time>2026-04-30T11:01:41Z</time></trkpt><trkpt lat="44.17563361377084" lon="11.498098031302188"><ele>325.0</ele><time>2026-04-30T11:01:42Z</time></trkpt><trkpt lat="44.175721911793936" lon="11.498044353692034"><ele>324.6</ele><time>2026-04-30T11:01:43Z</time></trkpt><trkpt lat="44.17581773869713" lon="11.49803943971308"><ele>324.2</ele><time>2026-04-30T11:01:45Z</time></trkpt><trkpt lat="44.175897087211204" lon="11.498104339256647"><ele>323.79999999999995</ele><time>2026-04-30T11:01:47Z</time></trkpt><trkpt lat="44.17603389110042" lon="11.498134837223674"><ele>323.4</ele><time>2026-04-30T11:01:49Z</time></trkpt><trkpt lat="44.17613284827157" lon="11.498147979327152"><ele>323.0</ele><time>2026-04-30T11:01:51Z</time></trkpt><trkpt lat="44.17627137804053" lon="11.498177635467947"><ele>323.0</ele><time>2026-04-30T11:01:53Z</time></trkpt><trkpt lat="44.17635187825451" lon="11.498185704743095"><ele>323.0</ele><time>2026-04-30T11:01:54Z</time></trkpt><trkpt lat="44.17641622612934" lon="11.498166398232378"><ele>323.0</ele><time>2026-04-30T11:01:55Z</time></trkpt><trkpt lat="44.176507966981504" lon="11.49811844820947"><ele>323.0</ele><time>2026-04-30T11:01:57Z</time></trkpt><trkpt lat="44.17657846844654" lon="11.49809691539054"><ele>323.0</ele><time>2026-04-30T11:01:59Z</time></trkpt><trkpt lat="44.17664468103468" lon="11.498111242767006"><ele>323.0</ele><time>2026-04-30T11:02:01Z</time></trkpt><trkpt lat="44.176646351968124" lon="11.498255600636172"><ele>323.0</ele><time>2026-04-30T11:02:04Z</time></trkpt><trkpt lat="44.17659727396706" lon="11.49831437512556"><ele>323.0</ele><time>2026-04-30T11:02:05Z</time></trkpt><trkpt lat="44.17653790513479" lon="11.498392265857408"><ele>323.0</ele><time>2026-04-30T11:02:06Z</time></trkpt><trkpt lat="44.17649040027155" lon="11.498502353300733"><ele>323.0</ele><time>2026-04-30T11:02:07Z</time></trkpt><trkpt lat="44.176443226257966" lon="11.498618264950434"><ele>323.0</ele><time>2026-04-30T11:02:08Z</time></trkpt><trkpt lat="44.17639312434526" lon="11.498744431007957"><ele>323.0</ele><time>2026-04-30T11:02:09Z</time></trkpt><trkpt lat="44.17634479121027" lon="11.498855219174416"><ele>326.33333333333337</ele><time>2026-04-30T11:02:10Z</time></trkpt><trkpt lat="44.17629547583144" lon="11.49894769462257"><ele>329.6666666666667</ele><time>2026-04-30T11:02:11Z</time></trkpt><trkpt lat="44.17624318581021" lon="11.499057083240334"><ele>333.0</ele><time>2026-04-30T11:02:12Z</time></trkpt><trkpt lat="44.176189584803865" lon="11.499156268130953"><ele>336.3333333333333</ele><time>2026-04-30T11:02:13Z</time></trkpt><trkpt lat="44.17614347245643" lon="11.499227288073834"><ele>339.66666666666663</ele><time>2026-04-30T11:02:14Z</time></trkpt><trkpt lat="44.17606601860767" lon="11.499337024255228"><ele>343.0</ele><time>2026-04-30T11:02:16Z</time></trkpt><trkpt lat="44.17603850253218" lon="11.499425750355012"><ele>343.0</ele><time>2026-04-30T11:02:17Z</time></trkpt><trkpt lat="44.17604692299771" lon="11.499553701546454"><ele>343.0</ele><time>2026-04-30T11:02:18Z</time></trkpt><trkpt lat="44.17607575592833" lon="11.499689045078112"><ele>343.0</ele><time>2026-04-30T11:02:19Z</time></trkpt><trkpt lat="44.17611199543078" lon="11.499839285578869"><ele>343.0</ele><time>2026-04-30T11:02:20Z</time></trkpt><trkpt lat="44.17613372999596" lon="11.499995388729374"><ele>343.0</ele><time>2026-04-30T11:02:21Z</time></trkpt><trkpt lat="44.17614318153943" lon="11.500138961982733"><ele>346.4</ele><time>2026-04-30T11:02:22Z</time></trkpt><trkpt lat="44.176152594909986" lon="11.50028817160929"><ele>349.79999999999995</ele><time>2026-04-30T11:02:23Z</time></trkpt><trkpt lat="44.176151776551585" lon="11.500418374919343"><ele>353.2</ele><time>2026-04-30T11:02:24Z</time></trkpt><trkpt lat="44.1761495407556" lon="11.500532023705997"><ele>356.6</ele><time>2026-04-30T11:02:25Z</time></trkpt><trkpt lat="44.17612779126518" lon="11.500644942396848"><ele>360.0</ele><time>2026-04-30T11:02:26Z</time></trkpt><trkpt lat="44.176100996317594" lon="11.500774699131133"><ele>362.6</ele><time>2026-04-30T11:02:27Z</time></trkpt><trkpt lat="44.17607517529516" lon="11.500921533901103"><ele>365.2</ele><time>2026-04-30T11:02:28Z</time></trkpt><trkpt lat="44.176054029485385" lon="11.501059759206258"><ele>367.79999999999995</ele><time>2026-04-30T11:02:29Z</time></trkpt><trkpt lat="44.17603262763505" lon="11.50118403178459"><ele>370.4</ele><time>2026-04-30T11:02:30Z</time></trkpt><trkpt lat="44.176011948784065" lon="11.501290684425344"><ele>373.0</ele><time>2026-04-30T11:02:31Z</time></trkpt><trkpt lat="44.17598335715362" lon="11.50138860334865"><ele>374.4</ele><time>2026-04-30T11:02:32Z</time></trkpt><trkpt lat="44.17595458555082" lon="11.501504709371757"><ele>375.79999999999995</ele><time>2026-04-30T11:02:33Z</time></trkpt><trkpt lat="44.17591637217978" lon="11.501638014536477"><ele>377.2</ele><time>2026-04-30T11:02:34Z</time></trkpt><trkpt lat="44.17587298586319" lon="11.501782248708526"><ele>378.6</ele><time>2026-04-30T11:02:35Z</time></trkpt><trkpt lat="44.17582617049476" lon="11.501927517960775"><ele>380.0</ele><time>2026-04-30T11:02:36Z</time></trkpt><trkpt lat="44.175788834917384" lon="11.502073018600605"><ele>380.8</ele><time>2026-04-30T11:02:37Z</time></trkpt><trkpt lat="44.17575684548155" lon="11.502223699142199"><ele>381.6</ele><time>2026-04-30T11:02:38Z</time></trkpt><trkpt lat="44.17572497045862" lon="11.502388103172366"><ele>382.4</ele><time>2026-04-30T11:02:39Z</time></trkpt><trkpt lat="44.1756851199529" lon="11.502519233370666"><ele>383.2</ele><time>2026-04-30T11:02:40Z</time></trkpt><trkpt lat="44.175664452779856" lon="11.502643472428876"><ele>384.0</ele><time>2026-04-30T11:02:41Z</time></trkpt><trkpt lat="44.175651560707124" lon="11.502767493496567"><ele>385.6</ele><time>2026-04-30T11:02:42Z</time></trkpt><trkpt lat="44.17565296644855" lon="11.502866095814657"><ele>387.2</ele><time>2026-04-30T11:02:43Z</time></trkpt><trkpt lat="44.175656177974574" lon="11.502957534176643"><ele>388.8</ele><time>2026-04-30T11:02:44Z</time></trkpt><trkpt lat="44.17575145113355" lon="11.503057249501026"><ele>390.40000000000003</ele><time>2026-04-30T11:02:46Z</time></trkpt><trkpt lat="44.17583481563286" lon="11.503075308654804"><ele>392.0</ele><time>2026-04-30T11:02:47Z</time></trkpt><trkpt lat="44.175956363746344" lon="11.503088249080053"><ele>392.0</ele><time>2026-04-30T11:02:48Z</time></trkpt><trkpt lat="44.176060784475034" lon="11.503093424515612"><ele>392.0</ele><time>2026-04-30T11:02:49Z</time></trkpt><trkpt lat="44.17614559005935" lon="11.50307147366918"><ele>392.0</ele><time>2026-04-30T11:02:50Z</time></trkpt><trkpt lat="44.17621853922734" lon="11.503009281507884"><ele>392.0</ele><time>2026-04-30T11:02:51Z</time></trkpt><trkpt lat="44.17627110111001" lon="11.502890710658148"><ele>392.0</ele><time>2026-04-30T11:02:52Z</time></trkpt><trkpt lat="44.17634140591382" lon="11.502741735195729"><ele>392.0</ele><time>2026-04-30T11:02:53Z</time></trkpt><trkpt lat="44.17642857001269" lon="11.502584787732028"><ele>392.0</ele><time>2026-04-30T11:02:54Z</time></trkpt><trkpt lat="44.17650737361" lon="11.50246253238966"><ele>392.0</ele><time>2026-04-30T11:02:55Z</time></trkpt><trkpt lat="44.176583542587636" lon="11.50238684378136"><ele>392.0</ele><time>2026-04-30T11:02:56Z</time></trkpt><trkpt lat="44.176658253888945" lon="11.502288456014725"><ele>392.0</ele><time>2026-04-30T11:02:57Z</time></trkpt><trkpt lat="44.1767311300494" lon="11.50217300906851"><ele>392.0</ele><time>2026-04-30T11:02:58Z</time></trkpt><trkpt lat="44.176809858258515" lon="11.502052833225239"><ele>392.0</ele><time>2026-04-30T11:02:59Z</time></trkpt><trkpt lat="44.176885575535046" lon="11.501921541733003"><ele>392.0</ele><time>2026-04-30T11:03:00Z</time></trkpt><trkpt lat="44.17697168685872" lon="11.501795332912792"><ele>386.5</ele><time>2026-04-30T11:03:01Z</time></trkpt><trkpt lat="44.177064826814984" lon="11.501659933780502"><ele>381.0</ele><time>2026-04-30T11:03:02Z</time></trkpt><trkpt lat="44.17714876365755" lon="11.501533333562357"><ele>375.5</ele><time>2026-04-30T11:03:03Z</time></trkpt><trkpt lat="44.17722477726999" lon="11.501440739413022"><ele>370.0</ele><time>2026-04-30T11:03:04Z</time></trkpt><trkpt lat="44.17730579236886" lon="11.50137599237287"><ele>370.5</ele><time>2026-04-30T11:03:05Z</time></trkpt><trkpt lat="44.17739150758541" lon="11.501330206689632"><ele>371.0</ele><time>2026-04-30T11:03:06Z</time></trkpt><trkpt lat="44.17747430397346" lon="11.50128004346958"><ele>371.5</ele><time>2026-04-30T11:03:07Z</time></trkpt><trkpt lat="44.177550203886405" lon="11.501208732097243"><ele>372.0</ele><time>2026-04-30T11:03:08Z</time></trkpt><trkpt lat="44.177613308387365" lon="11.501160423672394"><ele>372.5</ele><time>2026-04-30T11:03:09Z</time></trkpt><trkpt lat="44.177684285322336" lon="11.50122767633762"><ele>373.0</ele><time>2026-04-30T11:03:11Z</time></trkpt><trkpt lat="44.17763992355589" lon="11.50135229886277"><ele>372.4</ele><time>2026-04-30T11:03:13Z</time></trkpt><trkpt lat="44.177517162727966" lon="11.501396189413766"><ele>371.79999999999995</ele><time>2026-04-30T11:03:15Z</time></trkpt><trkpt lat="44.177456535733086" lon="11.501459931737143"><ele>371.2</ele><time>2026-04-30T11:03:16Z</time></trkpt><trkpt lat="44.177407391065756" lon="11.501544044851055"><ele>370.6</ele><time>2026-04-30T11:03:17Z</time></trkpt><trkpt lat="44.17736382753294" lon="11.501615816667702"><ele>370.0</ele><time>2026-04-30T11:03:18Z</time></trkpt><trkpt lat="44.17729151322111" lon="11.501759941629643"><ele>370.0</ele><time>2026-04-30T11:03:20Z</time></trkpt><trkpt lat="44.177270901901906" lon="11.50184942826954"><ele>370.0</ele><time>2026-04-30T11:03:21Z</time></trkpt><trkpt lat="44.17727173526659" lon="11.501948819302227"><ele>370.0</ele><time>2026-04-30T11:03:22Z</time></trkpt><trkpt lat="44.17728474159778" lon="11.502063541283064"><ele>370.0</ele><time>2026-04-30T11:03:23Z</time></trkpt><trkpt lat="44.17728106534708" lon="11.50217421796259"><ele>370.0</ele><time>2026-04-30T11:03:24Z</time></trkpt><trkpt lat="44.17725455543522" lon="11.502287591579144"><ele>370.0</ele><time>2026-04-30T11:03:25Z</time></trkpt><trkpt lat="44.177220428251246" lon="11.50239550535378"><ele>374.4</ele><time>2026-04-30T11:03:26Z</time></trkpt><trkpt lat="44.17718881244403" lon="11.502519898695152"><ele>378.8</ele><time>2026-04-30T11:03:27Z</time></trkpt><trkpt lat="44.177149852527556" lon="11.502643032972154"><ele>383.20000000000005</ele><time>2026-04-30T11:03:28Z</time></trkpt><trkpt lat="44.17711424852472" lon="11.502766268875703"><ele>387.6</ele><time>2026-04-30T11:03:29Z</time></trkpt><trkpt lat="44.177075584805955" lon="11.502872310745623"><ele>392.0</ele><time>2026-04-30T11:03:30Z</time></trkpt><trkpt lat="44.1770166784946" lon="11.502971935460733"><ele>395.6</ele><time>2026-04-30T11:03:31Z</time></trkpt><trkpt lat="44.17694320289455" lon="11.503077897528987"><ele>399.20000000000005</ele><time>2026-04-30T11:03:32Z</time></trkpt><trkpt lat="44.17688619767251" lon="11.50319103671818"><ele>402.8</ele><time>2026-04-30T11:03:33Z</time></trkpt><trkpt lat="44.1768705174164" lon="11.503296716764465"><ele>406.4</ele><time>2026-04-30T11:03:34Z</time></trkpt><trkpt lat="44.17685240283777" lon="11.503408140711663"><ele>410.0</ele><time>2026-04-30T11:03:35Z</time></trkpt><trkpt lat="44.17683009304856" lon="11.503530933751614"><ele>410.0</ele><time>2026-04-30T11:03:36Z</time></trkpt><trkpt lat="44.1767697772369" lon="11.50365524157143"><ele>410.0</ele><time>2026-04-30T11:03:37Z</time></trkpt><trkpt lat="44.17676545639362" lon="11.50377567344647"><ele>410.0</ele><time>2026-04-30T11:03:38Z</time></trkpt><trkpt lat="44.17675638389033" lon="11.503927661785742"><ele>410.0</ele><time>2026-04-30T11:03:40Z</time></trkpt><trkpt lat="44.17673858412293" lon="11.504047273641287"><ele>410.0</ele><time>2026-04-30T11:03:42Z</time></trkpt><trkpt lat="44.17669597284383" lon="11.504115876434566"><ele>411.66666666666663</ele><time>2026-04-30T11:03:43Z</time></trkpt><trkpt lat="44.176643701550944" lon="11.504259744863724"><ele>413.3333333333333</ele><time>2026-04-30T11:03:45Z</time></trkpt><trkpt lat="44.17661275733607" lon="11.504352303224955"><ele>415.0</ele><time>2026-04-30T11:03:46Z</time></trkpt><trkpt lat="44.17658564296098" lon="11.504450755584678"><ele>416.66666666666663</ele><time>2026-04-30T11:03:47Z</time></trkpt><trkpt lat="44.1765761904309" lon="11.504560493457879"><ele>418.3333333333333</ele><time>2026-04-30T11:03:48Z</time></trkpt><trkpt lat="44.17658366796214" lon="11.504697071917589"><ele>420.0</ele><time>2026-04-30T11:03:49Z</time></trkpt><trkpt lat="44.176581217718585" lon="11.504826967993468"><ele>420.2</ele><time>2026-04-30T11:03:50Z</time></trkpt><trkpt lat="44.17655864930294" lon="11.504932248874681"><ele>420.4</ele><time>2026-04-30T11:03:51Z</time></trkpt><trkpt lat="44.17651408999098" lon="11.50502455171424"><ele>420.6</ele><time>2026-04-30T11:03:52Z</time></trkpt><trkpt lat="44.17645462330495" lon="11.505117893394734"><ele>420.8</ele><time>2026-04-30T11:03:53Z</time></trkpt><trkpt lat="44.17638068224345" lon="11.505221257498187"><ele>421.0</ele><time>2026-04-30T11:03:54Z</time></trkpt><trkpt lat="44.17630428762321" lon="11.505340545537276"><ele>424.6666666666667</ele><time>2026-04-30T11:03:55Z</time></trkpt><trkpt lat="44.17622982780888" lon="11.50543779882373"><ele>428.33333333333337</ele><time>2026-04-30T11:03:56Z</time></trkpt><trkpt lat="44.17616721353658" lon="11.505507862710386"><ele>432.0</ele><time>2026-04-30T11:03:57Z</time></trkpt><trkpt lat="44.17611472767161" lon="11.505574541766007"><ele>435.66666666666663</ele><time>2026-04-30T11:03:58Z</time></trkpt><trkpt lat="44.1760569648322" lon="11.505654278219664"><ele>439.3333333333333</ele><time>2026-04-30T11:03:59Z</time></trkpt><trkpt lat="44.17599728484899" lon="11.505750449190119"><ele>443.0</ele><time>2026-04-30T11:04:00Z</time></trkpt><trkpt lat="44.175947626732786" lon="11.505853647749328"><ele>442.99999999999994</ele><time>2026-04-30T11:04:01Z</time></trkpt><trkpt lat="44.175914627915155" lon="11.505947225491235"><ele>443.0</ele><time>2026-04-30T11:04:02Z</time></trkpt><trkpt lat="44.17587479401144" lon="11.506036486406948"><ele>443.0</ele><time>2026-04-30T11:04:03Z</time></trkpt><trkpt lat="44.17581669254754" lon="11.506121708867084"><ele>443.0</ele><time>2026-04-30T11:04:04Z</time></trkpt><trkpt lat="44.17574958197692" lon="11.506204304788813"><ele>442.99999999999994</ele><time>2026-04-30T11:04:05Z</time></trkpt><trkpt lat="44.17568073409832" lon="11.506296272665137"><ele>443.0</ele><time>2026-04-30T11:04:06Z</time></trkpt><trkpt lat="44.17560072671521" lon="11.506378950131332"><ele>447.2</ele><time>2026-04-30T11:04:07Z</time></trkpt><trkpt lat="44.17551612034702" lon="11.506457250332398"><ele>451.4</ele><time>2026-04-30T11:04:08Z</time></trkpt><trkpt lat="44.17543035494503" lon="11.506511520521771"><ele>455.59999999999997</ele><time>2026-04-30T11:04:09Z</time></trkpt><trkpt lat="44.175342275322784" lon="11.506524109517814"><ele>459.79999999999995</ele><time>2026-04-30T11:04:10Z</time></trkpt><trkpt lat="44.175257634405064" lon="11.506485130372758"><ele>464.0</ele><time>2026-04-30T11:04:11Z</time></trkpt><trkpt lat="44.17517199819741" lon="11.506435408263943"><ele>464.0</ele><time>2026-04-30T11:04:12Z</time></trkpt><trkpt lat="44.175084257009345" lon="11.506387096497688"><ele>464.0</ele><time>2026-04-30T11:04:13Z</time></trkpt><trkpt lat="44.1750004552277" lon="11.506336316077922"><ele>464.0</ele><time>2026-04-30T11:04:14Z</time></trkpt><trkpt lat="44.17491434427965" lon="11.506301071514393"><ele>464.0</ele><time>2026-04-30T11:04:15Z</time></trkpt><trkpt lat="44.174823875722254" lon="11.50629858228928"><ele>464.0</ele><time>2026-04-30T11:04:16Z</time></trkpt><trkpt lat="44.174740728143384" lon="11.506332143153829"><ele>465.4</ele><time>2026-04-30T11:04:17Z</time></trkpt><trkpt lat="44.17465866616853" lon="11.506366522192957"><ele>466.79999999999995</ele><time>2026-04-30T11:04:18Z</time></trkpt><trkpt lat="44.17452895103876" lon="11.506320454069527"><ele>468.20000000000005</ele><time>2026-04-30T11:04:20Z</time></trkpt><trkpt lat="44.174468188514815" lon="11.506251636405725"><ele>469.6</ele><time>2026-04-30T11:04:21Z</time></trkpt><trkpt lat="44.17443169669936" lon="11.506162481242328"><ele>471.0</ele><time>2026-04-30T11:04:22Z</time></trkpt><trkpt lat="44.17439717317886" lon="11.506064695317137"><ele>471.0</ele><time>2026-04-30T11:04:23Z</time></trkpt><trkpt lat="44.174382378105705" lon="11.505950069677654"><ele>471.0</ele><time>2026-04-30T11:04:24Z</time></trkpt><trkpt lat="44.17437899459128" lon="11.505829040766047"><ele>471.0</ele><time>2026-04-30T11:04:25Z</time></trkpt><trkpt lat="44.17435197688142" lon="11.505691619489193"><ele>471.0</ele><time>2026-04-30T11:04:26Z</time></trkpt><trkpt lat="44.174340212319485" lon="11.50557202447191"><ele>471.0</ele><time>2026-04-30T11:04:27Z</time></trkpt><trkpt lat="44.17432412744711" lon="11.505444620986136"><ele>471.0</ele><time>2026-04-30T11:04:29Z</time></trkpt><trkpt lat="44.17425023493077" lon="11.505405843624235"><ele>471.0</ele><time>2026-04-30T11:04:31Z</time></trkpt><trkpt lat="44.1741958427095" lon="11.50548346191791"><ele>471.0</ele><time>2026-04-30T11:04:32Z</time></trkpt><trkpt lat="44.1741408962099" lon="11.50556770739006"><ele>471.0</ele><time>2026-04-30T11:04:33Z</time></trkpt><trkpt lat="44.17409859556306" lon="11.505668225880203"><ele>471.0</ele><time>2026-04-30T11:04:34Z</time></trkpt><trkpt lat="44.17406487303365" lon="11.505775530965362"><ele>471.0</ele><time>2026-04-30T11:04:35Z</time></trkpt><trkpt lat="44.17407819528579" lon="11.505892046706382"><ele>471.0</ele><time>2026-04-30T11:04:36Z</time></trkpt><trkpt lat="44.17409661082338" lon="11.505986259233554"><ele>471.0</ele><time>2026-04-30T11:04:37Z</time></trkpt><trkpt lat="44.17412087325712" lon="11.506074504696747"><ele>471.0</ele><time>2026-04-30T11:04:38Z</time></trkpt><trkpt lat="44.17411649285825" lon="11.506168090500106"><ele>471.0</ele><time>2026-04-30T11:04:39Z</time></trkpt><trkpt lat="44.17412541388187" lon="11.506268406906425"><ele>471.0</ele><time>2026-04-30T11:04:40Z</time></trkpt><trkpt lat="44.17410505920718" lon="11.506383967867283"><ele>471.0</ele><time>2026-04-30T11:04:41Z</time></trkpt><trkpt lat="44.174059170542094" lon="11.50649693993008"><ele>473.8</ele><time>2026-04-30T11:04:42Z</time></trkpt><trkpt lat="44.17397053559881" lon="11.506528838018902"><ele>476.6</ele><time>2026-04-30T11:04:43Z</time></trkpt><trkpt lat="44.17388177511756" lon="11.506649030617442"><ele>479.4</ele><time>2026-04-30T11:04:45Z</time></trkpt><trkpt lat="44.173844859135265" lon="11.50674506085565"><ele>482.2</ele><time>2026-04-30T11:04:46Z</time></trkpt><trkpt lat="44.173784367373074" lon="11.506794834718185"><ele>485.0</ele><time>2026-04-30T11:04:47Z</time></trkpt><trkpt lat="44.173724098082275" lon="11.506912768817804"><ele>484.99999999999994</ele><time>2026-04-30T11:04:49Z</time></trkpt><trkpt lat="44.17365352630635" lon="11.50700631755989"><ele>485.0</ele><time>2026-04-30T11:04:51Z</time></trkpt><trkpt lat="44.173604752760966" lon="11.50707252249908"><ele>485.0</ele><time>2026-04-30T11:04:52Z</time></trkpt><trkpt lat="44.17353631689533" lon="11.507170830076632"><ele>485.0</ele><time>2026-04-30T11:04:53Z</time></trkpt><trkpt lat="44.173485779948535" lon="11.507253981868493"><ele>484.99999999999994</ele><time>2026-04-30T11:04:54Z</time></trkpt><trkpt lat="44.1734458221739" lon="11.507335815554095"><ele>485.0</ele><time>2026-04-30T11:04:56Z</time></trkpt><trkpt lat="44.173373545189996" lon="11.507378401817114"><ele>489.8</ele><time>2026-04-30T11:05:08Z</time></trkpt><trkpt lat="44.17332842286838" lon="11.50751301656413"><ele>494.6</ele><time>2026-04-30T11:05:10Z</time></trkpt><trkpt lat="44.1732491253381" lon="11.507659226121932"><ele>499.4</ele><time>2026-04-30T11:05:12Z</time></trkpt><trkpt lat="44.173206509056634" lon="11.507742738396168"><ele>504.2</ele><time>2026-04-30T11:05:13Z</time></trkpt><trkpt lat="44.17316244625471" lon="11.507827038940059"><ele>509.0</ele><time>2026-04-30T11:05:14Z</time></trkpt><trkpt lat="44.17309437391353" lon="11.507957127966378"><ele>511.3333333333333</ele><time>2026-04-30T11:05:16Z</time></trkpt><trkpt lat="44.1730720118664" lon="11.508043002005385"><ele>513.6666666666666</ele><time>2026-04-30T11:05:17Z</time></trkpt><trkpt lat="44.17304276131032" lon="11.508206588441729"><ele>516.0</ele><time>2026-04-30T11:05:19Z</time></trkpt><trkpt lat="44.17296556149462" lon="11.508291719945683"><ele>518.3333333333334</ele><time>2026-04-30T11:05:23Z</time></trkpt><trkpt lat="44.17290193518863" lon="11.508295896660288"><ele>520.6666666666667</ele><time>2026-04-30T11:05:25Z</time></trkpt><trkpt lat="44.17283987664825" lon="11.508370388658694"><ele>523.0</ele><time>2026-04-30T11:05:33Z</time></trkpt><trkpt lat="44.17279786240625" lon="11.508444034567681"><ele>523.0</ele><time>2026-04-30T11:05:38Z</time></trkpt><trkpt lat="44.17276780524029" lon="11.508557388783421"><ele>523.0</ele><time>2026-04-30T11:05:41Z</time></trkpt><trkpt lat="44.17266192638507" lon="11.508612688876049"><ele>523.0</ele><time>2026-04-30T11:05:43Z</time></trkpt><trkpt lat="44.17257090999894" lon="11.508745790724372"><ele>523.0</ele><time>2026-04-30T11:05:45Z</time></trkpt><trkpt lat="44.17257373409681" lon="11.508853595482018"><ele>523.0</ele><time>2026-04-30T11:05:47Z</time></trkpt><trkpt lat="44.172676935540466" lon="11.508913237708864"><ele>526.6666666666667</ele><time>2026-04-30T11:05:49Z</time></trkpt><trkpt lat="44.1727424992447" lon="11.508888327325169"><ele>530.3333333333334</ele><time>2026-04-30T11:05:50Z</time></trkpt><trkpt lat="44.17281437465044" lon="11.508821955927838"><ele>534.0</ele><time>2026-04-30T11:05:52Z</time></trkpt><trkpt lat="44.172871763443126" lon="11.508779678929871"><ele>537.6666666666666</ele><time>2026-04-30T11:06:00Z</time></trkpt><trkpt lat="44.172838399211074" lon="11.508887382465197"><ele>541.3333333333333</ele><time>2026-04-30T11:06:06Z</time></trkpt><trkpt lat="44.172789310822544" lon="11.508942784103473"><ele>545.0</ele><time>2026-04-30T11:06:08Z</time></trkpt><trkpt lat="44.172709717654186" lon="11.509092531646782"><ele>545.0</ele><time>2026-04-30T11:06:10Z</time></trkpt><trkpt lat="44.172724000275295" lon="11.509202909145477"><ele>545.0</ele><time>2026-04-30T11:06:12Z</time></trkpt><trkpt lat="44.17280512789463" lon="11.509228688194659"><ele>545.0</ele><time>2026-04-30T11:06:13Z</time></trkpt><trkpt lat="44.172897576678665" lon="11.509196215549649"><ele>545.0</ele><time>2026-04-30T11:06:14Z</time></trkpt><trkpt lat="44.17302350363793" lon="11.509155299956639"><ele>545.0</ele><time>2026-04-30T11:06:15Z</time></trkpt><trkpt lat="44.17309563979818" lon="11.509130202252818"><ele>547.3333333333333</ele><time>2026-04-30T11:06:16Z</time></trkpt><trkpt lat="44.17318964517687" lon="11.509115010695973"><ele>549.6666666666666</ele><time>2026-04-30T11:06:17Z</time></trkpt><trkpt lat="44.17326632313932" lon="11.50909514628738"><ele>552.0</ele><time>2026-04-30T11:06:18Z</time></trkpt><trkpt lat="44.17332703872099" lon="11.509059597741539"><ele>554.3333333333334</ele><time>2026-04-30T11:06:19Z</time></trkpt><trkpt lat="44.173395623893484" lon="11.508995888536713"><ele>556.6666666666667</ele><time>2026-04-30T11:06:20Z</time></trkpt><trkpt lat="44.17348994794089" lon="11.508993314340174"><ele>559.0</ele><time>2026-04-30T11:06:22Z</time></trkpt><trkpt lat="44.173550358400966" lon="11.509043593425064"><ele>559.0</ele><time>2026-04-30T11:06:23Z</time></trkpt><trkpt lat="44.17363727628179" lon="11.509099434971542"><ele>559.0</ele><time>2026-04-30T11:06:24Z</time></trkpt><trkpt lat="44.173735508294044" lon="11.509139447443852"><ele>559.0</ele><time>2026-04-30T11:06:25Z</time></trkpt><trkpt lat="44.173822894686616" lon="11.509140924579249"><ele>559.0</ele><time>2026-04-30T11:06:26Z</time></trkpt><trkpt lat="44.173898501459675" lon="11.50913347803545"><ele>559.0</ele><time>2026-04-30T11:06:27Z</time></trkpt><trkpt lat="44.173973850485" lon="11.509150842383754"><ele>559.0</ele><time>2026-04-30T11:06:28Z</time></trkpt><trkpt lat="44.17404025897097" lon="11.50917235606001"><ele>560.6666666666667</ele><time>2026-04-30T11:06:29Z</time></trkpt><trkpt lat="44.1741425659004" lon="11.50922315972542"><ele>562.3333333333334</ele><time>2026-04-30T11:06:31Z</time></trkpt><trkpt lat="44.17422295770342" lon="11.509273386867267"><ele>564.0</ele><time>2026-04-30T11:06:33Z</time></trkpt><trkpt lat="44.174281354284524" lon="11.50931620816199"><ele>565.6666666666666</ele><time>2026-04-30T11:06:34Z</time></trkpt><trkpt lat="44.174344370746304" lon="11.509374399956508"><ele>567.3333333333333</ele><time>2026-04-30T11:06:35Z</time></trkpt><trkpt lat="44.174398185888386" lon="11.50943030526666"><ele>569.0</ele><time>2026-04-30T11:06:36Z</time></trkpt><trkpt lat="44.174449572476306" lon="11.509483012773105"><ele>569.0</ele><time>2026-04-30T11:06:37Z</time></trkpt><trkpt lat="44.174499198522476" lon="11.509537283157538"><ele>569.0</ele><time>2026-04-30T11:06:38Z</time></trkpt><trkpt lat="44.1745475378699" lon="11.509616482300226"><ele>569.0</ele><time>2026-04-30T11:06:39Z</time></trkpt><trkpt lat="44.17460407304428" lon="11.509691240359821"><ele>569.0</ele><time>2026-04-30T11:06:40Z</time></trkpt><trkpt lat="44.1746715169952" lon="11.509772289698562"><ele>569.0</ele><time>2026-04-30T11:06:41Z</time></trkpt><trkpt lat="44.17472980027068" lon="11.5098548640364"><ele>569.0</ele><time>2026-04-30T11:06:42Z</time></trkpt><trkpt lat="44.1747641236842" lon="11.509941958204896"><ele>573.5</ele><time>2026-04-30T11:06:44Z</time></trkpt><trkpt lat="44.17467241646787" lon="11.5100056306797"><ele>578.0</ele><time>2026-04-30T11:06:52Z</time></trkpt><trkpt lat="44.17455862452672" lon="11.510010564791889"><ele>582.5</ele><time>2026-04-30T11:06:54Z</time></trkpt><trkpt lat="44.17448718474197" lon="11.510070312156406"><ele>587.0</ele><time>2026-04-30T11:06:56Z</time></trkpt><trkpt lat="44.17444146012294" lon="11.510149990604562"><ele>591.5</ele><time>2026-04-30T11:06:59Z</time></trkpt><trkpt lat="44.17443816052982" lon="11.510256083951537"><ele>596.0</ele><time>2026-04-30T11:07:00Z</time></trkpt><trkpt lat="44.174497456552416" lon="11.510480299424994"><ele>600.3333333333333</ele><time>2026-04-30T11:07:02Z</time></trkpt><trkpt lat="44.174533185991045" lon="11.51058223254717"><ele>604.6666666666666</ele><time>2026-04-30T11:07:03Z</time></trkpt><trkpt lat="44.17450567437179" lon="11.510669701144769"><ele>609.0</ele><time>2026-04-30T11:07:04Z</time></trkpt><trkpt lat="44.174452724516" lon="11.510743871418175"><ele>613.3333333333334</ele><time>2026-04-30T11:07:08Z</time></trkpt><trkpt lat="44.17435194940214" lon="11.510759045386743"><ele>617.6666666666667</ele><time>2026-04-30T11:07:10Z</time></trkpt><trkpt lat="44.17428001319064" lon="11.51078536373176"><ele>622.0</ele><time>2026-04-30T11:07:12Z</time></trkpt><trkpt lat="44.17435768693553" lon="11.510726507586309"><ele>622.0</ele><time>2026-04-30T11:08:25Z</time></trkpt><trkpt lat="44.17442647613863" lon="11.51071009396879"><ele>622.0</ele><time>2026-04-30T11:08:27Z</time></trkpt><trkpt lat="44.17450577425992" lon="11.510767130604464"><ele>622.0</ele><time>2026-04-30T11:08:30Z</time></trkpt><trkpt lat="44.174526676306776" lon="11.510858899636084"><ele>622.0</ele><time>2026-04-30T11:08:32Z</time></trkpt><trkpt lat="44.17452611728115" lon="11.510947585912033"><ele>622.0</ele><time>2026-04-30T11:08:35Z</time></trkpt><trkpt lat="44.17442520045114" lon="11.510908048790562"><ele>622.0</ele><time>2026-04-30T11:08:56Z</time></trkpt><trkpt lat="44.17436169142913" lon="11.510904047008657"><ele>622.0</ele><time>2026-04-30T11:08:59Z</time></trkpt><trkpt lat="44.17428430702042" lon="11.510890283733739"><ele>622.0</ele><time>2026-04-30T11:10:34Z</time></trkpt><trkpt lat="44.17436924340568" lon="11.510871872059276"><ele>622.0</ele><time>2026-04-30T11:10:36Z</time></trkpt><trkpt lat="44.17442923826298" lon="11.51089981136729"><ele>622.0</ele><time>2026-04-30T11:10:38Z</time></trkpt><trkpt lat="44.17448998892591" lon="11.510936217814463"><ele>622.0</ele><time>2026-04-30T11:10:41Z</time></trkpt><trkpt lat="44.17455180324993" lon="11.511013282817611"><ele>622.0</ele><time>2026-04-30T11:12:00Z</time></trkpt><trkpt lat="44.17456352423192" lon="11.511121381823106"><ele>622.0</ele><time>2026-04-30T11:12:02Z</time></trkpt><trkpt lat="44.17456030976226" lon="11.511233332650603"><ele>622.0</ele><time>2026-04-30T11:12:04Z</time></trkpt><trkpt lat="44.174575304559944" lon="11.511330157062186"><ele>622.0</ele><time>2026-04-30T11:12:48Z</time></trkpt><trkpt lat="44.174578028707195" lon="11.511135635781628"><ele>622.0</ele><time>2026-04-30T11:13:11Z</time></trkpt><trkpt lat="44.17455531983787" lon="11.510986276536627"><ele>622.0</ele><time>2026-04-30T11:13:13Z</time></trkpt><trkpt lat="44.17453335158852" lon="11.510859389910932"><ele>622.0</ele><time>2026-04-30T11:13:15Z</time></trkpt><trkpt lat="44.174499371591565" lon="11.510760480055133"><ele>622.0</ele><time>2026-04-30T11:13:18Z</time></trkpt><trkpt lat="44.17442858749676" lon="11.510737488660418"><ele>622.0</ele><time>2026-04-30T11:13:20Z</time></trkpt><trkpt lat="44.1743048831345" lon="11.510806927210675"><ele>622.0</ele><time>2026-04-30T11:13:22Z</time></trkpt><trkpt lat="44.17420965671447" lon="11.510851446841752"><ele>622.0</ele><time>2026-04-30T11:13:24Z</time></trkpt><trkpt lat="44.17413802270035" lon="11.51087098487392"><ele>622.0</ele><time>2026-04-30T11:13:56Z</time></trkpt><trkpt lat="44.1740716411987" lon="11.51090455388646"><ele>622.0</ele><time>2026-04-30T11:15:05Z</time></trkpt><trkpt lat="44.174147541536875" lon="11.510843204683587"><ele>622.0</ele><time>2026-04-30T11:17:22Z</time></trkpt><trkpt lat="44.174071928689635" lon="11.510884345777237"><ele>622.0</ele><time>2026-04-30T11:17:26Z</time></trkpt><trkpt lat="44.17398964907009" lon="11.510944515673758"><ele>622.0</ele><time>2026-04-30T11:17:29Z</time></trkpt><trkpt lat="44.173910560262215" lon="11.511027121454095"><ele>622.0</ele><time>2026-04-30T11:17:31Z</time></trkpt><trkpt lat="44.17381062471469" lon="11.511070166422078"><ele>619.8333333333334</ele><time>2026-04-30T11:18:25Z</time></trkpt><trkpt lat="44.173734562672486" lon="11.511085128575003"><ele>617.6666666666667</ele><time>2026-04-30T11:18:42Z</time></trkpt><trkpt lat="44.17368339424053" lon="11.511166143233762"><ele>615.5</ele><time>2026-04-30T11:18:44Z</time></trkpt><trkpt lat="44.17364407214022" lon="11.511247129629552"><ele>613.3333333333334</ele><time>2026-04-30T11:18:46Z</time></trkpt><trkpt lat="44.17359762238856" lon="11.511332108580463"><ele>611.1666666666666</ele><time>2026-04-30T11:18:49Z</time></trkpt><trkpt lat="44.173540133361605" lon="11.51144073317887"><ele>609.0</ele><time>2026-04-30T11:20:17Z</time></trkpt><trkpt lat="44.173505607534075" lon="11.511600307846546"><ele>614.6666666666666</ele><time>2026-04-30T11:20:19Z</time></trkpt><trkpt lat="44.173475495755255" lon="11.511678573274002"><ele>620.3333333333334</ele><time>2026-04-30T11:20:20Z</time></trkpt><trkpt lat="44.173444032430595" lon="11.511756430870635"><ele>626.0</ele><time>2026-04-30T11:20:21Z</time></trkpt><trkpt lat="44.17340410825158" lon="11.511860567653615"><ele>631.6666666666667</ele><time>2026-04-30T11:20:22Z</time></trkpt><trkpt lat="44.17337758814027" lon="11.511955443675562"><ele>637.3333333333334</ele><time>2026-04-30T11:20:23Z</time></trkpt><trkpt lat="44.173326793145826" lon="11.512041586635053"><ele>643.0</ele><time>2026-04-30T11:20:25Z</time></trkpt><trkpt lat="44.173259900045615" lon="11.512148157072843"><ele>646.5999999999999</ele><time>2026-04-30T11:20:27Z</time></trkpt><trkpt lat="44.17325609464072" lon="11.51225274060461"><ele>650.1999999999999</ele><time>2026-04-30T11:20:29Z</time></trkpt><trkpt lat="44.173346465204546" lon="11.512318803934624"><ele>653.8</ele><time>2026-04-30T11:20:31Z</time></trkpt><trkpt lat="44.17345572835346" lon="11.512398868411358"><ele>657.4</ele><time>2026-04-30T11:20:33Z</time></trkpt><trkpt lat="44.173535275179226" lon="11.51251915686692"><ele>661.0</ele><time>2026-04-30T11:20:35Z</time></trkpt><trkpt lat="44.17361776264997" lon="11.512641354465107"><ele>661.0</ele><time>2026-04-30T11:20:37Z</time></trkpt><trkpt lat="44.173713669009345" lon="11.512735982712986"><ele>661.0</ele><time>2026-04-30T11:20:39Z</time></trkpt><trkpt lat="44.17378860112996" lon="11.512832973707209"><ele>661.0</ele><time>2026-04-30T11:20:41Z</time></trkpt><trkpt lat="44.17387620918521" lon="11.512942358986582"><ele>661.0</ele><time>2026-04-30T11:20:43Z</time></trkpt><trkpt lat="44.17393180238351" lon="11.51301340442281"><ele>661.0</ele><time>2026-04-30T11:20:45Z</time></trkpt><trkpt lat="44.17393804284148" lon="11.513113904831785"><ele>664.8333333333334</ele><time>2026-04-30T11:20:48Z</time></trkpt><trkpt lat="44.17385850407505" lon="11.513159683451738"><ele>668.6666666666667</ele><time>2026-04-30T11:21:46Z</time></trkpt><trkpt lat="44.17379142052517" lon="11.513133488253272"><ele>672.5</ele><time>2026-04-30T11:21:57Z</time></trkpt><trkpt lat="44.17372811333385" lon="11.513116262545326"><ele>676.3333333333334</ele><time>2026-04-30T11:21:58Z</time></trkpt><trkpt lat="44.173632305794" lon="11.513075608257257"><ele>680.1666666666666</ele><time>2026-04-30T11:21:59Z</time></trkpt><trkpt lat="44.17352404541515" lon="11.51306218515095"><ele>684.0</ele><time>2026-04-30T11:22:00Z</time></trkpt><trkpt lat="44.173435918880024" lon="11.513051638039986"><ele>684.0</ele><time>2026-04-30T11:22:01Z</time></trkpt><trkpt lat="44.17331792580244" lon="11.513013030331141"><ele>684.0</ele><time>2026-04-30T11:22:02Z</time></trkpt><trkpt lat="44.1732196941024" lon="11.513004534016558"><ele>684.0</ele><time>2026-04-30T11:22:03Z</time></trkpt><trkpt lat="44.17312034343482" lon="11.513008555404024"><ele>684.0</ele><time>2026-04-30T11:22:04Z</time></trkpt><trkpt lat="44.173062970973945" lon="11.513142376296996"><ele>684.0</ele><time>2026-04-30T11:22:07Z</time></trkpt><trkpt lat="44.17314002900984" lon="11.513223367716288"><ele>684.0</ele><time>2026-04-30T11:22:09Z</time></trkpt><trkpt lat="44.17319238877719" lon="11.513300232164612"><ele>684.0</ele><time>2026-04-30T11:22:11Z</time></trkpt><trkpt lat="44.17323167801038" lon="11.513398641658457"><ele>684.0</ele><time>2026-04-30T11:22:12Z</time></trkpt><trkpt lat="44.17328448196123" lon="11.513525267859617"><ele>684.0</ele><time>2026-04-30T11:22:13Z</time></trkpt><trkpt lat="44.173282925473195" lon="11.513623159656934"><ele>684.0</ele><time>2026-04-30T11:22:14Z</time></trkpt><trkpt lat="44.17316588493603" lon="11.513706895562489"><ele>684.2</ele><time>2026-04-30T11:22:16Z</time></trkpt><trkpt lat="44.173064882602254" lon="11.51373515445959"><ele>684.4000000000001</ele><time>2026-04-30T11:22:17Z</time></trkpt><trkpt lat="44.17296760705464" lon="11.513795389844672"><ele>684.6</ele><time>2026-04-30T11:22:18Z</time></trkpt><trkpt lat="44.17290322572228" lon="11.513877019188405"><ele>684.8</ele><time>2026-04-30T11:22:19Z</time></trkpt><trkpt lat="44.172823684463346" lon="11.513962782118949"><ele>685.0</ele><time>2026-04-30T11:22:20Z</time></trkpt><trkpt lat="44.17277031109611" lon="11.514023565574425"><ele>687.8333333333334</ele><time>2026-04-30T11:22:21Z</time></trkpt><trkpt lat="44.17269526130694" lon="11.51406576401603"><ele>690.6666666666667</ele><time>2026-04-30T11:22:24Z</time></trkpt><trkpt lat="44.172612425743324" lon="11.514050417369063"><ele>693.5</ele><time>2026-04-30T11:22:26Z</time></trkpt><trkpt lat="44.172517375600655" lon="11.514065187583919"><ele>696.3333333333334</ele><time>2026-04-30T11:22:28Z</time></trkpt><trkpt lat="44.172444934625474" lon="11.514138786734026"><ele>699.1666666666666</ele><time>2026-04-30T11:22:30Z</time></trkpt><trkpt lat="44.17239562580391" lon="11.514205527001499"><ele>702.0</ele><time>2026-04-30T11:22:31Z</time></trkpt><trkpt lat="44.172345024725374" lon="11.51427682595607"><ele>702.0</ele><time>2026-04-30T11:22:32Z</time></trkpt><trkpt lat="44.17227213459148" lon="11.514367484583374"><ele>702.0</ele><time>2026-04-30T11:22:34Z</time></trkpt><trkpt lat="44.17220014385276" lon="11.51437648508845"><ele>702.0</ele><time>2026-04-30T11:22:36Z</time></trkpt><trkpt lat="44.17209154342306" lon="11.514387260648453"><ele>702.0</ele><time>2026-04-30T11:22:38Z</time></trkpt><trkpt lat="44.17201085554957" lon="11.514464963986933"><ele>702.0</ele><time>2026-04-30T11:22:40Z</time></trkpt><trkpt lat="44.1719507347576" lon="11.514586017092315"><ele>705.5</ele><time>2026-04-30T11:22:42Z</time></trkpt><trkpt lat="44.171982863963" lon="11.514698569157591"><ele>709.0</ele><time>2026-04-30T11:22:44Z</time></trkpt><trkpt lat="44.172039140063504" lon="11.51474320401269"><ele>712.5</ele><time>2026-04-30T11:22:45Z</time></trkpt><trkpt lat="44.17213491410908" lon="11.514802160507527"><ele>716.0</ele><time>2026-04-30T11:22:47Z</time></trkpt><trkpt lat="44.17221618756776" lon="11.514897279392283"><ele>719.5</ele><time>2026-04-30T11:22:49Z</time></trkpt><trkpt lat="44.172251721663564" lon="11.514970573780507"><ele>723.0</ele><time>2026-04-30T11:22:50Z</time></trkpt><trkpt lat="44.17228018244013" lon="11.51504963577932"><ele>723.0</ele><time>2026-04-30T11:22:51Z</time></trkpt><trkpt lat="44.172319943662096" lon="11.515154575316025"><ele>723.0</ele><time>2026-04-30T11:22:52Z</time></trkpt><trkpt lat="44.17236693105427" lon="11.515268753709286"><ele>723.0</ele><time>2026-04-30T11:22:53Z</time></trkpt><trkpt lat="44.17241590380488" lon="11.515389846414783"><ele>723.0</ele><time>2026-04-30T11:22:54Z</time></trkpt><trkpt lat="44.17245967625929" lon="11.515498526802618"><ele>723.0</ele><time>2026-04-30T11:22:55Z</time></trkpt><trkpt lat="44.17254873390656" lon="11.515572881243129"><ele>723.2</ele><time>2026-04-30T11:22:57Z</time></trkpt><trkpt lat="44.17262034850779" lon="11.515600205724358"><ele>723.4</ele><time>2026-04-30T11:22:59Z</time></trkpt><trkpt lat="44.17269748514638" lon="11.515632889789675"><ele>723.6</ele><time>2026-04-30T11:23:01Z</time></trkpt><trkpt lat="44.17278739441892" lon="11.51565654187929"><ele>723.8000000000001</ele><time>2026-04-30T11:23:04Z</time></trkpt><trkpt lat="44.172882558227926" lon="11.515670726985096"><ele>724.0</ele><time>2026-04-30T11:23:06Z</time></trkpt><trkpt lat="44.17302299991727" lon="11.515690430783916"><ele>724.0</ele><time>2026-04-30T11:23:08Z</time></trkpt><trkpt lat="44.17310828250257" lon="11.515720610657954"><ele>724.0</ele><time>2026-04-30T11:23:09Z</time></trkpt><trkpt lat="44.17317880692989" lon="11.515762640281537"><ele>724.0</ele><time>2026-04-30T11:23:10Z</time></trkpt><trkpt lat="44.17327201871106" lon="11.515821642003566"><ele>724.0</ele><time>2026-04-30T11:23:11Z</time></trkpt><trkpt lat="44.17337444385393" lon="11.515860154940123"><ele>724.0</ele><time>2026-04-30T11:23:12Z</time></trkpt><trkpt lat="44.17344242108108" lon="11.515895329814217"><ele>724.0</ele><time>2026-04-30T11:23:13Z</time></trkpt><trkpt lat="44.173501865805115" lon="11.515941259002904"><ele>725.5</ele><time>2026-04-30T11:23:14Z</time></trkpt><trkpt lat="44.17355641181447" lon="11.515991919327186"><ele>727.0</ele><time>2026-04-30T11:23:15Z</time></trkpt><trkpt lat="44.1736682513068" lon="11.515979313947911"><ele>728.5</ele><time>2026-04-30T11:23:17Z</time></trkpt><trkpt lat="44.17374007799556" lon="11.515962323439787"><ele>730.0</ele><time>2026-04-30T11:23:18Z</time></trkpt><trkpt lat="44.17381465198883" lon="11.51595818200278"><ele>731.5</ele><time>2026-04-30T11:23:19Z</time></trkpt><trkpt lat="44.173889687024" lon="11.515977250635467"><ele>733.0</ele><time>2026-04-30T11:23:20Z</time></trkpt><trkpt lat="44.173966125627835" lon="11.515989461533094"><ele>733.8</ele><time>2026-04-30T11:23:21Z</time></trkpt><trkpt lat="44.17404088781575" lon="11.515995840412026"><ele>734.5999999999999</ele><time>2026-04-30T11:23:22Z</time></trkpt><trkpt lat="44.17410953356432" lon="11.51600964288746"><ele>735.4000000000001</ele><time>2026-04-30T11:23:23Z</time></trkpt><trkpt lat="44.17418111332171" lon="11.516002044151199"><ele>736.2</ele><time>2026-04-30T11:23:24Z</time></trkpt><trkpt lat="44.174292951287846" lon="11.51601195130259"><ele>737.0</ele><time>2026-04-30T11:23:26Z</time></trkpt><trkpt lat="44.17440720897954" lon="11.516090501265623"><ele>737.0</ele><time>2026-04-30T11:23:28Z</time></trkpt><trkpt lat="44.17452918502199" lon="11.51613997937892"><ele>737.0</ele><time>2026-04-30T11:23:30Z</time></trkpt><trkpt lat="44.17463809004838" lon="11.516190225236622"><ele>737.0</ele><time>2026-04-30T11:23:32Z</time></trkpt><trkpt lat="44.174729484929244" lon="11.516204587944321"><ele>737.0</ele><time>2026-04-30T11:23:34Z</time></trkpt><trkpt lat="44.174801176644216" lon="11.516198388793557"><ele>737.0</ele><time>2026-04-30T11:23:36Z</time></trkpt><trkpt lat="44.17489171045068" lon="11.516242796579768"><ele>734.0</ele><time>2026-04-30T11:23:38Z</time></trkpt><trkpt lat="44.174951848238294" lon="11.516270136885614"><ele>731.0</ele><time>2026-04-30T11:23:39Z</time></trkpt><trkpt lat="44.175033858843925" lon="11.516286325655804"><ele>728.0</ele><time>2026-04-30T11:23:40Z</time></trkpt><trkpt lat="44.17510637192772" lon="11.516292987916072"><ele>725.0</ele><time>2026-04-30T11:23:41Z</time></trkpt><trkpt lat="44.17518885127047" lon="11.516288214018472"><ele>722.0</ele><time>2026-04-30T11:23:42Z</time></trkpt><trkpt lat="44.17525291284169" lon="11.51627605397328"><ele>719.0</ele><time>2026-04-30T11:23:43Z</time></trkpt><trkpt lat="44.17536812294291" lon="11.516245644506213"><ele>720.4000000000001</ele><time>2026-04-30T11:23:45Z</time></trkpt><trkpt lat="44.17548897822181" lon="11.51620429022942"><ele>721.8</ele><time>2026-04-30T11:23:47Z</time></trkpt><trkpt lat="44.17555683891501" lon="11.516173088249255"><ele>723.2</ele><time>2026-04-30T11:23:48Z</time></trkpt><trkpt lat="44.17568215095261" lon="11.516169299777134"><ele>724.5999999999999</ele><time>2026-04-30T11:23:50Z</time></trkpt><trkpt lat="44.17574645489632" lon="11.516185147023087"><ele>726.0</ele><time>2026-04-30T11:23:51Z</time></trkpt><trkpt lat="44.17584873384637" lon="11.516214786009218"><ele>724.4</ele><time>2026-04-30T11:23:53Z</time></trkpt><trkpt lat="44.175952418488336" lon="11.51627116024461"><ele>722.8</ele><time>2026-04-30T11:23:55Z</time></trkpt><trkpt lat="44.17603919243267" lon="11.516319693085384"><ele>721.1999999999999</ele><time>2026-04-30T11:23:57Z</time></trkpt><trkpt lat="44.176124847134375" lon="11.516337534014717"><ele>719.5999999999999</ele><time>2026-04-30T11:23:59Z</time></trkpt><trkpt lat="44.17622035753181" lon="11.516369492976278"><ele>718.0</ele><time>2026-04-30T11:24:01Z</time></trkpt><trkpt lat="44.17633024309261" lon="11.516428161548369"><ele>718.0</ele><time>2026-04-30T11:24:03Z</time></trkpt><trkpt lat="44.17639644574395" lon="11.516478579416024"><ele>718.0</ele><time>2026-04-30T11:24:04Z</time></trkpt><trkpt lat="44.17648436521459" lon="11.516480048732443"><ele>718.0</ele><time>2026-04-30T11:24:05Z</time></trkpt><trkpt lat="44.17658608654318" lon="11.516442064002959"><ele>718.0</ele><time>2026-04-30T11:24:06Z</time></trkpt><trkpt lat="44.17666163698854" lon="11.516421844184732"><ele>718.0</ele><time>2026-04-30T11:24:07Z</time></trkpt><trkpt lat="44.17678964486504" lon="11.51646996658882"><ele>718.5999999999999</ele><time>2026-04-30T11:24:09Z</time></trkpt><trkpt lat="44.1768666334466" lon="11.51651250345006"><ele>719.1999999999999</ele><time>2026-04-30T11:24:10Z</time></trkpt><trkpt lat="44.176951552257265" lon="11.516559988291691"><ele>719.8</ele><time>2026-04-30T11:24:11Z</time></trkpt><trkpt lat="44.177028145534855" lon="11.516615647809296"><ele>720.4</ele><time>2026-04-30T11:24:12Z</time></trkpt><trkpt lat="44.17709800623257" lon="11.516701817447174"><ele>721.0</ele><time>2026-04-30T11:24:13Z</time></trkpt><trkpt lat="44.17716908375172" lon="11.51680067440565"><ele>721.0</ele><time>2026-04-30T11:24:14Z</time></trkpt><trkpt lat="44.17723946500002" lon="11.516865545489999"><ele>721.0</ele><time>2026-04-30T11:24:15Z</time></trkpt><trkpt lat="44.1772877731776" lon="11.51694861867762"><ele>721.0</ele><time>2026-04-30T11:24:16Z</time></trkpt><trkpt lat="44.177335878438626" lon="11.517036133609258"><ele>721.0</ele><time>2026-04-30T11:24:17Z</time></trkpt><trkpt lat="44.1773850142456" lon="11.517122261228732"><ele>721.0</ele><time>2026-04-30T11:24:18Z</time></trkpt><trkpt lat="44.17742480842624" lon="11.517198151507696"><ele>721.0</ele><time>2026-04-30T11:24:19Z</time></trkpt><trkpt lat="44.177461814522744" lon="11.517356911856261"><ele>718.4</ele><time>2026-04-30T11:24:21Z</time></trkpt><trkpt lat="44.177529201444266" lon="11.517514132718894"><ele>715.8</ele><time>2026-04-30T11:24:23Z</time></trkpt><trkpt lat="44.17758251955238" lon="11.517609510755818"><ele>713.1999999999999</ele><time>2026-04-30T11:24:24Z</time></trkpt><trkpt lat="44.177623400507855" lon="11.517689807639044"><ele>710.5999999999999</ele><time>2026-04-30T11:24:25Z</time></trkpt><trkpt lat="44.177718713200996" lon="11.517796343596977"><ele>708.0</ele><time>2026-04-30T11:24:27Z</time></trkpt><trkpt lat="44.17781556004026" lon="11.517896477047596"><ele>706.6666666666666</ele><time>2026-04-30T11:24:29Z</time></trkpt><trkpt lat="44.17788714815274" lon="11.517930330376286"><ele>705.3333333333334</ele><time>2026-04-30T11:24:30Z</time></trkpt><trkpt lat="44.17796903044351" lon="11.517975212192832"><ele>704.0</ele><time>2026-04-30T11:24:31Z</time></trkpt><trkpt lat="44.17804446451462" lon="11.518038738133251"><ele>702.6666666666667</ele><time>2026-04-30T11:24:32Z</time></trkpt><trkpt lat="44.17810077773505" lon="11.518110574948661"><ele>701.3333333333334</ele><time>2026-04-30T11:24:33Z</time></trkpt><trkpt lat="44.178158457451396" lon="11.51818324737292"><ele>700.0</ele><time>2026-04-30T11:24:34Z</time></trkpt><trkpt lat="44.17822149248802" lon="11.518255247316675"><ele>700.0</ele><time>2026-04-30T11:24:35Z</time></trkpt><trkpt lat="44.17827360179809" lon="11.518332105500166"><ele>700.0</ele><time>2026-04-30T11:24:36Z</time></trkpt><trkpt lat="44.17831060484187" lon="11.518405011640713"><ele>700.0</ele><time>2026-04-30T11:24:37Z</time></trkpt><trkpt lat="44.17836338823291" lon="11.518482396196552"><ele>700.0</ele><time>2026-04-30T11:24:38Z</time></trkpt><trkpt lat="44.17841860980734" lon="11.51854189207341"><ele>700.0</ele><time>2026-04-30T11:24:39Z</time></trkpt><trkpt lat="44.178469458413346" lon="11.518603353237447"><ele>700.0</ele><time>2026-04-30T11:24:40Z</time></trkpt><trkpt lat="44.17851316047964" lon="11.518682521728387"><ele>700.0</ele><time>2026-04-30T11:24:41Z</time></trkpt><trkpt lat="44.17859465338209" lon="11.518822225930357"><ele>700.0</ele><time>2026-04-30T11:24:43Z</time></trkpt><trkpt lat="44.178650297913855" lon="11.5188934364697"><ele>700.0</ele><time>2026-04-30T11:24:44Z</time></trkpt><trkpt lat="44.17870971310152" lon="11.518956776259365"><ele>700.0</ele><time>2026-04-30T11:24:45Z</time></trkpt><trkpt lat="44.17876777369971" lon="11.519088740728499"><ele>700.0</ele><time>2026-04-30T11:24:47Z</time></trkpt><trkpt lat="44.178784160982325" lon="11.5191882117741"><ele>700.0</ele><time>2026-04-30T11:24:48Z</time></trkpt><trkpt lat="44.17880353422326" lon="11.519307302590212"><ele>700.0</ele><time>2026-04-30T11:24:49Z</time></trkpt><trkpt lat="44.17883155934252" lon="11.51942224139975"><ele>700.0</ele><time>2026-04-30T11:24:50Z</time></trkpt><trkpt lat="44.17887024047352" lon="11.519516448230082"><ele>700.0</ele><time>2026-04-30T11:24:52Z</time></trkpt><trkpt lat="44.178924330694784" lon="11.519672222352586"><ele>700.0</ele><time>2026-04-30T11:25:07Z</time></trkpt><trkpt lat="44.178969766349134" lon="11.519804704555693"><ele>700.0</ele><time>2026-04-30T11:25:08Z</time></trkpt><trkpt lat="44.179034350524624" lon="11.519960362716958"><ele>700.0</ele><time>2026-04-30T11:25:09Z</time></trkpt><trkpt lat="44.17910202952308" lon="11.520073976449739"><ele>697.1666666666667</ele><time>2026-04-30T11:25:10Z</time></trkpt><trkpt lat="44.17917308798061" lon="11.520161340589219"><ele>694.3333333333334</ele><time>2026-04-30T11:25:11Z</time></trkpt><trkpt lat="44.179221805106664" lon="11.520233755697967"><ele>691.5</ele><time>2026-04-30T11:25:12Z</time></trkpt><trkpt lat="44.1792723120114" lon="11.520315104997133"><ele>688.6666666666666</ele><time>2026-04-30T11:25:13Z</time></trkpt><trkpt lat="44.17934471338468" lon="11.520359583971405"><ele>685.8333333333333</ele><time>2026-04-30T11:25:14Z</time></trkpt><trkpt lat="44.17940945048671" lon="11.520396098803513"><ele>683.0</ele><time>2026-04-30T11:25:15Z</time></trkpt><trkpt lat="44.17948508582208" lon="11.520383945976409"><ele>683.0</ele><time>2026-04-30T11:25:17Z</time></trkpt><trkpt lat="44.17956599648425" lon="11.52036013496002"><ele>683.0</ele><time>2026-04-30T11:25:19Z</time></trkpt><trkpt lat="44.17968456480858" lon="11.520382423875454"><ele>683.0</ele><time>2026-04-30T11:25:21Z</time></trkpt><trkpt lat="44.179769210157076" lon="11.520408189273523"><ele>683.0</ele><time>2026-04-30T11:25:22Z</time></trkpt><trkpt lat="44.179846726564094" lon="11.520411904799102"><ele>683.0</ele><time>2026-04-30T11:25:23Z</time></trkpt><trkpt lat="44.179935004300546" lon="11.52055108912499"><ele>682.8</ele><time>2026-04-30T11:25:25Z</time></trkpt><trkpt lat="44.18001453765774" lon="11.520614475126035"><ele>682.5999999999999</ele><time>2026-04-30T11:25:26Z</time></trkpt><trkpt lat="44.18007828368884" lon="11.520682552395016"><ele>682.4000000000001</ele><time>2026-04-30T11:25:27Z</time></trkpt><trkpt lat="44.180133696581194" lon="11.520747738227803"><ele>682.2</ele><time>2026-04-30T11:25:28Z</time></trkpt><trkpt lat="44.1802000656939" lon="11.520830238135849"><ele>682.0</ele><time>2026-04-30T11:25:29Z</time></trkpt><trkpt lat="44.180306740125005" lon="11.520914168587785"><ele>682.0</ele><time>2026-04-30T11:25:30Z</time></trkpt><trkpt lat="44.18041253595834" lon="11.521039931933297"><ele>682.0</ele><time>2026-04-30T11:25:31Z</time></trkpt><trkpt lat="44.18051345922979" lon="11.521156424008751"><ele>682.0</ele><time>2026-04-30T11:25:32Z</time></trkpt><trkpt lat="44.18057344376577" lon="11.521249900640818"><ele>682.0</ele><time>2026-04-30T11:25:33Z</time></trkpt><trkpt lat="44.180629380748634" lon="11.521321422070667"><ele>682.0</ele><time>2026-04-30T11:25:34Z</time></trkpt><trkpt lat="44.18070577155319" lon="11.521393318807286"><ele>681.6</ele><time>2026-04-30T11:25:35Z</time></trkpt><trkpt lat="44.18078277662847" lon="11.521484516224461"><ele>681.2</ele><time>2026-04-30T11:25:36Z</time></trkpt><trkpt lat="44.18084895747207" lon="11.521585523405394"><ele>680.8</ele><time>2026-04-30T11:25:37Z</time></trkpt><trkpt lat="44.1809185779878" lon="11.521688331603821"><ele>680.4</ele><time>2026-04-30T11:25:38Z</time></trkpt><trkpt lat="44.18100075575466" lon="11.521772261726353"><ele>680.0</ele><time>2026-04-30T11:25:39Z</time></trkpt><trkpt lat="44.18110246584658" lon="11.521849334591419"><ele>680.0</ele><time>2026-04-30T11:25:40Z</time></trkpt><trkpt lat="44.18119040708644" lon="11.521922996808204"><ele>680.0</ele><time>2026-04-30T11:25:41Z</time></trkpt><trkpt lat="44.181259648628824" lon="11.521979808399331"><ele>680.0</ele><time>2026-04-30T11:25:42Z</time></trkpt><trkpt lat="44.181332109390276" lon="11.522023186757748"><ele>680.0</ele><time>2026-04-30T11:25:43Z</time></trkpt><trkpt lat="44.181425196159715" lon="11.522108977672003"><ele>680.0</ele><time>2026-04-30T11:25:44Z</time></trkpt><trkpt lat="44.181524378396" lon="11.522204588226241"><ele>680.1666666666666</ele><time>2026-04-30T11:25:45Z</time></trkpt><trkpt lat="44.18160018374692" lon="11.522285930190153"><ele>680.3333333333333</ele><time>2026-04-30T11:25:46Z</time></trkpt><trkpt lat="44.181668905449925" lon="11.52236705567278"><ele>680.5</ele><time>2026-04-30T11:25:47Z</time></trkpt><trkpt lat="44.18172136283982" lon="11.522460652909864"><ele>680.6666666666666</ele><time>2026-04-30T11:25:48Z</time></trkpt><trkpt lat="44.181772292443576" lon="11.522550033700604"><ele>680.8333333333334</ele><time>2026-04-30T11:25:49Z</time></trkpt><trkpt lat="44.181830259676765" lon="11.522632289849877"><ele>681.0</ele><time>2026-04-30T11:25:50Z</time></trkpt><trkpt lat="44.18190495237522" lon="11.52269526073451"><ele>681.0</ele><time>2026-04-30T11:25:51Z</time></trkpt><trkpt lat="44.181992476867904" lon="11.522768280257994"><ele>681.0</ele><time>2026-04-30T11:25:52Z</time></trkpt><trkpt lat="44.182084060026064" lon="11.522866261057368"><ele>681.0</ele><time>2026-04-30T11:25:53Z</time></trkpt><trkpt lat="44.18215130671768" lon="11.522957906420316"><ele>681.0</ele><time>2026-04-30T11:25:54Z</time></trkpt><trkpt lat="44.182225061584944" lon="11.523091918711488"><ele>681.0</ele><time>2026-04-30T11:25:55Z</time></trkpt><trkpt lat="44.18231117054944" lon="11.52323836164373"><ele>681.3333333333334</ele><time>2026-04-30T11:25:56Z</time></trkpt><trkpt lat="44.182390579388446" lon="11.52336056665701"><ele>681.6666666666666</ele><time>2026-04-30T11:25:57Z</time></trkpt><trkpt lat="44.18246171870447" lon="11.523460165898598"><ele>682.0</ele><time>2026-04-30T11:25:58Z</time></trkpt><trkpt lat="44.18253381995863" lon="11.523545191542373"><ele>682.3333333333333</ele><time>2026-04-30T11:25:59Z</time></trkpt><trkpt lat="44.18258085475579" lon="11.523612317411551"><ele>682.6666666666666</ele><time>2026-04-30T11:26:00Z</time></trkpt><trkpt lat="44.1826037853277" lon="11.523696241215122"><ele>683.0</ele><time>2026-04-30T11:26:02Z</time></trkpt><trkpt lat="44.18263119241268" lon="11.523804700839898"><ele>684.3333333333333</ele><time>2026-04-30T11:26:04Z</time></trkpt><trkpt lat="44.18271389124725" lon="11.523799315004641"><ele>685.6666666666666</ele><time>2026-04-30T11:26:05Z</time></trkpt><trkpt lat="44.18279683589085" lon="11.52386193260278"><ele>687.0</ele><time>2026-04-30T11:26:07Z</time></trkpt><trkpt lat="44.182851500600094" lon="11.523910316548635"><ele>688.3333333333334</ele><time>2026-04-30T11:26:09Z</time></trkpt><trkpt lat="44.182915441677665" lon="11.523945165291222"><ele>689.6666666666667</ele><time>2026-04-30T11:26:11Z</time></trkpt><trkpt lat="44.18298944344629" lon="11.523961501363894"><ele>691.0</ele><time>2026-04-30T11:26:13Z</time></trkpt><trkpt lat="44.18306477366712" lon="11.524002427658496"><ele>691.0</ele><time>2026-04-30T11:26:15Z</time></trkpt><trkpt lat="44.183144324608186" lon="11.523984974941584"><ele>691.0</ele><time>2026-04-30T11:26:17Z</time></trkpt><trkpt lat="44.18322467711621" lon="11.523961569589117"><ele>691.0</ele><time>2026-04-30T11:26:18Z</time></trkpt><trkpt lat="44.18329806561628" lon="11.523936962403166"><ele>691.0</ele><time>2026-04-30T11:26:19Z</time></trkpt><trkpt lat="44.1833678683676" lon="11.523932339125473"><ele>691.0</ele><time>2026-04-30T11:26:20Z</time></trkpt><trkpt lat="44.18346181072598" lon="11.523940065141549"><ele>691.0</ele><time>2026-04-30T11:26:21Z</time></trkpt><trkpt lat="44.183573695502616" lon="11.52400106720916"><ele>691.0</ele><time>2026-04-30T11:26:22Z</time></trkpt><trkpt lat="44.18367489260096" lon="11.524026233804808"><ele>691.0</ele><time>2026-04-30T11:26:23Z</time></trkpt><trkpt lat="44.18374454970379" lon="11.524020220032643"><ele>691.0</ele><time>2026-04-30T11:26:24Z</time></trkpt><trkpt lat="44.18380680203782" lon="11.524038293197234"><ele>691.0</ele><time>2026-04-30T11:26:25Z</time></trkpt><trkpt lat="44.18387728111388" lon="11.524061314424255"><ele>691.0</ele><time>2026-04-30T11:26:26Z</time></trkpt><trkpt lat="44.18399090507708" lon="11.52410590014584"><ele>691.0</ele><time>2026-04-30T11:26:28Z</time></trkpt><trkpt lat="44.184109230957446" lon="11.524175471348416"><ele>692.3333333333334</ele><time>2026-04-30T11:26:30Z</time></trkpt><trkpt lat="44.18417118410823" lon="11.524221145618574"><ele>693.6666666666667</ele><time>2026-04-30T11:26:31Z</time></trkpt><trkpt lat="44.18422875041331" lon="11.524280287152667"><ele>695.0</ele><time>2026-04-30T11:26:32Z</time></trkpt><trkpt lat="44.18428664683624" lon="11.524350835568542"><ele>696.3333333333334</ele><time>2026-04-30T11:26:33Z</time></trkpt><trkpt lat="44.1843425271727" lon="11.524422064352345"><ele>697.6666666666666</ele><time>2026-04-30T11:26:34Z</time></trkpt><trkpt lat="44.1844202349143" lon="11.52447640879472"><ele>699.0</ele><time>2026-04-30T11:26:36Z</time></trkpt><trkpt lat="44.184496222036636" lon="11.524531637275686"><ele>700.5</ele><time>2026-04-30T11:26:38Z</time></trkpt><trkpt lat="44.18457421843366" lon="11.524640222548351"><ele>702.0</ele><time>2026-04-30T11:26:40Z</time></trkpt><trkpt lat="44.184667190518596" lon="11.524739762830936"><ele>703.5</ele><time>2026-04-30T11:26:42Z</time></trkpt><trkpt lat="44.184702055991806" lon="11.5248147967215"><ele>705.0</ele><time>2026-04-30T11:26:43Z</time></trkpt><trkpt lat="44.18474880575671" lon="11.524911904881103"><ele>706.5</ele><time>2026-04-30T11:26:44Z</time></trkpt><trkpt lat="44.184805730061825" lon="11.52496793889074"><ele>708.0</ele><time>2026-04-30T11:26:45Z</time></trkpt><trkpt lat="44.1848670320607" lon="11.525028755643158"><ele>709.0</ele><time>2026-04-30T11:26:46Z</time></trkpt><trkpt lat="44.18498665723965" lon="11.525076330320399"><ele>710.0</ele><time>2026-04-30T11:26:48Z</time></trkpt><trkpt lat="44.185106653538746" lon="11.52515792033211"><ele>711.0</ele><time>2026-04-30T11:26:50Z</time></trkpt><trkpt lat="44.18516635548844" lon="11.52523306496065"><ele>712.0</ele><time>2026-04-30T11:26:51Z</time></trkpt><trkpt lat="44.18522865446162" lon="11.525339358484205"><ele>713.0</ele><time>2026-04-30T11:26:52Z</time></trkpt><trkpt lat="44.1852950396464" lon="11.525418228510373"><ele>713.0</ele><time>2026-04-30T11:26:53Z</time></trkpt><trkpt lat="44.18540004505393" lon="11.525478557866672"><ele>713.0</ele><time>2026-04-30T11:26:55Z</time></trkpt><trkpt lat="44.18550685188577" lon="11.525499403063703"><ele>713.0</ele><time>2026-04-30T11:26:57Z</time></trkpt><trkpt lat="44.18559056406395" lon="11.525535866841597"><ele>713.0</ele><time>2026-04-30T11:26:59Z</time></trkpt><trkpt lat="44.18568210234334" lon="11.52566863967052"><ele>713.0</ele><time>2026-04-30T11:27:01Z</time></trkpt><trkpt lat="44.18578179189787" lon="11.525688367206062"><ele>714.8</ele><time>2026-04-30T11:27:02Z</time></trkpt><trkpt lat="44.1858033308863" lon="11.525806494096786"><ele>716.5999999999999</ele><time>2026-04-30T11:27:03Z</time></trkpt><trkpt lat="44.18584340155817" lon="11.52587725179359"><ele>718.4000000000001</ele><time>2026-04-30T11:27:04Z</time></trkpt><trkpt lat="44.18592649285069" lon="11.52599265790436"><ele>720.2</ele><time>2026-04-30T11:27:06Z</time></trkpt><trkpt lat="44.185957571321914" lon="11.526127654334228"><ele>722.0</ele><time>2026-04-30T11:27:08Z</time></trkpt><trkpt lat="44.18605979198727" lon="11.526201391008815"><ele>722.0</ele><time>2026-04-30T11:27:10Z</time></trkpt><trkpt lat="44.18616858313247" lon="11.526245069000481"><ele>722.0</ele><time>2026-04-30T11:27:12Z</time></trkpt><trkpt lat="44.186239535386115" lon="11.526158441882998"><ele>722.0</ele><time>2026-04-30T11:27:14Z</time></trkpt><trkpt lat="44.1863196131668" lon="11.52616166834604"><ele>722.0</ele><time>2026-04-30T11:27:24Z</time></trkpt><trkpt lat="44.186414807584015" lon="11.526223647089909"><ele>722.0</ele><time>2026-04-30T11:27:26Z</time></trkpt><trkpt lat="44.18645596165251" lon="11.526305492451128"><ele>717.0</ele><time>2026-04-30T11:27:27Z</time></trkpt><trkpt lat="44.18651839826685" lon="11.526450266404296"><ele>712.0</ele><time>2026-04-30T11:27:29Z</time></trkpt><trkpt lat="44.186600444532765" lon="11.526399731411935"><ele>707.0</ele><time>2026-04-30T11:27:30Z</time></trkpt><trkpt lat="44.186694430732295" lon="11.526338028519511"><ele>702.0</ele><time>2026-04-30T11:27:32Z</time></trkpt><trkpt lat="44.18675390125696" lon="11.526371133325814"><ele>697.0</ele><time>2026-04-30T11:27:33Z</time></trkpt><trkpt lat="44.186787492551865" lon="11.526506382235942"><ele>697.0</ele><time>2026-04-30T11:27:34Z</time></trkpt><trkpt lat="44.18683437475013" lon="11.526573616695408"><ele>697.0</ele><time>2026-04-30T11:27:35Z</time></trkpt><trkpt lat="44.18688773356398" lon="11.526657734870826"><ele>697.0</ele><time>2026-04-30T11:27:36Z</time></trkpt><trkpt lat="44.18695051393062" lon="11.526730720758028"><ele>697.0</ele><time>2026-04-30T11:27:37Z</time></trkpt><trkpt lat="44.187034451441434" lon="11.526767914190055"><ele>697.0</ele><time>2026-04-30T11:27:38Z</time></trkpt><trkpt lat="44.18710604473446" lon="11.526848536665726"><ele>697.0</ele><time>2026-04-30T11:27:39Z</time></trkpt><trkpt lat="44.1871970106962" lon="11.52691249983455"><ele>697.0</ele><time>2026-04-30T11:27:40Z</time></trkpt><trkpt lat="44.18726379102916" lon="11.526985515602869"><ele>697.0</ele><time>2026-04-30T11:27:41Z</time></trkpt><trkpt lat="44.18733544335153" lon="11.527088488820297"><ele>697.0</ele><time>2026-04-30T11:27:43Z</time></trkpt><trkpt lat="44.187382460752346" lon="11.527235040893979"><ele>697.0</ele><time>2026-04-30T11:27:45Z</time></trkpt><trkpt lat="44.18741242966133" lon="11.527332839553297"><ele>697.0</ele><time>2026-04-30T11:27:46Z</time></trkpt><trkpt lat="44.18743844509359" lon="11.527420435390104"><ele>697.0</ele><time>2026-04-30T11:27:47Z</time></trkpt><trkpt lat="44.18746441185686" lon="11.527507866994176"><ele>695.8</ele><time>2026-04-30T11:27:48Z</time></trkpt><trkpt lat="44.187531662488496" lon="11.527563869532361"><ele>694.6</ele><time>2026-04-30T11:27:49Z</time></trkpt><trkpt lat="44.18754711493451" lon="11.527716479851124"><ele>693.4</ele><time>2026-04-30T11:27:51Z</time></trkpt><trkpt lat="44.187625697413566" lon="11.527852305122847"><ele>692.1999999999999</ele><time>2026-04-30T11:27:53Z</time></trkpt><trkpt lat="44.18767393908469" lon="11.527910545803996"><ele>691.0</ele><time>2026-04-30T11:27:54Z</time></trkpt><trkpt lat="44.18775612915066" lon="11.528012214938588"><ele>687.4</ele><time>2026-04-30T11:27:56Z</time></trkpt><trkpt lat="44.18782529312983" lon="11.528112142201369"><ele>683.8</ele><time>2026-04-30T11:27:58Z</time></trkpt><trkpt lat="44.187874977152" lon="11.5281968616227"><ele>680.1999999999999</ele><time>2026-04-30T11:28:00Z</time></trkpt><trkpt lat="44.187931774177436" lon="11.5282641072398"><ele>676.5999999999999</ele><time>2026-04-30T11:28:02Z</time></trkpt><trkpt lat="44.188042463089104" lon="11.528358701024727"><ele>673.0</ele><time>2026-04-30T11:28:05Z</time></trkpt><trkpt lat="44.18812621576732" lon="11.52849187201101"><ele>673.2</ele><time>2026-04-30T11:28:07Z</time></trkpt><trkpt lat="44.18819789349584" lon="11.528544023578995"><ele>673.4</ele><time>2026-04-30T11:28:08Z</time></trkpt><trkpt lat="44.188306030006544" lon="11.52856887934021"><ele>673.6</ele><time>2026-04-30T11:28:09Z</time></trkpt><trkpt lat="44.18841055069258" lon="11.52861065601805"><ele>673.8000000000001</ele><time>2026-04-30T11:28:10Z</time></trkpt><trkpt lat="44.18848765721412" lon="11.52868139990618"><ele>674.0</ele><time>2026-04-30T11:28:11Z</time></trkpt><trkpt lat="44.18856005491309" lon="11.5287497280465"><ele>674.0</ele><time>2026-04-30T11:28:12Z</time></trkpt><trkpt lat="44.188638468358825" lon="11.528794992552639"><ele>674.0</ele><time>2026-04-30T11:28:13Z</time></trkpt><trkpt lat="44.18872072470272" lon="11.528845639402581"><ele>674.0</ele><time>2026-04-30T11:28:14Z</time></trkpt><trkpt lat="44.18878777143713" lon="11.528915523576432"><ele>674.0</ele><time>2026-04-30T11:28:15Z</time></trkpt><trkpt lat="44.18883717929595" lon="11.529004199662696"><ele>674.0</ele><time>2026-04-30T11:28:16Z</time></trkpt><trkpt lat="44.18890464477944" lon="11.529112346775598"><ele>674.0</ele><time>2026-04-30T11:28:17Z</time></trkpt><trkpt lat="44.188955657433546" lon="11.529226824661919"><ele>674.0</ele><time>2026-04-30T11:28:18Z</time></trkpt><trkpt lat="44.18898856721327" lon="11.52935627872663"><ele>674.0</ele><time>2026-04-30T11:28:19Z</time></trkpt><trkpt lat="44.18905271966002" lon="11.529474644370817"><ele>674.0</ele><time>2026-04-30T11:28:20Z</time></trkpt><trkpt lat="44.189143401823245" lon="11.529601020517061"><ele>674.0</ele><time>2026-04-30T11:28:21Z</time></trkpt><trkpt lat="44.18922330021966" lon="11.529699265540481"><ele>674.0</ele><time>2026-04-30T11:28:22Z</time></trkpt><trkpt lat="44.189271296863744" lon="11.529767117699894"><ele>675.1666666666666</ele><time>2026-04-30T11:28:23Z</time></trkpt><trkpt lat="44.18926447078257" lon="11.529866825701355"><ele>676.3333333333333</ele><time>2026-04-30T11:28:25Z</time></trkpt><trkpt lat="44.18926709684722" lon="11.529970696776632"><ele>677.5</ele><time>2026-04-30T11:28:27Z</time></trkpt><trkpt lat="44.18933714310771" lon="11.530088082668323"><ele>678.6666666666666</ele><time>2026-04-30T11:28:29Z</time></trkpt><trkpt lat="44.189380735051145" lon="11.5301618834467"><ele>679.8333333333334</ele><time>2026-04-30T11:28:30Z</time></trkpt><trkpt lat="44.189395342476416" lon="11.530272680677653"><ele>681.0</ele><time>2026-04-30T11:28:31Z</time></trkpt><trkpt lat="44.189412595575696" lon="11.530366128606413"><ele>679.8</ele><time>2026-04-30T11:28:32Z</time></trkpt><trkpt lat="44.18943489538924" lon="11.530521352856319"><ele>678.5999999999999</ele><time>2026-04-30T11:28:34Z</time></trkpt><trkpt lat="44.18945128407722" lon="11.530609951068477"><ele>677.4</ele><time>2026-04-30T11:28:35Z</time></trkpt><trkpt lat="44.18947552705054" lon="11.53074957756999"><ele>676.2</ele><time>2026-04-30T11:28:37Z</time></trkpt><trkpt lat="44.18949894675289" lon="11.53087503789195"><ele>675.0</ele><time>2026-04-30T11:28:39Z</time></trkpt><trkpt lat="44.18952846329818" lon="11.530986285981593"><ele>675.0</ele><time>2026-04-30T11:28:41Z</time></trkpt><trkpt lat="44.18959767229277" lon="11.531087758505143"><ele>675.0</ele><time>2026-04-30T11:28:43Z</time></trkpt><trkpt lat="44.189708622841394" lon="11.53117625319848"><ele>675.0</ele><time>2026-04-30T11:28:45Z</time></trkpt><trkpt lat="44.189768531741464" lon="11.531228013062487"><ele>675.0</ele><time>2026-04-30T11:28:46Z</time></trkpt><trkpt lat="44.18981716787223" lon="11.531321879705354"><ele>675.0</ele><time>2026-04-30T11:28:47Z</time></trkpt><trkpt lat="44.18985586396937" lon="11.531439003837"><ele>678.5</ele><time>2026-04-30T11:28:48Z</time></trkpt><trkpt lat="44.1898702601142" lon="11.53156015979332"><ele>682.0</ele><time>2026-04-30T11:28:49Z</time></trkpt><trkpt lat="44.189890860667354" lon="11.531678033759302"><ele>685.5</ele><time>2026-04-30T11:28:50Z</time></trkpt><trkpt lat="44.18994067317194" lon="11.53178874629983"><ele>689.0</ele><time>2026-04-30T11:28:51Z</time></trkpt><trkpt lat="44.19001447372813" lon="11.531827471811615"><ele>692.5</ele><time>2026-04-30T11:28:52Z</time></trkpt><trkpt lat="44.190107247221775" lon="11.531848518545129"><ele>696.0</ele><time>2026-04-30T11:28:53Z</time></trkpt><trkpt lat="44.19022321542495" lon="11.531875313409481"><ele>696.0</ele><time>2026-04-30T11:28:54Z</time></trkpt><trkpt lat="44.19031335429349" lon="11.531906522321687"><ele>696.0</ele><time>2026-04-30T11:28:55Z</time></trkpt><trkpt lat="44.19038664994848" lon="11.531965849820354"><ele>696.0</ele><time>2026-04-30T11:28:56Z</time></trkpt><trkpt lat="44.190442584473054" lon="11.532054053130608"><ele>696.0</ele><time>2026-04-30T11:28:57Z</time></trkpt><trkpt lat="44.190512230382545" lon="11.532158117011504"><ele>696.0</ele><time>2026-04-30T11:28:58Z</time></trkpt><trkpt lat="44.19058941464251" lon="11.53228929687793"><ele>695.4</ele><time>2026-04-30T11:28:59Z</time></trkpt><trkpt lat="44.19066670391515" lon="11.53242854743749"><ele>694.8</ele><time>2026-04-30T11:29:00Z</time></trkpt><trkpt lat="44.19072387114817" lon="11.532526819911862"><ele>694.1999999999999</ele><time>2026-04-30T11:29:01Z</time></trkpt><trkpt lat="44.1907647408916" lon="11.532644555259287"><ele>693.5999999999999</ele><time>2026-04-30T11:29:02Z</time></trkpt><trkpt lat="44.19078266243408" lon="11.532774561080714"><ele>693.0</ele><time>2026-04-30T11:29:03Z</time></trkpt><trkpt lat="44.190733742348016" lon="11.532936780564246"><ele>694.5</ele><time>2026-04-30T11:29:04Z</time></trkpt><trkpt lat="44.19076187306899" lon="11.533070708972964"><ele>696.0</ele><time>2026-04-30T11:29:05Z</time></trkpt><trkpt lat="44.19080040087461" lon="11.533158523875088"><ele>697.5</ele><time>2026-04-30T11:29:06Z</time></trkpt><trkpt lat="44.190839530683085" lon="11.53326247575816"><ele>699.0</ele><time>2026-04-30T11:29:08Z</time></trkpt><trkpt lat="44.19088130703317" lon="11.53336877548107"><ele>700.5</ele><time>2026-04-30T11:29:10Z</time></trkpt><trkpt lat="44.19094199179926" lon="11.533478511078984"><ele>702.0</ele><time>2026-04-30T11:29:12Z</time></trkpt><trkpt lat="44.191009431812354" lon="11.533552689702143"><ele>702.0</ele><time>2026-04-30T11:29:15Z</time></trkpt><trkpt lat="44.1911117836658" lon="11.533649949064118"><ele>702.0</ele><time>2026-04-30T11:29:16Z</time></trkpt><trkpt lat="44.19117770634868" lon="11.533705960842186"><ele>702.0</ele><time>2026-04-30T11:29:17Z</time></trkpt><trkpt lat="44.191236843391955" lon="11.533755604814488"><ele>702.0</ele><time>2026-04-30T11:29:18Z</time></trkpt><trkpt lat="44.1913052158725" lon="11.53381300187817"><ele>702.0</ele><time>2026-04-30T11:29:19Z</time></trkpt><trkpt lat="44.19136476766375" lon="11.533866437434655"><ele>702.0</ele><time>2026-04-30T11:29:20Z</time></trkpt><trkpt lat="44.19144235784149" lon="11.533910391885836"><ele>703.3333333333334</ele><time>2026-04-30T11:29:21Z</time></trkpt><trkpt lat="44.19151481740362" lon="11.53396926953222"><ele>704.6666666666666</ele><time>2026-04-30T11:29:22Z</time></trkpt><trkpt lat="44.19160263013436" lon="11.534019050186114"><ele>706.0</ele><time>2026-04-30T11:29:23Z</time></trkpt><trkpt lat="44.19167754836467" lon="11.534113353825735"><ele>707.3333333333333</ele><time>2026-04-30T11:29:24Z</time></trkpt><trkpt lat="44.19174368901847" lon="11.534190075369915"><ele>708.6666666666666</ele><time>2026-04-30T11:29:25Z</time></trkpt><trkpt lat="44.191790253760956" lon="11.534263445578041"><ele>710.0</ele><time>2026-04-30T11:29:26Z</time></trkpt><trkpt lat="44.19184687806393" lon="11.534408948980792"><ele>710.0</ele><time>2026-04-30T11:29:28Z</time></trkpt><trkpt lat="44.191865688598185" lon="11.53451415656475"><ele>710.0</ele><time>2026-04-30T11:29:29Z</time></trkpt><trkpt lat="44.19188811337854" lon="11.53463036599432"><ele>710.0</ele><time>2026-04-30T11:29:30Z</time></trkpt><trkpt lat="44.19192058806386" lon="11.534764671736205"><ele>710.0</ele><time>2026-04-30T11:29:31Z</time></trkpt><trkpt lat="44.191919772698284" lon="11.53486844886549"><ele>710.0</ele><time>2026-04-30T11:29:32Z</time></trkpt><trkpt lat="44.191951552239246" lon="11.534948539747797"><ele>710.0</ele><time>2026-04-30T11:29:33Z</time></trkpt><trkpt lat="44.19197217769789" lon="11.535056270894316"><ele>711.6</ele><time>2026-04-30T11:29:34Z</time></trkpt><trkpt lat="44.19201118881119" lon="11.535168978167988"><ele>713.2</ele><time>2026-04-30T11:29:35Z</time></trkpt><trkpt lat="44.1920731001513" lon="11.535266298432473"><ele>714.8</ele><time>2026-04-30T11:29:36Z</time></trkpt><trkpt lat="44.19215075587132" lon="11.535365346474045"><ele>716.4</ele><time>2026-04-30T11:29:37Z</time></trkpt><trkpt lat="44.192240874695926" lon="11.535471895417897"><ele>718.0</ele><time>2026-04-30T11:29:38Z</time></trkpt><trkpt lat="44.19230450092433" lon="11.535563534815969"><ele>715.1666666666667</ele><time>2026-04-30T11:29:39Z</time></trkpt><trkpt lat="44.19236496432532" lon="11.535628449237933"><ele>712.3333333333334</ele><time>2026-04-30T11:29:40Z</time></trkpt><trkpt lat="44.19243254859557" lon="11.535674639915733"><ele>709.5</ele><time>2026-04-30T11:29:41Z</time></trkpt><trkpt lat="44.19251598123633" lon="11.535716823870406"><ele>706.6666666666666</ele><time>2026-04-30T11:29:42Z</time></trkpt><trkpt lat="44.192608314996676" lon="11.535745139936745"><ele>703.8333333333333</ele><time>2026-04-30T11:29:43Z</time></trkpt><trkpt lat="44.19270967343376" lon="11.53570477673949"><ele>701.0</ele><time>2026-04-30T11:29:44Z</time></trkpt><trkpt lat="44.19280472048729" lon="11.53562976411877"><ele>701.0</ele><time>2026-04-30T11:29:45Z</time></trkpt><trkpt lat="44.19289707732171" lon="11.535541908472926"><ele>701.0</ele><time>2026-04-30T11:29:46Z</time></trkpt><trkpt lat="44.19296447710056" lon="11.535441483401335"><ele>701.0</ele><time>2026-04-30T11:29:47Z</time></trkpt><trkpt lat="44.19302384452958" lon="11.535347403537893"><ele>701.0</ele><time>2026-04-30T11:29:48Z</time></trkpt><trkpt lat="44.193080334069016" lon="11.535289826295852"><ele>701.0</ele><time>2026-04-30T11:29:49Z</time></trkpt><trkpt lat="44.19313693518381" lon="11.535249757300399"><ele>701.0</ele><time>2026-04-30T11:29:50Z</time></trkpt><trkpt lat="44.19320138530538" lon="11.535238768751748"><ele>699.3333333333333</ele><time>2026-04-30T11:29:51Z</time></trkpt><trkpt lat="44.193269543251084" lon="11.535263308150691"><ele>697.6666666666666</ele><time>2026-04-30T11:29:52Z</time></trkpt><trkpt lat="44.193353848664536" lon="11.535300619631071"><ele>696.0</ele><time>2026-04-30T11:29:53Z</time></trkpt><trkpt lat="44.193445914543396" lon="11.53531590435011"><ele>694.3333333333334</ele><time>2026-04-30T11:29:54Z</time></trkpt><trkpt lat="44.1935480127962" lon="11.535304532827604"><ele>692.6666666666667</ele><time>2026-04-30T11:29:55Z</time></trkpt><trkpt lat="44.19364133720587" lon="11.535286432066178"><ele>691.0</ele><time>2026-04-30T11:29:56Z</time></trkpt><trkpt lat="44.19372063103219" lon="11.535298853471962"><ele>691.0</ele><time>2026-04-30T11:29:57Z</time></trkpt><trkpt lat="44.19379356966318" lon="11.535337487940991"><ele>691.0</ele><time>2026-04-30T11:29:58Z</time></trkpt><trkpt lat="44.19385386450366" lon="11.535393747719464"><ele>691.0</ele><time>2026-04-30T11:29:59Z</time></trkpt><trkpt lat="44.1939221411331" lon="11.535482961889054"><ele>691.0</ele><time>2026-04-30T11:30:00Z</time></trkpt><trkpt lat="44.19399516904258" lon="11.535594568895837"><ele>691.0</ele><time>2026-04-30T11:30:01Z</time></trkpt><trkpt lat="44.194061298680175" lon="11.535696439436373"><ele>689.5999999999999</ele><time>2026-04-30T11:30:02Z</time></trkpt><trkpt lat="44.194132515548546" lon="11.535764087937025"><ele>688.2</ele><time>2026-04-30T11:30:03Z</time></trkpt><trkpt lat="44.194218353567095" lon="11.535802900124775"><ele>686.8</ele><time>2026-04-30T11:30:04Z</time></trkpt><trkpt lat="44.194305103303805" lon="11.535836875954852"><ele>685.4000000000001</ele><time>2026-04-30T11:30:05Z</time></trkpt><trkpt lat="44.19439955475667" lon="11.535860992759078"><ele>684.0</ele><time>2026-04-30T11:30:06Z</time></trkpt><trkpt lat="44.19449073240571" lon="11.535876623016977"><ele>684.0</ele><time>2026-04-30T11:30:07Z</time></trkpt><trkpt lat="44.19457073605344" lon="11.53590413564154"><ele>684.0</ele><time>2026-04-30T11:30:08Z</time></trkpt><trkpt lat="44.194646683881345" lon="11.535946967871041"><ele>684.0</ele><time>2026-04-30T11:30:09Z</time></trkpt><trkpt lat="44.1947146272059" lon="11.535994881120331"><ele>684.0</ele><time>2026-04-30T11:30:10Z</time></trkpt><trkpt lat="44.19478625934521" lon="11.536033373203761"><ele>684.0</ele><time>2026-04-30T11:30:11Z</time></trkpt><trkpt lat="44.19486482048128" lon="11.536049784024385"><ele>684.0</ele><time>2026-04-30T11:30:12Z</time></trkpt><trkpt lat="44.194942781953785" lon="11.536058291121241"><ele>681.5</ele><time>2026-04-30T11:30:13Z</time></trkpt><trkpt lat="44.19501898013195" lon="11.536069186190488"><ele>679.0</ele><time>2026-04-30T11:30:14Z</time></trkpt><trkpt lat="44.195089565073324" lon="11.53610030451602"><ele>676.5</ele><time>2026-04-30T11:30:15Z</time></trkpt><trkpt lat="44.19516092252702" lon="11.536136682374892"><ele>674.0</ele><time>2026-04-30T11:30:16Z</time></trkpt><trkpt lat="44.195238231765444" lon="11.53618097404077"><ele>671.5</ele><time>2026-04-30T11:30:17Z</time></trkpt><trkpt lat="44.19532804706698" lon="11.536225968044645"><ele>669.0</ele><time>2026-04-30T11:30:18Z</time></trkpt><trkpt lat="44.19542182839937" lon="11.536289894872061"><ele>667.8000000000001</ele><time>2026-04-30T11:30:19Z</time></trkpt><trkpt lat="44.19552179618689" lon="11.536360321642968"><ele>666.6</ele><time>2026-04-30T11:30:20Z</time></trkpt><trkpt lat="44.195612602796864" lon="11.536442034053296"><ele>665.4</ele><time>2026-04-30T11:30:21Z</time></trkpt><trkpt lat="44.19571125234914" lon="11.536499267516167"><ele>664.2</ele><time>2026-04-30T11:30:22Z</time></trkpt><trkpt lat="44.19579056350249" lon="11.53658471594808"><ele>663.0</ele><time>2026-04-30T11:30:23Z</time></trkpt><trkpt lat="44.19582829571262" lon="11.536699543778493"><ele>663.0</ele><time>2026-04-30T11:30:24Z</time></trkpt><trkpt lat="44.19587535304662" lon="11.536793472896242"><ele>663.0</ele><time>2026-04-30T11:30:25Z</time></trkpt><trkpt lat="44.19592301322462" lon="11.536873169219762"><ele>663.0</ele><time>2026-04-30T11:30:26Z</time></trkpt><trkpt lat="44.19598765497135" lon="11.536926717353255"><ele>663.0</ele><time>2026-04-30T11:30:27Z</time></trkpt><trkpt lat="44.19604292020195" lon="11.536980969425322"><ele>663.0</ele><time>2026-04-30T11:30:28Z</time></trkpt><trkpt lat="44.19610864486241" lon="11.537011211977932"><ele>663.0</ele><time>2026-04-30T11:30:29Z</time></trkpt><trkpt lat="44.196192667285494" lon="11.537024995908114"><ele>661.0</ele><time>2026-04-30T11:30:30Z</time></trkpt><trkpt lat="44.19628062887072" lon="11.53706377086087"><ele>659.0</ele><time>2026-04-30T11:30:31Z</time></trkpt><trkpt lat="44.196364639311675" lon="11.537091774192278"><ele>657.0</ele><time>2026-04-30T11:30:32Z</time></trkpt><trkpt lat="44.19644699921293" lon="11.537093602524823"><ele>655.0</ele><time>2026-04-30T11:30:33Z</time></trkpt><trkpt lat="44.196540271684604" lon="11.537114840193777"><ele>653.0</ele><time>2026-04-30T11:30:34Z</time></trkpt><trkpt lat="44.19663511194308" lon="11.537137698851582"><ele>660.4</ele><time>2026-04-30T11:30:35Z</time></trkpt><trkpt lat="44.196726250624515" lon="11.53717180029751"><ele>667.8</ele><time>2026-04-30T11:30:36Z</time></trkpt><trkpt lat="44.196817439324036" lon="11.537227096844303"><ele>675.2</ele><time>2026-04-30T11:30:37Z</time></trkpt><trkpt lat="44.19691880540304" lon="11.53726816532324"><ele>682.6</ele><time>2026-04-30T11:30:38Z</time></trkpt><trkpt lat="44.197014702830536" lon="11.537284596857473"><ele>690.0</ele><time>2026-04-30T11:30:39Z</time></trkpt><trkpt lat="44.197108458943234" lon="11.537295671151034"><ele>690.0</ele><time>2026-04-30T11:30:40Z</time></trkpt><trkpt lat="44.1971749261883" lon="11.537291998755595"><ele>690.0</ele><time>2026-04-30T11:30:41Z</time></trkpt><trkpt lat="44.197252640324905" lon="11.53725977439325"><ele>690.0</ele><time>2026-04-30T11:30:43Z</time></trkpt><trkpt lat="44.19732121919182" lon="11.537310391662352"><ele>690.0</ele><time>2026-04-30T11:30:45Z</time></trkpt><trkpt lat="44.19736018096465" lon="11.537401048622716"><ele>690.0</ele><time>2026-04-30T11:30:48Z</time></trkpt><trkpt lat="44.19732448506537" lon="11.537509934145682"><ele>690.0</ele><time>2026-04-30T11:30:50Z</time></trkpt><trkpt lat="44.1973240357508" lon="11.537647754302073"><ele>690.0</ele><time>2026-04-30T11:30:52Z</time></trkpt><trkpt lat="44.197318459933584" lon="11.53782976059894"><ele>690.0</ele><time>2026-04-30T11:30:54Z</time></trkpt><trkpt lat="44.19731132211637" lon="11.537953321896024"><ele>690.0</ele><time>2026-04-30T11:30:55Z</time></trkpt><trkpt lat="44.19730054777796" lon="11.538083145675065"><ele>690.0</ele><time>2026-04-30T11:30:56Z</time></trkpt><trkpt lat="44.19723070039253" lon="11.538184227586738"><ele>690.0</ele><time>2026-04-30T11:30:57Z</time></trkpt><trkpt lat="44.19718377731312" lon="11.538278196667747"><ele>687.2</ele><time>2026-04-30T11:30:58Z</time></trkpt><trkpt lat="44.19717597031993" lon="11.53842780779627"><ele>684.4</ele><time>2026-04-30T11:30:59Z</time></trkpt><trkpt lat="44.19711982988981" lon="11.538534418950606"><ele>681.5999999999999</ele><time>2026-04-30T11:31:00Z</time></trkpt><trkpt lat="44.19709748096878" lon="11.538681319653678"><ele>678.8</ele><time>2026-04-30T11:31:01Z</time></trkpt><trkpt lat="44.197091867798036" lon="11.538835331026526"><ele>676.0</ele><time>2026-04-30T11:31:02Z</time></trkpt><trkpt lat="44.19710469189112" lon="11.53900107471865"><ele>670.25</ele><time>2026-04-30T11:31:03Z</time></trkpt><trkpt lat="44.19709878162187" lon="11.53916882482795"><ele>664.5</ele><time>2026-04-30T11:31:04Z</time></trkpt><trkpt lat="44.197088603393226" lon="11.539342324095177"><ele>658.75</ele><time>2026-04-30T11:31:05Z</time></trkpt><trkpt lat="44.197103384060654" lon="11.539502148084466"><ele>653.0</ele><time>2026-04-30T11:31:06Z</time></trkpt><trkpt lat="44.19712122886335" lon="11.539663638773034"><ele>651.4</ele><time>2026-04-30T11:31:07Z</time></trkpt><trkpt lat="44.19711791389127" lon="11.539813973489485"><ele>649.8</ele><time>2026-04-30T11:31:08Z</time></trkpt><trkpt lat="44.19711203671564" lon="11.539959706399468"><ele>648.2</ele><time>2026-04-30T11:31:09Z</time></trkpt><trkpt lat="44.197127359110766" lon="11.540090560370588"><ele>646.6</ele><time>2026-04-30T11:31:10Z</time></trkpt><trkpt lat="44.19718131627334" lon="11.540204570288381"><ele>645.0</ele><time>2026-04-30T11:31:11Z</time></trkpt><trkpt lat="44.197265925753506" lon="11.54030341981902"><ele>649.0</ele><time>2026-04-30T11:31:12Z</time></trkpt><trkpt lat="44.19738084549669" lon="11.540398208954672"><ele>653.0</ele><time>2026-04-30T11:31:13Z</time></trkpt><trkpt lat="44.1974894897013" lon="11.540502381032743"><ele>657.0</ele><time>2026-04-30T11:31:14Z</time></trkpt><trkpt lat="44.197570447235606" lon="11.540626793680365"><ele>661.0</ele><time>2026-04-30T11:31:15Z</time></trkpt><trkpt lat="44.19763967435299" lon="11.540764782278444"><ele>661.0</ele><time>2026-04-30T11:31:16Z</time></trkpt><trkpt lat="44.19771668784307" lon="11.540900973708387"><ele>661.0</ele><time>2026-04-30T11:31:17Z</time></trkpt><trkpt lat="44.197815495367536" lon="11.541004359208502"><ele>661.0</ele><time>2026-04-30T11:31:18Z</time></trkpt><trkpt lat="44.19793964548297" lon="11.541090369063655"><ele>661.0</ele><time>2026-04-30T11:31:19Z</time></trkpt><trkpt lat="44.19805903396462" lon="11.541148859880352"><ele>659.75</ele><time>2026-04-30T11:31:20Z</time></trkpt><trkpt lat="44.19817106646285" lon="11.54120555223472"><ele>658.5</ele><time>2026-04-30T11:31:21Z</time></trkpt><trkpt lat="44.198280569566876" lon="11.541256543833548"><ele>657.25</ele><time>2026-04-30T11:31:22Z</time></trkpt><trkpt lat="44.19839241101546" lon="11.541291881707847"><ele>656.0</ele><time>2026-04-30T11:31:23Z</time></trkpt><trkpt lat="44.19850103864892" lon="11.541348122893307"><ele>658.5999999999999</ele><time>2026-04-30T11:31:24Z</time></trkpt><trkpt lat="44.198598571820455" lon="11.541409901142446"><ele>661.2</ele><time>2026-04-30T11:31:25Z</time></trkpt><trkpt lat="44.19870171988202" lon="11.541436298432895"><ele>663.8</ele><time>2026-04-30T11:31:26Z</time></trkpt><trkpt lat="44.19880072391297" lon="11.541432504982527"><ele>666.4000000000001</ele><time>2026-04-30T11:31:27Z</time></trkpt><trkpt lat="44.19889801598705" lon="11.541398880921516"><ele>669.0</ele><time>2026-04-30T11:31:28Z</time></trkpt><trkpt lat="44.19898080668612" lon="11.54134509482224"><ele>669.1666666666666</ele><time>2026-04-30T11:31:29Z</time></trkpt><trkpt lat="44.199053540200914" lon="11.541256079446072"><ele>669.3333333333334</ele><time>2026-04-30T11:31:30Z</time></trkpt><trkpt lat="44.19910913721999" lon="11.541151547783679"><ele>669.5</ele><time>2026-04-30T11:31:31Z</time></trkpt><trkpt lat="44.19915577154133" lon="11.54104483140513"><ele>669.6666666666667</ele><time>2026-04-30T11:31:32Z</time></trkpt><trkpt lat="44.19920494407362" lon="11.54095540739276"><ele>669.8333333333334</ele><time>2026-04-30T11:31:33Z</time></trkpt><trkpt lat="44.199276637008936" lon="11.5409181996652"><ele>670.0</ele><time>2026-04-30T11:31:34Z</time></trkpt><trkpt lat="44.19936182462428" lon="11.540927742174564"><ele>666.2</ele><time>2026-04-30T11:31:35Z</time></trkpt><trkpt lat="44.199458294059156" lon="11.540970535985647"><ele>662.4</ele><time>2026-04-30T11:31:36Z</time></trkpt><trkpt lat="44.199564765929665" lon="11.541004479499438"><ele>658.5999999999999</ele><time>2026-04-30T11:31:37Z</time></trkpt><trkpt lat="44.19965995647231" lon="11.540997651238559"><ele>654.8</ele><time>2026-04-30T11:31:38Z</time></trkpt><trkpt lat="44.1997549397029" lon="11.541018819741964"><ele>651.0</ele><time>2026-04-30T11:31:39Z</time></trkpt><trkpt lat="44.19983296579234" lon="11.541096132670063"><ele>651.0</ele><time>2026-04-30T11:31:40Z</time></trkpt><trkpt lat="44.19991371931077" lon="11.541200554107133"><ele>651.0</ele><time>2026-04-30T11:31:41Z</time></trkpt><trkpt lat="44.20000052284981" lon="11.541287884619868"><ele>651.0</ele><time>2026-04-30T11:31:42Z</time></trkpt><trkpt lat="44.20007903094929" lon="11.541374751173276"><ele>651.0</ele><time>2026-04-30T11:31:43Z</time></trkpt><trkpt lat="44.20011353484169" lon="11.541495982318411"><ele>651.0</ele><time>2026-04-30T11:31:44Z</time></trkpt><trkpt lat="44.20011103162782" lon="11.541639123454527"><ele>651.0</ele><time>2026-04-30T11:31:45Z</time></trkpt><trkpt lat="44.200083596363584" lon="11.541816831761995"><ele>651.0</ele><time>2026-04-30T11:31:46Z</time></trkpt><trkpt lat="44.20006191263235" lon="11.541986648205423"><ele>651.0</ele><time>2026-04-30T11:31:47Z</time></trkpt><trkpt lat="44.20006190950819" lon="11.542139715312919"><ele>651.0</ele><time>2026-04-30T11:31:48Z</time></trkpt><trkpt lat="44.200075885873666" lon="11.542270369832146"><ele>652.8333333333334</ele><time>2026-04-30T11:31:49Z</time></trkpt><trkpt lat="44.200104506766756" lon="11.542388103936721"><ele>654.6666666666666</ele><time>2026-04-30T11:31:50Z</time></trkpt><trkpt lat="44.200149332703674" lon="11.542493496674357"><ele>656.5</ele><time>2026-04-30T11:31:51Z</time></trkpt><trkpt lat="44.20021685050204" lon="11.542560425238717"><ele>658.3333333333333</ele><time>2026-04-30T11:31:52Z</time></trkpt><trkpt lat="44.20029570909056" lon="11.542598085149237"><ele>660.1666666666666</ele><time>2026-04-30T11:31:53Z</time></trkpt><trkpt lat="44.2003815149471" lon="11.542599907544712"><ele>662.0</ele><time>2026-04-30T11:31:54Z</time></trkpt><trkpt lat="44.20046305528691" lon="11.542629035033302"><ele>662.0</ele><time>2026-04-30T11:31:55Z</time></trkpt><trkpt lat="44.200535887512345" lon="11.542689984725943"><ele>662.0</ele><time>2026-04-30T11:31:56Z</time></trkpt><trkpt lat="44.20060375323569" lon="11.542764825155475"><ele>662.0</ele><time>2026-04-30T11:31:57Z</time></trkpt><trkpt lat="44.20068232773856" lon="11.542805069393685"><ele>662.0</ele><time>2026-04-30T11:31:58Z</time></trkpt><trkpt lat="44.200754306132616" lon="11.542859997384896"><ele>662.0</ele><time>2026-04-30T11:31:59Z</time></trkpt><trkpt lat="44.200808671274196" lon="11.542970236532136"><ele>662.0</ele><time>2026-04-30T11:32:00Z</time></trkpt><trkpt lat="44.20086128712653" lon="11.54307221329223"><ele>661.1666666666666</ele><time>2026-04-30T11:32:01Z</time></trkpt><trkpt lat="44.200922643230705" lon="11.543146126020908"><ele>660.3333333333333</ele><time>2026-04-30T11:32:02Z</time></trkpt><trkpt lat="44.20098540807259" lon="11.543211576741443"><ele>659.5</ele><time>2026-04-30T11:32:03Z</time></trkpt><trkpt lat="44.20105142014031" lon="11.543251556478163"><ele>658.6666666666666</ele><time>2026-04-30T11:32:04Z</time></trkpt><trkpt lat="44.20112116808392" lon="11.543286623220947"><ele>657.8333333333334</ele><time>2026-04-30T11:32:05Z</time></trkpt><trkpt lat="44.20117382216427" lon="11.54334495107523"><ele>657.0</ele><time>2026-04-30T11:32:06Z</time></trkpt><trkpt lat="44.201216411321724" lon="11.543441951989402"><ele>657.0</ele><time>2026-04-30T11:32:07Z</time></trkpt><trkpt lat="44.20124742139705" lon="11.543568823254862"><ele>657.0</ele><time>2026-04-30T11:32:08Z</time></trkpt><trkpt lat="44.20127857004008" lon="11.543710135764075"><ele>657.0</ele><time>2026-04-30T11:32:09Z</time></trkpt><trkpt lat="44.20130777049858" lon="11.543851226337953"><ele>657.0</ele><time>2026-04-30T11:32:10Z</time></trkpt><trkpt lat="44.20133127684983" lon="11.543977301329413"><ele>657.0</ele><time>2026-04-30T11:32:11Z</time></trkpt><trkpt lat="44.20135339518905" lon="11.544095822185165"><ele>655.4000000000001</ele><time>2026-04-30T11:32:12Z</time></trkpt><trkpt lat="44.20138475648583" lon="11.54421443291801"><ele>653.8000000000001</ele><time>2026-04-30T11:32:13Z</time></trkpt><trkpt lat="44.201427860774615" lon="11.544333395588799"><ele>652.2</ele><time>2026-04-30T11:32:14Z</time></trkpt><trkpt lat="44.20147717690135" lon="11.544456137171084"><ele>650.6</ele><time>2026-04-30T11:32:15Z</time></trkpt><trkpt lat="44.20153033542737" lon="11.544566618196768"><ele>649.0</ele><time>2026-04-30T11:32:16Z</time></trkpt><trkpt lat="44.20157877797604" lon="11.544658953486778"><ele>649.0</ele><time>2026-04-30T11:32:17Z</time></trkpt><trkpt lat="44.201613836181814" lon="11.544755748693118"><ele>649.0</ele><time>2026-04-30T11:32:18Z</time></trkpt><trkpt lat="44.20164689449977" lon="11.544858168707119"><ele>649.0</ele><time>2026-04-30T11:32:19Z</time></trkpt><trkpt lat="44.20169522683146" lon="11.54495078046747"><ele>649.0</ele><time>2026-04-30T11:32:20Z</time></trkpt><trkpt lat="44.201756326056035" lon="11.545038281741425"><ele>649.0</ele><time>2026-04-30T11:32:21Z</time></trkpt><trkpt lat="44.20182553626851" lon="11.545131207918853"><ele>649.0</ele><time>2026-04-30T11:32:22Z</time></trkpt><trkpt lat="44.20189715531928" lon="11.5452197461072"><ele>649.0</ele><time>2026-04-30T11:32:23Z</time></trkpt><trkpt lat="44.20197065435" lon="11.545287988833401"><ele>649.0</ele><time>2026-04-30T11:32:24Z</time></trkpt><trkpt lat="44.20203947002887" lon="11.545349278641718"><ele>649.0</ele><time>2026-04-30T11:32:25Z</time></trkpt><trkpt lat="44.202103845653944" lon="11.545408115616672"><ele>649.0</ele><time>2026-04-30T11:32:26Z</time></trkpt><trkpt lat="44.20216961475326" lon="11.54546640939432"><ele>649.0</ele><time>2026-04-30T11:32:27Z</time></trkpt><trkpt lat="44.20221809018796" lon="11.545527567957897"><ele>649.0</ele><time>2026-04-30T11:32:28Z</time></trkpt><trkpt lat="44.20226234649709" lon="11.545609988572593"><ele>650.6</ele><time>2026-04-30T11:32:29Z</time></trkpt><trkpt lat="44.2023049641514" lon="11.545698568763731"><ele>652.2</ele><time>2026-04-30T11:32:30Z</time></trkpt><trkpt lat="44.20236159813109" lon="11.545796892785338"><ele>653.8000000000001</ele><time>2026-04-30T11:32:31Z</time></trkpt><trkpt lat="44.20243155709037" lon="11.545891300404678"><ele>655.4000000000001</ele><time>2026-04-30T11:32:32Z</time></trkpt><trkpt lat="44.20252029304907" lon="11.545961533918181"><ele>657.0</ele><time>2026-04-30T11:32:33Z</time></trkpt><trkpt lat="44.20261098778087" lon="11.546008485916833"><ele>653.5</ele><time>2026-04-30T11:32:34Z</time></trkpt><trkpt lat="44.202691418948724" lon="11.546039909586018"><ele>650.0</ele><time>2026-04-30T11:32:35Z</time></trkpt><trkpt lat="44.20276695464918" lon="11.546076453777477"><ele>646.5</ele><time>2026-04-30T11:32:36Z</time></trkpt><trkpt lat="44.20283217480229" lon="11.546133799310185"><ele>643.0</ele><time>2026-04-30T11:32:37Z</time></trkpt><trkpt lat="44.20286797222941" lon="11.54623637158598"><ele>639.5</ele><time>2026-04-30T11:32:38Z</time></trkpt><trkpt lat="44.20288707393147" lon="11.546367469851448"><ele>636.0</ele><time>2026-04-30T11:32:39Z</time></trkpt><trkpt lat="44.20292128498411" lon="11.54647265530369"><ele>636.3333333333334</ele><time>2026-04-30T11:32:40Z</time></trkpt><trkpt lat="44.20298506569669" lon="11.546537141153946"><ele>636.6666666666666</ele><time>2026-04-30T11:32:41Z</time></trkpt><trkpt lat="44.20304762987133" lon="11.546551402681834"><ele>637.0</ele><time>2026-04-30T11:32:42Z</time></trkpt><trkpt lat="44.203123367150276" lon="11.546525913483187"><ele>637.3333333333333</ele><time>2026-04-30T11:32:43Z</time></trkpt><trkpt lat="44.2032184847523" lon="11.54647880083279"><ele>637.6666666666666</ele><time>2026-04-30T11:32:44Z</time></trkpt><trkpt lat="44.20332860638021" lon="11.546448369974799"><ele>638.0</ele><time>2026-04-30T11:32:45Z</time></trkpt><trkpt lat="44.20342235073222" lon="11.546459350549123"><ele>638.0</ele><time>2026-04-30T11:32:46Z</time></trkpt><trkpt lat="44.20350427541482" lon="11.546513373576369"><ele>638.0</ele><time>2026-04-30T11:32:47Z</time></trkpt><trkpt lat="44.203588098238285" lon="11.546600841455085"><ele>638.0</ele><time>2026-04-30T11:32:48Z</time></trkpt><trkpt lat="44.20367644044646" lon="11.546718943313302"><ele>638.0</ele><time>2026-04-30T11:32:49Z</time></trkpt><trkpt lat="44.203773719246755" lon="11.546827856693788"><ele>638.0</ele><time>2026-04-30T11:32:50Z</time></trkpt><trkpt lat="44.2038699385379" lon="11.546878480313246"><ele>638.0</ele><time>2026-04-30T11:32:51Z</time></trkpt><trkpt lat="44.203979091492656" lon="11.54687797149553"><ele>638.0</ele><time>2026-04-30T11:32:52Z</time></trkpt><trkpt lat="44.204100554839854" lon="11.546839886238343"><ele>638.0</ele><time>2026-04-30T11:32:53Z</time></trkpt><trkpt lat="44.204216122627955" lon="11.546792056143474"><ele>638.0</ele><time>2026-04-30T11:32:54Z</time></trkpt><trkpt lat="44.20431850204339" lon="11.546759745664986"><ele>640.1666666666666</ele><time>2026-04-30T11:32:55Z</time></trkpt><trkpt lat="44.20439502898664" lon="11.546719972547622"><ele>642.3333333333333</ele><time>2026-04-30T11:32:56Z</time></trkpt><trkpt lat="44.20444834557128" lon="11.546645554258426"><ele>644.5</ele><time>2026-04-30T11:32:57Z</time></trkpt><trkpt lat="44.20447854839655" lon="11.546537945285205"><ele>646.6666666666666</ele><time>2026-04-30T11:32:58Z</time></trkpt><trkpt lat="44.204510334743176" lon="11.546418422914925"><ele>648.8333333333334</ele><time>2026-04-30T11:32:59Z</time></trkpt><trkpt lat="44.20455162324287" lon="11.546306743904129"><ele>651.0</ele><time>2026-04-30T11:33:00Z</time></trkpt><trkpt lat="44.20460157309302" lon="11.546229078558563"><ele>651.3333333333334</ele><time>2026-04-30T11:33:01Z</time></trkpt><trkpt lat="44.20466088980951" lon="11.546175226056572"><ele>651.6666666666666</ele><time>2026-04-30T11:33:02Z</time></trkpt><trkpt lat="44.20472180101077" lon="11.54612500146227"><ele>652.0</ele><time>2026-04-30T11:33:03Z</time></trkpt><trkpt lat="44.204769954473555" lon="11.546053829919463"><ele>652.3333333333333</ele><time>2026-04-30T11:33:04Z</time></trkpt><trkpt lat="44.204804092889574" lon="11.54597887861052"><ele>652.6666666666666</ele><time>2026-04-30T11:33:05Z</time></trkpt><trkpt lat="44.20484627344153" lon="11.545856639878233"><ele>653.0</ele><time>2026-04-30T11:33:07Z</time></trkpt><trkpt lat="44.2049037580415" lon="11.54574346691117"><ele>653.0</ele><time>2026-04-30T11:33:09Z</time></trkpt><trkpt lat="44.205029343527265" lon="11.545675505676309"><ele>653.0</ele><time>2026-04-30T11:33:11Z</time></trkpt><trkpt lat="44.20511556391481" lon="11.54563877247344"><ele>653.0</ele><time>2026-04-30T11:33:12Z</time></trkpt><trkpt lat="44.205207698225934" lon="11.545562212109383"><ele>653.0</ele><time>2026-04-30T11:33:13Z</time></trkpt><trkpt lat="44.2052873355199" lon="11.545462331749535"><ele>653.0</ele><time>2026-04-30T11:33:14Z</time></trkpt><trkpt lat="44.20535092854497" lon="11.545371105644888"><ele>653.0</ele><time>2026-04-30T11:33:15Z</time></trkpt><trkpt lat="44.205429029074" lon="11.54532765880453"><ele>653.0</ele><time>2026-04-30T11:33:16Z</time></trkpt><trkpt lat="44.20551932781708" lon="11.545338021217857"><ele>653.0</ele><time>2026-04-30T11:33:17Z</time></trkpt><trkpt lat="44.20562405772456" lon="11.545399335838196"><ele>653.0</ele><time>2026-04-30T11:33:18Z</time></trkpt><trkpt lat="44.205728091906025" lon="11.545481907628194"><ele>653.0</ele><time>2026-04-30T11:33:19Z</time></trkpt><trkpt lat="44.205811774046886" lon="11.545592138686166"><ele>653.8</ele><time>2026-04-30T11:33:20Z</time></trkpt><trkpt lat="44.205872849064505" lon="11.54572544580683"><ele>654.5999999999999</ele><time>2026-04-30T11:33:21Z</time></trkpt><trkpt lat="44.20592966853353" lon="11.545846552181393"><ele>655.4000000000001</ele><time>2026-04-30T11:33:22Z</time></trkpt><trkpt lat="44.206008242896374" lon="11.545937285451897"><ele>656.2</ele><time>2026-04-30T11:33:23Z</time></trkpt><trkpt lat="44.20610793330562" lon="11.545990956291059"><ele>657.0</ele><time>2026-04-30T11:33:24Z</time></trkpt><trkpt lat="44.20622102185443" lon="11.546026734659788"><ele>657.0</ele><time>2026-04-30T11:33:25Z</time></trkpt><trkpt lat="44.20632560491056" lon="11.546045098850808"><ele>657.0</ele><time>2026-04-30T11:33:26Z</time></trkpt><trkpt lat="44.20642091572504" lon="11.546057223796744"><ele>657.0</ele><time>2026-04-30T11:33:27Z</time></trkpt><trkpt lat="44.20650735843713" lon="11.546094483220282"><ele>657.0</ele><time>2026-04-30T11:33:28Z</time></trkpt><trkpt lat="44.20657443428937" lon="11.546183962307198"><ele>657.0</ele><time>2026-04-30T11:33:29Z</time></trkpt><trkpt lat="44.2065983868797" lon="11.546288882032803"><ele>654.25</ele><time>2026-04-30T11:33:30Z</time></trkpt><trkpt lat="44.206587019077254" lon="11.546424927667523"><ele>651.5</ele><time>2026-04-30T11:33:31Z</time></trkpt><trkpt lat="44.20655571765367" lon="11.546593120932117"><ele>648.75</ele><time>2026-04-30T11:33:32Z</time></trkpt><trkpt lat="44.20653721791559" lon="11.546754980917255"><ele>646.0</ele><time>2026-04-30T11:33:33Z</time></trkpt><trkpt lat="44.20655789622595" lon="11.546905313209987"><ele>646.8</ele><time>2026-04-30T11:33:34Z</time></trkpt><trkpt lat="44.2065917977" lon="11.547051135054145"><ele>647.5999999999999</ele><time>2026-04-30T11:33:35Z</time></trkpt><trkpt lat="44.20662523564697" lon="11.547172343083107"><ele>648.4</ele><time>2026-04-30T11:33:36Z</time></trkpt><trkpt lat="44.206661845812775" lon="11.547289840738406"><ele>649.2</ele><time>2026-04-30T11:33:37Z</time></trkpt><trkpt lat="44.20670571899139" lon="11.547405089691011"><ele>650.0</ele><time>2026-04-30T11:33:38Z</time></trkpt><trkpt lat="44.20676766302749" lon="11.547510535742427"><ele>650.0</ele><time>2026-04-30T11:33:39Z</time></trkpt><trkpt lat="44.206858576771616" lon="11.54759179814537"><ele>650.0</ele><time>2026-04-30T11:33:40Z</time></trkpt><trkpt lat="44.20696120401285" lon="11.54764178083842"><ele>650.0</ele><time>2026-04-30T11:33:41Z</time></trkpt><trkpt lat="44.2070674125364" lon="11.547663461113162"><ele>650.0</ele><time>2026-04-30T11:33:42Z</time></trkpt><trkpt lat="44.20716392109359" lon="11.547693770751646"><ele>650.0</ele><time>2026-04-30T11:33:43Z</time></trkpt><trkpt lat="44.20724966340923" lon="11.547749986530011"><ele>650.0</ele><time>2026-04-30T11:33:44Z</time></trkpt><trkpt lat="44.20732474067334" lon="11.547824635715939"><ele>650.0</ele><time>2026-04-30T11:33:45Z</time></trkpt><trkpt lat="44.207391893108195" lon="11.54792340053672"><ele>650.0</ele><time>2026-04-30T11:33:46Z</time></trkpt><trkpt lat="44.20744938225963" lon="11.548037899417558"><ele>650.0</ele><time>2026-04-30T11:33:47Z</time></trkpt><trkpt lat="44.20749706999991" lon="11.548173936729196"><ele>650.0</ele><time>2026-04-30T11:33:48Z</time></trkpt><trkpt lat="44.207547055391814" lon="11.548316482672334"><ele>648.8</ele><time>2026-04-30T11:33:49Z</time></trkpt><trkpt lat="44.20760974180224" lon="11.54843369208187"><ele>647.6</ele><time>2026-04-30T11:33:50Z</time></trkpt><trkpt lat="44.20765565461705" lon="11.548558877851804"><ele>646.4000000000001</ele><time>2026-04-30T11:33:51Z</time></trkpt><trkpt lat="44.20768331056685" lon="11.548680917732009"><ele>645.2</ele><time>2026-04-30T11:33:52Z</time></trkpt><trkpt lat="44.207700920021" lon="11.548804036423316"><ele>644.0</ele><time>2026-04-30T11:33:53Z</time></trkpt><trkpt lat="44.20770831519028" lon="11.548932562953024"><ele>644.0</ele><time>2026-04-30T11:33:54Z</time></trkpt><trkpt lat="44.20770064630985" lon="11.549056529364265"><ele>644.0</ele><time>2026-04-30T11:33:55Z</time></trkpt><trkpt lat="44.207680794675866" lon="11.549171509939931"><ele>644.0</ele><time>2026-04-30T11:33:56Z</time></trkpt><trkpt lat="44.20767824753269" lon="11.549289953289803"><ele>644.0</ele><time>2026-04-30T11:33:57Z</time></trkpt><trkpt lat="44.207720780368234" lon="11.549407379675435"><ele>644.0</ele><time>2026-04-30T11:33:58Z</time></trkpt><trkpt lat="44.20778788633478" lon="11.549502393766913"><ele>644.0</ele><time>2026-04-30T11:33:59Z</time></trkpt><trkpt lat="44.207874415495745" lon="11.54956956896456"><ele>646.2</ele><time>2026-04-30T11:34:00Z</time></trkpt><trkpt lat="44.20796332465118" lon="11.549629953991685"><ele>648.4000000000001</ele><time>2026-04-30T11:34:01Z</time></trkpt><trkpt lat="44.2080245250018" lon="11.549717980238722"><ele>650.6</ele><time>2026-04-30T11:34:02Z</time></trkpt><trkpt lat="44.208072337153546" lon="11.54985030395858"><ele>652.8</ele><time>2026-04-30T11:34:03Z</time></trkpt><trkpt lat="44.20811224295194" lon="11.54999284264781"><ele>655.0</ele><time>2026-04-30T11:34:04Z</time></trkpt><trkpt lat="44.20813485626221" lon="11.550130086008945"><ele>650.1666666666667</ele><time>2026-04-30T11:34:05Z</time></trkpt><trkpt lat="44.20817384393321" lon="11.550245372137159"><ele>645.3333333333334</ele><time>2026-04-30T11:34:06Z</time></trkpt><trkpt lat="44.20825097561525" lon="11.550330809345558"><ele>640.5</ele><time>2026-04-30T11:34:07Z</time></trkpt><trkpt lat="44.20832519128793" lon="11.550403748225952"><ele>635.6666666666666</ele><time>2026-04-30T11:34:08Z</time></trkpt><trkpt lat="44.20836614529405" lon="11.55048923329473"><ele>630.8333333333333</ele><time>2026-04-30T11:34:09Z</time></trkpt><trkpt lat="44.208368713793384" lon="11.550615631051608"><ele>626.0</ele><time>2026-04-30T11:34:12Z</time></trkpt><trkpt lat="44.208441976359666" lon="11.550593637512188"><ele>626.0</ele><time>2026-04-30T11:34:14Z</time></trkpt><trkpt lat="44.20845848727877" lon="11.550450314237661"><ele>626.0</ele><time>2026-04-30T11:34:16Z</time></trkpt><trkpt lat="44.208374319284424" lon="11.550302007999834"><ele>626.0</ele><time>2026-04-30T11:34:18Z</time></trkpt><trkpt lat="44.20832048173268" lon="11.55020288930752"><ele>626.0</ele><time>2026-04-30T11:34:19Z</time></trkpt><trkpt lat="44.20826607163324" lon="11.550107012577184"><ele>626.0</ele><time>2026-04-30T11:34:20Z</time></trkpt><trkpt lat="44.20823155669738" lon="11.550002569274724"><ele>625.6</ele><time>2026-04-30T11:34:21Z</time></trkpt><trkpt lat="44.20822216957485" lon="11.549872447748333"><ele>625.2</ele><time>2026-04-30T11:34:22Z</time></trkpt><trkpt lat="44.20819866248175" lon="11.549720320397588"><ele>624.8</ele><time>2026-04-30T11:34:23Z</time></trkpt><trkpt lat="44.20816662064374" lon="11.549565588577241"><ele>624.4</ele><time>2026-04-30T11:34:24Z</time></trkpt><trkpt lat="44.20814710629" lon="11.549419311304574"><ele>624.0</ele><time>2026-04-30T11:34:25Z</time></trkpt><trkpt lat="44.20813232679696" lon="11.549281958896024"><ele>623.0</ele><time>2026-04-30T11:34:26Z</time></trkpt><trkpt lat="44.208124530010494" lon="11.54915488822427"><ele>622.0</ele><time>2026-04-30T11:34:27Z</time></trkpt><trkpt lat="44.20813192778161" lon="11.549038677281562"><ele>621.0</ele><time>2026-04-30T11:34:28Z</time></trkpt><trkpt lat="44.20814033650036" lon="11.548926314564152"><ele>620.0</ele><time>2026-04-30T11:34:29Z</time></trkpt><trkpt lat="44.20816305813532" lon="11.548824459687898"><ele>619.0</ele><time>2026-04-30T11:34:30Z</time></trkpt><trkpt lat="44.20816698851362" lon="11.548731382520774"><ele>618.0</ele><time>2026-04-30T11:34:31Z</time></trkpt><trkpt lat="44.20815373490158" lon="11.548619650898766"><ele>619.5</ele><time>2026-04-30T11:34:32Z</time></trkpt><trkpt lat="44.20814034070814" lon="11.548505167551363"><ele>621.0</ele><time>2026-04-30T11:34:33Z</time></trkpt><trkpt lat="44.208124490679666" lon="11.548389060790987"><ele>622.5</ele><time>2026-04-30T11:34:34Z</time></trkpt><trkpt lat="44.20811145197659" lon="11.548270926861495"><ele>624.0</ele><time>2026-04-30T11:34:35Z</time></trkpt><trkpt lat="44.20809752790161" lon="11.548152884857346"><ele>625.5</ele><time>2026-04-30T11:34:36Z</time></trkpt><trkpt lat="44.20808832530418" lon="11.548033943695247"><ele>627.0</ele><time>2026-04-30T11:34:37Z</time></trkpt><trkpt lat="44.208034164277095" lon="11.547856570389984"><ele>627.0</ele><time>2026-04-30T11:34:39Z</time></trkpt><trkpt lat="44.20797309011685" lon="11.547768787783138"><ele>627.0</ele><time>2026-04-30T11:34:40Z</time></trkpt><trkpt lat="44.20791243301585" lon="11.547689681124217"><ele>627.0</ele><time>2026-04-30T11:34:41Z</time></trkpt><trkpt lat="44.20783929777127" lon="11.547607192105483"><ele>627.0</ele><time>2026-04-30T11:34:42Z</time></trkpt><trkpt lat="44.20778476423891" lon="11.547503894655174"><ele>627.0</ele><time>2026-04-30T11:34:43Z</time></trkpt><trkpt lat="44.207752669835116" lon="11.547381265707594"><ele>627.0</ele><time>2026-04-30T11:34:44Z</time></trkpt><trkpt lat="44.20773926511664" lon="11.547238268946826"><ele>627.0</ele><time>2026-04-30T11:34:45Z</time></trkpt><trkpt lat="44.20772105167922" lon="11.547101611167253"><ele>627.0</ele><time>2026-04-30T11:34:46Z</time></trkpt><trkpt lat="44.20768358166182" lon="11.546971806523429"><ele>627.0</ele><time>2026-04-30T11:34:47Z</time></trkpt><trkpt lat="44.207644816634954" lon="11.546844327288078"><ele>627.0</ele><time>2026-04-30T11:34:48Z</time></trkpt><trkpt lat="44.20762066299313" lon="11.54671400906827"><ele>625.6666666666666</ele><time>2026-04-30T11:34:49Z</time></trkpt><trkpt lat="44.20761685925316" lon="11.546581300911514"><ele>624.3333333333334</ele><time>2026-04-30T11:34:50Z</time></trkpt><trkpt lat="44.20761348729142" lon="11.546461214130073"><ele>623.0</ele><time>2026-04-30T11:34:51Z</time></trkpt><trkpt lat="44.20762158926257" lon="11.546358010638773"><ele>621.6666666666667</ele><time>2026-04-30T11:34:52Z</time></trkpt><trkpt lat="44.20766311616716" lon="11.546257671307512"><ele>620.3333333333334</ele><time>2026-04-30T11:34:53Z</time></trkpt><trkpt lat="44.20772183384929" lon="11.546158842125154"><ele>619.0</ele><time>2026-04-30T11:34:54Z</time></trkpt><trkpt lat="44.20778747920952" lon="11.546072897033405"><ele>619.0</ele><time>2026-04-30T11:34:55Z</time></trkpt><trkpt lat="44.207866802378454" lon="11.546007944956001"><ele>619.0</ele><time>2026-04-30T11:34:56Z</time></trkpt><trkpt lat="44.207948564433025" lon="11.545953649093605"><ele>619.0</ele><time>2026-04-30T11:34:57Z</time></trkpt><trkpt lat="44.20800371813809" lon="11.545880644536567"><ele>619.0</ele><time>2026-04-30T11:34:58Z</time></trkpt><trkpt lat="44.20804964809631" lon="11.545774018061705"><ele>619.0</ele><time>2026-04-30T11:34:59Z</time></trkpt><trkpt lat="44.20810680428736" lon="11.545663139786315"><ele>619.0</ele><time>2026-04-30T11:35:00Z</time></trkpt><trkpt lat="44.20817844588622" lon="11.545578057962219"><ele>616.0</ele><time>2026-04-30T11:35:01Z</time></trkpt><trkpt lat="44.208267615831694" lon="11.545523099390183"><ele>613.0</ele><time>2026-04-30T11:35:02Z</time></trkpt><trkpt lat="44.20835213420202" lon="11.54547715235156"><ele>610.0</ele><time>2026-04-30T11:35:03Z</time></trkpt><trkpt lat="44.208430925657446" lon="11.545427919699481"><ele>607.0</ele><time>2026-04-30T11:35:04Z</time></trkpt><trkpt lat="44.20853371592822" lon="11.545366152683826"><ele>604.0</ele><time>2026-04-30T11:35:05Z</time></trkpt><trkpt lat="44.20861875218905" lon="11.545317197815217"><ele>604.0</ele><time>2026-04-30T11:35:06Z</time></trkpt><trkpt lat="44.208714692161884" lon="11.54529367554658"><ele>604.0</ele><time>2026-04-30T11:35:07Z</time></trkpt><trkpt lat="44.20880773462203" lon="11.54528364989886"><ele>604.0</ele><time>2026-04-30T11:35:08Z</time></trkpt><trkpt lat="44.20890282268688" lon="11.545284255623136"><ele>604.0</ele><time>2026-04-30T11:35:09Z</time></trkpt><trkpt lat="44.208994481329164" lon="11.545293272486926"><ele>604.0</ele><time>2026-04-30T11:35:10Z</time></trkpt><trkpt lat="44.20908480229928" lon="11.5453247777108"><ele>599.3333333333334</ele><time>2026-04-30T11:35:11Z</time></trkpt><trkpt lat="44.209168434929545" lon="11.545380477536742"><ele>594.6666666666667</ele><time>2026-04-30T11:35:12Z</time></trkpt><trkpt lat="44.20924986817227" lon="11.545438136527334"><ele>590.0</ele><time>2026-04-30T11:35:13Z</time></trkpt><trkpt lat="44.209331686677366" lon="11.54549896280543"><ele>585.3333333333334</ele><time>2026-04-30T11:35:14Z</time></trkpt><trkpt lat="44.2094159344317" lon="11.545543766942762"><ele>580.6666666666666</ele><time>2026-04-30T11:35:15Z</time></trkpt><trkpt lat="44.2094970496028" lon="11.545564681864244"><ele>576.0</ele><time>2026-04-30T11:35:16Z</time></trkpt><trkpt lat="44.209573873634504" lon="11.545548853770779"><ele>576.0000000000001</ele><time>2026-04-30T11:35:17Z</time></trkpt><trkpt lat="44.20962933974968" lon="11.54550051784265"><ele>576.0</ele><time>2026-04-30T11:35:18Z</time></trkpt><trkpt lat="44.209670228373845" lon="11.545430931310872"><ele>576.0</ele><time>2026-04-30T11:35:19Z</time></trkpt><trkpt lat="44.20970366022513" lon="11.545342552721621"><ele>576.0</ele><time>2026-04-30T11:35:20Z</time></trkpt><trkpt lat="44.20971307108748" lon="11.54524791876302"><ele>576.0</ele><time>2026-04-30T11:35:21Z</time></trkpt><trkpt lat="44.20973347231695" lon="11.545133067026345"><ele>576.0000000000001</ele><time>2026-04-30T11:35:22Z</time></trkpt><trkpt lat="44.209760925713965" lon="11.545030962284688"><ele>576.0</ele><time>2026-04-30T11:35:23Z</time></trkpt><trkpt lat="44.20981152680842" lon="11.544949384359207"><ele>575.6</ele><time>2026-04-30T11:35:24Z</time></trkpt><trkpt lat="44.209874259387085" lon="11.544866565083439"><ele>575.2</ele><time>2026-04-30T11:35:25Z</time></trkpt><trkpt lat="44.20995840336466" lon="11.54480972807807"><ele>574.8</ele><time>2026-04-30T11:35:26Z</time></trkpt><trkpt lat="44.21004454017647" lon="11.544751944672813"><ele>574.4</ele><time>2026-04-30T11:35:27Z</time></trkpt><trkpt lat="44.21011271650288" lon="11.544667518635347"><ele>574.0</ele><time>2026-04-30T11:35:28Z</time></trkpt><trkpt lat="44.21016878772032" lon="11.544560566810931"><ele>572.3333333333334</ele><time>2026-04-30T11:35:29Z</time></trkpt><trkpt lat="44.210204058483946" lon="11.54444245713766"><ele>570.6666666666667</ele><time>2026-04-30T11:35:30Z</time></trkpt><trkpt lat="44.21023842413872" lon="11.544334598424536"><ele>569.0</ele><time>2026-04-30T11:35:31Z</time></trkpt><trkpt lat="44.21029250872238" lon="11.544250391912346"><ele>567.3333333333334</ele><time>2026-04-30T11:35:32Z</time></trkpt><trkpt lat="44.21036612788981" lon="11.54417671143211"><ele>565.6666666666666</ele><time>2026-04-30T11:35:33Z</time></trkpt><trkpt lat="44.21044854546804" lon="11.544118079547234"><ele>564.0</ele><time>2026-04-30T11:35:34Z</time></trkpt><trkpt lat="44.210530127513266" lon="11.54408309013513"><ele>564.0</ele><time>2026-04-30T11:35:35Z</time></trkpt><trkpt lat="44.21061217881834" lon="11.544072327596838"><ele>564.0</ele><time>2026-04-30T11:35:36Z</time></trkpt><trkpt lat="44.210695996728866" lon="11.544066673300478"><ele>564.0</ele><time>2026-04-30T11:35:37Z</time></trkpt><trkpt lat="44.21077942730385" lon="11.544014451118471"><ele>564.0</ele><time>2026-04-30T11:35:38Z</time></trkpt><trkpt lat="44.210850433317724" lon="11.543926407529371"><ele>564.0</ele><time>2026-04-30T11:35:39Z</time></trkpt><trkpt lat="44.2109196052776" lon="11.543830515637733"><ele>561.6</ele><time>2026-04-30T11:35:40Z</time></trkpt><trkpt lat="44.210996214734394" lon="11.543733089389756"><ele>559.2</ele><time>2026-04-30T11:35:41Z</time></trkpt><trkpt lat="44.211080758792235" lon="11.543661962655223"><ele>556.8000000000001</ele><time>2026-04-30T11:35:42Z</time></trkpt><trkpt lat="44.21117426398643" lon="11.543609617437996"><ele>554.4</ele><time>2026-04-30T11:35:43Z</time></trkpt><trkpt lat="44.21128726193204" lon="11.543587699225855"><ele>552.0</ele><time>2026-04-30T11:35:44Z</time></trkpt><trkpt lat="44.21140475719383" lon="11.543590685513472"><ele>549.0</ele><time>2026-04-30T11:35:45Z</time></trkpt><trkpt lat="44.21151745185512" lon="11.543594108086692"><ele>546.0</ele><time>2026-04-30T11:35:46Z</time></trkpt><trkpt lat="44.211628542800625" lon="11.543561288627812"><ele>543.0</ele><time>2026-04-30T11:35:47Z</time></trkpt><trkpt lat="44.21173490977971" lon="11.543487146522128"><ele>540.0</ele><time>2026-04-30T11:35:48Z</time></trkpt><trkpt lat="44.211845915710626" lon="11.543390257918567"><ele>540.0</ele><time>2026-04-30T11:35:49Z</time></trkpt><trkpt lat="44.21196067610095" lon="11.543282656051721"><ele>540.0</ele><time>2026-04-30T11:35:50Z</time></trkpt><trkpt lat="44.21207946682198" lon="11.543190755265389"><ele>540.0</ele><time>2026-04-30T11:35:51Z</time></trkpt><trkpt lat="44.2121913947067" lon="11.543119663404251"><ele>540.0</ele><time>2026-04-30T11:35:52Z</time></trkpt><trkpt lat="44.21229251220229" lon="11.543039165456026"><ele>538.8333333333334</ele><time>2026-04-30T11:35:53Z</time></trkpt><trkpt lat="44.2123804624846" lon="11.542947294107794"><ele>537.6666666666666</ele><time>2026-04-30T11:35:54Z</time></trkpt><trkpt lat="44.212468815943055" lon="11.542868985768335"><ele>536.5</ele><time>2026-04-30T11:35:55Z</time></trkpt><trkpt lat="44.212534311868815" lon="11.542810782459933"><ele>535.3333333333333</ele><time>2026-04-30T11:35:56Z</time></trkpt><trkpt lat="44.212597680561856" lon="11.542759844818118"><ele>534.1666666666666</ele><time>2026-04-30T11:35:57Z</time></trkpt><trkpt lat="44.21266582352097" lon="11.542712577790184"><ele>533.0</ele><time>2026-04-30T11:35:58Z</time></trkpt><trkpt lat="44.212727517762886" lon="11.542646646918435"><ele>533.0</ele><time>2026-04-30T11:35:59Z</time></trkpt><trkpt lat="44.212780227863306" lon="11.54256745503571"><ele>533.0</ele><time>2026-04-30T11:36:00Z</time></trkpt><trkpt lat="44.212821891535675" lon="11.542492399484962"><ele>533.0</ele><time>2026-04-30T11:36:01Z</time></trkpt><trkpt lat="44.212935537670084" lon="11.542418994125477"><ele>533.0</ele><time>2026-04-30T11:36:03Z</time></trkpt><trkpt lat="44.21306484734673" lon="11.542376610348382"><ele>533.0</ele><time>2026-04-30T11:36:05Z</time></trkpt><trkpt lat="44.21313782955559" lon="11.542335316043118"><ele>533.5</ele><time>2026-04-30T11:36:06Z</time></trkpt><trkpt lat="44.213197764383" lon="11.542257954819393"><ele>534.0</ele><time>2026-04-30T11:36:07Z</time></trkpt><trkpt lat="44.213247488674284" lon="11.542190200699709"><ele>534.5</ele><time>2026-04-30T11:36:08Z</time></trkpt><trkpt lat="44.21332842188192" lon="11.542056643252964"><ele>535.0</ele><time>2026-04-30T11:36:10Z</time></trkpt><trkpt lat="44.213393133634135" lon="11.541996435955218"><ele>535.5</ele><time>2026-04-30T11:36:11Z</time></trkpt><trkpt lat="44.21348277649005" lon="11.54196101204437"><ele>536.0</ele><time>2026-04-30T11:36:12Z</time></trkpt><trkpt lat="44.21356780960491" lon="11.541893640815779"><ele>534.8333333333333</ele><time>2026-04-30T11:36:13Z</time></trkpt><trkpt lat="44.21364168815133" lon="11.54179968394582"><ele>533.6666666666666</ele><time>2026-04-30T11:36:14Z</time></trkpt><trkpt lat="44.213706489383775" lon="11.54171037607792"><ele>532.5</ele><time>2026-04-30T11:36:15Z</time></trkpt><trkpt lat="44.21375154015179" lon="11.541625452148839"><ele>531.3333333333334</ele><time>2026-04-30T11:36:16Z</time></trkpt><trkpt lat="44.21377661719592" lon="11.541534155040383"><ele>530.1666666666667</ele><time>2026-04-30T11:36:17Z</time></trkpt><trkpt lat="44.213780253856875" lon="11.541426372182846"><ele>529.0</ele><time>2026-04-30T11:36:18Z</time></trkpt><trkpt lat="44.21376523366287" lon="11.541302659373743"><ele>527.3333333333334</ele><time>2026-04-30T11:36:19Z</time></trkpt><trkpt lat="44.21374113264034" lon="11.541161134257337"><ele>525.6666666666667</ele><time>2026-04-30T11:36:20Z</time></trkpt><trkpt lat="44.213739216361496" lon="11.541059252767816"><ele>524.0</ele><time>2026-04-30T11:36:21Z</time></trkpt><trkpt lat="44.213771488409655" lon="11.540951389228182"><ele>522.3333333333334</ele><time>2026-04-30T11:36:22Z</time></trkpt><trkpt lat="44.21381674260707" lon="11.54084637995959"><ele>520.6666666666666</ele><time>2026-04-30T11:36:23Z</time></trkpt><trkpt lat="44.21390025635207" lon="11.540777682434337"><ele>519.0</ele><time>2026-04-30T11:36:24Z</time></trkpt><trkpt lat="44.21399794053693" lon="11.540684547231125"><ele>521.6</ele><time>2026-04-30T11:36:25Z</time></trkpt><trkpt lat="44.21406915307651" lon="11.540567410599119"><ele>524.2</ele><time>2026-04-30T11:36:26Z</time></trkpt><trkpt lat="44.21410518333239" lon="11.54045144604978"><ele>526.8000000000001</ele><time>2026-04-30T11:36:27Z</time></trkpt><trkpt lat="44.2141180655499" lon="11.540306815517118"><ele>529.4</ele><time>2026-04-30T11:36:28Z</time></trkpt><trkpt lat="44.214101625396" lon="11.540137194597659"><ele>532.0</ele><time>2026-04-30T11:36:29Z</time></trkpt><trkpt lat="44.21408562621308" lon="11.540010048539424"><ele>532.0</ele><time>2026-04-30T11:36:30Z</time></trkpt><trkpt lat="44.214101797557824" lon="11.539887132477975"><ele>532.0</ele><time>2026-04-30T11:36:31Z</time></trkpt><trkpt lat="44.21414009390709" lon="11.53977859695313"><ele>532.0</ele><time>2026-04-30T11:36:32Z</time></trkpt><trkpt lat="44.21417855888597" lon="11.539676938568945"><ele>532.0</ele><time>2026-04-30T11:36:33Z</time></trkpt><trkpt lat="44.21420871374789" lon="11.53957089666621"><ele>532.0</ele><time>2026-04-30T11:36:34Z</time></trkpt><trkpt lat="44.21423675425705" lon="11.539460056277045"><ele>532.0</ele><time>2026-04-30T11:36:35Z</time></trkpt><trkpt lat="44.21425406565712" lon="11.539343398174998"><ele>531.4</ele><time>2026-04-30T11:36:36Z</time></trkpt><trkpt lat="44.21425726570417" lon="11.539221934938297"><ele>530.8000000000001</ele><time>2026-04-30T11:36:37Z</time></trkpt><trkpt lat="44.214239365331736" lon="11.53909118381465"><ele>530.2</ele><time>2026-04-30T11:36:38Z</time></trkpt><trkpt lat="44.214223510942205" lon="11.538956650244902"><ele>529.6</ele><time>2026-04-30T11:36:39Z</time></trkpt><trkpt lat="44.21421149706387" lon="11.538809883181878"><ele>529.0</ele><time>2026-04-30T11:36:40Z</time></trkpt><trkpt lat="44.21420694697271" lon="11.5386636234524"><ele>528.4</ele><time>2026-04-30T11:36:41Z</time></trkpt><trkpt lat="44.214203252408886" lon="11.538513333359175"><ele>527.8</ele><time>2026-04-30T11:36:42Z</time></trkpt><trkpt lat="44.21419654836192" lon="11.538360735846284"><ele>527.2</ele><time>2026-04-30T11:36:43Z</time></trkpt><trkpt lat="44.214188778688325" lon="11.53821804360259"><ele>526.6</ele><time>2026-04-30T11:36:44Z</time></trkpt><trkpt lat="44.214177421183386" lon="11.538080387131673"><ele>526.0</ele><time>2026-04-30T11:36:45Z</time></trkpt><trkpt lat="44.2141696586191" lon="11.537949616946076"><ele>523.6</ele><time>2026-04-30T11:36:46Z</time></trkpt><trkpt lat="44.2141545208276" lon="11.53781409815442"><ele>521.2</ele><time>2026-04-30T11:36:47Z</time></trkpt><trkpt lat="44.214130419592784" lon="11.537680409347509"><ele>518.8</ele><time>2026-04-30T11:36:48Z</time></trkpt><trkpt lat="44.21409725555918" lon="11.537546784365633"><ele>516.4</ele><time>2026-04-30T11:36:49Z</time></trkpt><trkpt lat="44.21406166842594" lon="11.537405345483888"><ele>514.0</ele><time>2026-04-30T11:36:50Z</time></trkpt><trkpt lat="44.214014998377756" lon="11.53727838801882"><ele>514.0</ele><time>2026-04-30T11:36:51Z</time></trkpt><trkpt lat="44.21395724574152" lon="11.537168940647835"><ele>514.0</ele><time>2026-04-30T11:36:52Z</time></trkpt><trkpt lat="44.21388932519359" lon="11.537071875178029"><ele>514.0</ele><time>2026-04-30T11:36:53Z</time></trkpt><trkpt lat="44.21382603044851" lon="11.536992388405881"><ele>514.0</ele><time>2026-04-30T11:36:54Z</time></trkpt><trkpt lat="44.21378171350733" lon="11.53690314121224"><ele>514.0</ele><time>2026-04-30T11:36:55Z</time></trkpt><trkpt lat="44.21376780168514" lon="11.53678844439898"><ele>514.0</ele><time>2026-04-30T11:36:56Z</time></trkpt><trkpt lat="44.21377871149226" lon="11.536658051057977"><ele>513.4</ele><time>2026-04-30T11:36:57Z</time></trkpt><trkpt lat="44.21381980751459" lon="11.536526703754435"><ele>512.8</ele><time>2026-04-30T11:36:58Z</time></trkpt><trkpt lat="44.21388138561969" lon="11.536396503030224"><ele>512.2</ele><time>2026-04-30T11:36:59Z</time></trkpt><trkpt lat="44.213929968676055" lon="11.536291234713511"><ele>511.6</ele><time>2026-04-30T11:37:00Z</time></trkpt><trkpt lat="44.213960069424516" lon="11.536184013852385"><ele>511.0</ele><time>2026-04-30T11:37:01Z</time></trkpt><trkpt lat="44.21400766380503" lon="11.536063930576647"><ele>508.20000000000005</ele><time>2026-04-30T11:37:03Z</time></trkpt><trkpt lat="44.21403007544366" lon="11.535894260323209"><ele>505.40000000000003</ele><time>2026-04-30T11:37:05Z</time></trkpt><trkpt lat="44.214058601321156" lon="11.535723434199394"><ele>502.6</ele><time>2026-04-30T11:37:07Z</time></trkpt><trkpt lat="44.21406877079719" lon="11.535628707331965"><ele>499.8</ele><time>2026-04-30T11:37:08Z</time></trkpt><trkpt lat="44.214069208558286" lon="11.535523027986333"><ele>497.0</ele><time>2026-04-30T11:37:09Z</time></trkpt><trkpt lat="44.21405806283396" lon="11.535415833789806"><ele>497.0</ele><time>2026-04-30T11:37:10Z</time></trkpt><trkpt lat="44.2140381039298" lon="11.535309708964208"><ele>497.00000000000006</ele><time>2026-04-30T11:37:11Z</time></trkpt><trkpt lat="44.21401371365708" lon="11.535194134357546"><ele>497.00000000000006</ele><time>2026-04-30T11:37:12Z</time></trkpt><trkpt lat="44.21397761009918" lon="11.535081059579072"><ele>497.0</ele><time>2026-04-30T11:37:13Z</time></trkpt><trkpt lat="44.213929199357985" lon="11.534964667303486"><ele>497.0</ele><time>2026-04-30T11:37:14Z</time></trkpt><trkpt lat="44.21387549197007" lon="11.534845518847153"><ele>497.0</ele><time>2026-04-30T11:37:15Z</time></trkpt><trkpt lat="44.21383950722289" lon="11.534713880053566"><ele>497.00000000000006</ele><time>2026-04-30T11:37:16Z</time></trkpt><trkpt lat="44.21383009234787" lon="11.534563307151627"><ele>497.00000000000006</ele><time>2026-04-30T11:37:17Z</time></trkpt><trkpt lat="44.2138431222046" lon="11.534408632613472"><ele>497.0</ele><time>2026-04-30T11:37:18Z</time></trkpt><trkpt lat="44.21388688532461" lon="11.53426251292042"><ele>497.0</ele><time>2026-04-30T11:37:19Z</time></trkpt><trkpt lat="44.21395685573659" lon="11.53411723525319"><ele>493.5</ele><time>2026-04-30T11:37:20Z</time></trkpt><trkpt lat="44.21404872302432" lon="11.533948375566164"><ele>490.0</ele><time>2026-04-30T11:37:21Z</time></trkpt><trkpt lat="44.214153267165564" lon="11.533797333821548"><ele>486.5</ele><time>2026-04-30T11:37:22Z</time></trkpt><trkpt lat="44.214243492879575" lon="11.533657822951344"><ele>483.0</ele><time>2026-04-30T11:37:23Z</time></trkpt><trkpt lat="44.214307270456494" lon="11.53350212499929"><ele>481.0</ele><time>2026-04-30T11:37:24Z</time></trkpt><trkpt lat="44.214343765168955" lon="11.533315694395242"><ele>479.0</ele><time>2026-04-30T11:37:25Z</time></trkpt><trkpt lat="44.214372192442326" lon="11.533127894909226"><ele>477.0</ele><time>2026-04-30T11:37:26Z</time></trkpt><trkpt lat="44.21439297112445" lon="11.532982787819353"><ele>475.0</ele><time>2026-04-30T11:37:27Z</time></trkpt><trkpt lat="44.21444703595912" lon="11.532846156215522"><ele>471.5</ele><time>2026-04-30T11:37:28Z</time></trkpt><trkpt lat="44.214540415999025" lon="11.532696557465057"><ele>468.0</ele><time>2026-04-30T11:37:29Z</time></trkpt><trkpt lat="44.21463396935753" lon="11.532565732507885"><ele>464.5</ele><time>2026-04-30T11:37:30Z</time></trkpt><trkpt lat="44.21469070828364" lon="11.532432008033176"><ele>461.0</ele><time>2026-04-30T11:37:31Z</time></trkpt><trkpt lat="44.2146990339825" lon="11.532290085375228"><ele>461.0</ele><time>2026-04-30T11:37:32Z</time></trkpt><trkpt lat="44.21468836270941" lon="11.532132429815217"><ele>461.0</ele><time>2026-04-30T11:37:33Z</time></trkpt><trkpt lat="44.21469748627572" lon="11.5319748421066"><ele>461.0</ele><time>2026-04-30T11:37:34Z</time></trkpt><trkpt lat="44.214736678938884" lon="11.531843259861654"><ele>461.0</ele><time>2026-04-30T11:37:35Z</time></trkpt><trkpt lat="44.21479537978565" lon="11.53173149575449"><ele>461.0</ele><time>2026-04-30T11:37:36Z</time></trkpt><trkpt lat="44.214863631744116" lon="11.531621428441516"><ele>463.99999999999994</ele><time>2026-04-30T11:37:37Z</time></trkpt><trkpt lat="44.21493323538789" lon="11.531518804728485"><ele>467.0</ele><time>2026-04-30T11:37:38Z</time></trkpt><trkpt lat="44.214991076573405" lon="11.531446717421932"><ele>470.0</ele><time>2026-04-30T11:37:39Z</time></trkpt><trkpt lat="44.215046603268306" lon="11.531400154055822"><ele>473.0</ele><time>2026-04-30T11:37:40Z</time></trkpt><trkpt lat="44.21510781691551" lon="11.531350564477865"><ele>475.99999999999994</ele><time>2026-04-30T11:37:41Z</time></trkpt><trkpt lat="44.2151552196704" lon="11.531271280722155"><ele>479.0</ele><time>2026-04-30T11:37:42Z</time></trkpt><trkpt lat="44.215193784893195" lon="11.531163203937288"><ele>479.0</ele><time>2026-04-30T11:37:43Z</time></trkpt><trkpt lat="44.21522808604166" lon="11.53104172727146"><ele>479.0</ele><time>2026-04-30T11:37:44Z</time></trkpt><trkpt lat="44.21527334521392" lon="11.530906065948503"><ele>479.0</ele><time>2026-04-30T11:37:45Z</time></trkpt><trkpt lat="44.21531842140046" lon="11.530748025819529"><ele>479.0</ele><time>2026-04-30T11:37:46Z</time></trkpt><trkpt lat="44.21534603770385" lon="11.530575615993683"><ele>479.0</ele><time>2026-04-30T11:37:47Z</time></trkpt><trkpt lat="44.21536608210161" lon="11.530406615514526"><ele>477.66666666666663</ele><time>2026-04-30T11:37:48Z</time></trkpt><trkpt lat="44.21537392664102" lon="11.530252563680177"><ele>476.3333333333333</ele><time>2026-04-30T11:37:49Z</time></trkpt><trkpt lat="44.215384364959135" lon="11.53013164332348"><ele>475.0</ele><time>2026-04-30T11:37:50Z</time></trkpt><trkpt lat="44.21541264390151" lon="11.530049630362134"><ele>473.66666666666663</ele><time>2026-04-30T11:37:51Z</time></trkpt><trkpt lat="44.21547005094749" lon="11.530002867535066"><ele>472.3333333333333</ele><time>2026-04-30T11:37:52Z</time></trkpt><trkpt lat="44.215560213495365" lon="11.529969685239092"><ele>471.0</ele><time>2026-04-30T11:37:53Z</time></trkpt><trkpt lat="44.21565860846213" lon="11.529946009673989"><ele>471.0</ele><time>2026-04-30T11:37:54Z</time></trkpt><trkpt lat="44.215736601314944" lon="11.529889615019977"><ele>471.0</ele><time>2026-04-30T11:37:55Z</time></trkpt><trkpt lat="44.21579539276547" lon="11.529793218827459"><ele>471.0</ele><time>2026-04-30T11:37:56Z</time></trkpt><trkpt lat="44.21583581597531" lon="11.529684380742202"><ele>471.0</ele><time>2026-04-30T11:37:57Z</time></trkpt><trkpt lat="44.21586419740645" lon="11.529572037185101"><ele>471.0</ele><time>2026-04-30T11:37:58Z</time></trkpt><trkpt lat="44.21588376569703" lon="11.529430567203104"><ele>468.6</ele><time>2026-04-30T11:37:59Z</time></trkpt><trkpt lat="44.21592048575526" lon="11.529323647113316"><ele>466.20000000000005</ele><time>2026-04-30T11:38:00Z</time></trkpt><trkpt lat="44.21595754123274" lon="11.529196848307645"><ele>463.79999999999995</ele><time>2026-04-30T11:38:01Z</time></trkpt><trkpt lat="44.21597145811303" lon="11.529059296063114"><ele>461.4</ele><time>2026-04-30T11:38:02Z</time></trkpt><trkpt lat="44.21596641492098" lon="11.528920241920275"><ele>459.0</ele><time>2026-04-30T11:38:03Z</time></trkpt><trkpt lat="44.21596685351855" lon="11.528791740560013"><ele>456.6666666666667</ele><time>2026-04-30T11:38:04Z</time></trkpt><trkpt lat="44.215987739819305" lon="11.528684943234389"><ele>454.33333333333337</ele><time>2026-04-30T11:38:05Z</time></trkpt><trkpt lat="44.21604336479289" lon="11.528603979218989"><ele>452.0</ele><time>2026-04-30T11:38:06Z</time></trkpt><trkpt lat="44.21613767641028" lon="11.528534467756703"><ele>449.6666666666667</ele><time>2026-04-30T11:38:07Z</time></trkpt><trkpt lat="44.216225966858" lon="11.528472100376247"><ele>447.33333333333337</ele><time>2026-04-30T11:38:08Z</time></trkpt><trkpt lat="44.21627735134596" lon="11.528401914500801"><ele>445.0</ele><time>2026-04-30T11:38:09Z</time></trkpt><trkpt lat="44.21630264451996" lon="11.528312172383405"><ele>445.0</ele><time>2026-04-30T11:38:10Z</time></trkpt><trkpt lat="44.216301651112204" lon="11.52819828839011"><ele>445.0</ele><time>2026-04-30T11:38:11Z</time></trkpt><trkpt lat="44.21629570684121" lon="11.528051310578444"><ele>445.0</ele><time>2026-04-30T11:38:12Z</time></trkpt><trkpt lat="44.21629570033785" lon="11.52791100215762"><ele>445.0</ele><time>2026-04-30T11:38:13Z</time></trkpt><trkpt lat="44.21631228453089" lon="11.527780692336929"><ele>445.0</ele><time>2026-04-30T11:38:14Z</time></trkpt><trkpt lat="44.21632007109746" lon="11.527644479760122"><ele>442.8</ele><time>2026-04-30T11:38:15Z</time></trkpt><trkpt lat="44.21633237838165" lon="11.5275039022779"><ele>440.6</ele><time>2026-04-30T11:38:16Z</time></trkpt><trkpt lat="44.21635945883756" lon="11.527377150824988"><ele>438.4</ele><time>2026-04-30T11:38:17Z</time></trkpt><trkpt lat="44.216408843447454" lon="11.527258349753858"><ele>436.2</ele><time>2026-04-30T11:38:18Z</time></trkpt><trkpt lat="44.21646059949164" lon="11.527123547686758"><ele>434.0</ele><time>2026-04-30T11:38:19Z</time></trkpt><trkpt lat="44.21649779346811" lon="11.526974943118887"><ele>433.4</ele><time>2026-04-30T11:38:20Z</time></trkpt><trkpt lat="44.2165113617281" lon="11.526825659572776"><ele>432.79999999999995</ele><time>2026-04-30T11:38:21Z</time></trkpt><trkpt lat="44.21648329699118" lon="11.526663703292842"><ele>432.20000000000005</ele><time>2026-04-30T11:38:22Z</time></trkpt><trkpt lat="44.21643796216183" lon="11.526511615798977"><ele>431.6</ele><time>2026-04-30T11:38:23Z</time></trkpt><trkpt lat="44.21641567088703" lon="11.526391276305628"><ele>431.0</ele><time>2026-04-30T11:38:24Z</time></trkpt><trkpt lat="44.21645209482039" lon="11.52629771510453"><ele>438.25</ele><time>2026-04-30T11:38:25Z</time></trkpt><trkpt lat="44.21652585322743" lon="11.526192829835416"><ele>445.5</ele><time>2026-04-30T11:38:26Z</time></trkpt><trkpt lat="44.21661718016129" lon="11.526077831676767"><ele>452.75</ele><time>2026-04-30T11:38:27Z</time></trkpt><trkpt lat="44.21669950308456" lon="11.52594542817483"><ele>460.0</ele><time>2026-04-30T11:38:28Z</time></trkpt><trkpt lat="44.21673813755125" lon="11.525823476305927"><ele>460.0</ele><time>2026-04-30T11:38:29Z</time></trkpt><trkpt lat="44.21674546032275" lon="11.52569176464755"><ele>460.0</ele><time>2026-04-30T11:38:30Z</time></trkpt><trkpt lat="44.216755393726146" lon="11.52552974146368"><ele>460.0</ele><time>2026-04-30T11:38:31Z</time></trkpt><trkpt lat="44.21679624438867" lon="11.525349298253582"><ele>460.0</ele><time>2026-04-30T11:38:32Z</time></trkpt><trkpt lat="44.216865843407454" lon="11.525183141655518"><ele>462.25</ele><time>2026-04-30T11:38:33Z</time></trkpt><trkpt lat="44.21692683553953" lon="11.525051438698876"><ele>464.5</ele><time>2026-04-30T11:38:34Z</time></trkpt><trkpt lat="44.21694701294282" lon="11.524911530039779"><ele>466.75</ele><time>2026-04-30T11:38:35Z</time></trkpt><trkpt lat="44.216930136298146" lon="11.524748087444543"><ele>469.0</ele><time>2026-04-30T11:38:36Z</time></trkpt><trkpt lat="44.216898070592116" lon="11.524562639418527"><ele>470.2</ele><time>2026-04-30T11:38:37Z</time></trkpt><trkpt lat="44.21684381032269" lon="11.52438489715272"><ele>471.4</ele><time>2026-04-30T11:38:38Z</time></trkpt><trkpt lat="44.2168017753078" lon="11.524250370809382"><ele>472.6</ele><time>2026-04-30T11:38:39Z</time></trkpt><trkpt lat="44.216765564745614" lon="11.524127513046773"><ele>473.8</ele><time>2026-04-30T11:38:40Z</time></trkpt><trkpt lat="44.216750037723386" lon="11.524016939063532"><ele>475.0</ele><time>2026-04-30T11:38:41Z</time></trkpt><trkpt lat="44.21675224020825" lon="11.523894563127472"><ele>475.00000000000006</ele><time>2026-04-30T11:38:42Z</time></trkpt><trkpt lat="44.21676993857931" lon="11.523781373426608"><ele>475.0</ele><time>2026-04-30T11:38:43Z</time></trkpt><trkpt lat="44.21680270324405" lon="11.523657444371391"><ele>475.0</ele><time>2026-04-30T11:38:44Z</time></trkpt><trkpt lat="44.21683891644815" lon="11.52352718298778"><ele>475.0</ele><time>2026-04-30T11:38:45Z</time></trkpt><trkpt lat="44.21687857281686" lon="11.523420627012284"><ele>475.00000000000006</ele><time>2026-04-30T11:38:46Z</time></trkpt><trkpt lat="44.216916941590505" lon="11.523321751636361"><ele>475.0</ele><time>2026-04-30T11:38:47Z</time></trkpt><trkpt lat="44.21694355161205" lon="11.523219169624047"><ele>475.6</ele><time>2026-04-30T11:38:48Z</time></trkpt><trkpt lat="44.216948857147905" lon="11.52308855033111"><ele>476.2</ele><time>2026-04-30T11:38:49Z</time></trkpt><trkpt lat="44.21693165270445" lon="11.52296213433278"><ele>476.79999999999995</ele><time>2026-04-30T11:38:50Z</time></trkpt><trkpt lat="44.21692715088805" lon="11.522836966565405"><ele>477.4</ele><time>2026-04-30T11:38:51Z</time></trkpt><trkpt lat="44.21693906204798" lon="11.522701526520931"><ele>478.0</ele><time>2026-04-30T11:38:52Z</time></trkpt><trkpt lat="44.216981098841714" lon="11.522588035218417"><ele>478.00000000000006</ele><time>2026-04-30T11:38:53Z</time></trkpt><trkpt lat="44.217039433779384" lon="11.522504962620266"><ele>478.0</ele><time>2026-04-30T11:38:54Z</time></trkpt><trkpt lat="44.217104397585885" lon="11.522423384286231"><ele>478.0</ele><time>2026-04-30T11:38:55Z</time></trkpt><trkpt lat="44.21717743490114" lon="11.522352022272948"><ele>478.0</ele><time>2026-04-30T11:38:56Z</time></trkpt><trkpt lat="44.21723678538341" lon="11.522251670521326"><ele>478.00000000000006</ele><time>2026-04-30T11:38:57Z</time></trkpt><trkpt lat="44.21729573863588" lon="11.52217850448076"><ele>478.0</ele><time>2026-04-30T11:38:58Z</time></trkpt><trkpt lat="44.21738774811234" lon="11.522104879675533"><ele>474.4</ele><time>2026-04-30T11:38:59Z</time></trkpt><trkpt lat="44.217496649457736" lon="11.522055098328925"><ele>470.79999999999995</ele><time>2026-04-30T11:39:00Z</time></trkpt><trkpt lat="44.21759512676243" lon="11.521997486707091"><ele>467.2</ele><time>2026-04-30T11:39:01Z</time></trkpt><trkpt lat="44.2176786853525" lon="11.5219232849963"><ele>463.6</ele><time>2026-04-30T11:39:02Z</time></trkpt><trkpt lat="44.21775893780939" lon="11.52183557692466"><ele>460.0</ele><time>2026-04-30T11:39:03Z</time></trkpt><trkpt lat="44.21784321481917" lon="11.521763587674661"><ele>460.0</ele><time>2026-04-30T11:39:04Z</time></trkpt><trkpt lat="44.21792945023432" lon="11.521708317582908"><ele>460.0</ele><time>2026-04-30T11:39:05Z</time></trkpt><trkpt lat="44.21802083735094" lon="11.52165312336074"><ele>460.0</ele><time>2026-04-30T11:39:06Z</time></trkpt><trkpt lat="44.218120154644026" lon="11.521602281462386"><ele>460.0</ele><time>2026-04-30T11:39:07Z</time></trkpt><trkpt lat="44.2182185467228" lon="11.521564417825697"><ele>460.0</ele><time>2026-04-30T11:39:08Z</time></trkpt><trkpt lat="44.218305563983066" lon="11.521526162526746"><ele>459.1666666666667</ele><time>2026-04-30T11:39:09Z</time></trkpt><trkpt lat="44.21836938036627" lon="11.521497542424573"><ele>458.33333333333337</ele><time>2026-04-30T11:39:10Z</time></trkpt><trkpt lat="44.21842779656011" lon="11.521462201108909"><ele>457.5</ele><time>2026-04-30T11:39:13Z</time></trkpt><trkpt lat="44.21846800565908" lon="11.521381326739327"><ele>456.66666666666663</ele><time>2026-04-30T11:39:17Z</time></trkpt><trkpt lat="44.218500526902304" lon="11.521301529112705"><ele>455.8333333333333</ele><time>2026-04-30T11:39:20Z</time></trkpt><trkpt lat="44.21853084956495" lon="11.52120828219142"><ele>455.0</ele><time>2026-04-30T11:39:23Z</time></trkpt><trkpt lat="44.21858255046504" lon="11.521067267039045"><ele>453.49999999999994</ele><time>2026-04-30T11:39:25Z</time></trkpt><trkpt lat="44.218557867028956" lon="11.520890974101235"><ele>452.0</ele><time>2026-04-30T11:39:27Z</time></trkpt><trkpt lat="44.218551704122646" lon="11.520791832023903"><ele>450.5</ele><time>2026-04-30T11:39:28Z</time></trkpt><trkpt lat="44.21855192613206" lon="11.52069428639944"><ele>449.0</ele><time>2026-04-30T11:39:29Z</time></trkpt><trkpt lat="44.218577493953795" lon="11.52059631222538"><ele>447.49999999999994</ele><time>2026-04-30T11:39:30Z</time></trkpt><trkpt lat="44.21861620069661" lon="11.520519740736955"><ele>446.0</ele><time>2026-04-30T11:39:31Z</time></trkpt><trkpt lat="44.21867128351458" lon="11.520461521132829"><ele>445.99999999999994</ele><time>2026-04-30T11:39:32Z</time></trkpt><trkpt lat="44.21872915632671" lon="11.52040611167198"><ele>446.0</ele><time>2026-04-30T11:39:33Z</time></trkpt><trkpt lat="44.218769470485" lon="11.520326882960624"><ele>446.0</ele><time>2026-04-30T11:39:34Z</time></trkpt><trkpt lat="44.218794337645484" lon="11.520189231883029"><ele>446.0</ele><time>2026-04-30T11:39:36Z</time></trkpt><trkpt lat="44.21880723647024" lon="11.520055866090088"><ele>445.99999999999994</ele><time>2026-04-30T11:39:38Z</time></trkpt><trkpt lat="44.21881740835255" lon="11.519965938872046"><ele>446.0</ele><time>2026-04-30T11:39:40Z</time></trkpt><trkpt lat="44.21888777826232" lon="11.519840993213672"><ele>446.16666666666663</ele><time>2026-04-30T11:39:43Z</time></trkpt><trkpt lat="44.21896645311348" lon="11.519724882713165"><ele>446.3333333333333</ele><time>2026-04-30T11:39:45Z</time></trkpt><trkpt lat="44.21901225798336" lon="11.519660505101255"><ele>446.5</ele><time>2026-04-30T11:39:47Z</time></trkpt><trkpt lat="44.21908362195255" lon="11.519607143688443"><ele>446.66666666666663</ele><time>2026-04-30T11:39:49Z</time></trkpt><trkpt lat="44.21913924201596" lon="11.519500787068354"><ele>446.8333333333333</ele><time>2026-04-30T11:39:51Z</time></trkpt><trkpt lat="44.219159302076434" lon="11.51938527534235"><ele>447.0</ele><time>2026-04-30T11:39:53Z</time></trkpt><trkpt lat="44.219222363790465" lon="11.519255897562015"><ele>445.1666666666667</ele><time>2026-04-30T11:39:55Z</time></trkpt><trkpt lat="44.21924470492705" lon="11.519120288788402"><ele>443.33333333333337</ele><time>2026-04-30T11:39:57Z</time></trkpt><trkpt lat="44.219248926032435" lon="11.519004062763498"><ele>441.5</ele><time>2026-04-30T11:40:00Z</time></trkpt><trkpt lat="44.21930301640081" lon="11.518937050928804"><ele>439.6666666666667</ele><time>2026-04-30T11:40:04Z</time></trkpt><trkpt lat="44.21936154051915" lon="11.51884091135922"><ele>437.83333333333337</ele><time>2026-04-30T11:40:07Z</time></trkpt><trkpt lat="44.219392539255274" lon="11.51876306150476"><ele>436.0</ele><time>2026-04-30T11:40:09Z</time></trkpt><trkpt lat="44.21944447263248" lon="11.518683232779352"><ele>433.00000000000006</ele><time>2026-04-30T11:40:12Z</time></trkpt><trkpt lat="44.21951547954915" lon="11.51862935265741"><ele>430.0</ele><time>2026-04-30T11:40:14Z</time></trkpt><trkpt lat="44.2195862924803" lon="11.518502372478425"><ele>427.0</ele><time>2026-04-30T11:40:17Z</time></trkpt><trkpt lat="44.21962595952005" lon="11.518427266638977"><ele>424.0</ele><time>2026-04-30T11:40:18Z</time></trkpt><trkpt lat="44.21967089742007" lon="11.518342209164135"><ele>421.00000000000006</ele><time>2026-04-30T11:40:19Z</time></trkpt><trkpt lat="44.21971477532221" lon="11.518249009953708"><ele>418.0</ele><time>2026-04-30T11:40:20Z</time></trkpt><trkpt lat="44.21976148208717" lon="11.518146584643949"><ele>418.6666666666667</ele><time>2026-04-30T11:40:21Z</time></trkpt><trkpt lat="44.21981747244087" lon="11.518041480884085"><ele>419.33333333333337</ele><time>2026-04-30T11:40:22Z</time></trkpt><trkpt lat="44.21987565501314" lon="11.517935177791832"><ele>420.0</ele><time>2026-04-30T11:40:23Z</time></trkpt><trkpt lat="44.21991806572169" lon="11.517813773865873"><ele>420.66666666666663</ele><time>2026-04-30T11:40:24Z</time></trkpt><trkpt lat="44.219948303364625" lon="11.517704602904033"><ele>421.3333333333333</ele><time>2026-04-30T11:40:25Z</time></trkpt><trkpt lat="44.21997331669438" lon="11.517611973522074"><ele>422.0</ele><time>2026-04-30T11:40:26Z</time></trkpt><trkpt lat="44.22000154716875" lon="11.517525448481114"><ele>420.3333333333333</ele><time>2026-04-30T11:40:27Z</time></trkpt><trkpt lat="44.2200395624096" lon="11.517436763468599"><ele>418.66666666666663</ele><time>2026-04-30T11:40:28Z</time></trkpt><trkpt lat="44.220088215383235" lon="11.517350630756285"><ele>417.0</ele><time>2026-04-30T11:40:29Z</time></trkpt><trkpt lat="44.2201494826522" lon="11.517288062717887"><ele>415.33333333333337</ele><time>2026-04-30T11:40:30Z</time></trkpt><trkpt lat="44.22022880873138" lon="11.51726214664683"><ele>413.6666666666667</ele><time>2026-04-30T11:40:31Z</time></trkpt><trkpt lat="44.220310145945646" lon="11.517287641144037"><ele>412.0</ele><time>2026-04-30T11:40:32Z</time></trkpt><trkpt lat="44.220385363955" lon="11.517338611727876"><ele>412.00000000000006</ele><time>2026-04-30T11:40:33Z</time></trkpt><trkpt lat="44.22045423506798" lon="11.51740071624327"><ele>412.0</ele><time>2026-04-30T11:40:34Z</time></trkpt><trkpt lat="44.2205070014015" lon="11.517449515047378"><ele>412.0</ele><time>2026-04-30T11:40:35Z</time></trkpt><trkpt lat="44.22059989066744" lon="11.517460699470076"><ele>412.0</ele><time>2026-04-30T11:40:37Z</time></trkpt><trkpt lat="44.22062443787272" lon="11.51734812519964"><ele>412.00000000000006</ele><time>2026-04-30T11:40:39Z</time></trkpt><trkpt lat="44.22058729816473" lon="11.517240694000572"><ele>412.0</ele><time>2026-04-30T11:40:41Z</time></trkpt><trkpt lat="44.220536631413694" lon="11.517120564149064"><ele>409.00000000000006</ele><time>2026-04-30T11:40:43Z</time></trkpt><trkpt lat="44.22050748997235" lon="11.517027583052116"><ele>406.0</ele><time>2026-04-30T11:40:45Z</time></trkpt><trkpt lat="44.22049796246594" lon="11.516903252395247"><ele>403.0</ele><time>2026-04-30T11:40:47Z</time></trkpt><trkpt lat="44.22045484441945" lon="11.516787169368301"><ele>400.0</ele><time>2026-04-30T11:40:49Z</time></trkpt><trkpt lat="44.22038118398568" lon="11.516660556321696"><ele>397.00000000000006</ele><time>2026-04-30T11:40:51Z</time></trkpt><trkpt lat="44.220328670071986" lon="11.516600094419195"><ele>394.0</ele><time>2026-04-30T11:40:52Z</time></trkpt><trkpt lat="44.22023581573397" lon="11.51650295569231"><ele>394.00000000000006</ele><time>2026-04-30T11:40:54Z</time></trkpt><trkpt lat="44.220188371315594" lon="11.516427322132332"><ele>394.0</ele><time>2026-04-30T11:40:56Z</time></trkpt><trkpt lat="44.220137731231056" lon="11.516353400961213"><ele>394.0</ele><time>2026-04-30T11:40:59Z</time></trkpt><trkpt lat="44.220097267246224" lon="11.516243813079411"><ele>394.0</ele><time>2026-04-30T11:41:03Z</time></trkpt><trkpt lat="44.22013885490751" lon="11.516158826521673"><ele>394.00000000000006</ele><time>2026-04-30T11:41:05Z</time></trkpt><trkpt lat="44.220218223691404" lon="11.516127073985666"><ele>394.0</ele><time>2026-04-30T11:41:08Z</time></trkpt><trkpt lat="44.22030202232638" lon="11.516104839061722"><ele>390.2</ele><time>2026-04-30T11:41:13Z</time></trkpt><trkpt lat="44.22033232012845" lon="11.516027283168407"><ele>386.4</ele><time>2026-04-30T11:41:15Z</time></trkpt><trkpt lat="44.220346784845695" lon="11.515861816865852"><ele>382.6</ele><time>2026-04-30T11:41:16Z</time></trkpt><trkpt lat="44.2203115533549" lon="11.515713574899406"><ele>378.8</ele><time>2026-04-30T11:41:17Z</time></trkpt><trkpt lat="44.22022206176753" lon="11.515595738036723"><ele>375.0</ele><time>2026-04-30T11:41:19Z</time></trkpt><trkpt lat="44.22011306969914" lon="11.515625967881483"><ele>375.0</ele><time>2026-04-30T11:41:21Z</time></trkpt><trkpt lat="44.22003687445122" lon="11.515625059544579"><ele>375.0</ele><time>2026-04-30T11:41:22Z</time></trkpt><trkpt lat="44.21999761883669" lon="11.515712055039746"><ele>375.0</ele><time>2026-04-30T11:41:23Z</time></trkpt><trkpt lat="44.21993542506994" lon="11.515756562932843"><ele>375.0</ele><time>2026-04-30T11:41:24Z</time></trkpt><trkpt lat="44.219843643016596" lon="11.515776860900937"><ele>375.0</ele><time>2026-04-30T11:41:26Z</time></trkpt><trkpt lat="44.21976529965931" lon="11.515799453266844"><ele>375.0</ele><time>2026-04-30T11:41:28Z</time></trkpt><trkpt lat="44.21970433741132" lon="11.515759960968353"><ele>375.0</ele><time>2026-04-30T11:41:32Z</time></trkpt><trkpt lat="44.21968739049487" lon="11.515668919656717"><ele>375.0</ele><time>2026-04-30T11:41:36Z</time></trkpt><trkpt lat="44.21975084585242" lon="11.515581294894748"><ele>375.0</ele><time>2026-04-30T11:41:38Z</time></trkpt><trkpt lat="44.219811523039894" lon="11.515556137520816"><ele>375.0</ele><time>2026-04-30T11:41:39Z</time></trkpt><trkpt lat="44.21987605038177" lon="11.515478576860207"><ele>375.0</ele><time>2026-04-30T11:41:41Z</time></trkpt><trkpt lat="44.21991340054277" lon="11.515398432442309"><ele>375.0</ele><time>2026-04-30T11:41:43Z</time></trkpt><trkpt lat="44.219990817921435" lon="11.515281981510784"><ele>371.0</ele><time>2026-04-30T11:41:58Z</time></trkpt><trkpt lat="44.22005105349625" lon="11.5151974622702"><ele>367.0</ele><time>2026-04-30T11:41:59Z</time></trkpt><trkpt lat="44.220124646834705" lon="11.515133141030809"><ele>363.0</ele><time>2026-04-30T11:42:00Z</time></trkpt><trkpt lat="44.22019606048675" lon="11.515056099450398"><ele>359.0</ele><time>2026-04-30T11:42:01Z</time></trkpt><trkpt lat="44.220269869444095" lon="11.515030481368328"><ele>355.0</ele><time>2026-04-30T11:42:02Z</time></trkpt><trkpt lat="44.22035022750056" lon="11.514998432160501"><ele>351.0</ele><time>2026-04-30T11:42:03Z</time></trkpt><trkpt lat="44.22043533528206" lon="11.514988179001024"><ele>351.0</ele><time>2026-04-30T11:42:04Z</time></trkpt><trkpt lat="44.22052510641216" lon="11.514980246702278"><ele>351.0</ele><time>2026-04-30T11:42:05Z</time></trkpt><trkpt lat="44.220598233710334" lon="11.514967473722193"><ele>351.0</ele><time>2026-04-30T11:42:06Z</time></trkpt><trkpt lat="44.22065967432391" lon="11.514945353130411"><ele>351.0</ele><time>2026-04-30T11:42:07Z</time></trkpt><trkpt lat="44.220722655188425" lon="11.51493022758303"><ele>351.0</ele><time>2026-04-30T11:42:08Z</time></trkpt><trkpt lat="44.22080067069121" lon="11.514969422674389"><ele>351.0</ele><time>2026-04-30T11:42:09Z</time></trkpt><trkpt lat="44.22087341675983" lon="11.515022083736623"><ele>351.00000000000006</ele><time>2026-04-30T11:42:10Z</time></trkpt><trkpt lat="44.22095083093863" lon="11.51507414485855"><ele>351.0</ele><time>2026-04-30T11:42:11Z</time></trkpt><trkpt lat="44.22101288335206" lon="11.515108675050305"><ele>351.0</ele><time>2026-04-30T11:42:12Z</time></trkpt><trkpt lat="44.22108145166921" lon="11.515080402236014"><ele>351.0</ele><time>2026-04-30T11:42:14Z</time></trkpt><trkpt lat="44.22112085394904" lon="11.514977231541648"><ele>351.0</ele><time>2026-04-30T11:42:15Z</time></trkpt><trkpt lat="44.221136956884905" lon="11.514880399966078"><ele>351.00000000000006</ele><time>2026-04-30T11:42:16Z</time></trkpt><trkpt lat="44.22110396680306" lon="11.51480334318759"><ele>351.0</ele><time>2026-04-30T11:42:17Z</time></trkpt><trkpt lat="44.220996423086895" lon="11.51472718230145"><ele>351.0</ele><time>2026-04-30T11:42:19Z</time></trkpt><trkpt lat="44.22091416252177" lon="11.514698332481098"><ele>351.0</ele><time>2026-04-30T11:42:20Z</time></trkpt><trkpt lat="44.22081230638423" lon="11.514619287296613"><ele>351.0</ele><time>2026-04-30T11:42:21Z</time></trkpt><trkpt lat="44.22074826660405" lon="11.514528047441702"><ele>351.0</ele><time>2026-04-30T11:42:22Z</time></trkpt><trkpt lat="44.22069266021761" lon="11.514446140678777"><ele>351.0</ele><time>2026-04-30T11:42:23Z</time></trkpt><trkpt lat="44.220645300823485" lon="11.514364116044291"><ele>351.0</ele><time>2026-04-30T11:42:24Z</time></trkpt><trkpt lat="44.220593060834055" lon="11.514296798744287"><ele>346.3333333333333</ele><time>2026-04-30T11:42:26Z</time></trkpt><trkpt lat="44.220499114978104" lon="11.514185836100582"><ele>341.6666666666667</ele><time>2026-04-30T11:42:28Z</time></trkpt><trkpt lat="44.220411016790145" lon="11.514158503592034"><ele>337.0</ele><time>2026-04-30T11:42:30Z</time></trkpt><trkpt lat="44.22035387388758" lon="11.514116879924826"><ele>332.33333333333337</ele><time>2026-04-30T11:42:40Z</time></trkpt><trkpt lat="44.22038735108372" lon="11.514016764702738"><ele>327.6666666666667</ele><time>2026-04-30T11:42:42Z</time></trkpt><trkpt lat="44.22043985057987" lon="11.513964173585622"><ele>323.0</ele><time>2026-04-30T11:42:47Z</time></trkpt><trkpt lat="44.220515901839775" lon="11.513923998860779"><ele>323.0</ele><time>2026-04-30T11:42:50Z</time></trkpt><trkpt lat="44.22060628954144" lon="11.513877164187901"><ele>323.0</ele><time>2026-04-30T11:42:52Z</time></trkpt><trkpt lat="44.22070127240855" lon="11.513882372176557"><ele>323.0</ele><time>2026-04-30T11:42:55Z</time></trkpt><trkpt lat="44.22078759155153" lon="11.513882386779011"><ele>323.0</ele><time>2026-04-30T11:42:57Z</time></trkpt><trkpt lat="44.22089142421724" lon="11.5138949931412"><ele>323.0</ele><time>2026-04-30T11:42:59Z</time></trkpt><trkpt lat="44.22095240354775" lon="11.513863557544939"><ele>323.0</ele><time>2026-04-30T11:43:02Z</time></trkpt><trkpt lat="44.22095699378873" lon="11.51376920529703"><ele>318.4</ele><time>2026-04-30T11:43:08Z</time></trkpt><trkpt lat="44.2209151167488" lon="11.513702711660855"><ele>313.79999999999995</ele><time>2026-04-30T11:43:10Z</time></trkpt><trkpt lat="44.22079671897408" lon="11.513614582649634"><ele>309.2</ele><time>2026-04-30T11:43:12Z</time></trkpt><trkpt lat="44.22073053592145" lon="11.513520851561566"><ele>304.6</ele><time>2026-04-30T11:43:14Z</time></trkpt><trkpt lat="44.220682344825676" lon="11.513425619272073"><ele>300.0</ele><time>2026-04-30T11:43:16Z</time></trkpt><trkpt lat="44.22061477351269" lon="11.51336995038462"><ele>300.0</ele><time>2026-04-30T11:43:18Z</time></trkpt><trkpt lat="44.22055075144353" lon="11.513280893800856"><ele>300.0</ele><time>2026-04-30T11:43:20Z</time></trkpt><trkpt lat="44.2204535372002" lon="11.513206816084374"><ele>300.0</ele><time>2026-04-30T11:43:22Z</time></trkpt><trkpt lat="44.22046874920419" lon="11.513109412458771"><ele>300.0</ele><time>2026-04-30T11:43:24Z</time></trkpt><trkpt lat="44.220506078549235" lon="11.513005869999352"><ele>300.0</ele><time>2026-04-30T11:43:28Z</time></trkpt><trkpt lat="44.220595956703775" lon="11.512983964641023"><ele>300.0</ele><time>2026-04-30T11:43:30Z</time></trkpt><trkpt lat="44.22064427291448" lon="11.512915378044019"><ele>296.6</ele><time>2026-04-30T11:43:32Z</time></trkpt><trkpt lat="44.22078010796626" lon="11.512857364281484"><ele>293.2</ele><time>2026-04-30T11:43:34Z</time></trkpt><trkpt lat="44.22085480195718" lon="11.512814978624826"><ele>289.8</ele><time>2026-04-30T11:43:35Z</time></trkpt><trkpt lat="44.22091710241526" lon="11.51274866442345"><ele>286.4</ele><time>2026-04-30T11:43:37Z</time></trkpt><trkpt lat="44.221007990659906" lon="11.512684735860566"><ele>283.0</ele><time>2026-04-30T11:43:39Z</time></trkpt><trkpt lat="44.22114433569643" lon="11.512644634592853"><ele>283.0</ele><time>2026-04-30T11:43:41Z</time></trkpt><trkpt lat="44.2212438358428" lon="11.51268750558072"><ele>283.0</ele><time>2026-04-30T11:43:43Z</time></trkpt><trkpt lat="44.22128186249638" lon="11.51275981182976"><ele>283.0</ele><time>2026-04-30T11:43:44Z</time></trkpt><trkpt lat="44.221372532245" lon="11.512853775795916"><ele>283.0</ele><time>2026-04-30T11:43:46Z</time></trkpt><trkpt lat="44.22143709309917" lon="11.512927391754188"><ele>283.0</ele><time>2026-04-30T11:43:47Z</time></trkpt><trkpt lat="44.22149821105643" lon="11.512955823670572"><ele>283.0</ele><time>2026-04-30T11:43:48Z</time></trkpt><trkpt lat="44.22160516710077" lon="11.51295736473328"><ele>283.0</ele><time>2026-04-30T11:43:50Z</time></trkpt><trkpt lat="44.22162174693154" lon="11.512861993037742"><ele>283.0</ele><time>2026-04-30T11:43:53Z</time></trkpt><trkpt lat="44.22154841642179" lon="11.512775911702008"><ele>283.0</ele><time>2026-04-30T11:43:55Z</time></trkpt><trkpt lat="44.22149979297924" lon="11.512694246312629"><ele>283.0</ele><time>2026-04-30T11:43:56Z</time></trkpt><trkpt lat="44.22143221781797" lon="11.512587223937794"><ele>283.0</ele><time>2026-04-30T11:43:57Z</time></trkpt><trkpt lat="44.22137299537353" lon="11.512454813954903"><ele>283.0</ele><time>2026-04-30T11:43:58Z</time></trkpt><trkpt lat="44.221343061086536" lon="11.512331977170533"><ele>283.0</ele><time>2026-04-30T11:43:59Z</time></trkpt><trkpt lat="44.221320027341875" lon="11.512209123008713"><ele>283.0</ele><time>2026-04-30T11:44:00Z</time></trkpt><trkpt lat="44.2213141191197" lon="11.512091671770097"><ele>283.0</ele><time>2026-04-30T11:44:01Z</time></trkpt><trkpt lat="44.22132247386385" lon="11.51199362407351"><ele>283.0</ele><time>2026-04-30T11:44:02Z</time></trkpt><trkpt lat="44.221282997586854" lon="11.511883808915554"><ele>283.0</ele><time>2026-04-30T11:44:04Z</time></trkpt><trkpt lat="44.2211481113299" lon="11.51180752802735"><ele>279.5</ele><time>2026-04-30T11:44:06Z</time></trkpt><trkpt lat="44.22108868954586" lon="11.51177467770013"><ele>276.0</ele><time>2026-04-30T11:44:07Z</time></trkpt><trkpt lat="44.22102069921775" lon="11.511761192766786"><ele>272.5</ele><time>2026-04-30T11:44:09Z</time></trkpt><trkpt lat="44.22110729492016" lon="11.511699436395816"><ele>269.0</ele><time>2026-04-30T11:44:13Z</time></trkpt><trkpt lat="44.22119698623693" lon="11.511698755389535"><ele>265.5</ele><time>2026-04-30T11:44:15Z</time></trkpt><trkpt lat="44.221263229016635" lon="11.511711834722512"><ele>262.0</ele><time>2026-04-30T11:44:17Z</time></trkpt><trkpt lat="44.22133926907484" lon="11.511725694542791"><ele>262.0</ele><time>2026-04-30T11:44:19Z</time></trkpt><trkpt lat="44.22142897787013" lon="11.511752836965734"><ele>262.0</ele><time>2026-04-30T11:44:21Z</time></trkpt><trkpt lat="44.22151939083381" lon="11.511723011268716"><ele>262.0</ele><time>2026-04-30T11:44:28Z</time></trkpt><trkpt lat="44.221595332089215" lon="11.511694568154258"><ele>262.0</ele><time>2026-04-30T11:44:30Z</time></trkpt><trkpt lat="44.22167737246196" lon="11.51163061579575"><ele>262.0</ele><time>2026-04-30T11:44:32Z</time></trkpt><trkpt lat="44.22174168995409" lon="11.51152667201311"><ele>261.4</ele><time>2026-04-30T11:44:34Z</time></trkpt><trkpt lat="44.2217918628437" lon="11.511406923166284"><ele>260.79999999999995</ele><time>2026-04-30T11:44:36Z</time></trkpt><trkpt lat="44.221818178516976" lon="11.511285949065737"><ele>260.2</ele><time>2026-04-30T11:44:38Z</time></trkpt><trkpt lat="44.221847692866234" lon="11.511155746656303"><ele>259.59999999999997</ele><time>2026-04-30T11:44:40Z</time></trkpt><trkpt lat="44.2219065426221" lon="11.511023699881278"><ele>259.0</ele><time>2026-04-30T11:44:42Z</time></trkpt><trkpt lat="44.22195218174561" lon="11.510928402575802"><ele>255.49999999999997</ele><time>2026-04-30T11:44:44Z</time></trkpt><trkpt lat="44.22189469942399" lon="11.510888121616386"><ele>252.0</ele><time>2026-04-30T11:44:46Z</time></trkpt><trkpt lat="44.22179834519005" lon="11.510931402664697"><ele>248.5</ele><time>2026-04-30T11:44:48Z</time></trkpt><trkpt lat="44.22170509383333" lon="11.510986581160155"><ele>245.0</ele><time>2026-04-30T11:44:50Z</time></trkpt><trkpt lat="44.22162850261965" lon="11.51098713377772"><ele>241.49999999999997</ele><time>2026-04-30T11:44:52Z</time></trkpt><trkpt lat="44.22155930396635" lon="11.51098402315498"><ele>238.0</ele><time>2026-04-30T11:44:54Z</time></trkpt><trkpt lat="44.221485904515355" lon="11.510961306702066"><ele>238.8</ele><time>2026-04-30T11:44:56Z</time></trkpt><trkpt lat="44.22138323729209" lon="11.51092365383375"><ele>239.60000000000002</ele><time>2026-04-30T11:44:58Z</time></trkpt><trkpt lat="44.221314509896665" lon="11.5108942225728"><ele>240.39999999999998</ele><time>2026-04-30T11:44:59Z</time></trkpt><trkpt lat="44.221245437743256" lon="11.510801597549404"><ele>241.2</ele><time>2026-04-30T11:45:01Z</time></trkpt><trkpt lat="44.221219525568564" lon="11.51068080632354"><ele>242.0</ele><time>2026-04-30T11:45:03Z</time></trkpt><trkpt lat="44.22119236284873" lon="11.510557087696009"><ele>242.0</ele><time>2026-04-30T11:45:05Z</time></trkpt><trkpt lat="44.22116255817171" lon="11.510426700932346"><ele>242.0</ele><time>2026-04-30T11:45:07Z</time></trkpt><trkpt lat="44.22113645905433" lon="11.510258909296937"><ele>242.0</ele><time>2026-04-30T11:45:09Z</time></trkpt><trkpt lat="44.22113970437277" lon="11.510169088978135"><ele>242.0</ele><time>2026-04-30T11:45:10Z</time></trkpt><trkpt lat="44.221143557239145" lon="11.510041152080312"><ele>242.0</ele><time>2026-04-30T11:45:12Z</time></trkpt><trkpt lat="44.221071036791955" lon="11.509934219180757"><ele>239.33333333333334</ele><time>2026-04-30T11:45:15Z</time></trkpt><trkpt lat="44.22100110305391" lon="11.509853254023424"><ele>236.66666666666669</ele><time>2026-04-30T11:45:17Z</time></trkpt><trkpt lat="44.2210311335942" lon="11.50975527439258"><ele>234.0</ele><time>2026-04-30T11:45:20Z</time></trkpt><trkpt lat="44.22102036259652" lon="11.50966829077183"><ele>231.33333333333331</ele><time>2026-04-30T11:45:22Z</time></trkpt><trkpt lat="44.22101892221302" lon="11.509541456452684"><ele>228.66666666666666</ele><time>2026-04-30T11:45:24Z</time></trkpt><trkpt lat="44.2210723060316" lon="11.509413229518087"><ele>226.0</ele><time>2026-04-30T11:45:26Z</time></trkpt><trkpt lat="44.22110525504357" lon="11.50931079487801"><ele>223.5</ele><time>2026-04-30T11:45:28Z</time></trkpt><trkpt lat="44.22112421274725" lon="11.509187598681816"><ele>221.0</ele><time>2026-04-30T11:45:31Z</time></trkpt><trkpt lat="44.22100530723223" lon="11.509075664860031"><ele>218.5</ele><time>2026-04-30T11:45:34Z</time></trkpt><trkpt lat="44.22087947028739" lon="11.508966733955871"><ele>216.0</ele><time>2026-04-30T11:45:36Z</time></trkpt><trkpt lat="44.22079145307218" lon="11.508921346249906"><ele>216.0</ele><time>2026-04-30T11:45:37Z</time></trkpt><trkpt lat="44.22069752080276" lon="11.508875000038609"><ele>216.00000000000003</ele><time>2026-04-30T11:45:38Z</time></trkpt><trkpt lat="44.220618994581876" lon="11.50885802152093"><ele>216.00000000000003</ele><time>2026-04-30T11:45:39Z</time></trkpt><trkpt lat="44.220538613000606" lon="11.50881677045877"><ele>216.0</ele><time>2026-04-30T11:45:40Z</time></trkpt><trkpt lat="44.220448404134515" lon="11.508764884697753"><ele>216.0</ele><time>2026-04-30T11:45:41Z</time></trkpt><trkpt lat="44.22034354154791" lon="11.508723940843518"><ele>214.60000000000002</ele><time>2026-04-30T11:45:42Z</time></trkpt><trkpt lat="44.220237571462256" lon="11.508709525678148"><ele>213.20000000000002</ele><time>2026-04-30T11:45:43Z</time></trkpt><trkpt lat="44.220122263227246" lon="11.508679623341697"><ele>211.8</ele><time>2026-04-30T11:45:44Z</time></trkpt><trkpt lat="44.2200249080106" lon="11.508669655038084"><ele>210.39999999999998</ele><time>2026-04-30T11:45:45Z</time></trkpt><trkpt lat="44.219924678933246" lon="11.508650775193802"><ele>209.0</ele><time>2026-04-30T11:45:46Z</time></trkpt><trkpt lat="44.2198271489372" lon="11.508620151812021"><ele>208.0</ele><time>2026-04-30T11:45:47Z</time></trkpt><trkpt lat="44.21973733838736" lon="11.508571068026594"><ele>207.0</ele><time>2026-04-30T11:45:48Z</time></trkpt><trkpt lat="44.21962439070662" lon="11.508502128473964"><ele>206.0</ele><time>2026-04-30T11:45:49Z</time></trkpt><trkpt lat="44.219548772176935" lon="11.508458890463055"><ele>205.0</ele><time>2026-04-30T11:45:50Z</time></trkpt><trkpt lat="44.21944310451323" lon="11.50839854667417"><ele>204.0</ele><time>2026-04-30T11:45:51Z</time></trkpt><trkpt lat="44.219331761885456" lon="11.50835470465135"><ele>204.0</ele><time>2026-04-30T11:45:52Z</time></trkpt><trkpt lat="44.21922520276498" lon="11.508297595453591"><ele>204.0</ele><time>2026-04-30T11:45:53Z</time></trkpt><trkpt lat="44.21911009179786" lon="11.508254800563709"><ele>204.0</ele><time>2026-04-30T11:45:54Z</time></trkpt><trkpt lat="44.218980808459456" lon="11.508265106504949"><ele>204.0</ele><time>2026-04-30T11:45:55Z</time></trkpt><trkpt lat="44.218855594067925" lon="11.508262148825581"><ele>200.75</ele><time>2026-04-30T11:45:56Z</time></trkpt><trkpt lat="44.218714722151255" lon="11.50824740037572"><ele>197.5</ele><time>2026-04-30T11:45:57Z</time></trkpt><trkpt lat="44.21857427769829" lon="11.508223235064511"><ele>194.25</ele><time>2026-04-30T11:45:58Z</time></trkpt><trkpt lat="44.21843726209594" lon="11.508175563425878"><ele>191.0</ele><time>2026-04-30T11:45:59Z</time></trkpt><trkpt lat="44.21829844097926" lon="11.50813477221143"><ele>191.0</ele><time>2026-04-30T11:46:00Z</time></trkpt><trkpt lat="44.218174171849626" lon="11.508051048162622"><ele>191.0</ele><time>2026-04-30T11:46:01Z</time></trkpt><trkpt lat="44.2180604938686" lon="11.507991573170667"><ele>191.0</ele><time>2026-04-30T11:46:02Z</time></trkpt><trkpt lat="44.21795290520129" lon="11.507976970685466"><ele>191.0</ele><time>2026-04-30T11:46:03Z</time></trkpt><trkpt lat="44.217862098097676" lon="11.50794457671011"><ele>188.25</ele><time>2026-04-30T11:46:04Z</time></trkpt><trkpt lat="44.217774569820925" lon="11.507869896309055"><ele>185.5</ele><time>2026-04-30T11:46:05Z</time></trkpt><trkpt lat="44.21770280012085" lon="11.507754643982084"><ele>182.75</ele><time>2026-04-30T11:46:06Z</time></trkpt><trkpt lat="44.217629855673835" lon="11.507606117576545"><ele>180.0</ele><time>2026-04-30T11:46:07Z</time></trkpt><trkpt lat="44.217555451546495" lon="11.507478213391812"><ele>180.0</ele><time>2026-04-30T11:46:08Z</time></trkpt><trkpt lat="44.21747188615803" lon="11.507350522560804"><ele>180.0</ele><time>2026-04-30T11:46:09Z</time></trkpt><trkpt lat="44.21740018581032" lon="11.507224700156929"><ele>180.0</ele><time>2026-04-30T11:46:10Z</time></trkpt><trkpt lat="44.21731516956016" lon="11.507102645685682"><ele>180.0</ele><time>2026-04-30T11:46:11Z</time></trkpt><trkpt lat="44.217236699048556" lon="11.506990153388655"><ele>179.0</ele><time>2026-04-30T11:46:12Z</time></trkpt><trkpt lat="44.21715461336087" lon="11.506897815727456"><ele>178.0</ele><time>2026-04-30T11:46:13Z</time></trkpt><trkpt lat="44.217061901959646" lon="11.506821702952724"><ele>177.0</ele><time>2026-04-30T11:46:14Z</time></trkpt><trkpt lat="44.216970915824184" lon="11.506758258133125"><ele>176.0</ele><time>2026-04-30T11:46:15Z</time></trkpt><trkpt lat="44.21689197774602" lon="11.506717572460763"><ele>175.0</ele><time>2026-04-30T11:46:16Z</time></trkpt><trkpt lat="44.216794626907145" lon="11.50668947013748"><ele>175.0</ele><time>2026-04-30T11:46:17Z</time></trkpt><trkpt lat="44.21668988033124" lon="11.506662437765616"><ele>175.0</ele><time>2026-04-30T11:46:18Z</time></trkpt><trkpt lat="44.216574047624135" lon="11.506654405731224"><ele>175.0</ele><time>2026-04-30T11:46:19Z</time></trkpt><trkpt lat="44.21646417484865" lon="11.506649558429356"><ele>175.0</ele><time>2026-04-30T11:46:20Z</time></trkpt><trkpt lat="44.216367060368924" lon="11.506643672621061"><ele>175.0</ele><time>2026-04-30T11:46:21Z</time></trkpt><trkpt lat="44.21630377170518" lon="11.506529086648452"><ele>175.4</ele><time>2026-04-30T11:46:22Z</time></trkpt><trkpt lat="44.216211185375656" lon="11.506476047889457"><ele>175.8</ele><time>2026-04-30T11:46:23Z</time></trkpt><trkpt lat="44.216102500840954" lon="11.506412513273036"><ele>176.2</ele><time>2026-04-30T11:46:24Z</time></trkpt><trkpt lat="44.215974783321805" lon="11.506389144790784"><ele>176.6</ele><time>2026-04-30T11:46:25Z</time></trkpt><trkpt lat="44.21587263968779" lon="11.506392433994817"><ele>177.0</ele><time>2026-04-30T11:46:26Z</time></trkpt><trkpt lat="44.21577672788547" lon="11.50641136597624"><ele>177.0</ele><time>2026-04-30T11:46:27Z</time></trkpt><trkpt lat="44.21568897035592" lon="11.506447335617269"><ele>177.0</ele><time>2026-04-30T11:46:28Z</time></trkpt><trkpt lat="44.2155973178186" lon="11.506487516143393"><ele>177.0</ele><time>2026-04-30T11:46:29Z</time></trkpt><trkpt lat="44.215502700183755" lon="11.506553379194383"><ele>177.0</ele><time>2026-04-30T11:46:30Z</time></trkpt><trkpt lat="44.215405873431045" lon="11.506620972772321"><ele>177.0</ele><time>2026-04-30T11:46:31Z</time></trkpt><trkpt lat="44.21532084093407" lon="11.50667450884654"><ele>176.0</ele><time>2026-04-30T11:46:32Z</time></trkpt><trkpt lat="44.215259463129904" lon="11.506704881918541"><ele>175.0</ele><time>2026-04-30T11:46:33Z</time></trkpt><trkpt lat="44.21519966408535" lon="11.506740406681688"><ele>174.0</ele><time>2026-04-30T11:46:34Z</time></trkpt><trkpt lat="44.21511845059052" lon="11.506727329617236"><ele>173.0</ele><time>2026-04-30T11:46:36Z</time></trkpt><trkpt lat="44.215052034878546" lon="11.506664501312967"><ele>172.0</ele><time>2026-04-30T11:46:37Z</time></trkpt><trkpt lat="44.2149838262176" lon="11.50656878560116"><ele>171.0</ele><time>2026-04-30T11:46:38Z</time></trkpt><trkpt lat="44.214922585888644" lon="11.506468536241295"><ele>170.99999999999997</ele><time>2026-04-30T11:46:39Z</time></trkpt><trkpt lat="44.21486175668739" lon="11.506391774082354"><ele>171.0</ele><time>2026-04-30T11:46:40Z</time></trkpt><trkpt lat="44.21481606050283" lon="11.50632827096133"><ele>171.0</ele><time>2026-04-30T11:46:41Z</time></trkpt><trkpt lat="44.214772980903724" lon="11.506263112182463"><ele>171.0</ele><time>2026-04-30T11:46:43Z</time></trkpt><trkpt lat="44.21470612353739" lon="11.506208361163477"><ele>171.0</ele><time>2026-04-30T11:46:52Z</time></trkpt><trkpt lat="44.21464506423318" lon="11.50614691999989"><ele>170.99999999999997</ele><time>2026-04-30T11:46:53Z</time></trkpt><trkpt lat="44.21459013774439" lon="11.506067412254094"><ele>171.0</ele><time>2026-04-30T11:46:54Z</time></trkpt><trkpt lat="44.21453756020733" lon="11.505981678145956"><ele>174.16666666666666</ele><time>2026-04-30T11:46:55Z</time></trkpt><trkpt lat="44.21448592868638" lon="11.50592298775189"><ele>177.33333333333334</ele><time>2026-04-30T11:46:56Z</time></trkpt><trkpt lat="44.21442026369098" lon="11.505879265132094"><ele>180.5</ele><time>2026-04-30T11:46:58Z</time></trkpt><trkpt lat="44.21436624299551" lon="11.506003863240442"><ele>183.66666666666669</ele><time>2026-04-30T11:46:59Z</time></trkpt><trkpt lat="44.214314417196576" lon="11.506094268661764"><ele>186.83333333333334</ele><time>2026-04-30T11:47:00Z</time></trkpt><trkpt lat="44.21425535446416" lon="11.506162688037032"><ele>190.0</ele><time>2026-04-30T11:47:01Z</time></trkpt><trkpt lat="44.2141500664703" lon="11.506211373868556"><ele>190.0</ele><time>2026-04-30T11:47:03Z</time></trkpt><trkpt lat="44.21408368147454" lon="11.506216384018028"><ele>190.0</ele><time>2026-04-30T11:47:04Z</time></trkpt><trkpt lat="44.213973759228246" lon="11.506246073213397"><ele>190.0</ele><time>2026-04-30T11:47:05Z</time></trkpt><trkpt lat="44.21386428159141" lon="11.506329176576527"><ele>190.0</ele><time>2026-04-30T11:47:06Z</time></trkpt><trkpt lat="44.213759288787074" lon="11.50644806264555"><ele>190.0</ele><time>2026-04-30T11:47:07Z</time></trkpt><trkpt lat="44.21364944639922" lon="11.506553064193556"><ele>188.5</ele><time>2026-04-30T11:47:08Z</time></trkpt><trkpt lat="44.213513958431776" lon="11.506615692904415"><ele>187.0</ele><time>2026-04-30T11:47:09Z</time></trkpt><trkpt lat="44.213390891166426" lon="11.506636813030033"><ele>185.5</ele><time>2026-04-30T11:47:10Z</time></trkpt><trkpt lat="44.213286969211616" lon="11.506639479508136"><ele>184.0</ele><time>2026-04-30T11:47:11Z</time></trkpt><trkpt lat="44.21321150294864" lon="11.506595164440462"><ele>184.0</ele><time>2026-04-30T11:47:12Z</time></trkpt><trkpt lat="44.213172022909085" lon="11.506512502121526"><ele>184.0</ele><time>2026-04-30T11:47:13Z</time></trkpt><trkpt lat="44.21311001644263" lon="11.506475948768937"><ele>184.0</ele><time>2026-04-30T11:47:15Z</time></trkpt><trkpt lat="44.21310343990699" lon="11.506672018023963"><ele>184.0</ele><time>2026-04-30T11:47:17Z</time></trkpt><trkpt lat="44.213154393254186" lon="11.506783185483535"><ele>184.0</ele><time>2026-04-30T11:47:18Z</time></trkpt><trkpt lat="44.21322364911597" lon="11.506861630372777"><ele>184.0</ele><time>2026-04-30T11:47:19Z</time></trkpt><trkpt lat="44.21330920986815" lon="11.506902137003"><ele>184.0</ele><time>2026-04-30T11:47:20Z</time></trkpt><trkpt lat="44.2134065707227" lon="11.506903352464574"><ele>184.0</ele><time>2026-04-30T11:47:21Z</time></trkpt><trkpt lat="44.21349991267704" lon="11.506889049485467"><ele>184.0</ele><time>2026-04-30T11:47:22Z</time></trkpt><trkpt lat="44.21356423717143" lon="11.50689523324281"><ele>184.0</ele><time>2026-04-30T11:47:23Z</time></trkpt><trkpt lat="44.21361681222273" lon="11.506996318982232"><ele>184.0</ele><time>2026-04-30T11:47:25Z</time></trkpt><trkpt lat="44.213597868102106" lon="11.507091939310515"><ele>182.33333333333334</ele><time>2026-04-30T11:47:26Z</time></trkpt><trkpt lat="44.213543583693415" lon="11.507197471005227"><ele>180.66666666666669</ele><time>2026-04-30T11:47:27Z</time></trkpt><trkpt lat="44.21351849862136" lon="11.507303656510267"><ele>179.0</ele><time>2026-04-30T11:47:28Z</time></trkpt><trkpt lat="44.21356876016865" lon="11.507422913561399"><ele>177.33333333333334</ele><time>2026-04-30T11:47:30Z</time></trkpt><trkpt lat="44.21366965897809" lon="11.50740459269362"><ele>175.66666666666666</ele><time>2026-04-30T11:47:38Z</time></trkpt><trkpt lat="44.21373584476594" lon="11.50738068542474"><ele>174.0</ele><time>2026-04-30T11:47:40Z</time></trkpt><trkpt lat="44.21380576118135" lon="11.507343325723715"><ele>174.0</ele><time>2026-04-30T11:47:42Z</time></trkpt><trkpt lat="44.21386740636864" lon="11.50730456600694"><ele>174.0</ele><time>2026-04-30T11:47:51Z</time></trkpt><trkpt lat="44.2138125555064" lon="11.507218007249218"><ele>174.0</ele><time>2026-04-30T11:47:54Z</time></trkpt><trkpt lat="44.213830942883234" lon="11.507309907396149"><ele>174.0</ele><time>2026-04-30T11:49:07Z</time></trkpt><trkpt lat="44.21384010217033" lon="11.507218288093098"><ele>174.0</ele><time>2026-04-30T11:49:26Z</time></trkpt><trkpt lat="44.21382351057641" lon="11.507132517440787"><ele>174.0</ele><time>2026-04-30T11:49:35Z</time></trkpt><trkpt lat="44.21380861345314" lon="11.50704676851311"><ele>174.0</ele><time>2026-04-30T11:49:44Z</time></trkpt><trkpt lat="44.213862266765986" lon="11.50699572267996"><ele>174.0</ele><time>2026-04-30T12:57:11Z</time></trkpt><trkpt lat="44.213837350864004" lon="11.506906549296502"><ele>174.0</ele><time>2026-04-30T12:57:17Z</time></trkpt><trkpt lat="44.213891388875474" lon="11.506957698639683"><ele>174.0</ele><time>2026-04-30T12:58:38Z</time></trkpt><trkpt lat="44.21390080087751" lon="11.507048046076202"><ele>174.0</ele><time>2026-04-30T12:58:45Z</time></trkpt><trkpt lat="44.21385882892836" lon="11.507124657623422"><ele>174.0</ele><time>2026-04-30T12:58:51Z</time></trkpt><trkpt lat="44.21380750294163" lon="11.507188746895801"><ele>174.0</ele><time>2026-04-30T12:59:08Z</time></trkpt><trkpt lat="44.21389129541467" lon="11.507140533016342"><ele>174.0</ele><time>2026-04-30T13:00:56Z</time></trkpt><trkpt lat="44.21395836749934" lon="11.507140953843695"><ele>174.0</ele><time>2026-04-30T13:00:59Z</time></trkpt><trkpt lat="44.21388994516852" lon="11.50714425067401"><ele>174.0</ele><time>2026-04-30T13:01:08Z</time></trkpt><trkpt lat="44.2138344175849" lon="11.507267147069854"><ele>174.0</ele><time>2026-04-30T13:01:10Z</time></trkpt><trkpt lat="44.21378294717214" lon="11.507378484180423"><ele>174.0</ele><time>2026-04-30T13:01:12Z</time></trkpt><trkpt lat="44.21373944898153" lon="11.507469424202993"><ele>174.0</ele><time>2026-04-30T13:01:16Z</time></trkpt><trkpt lat="44.21369597414372" lon="11.507539495503794"><ele>174.0</ele><time>2026-04-30T13:05:53Z</time></trkpt><trkpt lat="44.21362538921286" lon="11.507551820725206"><ele>174.0</ele><time>2026-04-30T13:05:56Z</time></trkpt><trkpt lat="44.21355213828946" lon="11.507516635703382"><ele>174.0</ele><time>2026-04-30T13:05:59Z</time></trkpt><trkpt lat="44.21352455938611" lon="11.507432663853017"><ele>174.0</ele><time>2026-04-30T13:06:02Z</time></trkpt><trkpt lat="44.21352659028631" lon="11.507322859319098"><ele>174.0</ele><time>2026-04-30T13:06:06Z</time></trkpt><trkpt lat="44.213602392772884" lon="11.507293634393154"><ele>174.0</ele><time>2026-04-30T13:06:08Z</time></trkpt><trkpt lat="44.21366460527437" lon="11.507330476441526"><ele>174.0</ele><time>2026-04-30T13:06:10Z</time></trkpt><trkpt lat="44.21374227710488" lon="11.507275988498122"><ele>174.0</ele><time>2026-04-30T13:06:13Z</time></trkpt><trkpt lat="44.213803532015504" lon="11.507212273299714"><ele>174.0</ele><time>2026-04-30T13:09:13Z</time></trkpt><trkpt lat="44.213840172812134" lon="11.507291001645235"><ele>174.0</ele><time>2026-04-30T13:09:15Z</time></trkpt><trkpt lat="44.21377016123093" lon="11.507379288050302"><ele>174.0</ele><time>2026-04-30T13:09:17Z</time></trkpt><trkpt lat="44.21370612981102" lon="11.507385033299338"><ele>174.0</ele><time>2026-04-30T13:09:18Z</time></trkpt><trkpt lat="44.213599573298374" lon="11.50734148204275"><ele>174.0</ele><time>2026-04-30T13:09:20Z</time></trkpt><trkpt lat="44.21351644219031" lon="11.507290932148276"><ele>174.0</ele><time>2026-04-30T13:09:23Z</time></trkpt><trkpt lat="44.213547149297106" lon="11.507196946713107"><ele>174.0</ele><time>2026-04-30T13:09:25Z</time></trkpt><trkpt lat="44.21361304228789" lon="11.507100209152034"><ele>174.0</ele><time>2026-04-30T13:09:27Z</time></trkpt><trkpt lat="44.21362370970299" lon="11.506968584548087"><ele>174.0</ele><time>2026-04-30T13:09:29Z</time></trkpt><trkpt lat="44.21356162427684" lon="11.506864902025386"><ele>174.0</ele><time>2026-04-30T13:09:31Z</time></trkpt><trkpt lat="44.21345496469763" lon="11.506891730238136"><ele>176.0</ele><time>2026-04-30T13:09:33Z</time></trkpt><trkpt lat="44.213361393947096" lon="11.506901538640147"><ele>178.0</ele><time>2026-04-30T13:09:35Z</time></trkpt><trkpt lat="44.213250139455134" lon="11.506869987381013"><ele>180.0</ele><time>2026-04-30T13:09:37Z</time></trkpt><trkpt lat="44.21317283479415" lon="11.50678073548281"><ele>182.0</ele><time>2026-04-30T13:09:39Z</time></trkpt><trkpt lat="44.21311260649773" lon="11.506642662216391"><ele>184.0</ele><time>2026-04-30T13:09:41Z</time></trkpt><trkpt lat="44.21311029111411" lon="11.506486441918803"><ele>184.0</ele><time>2026-04-30T13:09:43Z</time></trkpt><trkpt lat="44.21314763175501" lon="11.506412140017119"><ele>184.0</ele><time>2026-04-30T13:09:45Z</time></trkpt><trkpt lat="44.21321948021039" lon="11.506412331629637"><ele>184.0</ele><time>2026-04-30T13:09:49Z</time></trkpt><trkpt lat="44.21327969691879" lon="11.506485399331389"><ele>184.0</ele><time>2026-04-30T13:09:52Z</time></trkpt><trkpt lat="44.213364025323564" lon="11.506424841054274"><ele>184.0</ele><time>2026-04-30T13:10:05Z</time></trkpt><trkpt lat="44.213374036223996" lon="11.506324936596988"><ele>184.0</ele><time>2026-04-30T13:10:06Z</time></trkpt><trkpt lat="44.21340040199957" lon="11.506243378090968"><ele>184.0</ele><time>2026-04-30T13:10:07Z</time></trkpt><trkpt lat="44.21345792857036" lon="11.506189421119503"><ele>185.2</ele><time>2026-04-30T13:10:08Z</time></trkpt><trkpt lat="44.21355788425004" lon="11.506150191607938"><ele>186.39999999999998</ele><time>2026-04-30T13:10:09Z</time></trkpt><trkpt lat="44.213661179219216" lon="11.506103136191212"><ele>187.6</ele><time>2026-04-30T13:10:10Z</time></trkpt><trkpt lat="44.21377508791225" lon="11.506060717634753"><ele>188.8</ele><time>2026-04-30T13:10:11Z</time></trkpt><trkpt lat="44.21388957426333" lon="11.506017027228864"><ele>190.0</ele><time>2026-04-30T13:10:12Z</time></trkpt><trkpt lat="44.21399529922163" lon="11.505976586030823"><ele>190.0</ele><time>2026-04-30T13:10:13Z</time></trkpt><trkpt lat="44.21410490966876" lon="11.505925475389496"><ele>190.0</ele><time>2026-04-30T13:10:14Z</time></trkpt><trkpt lat="44.214186504090705" lon="11.505870651934321"><ele>190.0</ele><time>2026-04-30T13:10:15Z</time></trkpt><trkpt lat="44.21424326337271" lon="11.505814007646347"><ele>190.0</ele><time>2026-04-30T13:10:16Z</time></trkpt><trkpt lat="44.21428846327876" lon="11.505743147917654"><ele>190.0</ele><time>2026-04-30T13:10:17Z</time></trkpt><trkpt lat="44.21430748510498" lon="11.505635306925386"><ele>190.0</ele><time>2026-04-30T13:10:18Z</time></trkpt><trkpt lat="44.214309383249784" lon="11.505512782000645"><ele>192.5</ele><time>2026-04-30T13:10:19Z</time></trkpt><trkpt lat="44.21429203181341" lon="11.505392671560928"><ele>195.0</ele><time>2026-04-30T13:10:20Z</time></trkpt><trkpt lat="44.21426770421497" lon="11.505277053442363"><ele>197.5</ele><time>2026-04-30T13:10:21Z</time></trkpt><trkpt lat="44.21424700473549" lon="11.505172454616098"><ele>200.0</ele><time>2026-04-30T13:10:22Z</time></trkpt><trkpt lat="44.21422927776746" lon="11.50507247017203"><ele>202.49999999999997</ele><time>2026-04-30T13:10:23Z</time></trkpt><trkpt lat="44.214229219646946" lon="11.504907962569318"><ele>205.0</ele><time>2026-04-30T13:10:25Z</time></trkpt><trkpt lat="44.214268094661826" lon="11.504825256541638"><ele>204.99999999999997</ele><time>2026-04-30T13:10:26Z</time></trkpt><trkpt lat="44.214341399226434" lon="11.504757155095287"><ele>205.0</ele><time>2026-04-30T13:10:27Z</time></trkpt><trkpt lat="44.21443276160254" lon="11.504713353364755"><ele>205.0</ele><time>2026-04-30T13:10:28Z</time></trkpt><trkpt lat="44.214526319318196" lon="11.504693028069571"><ele>205.0</ele><time>2026-04-30T13:10:29Z</time></trkpt><trkpt lat="44.214601425326364" lon="11.504671455812636"><ele>204.99999999999997</ele><time>2026-04-30T13:10:30Z</time></trkpt><trkpt lat="44.2146805558678" lon="11.504655502021766"><ele>205.0</ele><time>2026-04-30T13:10:31Z</time></trkpt><trkpt lat="44.21476520434532" lon="11.50467216576007"><ele>203.85714285714286</ele><time>2026-04-30T13:10:32Z</time></trkpt><trkpt lat="44.214849379289944" lon="11.504707358621229"><ele>202.7142857142857</ele><time>2026-04-30T13:10:33Z</time></trkpt><trkpt lat="44.214910517559254" lon="11.504745793567691"><ele>201.57142857142856</ele><time>2026-04-30T13:10:34Z</time></trkpt><trkpt lat="44.21496913668788" lon="11.504781552446232"><ele>200.42857142857144</ele><time>2026-04-30T13:10:35Z</time></trkpt><trkpt lat="44.21503357744886" lon="11.504821451169148"><ele>199.28571428571428</ele><time>2026-04-30T13:10:36Z</time></trkpt><trkpt lat="44.21510745156629" lon="11.504844755676384"><ele>198.14285714285714</ele><time>2026-04-30T13:10:37Z</time></trkpt><trkpt lat="44.2151775677677" lon="11.50484816709957"><ele>197.0</ele><time>2026-04-30T13:10:38Z</time></trkpt><trkpt lat="44.215243891333266" lon="11.504846295789957"><ele>197.00000000000003</ele><time>2026-04-30T13:10:39Z</time></trkpt><trkpt lat="44.21531260333149" lon="11.504816681248343"><ele>197.0</ele><time>2026-04-30T13:10:40Z</time></trkpt><trkpt lat="44.2153789062224" lon="11.504743944825325"><ele>197.0</ele><time>2026-04-30T13:10:41Z</time></trkpt><trkpt lat="44.21543522627998" lon="11.504661994646488"><ele>197.0</ele><time>2026-04-30T13:10:42Z</time></trkpt><trkpt lat="44.2155097092887" lon="11.50461090770236"><ele>197.00000000000003</ele><time>2026-04-30T13:10:43Z</time></trkpt><trkpt lat="44.21559049649028" lon="11.504592215238858"><ele>197.0</ele><time>2026-04-30T13:10:44Z</time></trkpt><trkpt lat="44.215690570992045" lon="11.50459671819778"><ele>197.33333333333334</ele><time>2026-04-30T13:10:45Z</time></trkpt><trkpt lat="44.21578777380472" lon="11.504630436078454"><ele>197.66666666666669</ele><time>2026-04-30T13:10:46Z</time></trkpt><trkpt lat="44.215870347121665" lon="11.50465880835241"><ele>198.0</ele><time>2026-04-30T13:10:47Z</time></trkpt><trkpt lat="44.21594004916582" lon="11.504664536040805"><ele>198.33333333333331</ele><time>2026-04-30T13:10:48Z</time></trkpt><trkpt lat="44.21601972726101" lon="11.504648407040923"><ele>198.66666666666666</ele><time>2026-04-30T13:10:50Z</time></trkpt><trkpt lat="44.21608734410851" lon="11.504678404561789"><ele>199.0</ele><time>2026-04-30T13:10:52Z</time></trkpt><trkpt lat="44.21618500163767" lon="11.504707716716608"><ele>198.99999999999997</ele><time>2026-04-30T13:10:54Z</time></trkpt><trkpt lat="44.21622893624341" lon="11.504642743585924"><ele>199.0</ele><time>2026-04-30T13:10:56Z</time></trkpt><trkpt lat="44.2161861847505" lon="11.504544245411827"><ele>199.0</ele><time>2026-04-30T13:10:58Z</time></trkpt><trkpt lat="44.21612599863712" lon="11.504501163655473"><ele>199.0</ele><time>2026-04-30T13:10:59Z</time></trkpt><trkpt lat="44.216062200436575" lon="11.504471906696704"><ele>199.0</ele><time>2026-04-30T13:11:00Z</time></trkpt><trkpt lat="44.21599469596142" lon="11.504444838228084"><ele>198.99999999999997</ele><time>2026-04-30T13:11:01Z</time></trkpt><trkpt lat="44.21591011481626" lon="11.504415732682505"><ele>199.0</ele><time>2026-04-30T13:11:02Z</time></trkpt><trkpt lat="44.21582299311164" lon="11.50439068330994"><ele>201.6</ele><time>2026-04-30T13:11:03Z</time></trkpt><trkpt lat="44.2157293449644" lon="11.504357846241472"><ele>204.2</ele><time>2026-04-30T13:11:04Z</time></trkpt><trkpt lat="44.21562207014771" lon="11.504320456845775"><ele>206.79999999999998</ele><time>2026-04-30T13:11:05Z</time></trkpt><trkpt lat="44.21551002643249" lon="11.504283334981118"><ele>209.39999999999998</ele><time>2026-04-30T13:11:06Z</time></trkpt><trkpt lat="44.21539024532112" lon="11.504259716042696"><ele>212.0</ele><time>2026-04-30T13:11:07Z</time></trkpt><trkpt lat="44.21528607606788" lon="11.504259373136955"><ele>212.66666666666669</ele><time>2026-04-30T13:11:08Z</time></trkpt><trkpt lat="44.21518953581896" lon="11.504267676726212"><ele>213.33333333333334</ele><time>2026-04-30T13:11:09Z</time></trkpt><trkpt lat="44.21510071399871" lon="11.504278995503746"><ele>214.0</ele><time>2026-04-30T13:11:10Z</time></trkpt><trkpt lat="44.21502202918169" lon="11.504290060969996"><ele>214.66666666666669</ele><time>2026-04-30T13:11:11Z</time></trkpt><trkpt lat="44.21495141907034" lon="11.504303255193612"><ele>215.33333333333334</ele><time>2026-04-30T13:11:12Z</time></trkpt><trkpt lat="44.21488424614679" lon="11.504303344646875"><ele>216.0</ele><time>2026-04-30T13:11:13Z</time></trkpt><trkpt lat="44.214768636700505" lon="11.504280983525458"><ele>216.0</ele><time>2026-04-30T13:11:15Z</time></trkpt><trkpt lat="44.21468337755656" lon="11.504224978270482"><ele>216.00000000000003</ele><time>2026-04-30T13:11:17Z</time></trkpt><trkpt lat="44.2146089414283" lon="11.504173013710966"><ele>216.00000000000003</ele><time>2026-04-30T13:11:19Z</time></trkpt><trkpt lat="44.21451598293259" lon="11.504175211462186"><ele>216.0</ele><time>2026-04-30T13:11:22Z</time></trkpt><trkpt lat="44.214438514632306" lon="11.504125706302913"><ele>216.0</ele><time>2026-04-30T13:21:21Z</time></trkpt><trkpt lat="44.21434184136438" lon="11.504132999280225"><ele>216.0</ele><time>2026-04-30T13:21:23Z</time></trkpt><trkpt lat="44.21429540337269" lon="11.504197778898513"><ele>216.0</ele><time>2026-04-30T13:21:25Z</time></trkpt><trkpt lat="44.214238973308156" lon="11.50426688819825"><ele>216.0</ele><time>2026-04-30T13:21:29Z</time></trkpt><trkpt lat="44.214165922889805" lon="11.504326439077555"><ele>216.0</ele><time>2026-04-30T13:21:34Z</time></trkpt><trkpt lat="44.21409631495832" lon="11.504366799338493"><ele>216.0</ele><time>2026-04-30T13:21:37Z</time></trkpt><trkpt lat="44.21402399205892" lon="11.50440071771173"><ele>216.0</ele><time>2026-04-30T13:21:46Z</time></trkpt><trkpt lat="44.213966687988375" lon="11.504452327836429"><ele>216.0</ele><time>2026-04-30T13:21:47Z</time></trkpt><trkpt lat="44.21388923029515" lon="11.504491476899926"><ele>215.5</ele><time>2026-04-30T13:21:48Z</time></trkpt><trkpt lat="44.21381449587106" lon="11.504526266794096"><ele>215.0</ele><time>2026-04-30T13:21:49Z</time></trkpt><trkpt lat="44.21373359493831" lon="11.504574645574884"><ele>214.5</ele><time>2026-04-30T13:21:50Z</time></trkpt><trkpt lat="44.213661138975624" lon="11.504617858245773"><ele>214.0</ele><time>2026-04-30T13:21:51Z</time></trkpt><trkpt lat="44.21360160231347" lon="11.504660798232125"><ele>213.5</ele><time>2026-04-30T13:21:52Z</time></trkpt><trkpt lat="44.213533870722664" lon="11.504787895165787"><ele>213.0</ele><time>2026-04-30T13:21:54Z</time></trkpt><trkpt lat="44.213457068071165" lon="11.504858265192897"><ele>213.0</ele><time>2026-04-30T13:21:56Z</time></trkpt><trkpt lat="44.21338627182133" lon="11.504853065069174"><ele>213.0</ele><time>2026-04-30T13:21:57Z</time></trkpt><trkpt lat="44.21330908955687" lon="11.504855581483222"><ele>213.0</ele><time>2026-04-30T13:21:58Z</time></trkpt><trkpt lat="44.21323749205224" lon="11.504882832444002"><ele>213.0</ele><time>2026-04-30T13:21:59Z</time></trkpt><trkpt lat="44.213161468156194" lon="11.504929288472752"><ele>213.0</ele><time>2026-04-30T13:22:00Z</time></trkpt><trkpt lat="44.21308258562039" lon="11.504974963942486"><ele>213.0</ele><time>2026-04-30T13:22:01Z</time></trkpt><trkpt lat="44.213005837927284" lon="11.505025435153241"><ele>213.33333333333334</ele><time>2026-04-30T13:22:02Z</time></trkpt><trkpt lat="44.21293722100355" lon="11.505061645256108"><ele>213.66666666666669</ele><time>2026-04-30T13:22:03Z</time></trkpt><trkpt lat="44.212874004128594" lon="11.505075599485714"><ele>214.0</ele><time>2026-04-30T13:22:04Z</time></trkpt><trkpt lat="44.2127870654662" lon="11.505110147013475"><ele>214.33333333333334</ele><time>2026-04-30T13:22:05Z</time></trkpt><trkpt lat="44.21270669090305" lon="11.505138254429557"><ele>214.66666666666669</ele><time>2026-04-30T13:22:06Z</time></trkpt><trkpt lat="44.212634636900525" lon="11.505164027705067"><ele>215.0</ele><time>2026-04-30T13:22:07Z</time></trkpt><trkpt lat="44.212565460963724" lon="11.505196108697035"><ele>215.00000000000003</ele><time>2026-04-30T13:22:08Z</time></trkpt><trkpt lat="44.21250183082752" lon="11.50523959187817"><ele>215.0</ele><time>2026-04-30T13:22:09Z</time></trkpt><trkpt lat="44.212439925072594" lon="11.505293210907688"><ele>215.0</ele><time>2026-04-30T13:22:10Z</time></trkpt><trkpt lat="44.212409408869156" lon="11.505416708698489"><ele>215.0</ele><time>2026-04-30T13:22:11Z</time></trkpt><trkpt lat="44.21242337645475" lon="11.505521716883694"><ele>215.00000000000003</ele><time>2026-04-30T13:22:12Z</time></trkpt><trkpt lat="44.21250206638457" lon="11.505600202695343"><ele>215.0</ele><time>2026-04-30T13:22:13Z</time></trkpt><trkpt lat="44.21260214610903" lon="11.505625369089827"><ele>212.8</ele><time>2026-04-30T13:22:14Z</time></trkpt><trkpt lat="44.21271365145185" lon="11.505606494102981"><ele>210.6</ele><time>2026-04-30T13:22:15Z</time></trkpt><trkpt lat="44.21282267734491" lon="11.50561030110103"><ele>208.39999999999998</ele><time>2026-04-30T13:22:16Z</time></trkpt><trkpt lat="44.212918827183614" lon="11.505613735445484"><ele>206.2</ele><time>2026-04-30T13:22:17Z</time></trkpt><trkpt lat="44.21301689694712" lon="11.505615746887727"><ele>204.0</ele><time>2026-04-30T13:22:18Z</time></trkpt><trkpt lat="44.21310682421323" lon="11.505617591320494"><ele>203.0</ele><time>2026-04-30T13:22:19Z</time></trkpt><trkpt lat="44.21319601215825" lon="11.505617949287934"><ele>202.0</ele><time>2026-04-30T13:22:20Z</time></trkpt><trkpt lat="44.21328159134959" lon="11.50561794928822"><ele>201.0</ele><time>2026-04-30T13:22:21Z</time></trkpt><trkpt lat="44.21336534046694" lon="11.50559681926722"><ele>200.0</ele><time>2026-04-30T13:22:22Z</time></trkpt><trkpt lat="44.21345899336088" lon="11.505601231226063"><ele>199.0</ele><time>2026-04-30T13:22:23Z</time></trkpt><trkpt lat="44.21355323710307" lon="11.505607164924646"><ele>198.0</ele><time>2026-04-30T13:22:24Z</time></trkpt><trkpt lat="44.21364647496854" lon="11.505600105321742"><ele>198.0</ele><time>2026-04-30T13:22:25Z</time></trkpt><trkpt lat="44.2137409424952" lon="11.505601830953013"><ele>198.0</ele><time>2026-04-30T13:22:26Z</time></trkpt><trkpt lat="44.213828612164555" lon="11.505605383742253"><ele>198.0</ele><time>2026-04-30T13:22:27Z</time></trkpt><trkpt lat="44.21389937900562" lon="11.505597216509436"><ele>198.0</ele><time>2026-04-30T13:22:28Z</time></trkpt><trkpt lat="44.21396344124384" lon="11.505611332769467"><ele>198.0</ele><time>2026-04-30T13:22:29Z</time></trkpt><trkpt lat="44.21403430633931" lon="11.505620360313063"><ele>198.0</ele><time>2026-04-30T13:22:30Z</time></trkpt><trkpt lat="44.21410068932072" lon="11.505656942202256"><ele>198.0</ele><time>2026-04-30T13:22:31Z</time></trkpt><trkpt lat="44.21413305577014" lon="11.505737707145862"><ele>198.0</ele><time>2026-04-30T13:22:32Z</time></trkpt><trkpt lat="44.2141174340173" lon="11.505834666649159"><ele>198.0</ele><time>2026-04-30T13:22:33Z</time></trkpt><trkpt lat="44.21407220355349" lon="11.505916333921208"><ele>198.0</ele><time>2026-04-30T13:22:34Z</time></trkpt><trkpt lat="44.21399912389699" lon="11.505961517603637"><ele>198.0</ele><time>2026-04-30T13:22:35Z</time></trkpt><trkpt lat="44.213908637071604" lon="11.505993838983509"><ele>198.0</ele><time>2026-04-30T13:22:36Z</time></trkpt><trkpt lat="44.213816667035026" lon="11.506013280440014"><ele>198.0</ele><time>2026-04-30T13:22:37Z</time></trkpt><trkpt lat="44.21373538163846" lon="11.50604665560465"><ele>198.0</ele><time>2026-04-30T13:22:38Z</time></trkpt><trkpt lat="44.21365822285755" lon="11.506087997300801"><ele>198.0</ele><time>2026-04-30T13:22:39Z</time></trkpt><trkpt lat="44.213578015129976" lon="11.506129479409823"><ele>198.0</ele><time>2026-04-30T13:22:40Z</time></trkpt><trkpt lat="44.21349745187668" lon="11.506167725520124"><ele>198.0</ele><time>2026-04-30T13:22:41Z</time></trkpt><trkpt lat="44.21342671957618" lon="11.50620561131413"><ele>198.0</ele><time>2026-04-30T13:22:42Z</time></trkpt><trkpt lat="44.21334977870561" lon="11.506245301730713"><ele>195.83333333333334</ele><time>2026-04-30T13:22:43Z</time></trkpt><trkpt lat="44.213281473973225" lon="11.506283143255319"><ele>193.66666666666666</ele><time>2026-04-30T13:22:44Z</time></trkpt><trkpt lat="44.213219039844304" lon="11.50633747181148"><ele>191.5</ele><time>2026-04-30T13:22:45Z</time></trkpt><trkpt lat="44.21316332967605" lon="11.50639821034006"><ele>189.33333333333331</ele><time>2026-04-30T13:22:46Z</time></trkpt><trkpt lat="44.21312250230914" lon="11.506468808595416"><ele>187.16666666666666</ele><time>2026-04-30T13:22:47Z</time></trkpt><trkpt lat="44.21310966111043" lon="11.506621547794738"><ele>185.0</ele><time>2026-04-30T13:22:49Z</time></trkpt><trkpt lat="44.21314645367844" lon="11.506719450379958"><ele>184.8</ele><time>2026-04-30T13:22:51Z</time></trkpt><trkpt lat="44.213206187348426" lon="11.506808491171986"><ele>184.6</ele><time>2026-04-30T13:22:54Z</time></trkpt><trkpt lat="44.213287414916344" lon="11.506858510820416"><ele>184.39999999999998</ele><time>2026-04-30T13:22:56Z</time></trkpt><trkpt lat="44.213400982372036" lon="11.506897853890004"><ele>184.2</ele><time>2026-04-30T13:22:58Z</time></trkpt><trkpt lat="44.21352023957315" lon="11.506890573937538"><ele>184.0</ele><time>2026-04-30T13:23:00Z</time></trkpt><trkpt lat="44.21359675497406" lon="11.506951761476246"><ele>182.0</ele><time>2026-04-30T13:23:02Z</time></trkpt><trkpt lat="44.21359023215412" lon="11.50710957655587"><ele>180.0</ele><time>2026-04-30T13:23:04Z</time></trkpt><trkpt lat="44.213556400456284" lon="11.507253652745211"><ele>178.0</ele><time>2026-04-30T13:23:06Z</time></trkpt><trkpt lat="44.213629586208015" lon="11.507353694261385"><ele>176.0</ele><time>2026-04-30T13:23:08Z</time></trkpt><trkpt lat="44.21372211546812" lon="11.507333078039936"><ele>174.0</ele><time>2026-04-30T13:23:10Z</time></trkpt><trkpt lat="44.2137793110545" lon="11.507271882813765"><ele>174.0</ele><time>2026-04-30T13:23:12Z</time></trkpt><trkpt lat="44.213844997920354" lon="11.507224335151363"><ele>174.0</ele><time>2026-04-30T13:23:14Z</time></trkpt><trkpt lat="44.21380400830011" lon="11.50713947417472"><ele>174.0</ele><time>2026-04-30T13:23:17Z</time></trkpt><trkpt lat="44.21372179669774" lon="11.507196758490107"><ele>174.0</ele><time>2026-04-30T13:23:19Z</time></trkpt><trkpt lat="44.21367143694481" lon="11.507295829249797"><ele>174.0</ele><time>2026-04-30T13:23:21Z</time></trkpt><trkpt lat="44.2136091190562" lon="11.507330518477605"><ele>174.0</ele><time>2026-04-30T13:23:23Z</time></trkpt><trkpt lat="44.21355327998851" lon="11.507264475208466"><ele>174.0</ele><time>2026-04-30T13:23:25Z</time></trkpt><trkpt lat="44.213582766844155" lon="11.507136603197905"><ele>174.0</ele><time>2026-04-30T13:23:27Z</time></trkpt><trkpt lat="44.21363019400281" lon="11.507010023475772"><ele>174.0</ele><time>2026-04-30T13:23:29Z</time></trkpt><trkpt lat="44.213586366314225" lon="11.506887294448623"><ele>174.0</ele><time>2026-04-30T13:23:31Z</time></trkpt><trkpt lat="44.213470859957674" lon="11.506857199299251"><ele>174.0</ele><time>2026-04-30T13:23:33Z</time></trkpt><trkpt lat="44.21335072472245" lon="11.506861789379515"><ele>176.5</ele><time>2026-04-30T13:23:35Z</time></trkpt><trkpt lat="44.21324246198912" lon="11.506832950234314"><ele>179.0</ele><time>2026-04-30T13:23:37Z</time></trkpt><trkpt lat="44.21315089607789" lon="11.506735381737519"><ele>181.5</ele><time>2026-04-30T13:23:39Z</time></trkpt><trkpt lat="44.21311970159266" lon="11.506584584244987"><ele>184.0</ele><time>2026-04-30T13:23:41Z</time></trkpt><trkpt lat="44.21315671278378" lon="11.506420840970767"><ele>184.0</ele><time>2026-04-30T13:23:43Z</time></trkpt><trkpt lat="44.21322327223213" lon="11.506355583301927"><ele>184.0</ele><time>2026-04-30T13:23:44Z</time></trkpt><trkpt lat="44.21330345915383" lon="11.50634499280106"><ele>184.0</ele><time>2026-04-30T13:23:45Z</time></trkpt><trkpt lat="44.21336736143566" lon="11.506309935482768"><ele>184.0</ele><time>2026-04-30T13:23:46Z</time></trkpt><trkpt lat="44.213431006921624" lon="11.506276945040163"><ele>184.0</ele><time>2026-04-30T13:23:47Z</time></trkpt><trkpt lat="44.21349255261777" lon="11.506236583085208"><ele>184.0</ele><time>2026-04-30T13:23:48Z</time></trkpt><trkpt lat="44.21357109775714" lon="11.506194128228312"><ele>185.0</ele><time>2026-04-30T13:23:49Z</time></trkpt><trkpt lat="44.21364858931577" lon="11.506157885455416"><ele>186.0</ele><time>2026-04-30T13:23:50Z</time></trkpt><trkpt lat="44.21372670613722" lon="11.506125690237987"><ele>187.0</ele><time>2026-04-30T13:23:51Z</time></trkpt><trkpt lat="44.213810797895974" lon="11.506089341581358"><ele>188.0</ele><time>2026-04-30T13:23:52Z</time></trkpt><trkpt lat="44.21389104000166" lon="11.506052583528135"><ele>189.0</ele><time>2026-04-30T13:23:53Z</time></trkpt><trkpt lat="44.213956743209614" lon="11.506022718989353"><ele>190.0</ele><time>2026-04-30T13:23:54Z</time></trkpt><trkpt lat="44.21401715909404" lon="11.50599601050259"><ele>190.0</ele><time>2026-04-30T13:23:55Z</time></trkpt><trkpt lat="44.214121472449655" lon="11.505918838629027"><ele>190.0</ele><time>2026-04-30T13:23:57Z</time></trkpt><trkpt lat="44.21422616437963" lon="11.505843820980576"><ele>190.0</ele><time>2026-04-30T13:23:59Z</time></trkpt><trkpt lat="44.214280996523755" lon="11.505697013981687"><ele>190.0</ele><time>2026-04-30T13:24:01Z</time></trkpt><trkpt lat="44.214252537326566" lon="11.505610513637127"><ele>190.0</ele><time>2026-04-30T13:24:02Z</time></trkpt><trkpt lat="44.21424502044475" lon="11.5055086049678"><ele>190.0</ele><time>2026-04-30T13:24:03Z</time></trkpt><trkpt lat="44.214237438972354" lon="11.505412382474821"><ele>190.0</ele><time>2026-04-30T13:24:04Z</time></trkpt><trkpt lat="44.21422911143068" lon="11.505311925283205"><ele>190.0</ele><time>2026-04-30T13:24:05Z</time></trkpt><trkpt lat="44.21425190141225" lon="11.505203702489359"><ele>190.0</ele><time>2026-04-30T13:24:06Z</time></trkpt><trkpt lat="44.21423217090428" lon="11.505100563849316"><ele>190.0</ele><time>2026-04-30T13:24:07Z</time></trkpt><trkpt lat="44.21422314966893" lon="11.504996735144935"><ele>190.0</ele><time>2026-04-30T13:24:08Z</time></trkpt><trkpt lat="44.21420634688943" lon="11.504899435527983"><ele>190.0</ele><time>2026-04-30T13:24:09Z</time></trkpt><trkpt lat="44.21425330939311" lon="11.504790094365216"><ele>193.0</ele><time>2026-04-30T13:24:10Z</time></trkpt><trkpt lat="44.21436342092571" lon="11.504767001594665"><ele>196.0</ele><time>2026-04-30T13:24:11Z</time></trkpt><trkpt lat="44.21445146662948" lon="11.504729038408993"><ele>199.0</ele><time>2026-04-30T13:24:12Z</time></trkpt><trkpt lat="44.21453674800459" lon="11.504689118703267"><ele>202.0</ele><time>2026-04-30T13:24:13Z</time></trkpt><trkpt lat="44.21461683197413" lon="11.504665016237444"><ele>205.0</ele><time>2026-04-30T13:24:14Z</time></trkpt><trkpt lat="44.21470453176654" lon="11.504654961467434"><ele>204.99999999999997</ele><time>2026-04-30T13:24:15Z</time></trkpt><trkpt lat="44.21479153154428" lon="11.504692164576909"><ele>205.0</ele><time>2026-04-30T13:24:16Z</time></trkpt><trkpt lat="44.2148787827394" lon="11.504744070050934"><ele>205.0</ele><time>2026-04-30T13:24:17Z</time></trkpt><trkpt lat="44.21495954436338" lon="11.504800158740384"><ele>205.0</ele><time>2026-04-30T13:24:18Z</time></trkpt><trkpt lat="44.215034983638525" lon="11.504828185967792"><ele>204.99999999999997</ele><time>2026-04-30T13:24:19Z</time></trkpt><trkpt lat="44.21510503291638" lon="11.50484777140747"><ele>205.0</ele><time>2026-04-30T13:24:20Z</time></trkpt><trkpt lat="44.21517832329134" lon="11.50485635301014"><ele>203.66666666666666</ele><time>2026-04-30T13:24:21Z</time></trkpt><trkpt lat="44.21525609773747" lon="11.504841598571963"><ele>202.33333333333331</ele><time>2026-04-30T13:24:22Z</time></trkpt><trkpt lat="44.21533807214364" lon="11.504783518474683"><ele>201.0</ele><time>2026-04-30T13:24:23Z</time></trkpt><trkpt lat="44.215405899551335" lon="11.504700601041645"><ele>199.66666666666669</ele><time>2026-04-30T13:24:24Z</time></trkpt><trkpt lat="44.2154674384462" lon="11.504626076147098"><ele>198.33333333333334</ele><time>2026-04-30T13:24:25Z</time></trkpt><trkpt lat="44.2155528248791" lon="11.504594242363678"><ele>197.0</ele><time>2026-04-30T13:24:26Z</time></trkpt><trkpt lat="44.215646547254316" lon="11.504594756412812"><ele>197.33333333333334</ele><time>2026-04-30T13:24:27Z</time></trkpt><trkpt lat="44.21574882627039" lon="11.504616613283039"><ele>197.66666666666669</ele><time>2026-04-30T13:24:28Z</time></trkpt><trkpt lat="44.21584407259144" lon="11.504634717746006"><ele>198.0</ele><time>2026-04-30T13:24:29Z</time></trkpt><trkpt lat="44.2159375549757" lon="11.504648753730821"><ele>198.33333333333331</ele><time>2026-04-30T13:24:30Z</time></trkpt><trkpt lat="44.21601815636124" lon="11.504657696520663"><ele>198.66666666666666</ele><time>2026-04-30T13:24:31Z</time></trkpt><trkpt lat="44.216091305526625" lon="11.50467839185858"><ele>199.0</ele><time>2026-04-30T13:24:33Z</time></trkpt><trkpt lat="44.21617210617685" lon="11.504684173370176"><ele>198.99999999999997</ele><time>2026-04-30T13:24:35Z</time></trkpt><trkpt lat="44.216256762165116" lon="11.504655319816763"><ele>199.0</ele><time>2026-04-30T13:24:37Z</time></trkpt><trkpt lat="44.216324733295515" lon="11.50466200132674"><ele>199.0</ele><time>2026-04-30T13:24:38Z</time></trkpt><trkpt lat="44.21640937773483" lon="11.504699640642844"><ele>199.0</ele><time>2026-04-30T13:24:39Z</time></trkpt><trkpt lat="44.21649093346852" lon="11.504743068927182"><ele>198.99999999999997</ele><time>2026-04-30T13:24:40Z</time></trkpt><trkpt lat="44.216568171116045" lon="11.504745591036032"><ele>199.0</ele><time>2026-04-30T13:24:41Z</time></trkpt><trkpt lat="44.21663393440554" lon="11.504690050196201"><ele>199.2</ele><time>2026-04-30T13:24:42Z</time></trkpt><trkpt lat="44.21667898087784" lon="11.504607703080637"><ele>199.39999999999998</ele><time>2026-04-30T13:24:43Z</time></trkpt><trkpt lat="44.21670438680451" lon="11.504490624206213"><ele>199.6</ele><time>2026-04-30T13:24:44Z</time></trkpt><trkpt lat="44.21669782422098" lon="11.504355833944219"><ele>199.8</ele><time>2026-04-30T13:24:45Z</time></trkpt><trkpt lat="44.216681610560386" lon="11.504219357086736"><ele>200.0</ele><time>2026-04-30T13:24:46Z</time></trkpt><trkpt lat="44.21667257496223" lon="11.504089217909907"><ele>200.2</ele><time>2026-04-30T13:24:47Z</time></trkpt><trkpt lat="44.216668332530865" lon="11.503956605076006"><ele>200.4</ele><time>2026-04-30T13:24:48Z</time></trkpt><trkpt lat="44.21665883550273" lon="11.503829967967182"><ele>200.60000000000002</ele><time>2026-04-30T13:24:49Z</time></trkpt><trkpt lat="44.21664952079083" lon="11.503710426953603"><ele>200.8</ele><time>2026-04-30T13:24:50Z</time></trkpt><trkpt lat="44.216654623884835" lon="11.503581665654794"><ele>201.0</ele><time>2026-04-30T13:24:51Z</time></trkpt><trkpt lat="44.216679290285335" lon="11.503449884803949"><ele>201.0</ele><time>2026-04-30T13:24:52Z</time></trkpt><trkpt lat="44.21671460096766" lon="11.503323332345667"><ele>201.0</ele><time>2026-04-30T13:24:53Z</time></trkpt><trkpt lat="44.21675334926748" lon="11.503210902649652"><ele>201.0</ele><time>2026-04-30T13:24:54Z</time></trkpt><trkpt lat="44.21679703013986" lon="11.503121925157497"><ele>201.0</ele><time>2026-04-30T13:24:55Z</time></trkpt><trkpt lat="44.21685421306395" lon="11.503052765146789"><ele>201.0</ele><time>2026-04-30T13:24:56Z</time></trkpt><trkpt lat="44.21693044364657" lon="11.503028965041329"><ele>201.0</ele><time>2026-04-30T13:24:57Z</time></trkpt><trkpt lat="44.217008552521726" lon="11.50305063150615"><ele>201.0</ele><time>2026-04-30T13:24:58Z</time></trkpt><trkpt lat="44.21707783126208" lon="11.503091828439944"><ele>201.0</ele><time>2026-04-30T13:24:59Z</time></trkpt><trkpt lat="44.21713710069945" lon="11.50313902274511"><ele>201.0</ele><time>2026-04-30T13:25:00Z</time></trkpt><trkpt lat="44.21724076793765" lon="11.503211917581279"><ele>201.0</ele><time>2026-04-30T13:25:02Z</time></trkpt><trkpt lat="44.217347776668426" lon="11.503120175060502"><ele>201.0</ele><time>2026-04-30T13:25:04Z</time></trkpt><trkpt lat="44.2173576420223" lon="11.50300557197466"><ele>202.5</ele><time>2026-04-30T13:25:05Z</time></trkpt><trkpt lat="44.21738675635595" lon="11.50289444818989"><ele>204.0</ele><time>2026-04-30T13:25:06Z</time></trkpt><trkpt lat="44.21738503621231" lon="11.502778446044834"><ele>205.5</ele><time>2026-04-30T13:25:07Z</time></trkpt><trkpt lat="44.217380678249114" lon="11.502663017864899"><ele>207.0</ele><time>2026-04-30T13:25:08Z</time></trkpt><trkpt lat="44.21736634868095" lon="11.502541586479444"><ele>208.5</ele><time>2026-04-30T13:25:09Z</time></trkpt><trkpt lat="44.217359944358826" lon="11.502442649936594"><ele>210.0</ele><time>2026-04-30T13:25:10Z</time></trkpt><trkpt lat="44.21742296195221" lon="11.502320196672763"><ele>210.0</ele><time>2026-04-30T13:25:12Z</time></trkpt><trkpt lat="44.21749300689361" lon="11.502344262820062"><ele>210.0</ele><time>2026-04-30T13:25:13Z</time></trkpt><trkpt lat="44.21753821500142" lon="11.50251320756516"><ele>210.0</ele><time>2026-04-30T13:25:15Z</time></trkpt><trkpt lat="44.217552172328574" lon="11.502634135420834"><ele>210.0</ele><time>2026-04-30T13:25:16Z</time></trkpt><trkpt lat="44.21753889287593" lon="11.502791023614437"><ele>210.0</ele><time>2026-04-30T13:25:17Z</time></trkpt><trkpt lat="44.21754276331952" lon="11.502950938334106"><ele>209.16666666666666</ele><time>2026-04-30T13:25:18Z</time></trkpt><trkpt lat="44.217565951822536" lon="11.503105915969407"><ele>208.33333333333331</ele><time>2026-04-30T13:25:19Z</time></trkpt><trkpt lat="44.21758975566695" lon="11.503218636585295"><ele>207.5</ele><time>2026-04-30T13:25:20Z</time></trkpt><trkpt lat="44.21762269861395" lon="11.503305131282119"><ele>206.66666666666666</ele><time>2026-04-30T13:25:21Z</time></trkpt><trkpt lat="44.21766236182876" lon="11.503379024002864"><ele>205.83333333333331</ele><time>2026-04-30T13:25:22Z</time></trkpt><trkpt lat="44.217712954709214" lon="11.503457943123706"><ele>205.0</ele><time>2026-04-30T13:25:23Z</time></trkpt><trkpt lat="44.21778096879612" lon="11.503512710766682"><ele>205.0</ele><time>2026-04-30T13:25:24Z</time></trkpt><trkpt lat="44.21784880613171" lon="11.503500926812254"><ele>205.0</ele><time>2026-04-30T13:25:25Z</time></trkpt><trkpt lat="44.217909468014994" lon="11.503437092314181"><ele>205.0</ele><time>2026-04-30T13:25:27Z</time></trkpt><trkpt lat="44.21797322235226" lon="11.50340847478576"><ele>205.0</ele><time>2026-04-30T13:25:34Z</time></trkpt><trkpt lat="44.21805914140334" lon="11.503404857460719"><ele>205.0</ele><time>2026-04-30T13:25:36Z</time></trkpt><trkpt lat="44.21812254710237" lon="11.503409351089125"><ele>205.0</ele><time>2026-04-30T13:25:37Z</time></trkpt><trkpt lat="44.2181923522675" lon="11.503402740723633"><ele>205.0</ele><time>2026-04-30T13:25:39Z</time></trkpt><trkpt lat="44.21825117953073" lon="11.503343471281767"><ele>204.99999999999997</ele><time>2026-04-30T13:25:42Z</time></trkpt><trkpt lat="44.21819329828709" lon="11.503266746971365"><ele>205.0</ele><time>2026-04-30T13:25:45Z</time></trkpt><trkpt lat="44.218105382421605" lon="11.503283630857933"><ele>205.0</ele><time>2026-04-30T13:25:47Z</time></trkpt><trkpt lat="44.21803962069587" lon="11.503302750177275"><ele>205.0</ele><time>2026-04-30T13:25:49Z</time></trkpt><trkpt lat="44.21793809067252" lon="11.503213864231231"><ele>204.99999999999997</ele><time>2026-04-30T13:25:51Z</time></trkpt><trkpt lat="44.21789646118129" lon="11.50313771394647"><ele>205.0</ele><time>2026-04-30T13:25:52Z</time></trkpt><trkpt lat="44.217789197197554" lon="11.503113847475259"><ele>205.0</ele><time>2026-04-30T13:25:53Z</time></trkpt><trkpt lat="44.21776108717159" lon="11.503010110431823"><ele>205.0</ele><time>2026-04-30T13:25:54Z</time></trkpt><trkpt lat="44.2177649303077" lon="11.502872647037341"><ele>205.0</ele><time>2026-04-30T13:25:55Z</time></trkpt><trkpt lat="44.217780394974156" lon="11.502707002361156"><ele>205.0</ele><time>2026-04-30T13:25:57Z</time></trkpt><trkpt lat="44.21795118029461" lon="11.502596754545166"><ele>206.0</ele><time>2026-04-30T13:25:59Z</time></trkpt><trkpt lat="44.217982201413314" lon="11.502444675306794"><ele>207.0</ele><time>2026-04-30T13:26:01Z</time></trkpt><trkpt lat="44.21799871638821" lon="11.502327463262178"><ele>208.0</ele><time>2026-04-30T13:26:03Z</time></trkpt><trkpt lat="44.21806891192165" lon="11.502411067879285"><ele>209.0</ele><time>2026-04-30T13:26:06Z</time></trkpt><trkpt lat="44.218108870663286" lon="11.502542603140359"><ele>210.0</ele><time>2026-04-30T13:26:08Z</time></trkpt><trkpt lat="44.2181802832748" lon="11.502615774887097"><ele>215.5</ele><time>2026-04-30T13:26:10Z</time></trkpt><trkpt lat="44.21824333049235" lon="11.502601165999607"><ele>221.0</ele><time>2026-04-30T13:26:11Z</time></trkpt><trkpt lat="44.21830981842942" lon="11.502529164723382"><ele>226.5</ele><time>2026-04-30T13:26:13Z</time></trkpt><trkpt lat="44.21833640430618" lon="11.50241181883914"><ele>232.0</ele><time>2026-04-30T13:26:15Z</time></trkpt><trkpt lat="44.21829705510381" lon="11.50227951121878"><ele>237.5</ele><time>2026-04-30T13:26:17Z</time></trkpt><trkpt lat="44.218300978288035" lon="11.502127052833197"><ele>243.0</ele><time>2026-04-30T13:26:19Z</time></trkpt><trkpt lat="44.21835898010615" lon="11.50200840645995"><ele>243.60000000000002</ele><time>2026-04-30T13:26:21Z</time></trkpt><trkpt lat="44.21843658286275" lon="11.50190846517893"><ele>244.20000000000002</ele><time>2026-04-30T13:26:23Z</time></trkpt><trkpt lat="44.21850602504468" lon="11.501753534253922"><ele>244.8</ele><time>2026-04-30T13:26:25Z</time></trkpt><trkpt lat="44.21854334371015" lon="11.501655835600934"><ele>245.4</ele><time>2026-04-30T13:26:26Z</time></trkpt><trkpt lat="44.21858615521647" lon="11.501582942032295"><ele>246.0</ele><time>2026-04-30T13:26:27Z</time></trkpt><trkpt lat="44.218684799071625" lon="11.501524927624503"><ele>246.0</ele><time>2026-04-30T13:26:29Z</time></trkpt><trkpt lat="44.218797889456134" lon="11.501512548608678"><ele>246.0</ele><time>2026-04-30T13:26:31Z</time></trkpt><trkpt lat="44.21890202933623" lon="11.501470765351302"><ele>246.0</ele><time>2026-04-30T13:26:33Z</time></trkpt><trkpt lat="44.21897169219304" lon="11.501487650536754"><ele>246.0</ele><time>2026-04-30T13:26:34Z</time></trkpt><trkpt lat="44.21904452217892" lon="11.50149180637967"><ele>246.0</ele><time>2026-04-30T13:26:35Z</time></trkpt><trkpt lat="44.21910893516223" lon="11.50148241896142"><ele>246.0</ele><time>2026-04-30T13:26:36Z</time></trkpt><trkpt lat="44.21917221465931" lon="11.501456076903677"><ele>247.8571428571429</ele><time>2026-04-30T13:26:37Z</time></trkpt><trkpt lat="44.21924072570305" lon="11.501422332089126"><ele>249.71428571428572</ele><time>2026-04-30T13:26:38Z</time></trkpt><trkpt lat="44.21931381446557" lon="11.501386278144965"><ele>251.57142857142858</ele><time>2026-04-30T13:26:39Z</time></trkpt><trkpt lat="44.219383481404584" lon="11.501362349095537"><ele>253.42857142857144</ele><time>2026-04-30T13:26:40Z</time></trkpt><trkpt lat="44.219451024435784" lon="11.501335314965292"><ele>255.28571428571428</ele><time>2026-04-30T13:26:41Z</time></trkpt><trkpt lat="44.219522321017934" lon="11.501301398475206"><ele>257.14285714285717</ele><time>2026-04-30T13:26:42Z</time></trkpt><trkpt lat="44.21958775651353" lon="11.501263196005384"><ele>259.0</ele><time>2026-04-30T13:26:43Z</time></trkpt><trkpt lat="44.21964774269862" lon="11.501232094961306"><ele>259.0</ele><time>2026-04-30T13:26:44Z</time></trkpt><trkpt lat="44.219713964260706" lon="11.5012079647497"><ele>259.0</ele><time>2026-04-30T13:26:45Z</time></trkpt><trkpt lat="44.21978857754892" lon="11.501185200453227"><ele>259.0</ele><time>2026-04-30T13:26:46Z</time></trkpt><trkpt lat="44.2198692261913" lon="11.501153323101446"><ele>259.0</ele><time>2026-04-30T13:26:47Z</time></trkpt><trkpt lat="44.21994058133488" lon="11.501126015677276"><ele>259.0</ele><time>2026-04-30T13:26:48Z</time></trkpt><trkpt lat="44.22005505520715" lon="11.501101281802928"><ele>259.0</ele><time>2026-04-30T13:26:50Z</time></trkpt><trkpt lat="44.22012036837042" lon="11.501095708784533"><ele>262.8</ele><time>2026-04-30T13:26:51Z</time></trkpt><trkpt lat="44.22023364948318" lon="11.501094007835258"><ele>266.59999999999997</ele><time>2026-04-30T13:26:53Z</time></trkpt><trkpt lat="44.22034437821852" lon="11.501052236421828"><ele>270.4</ele><time>2026-04-30T13:26:55Z</time></trkpt><trkpt lat="44.22040970876283" lon="11.501032368180267"><ele>274.2</ele><time>2026-04-30T13:26:56Z</time></trkpt><trkpt lat="44.22052147482596" lon="11.501004944873609"><ele>278.0</ele><time>2026-04-30T13:26:58Z</time></trkpt><trkpt lat="44.22062910432703" lon="11.50099779346001"><ele>279.8</ele><time>2026-04-30T13:27:00Z</time></trkpt><trkpt lat="44.22074194046383" lon="11.500993678702613"><ele>281.6</ele><time>2026-04-30T13:27:02Z</time></trkpt><trkpt lat="44.220840879931416" lon="11.500966885685218"><ele>283.4</ele><time>2026-04-30T13:27:04Z</time></trkpt><trkpt lat="44.22090995619104" lon="11.500961769893857"><ele>285.2</ele><time>2026-04-30T13:27:06Z</time></trkpt><trkpt lat="44.22099948470337" lon="11.500941327518344"><ele>287.0</ele><time>2026-04-30T13:27:08Z</time></trkpt><trkpt lat="44.22108318382408" lon="11.500894107352062"><ele>287.0</ele><time>2026-04-30T13:27:11Z</time></trkpt><trkpt lat="44.22114256597874" lon="11.500831030805399"><ele>287.0</ele><time>2026-04-30T13:27:13Z</time></trkpt><trkpt lat="44.22119971145601" lon="11.50073640381394"><ele>287.0</ele><time>2026-04-30T13:27:15Z</time></trkpt><trkpt lat="44.2212749684292" lon="11.500654045575473"><ele>287.0</ele><time>2026-04-30T13:27:17Z</time></trkpt><trkpt lat="44.2213784040089" lon="11.500588775728282"><ele>287.0</ele><time>2026-04-30T13:27:19Z</time></trkpt><trkpt lat="44.221491916387116" lon="11.500531810633628"><ele>288.6666666666667</ele><time>2026-04-30T13:27:21Z</time></trkpt><trkpt lat="44.22155290713726" lon="11.500483526838199"><ele>290.33333333333337</ele><time>2026-04-30T13:27:22Z</time></trkpt><trkpt lat="44.22161900102862" lon="11.500434376246758"><ele>292.0</ele><time>2026-04-30T13:27:23Z</time></trkpt><trkpt lat="44.22168241995543" lon="11.500392315716471"><ele>293.6666666666667</ele><time>2026-04-30T13:27:24Z</time></trkpt><trkpt lat="44.22177774641572" lon="11.500344803244117"><ele>295.3333333333333</ele><time>2026-04-30T13:27:26Z</time></trkpt><trkpt lat="44.22186605721629" lon="11.500318236256732"><ele>297.0</ele><time>2026-04-30T13:27:28Z</time></trkpt><trkpt lat="44.2219736111814" lon="11.500293757643282"><ele>297.0</ele><time>2026-04-30T13:27:30Z</time></trkpt><trkpt lat="44.22206017159971" lon="11.500275499787126"><ele>297.0</ele><time>2026-04-30T13:27:31Z</time></trkpt><trkpt lat="44.222178486895565" lon="11.500254471906285"><ele>297.0</ele><time>2026-04-30T13:27:33Z</time></trkpt><trkpt lat="44.222258114068104" lon="11.50021213226182"><ele>297.0</ele><time>2026-04-30T13:27:34Z</time></trkpt><trkpt lat="44.22232657466411" lon="11.500159696848023"><ele>297.0</ele><time>2026-04-30T13:27:35Z</time></trkpt><trkpt lat="44.22238404511553" lon="11.500106156649599"><ele>297.0</ele><time>2026-04-30T13:27:36Z</time></trkpt><trkpt lat="44.22242514925853" lon="11.500032124209984"><ele>299.3333333333333</ele><time>2026-04-30T13:27:37Z</time></trkpt><trkpt lat="44.22245473503233" lon="11.499947770476902"><ele>301.6666666666667</ele><time>2026-04-30T13:27:38Z</time></trkpt><trkpt lat="44.22246886782727" lon="11.499858379405858"><ele>304.0</ele><time>2026-04-30T13:27:39Z</time></trkpt><trkpt lat="44.2224788010286" lon="11.499735932595195"><ele>306.33333333333337</ele><time>2026-04-30T13:27:40Z</time></trkpt><trkpt lat="44.22248277628649" lon="11.49964814521073"><ele>308.6666666666667</ele><time>2026-04-30T13:27:41Z</time></trkpt><trkpt lat="44.22250238769092" lon="11.49949486528689"><ele>311.0</ele><time>2026-04-30T13:27:43Z</time></trkpt><trkpt lat="44.22253985539709" lon="11.499386715992891"><ele>311.0</ele><time>2026-04-30T13:27:45Z</time></trkpt><trkpt lat="44.22264401978893" lon="11.499366217338657"><ele>311.0</ele><time>2026-04-30T13:27:47Z</time></trkpt><trkpt lat="44.22271853543807" lon="11.499368736895002"><ele>311.0</ele><time>2026-04-30T13:27:48Z</time></trkpt><trkpt lat="44.22278894157348" lon="11.499392642726134"><ele>311.0</ele><time>2026-04-30T13:27:49Z</time></trkpt><trkpt lat="44.22285865746086" lon="11.499416298826372"><ele>311.0</ele><time>2026-04-30T13:27:50Z</time></trkpt><trkpt lat="44.222928335047285" lon="11.499439772686205"><ele>311.0</ele><time>2026-04-30T13:27:51Z</time></trkpt><trkpt lat="44.22299967837519" lon="11.499486143796444"><ele>311.0</ele><time>2026-04-30T13:27:52Z</time></trkpt><trkpt lat="44.2230844646521" lon="11.499519111311118"><ele>311.0</ele><time>2026-04-30T13:27:53Z</time></trkpt><trkpt lat="44.22316537116033" lon="11.499542174948624"><ele>311.0</ele><time>2026-04-30T13:27:54Z</time></trkpt><trkpt lat="44.223236103445124" lon="11.499556158578239"><ele>311.0</ele><time>2026-04-30T13:27:55Z</time></trkpt><trkpt lat="44.22330699697199" lon="11.499576349337461"><ele>311.0</ele><time>2026-04-30T13:27:56Z</time></trkpt><trkpt lat="44.223380606745785" lon="11.499597319972578"><ele>311.0</ele><time>2026-04-30T13:27:57Z</time></trkpt><trkpt lat="44.22344861520727" lon="11.49960370767557"><ele>314.0</ele><time>2026-04-30T13:27:58Z</time></trkpt><trkpt lat="44.22351872166255" lon="11.49961023497726"><ele>317.0</ele><time>2026-04-30T13:27:59Z</time></trkpt><trkpt lat="44.22359755386621" lon="11.499613962682563"><ele>320.0</ele><time>2026-04-30T13:28:00Z</time></trkpt><trkpt lat="44.22367622622492" lon="11.499610594756184"><ele>323.0</ele><time>2026-04-30T13:28:01Z</time></trkpt><trkpt lat="44.22375602402345" lon="11.499614877023001"><ele>326.0</ele><time>2026-04-30T13:28:02Z</time></trkpt><trkpt lat="44.22383328607459" lon="11.49960930698537"><ele>329.0</ele><time>2026-04-30T13:28:03Z</time></trkpt><trkpt lat="44.223953503114714" lon="11.499571734645388"><ele>331.6666666666667</ele><time>2026-04-30T13:28:05Z</time></trkpt><trkpt lat="44.22402342056623" lon="11.499529143625416"><ele>334.33333333333337</ele><time>2026-04-30T13:28:06Z</time></trkpt><trkpt lat="44.22409205301474" lon="11.499500692421208"><ele>337.0</ele><time>2026-04-30T13:28:07Z</time></trkpt><trkpt lat="44.22415923577694" lon="11.499479046061243"><ele>339.6666666666667</ele><time>2026-04-30T13:28:08Z</time></trkpt><trkpt lat="44.224231627634154" lon="11.49949717391963"><ele>342.3333333333333</ele><time>2026-04-30T13:28:10Z</time></trkpt><trkpt lat="44.224321228913546" lon="11.499554172954857"><ele>345.0</ele><time>2026-04-30T13:28:12Z</time></trkpt><trkpt lat="44.22443874345343" lon="11.499614765723193"><ele>345.0</ele><time>2026-04-30T13:28:14Z</time></trkpt><trkpt lat="44.224504175677026" lon="11.499648895930434"><ele>345.0</ele><time>2026-04-30T13:28:15Z</time></trkpt><trkpt lat="44.22461906428783" lon="11.499607391316271"><ele>345.0</ele><time>2026-04-30T13:28:18Z</time></trkpt><trkpt lat="44.224734888276515" lon="11.499494177703742"><ele>345.0</ele><time>2026-04-30T13:28:20Z</time></trkpt><trkpt lat="44.2248139799079" lon="11.49943875664314"><ele>345.0</ele><time>2026-04-30T13:28:21Z</time></trkpt><trkpt lat="44.22489043437897" lon="11.499415299494382"><ele>350.2</ele><time>2026-04-30T13:28:22Z</time></trkpt><trkpt lat="44.224986092037454" lon="11.499400495249187"><ele>355.4</ele><time>2026-04-30T13:28:23Z</time></trkpt><trkpt lat="44.22505788361059" lon="11.499407431785718"><ele>360.6</ele><time>2026-04-30T13:28:24Z</time></trkpt><trkpt lat="44.22512425240503" lon="11.499419159451092"><ele>365.8</ele><time>2026-04-30T13:28:25Z</time></trkpt><trkpt lat="44.22523684559025" lon="11.49947609419118"><ele>371.0</ele><time>2026-04-30T13:28:27Z</time></trkpt><trkpt lat="44.22535962961343" lon="11.499545096099038"><ele>371.0</ele><time>2026-04-30T13:28:29Z</time></trkpt><trkpt lat="44.22547684578739" lon="11.499531725000395"><ele>371.0</ele><time>2026-04-30T13:28:31Z</time></trkpt><trkpt lat="44.22552871386858" lon="11.499480256626985"><ele>371.0</ele><time>2026-04-30T13:28:32Z</time></trkpt><trkpt lat="44.22556998523066" lon="11.499402958903879"><ele>371.0</ele><time>2026-04-30T13:28:33Z</time></trkpt><trkpt lat="44.22560776243765" lon="11.499319089259398"><ele>371.0</ele><time>2026-04-30T13:28:34Z</time></trkpt><trkpt lat="44.22565588065175" lon="11.499243677474771"><ele>371.0</ele><time>2026-04-30T13:28:35Z</time></trkpt><trkpt lat="44.22571615427744" lon="11.499183976675203"><ele>370.1666666666667</ele><time>2026-04-30T13:28:36Z</time></trkpt><trkpt lat="44.2257738970762" lon="11.499098897197962"><ele>369.33333333333337</ele><time>2026-04-30T13:28:37Z</time></trkpt><trkpt lat="44.22582394704354" lon="11.499010998777353"><ele>368.5</ele><time>2026-04-30T13:28:38Z</time></trkpt><trkpt lat="44.22586566361505" lon="11.498923018809764"><ele>367.6666666666667</ele><time>2026-04-30T13:28:39Z</time></trkpt><trkpt lat="44.22590765795216" lon="11.49880182943354"><ele>366.8333333333333</ele><time>2026-04-30T13:28:40Z</time></trkpt><trkpt lat="44.22595176212369" lon="11.498684814146797"><ele>366.0</ele><time>2026-04-30T13:28:41Z</time></trkpt><trkpt lat="44.22601258553868" lon="11.498547003920603"><ele>366.0</ele><time>2026-04-30T13:28:42Z</time></trkpt><trkpt lat="44.226094385724856" lon="11.498425510703251"><ele>366.0</ele><time>2026-04-30T13:28:43Z</time></trkpt><trkpt lat="44.22617311527603" lon="11.498315272649425"><ele>366.0</ele><time>2026-04-30T13:28:44Z</time></trkpt><trkpt lat="44.22622618143294" lon="11.498199093653314"><ele>366.0</ele><time>2026-04-30T13:28:45Z</time></trkpt><trkpt lat="44.226261788916844" lon="11.49808793890875"><ele>366.0</ele><time>2026-04-30T13:28:46Z</time></trkpt><trkpt lat="44.226293848331366" lon="11.497985409043384"><ele>365.8</ele><time>2026-04-30T13:28:47Z</time></trkpt><trkpt lat="44.22634799925256" lon="11.497868843049076"><ele>365.6</ele><time>2026-04-30T13:28:48Z</time></trkpt><trkpt lat="44.22639844950041" lon="11.497745991381908"><ele>365.4</ele><time>2026-04-30T13:28:49Z</time></trkpt><trkpt lat="44.226433408563366" lon="11.497631818917736"><ele>365.2</ele><time>2026-04-30T13:28:50Z</time></trkpt><trkpt lat="44.22645941668671" lon="11.497549959527422"><ele>365.0</ele><time>2026-04-30T13:28:51Z</time></trkpt><trkpt lat="44.226527390142415" lon="11.49743414940132"><ele>363.6666666666667</ele><time>2026-04-30T13:28:53Z</time></trkpt><trkpt lat="44.22661056850967" lon="11.497451152937932"><ele>362.33333333333337</ele><time>2026-04-30T13:28:56Z</time></trkpt><trkpt lat="44.2267085159836" lon="11.497446559725558"><ele>361.0</ele><time>2026-04-30T13:28:58Z</time></trkpt><trkpt lat="44.22676873929989" lon="11.497395596396048"><ele>359.6666666666667</ele><time>2026-04-30T13:29:01Z</time></trkpt><trkpt lat="44.22682331224539" lon="11.49733846958066"><ele>358.3333333333333</ele><time>2026-04-30T13:29:03Z</time></trkpt><trkpt lat="44.22691318651598" lon="11.49723908931242"><ele>357.0</ele><time>2026-04-30T13:29:04Z</time></trkpt><trkpt lat="44.227031250188034" lon="11.497151403345171"><ele>357.0</ele><time>2026-04-30T13:29:05Z</time></trkpt><trkpt lat="44.22711495155143" lon="11.497106015901329"><ele>357.0</ele><time>2026-04-30T13:29:06Z</time></trkpt><trkpt lat="44.227218390481944" lon="11.497019664377872"><ele>357.0</ele><time>2026-04-30T13:29:08Z</time></trkpt><trkpt lat="44.22735202257601" lon="11.496943246393705"><ele>357.0</ele><time>2026-04-30T13:29:10Z</time></trkpt><trkpt lat="44.22743218769937" lon="11.496906429597276"><ele>357.0</ele><time>2026-04-30T13:29:11Z</time></trkpt><trkpt lat="44.22752160458815" lon="11.496875308383462"><ele>359.1666666666667</ele><time>2026-04-30T13:29:12Z</time></trkpt><trkpt lat="44.22760636070468" lon="11.496859287996147"><ele>361.3333333333333</ele><time>2026-04-30T13:29:13Z</time></trkpt><trkpt lat="44.22767653816958" lon="11.496846592237409"><ele>363.5</ele><time>2026-04-30T13:29:14Z</time></trkpt><trkpt lat="44.22775149930589" lon="11.496837882721168"><ele>365.66666666666663</ele><time>2026-04-30T13:29:15Z</time></trkpt><trkpt lat="44.22783923196301" lon="11.496833738912004"><ele>367.8333333333333</ele><time>2026-04-30T13:29:16Z</time></trkpt><trkpt lat="44.22791299956827" lon="11.496825390614005"><ele>370.0</ele><time>2026-04-30T13:29:17Z</time></trkpt><trkpt lat="44.22802810857328" lon="11.496828723686525"><ele>370.0</ele><time>2026-04-30T13:29:19Z</time></trkpt><trkpt lat="44.22810850747456" lon="11.49682367970544"><ele>370.0</ele><time>2026-04-30T13:29:20Z</time></trkpt><trkpt lat="44.228192394648424" lon="11.496812198857356"><ele>370.0</ele><time>2026-04-30T13:29:21Z</time></trkpt><trkpt lat="44.22826289300973" lon="11.496818360736782"><ele>370.0</ele><time>2026-04-30T13:29:22Z</time></trkpt><trkpt lat="44.22832852502067" lon="11.496846839180154"><ele>370.0</ele><time>2026-04-30T13:29:23Z</time></trkpt><trkpt lat="44.228438464059465" lon="11.496938403298586"><ele>370.0</ele><time>2026-04-30T13:29:25Z</time></trkpt><trkpt lat="44.22850991492524" lon="11.496972085488297"><ele>369.8333333333333</ele><time>2026-04-30T13:29:26Z</time></trkpt><trkpt lat="44.22857846067074" lon="11.496984566302201"><ele>369.66666666666663</ele><time>2026-04-30T13:29:27Z</time></trkpt><trkpt lat="44.22864733786518" lon="11.496992224528295"><ele>369.5</ele><time>2026-04-30T13:29:28Z</time></trkpt><trkpt lat="44.22871779901921" lon="11.496989631797941"><ele>369.3333333333333</ele><time>2026-04-30T13:29:29Z</time></trkpt><trkpt lat="44.228788716927845" lon="11.496972005413452"><ele>369.1666666666667</ele><time>2026-04-30T13:29:30Z</time></trkpt><trkpt lat="44.228874119783825" lon="11.496988326367822"><ele>369.0</ele><time>2026-04-30T13:29:32Z</time></trkpt><trkpt lat="44.22897787442773" lon="11.497064639352367"><ele>369.0</ele><time>2026-04-30T13:29:34Z</time></trkpt><trkpt lat="44.2290986746365" lon="11.497079012879684"><ele>369.0</ele><time>2026-04-30T13:29:37Z</time></trkpt><trkpt lat="44.22919770410338" lon="11.497098694879302"><ele>369.0</ele><time>2026-04-30T13:29:39Z</time></trkpt><trkpt lat="44.2293064559366" lon="11.497112510545703"><ele>369.0</ele><time>2026-04-30T13:29:41Z</time></trkpt><trkpt lat="44.22939813427602" lon="11.497145783657306"><ele>369.0</ele><time>2026-04-30T13:29:43Z</time></trkpt><trkpt lat="44.229489613921984" lon="11.497140248200925"><ele>369.4</ele><time>2026-04-30T13:29:45Z</time></trkpt><trkpt lat="44.229586476018746" lon="11.497137088824092"><ele>369.79999999999995</ele><time>2026-04-30T13:29:47Z</time></trkpt><trkpt lat="44.22968591712958" lon="11.497149652876743"><ele>370.20000000000005</ele><time>2026-04-30T13:29:49Z</time></trkpt><trkpt lat="44.229778368742" lon="11.497118937431818"><ele>370.6</ele><time>2026-04-30T13:29:51Z</time></trkpt><trkpt lat="44.22988888163107" lon="11.497122062143713"><ele>371.0</ele><time>2026-04-30T13:29:53Z</time></trkpt><trkpt lat="44.22999273194663" lon="11.497084858970432"><ele>372.0</ele><time>2026-04-30T13:29:55Z</time></trkpt><trkpt lat="44.23011226551094" lon="11.497068882598358"><ele>373.0</ele><time>2026-04-30T13:29:57Z</time></trkpt><trkpt lat="44.23017471746202" lon="11.497044605427465"><ele>374.0</ele><time>2026-04-30T13:29:59Z</time></trkpt><trkpt lat="44.23023810393419" lon="11.497013967397418"><ele>375.0</ele><time>2026-04-30T13:30:02Z</time></trkpt><trkpt lat="44.230316754616034" lon="11.49698403513967"><ele>376.0</ele><time>2026-04-30T13:30:05Z</time></trkpt><trkpt lat="44.23038913064307" lon="11.496963291501586"><ele>377.0</ele><time>2026-04-30T13:30:07Z</time></trkpt><trkpt lat="44.23045581578128" lon="11.496961829946981"><ele>377.0</ele><time>2026-04-30T13:30:08Z</time></trkpt><trkpt lat="44.23057349334617" lon="11.496968414403074"><ele>377.0</ele><time>2026-04-30T13:30:09Z</time></trkpt><trkpt lat="44.230685436695076" lon="11.496971633902795"><ele>377.0</ele><time>2026-04-30T13:30:10Z</time></trkpt><trkpt lat="44.23077361688145" lon="11.496959246169899"><ele>377.0</ele><time>2026-04-30T13:30:11Z</time></trkpt><trkpt lat="44.23085398314031" lon="11.496885855928555"><ele>377.0</ele><time>2026-04-30T13:30:13Z</time></trkpt><trkpt lat="44.23092402628317" lon="11.496879089797964"><ele>380.20000000000005</ele><time>2026-04-30T13:30:15Z</time></trkpt><trkpt lat="44.23100438138013" lon="11.496851615701082"><ele>383.4</ele><time>2026-04-30T13:30:18Z</time></trkpt><trkpt lat="44.23109511661877" lon="11.496806293786534"><ele>386.6</ele><time>2026-04-30T13:30:21Z</time></trkpt><trkpt lat="44.231165528617616" lon="11.49675100249444"><ele>389.79999999999995</ele><time>2026-04-30T13:30:23Z</time></trkpt><trkpt lat="44.231213339164675" lon="11.496550494505515"><ele>393.0</ele><time>2026-04-30T13:30:25Z</time></trkpt><trkpt lat="44.23121949900834" lon="11.496446969706811"><ele>393.0</ele><time>2026-04-30T13:30:27Z</time></trkpt><trkpt lat="44.23127948246387" lon="11.49637967061847"><ele>393.0</ele><time>2026-04-30T13:30:29Z</time></trkpt><trkpt lat="44.231347582677635" lon="11.496311750308264"><ele>393.0</ele><time>2026-04-30T13:30:31Z</time></trkpt><trkpt lat="44.231415649877114" lon="11.496264742136205"><ele>393.0</ele><time>2026-04-30T13:30:36Z</time></trkpt><trkpt lat="44.23148008556127" lon="11.49633086097511"><ele>393.0</ele><time>2026-04-30T13:30:38Z</time></trkpt><trkpt lat="44.23148699770437" lon="11.496472493229291"><ele>393.0</ele><time>2026-04-30T13:30:40Z</time></trkpt><trkpt lat="44.23146810467946" lon="11.496622428646875"><ele>397.2</ele><time>2026-04-30T13:30:42Z</time></trkpt><trkpt lat="44.23152395349066" lon="11.496679273170622"><ele>401.4</ele><time>2026-04-30T13:30:44Z</time></trkpt><trkpt lat="44.231642950256976" lon="11.496660043797203"><ele>405.59999999999997</ele><time>2026-04-30T13:30:46Z</time></trkpt><trkpt lat="44.23174185040986" lon="11.496613334865923"><ele>409.79999999999995</ele><time>2026-04-30T13:30:48Z</time></trkpt><trkpt lat="44.231845724062346" lon="11.496661871322848"><ele>414.0</ele><time>2026-04-30T13:30:50Z</time></trkpt><trkpt lat="44.23191126298249" lon="11.49670589771631"><ele>414.0</ele><time>2026-04-30T13:30:51Z</time></trkpt><trkpt lat="44.231963616014426" lon="11.496775062779351"><ele>414.0</ele><time>2026-04-30T13:30:53Z</time></trkpt><trkpt lat="44.23200613722512" lon="11.496872282717101"><ele>414.0</ele><time>2026-04-30T13:30:55Z</time></trkpt><trkpt lat="44.23205044882537" lon="11.496954194322463"><ele>414.0</ele><time>2026-04-30T13:30:56Z</time></trkpt><trkpt lat="44.23211110631135" lon="11.497007840188436"><ele>414.0</ele><time>2026-04-30T13:30:58Z</time></trkpt><trkpt lat="44.2323321626721" lon="11.496898920944501"><ele>417.79999999999995</ele><time>2026-04-30T13:31:02Z</time></trkpt><trkpt lat="44.23242874913449" lon="11.496865444934238"><ele>421.59999999999997</ele><time>2026-04-30T13:31:04Z</time></trkpt><trkpt lat="44.232508182304535" lon="11.49675823131311"><ele>425.4</ele><time>2026-04-30T13:31:06Z</time></trkpt><trkpt lat="44.2325868174409" lon="11.49661877583799"><ele>429.2</ele><time>2026-04-30T13:31:08Z</time></trkpt><trkpt lat="44.2326334617229" lon="11.49652129068248"><ele>433.0</ele><time>2026-04-30T13:31:09Z</time></trkpt><trkpt lat="44.23272852825455" lon="11.496440277065442"><ele>433.00000000000006</ele><time>2026-04-30T13:31:11Z</time></trkpt><trkpt lat="44.23281155695934" lon="11.49639668845311"><ele>433.0</ele><time>2026-04-30T13:31:12Z</time></trkpt><trkpt lat="44.23290542544603" lon="11.49634743491366"><ele>433.0</ele><time>2026-04-30T13:31:13Z</time></trkpt><trkpt lat="44.23299195474969" lon="11.496333991215884"><ele>433.0</ele><time>2026-04-30T13:31:14Z</time></trkpt><trkpt lat="44.2330694032607" lon="11.496355336911677"><ele>433.00000000000006</ele><time>2026-04-30T13:31:15Z</time></trkpt><trkpt lat="44.233157535367255" lon="11.496391317333238"><ele>433.0</ele><time>2026-04-30T13:31:16Z</time></trkpt><trkpt lat="44.23325641702025" lon="11.496429412798049"><ele>433.1666666666667</ele><time>2026-04-30T13:31:17Z</time></trkpt><trkpt lat="44.23333005354895" lon="11.49645986409145"><ele>433.33333333333337</ele><time>2026-04-30T13:31:18Z</time></trkpt><trkpt lat="44.233450015194734" lon="11.496483441247218"><ele>433.5</ele><time>2026-04-30T13:31:20Z</time></trkpt><trkpt lat="44.23351538913835" lon="11.49648847504581"><ele>433.66666666666663</ele><time>2026-04-30T13:31:21Z</time></trkpt><trkpt lat="44.23361037398145" lon="11.49646247147994"><ele>433.8333333333333</ele><time>2026-04-30T13:31:23Z</time></trkpt><trkpt lat="44.23368559279952" lon="11.496449188438335"><ele>434.0</ele><time>2026-04-30T13:31:25Z</time></trkpt><trkpt lat="44.2337798979199" lon="11.496413961932655"><ele>433.99999999999994</ele><time>2026-04-30T13:31:27Z</time></trkpt><trkpt lat="44.23384487520247" lon="11.49638028339988"><ele>434.0</ele><time>2026-04-30T13:31:28Z</time></trkpt><trkpt lat="44.23391802666771" lon="11.496336359514938"><ele>434.0</ele><time>2026-04-30T13:31:29Z</time></trkpt><trkpt lat="44.2339921175719" lon="11.496282257653771"><ele>434.0</ele><time>2026-04-30T13:31:30Z</time></trkpt><trkpt lat="44.23407170430907" lon="11.496244672667377"><ele>433.99999999999994</ele><time>2026-04-30T13:31:31Z</time></trkpt><trkpt lat="44.23415664485953" lon="11.496204165088505"><ele>434.0</ele><time>2026-04-30T13:31:32Z</time></trkpt><trkpt lat="44.23423979262127" lon="11.496180563699482"><ele>433.99999999999994</ele><time>2026-04-30T13:31:33Z</time></trkpt><trkpt lat="44.2343106275874" lon="11.496173661252348"><ele>434.0</ele><time>2026-04-30T13:31:34Z</time></trkpt><trkpt lat="44.234381541364826" lon="11.49619698490389"><ele>434.0</ele><time>2026-04-30T13:31:35Z</time></trkpt><trkpt lat="44.23446077299376" lon="11.496232075989901"><ele>434.0</ele><time>2026-04-30T13:31:36Z</time></trkpt><trkpt lat="44.23452894484716" lon="11.496282990759592"><ele>433.99999999999994</ele><time>2026-04-30T13:31:37Z</time></trkpt><trkpt lat="44.23462118790517" lon="11.496334237861932"><ele>434.0</ele><time>2026-04-30T13:31:38Z</time></trkpt><trkpt lat="44.23467951706874" lon="11.496380938781307"><ele>433.99999999999994</ele><time>2026-04-30T13:31:39Z</time></trkpt><trkpt lat="44.234737143588376" lon="11.496416861487894"><ele>434.0</ele><time>2026-04-30T13:31:40Z</time></trkpt><trkpt lat="44.2348478836369" lon="11.496482004006563"><ele>434.0</ele><time>2026-04-30T13:31:42Z</time></trkpt><trkpt lat="44.23490984769209" lon="11.496505569952655"><ele>434.0</ele><time>2026-04-30T13:31:43Z</time></trkpt><trkpt lat="44.23497472326821" lon="11.496538502826727"><ele>433.99999999999994</ele><time>2026-04-30T13:31:44Z</time></trkpt><trkpt lat="44.235052727058694" lon="11.496560430049938"><ele>434.0</ele><time>2026-04-30T13:31:45Z</time></trkpt><trkpt lat="44.23511912474246" lon="11.49654643557475"><ele>434.99999999999994</ele><time>2026-04-30T13:31:46Z</time></trkpt><trkpt lat="44.235194353109655" lon="11.49649530708325"><ele>436.0</ele><time>2026-04-30T13:31:47Z</time></trkpt><trkpt lat="44.23525611384772" lon="11.496452942627077"><ele>437.0</ele><time>2026-04-30T13:31:48Z</time></trkpt><trkpt lat="44.23531822735179" lon="11.496382722909287"><ele>438.0</ele><time>2026-04-30T13:31:50Z</time></trkpt><trkpt lat="44.23541168363004" lon="11.496348266444175"><ele>438.99999999999994</ele><time>2026-04-30T13:31:52Z</time></trkpt><trkpt lat="44.235519437718885" lon="11.496327069701708"><ele>440.0</ele><time>2026-04-30T13:31:54Z</time></trkpt><trkpt lat="44.23561609461219" lon="11.496286738051635"><ele>438.66666666666663</ele><time>2026-04-30T13:31:56Z</time></trkpt><trkpt lat="44.23570483773702" lon="11.496268511730705"><ele>437.3333333333333</ele><time>2026-04-30T13:31:58Z</time></trkpt><trkpt lat="44.23582321608247" lon="11.496225481931058"><ele>436.0</ele><time>2026-04-30T13:32:00Z</time></trkpt><trkpt lat="44.235888576996885" lon="11.49618782058773"><ele>434.66666666666663</ele><time>2026-04-30T13:32:01Z</time></trkpt><trkpt lat="44.235949084896085" lon="11.496134402687922"><ele>433.3333333333333</ele><time>2026-04-30T13:32:02Z</time></trkpt><trkpt lat="44.236010451570394" lon="11.49607756863224"><ele>432.0</ele><time>2026-04-30T13:32:03Z</time></trkpt><trkpt lat="44.23607246092231" lon="11.496015181562404"><ele>435.1666666666667</ele><time>2026-04-30T13:32:04Z</time></trkpt><trkpt lat="44.236120068393106" lon="11.49594775022254"><ele>438.33333333333337</ele><time>2026-04-30T13:32:05Z</time></trkpt><trkpt lat="44.23617761920394" lon="11.495906083268514"><ele>441.5</ele><time>2026-04-30T13:32:06Z</time></trkpt><trkpt lat="44.23627305147334" lon="11.495832626168333"><ele>444.6666666666667</ele><time>2026-04-30T13:32:08Z</time></trkpt><trkpt lat="44.236329482814035" lon="11.495775369712263"><ele>447.83333333333337</ele><time>2026-04-30T13:32:10Z</time></trkpt><trkpt lat="44.236411197231675" lon="11.495721534267759"><ele>451.0</ele><time>2026-04-30T13:32:12Z</time></trkpt><trkpt lat="44.23651596235306" lon="11.495708535305276"><ele>451.0</ele><time>2026-04-30T13:32:14Z</time></trkpt><trkpt lat="44.236610578114735" lon="11.495673589999463"><ele>451.0</ele><time>2026-04-30T13:32:16Z</time></trkpt><trkpt lat="44.23668520040002" lon="11.49562129417532"><ele>451.0</ele><time>2026-04-30T13:32:19Z</time></trkpt><trkpt lat="44.23677773138383" lon="11.495566673709337"><ele>451.0</ele><time>2026-04-30T13:32:21Z</time></trkpt><trkpt lat="44.236862736342175" lon="11.495540095083006"><ele>451.0</ele><time>2026-04-30T13:32:23Z</time></trkpt><trkpt lat="44.23695465851755" lon="11.495510761596515"><ele>451.0</ele><time>2026-04-30T13:32:25Z</time></trkpt><trkpt lat="44.23705500216745" lon="11.495487132203197"><ele>451.0</ele><time>2026-04-30T13:32:27Z</time></trkpt><trkpt lat="44.23714591983769" lon="11.495495843380132"><ele>451.0</ele><time>2026-04-30T13:32:29Z</time></trkpt><trkpt lat="44.237215124231255" lon="11.495465494590297"><ele>451.0</ele><time>2026-04-30T13:32:30Z</time></trkpt><trkpt lat="44.23732805285773" lon="11.495374165639904"><ele>451.0</ele><time>2026-04-30T13:32:32Z</time></trkpt><trkpt lat="44.237382111697286" lon="11.495298396079862"><ele>453.6</ele><time>2026-04-30T13:32:33Z</time></trkpt><trkpt lat="44.2374646252553" lon="11.495168635942134"><ele>456.20000000000005</ele><time>2026-04-30T13:32:35Z</time></trkpt><trkpt lat="44.237546368469" lon="11.495080859566325"><ele>458.79999999999995</ele><time>2026-04-30T13:32:37Z</time></trkpt><trkpt lat="44.23759367087886" lon="11.494956133273929"><ele>461.4</ele><time>2026-04-30T13:32:39Z</time></trkpt><trkpt lat="44.23764032657548" lon="11.494840088249374"><ele>464.0</ele><time>2026-04-30T13:32:41Z</time></trkpt><trkpt lat="44.237697570686585" lon="11.494779771723211"><ele>463.99999999999994</ele><time>2026-04-30T13:32:42Z</time></trkpt><trkpt lat="44.237770008743794" lon="11.49472560918942"><ele>464.0</ele><time>2026-04-30T13:32:43Z</time></trkpt><trkpt lat="44.237851120054366" lon="11.494669901356017"><ele>464.0</ele><time>2026-04-30T13:32:44Z</time></trkpt><trkpt lat="44.23793965971142" lon="11.494624113326745"><ele>464.0</ele><time>2026-04-30T13:32:45Z</time></trkpt><trkpt lat="44.23801326489052" lon="11.494574526883767"><ele>463.99999999999994</ele><time>2026-04-30T13:32:46Z</time></trkpt><trkpt lat="44.23807599605106" lon="11.494526280386323"><ele>464.0</ele><time>2026-04-30T13:32:47Z</time></trkpt><trkpt lat="44.23813973771241" lon="11.494489945745945"><ele>463.6</ele><time>2026-04-30T13:32:48Z</time></trkpt><trkpt lat="44.23826651272963" lon="11.494534495796554"><ele>463.2</ele><time>2026-04-30T13:32:50Z</time></trkpt><trkpt lat="44.238327345169424" lon="11.494594580716806"><ele>462.80000000000007</ele><time>2026-04-30T13:32:51Z</time></trkpt><trkpt lat="44.238383814560414" lon="11.494662065432134"><ele>462.40000000000003</ele><time>2026-04-30T13:32:52Z</time></trkpt><trkpt lat="44.23850139673588" lon="11.494681994765312"><ele>462.0</ele><time>2026-04-30T13:32:54Z</time></trkpt><trkpt lat="44.23862777525334" lon="11.49469044002699"><ele>462.0</ele><time>2026-04-30T13:32:56Z</time></trkpt><trkpt lat="44.23869438482716" lon="11.494700077659735"><ele>462.0</ele><time>2026-04-30T13:32:57Z</time></trkpt><trkpt lat="44.23876032375581" lon="11.494710652524928"><ele>462.0</ele><time>2026-04-30T13:32:58Z</time></trkpt><trkpt lat="44.23882970431425" lon="11.494716353848034"><ele>462.0</ele><time>2026-04-30T13:32:59Z</time></trkpt><trkpt lat="44.23890043707977" lon="11.494720111775138"><ele>462.0</ele><time>2026-04-30T13:33:00Z</time></trkpt><trkpt lat="44.2389705334029" lon="11.494725544570503"><ele>462.0</ele><time>2026-04-30T13:33:01Z</time></trkpt><trkpt lat="44.2390430230902" lon="11.494731108761505"><ele>462.0</ele><time>2026-04-30T13:33:02Z</time></trkpt><trkpt lat="44.23911702361254" lon="11.494738572689947"><ele>462.42857142857144</ele><time>2026-04-30T13:33:03Z</time></trkpt><trkpt lat="44.23918725252799" lon="11.49474899082765"><ele>462.8571428571429</ele><time>2026-04-30T13:33:04Z</time></trkpt><trkpt lat="44.239255497191756" lon="11.494765159207029"><ele>463.2857142857143</ele><time>2026-04-30T13:33:05Z</time></trkpt><trkpt lat="44.23931759305772" lon="11.494788903203183"><ele>463.7142857142857</ele><time>2026-04-30T13:33:06Z</time></trkpt><trkpt lat="44.23938600791153" lon="11.494810187469032"><ele>464.14285714285717</ele><time>2026-04-30T13:33:07Z</time></trkpt><trkpt lat="44.239455747825815" lon="11.494814528525461"><ele>464.57142857142856</ele><time>2026-04-30T13:33:08Z</time></trkpt><trkpt lat="44.239528408608166" lon="11.49482360553094"><ele>465.0</ele><time>2026-04-30T13:33:09Z</time></trkpt><trkpt lat="44.239604995681695" lon="11.494833587074814"><ele>465.0</ele><time>2026-04-30T13:33:10Z</time></trkpt><trkpt lat="44.23968169447361" lon="11.494826173296996"><ele>465.0</ele><time>2026-04-30T13:33:11Z</time></trkpt><trkpt lat="44.23974855377157" lon="11.494793049969369"><ele>465.0</ele><time>2026-04-30T13:33:12Z</time></trkpt><trkpt lat="44.23981257534606" lon="11.494738190442106"><ele>465.0</ele><time>2026-04-30T13:33:13Z</time></trkpt><trkpt lat="44.23988333483043" lon="11.494666717897738"><ele>465.0</ele><time>2026-04-30T13:33:14Z</time></trkpt><trkpt lat="44.23994086030942" lon="11.49457511881042"><ele>465.0</ele><time>2026-04-30T13:33:15Z</time></trkpt><trkpt lat="44.23998023378078" lon="11.494480041211176"><ele>466.0</ele><time>2026-04-30T13:33:16Z</time></trkpt><trkpt lat="44.24001961993001" lon="11.494397490245616"><ele>467.0</ele><time>2026-04-30T13:33:17Z</time></trkpt><trkpt lat="44.24008213644498" lon="11.494347173005028"><ele>468.0</ele><time>2026-04-30T13:33:18Z</time></trkpt><trkpt lat="44.24013300019841" lon="11.494287573017445"><ele>469.0</ele><time>2026-04-30T13:33:19Z</time></trkpt><trkpt lat="44.24025066287161" lon="11.4941661536184"><ele>470.0</ele><time>2026-04-30T13:33:21Z</time></trkpt><trkpt lat="44.24032176580102" lon="11.494085734465102"><ele>471.0</ele><time>2026-04-30T13:33:22Z</time></trkpt><trkpt lat="44.24039415716285" lon="11.493966901321693"><ele>471.0</ele><time>2026-04-30T13:33:23Z</time></trkpt><trkpt lat="44.24046470846247" lon="11.493875310748471"><ele>471.0</ele><time>2026-04-30T13:33:24Z</time></trkpt><trkpt lat="44.24052325547098" lon="11.49377571493166"><ele>471.0</ele><time>2026-04-30T13:33:25Z</time></trkpt><trkpt lat="44.24058044499232" lon="11.493688565179937"><ele>471.0</ele><time>2026-04-30T13:33:26Z</time></trkpt><trkpt lat="44.240650833244366" lon="11.493591136281408"><ele>471.0</ele><time>2026-04-30T13:33:27Z</time></trkpt><trkpt lat="44.24071201338878" lon="11.493463827646194"><ele>471.6</ele><time>2026-04-30T13:33:28Z</time></trkpt><trkpt lat="44.24076105992294" lon="11.493339165556465"><ele>472.20000000000005</ele><time>2026-04-30T13:33:29Z</time></trkpt><trkpt lat="44.240803983611954" lon="11.493213623439749"><ele>472.79999999999995</ele><time>2026-04-30T13:33:30Z</time></trkpt><trkpt lat="44.240843679952526" lon="11.493098035334155"><ele>473.4</ele><time>2026-04-30T13:33:31Z</time></trkpt><trkpt lat="44.24088866187459" lon="11.492981109843114"><ele>474.0</ele><time>2026-04-30T13:33:33Z</time></trkpt><trkpt lat="44.240961985086535" lon="11.492907810211399"><ele>474.0</ele><time>2026-04-30T13:33:36Z</time></trkpt><trkpt lat="44.241054580302155" lon="11.49290213903803"><ele>474.0</ele><time>2026-04-30T13:33:38Z</time></trkpt><trkpt lat="44.24110662688747" lon="11.493001903997651"><ele>474.0</ele><time>2026-04-30T13:33:40Z</time></trkpt><trkpt lat="44.241181210433176" lon="11.493046069709505"><ele>474.0</ele><time>2026-04-30T13:33:43Z</time></trkpt><trkpt lat="44.241222452240436" lon="11.492934295440326"><ele>474.0</ele><time>2026-04-30T13:33:46Z</time></trkpt><trkpt lat="44.24127434240725" lon="11.492813380140921"><ele>474.0</ele><time>2026-04-30T13:33:48Z</time></trkpt><trkpt lat="44.241337881505494" lon="11.492726050243505"><ele>474.0</ele><time>2026-04-30T13:33:50Z</time></trkpt><trkpt lat="44.24141597850884" lon="11.492648418880686"><ele>474.0</ele><time>2026-04-30T13:33:52Z</time></trkpt><trkpt lat="44.24146572929126" lon="11.492592510376383"><ele>474.0</ele><time>2026-04-30T13:33:53Z</time></trkpt><trkpt lat="44.24152341053703" lon="11.492527637625884"><ele>474.0</ele><time>2026-04-30T13:33:54Z</time></trkpt><trkpt lat="44.2415892569018" lon="11.492474222213712"><ele>474.0</ele><time>2026-04-30T13:33:55Z</time></trkpt><trkpt lat="44.24165591373129" lon="11.492383925483326"><ele>475.0</ele><time>2026-04-30T13:33:57Z</time></trkpt><trkpt lat="44.241677655525955" lon="11.492234662180433"><ele>476.0</ele><time>2026-04-30T13:34:00Z</time></trkpt><trkpt lat="44.241684649941114" lon="11.492139893016203"><ele>477.0</ele><time>2026-04-30T13:34:02Z</time></trkpt><trkpt lat="44.24168845625261" lon="11.491996567873809"><ele>478.0</ele><time>2026-04-30T13:34:05Z</time></trkpt><trkpt lat="44.241665250151776" lon="11.491858559961281"><ele>479.0</ele><time>2026-04-30T13:34:07Z</time></trkpt><trkpt lat="44.2415968484712" lon="11.491800936699388"><ele>480.16666666666663</ele><time>2026-04-30T13:34:10Z</time></trkpt><trkpt lat="44.24157792527877" lon="11.49170141562969"><ele>481.3333333333333</ele><time>2026-04-30T13:34:13Z</time></trkpt><trkpt lat="44.24159383686346" lon="11.491572825175965"><ele>482.5</ele><time>2026-04-30T13:34:16Z</time></trkpt><trkpt lat="44.241591161225244" lon="11.491451041662678"><ele>483.66666666666663</ele><time>2026-04-30T13:34:18Z</time></trkpt><trkpt lat="44.24163147602793" lon="11.491360898602112"><ele>484.8333333333333</ele><time>2026-04-30T13:34:20Z</time></trkpt><trkpt lat="44.24166460260953" lon="11.49126075492572"><ele>486.0</ele><time>2026-04-30T13:34:22Z</time></trkpt><trkpt lat="44.24174211086063" lon="11.49120575286475"><ele>486.6666666666667</ele><time>2026-04-30T13:34:25Z</time></trkpt><trkpt lat="44.24180569683174" lon="11.491212128496347"><ele>487.33333333333337</ele><time>2026-04-30T13:34:27Z</time></trkpt><trkpt lat="44.241892581208795" lon="11.491218877855852"><ele>488.0</ele><time>2026-04-30T13:34:29Z</time></trkpt><trkpt lat="44.24195816069452" lon="11.491207599391487"><ele>488.6666666666667</ele><time>2026-04-30T13:34:31Z</time></trkpt><trkpt lat="44.2420297919425" lon="11.491159491402838"><ele>489.33333333333337</ele><time>2026-04-30T13:34:33Z</time></trkpt><trkpt lat="44.242123159665745" lon="11.491204849566772"><ele>490.0</ele><time>2026-04-30T13:34:36Z</time></trkpt><trkpt lat="44.24220964398352" lon="11.491246868536699"><ele>489.33333333333337</ele><time>2026-04-30T13:34:38Z</time></trkpt><trkpt lat="44.242282313164964" lon="11.49126824163101"><ele>488.6666666666667</ele><time>2026-04-30T13:34:40Z</time></trkpt><trkpt lat="44.24237019055008" lon="11.491299940319596"><ele>488.0</ele><time>2026-04-30T13:34:42Z</time></trkpt><trkpt lat="44.24243635534818" lon="11.491294483137326"><ele>487.33333333333337</ele><time>2026-04-30T13:34:43Z</time></trkpt><trkpt lat="44.242542405127374" lon="11.491283898897873"><ele>486.6666666666667</ele><time>2026-04-30T13:34:45Z</time></trkpt><trkpt lat="44.24261511470625" lon="11.491266370079817"><ele>486.0</ele><time>2026-04-30T13:34:47Z</time></trkpt><trkpt lat="44.242841300887285" lon="11.491258351984834"><ele>490.6</ele><time>2026-04-30T13:34:54Z</time></trkpt><trkpt lat="44.24293711657382" lon="11.491227941456575"><ele>495.20000000000005</ele><time>2026-04-30T13:34:56Z</time></trkpt><trkpt lat="44.24299640727194" lon="11.491195702358741"><ele>499.79999999999995</ele><time>2026-04-30T13:34:57Z</time></trkpt><trkpt lat="44.24307313157132" lon="11.491140000465599"><ele>504.4</ele><time>2026-04-30T13:34:59Z</time></trkpt><trkpt lat="44.24315294994798" lon="11.49104374887069"><ele>509.0</ele><time>2026-04-30T13:35:02Z</time></trkpt><trkpt lat="44.24323473526349" lon="11.49096671279017"><ele>509.79999999999995</ele><time>2026-04-30T13:35:04Z</time></trkpt><trkpt lat="44.2432953885677" lon="11.49092442366602"><ele>510.59999999999997</ele><time>2026-04-30T13:35:06Z</time></trkpt><trkpt lat="44.24342800383908" lon="11.490863368623364"><ele>511.4</ele><time>2026-04-30T13:35:08Z</time></trkpt><trkpt lat="44.24349215391981" lon="11.490842073129853"><ele>512.1999999999999</ele><time>2026-04-30T13:35:09Z</time></trkpt><trkpt lat="44.24360795505902" lon="11.490822649641656"><ele>513.0</ele><time>2026-04-30T13:35:11Z</time></trkpt><trkpt lat="44.24368005900493" lon="11.490800813007631"><ele>513.0</ele><time>2026-04-30T13:35:12Z</time></trkpt><trkpt lat="44.243806433457955" lon="11.490786214741664"><ele>513.0</ele><time>2026-04-30T13:35:14Z</time></trkpt><trkpt lat="44.24388463454022" lon="11.490821117884026"><ele>513.0</ele><time>2026-04-30T13:35:16Z</time></trkpt><trkpt lat="44.243994253514416" lon="11.490822592260315"><ele>513.0</ele><time>2026-04-30T13:35:18Z</time></trkpt><trkpt lat="44.24407018814441" lon="11.490791182184362"><ele>513.0</ele><time>2026-04-30T13:35:20Z</time></trkpt><trkpt lat="44.244143613066164" lon="11.490798296657585"><ele>512.0</ele><time>2026-04-30T13:35:29Z</time></trkpt><trkpt lat="44.24421757837002" lon="11.490792394777095"><ele>510.99999999999994</ele><time>2026-04-30T13:35:31Z</time></trkpt><trkpt lat="44.244317783782066" lon="11.490752542193148"><ele>509.99999999999994</ele><time>2026-04-30T13:35:33Z</time></trkpt><trkpt lat="44.24443301289577" lon="11.49069405657717"><ele>509.0</ele><time>2026-04-30T13:35:35Z</time></trkpt><trkpt lat="44.244509399280695" lon="11.490661635645207"><ele>508.0</ele><time>2026-04-30T13:35:36Z</time></trkpt><trkpt lat="44.24458201163719" lon="11.490631672301266"><ele>508.0</ele><time>2026-04-30T13:35:37Z</time></trkpt><trkpt lat="44.244666772253815" lon="11.490603456574988"><ele>507.99999999999994</ele><time>2026-04-30T13:35:38Z</time></trkpt><trkpt lat="44.2447433027576" lon="11.490600687693133"><ele>507.99999999999994</ele><time>2026-04-30T13:35:39Z</time></trkpt><trkpt lat="44.24483118266569" lon="11.490574290594006"><ele>508.0</ele><time>2026-04-30T13:35:40Z</time></trkpt><trkpt lat="44.24489822567555" lon="11.490523857451123"><ele>508.0</ele><time>2026-04-30T13:35:41Z</time></trkpt><trkpt lat="44.245030981360124" lon="11.490414795947297"><ele>510.6666666666667</ele><time>2026-04-30T13:35:43Z</time></trkpt><trkpt lat="44.245088961182994" lon="11.490338775850388"><ele>513.3333333333334</ele><time>2026-04-30T13:35:44Z</time></trkpt><trkpt lat="44.245147703847" lon="11.490244856037586"><ele>516.0</ele><time>2026-04-30T13:35:45Z</time></trkpt><trkpt lat="44.24520413314588" lon="11.490167179896815"><ele>518.6666666666666</ele><time>2026-04-30T13:35:46Z</time></trkpt><trkpt lat="44.245258153813985" lon="11.490097606879228"><ele>521.3333333333333</ele><time>2026-04-30T13:35:47Z</time></trkpt><trkpt lat="44.24530861494418" lon="11.490034940617571"><ele>524.0</ele><time>2026-04-30T13:35:48Z</time></trkpt><trkpt lat="44.24539691933259" lon="11.489946134547258"><ele>524.0</ele><time>2026-04-30T13:35:50Z</time></trkpt><trkpt lat="44.24544504141496" lon="11.489855223285991"><ele>524.0</ele><time>2026-04-30T13:35:52Z</time></trkpt><trkpt lat="44.24550331114568" lon="11.489710051649974"><ele>524.0</ele><time>2026-04-30T13:35:54Z</time></trkpt><trkpt lat="44.24557312578405" lon="11.489608065257833"><ele>524.0</ele><time>2026-04-30T13:35:56Z</time></trkpt><trkpt lat="44.245626349630385" lon="11.489557755539957"><ele>524.0</ele><time>2026-04-30T13:35:57Z</time></trkpt><trkpt lat="44.24567467452637" lon="11.489499742802124"><ele>524.0</ele><time>2026-04-30T13:35:58Z</time></trkpt><trkpt lat="44.24574404420334" lon="11.489376693054716"><ele>521.0</ele><time>2026-04-30T13:36:00Z</time></trkpt><trkpt lat="44.245802317138896" lon="11.489248244903841"><ele>518.0</ele><time>2026-04-30T13:36:02Z</time></trkpt><trkpt lat="44.24583130818826" lon="11.489167665988417"><ele>515.0</ele><time>2026-04-30T13:36:03Z</time></trkpt><trkpt lat="44.24586691289105" lon="11.489089939765263"><ele>512.0</ele><time>2026-04-30T13:36:04Z</time></trkpt><trkpt lat="44.245917790969656" lon="11.488924923559347"><ele>508.99999999999994</ele><time>2026-04-30T13:36:06Z</time></trkpt><trkpt lat="44.24593046012393" lon="11.488821831179035"><ele>506.0</ele><time>2026-04-30T13:36:07Z</time></trkpt><trkpt lat="44.245960141389894" lon="11.488737207160469"><ele>504.0</ele><time>2026-04-30T13:36:08Z</time></trkpt><trkpt lat="44.245986954896296" lon="11.488654038096687"><ele>502.0</ele><time>2026-04-30T13:36:09Z</time></trkpt><trkpt lat="44.24598538545386" lon="11.488501984107302"><ele>500.0</ele><time>2026-04-30T13:36:11Z</time></trkpt><trkpt lat="44.245946927173314" lon="11.488362555297325"><ele>498.0</ele><time>2026-04-30T13:36:13Z</time></trkpt><trkpt lat="44.24586366421964" lon="11.488258221799377"><ele>496.0</ele><time>2026-04-30T13:36:15Z</time></trkpt><trkpt lat="44.245786255690504" lon="11.4881941792898"><ele>496.0</ele><time>2026-04-30T13:36:16Z</time></trkpt><trkpt lat="44.245678185380356" lon="11.48812133497861"><ele>496.0</ele><time>2026-04-30T13:36:17Z</time></trkpt><trkpt lat="44.24558163886635" lon="11.488067958626615"><ele>496.0</ele><time>2026-04-30T13:36:18Z</time></trkpt><trkpt lat="44.24549999541461" lon="11.48802449496352"><ele>496.0</ele><time>2026-04-30T13:36:19Z</time></trkpt><trkpt lat="44.245433856276065" lon="11.487987555715373"><ele>496.0</ele><time>2026-04-30T13:36:20Z</time></trkpt><trkpt lat="44.245365139722296" lon="11.487952067153444"><ele>494.50000000000006</ele><time>2026-04-30T13:36:21Z</time></trkpt><trkpt lat="44.24529690971707" lon="11.487920202782316"><ele>493.0</ele><time>2026-04-30T13:36:22Z</time></trkpt><trkpt lat="44.24521798063869" lon="11.487885113430796"><ele>491.5</ele><time>2026-04-30T13:36:23Z</time></trkpt><trkpt lat="44.24513329025204" lon="11.487858222999431"><ele>490.0</ele><time>2026-04-30T13:36:24Z</time></trkpt><trkpt lat="44.245041215938535" lon="11.487847552478055"><ele>488.50000000000006</ele><time>2026-04-30T13:36:25Z</time></trkpt><trkpt lat="44.24493168858004" lon="11.487823591158296"><ele>487.0</ele><time>2026-04-30T13:36:26Z</time></trkpt><trkpt lat="44.244810024970846" lon="11.487786202235732"><ele>487.1666666666667</ele><time>2026-04-30T13:36:27Z</time></trkpt><trkpt lat="44.244712061788334" lon="11.487739203411943"><ele>487.33333333333337</ele><time>2026-04-30T13:36:28Z</time></trkpt><trkpt lat="44.244628715040506" lon="11.487693075212844"><ele>487.5</ele><time>2026-04-30T13:36:29Z</time></trkpt><trkpt lat="44.24455580383695" lon="11.48766100664506"><ele>487.66666666666663</ele><time>2026-04-30T13:36:30Z</time></trkpt><trkpt lat="44.24448314097713" lon="11.48763843444826"><ele>487.8333333333333</ele><time>2026-04-30T13:36:31Z</time></trkpt><trkpt lat="44.244408415064974" lon="11.487619451380068"><ele>488.0</ele><time>2026-04-30T13:36:32Z</time></trkpt><trkpt lat="44.24433227176548" lon="11.487592379759509"><ele>487.99999999999994</ele><time>2026-04-30T13:36:33Z</time></trkpt><trkpt lat="44.24426645113039" lon="11.487559173618017"><ele>488.0</ele><time>2026-04-30T13:36:34Z</time></trkpt><trkpt lat="44.244200386959875" lon="11.487516162447726"><ele>488.0</ele><time>2026-04-30T13:36:35Z</time></trkpt><trkpt lat="44.244138278806794" lon="11.487460039065171"><ele>488.0</ele><time>2026-04-30T13:36:36Z</time></trkpt><trkpt lat="44.24407290732189" lon="11.487389876652427"><ele>487.99999999999994</ele><time>2026-04-30T13:36:37Z</time></trkpt><trkpt lat="44.24400743810546" lon="11.487312397532708"><ele>488.0</ele><time>2026-04-30T13:36:38Z</time></trkpt><trkpt lat="44.24394516304584" lon="11.487221027311667"><ele>488.66666666666663</ele><time>2026-04-30T13:36:39Z</time></trkpt><trkpt lat="44.243883179246005" lon="11.487132804417127"><ele>489.3333333333333</ele><time>2026-04-30T13:36:40Z</time></trkpt><trkpt lat="44.24382701149656" lon="11.487050417208927"><ele>490.0</ele><time>2026-04-30T13:36:41Z</time></trkpt><trkpt lat="44.243769976844284" lon="11.486959402489632"><ele>490.66666666666663</ele><time>2026-04-30T13:36:42Z</time></trkpt><trkpt lat="44.2437159574963" lon="11.486868132693903"><ele>491.3333333333333</ele><time>2026-04-30T13:36:43Z</time></trkpt><trkpt lat="44.24367583931439" lon="11.486780923062065"><ele>492.0</ele><time>2026-04-30T13:36:44Z</time></trkpt><trkpt lat="44.243645064734444" lon="11.486702481835714"><ele>492.00000000000006</ele><time>2026-04-30T13:36:45Z</time></trkpt><trkpt lat="44.24360205570045" lon="11.486633306226596"><ele>492.0</ele><time>2026-04-30T13:36:46Z</time></trkpt><trkpt lat="44.24354014740118" lon="11.48657191785919"><ele>492.00000000000006</ele><time>2026-04-30T13:36:47Z</time></trkpt><trkpt lat="44.243479647084655" lon="11.486510157125075"><ele>492.00000000000006</ele><time>2026-04-30T13:36:48Z</time></trkpt><trkpt lat="44.2434126788378" lon="11.486454592113057"><ele>492.0</ele><time>2026-04-30T13:36:49Z</time></trkpt><trkpt lat="44.24334202362718" lon="11.48641677459044"><ele>492.00000000000006</ele><time>2026-04-30T13:36:50Z</time></trkpt><trkpt lat="44.24326667356572" lon="11.486391618974816"><ele>492.00000000000006</ele><time>2026-04-30T13:36:51Z</time></trkpt><trkpt lat="44.243195561560775" lon="11.48635694410856"><ele>490.28571428571433</ele><time>2026-04-30T13:36:52Z</time></trkpt><trkpt lat="44.24312597030552" lon="11.486322938636798"><ele>488.57142857142856</ele><time>2026-04-30T13:36:53Z</time></trkpt><trkpt lat="44.24306673523643" lon="11.48628651681492"><ele>486.8571428571429</ele><time>2026-04-30T13:36:54Z</time></trkpt><trkpt lat="44.243000408979064" lon="11.486251205784928"><ele>485.14285714285717</ele><time>2026-04-30T13:36:55Z</time></trkpt><trkpt lat="44.242934391665344" lon="11.486199415058707"><ele>483.42857142857144</ele><time>2026-04-30T13:36:56Z</time></trkpt><trkpt lat="44.242878626183305" lon="11.48612412834486"><ele>481.7142857142857</ele><time>2026-04-30T13:36:57Z</time></trkpt><trkpt lat="44.24283502847339" lon="11.48604173876829"><ele>480.0</ele><time>2026-04-30T13:36:58Z</time></trkpt><trkpt lat="44.24280231567661" lon="11.485952147224513"><ele>479.8333333333333</ele><time>2026-04-30T13:36:59Z</time></trkpt><trkpt lat="44.24275966322399" lon="11.485863769612276"><ele>479.66666666666663</ele><time>2026-04-30T13:37:00Z</time></trkpt><trkpt lat="44.24271880096519" lon="11.485790847803647"><ele>479.5</ele><time>2026-04-30T13:37:01Z</time></trkpt><trkpt lat="44.24269331407441" lon="11.485669899117136"><ele>479.3333333333333</ele><time>2026-04-30T13:37:03Z</time></trkpt><trkpt lat="44.24272479692804" lon="11.48550269033546"><ele>479.16666666666663</ele><time>2026-04-30T13:37:05Z</time></trkpt><trkpt lat="44.242722503454594" lon="11.485404716652592"><ele>479.0</ele><time>2026-04-30T13:37:06Z</time></trkpt><trkpt lat="44.2427078969441" lon="11.485315734286639"><ele>479.66666666666663</ele><time>2026-04-30T13:37:07Z</time></trkpt><trkpt lat="44.24268358064347" lon="11.485222636473425"><ele>480.3333333333333</ele><time>2026-04-30T13:37:08Z</time></trkpt><trkpt lat="44.24266848262812" lon="11.485118472337183"><ele>481.0</ele><time>2026-04-30T13:37:09Z</time></trkpt><trkpt lat="44.24266404226787" lon="11.485000140920214"><ele>481.66666666666663</ele><time>2026-04-30T13:37:10Z</time></trkpt><trkpt lat="44.242656328625635" lon="11.484871254885348"><ele>482.3333333333333</ele><time>2026-04-30T13:37:11Z</time></trkpt><trkpt lat="44.242641188939906" lon="11.484743930605859"><ele>483.0</ele><time>2026-04-30T13:37:12Z</time></trkpt><trkpt lat="44.24261997303984" lon="11.484589638094938"><ele>483.4</ele><time>2026-04-30T13:37:13Z</time></trkpt><trkpt lat="44.24257976097455" lon="11.48445119682864"><ele>483.79999999999995</ele><time>2026-04-30T13:37:14Z</time></trkpt><trkpt lat="44.24252884640959" lon="11.484333137671731"><ele>484.2</ele><time>2026-04-30T13:37:15Z</time></trkpt><trkpt lat="44.24248281894591" lon="11.484236658245521"><ele>484.6</ele><time>2026-04-30T13:37:16Z</time></trkpt><trkpt lat="44.242451538021214" lon="11.48413234028169"><ele>485.0</ele><time>2026-04-30T13:37:17Z</time></trkpt><trkpt lat="44.2424492853597" lon="11.484017015832926"><ele>485.0</ele><time>2026-04-30T13:37:18Z</time></trkpt><trkpt lat="44.242452505392706" lon="11.483848735219201"><ele>485.0</ele><time>2026-04-30T13:37:19Z</time></trkpt><trkpt lat="44.242452149273426" lon="11.483707838194462"><ele>485.0</ele><time>2026-04-30T13:37:20Z</time></trkpt><trkpt lat="44.24245916908109" lon="11.483574773259503"><ele>485.0</ele><time>2026-04-30T13:37:21Z</time></trkpt><trkpt lat="44.24245539202388" lon="11.483439482094907"><ele>485.0</ele><time>2026-04-30T13:37:22Z</time></trkpt><trkpt lat="44.24243741212534" lon="11.483328017241291"><ele>485.4</ele><time>2026-04-30T13:37:23Z</time></trkpt><trkpt lat="44.242405338128584" lon="11.483232346636159"><ele>485.8</ele><time>2026-04-30T13:37:24Z</time></trkpt><trkpt lat="44.24237717055967" lon="11.483128536355961"><ele>486.20000000000005</ele><time>2026-04-30T13:37:25Z</time></trkpt><trkpt lat="44.2422821721576" lon="11.482984837702615"><ele>486.6</ele><time>2026-04-30T13:37:27Z</time></trkpt><trkpt lat="44.242230841708604" lon="11.482871893814076"><ele>487.0</ele><time>2026-04-30T13:37:28Z</time></trkpt><trkpt lat="44.242167315020716" lon="11.482783466624095"><ele>484.83333333333337</ele><time>2026-04-30T13:37:29Z</time></trkpt><trkpt lat="44.24210437485377" lon="11.48272282914254"><ele>482.6666666666667</ele><time>2026-04-30T13:37:30Z</time></trkpt><trkpt lat="44.24205268890827" lon="11.48264428927908"><ele>480.5</ele><time>2026-04-30T13:37:31Z</time></trkpt><trkpt lat="44.24199850090006" lon="11.482554280405799"><ele>478.33333333333337</ele><time>2026-04-30T13:37:32Z</time></trkpt><trkpt lat="44.24194078007279" lon="11.482456579844126"><ele>476.1666666666667</ele><time>2026-04-30T13:37:33Z</time></trkpt><trkpt lat="44.241900597489106" lon="11.48236822201858"><ele>474.0</ele><time>2026-04-30T13:37:34Z</time></trkpt><trkpt lat="44.241845103059525" lon="11.482277913688975"><ele>474.0</ele><time>2026-04-30T13:37:35Z</time></trkpt><trkpt lat="44.241764750528354" lon="11.482212363429696"><ele>474.0</ele><time>2026-04-30T13:37:36Z</time></trkpt><trkpt lat="44.24167096759836" lon="11.482166781418721"><ele>474.0</ele><time>2026-04-30T13:37:37Z</time></trkpt><trkpt lat="44.24156899947416" lon="11.482111602655467"><ele>474.0</ele><time>2026-04-30T13:37:38Z</time></trkpt><trkpt lat="44.241480202786136" lon="11.482066821794794"><ele>474.0</ele><time>2026-04-30T13:37:39Z</time></trkpt><trkpt lat="44.241405032009006" lon="11.482021014964806"><ele>475.8333333333333</ele><time>2026-04-30T13:37:40Z</time></trkpt><trkpt lat="44.24133339461063" lon="11.481966999494167"><ele>477.66666666666663</ele><time>2026-04-30T13:37:41Z</time></trkpt><trkpt lat="44.24126682587903" lon="11.481908255840965"><ele>479.5</ele><time>2026-04-30T13:37:42Z</time></trkpt><trkpt lat="44.241205964921576" lon="11.481831080969592"><ele>481.3333333333333</ele><time>2026-04-30T13:37:43Z</time></trkpt><trkpt lat="44.24114724130877" lon="11.48176471467814"><ele>483.16666666666663</ele><time>2026-04-30T13:37:44Z</time></trkpt><trkpt lat="44.24111110113285" lon="11.481690958304005"><ele>485.0</ele><time>2026-04-30T13:37:45Z</time></trkpt><trkpt lat="44.24101724785392" lon="11.481612893412239"><ele>485.0</ele><time>2026-04-30T13:37:47Z</time></trkpt><trkpt lat="44.24114009567549" lon="11.481538747650212"><ele>485.0</ele><time>2026-04-30T13:37:48Z</time></trkpt><trkpt lat="44.24108754378813" lon="11.481463904332655"><ele>485.0</ele><time>2026-04-30T13:37:52Z</time></trkpt><trkpt lat="44.24106118645807" lon="11.48119395064695"><ele>485.0</ele><time>2026-04-30T13:37:54Z</time></trkpt><trkpt lat="44.241013028820134" lon="11.481125272549356"><ele>485.3333333333333</ele><time>2026-04-30T13:37:56Z</time></trkpt><trkpt lat="44.24093739888199" lon="11.481128369578988"><ele>485.66666666666663</ele><time>2026-04-30T13:37:57Z</time></trkpt><trkpt lat="44.24089277907287" lon="11.481035488971536"><ele>486.0</ele><time>2026-04-30T13:37:58Z</time></trkpt><trkpt lat="44.24084047303954" lon="11.480947783239795"><ele>486.33333333333337</ele><time>2026-04-30T13:37:59Z</time></trkpt><trkpt lat="44.24077815190418" lon="11.48085785417159"><ele>486.6666666666667</ele><time>2026-04-30T13:38:00Z</time></trkpt><trkpt lat="44.24071137681265" lon="11.480759427916741"><ele>487.0</ele><time>2026-04-30T13:38:01Z</time></trkpt><trkpt lat="44.240641155765864" lon="11.480658238849546"><ele>485.6</ele><time>2026-04-30T13:38:02Z</time></trkpt><trkpt lat="44.24056409455025" lon="11.480556418990677"><ele>484.20000000000005</ele><time>2026-04-30T13:38:03Z</time></trkpt><trkpt lat="44.24048925310709" lon="11.480452405849306"><ele>482.8</ele><time>2026-04-30T13:38:04Z</time></trkpt><trkpt lat="44.24041008981338" lon="11.480345734459947"><ele>481.4</ele><time>2026-04-30T13:38:05Z</time></trkpt><trkpt lat="44.240327576311756" lon="11.4802353687997"><ele>480.0</ele><time>2026-04-30T13:38:06Z</time></trkpt><trkpt lat="44.24025335705176" lon="11.480127329651802"><ele>480.0</ele><time>2026-04-30T13:38:07Z</time></trkpt><trkpt lat="44.2401712833443" lon="11.48001666657761"><ele>480.0</ele><time>2026-04-30T13:38:08Z</time></trkpt><trkpt lat="44.24008825868997" lon="11.479891817837283"><ele>480.0</ele><time>2026-04-30T13:38:09Z</time></trkpt><trkpt lat="44.23999968980855" lon="11.47975692216499"><ele>480.0</ele><time>2026-04-30T13:38:10Z</time></trkpt><trkpt lat="44.2399115774422" lon="11.479616330073592"><ele>480.75</ele><time>2026-04-30T13:38:11Z</time></trkpt><trkpt lat="44.23981226519709" lon="11.479474764836963"><ele>481.5</ele><time>2026-04-30T13:38:12Z</time></trkpt><trkpt lat="44.239697369371235" lon="11.479348599297714"><ele>482.25</ele><time>2026-04-30T13:38:13Z</time></trkpt><trkpt lat="44.2395774296221" lon="11.479244048674033"><ele>483.0</ele><time>2026-04-30T13:38:14Z</time></trkpt><trkpt lat="44.23945299387319" lon="11.479152173528737"><ele>483.0</ele><time>2026-04-30T13:38:15Z</time></trkpt><trkpt lat="44.2393169665351" lon="11.479071679184136"><ele>483.0</ele><time>2026-04-30T13:38:16Z</time></trkpt><trkpt lat="44.23918484367349" lon="11.479005210191906"><ele>483.0</ele><time>2026-04-30T13:38:17Z</time></trkpt><trkpt lat="44.23906140299728" lon="11.478941267655483"><ele>483.0</ele><time>2026-04-30T13:38:18Z</time></trkpt><trkpt lat="44.23894695601427" lon="11.478884174664808"><ele>482.5</ele><time>2026-04-30T13:38:19Z</time></trkpt><trkpt lat="44.238859212257545" lon="11.47882402218867"><ele>482.0</ele><time>2026-04-30T13:38:20Z</time></trkpt><trkpt lat="44.238800048054514" lon="11.478759626497457"><ele>481.5</ele><time>2026-04-30T13:38:21Z</time></trkpt><trkpt lat="44.238754224567714" lon="11.478672163293018"><ele>481.0</ele><time>2026-04-30T13:38:22Z</time></trkpt><trkpt lat="44.23870418337608" lon="11.47858010972509"><ele>480.5</ele><time>2026-04-30T13:38:23Z</time></trkpt><trkpt lat="44.238652344730895" lon="11.478509518701532"><ele>480.0</ele><time>2026-04-30T13:38:24Z</time></trkpt><trkpt lat="44.23860359437231" lon="11.478397779141153"><ele>480.0</ele><time>2026-04-30T13:38:26Z</time></trkpt><trkpt lat="44.23868989802977" lon="11.47827166149826"><ele>480.0</ele><time>2026-04-30T13:38:28Z</time></trkpt><trkpt lat="44.23879035535162" lon="11.4782008412772"><ele>480.0</ele><time>2026-04-30T13:38:29Z</time></trkpt><trkpt lat="44.238884400634326" lon="11.4780986227317"><ele>480.0</ele><time>2026-04-30T13:38:30Z</time></trkpt><trkpt lat="44.23898939061596" lon="11.477973878568417"><ele>478.75</ele><time>2026-04-30T13:38:31Z</time></trkpt><trkpt lat="44.239094750587896" lon="11.477858583329358"><ele>477.5</ele><time>2026-04-30T13:38:32Z</time></trkpt><trkpt lat="44.23919463173909" lon="11.477755018889013"><ele>476.25</ele><time>2026-04-30T13:38:33Z</time></trkpt><trkpt lat="44.23928837585675" lon="11.477652250689685"><ele>475.0</ele><time>2026-04-30T13:38:34Z</time></trkpt><trkpt lat="44.23937455269593" lon="11.477553410944259"><ele>475.0</ele><time>2026-04-30T13:38:35Z</time></trkpt><trkpt lat="44.23946705840629" lon="11.477474801773509"><ele>475.0</ele><time>2026-04-30T13:38:36Z</time></trkpt><trkpt lat="44.239550620302595" lon="11.477391087498855"><ele>475.0</ele><time>2026-04-30T13:38:37Z</time></trkpt><trkpt lat="44.239618434037475" lon="11.477301025357932"><ele>475.0</ele><time>2026-04-30T13:38:38Z</time></trkpt><trkpt lat="44.239685688282584" lon="11.477207207765263"><ele>475.0</ele><time>2026-04-30T13:38:39Z</time></trkpt><trkpt lat="44.239747072649976" lon="11.477085006912223"><ele>473.6</ele><time>2026-04-30T13:38:40Z</time></trkpt><trkpt lat="44.23981468843698" lon="11.476975060883472"><ele>472.2</ele><time>2026-04-30T13:38:41Z</time></trkpt><trkpt lat="44.23987965319265" lon="11.476876914154218"><ele>470.79999999999995</ele><time>2026-04-30T13:38:42Z</time></trkpt><trkpt lat="44.23993003719046" lon="11.476791116485016"><ele>469.4</ele><time>2026-04-30T13:38:43Z</time></trkpt><trkpt lat="44.23997248648779" lon="11.476717334891509"><ele>468.0</ele><time>2026-04-30T13:38:44Z</time></trkpt><trkpt lat="44.24004804366592" lon="11.476594186679883"><ele>468.0</ele><time>2026-04-30T13:38:46Z</time></trkpt><trkpt lat="44.24011166885246" lon="11.476459049497455"><ele>467.99999999999994</ele><time>2026-04-30T13:38:48Z</time></trkpt><trkpt lat="44.240158786814355" lon="11.47639176654279"><ele>467.99999999999994</ele><time>2026-04-30T13:38:49Z</time></trkpt><trkpt lat="44.24024236668741" lon="11.476320162056899"><ele>468.0</ele><time>2026-04-30T13:38:51Z</time></trkpt><trkpt lat="44.240266722044815" lon="11.47622084353536"><ele>468.0</ele><time>2026-04-30T13:38:53Z</time></trkpt><trkpt lat="44.24029688085274" lon="11.476074679313996"><ele>465.5</ele><time>2026-04-30T13:38:55Z</time></trkpt><trkpt lat="44.24036677479211" lon="11.476021951715774"><ele>463.0</ele><time>2026-04-30T13:38:56Z</time></trkpt><trkpt lat="44.240451603316124" lon="11.476016345796006"><ele>460.5</ele><time>2026-04-30T13:38:57Z</time></trkpt><trkpt lat="44.24055103440039" lon="11.476050011514825"><ele>458.0</ele><time>2026-04-30T13:38:58Z</time></trkpt><trkpt lat="44.240634773373905" lon="11.476092619955383"><ele>455.5</ele><time>2026-04-30T13:38:59Z</time></trkpt><trkpt lat="44.24071764221376" lon="11.476131095115074"><ele>453.0</ele><time>2026-04-30T13:39:00Z</time></trkpt><trkpt lat="44.24079302347957" lon="11.47615468806896"><ele>452.6666666666667</ele><time>2026-04-30T13:39:01Z</time></trkpt><trkpt lat="44.24086748003637" lon="11.476163949090905"><ele>452.33333333333337</ele><time>2026-04-30T13:39:02Z</time></trkpt><trkpt lat="44.24093674924093" lon="11.476182259326185"><ele>452.0</ele><time>2026-04-30T13:39:03Z</time></trkpt><trkpt lat="44.24100353308023" lon="11.476225014684479"><ele>451.6666666666667</ele><time>2026-04-30T13:39:04Z</time></trkpt><trkpt lat="44.24106040485218" lon="11.476286391486797"><ele>451.33333333333337</ele><time>2026-04-30T13:39:05Z</time></trkpt><trkpt lat="44.241115031946016" lon="11.476341101231606"><ele>451.0</ele><time>2026-04-30T13:39:06Z</time></trkpt><trkpt lat="44.24120487789738" lon="11.476287795871082"><ele>451.00000000000006</ele><time>2026-04-30T13:39:08Z</time></trkpt><trkpt lat="44.241234142054864" lon="11.476198688202127"><ele>451.0</ele><time>2026-04-30T13:39:09Z</time></trkpt><trkpt lat="44.24123724846483" lon="11.476084751453783"><ele>451.0</ele><time>2026-04-30T13:39:10Z</time></trkpt><trkpt lat="44.24122916631811" lon="11.475948171249552"><ele>451.0</ele><time>2026-04-30T13:39:11Z</time></trkpt><trkpt lat="44.24122037810614" lon="11.47582242509778"><ele>451.00000000000006</ele><time>2026-04-30T13:39:12Z</time></trkpt><trkpt lat="44.24121219690395" lon="11.475697187340815"><ele>451.0</ele><time>2026-04-30T13:39:13Z</time></trkpt><trkpt lat="44.24120983670884" lon="11.47558079012008"><ele>451.0</ele><time>2026-04-30T13:39:14Z</time></trkpt><trkpt lat="44.241216023674" lon="11.475461818842984"><ele>451.0</ele><time>2026-04-30T13:39:15Z</time></trkpt><trkpt lat="44.241227819368945" lon="11.475329932669588"><ele>451.0</ele><time>2026-04-30T13:39:16Z</time></trkpt><trkpt lat="44.241239107010855" lon="11.475194904987438"><ele>451.0</ele><time>2026-04-30T13:39:17Z</time></trkpt><trkpt lat="44.24123395094239" lon="11.47505174802152"><ele>451.0</ele><time>2026-04-30T13:39:18Z</time></trkpt><trkpt lat="44.24120241795224" lon="11.474925566573535"><ele>448.50000000000006</ele><time>2026-04-30T13:39:19Z</time></trkpt><trkpt lat="44.24115415862803" lon="11.474829220580824"><ele>446.0</ele><time>2026-04-30T13:39:20Z</time></trkpt><trkpt lat="44.24109111974065" lon="11.474760707988333"><ele>443.5</ele><time>2026-04-30T13:39:21Z</time></trkpt><trkpt lat="44.24102302086626" lon="11.474719719510137"><ele>441.0</ele><time>2026-04-30T13:39:22Z</time></trkpt><trkpt lat="44.24096302612322" lon="11.474689835788666"><ele>438.50000000000006</ele><time>2026-04-30T13:39:23Z</time></trkpt><trkpt lat="44.24088680112809" lon="11.474584833159431"><ele>436.0</ele><time>2026-04-30T13:39:25Z</time></trkpt><trkpt lat="44.24091438684108" lon="11.474498064141246"><ele>433.83333333333337</ele><time>2026-04-30T13:39:26Z</time></trkpt><trkpt lat="44.24095976911392" lon="11.474420854113673"><ele>431.6666666666667</ele><time>2026-04-30T13:39:27Z</time></trkpt><trkpt lat="44.241043786018075" lon="11.47436339176951"><ele>429.5</ele><time>2026-04-30T13:39:28Z</time></trkpt><trkpt lat="44.241135108407285" lon="11.474334430396125"><ele>427.33333333333337</ele><time>2026-04-30T13:39:29Z</time></trkpt><trkpt lat="44.24122461668772" lon="11.474295768878006"><ele>425.1666666666667</ele><time>2026-04-30T13:39:30Z</time></trkpt><trkpt lat="44.241305766478995" lon="11.474272303165769"><ele>423.0</ele><time>2026-04-30T13:39:31Z</time></trkpt><trkpt lat="44.24139418542508" lon="11.474246481397174"><ele>420.79999999999995</ele><time>2026-04-30T13:39:32Z</time></trkpt><trkpt lat="44.24148316255296" lon="11.47422743189867"><ele>418.6</ele><time>2026-04-30T13:39:33Z</time></trkpt><trkpt lat="44.24157670337838" lon="11.47421188508001"><ele>416.4</ele><time>2026-04-30T13:39:34Z</time></trkpt><trkpt lat="44.24167337388095" lon="11.47419461453908"><ele>414.20000000000005</ele><time>2026-04-30T13:39:35Z</time></trkpt><trkpt lat="44.24176407375484" lon="11.474173117726904"><ele>412.0</ele><time>2026-04-30T13:39:36Z</time></trkpt><trkpt lat="44.24184488004745" lon="11.474148126293622"><ele>412.00000000000006</ele><time>2026-04-30T13:39:37Z</time></trkpt><trkpt lat="44.24191776960624" lon="11.474118303880774"><ele>412.0</ele><time>2026-04-30T13:39:38Z</time></trkpt><trkpt lat="44.24198311424081" lon="11.4740697555552"><ele>412.0</ele><time>2026-04-30T13:39:39Z</time></trkpt><trkpt lat="44.24203316328484" lon="11.473970260859344"><ele>412.0</ele><time>2026-04-30T13:39:40Z</time></trkpt><trkpt lat="44.242062320372035" lon="11.47384526890889"><ele>412.00000000000006</ele><time>2026-04-30T13:39:41Z</time></trkpt><trkpt lat="44.242083916891396" lon="11.473710642003777"><ele>412.0</ele><time>2026-04-30T13:39:42Z</time></trkpt><trkpt lat="44.24211511074428" lon="11.473582987560198"><ele>410.20000000000005</ele><time>2026-04-30T13:39:43Z</time></trkpt><trkpt lat="44.2421502585963" lon="11.47345182563823"><ele>408.4</ele><time>2026-04-30T13:39:44Z</time></trkpt><trkpt lat="44.24219219777885" lon="11.473313666855168"><ele>406.6</ele><time>2026-04-30T13:39:45Z</time></trkpt><trkpt lat="44.24224383117532" lon="11.473174770089981"><ele>404.79999999999995</ele><time>2026-04-30T13:39:46Z</time></trkpt><trkpt lat="44.242291365218875" lon="11.473037814394702"><ele>403.0</ele><time>2026-04-30T13:39:47Z</time></trkpt><trkpt lat="44.242338004462376" lon="11.472910675812315"><ele>402.4</ele><time>2026-04-30T13:39:48Z</time></trkpt><trkpt lat="44.24238816496402" lon="11.472791825278998"><ele>401.79999999999995</ele><time>2026-04-30T13:39:49Z</time></trkpt><trkpt lat="44.2424559450978" lon="11.472682361058162"><ele>401.2</ele><time>2026-04-30T13:39:50Z</time></trkpt><trkpt lat="44.24253988577352" lon="11.472585967543626"><ele>400.6</ele><time>2026-04-30T13:39:51Z</time></trkpt><trkpt lat="44.24263692158979" lon="11.472494503008438"><ele>400.0</ele><time>2026-04-30T13:39:52Z</time></trkpt><trkpt lat="44.24273426821403" lon="11.472429840282352"><ele>400.00000000000006</ele><time>2026-04-30T13:39:53Z</time></trkpt><trkpt lat="44.24282895063883" lon="11.472389343040277"><ele>400.0</ele><time>2026-04-30T13:39:54Z</time></trkpt><trkpt lat="44.24291483446505" lon="11.472386058821149"><ele>400.0</ele><time>2026-04-30T13:39:55Z</time></trkpt><trkpt lat="44.24299153486171" lon="11.472396461152574"><ele>400.0</ele><time>2026-04-30T13:39:56Z</time></trkpt><trkpt lat="44.24306021462961" lon="11.472383465919199"><ele>400.00000000000006</ele><time>2026-04-30T13:39:57Z</time></trkpt><trkpt lat="44.243113770850194" lon="11.47232707405816"><ele>400.0</ele><time>2026-04-30T13:39:58Z</time></trkpt><trkpt lat="44.24315891352653" lon="11.472241765781867"><ele>399.7142857142857</ele><time>2026-04-30T13:39:59Z</time></trkpt><trkpt lat="44.24319383813436" lon="11.472143083338473"><ele>399.42857142857144</ele><time>2026-04-30T13:40:00Z</time></trkpt><trkpt lat="44.24324008315664" lon="11.47207944819112"><ele>399.1428571428571</ele><time>2026-04-30T13:40:01Z</time></trkpt><trkpt lat="44.24330541426556" lon="11.472054444716328"><ele>398.8571428571429</ele><time>2026-04-30T13:40:02Z</time></trkpt><trkpt lat="44.243367206515046" lon="11.472077019112715"><ele>398.57142857142856</ele><time>2026-04-30T13:40:03Z</time></trkpt><trkpt lat="44.24342327085734" lon="11.472126719831573"><ele>398.2857142857143</ele><time>2026-04-30T13:40:04Z</time></trkpt><trkpt lat="44.24347570600656" lon="11.4721927130132"><ele>398.0</ele><time>2026-04-30T13:40:05Z</time></trkpt><trkpt lat="44.24351766267857" lon="11.472289474003633"><ele>397.99999999999994</ele><time>2026-04-30T13:40:06Z</time></trkpt><trkpt lat="44.24357522844991" lon="11.472351289068913"><ele>398.0</ele><time>2026-04-30T13:40:07Z</time></trkpt><trkpt lat="44.24361705921675" lon="11.472429189699238"><ele>398.0</ele><time>2026-04-30T13:40:08Z</time></trkpt><trkpt lat="44.24364511531463" lon="11.472529057837383"><ele>398.0</ele><time>2026-04-30T13:40:09Z</time></trkpt><trkpt lat="44.24368682047505" lon="11.472613905719934"><ele>397.99999999999994</ele><time>2026-04-30T13:40:10Z</time></trkpt><trkpt lat="44.24377532901787" lon="11.472667474092836"><ele>398.0</ele><time>2026-04-30T13:40:11Z</time></trkpt><trkpt lat="44.24386206220625" lon="11.472648349531603"><ele>397.99999999999994</ele><time>2026-04-30T13:40:12Z</time></trkpt><trkpt lat="44.243934969794104" lon="11.472645446782574"><ele>398.0</ele><time>2026-04-30T13:40:13Z</time></trkpt><trkpt lat="44.24401591813223" lon="11.472668140726066"><ele>398.0</ele><time>2026-04-30T13:40:14Z</time></trkpt><trkpt lat="44.244094096264995" lon="11.472682472438132"><ele>398.0</ele><time>2026-04-30T13:40:15Z</time></trkpt><trkpt lat="44.24416442278219" lon="11.472652509446528"><ele>397.99999999999994</ele><time>2026-04-30T13:40:16Z</time></trkpt><trkpt lat="44.2442324804963" lon="11.472621997697038"><ele>398.0</ele><time>2026-04-30T13:40:17Z</time></trkpt><trkpt lat="44.244303714874675" lon="11.472570051543029"><ele>394.4</ele><time>2026-04-30T13:40:18Z</time></trkpt><trkpt lat="44.24437804847853" lon="11.472500745992892"><ele>390.79999999999995</ele><time>2026-04-30T13:40:19Z</time></trkpt><trkpt lat="44.24445255218384" lon="11.472409818544332"><ele>387.2</ele><time>2026-04-30T13:40:20Z</time></trkpt><trkpt lat="44.244520839235356" lon="11.472300609087409"><ele>383.6</ele><time>2026-04-30T13:40:21Z</time></trkpt><trkpt lat="44.24457958602009" lon="11.4721918134209"><ele>380.0</ele><time>2026-04-30T13:40:22Z</time></trkpt><trkpt lat="44.24463585299787" lon="11.472089190815176"><ele>380.0</ele><time>2026-04-30T13:40:23Z</time></trkpt><trkpt lat="44.244697799797194" lon="11.47199302885148"><ele>380.0</ele><time>2026-04-30T13:40:24Z</time></trkpt><trkpt lat="44.24477052044234" lon="11.471906601783148"><ele>380.0</ele><time>2026-04-30T13:40:25Z</time></trkpt><trkpt lat="44.244856886743776" lon="11.47183480571039"><ele>380.0</ele><time>2026-04-30T13:40:26Z</time></trkpt><trkpt lat="44.244946505328116" lon="11.471775881779886"><ele>380.0</ele><time>2026-04-30T13:40:27Z</time></trkpt><trkpt lat="44.24502976288602" lon="11.471721821995725"><ele>377.5</ele><time>2026-04-30T13:40:28Z</time></trkpt><trkpt lat="44.24510279355913" lon="11.471677293103832"><ele>375.0</ele><time>2026-04-30T13:40:29Z</time></trkpt><trkpt lat="44.245168719858306" lon="11.471636939685904"><ele>372.5</ele><time>2026-04-30T13:40:30Z</time></trkpt><trkpt lat="44.24523504375101" lon="11.471589162334178"><ele>370.0</ele><time>2026-04-30T13:40:31Z</time></trkpt><trkpt lat="44.24530514011889" lon="11.471531568054163"><ele>367.5</ele><time>2026-04-30T13:40:32Z</time></trkpt><trkpt lat="44.24537543971416" lon="11.471457702628594"><ele>365.0</ele><time>2026-04-30T13:40:33Z</time></trkpt><trkpt lat="44.24544226230891" lon="11.471367233354105"><ele>363.33333333333337</ele><time>2026-04-30T13:40:34Z</time></trkpt><trkpt lat="44.245501167895625" lon="11.471263410055084"><ele>361.6666666666667</ele><time>2026-04-30T13:40:35Z</time></trkpt><trkpt lat="44.24554330154296" lon="11.471159874352105"><ele>360.0</ele><time>2026-04-30T13:40:36Z</time></trkpt><trkpt lat="44.245558426666015" lon="11.471062824885625"><ele>358.3333333333333</ele><time>2026-04-30T13:40:37Z</time></trkpt><trkpt lat="44.24555515386992" lon="11.470961873097968"><ele>356.66666666666663</ele><time>2026-04-30T13:40:38Z</time></trkpt><trkpt lat="44.245539758944965" lon="11.470873452236857"><ele>355.0</ele><time>2026-04-30T13:40:39Z</time></trkpt><trkpt lat="44.24548479253328" lon="11.470734385544597"><ele>355.0</ele><time>2026-04-30T13:40:41Z</time></trkpt><trkpt lat="44.245495696879566" lon="11.470613886126348"><ele>355.0</ele><time>2026-04-30T13:40:43Z</time></trkpt><trkpt lat="44.2455930076925" lon="11.470514846983493"><ele>355.0</ele><time>2026-04-30T13:40:45Z</time></trkpt><trkpt lat="44.24565828239577" lon="11.470465133638816"><ele>355.0</ele><time>2026-04-30T13:40:46Z</time></trkpt><trkpt lat="44.245723161789336" lon="11.470412845272058"><ele>355.0</ele><time>2026-04-30T13:40:47Z</time></trkpt><trkpt lat="44.2457921010959" lon="11.47036129250748"><ele>355.0</ele><time>2026-04-30T13:40:48Z</time></trkpt><trkpt lat="44.245868353060835" lon="11.470316219275707"><ele>352.3333333333333</ele><time>2026-04-30T13:40:49Z</time></trkpt><trkpt lat="44.24594537702112" lon="11.470270137453717"><ele>349.66666666666663</ele><time>2026-04-30T13:40:50Z</time></trkpt><trkpt lat="44.246025775461625" lon="11.47022028360098"><ele>347.0</ele><time>2026-04-30T13:40:51Z</time></trkpt><trkpt lat="44.24610818088306" lon="11.470175307691942"><ele>344.3333333333333</ele><time>2026-04-30T13:40:52Z</time></trkpt><trkpt lat="44.246200195668074" lon="11.470130757969004"><ele>341.6666666666667</ele><time>2026-04-30T13:40:53Z</time></trkpt><trkpt lat="44.24628531262197" lon="11.470086840925644"><ele>339.0</ele><time>2026-04-30T13:40:54Z</time></trkpt><trkpt lat="44.246362729536614" lon="11.47004583275695"><ele>339.0</ele><time>2026-04-30T13:40:55Z</time></trkpt><trkpt lat="44.246432578674266" lon="11.470020130975033"><ele>339.0</ele><time>2026-04-30T13:40:56Z</time></trkpt><trkpt lat="44.24654054003185" lon="11.470054414822581"><ele>339.0</ele><time>2026-04-30T13:40:58Z</time></trkpt><trkpt lat="44.24661475631542" lon="11.47017625203012"><ele>339.0</ele><time>2026-04-30T13:41:00Z</time></trkpt><trkpt lat="44.24667556659935" lon="11.470202878286322"><ele>339.0</ele><time>2026-04-30T13:41:01Z</time></trkpt><trkpt lat="44.24674625847157" lon="11.470207279505765"><ele>339.0</ele><time>2026-04-30T13:41:02Z</time></trkpt><trkpt lat="44.24681342968635" lon="11.470208537556568"><ele>338.4285714285714</ele><time>2026-04-30T13:41:03Z</time></trkpt><trkpt lat="44.24687871006665" lon="11.470220573119889"><ele>337.8571428571429</ele><time>2026-04-30T13:41:04Z</time></trkpt><trkpt lat="44.24694271650254" lon="11.470240182269654"><ele>337.2857142857143</ele><time>2026-04-30T13:41:05Z</time></trkpt><trkpt lat="44.24700553365202" lon="11.470263451874331"><ele>336.71428571428567</ele><time>2026-04-30T13:41:06Z</time></trkpt><trkpt lat="44.24707083239305" lon="11.470282687196752"><ele>336.1428571428571</ele><time>2026-04-30T13:41:07Z</time></trkpt><trkpt lat="44.247139838970156" lon="11.470304760689734"><ele>335.57142857142856</ele><time>2026-04-30T13:41:08Z</time></trkpt><trkpt lat="44.24720617445739" lon="11.470335119970752"><ele>335.0</ele><time>2026-04-30T13:41:09Z</time></trkpt><trkpt lat="44.247277698153034" lon="11.470371906202486"><ele>333.4</ele><time>2026-04-30T13:41:10Z</time></trkpt><trkpt lat="44.2473744094355" lon="11.470406245976207"><ele>331.8</ele><time>2026-04-30T13:41:11Z</time></trkpt><trkpt lat="44.24748797064144" lon="11.470448272937706"><ele>330.20000000000005</ele><time>2026-04-30T13:41:12Z</time></trkpt><trkpt lat="44.24759356146966" lon="11.47049170108183"><ele>328.6</ele><time>2026-04-30T13:41:13Z</time></trkpt><trkpt lat="44.24769433732397" lon="11.4705329649889"><ele>327.0</ele><time>2026-04-30T13:41:14Z</time></trkpt><trkpt lat="44.24777728385159" lon="11.470581785510547"><ele>327.0</ele><time>2026-04-30T13:41:15Z</time></trkpt><trkpt lat="44.247841080920566" lon="11.470637092138084"><ele>327.0</ele><time>2026-04-30T13:41:16Z</time></trkpt><trkpt lat="44.247903907927906" lon="11.470684497972291"><ele>327.0</ele><time>2026-04-30T13:41:18Z</time></trkpt><trkpt lat="44.24795071833933" lon="11.470519173202685"><ele>327.0</ele><time>2026-04-30T13:41:20Z</time></trkpt><trkpt lat="44.24801911670456" lon="11.47036088955909"><ele>327.0</ele><time>2026-04-30T13:41:22Z</time></trkpt><trkpt lat="44.24805297061481" lon="11.470262822728925"><ele>326.8333333333333</ele><time>2026-04-30T13:41:23Z</time></trkpt><trkpt lat="44.248079344911275" lon="11.470149298553313"><ele>326.6666666666667</ele><time>2026-04-30T13:41:24Z</time></trkpt><trkpt lat="44.24809486848708" lon="11.47004387001825"><ele>326.5</ele><time>2026-04-30T13:41:25Z</time></trkpt><trkpt lat="44.24812281623718" lon="11.469947202307377"><ele>326.33333333333337</ele><time>2026-04-30T13:41:26Z</time></trkpt><trkpt lat="44.24816423369788" lon="11.469864374667338"><ele>326.1666666666667</ele><time>2026-04-30T13:41:27Z</time></trkpt><trkpt lat="44.24821107759016" lon="11.469778038416164"><ele>326.0</ele><time>2026-04-30T13:41:28Z</time></trkpt><trkpt lat="44.248266437375605" lon="11.469683550814986"><ele>324.0</ele><time>2026-04-30T13:41:29Z</time></trkpt><trkpt lat="44.24832711996047" lon="11.46960308492045"><ele>322.0</ele><time>2026-04-30T13:41:30Z</time></trkpt><trkpt lat="44.24837811214495" lon="11.469531421668963"><ele>320.0</ele><time>2026-04-30T13:41:31Z</time></trkpt><trkpt lat="44.24837547394337" lon="11.469390095431844"><ele>318.0</ele><time>2026-04-30T13:41:33Z</time></trkpt><trkpt lat="44.248303583489225" lon="11.469281138676747"><ele>316.0</ele><time>2026-04-30T13:41:35Z</time></trkpt><trkpt lat="44.248268551989256" lon="11.469152350827876"><ele>316.0</ele><time>2026-04-30T13:41:37Z</time></trkpt><trkpt lat="44.24825341934384" lon="11.469015400770864"><ele>316.0</ele><time>2026-04-30T13:41:39Z</time></trkpt><trkpt lat="44.248266938680054" lon="11.468910297049963"><ele>316.0</ele><time>2026-04-30T13:41:41Z</time></trkpt><trkpt lat="44.24831295845027" lon="11.468821717634714"><ele>316.0</ele><time>2026-04-30T13:41:43Z</time></trkpt><trkpt lat="44.248403695215416" lon="11.468820658782311"><ele>316.0</ele><time>2026-04-30T13:41:47Z</time></trkpt><trkpt lat="44.24850041902749" lon="11.468806358406564"><ele>316.0</ele><time>2026-04-30T13:41:50Z</time></trkpt><trkpt lat="44.248602606604" lon="11.46878878150379"><ele>316.0</ele><time>2026-04-30T13:41:52Z</time></trkpt><trkpt lat="44.24868985530555" lon="11.468795096469409"><ele>316.0</ele><time>2026-04-30T13:41:54Z</time></trkpt><trkpt lat="44.248782344182004" lon="11.468800731529257"><ele>316.0</ele><time>2026-04-30T13:41:56Z</time></trkpt><trkpt lat="44.248896579843525" lon="11.468777525769667"><ele>316.0</ele><time>2026-04-30T13:41:58Z</time></trkpt><trkpt lat="44.24901331624958" lon="11.468747145088066"><ele>316.0</ele><time>2026-04-30T13:42:00Z</time></trkpt><trkpt lat="44.24910760102676" lon="11.468754129801402"><ele>315.5</ele><time>2026-04-30T13:42:02Z</time></trkpt><trkpt lat="44.2491928207621" lon="11.46887905552057"><ele>315.0</ele><time>2026-04-30T13:42:04Z</time></trkpt><trkpt lat="44.249240082939" lon="11.468956493778567"><ele>314.5</ele><time>2026-04-30T13:42:05Z</time></trkpt><trkpt lat="44.24928941520562" lon="11.469027327966229"><ele>314.0</ele><time>2026-04-30T13:42:06Z</time></trkpt><trkpt lat="44.24934704674601" lon="11.469080989681592"><ele>313.5</ele><time>2026-04-30T13:42:07Z</time></trkpt><trkpt lat="44.24942118531378" lon="11.469099924432973"><ele>313.0</ele><time>2026-04-30T13:42:08Z</time></trkpt><trkpt lat="44.249509714465994" lon="11.46911003571644"><ele>313.0</ele><time>2026-04-30T13:42:09Z</time></trkpt><trkpt lat="44.24957847591412" lon="11.469117177762403"><ele>313.0</ele><time>2026-04-30T13:42:10Z</time></trkpt><trkpt lat="44.24964726134386" lon="11.469123130050047"><ele>313.0</ele><time>2026-04-30T13:42:11Z</time></trkpt><trkpt lat="44.24975132940171" lon="11.469076485005571"><ele>313.0</ele><time>2026-04-30T13:42:13Z</time></trkpt><trkpt lat="44.24985420933555" lon="11.469044895079026"><ele>313.0</ele><time>2026-04-30T13:42:16Z</time></trkpt><trkpt lat="44.24996922179275" lon="11.469071500130607"><ele>312.8</ele><time>2026-04-30T13:42:18Z</time></trkpt><trkpt lat="44.25007490574587" lon="11.469114089851804"><ele>312.6</ele><time>2026-04-30T13:42:20Z</time></trkpt><trkpt lat="44.250170635151015" lon="11.469180097740962"><ele>312.4</ele><time>2026-04-30T13:42:22Z</time></trkpt><trkpt lat="44.250182235703846" lon="11.469283767800478"><ele>312.2</ele><time>2026-04-30T13:42:24Z</time></trkpt><trkpt lat="44.25020238268836" lon="11.469436297128386"><ele>312.0</ele><time>2026-04-30T13:42:26Z</time></trkpt><trkpt lat="44.250230217867326" lon="11.469622631803803"><ele>312.0</ele><time>2026-04-30T13:42:28Z</time></trkpt><trkpt lat="44.250345585557646" lon="11.469696623376874"><ele>312.0</ele><time>2026-04-30T13:42:30Z</time></trkpt><trkpt lat="44.25043776255192" lon="11.469685711509822"><ele>312.0</ele><time>2026-04-30T13:42:31Z</time></trkpt><trkpt lat="44.25054060369308" lon="11.469639550203322"><ele>312.0</ele><time>2026-04-30T13:42:32Z</time></trkpt><trkpt lat="44.25064878412122" lon="11.469582187469435"><ele>312.0</ele><time>2026-04-30T13:42:33Z</time></trkpt><trkpt lat="44.25076148891294" lon="11.469518435221321"><ele>311.2</ele><time>2026-04-30T13:42:34Z</time></trkpt><trkpt lat="44.250847390440875" lon="11.469472865170072"><ele>310.4</ele><time>2026-04-30T13:42:35Z</time></trkpt><trkpt lat="44.250919227354245" lon="11.469485834418172"><ele>309.6</ele><time>2026-04-30T13:42:36Z</time></trkpt><trkpt lat="44.251024201454925" lon="11.46954386765039"><ele>308.8</ele><time>2026-04-30T13:42:37Z</time></trkpt><trkpt lat="44.25113205338132" lon="11.469604893491201"><ele>308.0</ele><time>2026-04-30T13:42:38Z</time></trkpt><trkpt lat="44.25121625558119" lon="11.469644665636668"><ele>308.0</ele><time>2026-04-30T13:42:39Z</time></trkpt><trkpt lat="44.25129261321905" lon="11.46965267587707"><ele>308.0</ele><time>2026-04-30T13:42:40Z</time></trkpt><trkpt lat="44.25136542526176" lon="11.46966132371485"><ele>308.0</ele><time>2026-04-30T13:42:41Z</time></trkpt><trkpt lat="44.25142606424714" lon="11.469691460098575"><ele>308.0</ele><time>2026-04-30T13:42:42Z</time></trkpt><trkpt lat="44.25149056658463" lon="11.46974904344497"><ele>308.0</ele><time>2026-04-30T13:42:43Z</time></trkpt><trkpt lat="44.25156270785417" lon="11.469824826664269"><ele>308.0</ele><time>2026-04-30T13:42:44Z</time></trkpt><trkpt lat="44.25164366759344" lon="11.469898942846964"><ele>308.0</ele><time>2026-04-30T13:42:45Z</time></trkpt><trkpt lat="44.25171825172867" lon="11.46996489383632"><ele>308.0</ele><time>2026-04-30T13:42:46Z</time></trkpt><trkpt lat="44.251784204288484" lon="11.4700165235058"><ele>308.0</ele><time>2026-04-30T13:42:47Z</time></trkpt><trkpt lat="44.25184357896801" lon="11.470063261969102"><ele>308.0</ele><time>2026-04-30T13:42:48Z</time></trkpt><trkpt lat="44.251946629978306" lon="11.470137995275062"><ele>308.0</ele><time>2026-04-30T13:42:50Z</time></trkpt><trkpt lat="44.25207431500143" lon="11.47009117856662"><ele>308.0</ele><time>2026-04-30T13:42:52Z</time></trkpt><trkpt lat="44.25215796425569" lon="11.470050326457487"><ele>308.0</ele><time>2026-04-30T13:42:53Z</time></trkpt><trkpt lat="44.25226065253831" lon="11.470003978577365"><ele>308.0</ele><time>2026-04-30T13:42:54Z</time></trkpt><trkpt lat="44.25237230563047" lon="11.469972623968165"><ele>308.0</ele><time>2026-04-30T13:42:55Z</time></trkpt><trkpt lat="44.25247059464037" lon="11.469953113139281"><ele>308.0</ele><time>2026-04-30T13:42:56Z</time></trkpt><trkpt lat="44.25255490308643" lon="11.469949724825556"><ele>307.5</ele><time>2026-04-30T13:42:57Z</time></trkpt><trkpt lat="44.25263440365897" lon="11.469984990614437"><ele>307.0</ele><time>2026-04-30T13:42:58Z</time></trkpt><trkpt lat="44.25270117404285" lon="11.47005703110779"><ele>306.5</ele><time>2026-04-30T13:42:59Z</time></trkpt><trkpt lat="44.25276058273627" lon="11.470144031176885"><ele>306.0</ele><time>2026-04-30T13:43:00Z</time></trkpt><trkpt lat="44.25282415148881" lon="11.470194938905653"><ele>305.5</ele><time>2026-04-30T13:43:01Z</time></trkpt><trkpt lat="44.25290135681308" lon="11.470190817302425"><ele>305.0</ele><time>2026-04-30T13:43:02Z</time></trkpt><trkpt lat="44.25299405142211" lon="11.470162733381672"><ele>305.0</ele><time>2026-04-30T13:43:03Z</time></trkpt><trkpt lat="44.25306715688543" lon="11.470155317072013"><ele>305.0</ele><time>2026-04-30T13:43:04Z</time></trkpt><trkpt lat="44.25313530181673" lon="11.4701641105445"><ele>305.0</ele><time>2026-04-30T13:43:05Z</time></trkpt><trkpt lat="44.25323713484149" lon="11.47015299428475"><ele>305.0</ele><time>2026-04-30T13:43:07Z</time></trkpt><trkpt lat="44.253349555183846" lon="11.470138127151639"><ele>305.0</ele><time>2026-04-30T13:43:09Z</time></trkpt><trkpt lat="44.25343695048101" lon="11.470093902009115"><ele>304.83333333333337</ele><time>2026-04-30T13:43:11Z</time></trkpt><trkpt lat="44.25350931533725" lon="11.47002465971875"><ele>304.6666666666667</ele><time>2026-04-30T13:43:21Z</time></trkpt><trkpt lat="44.25356724755012" lon="11.469924652715969"><ele>304.5</ele><time>2026-04-30T13:43:23Z</time></trkpt><trkpt lat="44.25364531841306" lon="11.469847370644004"><ele>304.3333333333333</ele><time>2026-04-30T13:43:27Z</time></trkpt><trkpt lat="44.253719434892034" lon="11.469905918318073"><ele>304.16666666666663</ele><time>2026-04-30T13:43:31Z</time></trkpt><trkpt lat="44.25377954519107" lon="11.46993500267879"><ele>304.0</ele><time>2026-04-30T13:43:33Z</time></trkpt><trkpt lat="44.25383487344974" lon="11.46988261211868"><ele>304.0</ele><time>2026-04-30T13:43:34Z</time></trkpt><trkpt lat="44.25391175185944" lon="11.469821674565882"><ele>304.0</ele><time>2026-04-30T13:43:35Z</time></trkpt><trkpt lat="44.253995693240306" lon="11.469784505311006"><ele>304.0</ele><time>2026-04-30T13:43:36Z</time></trkpt><trkpt lat="44.25410480001859" lon="11.469766342906443"><ele>304.0</ele><time>2026-04-30T13:43:37Z</time></trkpt><trkpt lat="44.25420696517868" lon="11.469742503891498"><ele>304.0</ele><time>2026-04-30T13:43:38Z</time></trkpt><trkpt lat="44.254282849349714" lon="11.46975303408167"><ele>303.5</ele><time>2026-04-30T13:43:39Z</time></trkpt><trkpt lat="44.254371840259786" lon="11.469825998425486"><ele>303.0</ele><time>2026-04-30T13:43:40Z</time></trkpt><trkpt lat="44.25450750115557" lon="11.469900124543779"><ele>302.5</ele><time>2026-04-30T13:43:41Z</time></trkpt><trkpt lat="44.254632666648455" lon="11.46994001466289"><ele>302.0</ele><time>2026-04-30T13:43:42Z</time></trkpt><trkpt lat="44.25473854083766" lon="11.469962318312275"><ele>301.8</ele><time>2026-04-30T13:43:43Z</time></trkpt><trkpt lat="44.25482947101129" lon="11.469965477079667"><ele>301.6</ele><time>2026-04-30T13:43:44Z</time></trkpt><trkpt lat="44.25490472779871" lon="11.469946302596393"><ele>301.40000000000003</ele><time>2026-04-30T13:43:45Z</time></trkpt><trkpt lat="44.254978154287436" lon="11.469893782488494"><ele>301.2</ele><time>2026-04-30T13:43:46Z</time></trkpt><trkpt lat="44.25506965861915" lon="11.469816193140984"><ele>301.0</ele><time>2026-04-30T13:43:47Z</time></trkpt><trkpt lat="44.255160705606684" lon="11.469774430806595"><ele>301.0</ele><time>2026-04-30T13:43:48Z</time></trkpt><trkpt lat="44.255251266718815" lon="11.469778319500424"><ele>301.0</ele><time>2026-04-30T13:43:49Z</time></trkpt><trkpt lat="44.255347561750284" lon="11.46980946371891"><ele>301.0</ele><time>2026-04-30T13:43:50Z</time></trkpt><trkpt lat="44.255455530007026" lon="11.469839424358012"><ele>301.0</ele><time>2026-04-30T13:43:51Z</time></trkpt><trkpt lat="44.255565009631404" lon="11.46985767702725"><ele>301.0</ele><time>2026-04-30T13:43:52Z</time></trkpt><trkpt lat="44.255659640667254" lon="11.469858566596189"><ele>300.8333333333333</ele><time>2026-04-30T13:43:53Z</time></trkpt><trkpt lat="44.255742293397596" lon="11.469844879554902"><ele>300.66666666666663</ele><time>2026-04-30T13:43:54Z</time></trkpt><trkpt lat="44.25582380748723" lon="11.469809504195991"><ele>300.5</ele><time>2026-04-30T13:43:55Z</time></trkpt><trkpt lat="44.25590428089769" lon="11.469770914176282"><ele>300.3333333333333</ele><time>2026-04-30T13:43:56Z</time></trkpt><trkpt lat="44.255980702945095" lon="11.469761254623739"><ele>300.1666666666667</ele><time>2026-04-30T13:43:57Z</time></trkpt><trkpt lat="44.25605474616594" lon="11.469754160891247"><ele>300.0</ele><time>2026-04-30T13:43:58Z</time></trkpt><trkpt lat="44.256117003182545" lon="11.469735252505853"><ele>300.0</ele><time>2026-04-30T13:43:59Z</time></trkpt><trkpt lat="44.25618109620277" lon="11.469693002049974"><ele>300.0</ele><time>2026-04-30T13:44:02Z</time></trkpt><trkpt lat="44.25623592594709" lon="11.469647966333815"><ele>300.0</ele><time>2026-04-30T13:44:06Z</time></trkpt><trkpt lat="44.256328775668486" lon="11.469703665568343"><ele>300.0</ele><time>2026-04-30T13:44:09Z</time></trkpt><trkpt lat="44.25640029835268" lon="11.469750448006868"><ele>300.0</ele><time>2026-04-30T13:44:11Z</time></trkpt><trkpt lat="44.25645566616404" lon="11.46979586141486"><ele>300.0</ele><time>2026-04-30T13:44:12Z</time></trkpt><trkpt lat="44.25653653528046" lon="11.469865556008164"><ele>300.0</ele><time>2026-04-30T13:44:13Z</time></trkpt><trkpt lat="44.256631445911324" lon="11.469935584005638"><ele>300.0</ele><time>2026-04-30T13:44:14Z</time></trkpt><trkpt lat="44.25673556203205" lon="11.46998102716214"><ele>300.0</ele><time>2026-04-30T13:44:15Z</time></trkpt><trkpt lat="44.2568712112009" lon="11.469997534503921"><ele>300.0</ele><time>2026-04-30T13:44:16Z</time></trkpt><trkpt lat="44.25702882134154" lon="11.470005825762941"><ele>300.0</ele><time>2026-04-30T13:44:17Z</time></trkpt><trkpt lat="44.25717665626313" lon="11.470032416028273"><ele>300.0</ele><time>2026-04-30T13:44:18Z</time></trkpt><trkpt lat="44.2572873133501" lon="11.470059764266557"><ele>300.0</ele><time>2026-04-30T13:44:19Z</time></trkpt><trkpt lat="44.25737670435608" lon="11.470107874151754"><ele>300.0</ele><time>2026-04-30T13:44:20Z</time></trkpt><trkpt lat="44.25748203944475" lon="11.470199339521589"><ele>299.8</ele><time>2026-04-30T13:44:21Z</time></trkpt><trkpt lat="44.257574591611224" lon="11.470266426079583"><ele>299.6</ele><time>2026-04-30T13:44:22Z</time></trkpt><trkpt lat="44.25764303496359" lon="11.47029910575076"><ele>299.4</ele><time>2026-04-30T13:44:23Z</time></trkpt><trkpt lat="44.25772709294057" lon="11.470306714451358"><ele>299.2</ele><time>2026-04-30T13:44:25Z</time></trkpt><trkpt lat="44.25781191096598" lon="11.470254096546839"><ele>299.0</ele><time>2026-04-30T13:44:32Z</time></trkpt><trkpt lat="44.25785892969862" lon="11.470134841581617"><ele>299.0</ele><time>2026-04-30T13:44:34Z</time></trkpt><trkpt lat="44.25792134778087" lon="11.470051842570903"><ele>299.0</ele><time>2026-04-30T13:44:36Z</time></trkpt><trkpt lat="44.25798226005409" lon="11.470001114397242"><ele>299.0</ele><time>2026-04-30T13:44:38Z</time></trkpt><trkpt lat="44.25806256058676" lon="11.469941925749572"><ele>299.0</ele><time>2026-04-30T13:44:41Z</time></trkpt><trkpt lat="44.2581645788924" lon="11.469930229521875"><ele>299.0</ele><time>2026-04-30T13:44:43Z</time></trkpt><trkpt lat="44.25823695920641" lon="11.469891093922342"><ele>299.0</ele><time>2026-04-30T13:44:45Z</time></trkpt><trkpt lat="44.258318480383444" lon="11.469804580911353"><ele>298.6666666666667</ele><time>2026-04-30T13:44:47Z</time></trkpt><trkpt lat="44.25839062438089" lon="11.469794380215179"><ele>298.33333333333337</ele><time>2026-04-30T13:44:50Z</time></trkpt><trkpt lat="44.258475543900786" lon="11.469834184473294"><ele>298.0</ele><time>2026-04-30T13:44:59Z</time></trkpt><trkpt lat="44.258546361166964" lon="11.469884830478644"><ele>297.6666666666667</ele><time>2026-04-30T13:45:01Z</time></trkpt><trkpt lat="44.25862292232211" lon="11.469907919518503"><ele>297.3333333333333</ele><time>2026-04-30T13:45:03Z</time></trkpt><trkpt lat="44.258700241193736" lon="11.469863757915531"><ele>297.0</ele><time>2026-04-30T13:45:05Z</time></trkpt><trkpt lat="44.25879122406909" lon="11.469938159406212"><ele>297.0</ele><time>2026-04-30T13:45:07Z</time></trkpt><trkpt lat="44.258855326291496" lon="11.469973019228453"><ele>297.0</ele><time>2026-04-30T13:45:08Z</time></trkpt><trkpt lat="44.258982839129374" lon="11.469953734988618"><ele>297.0</ele><time>2026-04-30T13:45:10Z</time></trkpt><trkpt lat="44.25906703965556" lon="11.469925091487529"><ele>297.0</ele><time>2026-04-30T13:45:11Z</time></trkpt><trkpt lat="44.259167834713836" lon="11.469916583628534"><ele>297.0</ele><time>2026-04-30T13:45:12Z</time></trkpt><trkpt lat="44.259278786674" lon="11.469909648779764"><ele>297.0</ele><time>2026-04-30T13:45:13Z</time></trkpt><trkpt lat="44.259392734180516" lon="11.469899043502885"><ele>297.0</ele><time>2026-04-30T13:45:14Z</time></trkpt><trkpt lat="44.259497514058964" lon="11.46988638140676"><ele>297.0</ele><time>2026-04-30T13:45:15Z</time></trkpt><trkpt lat="44.2595991194097" lon="11.469892258832104"><ele>297.0</ele><time>2026-04-30T13:45:16Z</time></trkpt><trkpt lat="44.25971048193427" lon="11.469912816306621"><ele>297.0</ele><time>2026-04-30T13:45:17Z</time></trkpt><trkpt lat="44.25983566158823" lon="11.469942951852651"><ele>296.75</ele><time>2026-04-30T13:45:18Z</time></trkpt><trkpt lat="44.259956067934134" lon="11.469969175347197"><ele>296.5</ele><time>2026-04-30T13:45:19Z</time></trkpt><trkpt lat="44.2600684770434" lon="11.469985988355953"><ele>296.25</ele><time>2026-04-30T13:45:20Z</time></trkpt><trkpt lat="44.26018463249641" lon="11.4700037515929"><ele>296.0</ele><time>2026-04-30T13:45:21Z</time></trkpt><trkpt lat="44.26028713625411" lon="11.470007653970876"><ele>296.0</ele><time>2026-04-30T13:45:22Z</time></trkpt><trkpt lat="44.260392997113705" lon="11.469983080885962"><ele>296.0</ele><time>2026-04-30T13:45:23Z</time></trkpt><trkpt lat="44.26050856845277" lon="11.469944490688158"><ele>296.0</ele><time>2026-04-30T13:45:24Z</time></trkpt><trkpt lat="44.26062117424497" lon="11.469905060183851"><ele>296.0</ele><time>2026-04-30T13:45:25Z</time></trkpt><trkpt lat="44.26072233988931" lon="11.469878242598272"><ele>296.0</ele><time>2026-04-30T13:45:26Z</time></trkpt><trkpt lat="44.26081616526846" lon="11.469883316192387"><ele>295.2</ele><time>2026-04-30T13:45:27Z</time></trkpt><trkpt lat="44.26090286932187" lon="11.469925460070874"><ele>294.40000000000003</ele><time>2026-04-30T13:45:28Z</time></trkpt><trkpt lat="44.26098579325355" lon="11.470001780173739"><ele>293.6</ele><time>2026-04-30T13:45:29Z</time></trkpt><trkpt lat="44.26106401083765" lon="11.470086443243886"><ele>292.8</ele><time>2026-04-30T13:45:30Z</time></trkpt><trkpt lat="44.261151436178885" lon="11.470167884521025"><ele>292.0</ele><time>2026-04-30T13:45:31Z</time></trkpt><trkpt lat="44.26124625326023" lon="11.470208747279761"><ele>292.0</ele><time>2026-04-30T13:45:32Z</time></trkpt><trkpt lat="44.26134791086151" lon="11.47020455493956"><ele>292.0</ele><time>2026-04-30T13:45:33Z</time></trkpt><trkpt lat="44.261444294775565" lon="11.470185504395102"><ele>292.0</ele><time>2026-04-30T13:45:34Z</time></trkpt><trkpt lat="44.26153893726688" lon="11.470180958017043"><ele>292.0</ele><time>2026-04-30T13:45:35Z</time></trkpt><trkpt lat="44.261627972874805" lon="11.470182500394296"><ele>292.0</ele><time>2026-04-30T13:45:36Z</time></trkpt><trkpt lat="44.26171154207005" lon="11.470198282932746"><ele>291.8333333333333</ele><time>2026-04-30T13:45:37Z</time></trkpt><trkpt lat="44.261798075198435" lon="11.470197034638742"><ele>291.66666666666663</ele><time>2026-04-30T13:45:38Z</time></trkpt><trkpt lat="44.26188391121834" lon="11.470198723037498"><ele>291.5</ele><time>2026-04-30T13:45:39Z</time></trkpt><trkpt lat="44.26197439456028" lon="11.470225100473067"><ele>291.3333333333333</ele><time>2026-04-30T13:45:40Z</time></trkpt><trkpt lat="44.26205101367631" lon="11.470280834103063"><ele>291.1666666666667</ele><time>2026-04-30T13:45:41Z</time></trkpt><trkpt lat="44.26211606824748" lon="11.470328855677561"><ele>291.0</ele><time>2026-04-30T13:45:42Z</time></trkpt><trkpt lat="44.26219244145352" lon="11.470360338007202"><ele>291.0</ele><time>2026-04-30T13:45:44Z</time></trkpt><trkpt lat="44.26226520990464" lon="11.470407586065386"><ele>291.0</ele><time>2026-04-30T13:45:47Z</time></trkpt><trkpt lat="44.26240746352718" lon="11.470449177090416"><ele>291.0</ele><time>2026-04-30T13:45:50Z</time></trkpt><trkpt lat="44.262486730432556" lon="11.470478587050403"><ele>291.0</ele><time>2026-04-30T13:45:51Z</time></trkpt><trkpt lat="44.262587750934664" lon="11.470504205533025"><ele>291.0</ele><time>2026-04-30T13:45:52Z</time></trkpt><trkpt lat="44.262676762251985" lon="11.470509375719129"><ele>291.0</ele><time>2026-04-30T13:45:53Z</time></trkpt><trkpt lat="44.26276651067155" lon="11.470505248451321"><ele>291.0</ele><time>2026-04-30T13:45:54Z</time></trkpt><trkpt lat="44.26286725567295" lon="11.470516128614989"><ele>291.0</ele><time>2026-04-30T13:45:55Z</time></trkpt><trkpt lat="44.26296475035476" lon="11.470556288662022"><ele>291.0</ele><time>2026-04-30T13:45:56Z</time></trkpt><trkpt lat="44.26305817795113" lon="11.47061936498114"><ele>291.0</ele><time>2026-04-30T13:45:57Z</time></trkpt><trkpt lat="44.26315255176027" lon="11.470654077241232"><ele>290.75</ele><time>2026-04-30T13:45:58Z</time></trkpt><trkpt lat="44.26326683355917" lon="11.470673786242306"><ele>290.5</ele><time>2026-04-30T13:45:59Z</time></trkpt><trkpt lat="44.26338762919009" lon="11.470714298694089"><ele>290.25</ele><time>2026-04-30T13:46:00Z</time></trkpt><trkpt lat="44.26351811903797" lon="11.470768947436369"><ele>290.0</ele><time>2026-04-30T13:46:01Z</time></trkpt><trkpt lat="44.263637202320815" lon="11.470821037494106"><ele>290.0</ele><time>2026-04-30T13:46:02Z</time></trkpt><trkpt lat="44.263738420915814" lon="11.470842772007222"><ele>290.0</ele><time>2026-04-30T13:46:03Z</time></trkpt><trkpt lat="44.26381734992424" lon="11.470831896240524"><ele>290.0</ele><time>2026-04-30T13:46:04Z</time></trkpt><trkpt lat="44.263886490404445" lon="11.470727952128684"><ele>290.0</ele><time>2026-04-30T13:46:06Z</time></trkpt><trkpt lat="44.26391097448148" lon="11.470626765537949"><ele>290.0</ele><time>2026-04-30T13:46:07Z</time></trkpt><trkpt lat="44.263926680835446" lon="11.470527145558146"><ele>290.0</ele><time>2026-04-30T13:46:08Z</time></trkpt><trkpt lat="44.26394808179025" lon="11.47041636869688"><ele>289.83333333333337</ele><time>2026-04-30T13:46:14Z</time></trkpt><trkpt lat="44.26395932575922" lon="11.470303064286583"><ele>289.6666666666667</ele><time>2026-04-30T13:46:16Z</time></trkpt><trkpt lat="44.26400219980579" lon="11.47018594940144"><ele>289.5</ele><time>2026-04-30T13:46:18Z</time></trkpt><trkpt lat="44.26408363184496" lon="11.470062997678522"><ele>289.3333333333333</ele><time>2026-04-30T13:46:20Z</time></trkpt><trkpt lat="44.26412496737279" lon="11.469991790137392"><ele>289.16666666666663</ele><time>2026-04-30T13:46:21Z</time></trkpt><trkpt lat="44.26416028080982" lon="11.469905985802441"><ele>289.0</ele><time>2026-04-30T13:46:22Z</time></trkpt><trkpt lat="44.26418770044243" lon="11.469814363586488"><ele>289.0</ele><time>2026-04-30T13:46:23Z</time></trkpt><trkpt lat="44.26424634061254" lon="11.469651866234424"><ele>289.0</ele><time>2026-04-30T13:46:25Z</time></trkpt><trkpt lat="44.26428221411438" lon="11.469549756132277"><ele>289.0</ele><time>2026-04-30T13:46:26Z</time></trkpt><trkpt lat="44.264311081331186" lon="11.46942359299324"><ele>289.0</ele><time>2026-04-30T13:46:27Z</time></trkpt><trkpt lat="44.2643341595542" lon="11.469315470882243"><ele>289.0</ele><time>2026-04-30T13:46:28Z</time></trkpt><trkpt lat="44.26433956346541" lon="11.46919280440076"><ele>289.8</ele><time>2026-04-30T13:46:29Z</time></trkpt><trkpt lat="44.26433680312105" lon="11.469065886362856"><ele>290.59999999999997</ele><time>2026-04-30T13:46:30Z</time></trkpt><trkpt lat="44.26434993566052" lon="11.46891850096766"><ele>291.4</ele><time>2026-04-30T13:46:31Z</time></trkpt><trkpt lat="44.26436319227117" lon="11.468820072650699"><ele>292.2</ele><time>2026-04-30T13:46:32Z</time></trkpt><trkpt lat="44.264377445901864" lon="11.468727532778098"><ele>293.0</ele><time>2026-04-30T13:46:33Z</time></trkpt><trkpt lat="44.26440397572033" lon="11.468556441673337"><ele>293.6666666666667</ele><time>2026-04-30T13:46:35Z</time></trkpt><trkpt lat="44.264428579668305" lon="11.468452033439402"><ele>294.33333333333337</ele><time>2026-04-30T13:46:36Z</time></trkpt><trkpt lat="44.26444804110444" lon="11.468345362315207"><ele>295.0</ele><time>2026-04-30T13:46:37Z</time></trkpt><trkpt lat="44.264459386016384" lon="11.46822263247493"><ele>295.6666666666667</ele><time>2026-04-30T13:46:38Z</time></trkpt><trkpt lat="44.26447724189991" lon="11.468123227739095"><ele>296.3333333333333</ele><time>2026-04-30T13:46:39Z</time></trkpt><trkpt lat="44.26447747730504" lon="11.468026492128272"><ele>297.0</ele><time>2026-04-30T13:46:40Z</time></trkpt><trkpt lat="44.26446142263697" lon="11.467919169347665"><ele>297.2</ele><time>2026-04-30T13:46:41Z</time></trkpt><trkpt lat="44.264438030862195" lon="11.467837053624041"><ele>297.4</ele><time>2026-04-30T13:46:42Z</time></trkpt><trkpt lat="44.26441168435506" lon="11.467691189973259"><ele>297.6</ele><time>2026-04-30T13:46:44Z</time></trkpt><trkpt lat="44.26440779068576" lon="11.467572915097689"><ele>297.8</ele><time>2026-04-30T13:46:47Z</time></trkpt><trkpt lat="44.26448545304706" lon="11.467489360923807"><ele>298.0</ele><time>2026-04-30T13:46:49Z</time></trkpt><trkpt lat="44.264589002324236" lon="11.467407332846438"><ele>298.0</ele><time>2026-04-30T13:46:51Z</time></trkpt><trkpt lat="44.26468037084904" lon="11.467316834703434"><ele>298.0</ele><time>2026-04-30T13:46:53Z</time></trkpt><trkpt lat="44.26465440029004" lon="11.46713362853461"><ele>298.0</ele><time>2026-04-30T13:46:55Z</time></trkpt><trkpt lat="44.26460603641083" lon="11.467050140850128"><ele>298.0</ele><time>2026-04-30T13:46:56Z</time></trkpt><trkpt lat="44.2645493905045" lon="11.466984713057101"><ele>298.0</ele><time>2026-04-30T13:46:57Z</time></trkpt><trkpt lat="44.26444516777762" lon="11.466877582014314"><ele>298.2</ele><time>2026-04-30T13:46:59Z</time></trkpt><trkpt lat="44.26437206644539" lon="11.466836438510686"><ele>298.4</ele><time>2026-04-30T13:47:01Z</time></trkpt><trkpt lat="44.26433250668679" lon="11.466716957831773"><ele>298.59999999999997</ele><time>2026-04-30T13:47:04Z</time></trkpt><trkpt lat="44.26435170810552" lon="11.466558877386994"><ele>298.8</ele><time>2026-04-30T13:47:06Z</time></trkpt><trkpt lat="44.264374922438755" lon="11.466412936552286"><ele>299.0</ele><time>2026-04-30T13:47:08Z</time></trkpt><trkpt lat="44.264357367378416" lon="11.466285892238918"><ele>300.8</ele><time>2026-04-30T13:47:10Z</time></trkpt><trkpt lat="44.264329983972296" lon="11.466150516572876"><ele>302.59999999999997</ele><time>2026-04-30T13:47:12Z</time></trkpt><trkpt lat="44.26433892877161" lon="11.46602557015423"><ele>304.4</ele><time>2026-04-30T13:47:14Z</time></trkpt><trkpt lat="44.264338482738125" lon="11.46589920034074"><ele>306.2</ele><time>2026-04-30T13:47:16Z</time></trkpt><trkpt lat="44.2643340952572" lon="11.465740951347048"><ele>308.0</ele><time>2026-04-30T13:47:19Z</time></trkpt><trkpt lat="44.26434032398158" lon="11.465599460997462"><ele>308.0</ele><time>2026-04-30T13:47:21Z</time></trkpt><trkpt lat="44.264339078083324" lon="11.46545101414753"><ele>308.0</ele><time>2026-04-30T13:47:23Z</time></trkpt><trkpt lat="44.26432788505967" lon="11.46535149269347"><ele>308.0</ele><time>2026-04-30T13:47:25Z</time></trkpt><trkpt lat="44.26433730689686" lon="11.465251484929789"><ele>308.0</ele><time>2026-04-30T13:47:28Z</time></trkpt><trkpt lat="44.26436851514118" lon="11.465135231238134"><ele>308.0</ele><time>2026-04-30T13:47:30Z</time></trkpt><trkpt lat="44.26438497126761" lon="11.465041624016425"><ele>308.0</ele><time>2026-04-30T13:47:32Z</time></trkpt><trkpt lat="44.2644120054739" lon="11.464953822042418"><ele>311.0</ele><time>2026-04-30T13:48:09Z</time></trkpt><trkpt lat="44.26442811761309" lon="11.464863493051473"><ele>314.0</ele><time>2026-04-30T13:48:13Z</time></trkpt><trkpt lat="44.26443639977568" lon="11.464737363720607"><ele>317.0</ele><time>2026-04-30T13:48:16Z</time></trkpt><trkpt lat="44.2644398957865" lon="11.464638246663673"><ele>320.0</ele><time>2026-04-30T13:48:18Z</time></trkpt><trkpt lat="44.26444402222181" lon="11.464491626581975"><ele>323.0</ele><time>2026-04-30T13:48:20Z</time></trkpt><trkpt lat="44.264446484031865" lon="11.464392247526153"><ele>326.0</ele><time>2026-04-30T13:48:22Z</time></trkpt><trkpt lat="44.26444969272921" lon="11.464254232477785"><ele>328.83333333333337</ele><time>2026-04-30T13:48:25Z</time></trkpt><trkpt lat="44.264458419714174" lon="11.464164673227488"><ele>331.6666666666667</ele><time>2026-04-30T13:48:27Z</time></trkpt><trkpt lat="44.264472884196074" lon="11.464059341536863"><ele>334.5</ele><time>2026-04-30T13:48:29Z</time></trkpt><trkpt lat="44.264484065842645" lon="11.463963983051567"><ele>337.3333333333333</ele><time>2026-04-30T13:48:31Z</time></trkpt><trkpt lat="44.264515318294976" lon="11.46386646644611"><ele>340.16666666666663</ele><time>2026-04-30T13:48:32Z</time></trkpt><trkpt lat="44.26452939863335" lon="11.463731150042111"><ele>343.0</ele><time>2026-04-30T13:48:34Z</time></trkpt><trkpt lat="44.2645221309854" lon="11.46358313233149"><ele>345.79999999999995</ele><time>2026-04-30T13:48:36Z</time></trkpt><trkpt lat="44.2644669819706" lon="11.463457951537496"><ele>348.6</ele><time>2026-04-30T13:48:38Z</time></trkpt><trkpt lat="44.264420066364984" lon="11.463348553824625"><ele>351.4</ele><time>2026-04-30T13:48:40Z</time></trkpt><trkpt lat="44.26440801164184" lon="11.463245973595313"><ele>354.20000000000005</ele><time>2026-04-30T13:48:41Z</time></trkpt><trkpt lat="44.26440641459654" lon="11.463139927821059"><ele>357.0</ele><time>2026-04-30T13:48:42Z</time></trkpt><trkpt lat="44.2644037904379" lon="11.462991609746949"><ele>359.1666666666667</ele><time>2026-04-30T13:48:43Z</time></trkpt><trkpt lat="44.264396426451306" lon="11.462892000865356"><ele>361.3333333333333</ele><time>2026-04-30T13:48:44Z</time></trkpt><trkpt lat="44.264379857803746" lon="11.462797795378135"><ele>363.5</ele><time>2026-04-30T13:48:45Z</time></trkpt><trkpt lat="44.264285260658724" lon="11.462682310310186"><ele>365.66666666666663</ele><time>2026-04-30T13:48:47Z</time></trkpt><trkpt lat="44.264255758591496" lon="11.462600205747005"><ele>367.8333333333333</ele><time>2026-04-30T13:48:48Z</time></trkpt><trkpt lat="44.2642291825068" lon="11.46251999426467"><ele>370.0</ele><time>2026-04-30T13:48:49Z</time></trkpt><trkpt lat="44.26417011366593" lon="11.462392850569882"><ele>370.0</ele><time>2026-04-30T13:48:51Z</time></trkpt><trkpt lat="44.26412461354762" lon="11.462266491576596"><ele>370.0</ele><time>2026-04-30T13:48:53Z</time></trkpt><trkpt lat="44.264137063183135" lon="11.462141975864368"><ele>370.0</ele><time>2026-04-30T13:48:56Z</time></trkpt><trkpt lat="44.264205592321005" lon="11.462034421619283"><ele>370.0</ele><time>2026-04-30T13:48:58Z</time></trkpt><trkpt lat="44.26426868795263" lon="11.461913007306983"><ele>370.0</ele><time>2026-04-30T13:49:00Z</time></trkpt><trkpt lat="44.26429881999628" lon="11.461795092008222"><ele>373.0</ele><time>2026-04-30T13:49:02Z</time></trkpt><trkpt lat="44.26431169619142" lon="11.461628155583933"><ele>376.0</ele><time>2026-04-30T13:49:04Z</time></trkpt><trkpt lat="44.26426017820478" lon="11.461516297206312"><ele>379.0</ele><time>2026-04-30T13:49:06Z</time></trkpt><trkpt lat="44.26421558540229" lon="11.461393262246782"><ele>382.0</ele><time>2026-04-30T13:49:08Z</time></trkpt><trkpt lat="44.264228925358324" lon="11.461239101480775"><ele>385.0</ele><time>2026-04-30T13:49:10Z</time></trkpt><trkpt lat="44.26420023821341" lon="11.46107516494524"><ele>387.00000000000006</ele><time>2026-04-30T13:49:12Z</time></trkpt><trkpt lat="44.264158215964734" lon="11.460914466062057"><ele>389.0</ele><time>2026-04-30T13:49:14Z</time></trkpt><trkpt lat="44.264154694776444" lon="11.460800153913128"><ele>391.0</ele><time>2026-04-30T13:49:15Z</time></trkpt><trkpt lat="44.26414131321375" lon="11.460682545592865"><ele>393.0</ele><time>2026-04-30T13:49:16Z</time></trkpt><trkpt lat="44.26411673185105" lon="11.460574249930268"><ele>395.00000000000006</ele><time>2026-04-30T13:49:17Z</time></trkpt><trkpt lat="44.26408747990453" lon="11.460485185499056"><ele>397.0</ele><time>2026-04-30T13:49:18Z</time></trkpt><trkpt lat="44.26403641628936" lon="11.460405182013808"><ele>397.50000000000006</ele><time>2026-04-30T13:49:19Z</time></trkpt><trkpt lat="44.26396852631861" lon="11.460328265667385"><ele>398.0</ele><time>2026-04-30T13:49:20Z</time></trkpt><trkpt lat="44.263914148110395" lon="11.460268188513123"><ele>398.5</ele><time>2026-04-30T13:49:21Z</time></trkpt><trkpt lat="44.263872449619086" lon="11.46020025494666"><ele>399.0</ele><time>2026-04-30T13:49:22Z</time></trkpt><trkpt lat="44.263836380672146" lon="11.460108102831903"><ele>399.50000000000006</ele><time>2026-04-30T13:49:23Z</time></trkpt><trkpt lat="44.26379478415281" lon="11.460016163909795"><ele>400.0</ele><time>2026-04-30T13:49:24Z</time></trkpt><trkpt lat="44.26374924966091" lon="11.459923131270045"><ele>401.00000000000006</ele><time>2026-04-30T13:49:25Z</time></trkpt><trkpt lat="44.26371718204155" lon="11.45981530852851"><ele>402.0</ele><time>2026-04-30T13:49:26Z</time></trkpt><trkpt lat="44.2636897467303" lon="11.459699754103928"><ele>403.0</ele><time>2026-04-30T13:49:27Z</time></trkpt><trkpt lat="44.26366077495472" lon="11.459588698471121"><ele>404.0</ele><time>2026-04-30T13:49:28Z</time></trkpt><trkpt lat="44.26362358300385" lon="11.459484684362087"><ele>405.00000000000006</ele><time>2026-04-30T13:49:29Z</time></trkpt><trkpt lat="44.2635894139935" lon="11.45939005298999"><ele>406.0</ele><time>2026-04-30T13:49:30Z</time></trkpt><trkpt lat="44.26350998702104" lon="11.459271837431029"><ele>407.83333333333337</ele><time>2026-04-30T13:49:32Z</time></trkpt><trkpt lat="44.26345529904464" lon="11.459222602218658"><ele>409.6666666666667</ele><time>2026-04-30T13:49:33Z</time></trkpt><trkpt lat="44.26338912356701" lon="11.459165497535992"><ele>411.5</ele><time>2026-04-30T13:49:34Z</time></trkpt><trkpt lat="44.26331817250871" lon="11.459097657575665"><ele>413.33333333333337</ele><time>2026-04-30T13:49:35Z</time></trkpt><trkpt lat="44.26325990847757" lon="11.459022538290938"><ele>415.1666666666667</ele><time>2026-04-30T13:49:36Z</time></trkpt><trkpt lat="44.26320969991892" lon="11.458926665429646"><ele>417.0</ele><time>2026-04-30T13:49:37Z</time></trkpt><trkpt lat="44.26315518767122" lon="11.45881808710659"><ele>417.6666666666667</ele><time>2026-04-30T13:49:38Z</time></trkpt><trkpt lat="44.26310715572198" lon="11.458727503580752"><ele>418.33333333333337</ele><time>2026-04-30T13:49:39Z</time></trkpt><trkpt lat="44.2630521360413" lon="11.458663865380146"><ele>419.0</ele><time>2026-04-30T13:49:40Z</time></trkpt><trkpt lat="44.26298369458877" lon="11.458595860793151"><ele>419.6666666666667</ele><time>2026-04-30T13:49:41Z</time></trkpt><trkpt lat="44.26291784065246" lon="11.458526464708205"><ele>420.33333333333337</ele><time>2026-04-30T13:49:42Z</time></trkpt><trkpt lat="44.262860192277344" lon="11.458475292258873"><ele>421.0</ele><time>2026-04-30T13:49:43Z</time></trkpt><trkpt lat="44.262803005679984" lon="11.458428202527648"><ele>421.00000000000006</ele><time>2026-04-30T13:49:44Z</time></trkpt><trkpt lat="44.26274413589229" lon="11.458354382501266"><ele>421.0</ele><time>2026-04-30T13:49:45Z</time></trkpt><trkpt lat="44.26268350522859" lon="11.458272847495001"><ele>421.0</ele><time>2026-04-30T13:49:46Z</time></trkpt><trkpt lat="44.26262478476969" lon="11.458193053517075"><ele>421.0</ele><time>2026-04-30T13:49:47Z</time></trkpt><trkpt lat="44.26257661049022" lon="11.458120728653496"><ele>421.00000000000006</ele><time>2026-04-30T13:49:48Z</time></trkpt><trkpt lat="44.262510028639674" lon="11.458020008802734"><ele>421.0</ele><time>2026-04-30T13:49:50Z</time></trkpt><trkpt lat="44.26247347414052" lon="11.457942714833301"><ele>422.50000000000006</ele><time>2026-04-30T13:49:52Z</time></trkpt><trkpt lat="44.262419420808065" lon="11.45784929059511"><ele>424.0</ele><time>2026-04-30T13:50:03Z</time></trkpt><trkpt lat="44.262368345448586" lon="11.457759000009093"><ele>425.5</ele><time>2026-04-30T13:50:05Z</time></trkpt><trkpt lat="44.262324832709155" lon="11.45766644957197"><ele>427.0</ele><time>2026-04-30T13:50:08Z</time></trkpt><trkpt lat="44.262310722224214" lon="11.457569235367654"><ele>428.50000000000006</ele><time>2026-04-30T13:50:10Z</time></trkpt><trkpt lat="44.26232496348591" lon="11.457480503545703"><ele>430.0</ele><time>2026-04-30T13:50:11Z</time></trkpt><trkpt lat="44.26236137252908" lon="11.457377813976873"><ele>430.00000000000006</ele><time>2026-04-30T13:50:12Z</time></trkpt><trkpt lat="44.2623784985489" lon="11.45728629042147"><ele>430.0</ele><time>2026-04-30T13:50:13Z</time></trkpt><trkpt lat="44.26235623419821" lon="11.457183674800696"><ele>430.0</ele><time>2026-04-30T13:50:14Z</time></trkpt><trkpt lat="44.2623152327902" lon="11.45706783767595"><ele>430.0</ele><time>2026-04-30T13:50:15Z</time></trkpt><trkpt lat="44.26229092433596" lon="11.456958102621838"><ele>430.00000000000006</ele><time>2026-04-30T13:50:16Z</time></trkpt><trkpt lat="44.262274393744335" lon="11.456851822327273"><ele>430.0</ele><time>2026-04-30T13:50:17Z</time></trkpt><trkpt lat="44.2622670198514" lon="11.456726594891371"><ele>430.7142857142857</ele><time>2026-04-30T13:50:18Z</time></trkpt><trkpt lat="44.26226230750809" lon="11.456618101141483"><ele>431.42857142857144</ele><time>2026-04-30T13:50:19Z</time></trkpt><trkpt lat="44.26226107812588" lon="11.456521155457747"><ele>432.14285714285717</ele><time>2026-04-30T13:50:20Z</time></trkpt><trkpt lat="44.262273211139586" lon="11.456431780341287"><ele>432.8571428571429</ele><time>2026-04-30T13:50:21Z</time></trkpt><trkpt lat="44.26229492294123" lon="11.456344042502021"><ele>433.57142857142856</ele><time>2026-04-30T13:50:22Z</time></trkpt><trkpt lat="44.26231972381353" lon="11.456249541967832"><ele>434.28571428571433</ele><time>2026-04-30T13:50:23Z</time></trkpt><trkpt lat="44.262352900247315" lon="11.456143706658153"><ele>435.0</ele><time>2026-04-30T13:50:24Z</time></trkpt><trkpt lat="44.26237102484234" lon="11.456028973154865"><ele>438.5</ele><time>2026-04-30T13:50:25Z</time></trkpt><trkpt lat="44.262360914256355" lon="11.455925303396654"><ele>442.0</ele><time>2026-04-30T13:50:26Z</time></trkpt><trkpt lat="44.262346037466024" lon="11.455829613241086"><ele>445.5</ele><time>2026-04-30T13:50:27Z</time></trkpt><trkpt lat="44.26234022640801" lon="11.455736485607655"><ele>449.0</ele><time>2026-04-30T13:50:28Z</time></trkpt><trkpt lat="44.26234434365864" lon="11.45561621991207"><ele>452.5</ele><time>2026-04-30T13:50:29Z</time></trkpt><trkpt lat="44.2623503899064" lon="11.45549964979813"><ele>456.0</ele><time>2026-04-30T13:50:30Z</time></trkpt><trkpt lat="44.262352138712544" lon="11.455390844726907"><ele>458.0</ele><time>2026-04-30T13:50:31Z</time></trkpt><trkpt lat="44.26235615294928" lon="11.455276178068912"><ele>460.0</ele><time>2026-04-30T13:50:32Z</time></trkpt><trkpt lat="44.26236472311576" lon="11.455172090991342"><ele>462.0</ele><time>2026-04-30T13:50:33Z</time></trkpt><trkpt lat="44.2623640610568" lon="11.45505896968844"><ele>464.0</ele><time>2026-04-30T13:50:34Z</time></trkpt><trkpt lat="44.262361948403154" lon="11.454952471483002"><ele>466.0</ele><time>2026-04-30T13:50:35Z</time></trkpt><trkpt lat="44.26237677872179" lon="11.454864113544145"><ele>468.0</ele><time>2026-04-30T13:50:36Z</time></trkpt><trkpt lat="44.262417995340336" lon="11.454759931543096"><ele>468.0</ele><time>2026-04-30T13:50:37Z</time></trkpt><trkpt lat="44.26247076394846" lon="11.454636311676465"><ele>467.99999999999994</ele><time>2026-04-30T13:50:38Z</time></trkpt><trkpt lat="44.262515692831236" lon="11.45448997660064"><ele>467.99999999999994</ele><time>2026-04-30T13:50:39Z</time></trkpt><trkpt lat="44.26252562845309" lon="11.454369537323853"><ele>468.0</ele><time>2026-04-30T13:50:40Z</time></trkpt><trkpt lat="44.26252683357277" lon="11.454271124221757"><ele>468.0</ele><time>2026-04-30T13:50:41Z</time></trkpt><trkpt lat="44.262503128098025" lon="11.454125194854232"><ele>468.59999999999997</ele><time>2026-04-30T13:50:43Z</time></trkpt><trkpt lat="44.26249415920946" lon="11.454031441048963"><ele>469.19999999999993</ele><time>2026-04-30T13:50:45Z</time></trkpt><trkpt lat="44.262485145102964" lon="11.453912948989524"><ele>469.8</ele><time>2026-04-30T13:50:47Z</time></trkpt><trkpt lat="44.26246328153344" lon="11.453755752671029"><ele>470.4</ele><time>2026-04-30T13:50:49Z</time></trkpt><trkpt lat="44.26244670866046" lon="11.453664942303863"><ele>471.0</ele><time>2026-04-30T13:50:50Z</time></trkpt><trkpt lat="44.26243218863479" lon="11.453480142563558"><ele>473.8</ele><time>2026-04-30T13:50:52Z</time></trkpt><trkpt lat="44.26243870892535" lon="11.45337844769064"><ele>476.6</ele><time>2026-04-30T13:50:53Z</time></trkpt><trkpt lat="44.26245609390139" lon="11.453280906587574"><ele>479.4</ele><time>2026-04-30T13:50:54Z</time></trkpt><trkpt lat="44.26249444990487" lon="11.453198971017384"><ele>482.2</ele><time>2026-04-30T13:50:55Z</time></trkpt><trkpt lat="44.262545963760445" lon="11.45303792050133"><ele>485.0</ele><time>2026-04-30T13:50:57Z</time></trkpt><trkpt lat="44.26254124870232" lon="11.452857844615437"><ele>487.3333333333333</ele><time>2026-04-30T13:50:59Z</time></trkpt><trkpt lat="44.262504703481746" lon="11.45276242088159"><ele>489.66666666666663</ele><time>2026-04-30T13:51:00Z</time></trkpt><trkpt lat="44.26245346432313" lon="11.452682786432357"><ele>492.0</ele><time>2026-04-30T13:51:01Z</time></trkpt><trkpt lat="44.26235944590838" lon="11.452556133340606"><ele>494.33333333333337</ele><time>2026-04-30T13:51:03Z</time></trkpt><trkpt lat="44.262322109229814" lon="11.452472254453733"><ele>496.6666666666667</ele><time>2026-04-30T13:51:04Z</time></trkpt><trkpt lat="44.26231216916507" lon="11.452377783252862"><ele>499.0</ele><time>2026-04-30T13:51:05Z</time></trkpt><trkpt lat="44.262317967642474" lon="11.452280823831424"><ele>499.0</ele><time>2026-04-30T13:51:06Z</time></trkpt><trkpt lat="44.26231368635216" lon="11.452177190200342"><ele>499.0</ele><time>2026-04-30T13:51:07Z</time></trkpt><trkpt lat="44.26228854921659" lon="11.452079029676252"><ele>499.0</ele><time>2026-04-30T13:51:08Z</time></trkpt><trkpt lat="44.26225289203508" lon="11.451971910641483"><ele>499.0</ele><time>2026-04-30T13:51:09Z</time></trkpt><trkpt lat="44.26221357983118" lon="11.45182512652638"><ele>499.0</ele><time>2026-04-30T13:51:10Z</time></trkpt><trkpt lat="44.262198487487346" lon="11.451666281638555"><ele>501.00000000000006</ele><time>2026-04-30T13:51:11Z</time></trkpt><trkpt lat="44.262203521263544" lon="11.451522730567346"><ele>503.0</ele><time>2026-04-30T13:51:12Z</time></trkpt><trkpt lat="44.26220806840571" lon="11.45141981171444"><ele>505.0</ele><time>2026-04-30T13:51:13Z</time></trkpt><trkpt lat="44.26214605925714" lon="11.451307319302405"><ele>507.0</ele><time>2026-04-30T13:51:15Z</time></trkpt><trkpt lat="44.262112059616356" lon="11.451183689774766"><ele>509.00000000000006</ele><time>2026-04-30T13:51:17Z</time></trkpt><trkpt lat="44.262134547753796" lon="11.451099458013177"><ele>511.0</ele><time>2026-04-30T13:51:18Z</time></trkpt><trkpt lat="44.262113927736564" lon="11.451012357290852"><ele>514.0</ele><time>2026-04-30T13:51:19Z</time></trkpt><trkpt lat="44.262056910052856" lon="11.450884365958569"><ele>517.0</ele><time>2026-04-30T13:51:21Z</time></trkpt><trkpt lat="44.2619568262047" lon="11.45082324897935"><ele>520.0</ele><time>2026-04-30T13:51:23Z</time></trkpt><trkpt lat="44.26190625871841" lon="11.450741574392495"><ele>523.0</ele><time>2026-04-30T13:51:24Z</time></trkpt><trkpt lat="44.26187332530621" lon="11.450634731386778"><ele>526.0</ele><time>2026-04-30T13:51:25Z</time></trkpt><trkpt lat="44.26182766458483" lon="11.450536720680812"><ele>529.0</ele><time>2026-04-30T13:51:26Z</time></trkpt><trkpt lat="44.26178593096672" lon="11.450420038154949"><ele>532.0</ele><time>2026-04-30T13:51:28Z</time></trkpt><trkpt lat="44.26183570533522" lon="11.450305648756073"><ele>535.0</ele><time>2026-04-30T13:51:31Z</time></trkpt><trkpt lat="44.261874064754096" lon="11.450233971841486"><ele>538.0</ele><time>2026-04-30T13:51:32Z</time></trkpt><trkpt lat="44.26191558373242" lon="11.450158053002488"><ele>541.0</ele><time>2026-04-30T13:51:33Z</time></trkpt><trkpt lat="44.261977355984136" lon="11.45005628538244"><ele>544.0</ele><time>2026-04-30T13:51:35Z</time></trkpt><trkpt lat="44.26203347382008" lon="11.449959301658977"><ele>544.0</ele><time>2026-04-30T13:51:38Z</time></trkpt><trkpt lat="44.262082083912055" lon="11.449873977956086"><ele>544.0</ele><time>2026-04-30T13:51:40Z</time></trkpt><trkpt lat="44.26209282104469" lon="11.449775258116432"><ele>544.0</ele><time>2026-04-30T13:51:41Z</time></trkpt><trkpt lat="44.2622253243352" lon="11.449611902221573"><ele>544.0</ele><time>2026-04-30T13:51:43Z</time></trkpt><trkpt lat="44.262307175005034" lon="11.449565116663969"><ele>544.0</ele><time>2026-04-30T13:51:44Z</time></trkpt><trkpt lat="44.26240907542151" lon="11.449561965658225"><ele>547.2</ele><time>2026-04-30T13:51:45Z</time></trkpt><trkpt lat="44.26250225237808" lon="11.449485218417914"><ele>550.4</ele><time>2026-04-30T13:51:46Z</time></trkpt><trkpt lat="44.26259066651677" lon="11.44948398105068"><ele>553.6</ele><time>2026-04-30T13:51:47Z</time></trkpt><trkpt lat="44.2627027962105" lon="11.449397987580658"><ele>556.8</ele><time>2026-04-30T13:51:49Z</time></trkpt><trkpt lat="44.26277738085207" lon="11.449356111019853"><ele>560.0</ele><time>2026-04-30T13:51:50Z</time></trkpt><trkpt lat="44.26284952981725" lon="11.449272076128487"><ele>560.0</ele><time>2026-04-30T13:51:51Z</time></trkpt><trkpt lat="44.262927689200914" lon="11.449229618159022"><ele>560.0</ele><time>2026-04-30T13:51:52Z</time></trkpt><trkpt lat="44.263023976202184" lon="11.4492205637092"><ele>560.0</ele><time>2026-04-30T13:51:53Z</time></trkpt><trkpt lat="44.26310201779962" lon="11.44918364713241"><ele>560.0</ele><time>2026-04-30T13:51:54Z</time></trkpt><trkpt lat="44.26318274406499" lon="11.449139463740822"><ele>560.0</ele><time>2026-04-30T13:51:55Z</time></trkpt><trkpt lat="44.26326038021327" lon="11.449109663941229"><ele>560.0</ele><time>2026-04-30T13:51:56Z</time></trkpt><trkpt lat="44.26334598171088" lon="11.449098687645725"><ele>558.8333333333333</ele><time>2026-04-30T13:51:57Z</time></trkpt><trkpt lat="44.26343744246332" lon="11.449078490452928"><ele>557.6666666666666</ele><time>2026-04-30T13:51:58Z</time></trkpt><trkpt lat="44.263517073242966" lon="11.449067374282663"><ele>556.5</ele><time>2026-04-30T13:51:59Z</time></trkpt><trkpt lat="44.26358931650516" lon="11.449033832969779"><ele>555.3333333333334</ele><time>2026-04-30T13:52:00Z</time></trkpt><trkpt lat="44.263648308570865" lon="11.448982900369613"><ele>554.1666666666667</ele><time>2026-04-30T13:52:01Z</time></trkpt><trkpt lat="44.2637161322644" lon="11.448921862536507"><ele>553.0</ele><time>2026-04-30T13:52:02Z</time></trkpt><trkpt lat="44.263788400548364" lon="11.44886003871267"><ele>553.0</ele><time>2026-04-30T13:52:03Z</time></trkpt><trkpt lat="44.26385732333133" lon="11.44879283273745"><ele>553.0</ele><time>2026-04-30T13:52:04Z</time></trkpt><trkpt lat="44.26393177678384" lon="11.448714768075178"><ele>553.0</ele><time>2026-04-30T13:52:05Z</time></trkpt><trkpt lat="44.26398037075088" lon="11.448640304396983"><ele>553.0</ele><time>2026-04-30T13:52:06Z</time></trkpt><trkpt lat="44.26403968326179" lon="11.448607509184582"><ele>553.0</ele><time>2026-04-30T13:52:07Z</time></trkpt><trkpt lat="44.26409674512319" lon="11.448546477188719"><ele>553.0</ele><time>2026-04-30T13:52:08Z</time></trkpt><trkpt lat="44.26420504549774" lon="11.448475884509966"><ele>558.0</ele><time>2026-04-30T13:52:10Z</time></trkpt><trkpt lat="44.26431599952519" lon="11.448493018438631"><ele>563.0</ele><time>2026-04-30T13:52:12Z</time></trkpt><trkpt lat="44.26438025379165" lon="11.44850653582977"><ele>568.0</ele><time>2026-04-30T13:52:13Z</time></trkpt><trkpt lat="44.2644395267071" lon="11.448542549607048"><ele>573.0</ele><time>2026-04-30T13:52:14Z</time></trkpt><trkpt lat="44.26457498029856" lon="11.448571428739518"><ele>578.0</ele><time>2026-04-30T13:52:16Z</time></trkpt><trkpt lat="44.26464748520332" lon="11.448592136050099"><ele>578.0</ele><time>2026-04-30T13:52:17Z</time></trkpt><trkpt lat="44.26474624340987" lon="11.448578570360539"><ele>578.0</ele><time>2026-04-30T13:52:18Z</time></trkpt><trkpt lat="44.26483091003838" lon="11.448535781780413"><ele>578.0</ele><time>2026-04-30T13:52:19Z</time></trkpt><trkpt lat="44.26491138179803" lon="11.448516816026736"><ele>578.0</ele><time>2026-04-30T13:52:20Z</time></trkpt><trkpt lat="44.26498180032867" lon="11.448497516650017"><ele>578.0</ele><time>2026-04-30T13:52:21Z</time></trkpt><trkpt lat="44.26504707918707" lon="11.448509841927612"><ele>578.0</ele><time>2026-04-30T13:52:22Z</time></trkpt><trkpt lat="44.26511919581852" lon="11.448518649952547"><ele>578.0</ele><time>2026-04-30T13:52:23Z</time></trkpt><trkpt lat="44.265201745570344" lon="11.448530176845876"><ele>578.0</ele><time>2026-04-30T13:52:24Z</time></trkpt><trkpt lat="44.26528834568759" lon="11.448534783026027"><ele>578.0</ele><time>2026-04-30T13:52:25Z</time></trkpt><trkpt lat="44.26535977724038" lon="11.448535066100202"><ele>578.0</ele><time>2026-04-30T13:52:26Z</time></trkpt><trkpt lat="44.265431868029125" lon="11.448533154057683"><ele>578.0</ele><time>2026-04-30T13:52:27Z</time></trkpt><trkpt lat="44.265500609775806" lon="11.448520575999895"><ele>578.0</ele><time>2026-04-30T13:52:28Z</time></trkpt><trkpt lat="44.26562777000502" lon="11.448533074056794"><ele>577.3333333333333</ele><time>2026-04-30T13:52:30Z</time></trkpt><trkpt lat="44.26568139602995" lon="11.448592266474108"><ele>576.6666666666666</ele><time>2026-04-30T13:52:31Z</time></trkpt><trkpt lat="44.26574146257796" lon="11.44863134323359"><ele>576.0</ele><time>2026-04-30T13:52:32Z</time></trkpt><trkpt lat="44.26582876012634" lon="11.448623711533807"><ele>575.3333333333334</ele><time>2026-04-30T13:52:34Z</time></trkpt><trkpt lat="44.26586106065777" lon="11.448492454098982"><ele>574.6666666666667</ele><time>2026-04-30T13:52:36Z</time></trkpt><trkpt lat="44.26583712497825" lon="11.448391240347837"><ele>574.0</ele><time>2026-04-30T13:52:37Z</time></trkpt><trkpt lat="44.26578185339112" lon="11.448261004180525"><ele>574.0</ele><time>2026-04-30T13:52:38Z</time></trkpt><trkpt lat="44.26575364307125" lon="11.448121108486475"><ele>574.0</ele><time>2026-04-30T13:52:39Z</time></trkpt><trkpt lat="44.265762161201366" lon="11.447929490595708"><ele>574.0</ele><time>2026-04-30T13:52:41Z</time></trkpt><trkpt lat="44.2657905132556" lon="11.447780293562651"><ele>574.0</ele><time>2026-04-30T13:52:42Z</time></trkpt><trkpt lat="44.26582991289964" lon="11.44765047777198"><ele>575.6666666666667</ele><time>2026-04-30T13:52:43Z</time></trkpt><trkpt lat="44.26588902981067" lon="11.447569860760192"><ele>577.3333333333334</ele><time>2026-04-30T13:52:44Z</time></trkpt><trkpt lat="44.265927981232124" lon="11.447480054261053"><ele>579.0</ele><time>2026-04-30T13:52:45Z</time></trkpt><trkpt lat="44.265967118596116" lon="11.447391284862137"><ele>580.6666666666666</ele><time>2026-04-30T13:52:46Z</time></trkpt><trkpt lat="44.265997470750214" lon="11.447289939201713"><ele>582.3333333333333</ele><time>2026-04-30T13:52:47Z</time></trkpt><trkpt lat="44.266031825115554" lon="11.44715847886741"><ele>584.0</ele><time>2026-04-30T13:52:49Z</time></trkpt><trkpt lat="44.26604086875214" lon="11.447060399071194"><ele>584.0</ele><time>2026-04-30T13:52:50Z</time></trkpt><trkpt lat="44.26605150048384" lon="11.446967677512049"><ele>584.0</ele><time>2026-04-30T13:52:51Z</time></trkpt><trkpt lat="44.266012347708354" lon="11.44681250518028"><ele>584.0</ele><time>2026-04-30T13:52:53Z</time></trkpt><trkpt lat="44.2659441744071" lon="11.446768352957225"><ele>584.0</ele><time>2026-04-30T13:52:54Z</time></trkpt><trkpt lat="44.26585604404149" lon="11.446732547969122"><ele>584.0</ele><time>2026-04-30T13:52:55Z</time></trkpt><trkpt lat="44.26577862281724" lon="11.446706184947912"><ele>584.0</ele><time>2026-04-30T13:52:56Z</time></trkpt><trkpt lat="44.26571899880163" lon="11.446655700356562"><ele>584.0</ele><time>2026-04-30T13:52:57Z</time></trkpt><trkpt lat="44.26566716763536" lon="11.446581114645362"><ele>584.0</ele><time>2026-04-30T13:52:58Z</time></trkpt><trkpt lat="44.26560061873932" lon="11.446492539236333"><ele>584.0</ele><time>2026-04-30T13:52:59Z</time></trkpt><trkpt lat="44.26553337208943" lon="11.446421076374229"><ele>584.0</ele><time>2026-04-30T13:53:00Z</time></trkpt><trkpt lat="44.26548869058657" lon="11.446352353266516"><ele>584.0</ele><time>2026-04-30T13:53:01Z</time></trkpt><trkpt lat="44.2654502271025" lon="11.446249998631124"><ele>584.0</ele><time>2026-04-30T13:53:03Z</time></trkpt><trkpt lat="44.265426499623935" lon="11.446117762076524"><ele>583.6</ele><time>2026-04-30T13:53:05Z</time></trkpt><trkpt lat="44.265376158262335" lon="11.445983597474894"><ele>583.2</ele><time>2026-04-30T13:53:07Z</time></trkpt><trkpt lat="44.265302708536275" lon="11.446007052333803"><ele>582.8000000000001</ele><time>2026-04-30T13:53:08Z</time></trkpt><trkpt lat="44.26519758377668" lon="11.446004070270842"><ele>582.4</ele><time>2026-04-30T13:53:10Z</time></trkpt><trkpt lat="44.26512196533817" lon="11.446001210331193"><ele>582.0</ele><time>2026-04-30T13:53:12Z</time></trkpt><trkpt lat="44.265015323653" lon="11.446020882621282"><ele>582.0</ele><time>2026-04-30T13:53:14Z</time></trkpt><trkpt lat="44.26497795251977" lon="11.446141740559732"><ele>582.0</ele><time>2026-04-30T13:53:16Z</time></trkpt><trkpt lat="44.264918978368414" lon="11.446206872874214"><ele>582.0</ele><time>2026-04-30T13:53:19Z</time></trkpt><trkpt lat="44.26485041841121" lon="11.446199442003605"><ele>582.0</ele><time>2026-04-30T13:53:22Z</time></trkpt><trkpt lat="44.26477500630822" lon="11.446258654638651"><ele>582.0</ele><time>2026-04-30T13:53:25Z</time></trkpt><trkpt lat="44.264690783182466" lon="11.446270672338514"><ele>582.0</ele><time>2026-04-30T13:53:28Z</time></trkpt><trkpt lat="44.26461220230267" lon="11.446247051296345"><ele>583.8333333333334</ele><time>2026-04-30T13:53:30Z</time></trkpt><trkpt lat="44.26454581084068" lon="11.446254602706304"><ele>585.6666666666666</ele><time>2026-04-30T13:53:32Z</time></trkpt><trkpt lat="44.26447731781026" lon="11.446239834885603"><ele>587.5</ele><time>2026-04-30T13:53:35Z</time></trkpt><trkpt lat="44.26440511702661" lon="11.446196749601134"><ele>589.3333333333333</ele><time>2026-04-30T13:53:38Z</time></trkpt><trkpt lat="44.264271852569394" lon="11.446163685253905"><ele>591.1666666666666</ele><time>2026-04-30T13:54:04Z</time></trkpt><trkpt lat="44.26418083878271" lon="11.446151957533187"><ele>593.0</ele><time>2026-04-30T13:54:07Z</time></trkpt><trkpt lat="44.26412515513187" lon="11.446082300652447"><ele>593.0</ele><time>2026-04-30T13:54:10Z</time></trkpt><trkpt lat="44.26403163652703" lon="11.446030620958306"><ele>593.0</ele><time>2026-04-30T13:54:13Z</time></trkpt><trkpt lat="44.2639407165917" lon="11.445991190793965"><ele>593.0</ele><time>2026-04-30T13:54:15Z</time></trkpt><trkpt lat="44.26385123337466" lon="11.445866474826536"><ele>593.0</ele><time>2026-04-30T13:54:18Z</time></trkpt><trkpt lat="44.2637693713942" lon="11.445729956347758"><ele>594.3333333333333</ele><time>2026-04-30T13:54:20Z</time></trkpt><trkpt lat="44.26366348514192" lon="11.445656233940287"><ele>595.6666666666666</ele><time>2026-04-30T13:54:22Z</time></trkpt><trkpt lat="44.26361733683307" lon="11.445581448101233"><ele>597.0</ele><time>2026-04-30T13:54:32Z</time></trkpt><trkpt lat="44.26354291242221" lon="11.445533035421489"><ele>598.3333333333334</ele><time>2026-04-30T13:54:36Z</time></trkpt><trkpt lat="44.26345241058413" lon="11.445489016143956"><ele>599.6666666666667</ele><time>2026-04-30T13:54:40Z</time></trkpt><trkpt lat="44.263380953221684" lon="11.445451969639603"><ele>601.0</ele><time>2026-04-30T13:54:56Z</time></trkpt><trkpt lat="44.26330122513638" lon="11.44544073053434"><ele>601.0</ele><time>2026-04-30T13:55:02Z</time></trkpt><trkpt lat="44.26323362069224" lon="11.445426360933507"><ele>601.0</ele><time>2026-04-30T13:55:05Z</time></trkpt><trkpt lat="44.26315128411903" lon="11.445427446329255"><ele>601.0</ele><time>2026-04-30T13:55:09Z</time></trkpt><trkpt lat="44.263089439318506" lon="11.445407341603444"><ele>601.0</ele><time>2026-04-30T13:55:11Z</time></trkpt><trkpt lat="44.26302644332225" lon="11.44539132498866"><ele>601.0</ele><time>2026-04-30T13:55:13Z</time></trkpt><trkpt lat="44.262948501962605" lon="11.445403717528777"><ele>601.0</ele><time>2026-04-30T13:55:15Z</time></trkpt><trkpt lat="44.26285713114558" lon="11.445451806622865"><ele>602.8</ele><time>2026-04-30T13:55:17Z</time></trkpt><trkpt lat="44.262765282292484" lon="11.445430555268846"><ele>604.6</ele><time>2026-04-30T13:55:19Z</time></trkpt><trkpt lat="44.262681560481965" lon="11.445406780568723"><ele>606.4</ele><time>2026-04-30T13:55:21Z</time></trkpt><trkpt lat="44.26257870799964" lon="11.445379313984155"><ele>608.2</ele><time>2026-04-30T13:55:23Z</time></trkpt><trkpt lat="44.262475244015725" lon="11.445383367572067"><ele>610.0</ele><time>2026-04-30T13:55:25Z</time></trkpt><trkpt lat="44.26236129210691" lon="11.445434851348322"><ele>613.3333333333334</ele><time>2026-04-30T13:55:27Z</time></trkpt><trkpt lat="44.26227506772342" lon="11.445479814318338"><ele>616.6666666666667</ele><time>2026-04-30T13:55:29Z</time></trkpt><trkpt lat="44.262182926345396" lon="11.445541088141379"><ele>620.0</ele><time>2026-04-30T13:55:31Z</time></trkpt><trkpt lat="44.26209274658182" lon="11.445570142169863"><ele>623.3333333333334</ele><time>2026-04-30T13:55:33Z</time></trkpt><trkpt lat="44.262023972952434" lon="11.44558028856978"><ele>626.6666666666666</ele><time>2026-04-30T13:55:36Z</time></trkpt><trkpt lat="44.261952801460794" lon="11.445600133424955"><ele>630.0</ele><time>2026-04-30T13:55:38Z</time></trkpt><trkpt lat="44.261878986946186" lon="11.445625257373084"><ele>630.0</ele><time>2026-04-30T13:55:45Z</time></trkpt><trkpt lat="44.26182172855625" lon="11.445697721582617"><ele>630.0</ele><time>2026-04-30T13:55:47Z</time></trkpt><trkpt lat="44.26184996099481" lon="11.445802766309217"><ele>630.0</ele><time>2026-04-30T13:55:50Z</time></trkpt><trkpt lat="44.26182333345352" lon="11.44590343000696"><ele>630.0</ele><time>2026-04-30T13:55:54Z</time></trkpt><trkpt lat="44.261790222092465" lon="11.44597874750876"><ele>630.0</ele><time>2026-04-30T13:55:56Z</time></trkpt><trkpt lat="44.261736054465096" lon="11.44602698303053"><ele>630.0</ele><time>2026-04-30T13:57:45Z</time></trkpt><trkpt lat="44.261674874115464" lon="11.445975556045079"><ele>630.0</ele><time>2026-04-30T14:00:42Z</time></trkpt><trkpt lat="44.26176829864723" lon="11.445955912389254"><ele>630.0</ele><time>2026-04-30T14:00:49Z</time></trkpt><trkpt lat="44.26183409824639" lon="11.44592666705743"><ele>630.0</ele><time>2026-04-30T14:00:53Z</time></trkpt><trkpt lat="44.261803149158055" lon="11.445834433910868"><ele>630.0</ele><time>2026-04-30T14:00:56Z</time></trkpt><trkpt lat="44.261762476446386" lon="11.445752663001239"><ele>630.0</ele><time>2026-04-30T14:00:59Z</time></trkpt><trkpt lat="44.26170024738552" lon="11.445773342553057"><ele>630.0</ele><time>2026-04-30T14:01:03Z</time></trkpt><trkpt lat="44.26163581063021" lon="11.445770366712866"><ele>630.0</ele><time>2026-04-30T14:01:06Z</time></trkpt><trkpt lat="44.26154626829752" lon="11.445795113550222"><ele>630.0</ele><time>2026-04-30T14:01:10Z</time></trkpt><trkpt lat="44.26148231087477" lon="11.445798616543637"><ele>630.2857142857143</ele><time>2026-04-30T14:01:12Z</time></trkpt><trkpt lat="44.2613989103756" lon="11.44580774997608"><ele>630.5714285714286</ele><time>2026-04-30T14:01:20Z</time></trkpt><trkpt lat="44.26134377881517" lon="11.44585052391596"><ele>630.8571428571429</ele><time>2026-04-30T14:01:23Z</time></trkpt><trkpt lat="44.26128123986594" lon="11.445817073802187"><ele>631.1428571428571</ele><time>2026-04-30T14:01:26Z</time></trkpt><trkpt lat="44.261233516390114" lon="11.445751256318346"><ele>631.4285714285714</ele><time>2026-04-30T14:01:28Z</time></trkpt><trkpt lat="44.2611636436735" lon="11.445762822360393"><ele>631.7142857142858</ele><time>2026-04-30T14:01:31Z</time></trkpt><trkpt lat="44.261082401836475" lon="11.445782276808442"><ele>632.0</ele><time>2026-04-30T14:01:34Z</time></trkpt><trkpt lat="44.261003523201246" lon="11.445835635514783"><ele>632.0</ele><time>2026-04-30T14:01:36Z</time></trkpt><trkpt lat="44.26093674585593" lon="11.445899129856569"><ele>632.0</ele><time>2026-04-30T14:01:55Z</time></trkpt><trkpt lat="44.26092256863846" lon="11.446023278483464"><ele>632.0</ele><time>2026-04-30T14:02:02Z</time></trkpt><trkpt lat="44.26086357440301" lon="11.446064529729757"><ele>632.0</ele><time>2026-04-30T14:02:04Z</time></trkpt><trkpt lat="44.26080676984981" lon="11.445995974038048"><ele>632.0</ele><time>2026-04-30T14:02:16Z</time></trkpt><trkpt lat="44.260757703672354" lon="11.445911890108317"><ele>632.0</ele><time>2026-04-30T14:02:19Z</time></trkpt><trkpt lat="44.260654743368995" lon="11.445916234330264"><ele>632.8000000000001</ele><time>2026-04-30T14:02:22Z</time></trkpt><trkpt lat="44.26057077335561" lon="11.445915266691571"><ele>633.6</ele><time>2026-04-30T14:02:24Z</time></trkpt><trkpt lat="44.260495633774994" lon="11.445922642582698"><ele>634.4000000000001</ele><time>2026-04-30T14:02:26Z</time></trkpt><trkpt lat="44.26041495075536" lon="11.445919522780885"><ele>635.2</ele><time>2026-04-30T14:02:28Z</time></trkpt><trkpt lat="44.2603237763446" lon="11.445896354732747"><ele>636.0</ele><time>2026-04-30T14:02:30Z</time></trkpt><trkpt lat="44.26020950694455" lon="11.445831509721588"><ele>636.0</ele><time>2026-04-30T14:02:32Z</time></trkpt><trkpt lat="44.26014249894296" lon="11.445782428001408"><ele>636.0</ele><time>2026-04-30T14:02:33Z</time></trkpt><trkpt lat="44.26007295884379" lon="11.445740434452365"><ele>636.0</ele><time>2026-04-30T14:02:34Z</time></trkpt><trkpt lat="44.26000579714316" lon="11.445703678081575"><ele>636.0</ele><time>2026-04-30T14:02:35Z</time></trkpt><trkpt lat="44.25994524138117" lon="11.445659999976213"><ele>636.0</ele><time>2026-04-30T14:02:36Z</time></trkpt><trkpt lat="44.259873878323546" lon="11.445616319226485"><ele>636.0</ele><time>2026-04-30T14:02:37Z</time></trkpt><trkpt lat="44.25981314958282" lon="11.44557767079277"><ele>636.0</ele><time>2026-04-30T14:02:38Z</time></trkpt><trkpt lat="44.25970430245214" lon="11.445493886728308"><ele>636.8333333333334</ele><time>2026-04-30T14:02:40Z</time></trkpt><trkpt lat="44.25965819577541" lon="11.445419811707932"><ele>637.6666666666666</ele><time>2026-04-30T14:02:41Z</time></trkpt><trkpt lat="44.25955528640024" lon="11.445326131586341"><ele>638.5</ele><time>2026-04-30T14:02:43Z</time></trkpt><trkpt lat="44.25948080125522" lon="11.445313015160975"><ele>639.3333333333333</ele><time>2026-04-30T14:03:19Z</time></trkpt><trkpt lat="44.25940738887376" lon="11.445315112777157"><ele>640.1666666666666</ele><time>2026-04-30T14:03:21Z</time></trkpt><trkpt lat="44.25931659069194" lon="11.445285894276518"><ele>641.0</ele><time>2026-04-30T14:03:23Z</time></trkpt><trkpt lat="44.259208330453674" lon="11.445255876535533"><ele>641.0</ele><time>2026-04-30T14:03:25Z</time></trkpt><trkpt lat="44.25912370564087" lon="11.445225555770289"><ele>641.0</ele><time>2026-04-30T14:03:27Z</time></trkpt><trkpt lat="44.25903683893042" lon="11.445193976188552"><ele>641.0</ele><time>2026-04-30T14:03:29Z</time></trkpt><trkpt lat="44.25895661657993" lon="11.445114563561527"><ele>641.0</ele><time>2026-04-30T14:03:31Z</time></trkpt><trkpt lat="44.25887339719635" lon="11.445054256895647"><ele>641.0</ele><time>2026-04-30T14:03:33Z</time></trkpt><trkpt lat="44.25880175137468" lon="11.445023490201969"><ele>641.0</ele><time>2026-04-30T14:03:35Z</time></trkpt><trkpt lat="44.25871569588289" lon="11.444929821392437"><ele>641.5</ele><time>2026-04-30T14:03:37Z</time></trkpt><trkpt lat="44.25865916433201" lon="11.444876445305937"><ele>642.0</ele><time>2026-04-30T14:03:38Z</time></trkpt><trkpt lat="44.258588558310805" lon="11.444794650053773"><ele>642.5</ele><time>2026-04-30T14:03:40Z</time></trkpt><trkpt lat="44.25852710365854" lon="11.444729868345327"><ele>643.0</ele><time>2026-04-30T14:03:42Z</time></trkpt><trkpt lat="44.258479120807316" lon="11.444602545548669"><ele>643.5</ele><time>2026-04-30T14:03:44Z</time></trkpt><trkpt lat="44.25843415465221" lon="11.444496047570048"><ele>644.0</ele><time>2026-04-30T14:03:46Z</time></trkpt><trkpt lat="44.25838740305724" lon="11.44438420300071"><ele>645.0</ele><time>2026-04-30T14:03:48Z</time></trkpt><trkpt lat="44.25830034253924" lon="11.444289080294158"><ele>646.0</ele><time>2026-04-30T14:03:50Z</time></trkpt><trkpt lat="44.25824891743793" lon="11.444220106332802"><ele>647.0</ele><time>2026-04-30T14:03:52Z</time></trkpt><trkpt lat="44.25818803767533" lon="11.444137335426634"><ele>648.0</ele><time>2026-04-30T14:03:54Z</time></trkpt><trkpt lat="44.25811631355755" lon="11.444074322694144"><ele>649.0</ele><time>2026-04-30T14:03:56Z</time></trkpt><trkpt lat="44.25805392910702" lon="11.44400720195946"><ele>650.0</ele><time>2026-04-30T14:03:58Z</time></trkpt><trkpt lat="44.25798769074757" lon="11.443901383544945"><ele>650.8</ele><time>2026-04-30T14:04:00Z</time></trkpt><trkpt lat="44.25792775803351" lon="11.44382378023463"><ele>651.6</ele><time>2026-04-30T14:04:02Z</time></trkpt><trkpt lat="44.25785385213819" lon="11.44372348914955"><ele>652.4000000000001</ele><time>2026-04-30T14:04:04Z</time></trkpt><trkpt lat="44.25779781783288" lon="11.443605900055148"><ele>653.2</ele><time>2026-04-30T14:04:06Z</time></trkpt><trkpt lat="44.25774546424792" lon="11.443490148670328"><ele>654.0</ele><time>2026-04-30T14:04:08Z</time></trkpt><trkpt lat="44.257695501952284" lon="11.443418773827714"><ele>654.5</ele><time>2026-04-30T14:04:10Z</time></trkpt><trkpt lat="44.25765275695892" lon="11.44331329368657"><ele>655.0</ele><time>2026-04-30T14:04:12Z</time></trkpt><trkpt lat="44.257599425121114" lon="11.443238961253456"><ele>655.5</ele><time>2026-04-30T14:04:14Z</time></trkpt><trkpt lat="44.257526691890824" lon="11.443178616137928"><ele>656.0</ele><time>2026-04-30T14:04:16Z</time></trkpt><trkpt lat="44.25747511334424" lon="11.443123608870078"><ele>656.5</ele><time>2026-04-30T14:04:17Z</time></trkpt><trkpt lat="44.25741359641129" lon="11.443062176474621"><ele>657.0</ele><time>2026-04-30T14:04:18Z</time></trkpt><trkpt lat="44.257352053869724" lon="11.44296513874484"><ele>657.6</ele><time>2026-04-30T14:04:20Z</time></trkpt><trkpt lat="44.257296763493" lon="11.442825453996923"><ele>658.2</ele><time>2026-04-30T14:04:22Z</time></trkpt><trkpt lat="44.25722137287738" lon="11.442684729021206"><ele>658.8</ele><time>2026-04-30T14:04:24Z</time></trkpt><trkpt lat="44.25716313604095" lon="11.44261201318865"><ele>659.4</ele><time>2026-04-30T14:04:25Z</time></trkpt><trkpt lat="44.25711998698815" lon="11.442534196810973"><ele>660.0</ele><time>2026-04-30T14:04:26Z</time></trkpt><trkpt lat="44.25704085342318" lon="11.442415477014444"><ele>660.1666666666666</ele><time>2026-04-30T14:04:28Z</time></trkpt><trkpt lat="44.256934803423775" lon="11.442313875564423"><ele>660.3333333333334</ele><time>2026-04-30T14:04:30Z</time></trkpt><trkpt lat="44.25687628053392" lon="11.442258248587997"><ele>660.5</ele><time>2026-04-30T14:04:31Z</time></trkpt><trkpt lat="44.2568224508403" lon="11.44220335193237"><ele>660.6666666666667</ele><time>2026-04-30T14:04:32Z</time></trkpt><trkpt lat="44.25677331226611" lon="11.442147853992267"><ele>660.8333333333334</ele><time>2026-04-30T14:04:33Z</time></trkpt><trkpt lat="44.256722623360844" lon="11.44207058209526"><ele>661.0</ele><time>2026-04-30T14:04:34Z</time></trkpt><trkpt lat="44.25668152334925" lon="11.441994331952463"><ele>661.0</ele><time>2026-04-30T14:04:35Z</time></trkpt><trkpt lat="44.256619738132706" lon="11.441878137347611"><ele>661.0</ele><time>2026-04-30T14:04:37Z</time></trkpt><trkpt lat="44.256544241366576" lon="11.441797367978502"><ele>661.0</ele><time>2026-04-30T14:04:39Z</time></trkpt><trkpt lat="44.25643450737998" lon="11.441798882091962"><ele>661.0</ele><time>2026-04-30T14:04:41Z</time></trkpt><trkpt lat="44.256371849419175" lon="11.441814323499266"><ele>661.0</ele><time>2026-04-30T14:04:42Z</time></trkpt><trkpt lat="44.256249952349435" lon="11.441821174857564"><ele>664.0</ele><time>2026-04-30T14:04:44Z</time></trkpt><trkpt lat="44.256133972990064" lon="11.441758575522325"><ele>667.0</ele><time>2026-04-30T14:04:46Z</time></trkpt><trkpt lat="44.25604296682461" lon="11.441666664275074"><ele>670.0</ele><time>2026-04-30T14:04:48Z</time></trkpt><trkpt lat="44.255972171363304" lon="11.441582572007562"><ele>673.0</ele><time>2026-04-30T14:04:50Z</time></trkpt><trkpt lat="44.255919204287885" lon="11.441505365725908"><ele>676.0</ele><time>2026-04-30T14:04:53Z</time></trkpt><trkpt lat="44.25584525246203" lon="11.44140136003339"><ele>676.8333333333334</ele><time>2026-04-30T14:04:55Z</time></trkpt><trkpt lat="44.25577856300617" lon="11.441282313376584"><ele>677.6666666666667</ele><time>2026-04-30T14:04:57Z</time></trkpt><trkpt lat="44.25570604412681" lon="11.441152694464908"><ele>678.5</ele><time>2026-04-30T14:04:59Z</time></trkpt><trkpt lat="44.255661478911996" lon="11.441069363605259"><ele>679.3333333333334</ele><time>2026-04-30T14:05:00Z</time></trkpt><trkpt lat="44.25562948497015" lon="11.440987924196302"><ele>680.1666666666666</ele><time>2026-04-30T14:05:01Z</time></trkpt><trkpt lat="44.25560367146016" lon="11.440899756760386"><ele>681.0</ele><time>2026-04-30T14:05:02Z</time></trkpt><trkpt lat="44.255573039974635" lon="11.440766266010572"><ele>681.8</ele><time>2026-04-30T14:05:04Z</time></trkpt><trkpt lat="44.25553711130045" lon="11.440608586848123"><ele>682.5999999999999</ele><time>2026-04-30T14:05:06Z</time></trkpt><trkpt lat="44.25547301259975" lon="11.440454457096983"><ele>683.4</ele><time>2026-04-30T14:05:08Z</time></trkpt><trkpt lat="44.255429680449105" lon="11.440380402197688"><ele>684.2</ele><time>2026-04-30T14:05:09Z</time></trkpt><trkpt lat="44.255400287533526" lon="11.440301458864091"><ele>685.0</ele><time>2026-04-30T14:05:10Z</time></trkpt><trkpt lat="44.255364771897334" lon="11.440213786327211"><ele>687.0</ele><time>2026-04-30T14:05:11Z</time></trkpt><trkpt lat="44.25531145716304" lon="11.440120301545125"><ele>689.0</ele><time>2026-04-30T14:05:13Z</time></trkpt><trkpt lat="44.255265201208125" lon="11.440038021428071"><ele>691.0</ele><time>2026-04-30T14:05:15Z</time></trkpt><trkpt lat="44.2551961288908" lon="11.4399764958241"><ele>693.0</ele><time>2026-04-30T14:05:18Z</time></trkpt><trkpt lat="44.255141668275456" lon="11.439901650602609"><ele>695.0</ele><time>2026-04-30T14:05:21Z</time></trkpt><trkpt lat="44.25509336171641" lon="11.439816912040667"><ele>697.0</ele><time>2026-04-30T14:05:23Z</time></trkpt><trkpt lat="44.25502909901147" lon="11.43971869054397"><ele>698.0</ele><time>2026-04-30T14:05:26Z</time></trkpt><trkpt lat="44.254961993388825" lon="11.439618803558119"><ele>699.0</ele><time>2026-04-30T14:05:28Z</time></trkpt><trkpt lat="44.25488131610062" lon="11.439512672431606"><ele>700.0</ele><time>2026-04-30T14:05:30Z</time></trkpt><trkpt lat="44.25479043636288" lon="11.439450381928395"><ele>701.0</ele><time>2026-04-30T14:05:32Z</time></trkpt><trkpt lat="44.25471711300403" lon="11.439404260991122"><ele>702.0</ele><time>2026-04-30T14:05:34Z</time></trkpt><trkpt lat="44.25462110485758" lon="11.439394397688629"><ele>704.6666666666666</ele><time>2026-04-30T14:05:37Z</time></trkpt><trkpt lat="44.25453130051279" lon="11.439382323626907"><ele>707.3333333333334</ele><time>2026-04-30T14:05:39Z</time></trkpt><trkpt lat="44.25443303918945" lon="11.439318778833016"><ele>710.0</ele><time>2026-04-30T14:05:41Z</time></trkpt><trkpt lat="44.254383962848586" lon="11.439249651641761"><ele>712.6666666666667</ele><time>2026-04-30T14:05:42Z</time></trkpt><trkpt lat="44.25433875039987" lon="11.439177830212216"><ele>715.3333333333334</ele><time>2026-04-30T14:05:43Z</time></trkpt><trkpt lat="44.25428083763278" lon="11.439096717464956"><ele>718.0</ele><time>2026-04-30T14:05:45Z</time></trkpt><trkpt lat="44.25423859122419" lon="11.43901901054275"><ele>718.0</ele><time>2026-04-30T14:05:46Z</time></trkpt><trkpt lat="44.254183136669695" lon="11.438953326201228"><ele>718.0</ele><time>2026-04-30T14:05:47Z</time></trkpt><trkpt lat="44.25412430712145" lon="11.438918280452251"><ele>718.0</ele><time>2026-04-30T14:05:49Z</time></trkpt><trkpt lat="44.25406564553144" lon="11.43886901084699"><ele>718.0</ele><time>2026-04-30T14:05:51Z</time></trkpt><trkpt lat="44.253976582057795" lon="11.438818960157624"><ele>718.0</ele><time>2026-04-30T14:05:59Z</time></trkpt><trkpt lat="44.253860324721366" lon="11.438760102955191"><ele>718.0</ele><time>2026-04-30T14:06:01Z</time></trkpt><trkpt lat="44.25377859240062" lon="11.438699439456308"><ele>719.25</ele><time>2026-04-30T14:06:02Z</time></trkpt><trkpt lat="44.25365937419592" lon="11.438641084100698"><ele>720.5</ele><time>2026-04-30T14:06:03Z</time></trkpt><trkpt lat="44.25355199341623" lon="11.43860311667449"><ele>721.75</ele><time>2026-04-30T14:06:04Z</time></trkpt><trkpt lat="44.253397620000484" lon="11.438564289746758"><ele>723.0</ele><time>2026-04-30T14:06:05Z</time></trkpt><trkpt lat="44.25326195082073" lon="11.438505606930454"><ele>723.0</ele><time>2026-04-30T14:06:06Z</time></trkpt><trkpt lat="44.253155057322736" lon="11.438470215602294"><ele>723.0</ele><time>2026-04-30T14:06:07Z</time></trkpt><trkpt lat="44.25307089643708" lon="11.438437440391542"><ele>723.0</ele><time>2026-04-30T14:06:08Z</time></trkpt><trkpt lat="44.252996351636256" lon="11.438410904845218"><ele>723.0</ele><time>2026-04-30T14:06:09Z</time></trkpt><trkpt lat="44.252923888988924" lon="11.438368811814847"><ele>723.0</ele><time>2026-04-30T14:06:10Z</time></trkpt><trkpt lat="44.25284078009231" lon="11.438324605961219"><ele>723.0</ele><time>2026-04-30T14:06:11Z</time></trkpt><trkpt lat="44.25275815121763" lon="11.438269245524886"><ele>722.8333333333334</ele><time>2026-04-30T14:06:12Z</time></trkpt><trkpt lat="44.25269599949811" lon="11.438211954966338"><ele>722.6666666666666</ele><time>2026-04-30T14:06:13Z</time></trkpt><trkpt lat="44.25262543550772" lon="11.438154651292443"><ele>722.5</ele><time>2026-04-30T14:06:14Z</time></trkpt><trkpt lat="44.25255934123704" lon="11.438098324567216"><ele>722.3333333333333</ele><time>2026-04-30T14:06:15Z</time></trkpt><trkpt lat="44.25249226056409" lon="11.438041490753253"><ele>722.1666666666666</ele><time>2026-04-30T14:06:16Z</time></trkpt><trkpt lat="44.252430883217556" lon="11.437961767447302"><ele>722.0</ele><time>2026-04-30T14:06:18Z</time></trkpt><trkpt lat="44.252464614086904" lon="11.437840354709724"><ele>722.8333333333333</ele><time>2026-04-30T14:06:23Z</time></trkpt><trkpt lat="44.25247053657601" lon="11.437727565982774"><ele>723.6666666666666</ele><time>2026-04-30T14:06:26Z</time></trkpt><trkpt lat="44.2524483560134" lon="11.437643754278318"><ele>724.5</ele><time>2026-04-30T14:06:27Z</time></trkpt><trkpt lat="44.25243779099245" lon="11.437537953403321"><ele>725.3333333333334</ele><time>2026-04-30T14:06:28Z</time></trkpt><trkpt lat="44.25240812387853" lon="11.43743855781355"><ele>726.1666666666667</ele><time>2026-04-30T14:06:29Z</time></trkpt><trkpt lat="44.2523388912399" lon="11.437285927538838"><ele>727.0</ele><time>2026-04-30T14:06:31Z</time></trkpt><trkpt lat="44.25230614690292" lon="11.437202407685769"><ele>727.0</ele><time>2026-04-30T14:06:32Z</time></trkpt><trkpt lat="44.25228642503007" lon="11.437076675286251"><ele>727.0</ele><time>2026-04-30T14:06:33Z</time></trkpt><trkpt lat="44.25228867892419" lon="11.43690870751446"><ele>727.0</ele><time>2026-04-30T14:06:34Z</time></trkpt><trkpt lat="44.252298594086405" lon="11.43674345134561"><ele>727.0</ele><time>2026-04-30T14:06:35Z</time></trkpt><trkpt lat="44.25230275663252" lon="11.436612055339124"><ele>727.0</ele><time>2026-04-30T14:06:36Z</time></trkpt><trkpt lat="44.25229220560401" lon="11.436498607528645"><ele>727.3333333333334</ele><time>2026-04-30T14:06:37Z</time></trkpt><trkpt lat="44.25228790602286" lon="11.43636231936281"><ele>727.6666666666667</ele><time>2026-04-30T14:06:38Z</time></trkpt><trkpt lat="44.25226819821808" lon="11.436249103577007"><ele>728.0</ele><time>2026-04-30T14:06:39Z</time></trkpt><trkpt lat="44.252235031118644" lon="11.436137761537742"><ele>728.3333333333334</ele><time>2026-04-30T14:06:40Z</time></trkpt><trkpt lat="44.25220564483465" lon="11.436029370100924"><ele>728.6666666666666</ele><time>2026-04-30T14:06:41Z</time></trkpt><trkpt lat="44.252154500097866" lon="11.43594433365606"><ele>729.0</ele><time>2026-04-30T14:06:42Z</time></trkpt><trkpt lat="44.25207961879312" lon="11.435874156839018"><ele>729.0</ele><time>2026-04-30T14:06:43Z</time></trkpt><trkpt lat="44.25199104232994" lon="11.435823844238413"><ele>729.0</ele><time>2026-04-30T14:06:44Z</time></trkpt><trkpt lat="44.25191350561309" lon="11.435741985585944"><ele>729.0</ele><time>2026-04-30T14:06:45Z</time></trkpt><trkpt lat="44.25183973827523" lon="11.435651253238742"><ele>729.0</ele><time>2026-04-30T14:06:46Z</time></trkpt><trkpt lat="44.25180953207746" lon="11.43551284605914"><ele>729.0</ele><time>2026-04-30T14:06:47Z</time></trkpt><trkpt lat="44.25180083671471" lon="11.43535855064906"><ele>730.2</ele><time>2026-04-30T14:06:48Z</time></trkpt><trkpt lat="44.251771318592084" lon="11.435236055055986"><ele>731.4000000000001</ele><time>2026-04-30T14:06:49Z</time></trkpt><trkpt lat="44.25172814466162" lon="11.435153923353194"><ele>732.6</ele><time>2026-04-30T14:06:50Z</time></trkpt><trkpt lat="44.25166990891839" lon="11.43505554192885"><ele>733.8</ele><time>2026-04-30T14:06:51Z</time></trkpt><trkpt lat="44.25162733259462" lon="11.434935414689502"><ele>735.0</ele><time>2026-04-30T14:06:52Z</time></trkpt><trkpt lat="44.25160588220446" lon="11.434802091483972"><ele>735.0</ele><time>2026-04-30T14:06:53Z</time></trkpt><trkpt lat="44.251596115358495" lon="11.434654311385927"><ele>735.0</ele><time>2026-04-30T14:06:54Z</time></trkpt><trkpt lat="44.25159191234804" lon="11.434504697401238"><ele>735.0</ele><time>2026-04-30T14:06:55Z</time></trkpt><trkpt lat="44.251572243797966" lon="11.434340009279895"><ele>735.0</ele><time>2026-04-30T14:06:56Z</time></trkpt><trkpt lat="44.25153803847397" lon="11.43418845969383"><ele>735.0</ele><time>2026-04-30T14:06:57Z</time></trkpt><trkpt lat="44.25150114008011" lon="11.434035343366022"><ele>735.6666666666666</ele><time>2026-04-30T14:06:58Z</time></trkpt><trkpt lat="44.25149651632284" lon="11.433874790177397"><ele>736.3333333333334</ele><time>2026-04-30T14:06:59Z</time></trkpt><trkpt lat="44.25151879045322" lon="11.433743040397355"><ele>737.0</ele><time>2026-04-30T14:07:00Z</time></trkpt><trkpt lat="44.25155498132414" lon="11.433631618940865"><ele>737.6666666666667</ele><time>2026-04-30T14:07:01Z</time></trkpt><trkpt lat="44.25157348762558" lon="11.43353670766223"><ele>738.3333333333334</ele><time>2026-04-30T14:07:02Z</time></trkpt><trkpt lat="44.25155326281295" lon="11.433448034629217"><ele>739.0</ele><time>2026-04-30T14:07:03Z</time></trkpt><trkpt lat="44.25152521903349" lon="11.433325858828292"><ele>739.0</ele><time>2026-04-30T14:07:04Z</time></trkpt><trkpt lat="44.2514904943279" lon="11.433180587533892"><ele>739.0</ele><time>2026-04-30T14:07:05Z</time></trkpt><trkpt lat="44.25145213615402" lon="11.433050049934433"><ele>739.0</ele><time>2026-04-30T14:07:06Z</time></trkpt><trkpt lat="44.25141903012027" lon="11.43294344442705"><ele>739.0</ele><time>2026-04-30T14:07:07Z</time></trkpt><trkpt lat="44.251372872811416" lon="11.432853410099286"><ele>739.0</ele><time>2026-04-30T14:07:08Z</time></trkpt><trkpt lat="44.25130887249941" lon="11.432786533658874"><ele>739.0</ele><time>2026-04-30T14:07:09Z</time></trkpt><trkpt lat="44.2512589367157" lon="11.43269114914296"><ele>739.0</ele><time>2026-04-30T14:07:10Z</time></trkpt><trkpt lat="44.25117680630749" lon="11.43260258585893"><ele>739.0</ele><time>2026-04-30T14:07:11Z</time></trkpt><trkpt lat="44.25107718404516" lon="11.432516934459548"><ele>739.0</ele><time>2026-04-30T14:07:12Z</time></trkpt><trkpt lat="44.25097393071962" lon="11.43241251417352"><ele>739.0</ele><time>2026-04-30T14:07:13Z</time></trkpt><trkpt lat="44.250855587115524" lon="11.432331621252777"><ele>739.0</ele><time>2026-04-30T14:07:14Z</time></trkpt><trkpt lat="44.250767600252125" lon="11.432220673128791"><ele>739.0</ele><time>2026-04-30T14:07:15Z</time></trkpt><trkpt lat="44.250694839710015" lon="11.432105178224747"><ele>739.0</ele><time>2026-04-30T14:07:16Z</time></trkpt><trkpt lat="44.250644477527416" lon="11.431981481406133"><ele>739.0</ele><time>2026-04-30T14:07:17Z</time></trkpt><trkpt lat="44.25060269457282" lon="11.431839553234814"><ele>739.0</ele><time>2026-04-30T14:07:18Z</time></trkpt><trkpt lat="44.250580086569755" lon="11.431682264539322"><ele>737.5</ele><time>2026-04-30T14:07:19Z</time></trkpt><trkpt lat="44.250573642847534" lon="11.431518486954008"><ele>736.0</ele><time>2026-04-30T14:07:20Z</time></trkpt><trkpt lat="44.25057187859502" lon="11.431335831451484"><ele>734.5</ele><time>2026-04-30T14:07:21Z</time></trkpt><trkpt lat="44.25056700581774" lon="11.431153288812235"><ele>733.0</ele><time>2026-04-30T14:07:22Z</time></trkpt><trkpt lat="44.25054924334243" lon="11.430970003286555"><ele>733.0</ele><time>2026-04-30T14:07:23Z</time></trkpt><trkpt lat="44.25053027418043" lon="11.430792068430994"><ele>733.0</ele><time>2026-04-30T14:07:24Z</time></trkpt><trkpt lat="44.25051904269322" lon="11.430619810223721"><ele>733.0</ele><time>2026-04-30T14:07:25Z</time></trkpt><trkpt lat="44.25051313500899" lon="11.430449242407075"><ele>733.0</ele><time>2026-04-30T14:07:26Z</time></trkpt><trkpt lat="44.25050054858527" lon="11.430262467432211"><ele>733.0</ele><time>2026-04-30T14:07:27Z</time></trkpt><trkpt lat="44.25048564600939" lon="11.430063043697428"><ele>733.0</ele><time>2026-04-30T14:07:28Z</time></trkpt><trkpt lat="44.25046538459437" lon="11.429842853595375"><ele>733.0</ele><time>2026-04-30T14:07:29Z</time></trkpt><trkpt lat="44.250448461309745" lon="11.42962012258864"><ele>734.5</ele><time>2026-04-30T14:07:30Z</time></trkpt><trkpt lat="44.25043702211024" lon="11.42943075406852"><ele>736.0</ele><time>2026-04-30T14:07:31Z</time></trkpt><trkpt lat="44.25042213960795" lon="11.429262012451856"><ele>737.5</ele><time>2026-04-30T14:07:32Z</time></trkpt><trkpt lat="44.25041273539098" lon="11.42911779779667"><ele>739.0</ele><time>2026-04-30T14:07:33Z</time></trkpt><trkpt lat="44.25041604535497" lon="11.428976906203832"><ele>739.0</ele><time>2026-04-30T14:07:34Z</time></trkpt><trkpt lat="44.250425353817086" lon="11.428814918817304"><ele>739.0</ele><time>2026-04-30T14:07:35Z</time></trkpt><trkpt lat="44.25044442200477" lon="11.428646712347824"><ele>739.0</ele><time>2026-04-30T14:07:36Z</time></trkpt><trkpt lat="44.2504688172148" lon="11.428494668262664"><ele>739.0</ele><time>2026-04-30T14:07:37Z</time></trkpt><trkpt lat="44.25049966928683" lon="11.428343085585121"><ele>739.2</ele><time>2026-04-30T14:07:38Z</time></trkpt><trkpt lat="44.25053980750264" lon="11.428188500898461"><ele>739.4000000000001</ele><time>2026-04-30T14:07:39Z</time></trkpt><trkpt lat="44.25057673766759" lon="11.428047319363047"><ele>739.6</ele><time>2026-04-30T14:07:40Z</time></trkpt><trkpt lat="44.250604408214215" lon="11.427913084364473"><ele>739.8</ele><time>2026-04-30T14:07:41Z</time></trkpt><trkpt lat="44.25062917885842" lon="11.427781842466425"><ele>740.0</ele><time>2026-04-30T14:07:42Z</time></trkpt><trkpt lat="44.2506739064779" lon="11.42766191803803"><ele>738.7142857142857</ele><time>2026-04-30T14:07:43Z</time></trkpt><trkpt lat="44.250708975484535" lon="11.427538453847449"><ele>737.4285714285714</ele><time>2026-04-30T14:07:44Z</time></trkpt><trkpt lat="44.25073727290109" lon="11.427438829759195"><ele>736.1428571428571</ele><time>2026-04-30T14:07:45Z</time></trkpt><trkpt lat="44.2507509201857" lon="11.427348611860383"><ele>734.8571428571429</ele><time>2026-04-30T14:07:46Z</time></trkpt><trkpt lat="44.25078836386947" lon="11.427270945042356"><ele>733.5714285714286</ele><time>2026-04-30T14:07:47Z</time></trkpt><trkpt lat="44.25082982617517" lon="11.427193018934858"><ele>732.2857142857142</ele><time>2026-04-30T14:07:48Z</time></trkpt><trkpt lat="44.25087147390649" lon="11.427119621201104"><ele>731.0</ele><time>2026-04-30T14:07:49Z</time></trkpt><trkpt lat="44.25091638432508" lon="11.427049882771083"><ele>730.8333333333333</ele><time>2026-04-30T14:07:50Z</time></trkpt><trkpt lat="44.25096818130238" lon="11.426983584214435"><ele>730.6666666666666</ele><time>2026-04-30T14:07:51Z</time></trkpt><trkpt lat="44.25102356718424" lon="11.426924888565253"><ele>730.5</ele><time>2026-04-30T14:07:52Z</time></trkpt><trkpt lat="44.25108537042888" lon="11.42685841294621"><ele>730.3333333333334</ele><time>2026-04-30T14:07:53Z</time></trkpt><trkpt lat="44.251149323502126" lon="11.426785019579423"><ele>730.1666666666667</ele><time>2026-04-30T14:07:54Z</time></trkpt><trkpt lat="44.251211010174494" lon="11.426700535052477"><ele>730.0</ele><time>2026-04-30T14:07:55Z</time></trkpt><trkpt lat="44.25128828679964" lon="11.426641794205384"><ele>730.0</ele><time>2026-04-30T14:07:56Z</time></trkpt><trkpt lat="44.25135448475558" lon="11.426553713981756"><ele>730.0</ele><time>2026-04-30T14:07:57Z</time></trkpt><trkpt lat="44.25143253180401" lon="11.426473106790622"><ele>730.0</ele><time>2026-04-30T14:07:58Z</time></trkpt><trkpt lat="44.25150810114893" lon="11.426377395664918"><ele>730.0</ele><time>2026-04-30T14:07:59Z</time></trkpt><trkpt lat="44.251583543748595" lon="11.426284262054741"><ele>730.0</ele><time>2026-04-30T14:08:00Z</time></trkpt><trkpt lat="44.25166400164187" lon="11.426193085637488"><ele>728.4</ele><time>2026-04-30T14:08:01Z</time></trkpt><trkpt lat="44.25174926891861" lon="11.426110107566558"><ele>726.8</ele><time>2026-04-30T14:08:02Z</time></trkpt><trkpt lat="44.25183371841655" lon="11.426038177228985"><ele>725.2</ele><time>2026-04-30T14:08:03Z</time></trkpt><trkpt lat="44.25192220910876" lon="11.425962871937507"><ele>723.6</ele><time>2026-04-30T14:08:04Z</time></trkpt><trkpt lat="44.25202110267022" lon="11.42588146363868"><ele>722.0</ele><time>2026-04-30T14:08:05Z</time></trkpt><trkpt lat="44.25212787288516" lon="11.425805694102309"><ele>722.0</ele><time>2026-04-30T14:08:06Z</time></trkpt><trkpt lat="44.25224418246946" lon="11.425767298933499"><ele>722.0</ele><time>2026-04-30T14:08:07Z</time></trkpt><trkpt lat="44.25235857493203" lon="11.425699494602597"><ele>722.0</ele><time>2026-04-30T14:08:08Z</time></trkpt><trkpt lat="44.25248763568859" lon="11.425668411588061"><ele>722.0</ele><time>2026-04-30T14:08:09Z</time></trkpt><trkpt lat="44.25260532256201" lon="11.425644386797497"><ele>722.0</ele><time>2026-04-30T14:08:10Z</time></trkpt><trkpt lat="44.25272293302887" lon="11.425606639177817"><ele>722.0</ele><time>2026-04-30T14:08:11Z</time></trkpt><trkpt lat="44.25284178814971" lon="11.425556852242803"><ele>722.0</ele><time>2026-04-30T14:08:12Z</time></trkpt><trkpt lat="44.25295762843853" lon="11.42549569798272"><ele>722.0</ele><time>2026-04-30T14:08:13Z</time></trkpt><trkpt lat="44.25306931668083" lon="11.42543598185988"><ele>718.5</ele><time>2026-04-30T14:08:14Z</time></trkpt><trkpt lat="44.253178473300444" lon="11.425394863106423"><ele>715.0</ele><time>2026-04-30T14:08:15Z</time></trkpt><trkpt lat="44.253288636431975" lon="11.425374328760396"><ele>711.5</ele><time>2026-04-30T14:08:16Z</time></trkpt><trkpt lat="44.2534032680469" lon="11.425341445927321"><ele>708.0</ele><time>2026-04-30T14:08:17Z</time></trkpt><trkpt lat="44.253524493500855" lon="11.42527723296356"><ele>708.0</ele><time>2026-04-30T14:08:18Z</time></trkpt><trkpt lat="44.25363709689372" lon="11.425195659289969"><ele>708.0</ele><time>2026-04-30T14:08:19Z</time></trkpt><trkpt lat="44.25373789798827" lon="11.425112776406067"><ele>708.0</ele><time>2026-04-30T14:08:20Z</time></trkpt><trkpt lat="44.25383189699563" lon="11.42501677812586"><ele>708.0</ele><time>2026-04-30T14:08:21Z</time></trkpt><trkpt lat="44.25392298287407" lon="11.42491246153457"><ele>709.0</ele><time>2026-04-30T14:08:22Z</time></trkpt><trkpt lat="44.254022248964034" lon="11.424794274624528"><ele>710.0</ele><time>2026-04-30T14:08:23Z</time></trkpt><trkpt lat="44.254118890940404" lon="11.424670569163577"><ele>711.0</ele><time>2026-04-30T14:08:24Z</time></trkpt><trkpt lat="44.254226657123496" lon="11.424517109891031"><ele>712.0</ele><time>2026-04-30T14:08:25Z</time></trkpt><trkpt lat="44.25433533415731" lon="11.424368358559745"><ele>708.75</ele><time>2026-04-30T14:08:26Z</time></trkpt><trkpt lat="44.2544417487103" lon="11.424242397129149"><ele>705.5</ele><time>2026-04-30T14:08:27Z</time></trkpt><trkpt lat="44.25455273387073" lon="11.424132661248976"><ele>702.25</ele><time>2026-04-30T14:08:28Z</time></trkpt><trkpt lat="44.25465682008874" lon="11.424025770418265"><ele>699.0</ele><time>2026-04-30T14:08:29Z</time></trkpt><trkpt lat="44.254756869393646" lon="11.423921263111392"><ele>696.5</ele><time>2026-04-30T14:08:30Z</time></trkpt><trkpt lat="44.2548494175783" lon="11.423805257318831"><ele>694.0</ele><time>2026-04-30T14:08:31Z</time></trkpt><trkpt lat="44.25493656251661" lon="11.423686756833229"><ele>691.5</ele><time>2026-04-30T14:08:32Z</time></trkpt><trkpt lat="44.25501752704466" lon="11.423569453131273"><ele>689.0</ele><time>2026-04-30T14:08:33Z</time></trkpt><trkpt lat="44.255091129913225" lon="11.423465892406472"><ele>689.0</ele><time>2026-04-30T14:08:34Z</time></trkpt><trkpt lat="44.25516204310658" lon="11.423388644382134"><ele>689.0</ele><time>2026-04-30T14:08:35Z</time></trkpt><trkpt lat="44.25524541826934" lon="11.423350603391762"><ele>689.0</ele><time>2026-04-30T14:08:36Z</time></trkpt><trkpt lat="44.255357333724156" lon="11.423366503365175"><ele>689.0</ele><time>2026-04-30T14:08:37Z</time></trkpt><trkpt lat="44.25547970389377" lon="11.42335296795959"><ele>689.0</ele><time>2026-04-30T14:08:38Z</time></trkpt><trkpt lat="44.25561062602074" lon="11.423387444730391"><ele>688.4000000000001</ele><time>2026-04-30T14:08:39Z</time></trkpt><trkpt lat="44.255732403001915" lon="11.423402049551221"><ele>687.8</ele><time>2026-04-30T14:08:40Z</time></trkpt><trkpt lat="44.25583501343157" lon="11.423384842694972"><ele>687.2</ele><time>2026-04-30T14:08:41Z</time></trkpt><trkpt lat="44.25592859507709" lon="11.423330517571916"><ele>686.5999999999999</ele><time>2026-04-30T14:08:42Z</time></trkpt><trkpt lat="44.25602569976081" lon="11.423234208984725"><ele>686.0</ele><time>2026-04-30T14:08:43Z</time></trkpt><trkpt lat="44.25612898697754" lon="11.42310476330986"><ele>685.0</ele><time>2026-04-30T14:08:44Z</time></trkpt><trkpt lat="44.256231955878555" lon="11.422958472337285"><ele>684.0</ele><time>2026-04-30T14:08:45Z</time></trkpt><trkpt lat="44.25632818181086" lon="11.422832004751303"><ele>683.0</ele><time>2026-04-30T14:08:46Z</time></trkpt><trkpt lat="44.25641875031775" lon="11.422725648360379"><ele>682.0</ele><time>2026-04-30T14:08:47Z</time></trkpt><trkpt lat="44.25651359137638" lon="11.422651064928282"><ele>682.0</ele><time>2026-04-30T14:08:48Z</time></trkpt><trkpt lat="44.256624782935745" lon="11.422639798904916"><ele>682.0</ele><time>2026-04-30T14:08:49Z</time></trkpt><trkpt lat="44.25673573612189" lon="11.422640916776292"><ele>682.0</ele><time>2026-04-30T14:08:50Z</time></trkpt><trkpt lat="44.25686407718945" lon="11.422648445716417"><ele>682.0</ele><time>2026-04-30T14:08:51Z</time></trkpt><trkpt lat="44.256994254409285" lon="11.422721976345175"><ele>682.0</ele><time>2026-04-30T14:08:52Z</time></trkpt><trkpt lat="44.25714508829346" lon="11.422757157777282"><ele>682.0</ele><time>2026-04-30T14:08:53Z</time></trkpt><trkpt lat="44.25727950174645" lon="11.422823287135124"><ele>682.0</ele><time>2026-04-30T14:08:54Z</time></trkpt><trkpt lat="44.25742044087372" lon="11.422840816804976"><ele>682.0</ele><time>2026-04-30T14:08:55Z</time></trkpt><trkpt lat="44.25755128260698" lon="11.422876181752075"><ele>681.75</ele><time>2026-04-30T14:08:56Z</time></trkpt><trkpt lat="44.25767657289598" lon="11.422885216702186"><ele>681.5</ele><time>2026-04-30T14:08:57Z</time></trkpt><trkpt lat="44.25781146983628" lon="11.422904206072745"><ele>681.25</ele><time>2026-04-30T14:08:58Z</time></trkpt><trkpt lat="44.25795265581077" lon="11.422900525108101"><ele>681.0</ele><time>2026-04-30T14:08:59Z</time></trkpt><trkpt lat="44.25809319589361" lon="11.42288920638918"><ele>679.5</ele><time>2026-04-30T14:09:00Z</time></trkpt><trkpt lat="44.25822690536381" lon="11.42287511554371"><ele>678.0</ele><time>2026-04-30T14:09:01Z</time></trkpt><trkpt lat="44.25834163379425" lon="11.422878389084214"><ele>676.5</ele><time>2026-04-30T14:09:02Z</time></trkpt><trkpt lat="44.25845318620374" lon="11.422881632345824"><ele>675.0</ele><time>2026-04-30T14:09:03Z</time></trkpt><trkpt lat="44.258551945843315" lon="11.42288316279957"><ele>675.0</ele><time>2026-04-30T14:09:04Z</time></trkpt><trkpt lat="44.25865429117537" lon="11.42286702849776"><ele>675.0</ele><time>2026-04-30T14:09:05Z</time></trkpt><trkpt lat="44.25875277894145" lon="11.422879700158523"><ele>675.0</ele><time>2026-04-30T14:09:06Z</time></trkpt><trkpt lat="44.258854348319346" lon="11.422882009803747"><ele>675.0</ele><time>2026-04-30T14:09:07Z</time></trkpt><trkpt lat="44.25895010859998" lon="11.422889966676765"><ele>675.0</ele><time>2026-04-30T14:09:08Z</time></trkpt><trkpt lat="44.25904424136918" lon="11.422881626914803"><ele>673.6</ele><time>2026-04-30T14:09:09Z</time></trkpt><trkpt lat="44.25914756345738" lon="11.422868717189065"><ele>672.2</ele><time>2026-04-30T14:09:10Z</time></trkpt><trkpt lat="44.25924607640116" lon="11.422876976428197"><ele>670.8</ele><time>2026-04-30T14:09:11Z</time></trkpt><trkpt lat="44.25935151826067" lon="11.422876667562344"><ele>669.4</ele><time>2026-04-30T14:09:12Z</time></trkpt><trkpt lat="44.259460133482385" lon="11.42287573878711"><ele>668.0</ele><time>2026-04-30T14:09:13Z</time></trkpt><trkpt lat="44.259582492444636" lon="11.422851773547277"><ele>668.0</ele><time>2026-04-30T14:09:14Z</time></trkpt><trkpt lat="44.25971604288041" lon="11.422849695767251"><ele>668.0</ele><time>2026-04-30T14:09:15Z</time></trkpt><trkpt lat="44.259834188650075" lon="11.422853717857867"><ele>668.0</ele><time>2026-04-30T14:09:16Z</time></trkpt><trkpt lat="44.25995228273155" lon="11.422852825093216"><ele>668.0</ele><time>2026-04-30T14:09:17Z</time></trkpt><trkpt lat="44.260061007533345" lon="11.422871711394032"><ele>666.4</ele><time>2026-04-30T14:09:18Z</time></trkpt><trkpt lat="44.26017828573551" lon="11.422872521017132"><ele>664.8</ele><time>2026-04-30T14:09:19Z</time></trkpt><trkpt lat="44.26029166383702" lon="11.422847875543733"><ele>663.2</ele><time>2026-04-30T14:09:20Z</time></trkpt><trkpt lat="44.26039623833117" lon="11.422848525236727"><ele>661.6</ele><time>2026-04-30T14:09:21Z</time></trkpt><trkpt lat="44.260505388036435" lon="11.42283853504391"><ele>660.0</ele><time>2026-04-30T14:09:22Z</time></trkpt><trkpt lat="44.26061290748231" lon="11.422830817405776"><ele>659.0</ele><time>2026-04-30T14:09:23Z</time></trkpt><trkpt lat="44.26071475400237" lon="11.422831955110247"><ele>658.0</ele><time>2026-04-30T14:09:24Z</time></trkpt><trkpt lat="44.26081834322779" lon="11.42286102540303"><ele>657.0</ele><time>2026-04-30T14:09:25Z</time></trkpt><trkpt lat="44.26092197435873" lon="11.422921039135854"><ele>656.0</ele><time>2026-04-30T14:09:26Z</time></trkpt><trkpt lat="44.26102562773603" lon="11.42300988788117"><ele>655.0</ele><time>2026-04-30T14:09:27Z</time></trkpt><trkpt lat="44.26113847962422" lon="11.42311582773818"><ele>655.0</ele><time>2026-04-30T14:09:28Z</time></trkpt><trkpt lat="44.26124672417269" lon="11.423217095404421"><ele>655.0</ele><time>2026-04-30T14:09:29Z</time></trkpt><trkpt lat="44.26135317810479" lon="11.423310548239982"><ele>655.0</ele><time>2026-04-30T14:09:30Z</time></trkpt><trkpt lat="44.2614573292013" lon="11.42339680057778"><ele>655.0</ele><time>2026-04-30T14:09:31Z</time></trkpt><trkpt lat="44.26156306388159" lon="11.423477454904477"><ele>652.0</ele><time>2026-04-30T14:09:32Z</time></trkpt><trkpt lat="44.26166586240392" lon="11.423565015421115"><ele>649.0</ele><time>2026-04-30T14:09:33Z</time></trkpt><trkpt lat="44.26176348355297" lon="11.423648209677824"><ele>646.0</ele><time>2026-04-30T14:09:34Z</time></trkpt><trkpt lat="44.26185880272753" lon="11.4237430914409"><ele>643.0</ele><time>2026-04-30T14:09:35Z</time></trkpt><trkpt lat="44.261958729345764" lon="11.423829292697624"><ele>642.75</ele><time>2026-04-30T14:09:36Z</time></trkpt><trkpt lat="44.26206391413043" lon="11.423913748329339"><ele>642.5</ele><time>2026-04-30T14:09:37Z</time></trkpt><trkpt lat="44.2621581944725" lon="11.423998620188309"><ele>642.25</ele><time>2026-04-30T14:09:38Z</time></trkpt><trkpt lat="44.26225317683163" lon="11.424088030643398"><ele>642.0</ele><time>2026-04-30T14:09:39Z</time></trkpt><trkpt lat="44.262334703297086" lon="11.424182054538175"><ele>640.6</ele><time>2026-04-30T14:09:40Z</time></trkpt><trkpt lat="44.26241560581517" lon="11.424244828943731"><ele>639.2</ele><time>2026-04-30T14:09:41Z</time></trkpt><trkpt lat="44.26251217595081" lon="11.424275208684687"><ele>637.8</ele><time>2026-04-30T14:09:42Z</time></trkpt><trkpt lat="44.26261228199751" lon="11.424269374625117"><ele>636.4</ele><time>2026-04-30T14:09:43Z</time></trkpt><trkpt lat="44.26271257346239" lon="11.424251190156319"><ele>635.0</ele><time>2026-04-30T14:09:44Z</time></trkpt><trkpt lat="44.26281827545289" lon="11.424210387976789"><ele>635.0</ele><time>2026-04-30T14:09:45Z</time></trkpt><trkpt lat="44.26293088776114" lon="11.424160792117304"><ele>635.0</ele><time>2026-04-30T14:09:46Z</time></trkpt><trkpt lat="44.26305260827524" lon="11.424117178689993"><ele>635.0</ele><time>2026-04-30T14:09:47Z</time></trkpt><trkpt lat="44.263170623413565" lon="11.424083380286056"><ele>635.0</ele><time>2026-04-30T14:09:48Z</time></trkpt><trkpt lat="44.263284943792215" lon="11.424052265589484"><ele>633.8</ele><time>2026-04-30T14:09:49Z</time></trkpt><trkpt lat="44.26339788638198" lon="11.424020041667971"><ele>632.6</ele><time>2026-04-30T14:09:50Z</time></trkpt><trkpt lat="44.26350693427013" lon="11.423985781901765"><ele>631.4</ele><time>2026-04-30T14:09:51Z</time></trkpt><trkpt lat="44.263614764881076" lon="11.423955432895273"><ele>630.2</ele><time>2026-04-30T14:09:52Z</time></trkpt><trkpt lat="44.26372152183701" lon="11.423925603843083"><ele>629.0</ele><time>2026-04-30T14:09:53Z</time></trkpt><trkpt lat="44.2638258527303" lon="11.423908955360188"><ele>629.0</ele><time>2026-04-30T14:09:54Z</time></trkpt><trkpt lat="44.26392808339985" lon="11.4239227107643"><ele>629.0</ele><time>2026-04-30T14:09:55Z</time></trkpt><trkpt lat="44.26402838534133" lon="11.423935756854128"><ele>629.0</ele><time>2026-04-30T14:09:56Z</time></trkpt><trkpt lat="44.26412620134129" lon="11.423927095640083"><ele>629.0</ele><time>2026-04-30T14:09:57Z</time></trkpt><trkpt lat="44.26422347907589" lon="11.423909294742787"><ele>629.0</ele><time>2026-04-30T14:09:58Z</time></trkpt><trkpt lat="44.26431860260979" lon="11.42387917265626"><ele>627.8</ele><time>2026-04-30T14:09:59Z</time></trkpt><trkpt lat="44.26441045366103" lon="11.423855451889095"><ele>626.5999999999999</ele><time>2026-04-30T14:10:00Z</time></trkpt><trkpt lat="44.264508711250016" lon="11.423861368394743"><ele>625.4</ele><time>2026-04-30T14:10:01Z</time></trkpt><trkpt lat="44.26460770504859" lon="11.423885369161788"><ele>624.1999999999999</ele><time>2026-04-30T14:10:02Z</time></trkpt><trkpt lat="44.26470665708657" lon="11.42389968181836"><ele>623.0</ele><time>2026-04-30T14:10:03Z</time></trkpt><trkpt lat="44.26481804522984" lon="11.423898369239252"><ele>622.25</ele><time>2026-04-30T14:10:04Z</time></trkpt><trkpt lat="44.264937674482596" lon="11.423883553948118"><ele>621.5</ele><time>2026-04-30T14:10:05Z</time></trkpt><trkpt lat="44.26505397545297" lon="11.423874979875697"><ele>620.75</ele><time>2026-04-30T14:10:06Z</time></trkpt><trkpt lat="44.26517622748086" lon="11.4238645985858"><ele>620.0</ele><time>2026-04-30T14:10:07Z</time></trkpt><trkpt lat="44.26530607999957" lon="11.423853120232522"><ele>620.0</ele><time>2026-04-30T14:10:08Z</time></trkpt><trkpt lat="44.26543915590335" lon="11.423840086556922"><ele>620.0</ele><time>2026-04-30T14:10:09Z</time></trkpt><trkpt lat="44.265570001478366" lon="11.423825189985328"><ele>620.0</ele><time>2026-04-30T14:10:10Z</time></trkpt><trkpt lat="44.2657039267471" lon="11.423816439416676"><ele>620.0</ele><time>2026-04-30T14:10:11Z</time></trkpt><trkpt lat="44.26583074222187" lon="11.423810829881454"><ele>616.75</ele><time>2026-04-30T14:10:12Z</time></trkpt><trkpt lat="44.26595678501413" lon="11.423800709444006"><ele>613.5</ele><time>2026-04-30T14:10:13Z</time></trkpt><trkpt lat="44.26608109806595" lon="11.423798894939386"><ele>610.25</ele><time>2026-04-30T14:10:14Z</time></trkpt><trkpt lat="44.266207538965546" lon="11.423802600984672"><ele>607.0</ele><time>2026-04-30T14:10:15Z</time></trkpt><trkpt lat="44.266337335153935" lon="11.423798009655385"><ele>605.75</ele><time>2026-04-30T14:10:16Z</time></trkpt><trkpt lat="44.266469969582445" lon="11.423772963669446"><ele>604.5</ele><time>2026-04-30T14:10:17Z</time></trkpt><trkpt lat="44.266601843973035" lon="11.42372601948547"><ele>603.25</ele><time>2026-04-30T14:10:18Z</time></trkpt><trkpt lat="44.26673242094127" lon="11.423671494507566"><ele>602.0</ele><time>2026-04-30T14:10:19Z</time></trkpt><trkpt lat="44.26686873227626" lon="11.423609706111632"><ele>602.0</ele><time>2026-04-30T14:10:20Z</time></trkpt><trkpt lat="44.267003027082524" lon="11.423542315571554"><ele>602.0</ele><time>2026-04-30T14:10:21Z</time></trkpt><trkpt lat="44.267120412258855" lon="11.423453174953405"><ele>602.0</ele><time>2026-04-30T14:10:22Z</time></trkpt><trkpt lat="44.267217514116" lon="11.423342106405318"><ele>602.0</ele><time>2026-04-30T14:10:23Z</time></trkpt><trkpt lat="44.26730248524977" lon="11.423218323643486"><ele>601.6666666666666</ele><time>2026-04-30T14:10:24Z</time></trkpt><trkpt lat="44.26737687232988" lon="11.423101099873003"><ele>601.3333333333333</ele><time>2026-04-30T14:10:25Z</time></trkpt><trkpt lat="44.26743846501546" lon="11.423005510833386"><ele>601.0</ele><time>2026-04-30T14:10:26Z</time></trkpt><trkpt lat="44.26747976182707" lon="11.422910274825128"><ele>600.6666666666666</ele><time>2026-04-30T14:10:27Z</time></trkpt><trkpt lat="44.26750519678501" lon="11.422821479372757"><ele>600.3333333333334</ele><time>2026-04-30T14:10:28Z</time></trkpt><trkpt lat="44.26751520665505" lon="11.422706677123971"><ele>600.0</ele><time>2026-04-30T14:10:30Z</time></trkpt><trkpt lat="44.26753269853092" lon="11.422597083440385"><ele>600.0</ele><time>2026-04-30T14:10:41Z</time></trkpt><trkpt lat="44.267606503747885" lon="11.422522333500067"><ele>600.0</ele><time>2026-04-30T14:10:45Z</time></trkpt><trkpt lat="44.267678607229435" lon="11.422513461484982"><ele>600.0</ele><time>2026-04-30T14:10:48Z</time></trkpt><trkpt lat="44.267751541024396" lon="11.422526459957043"><ele>600.0</ele><time>2026-04-30T14:10:51Z</time></trkpt><trkpt lat="44.267845540900645" lon="11.42254925286679"><ele>600.0</ele><time>2026-04-30T14:10:56Z</time></trkpt><trkpt lat="44.267911437860114" lon="11.422528115624157"><ele>600.0</ele><time>2026-04-30T14:10:59Z</time></trkpt><trkpt lat="44.267971211616945" lon="11.422436879701667"><ele>600.0</ele><time>2026-04-30T14:11:02Z</time></trkpt><trkpt lat="44.268072451087455" lon="11.422385838749015"><ele>600.0</ele><time>2026-04-30T14:11:04Z</time></trkpt><trkpt lat="44.26816862634079" lon="11.422375867288926"><ele>600.0</ele><time>2026-04-30T14:11:06Z</time></trkpt><trkpt lat="44.268242123985374" lon="11.422308407217178"><ele>600.0</ele><time>2026-04-30T14:11:08Z</time></trkpt><trkpt lat="44.26837002719375" lon="11.4222443079996"><ele>600.0</ele><time>2026-04-30T14:11:10Z</time></trkpt><trkpt lat="44.26846266043216" lon="11.42222713107849"><ele>599.6666666666666</ele><time>2026-04-30T14:11:11Z</time></trkpt><trkpt lat="44.268543388670814" lon="11.422230716830907"><ele>599.3333333333334</ele><time>2026-04-30T14:11:12Z</time></trkpt><trkpt lat="44.26861637036392" lon="11.422220621654514"><ele>599.0</ele><time>2026-04-30T14:11:13Z</time></trkpt><trkpt lat="44.26869175382483" lon="11.422193929673497"><ele>598.6666666666667</ele><time>2026-04-30T14:11:14Z</time></trkpt><trkpt lat="44.268756893627334" lon="11.42215526558009"><ele>598.3333333333334</ele><time>2026-04-30T14:11:15Z</time></trkpt><trkpt lat="44.268824001644745" lon="11.42211185199897"><ele>598.0</ele><time>2026-04-30T14:11:16Z</time></trkpt><trkpt lat="44.26889711586204" lon="11.422098730531365"><ele>599.1999999999999</ele><time>2026-04-30T14:11:17Z</time></trkpt><trkpt lat="44.26897322343588" lon="11.422095016243727"><ele>600.4</ele><time>2026-04-30T14:11:18Z</time></trkpt><trkpt lat="44.26908531389984" lon="11.422044063152264"><ele>601.5999999999999</ele><time>2026-04-30T14:11:20Z</time></trkpt><trkpt lat="44.26918182165252" lon="11.422057044196007"><ele>602.8</ele><time>2026-04-30T14:11:22Z</time></trkpt><trkpt lat="44.269277289362435" lon="11.422049500695485"><ele>604.0</ele><time>2026-04-30T14:11:24Z</time></trkpt><trkpt lat="44.269368820976986" lon="11.422007955291337"><ele>604.0</ele><time>2026-04-30T14:11:26Z</time></trkpt><trkpt lat="44.269492444362676" lon="11.421998412122198"><ele>604.0</ele><time>2026-04-30T14:11:28Z</time></trkpt><trkpt lat="44.26956260158601" lon="11.42199524004295"><ele>604.0</ele><time>2026-04-30T14:11:29Z</time></trkpt><trkpt lat="44.26963020424109" lon="11.421995327720706"><ele>604.0</ele><time>2026-04-30T14:11:30Z</time></trkpt><trkpt lat="44.269747120187795" lon="11.42200086937517"><ele>604.0</ele><time>2026-04-30T14:11:32Z</time></trkpt><trkpt lat="44.26982164516972" lon="11.422033524677714"><ele>603.1666666666667</ele><time>2026-04-30T14:11:34Z</time></trkpt><trkpt lat="44.26987630511038" lon="11.422082981257878"><ele>602.3333333333334</ele><time>2026-04-30T14:11:37Z</time></trkpt><trkpt lat="44.26996351113568" lon="11.422096436121757"><ele>601.5</ele><time>2026-04-30T14:11:41Z</time></trkpt><trkpt lat="44.27005970794034" lon="11.42214644355036"><ele>600.6666666666666</ele><time>2026-04-30T14:11:44Z</time></trkpt><trkpt lat="44.270123156664525" lon="11.42215644963349"><ele>599.8333333333333</ele><time>2026-04-30T14:11:47Z</time></trkpt><trkpt lat="44.2701912859175" lon="11.42216925838072"><ele>599.0</ele><time>2026-04-30T14:11:53Z</time></trkpt><trkpt lat="44.27033101905268" lon="11.42213577482504"><ele>599.0</ele><time>2026-04-30T14:11:55Z</time></trkpt><trkpt lat="44.270408334976324" lon="11.422145656398525"><ele>599.0</ele><time>2026-04-30T14:11:56Z</time></trkpt><trkpt lat="44.27051897390502" lon="11.422259121938119"><ele>599.0</ele><time>2026-04-30T14:11:57Z</time></trkpt><trkpt lat="44.27058706794505" lon="11.422255440134238"><ele>599.0</ele><time>2026-04-30T14:11:58Z</time></trkpt><trkpt lat="44.27065262444108" lon="11.422254227790859"><ele>599.0</ele><time>2026-04-30T14:11:59Z</time></trkpt><trkpt lat="44.27070995328814" lon="11.422177076804466"><ele>599.0</ele><time>2026-04-30T14:12:00Z</time></trkpt><trkpt lat="44.27077679183229" lon="11.422211582637834"><ele>597.5</ele><time>2026-04-30T14:12:01Z</time></trkpt><trkpt lat="44.27086313327012" lon="11.422241668855149"><ele>596.0</ele><time>2026-04-30T14:12:02Z</time></trkpt><trkpt lat="44.270928581835335" lon="11.422249697982085"><ele>594.5</ele><time>2026-04-30T14:12:03Z</time></trkpt><trkpt lat="44.270998600450746" lon="11.422255799617627"><ele>593.0</ele><time>2026-04-30T14:12:04Z</time></trkpt><trkpt lat="44.27109106975208" lon="11.42224532135714"><ele>591.5</ele><time>2026-04-30T14:12:05Z</time></trkpt><trkpt lat="44.271188794707406" lon="11.422239488957155"><ele>590.0</ele><time>2026-04-30T14:12:06Z</time></trkpt><trkpt lat="44.27130897999207" lon="11.42224861309996"><ele>590.0</ele><time>2026-04-30T14:12:07Z</time></trkpt><trkpt lat="44.27141675057977" lon="11.42225229516533"><ele>590.0</ele><time>2026-04-30T14:12:08Z</time></trkpt><trkpt lat="44.271536165021615" lon="11.42225258888157"><ele>590.0</ele><time>2026-04-30T14:12:09Z</time></trkpt><trkpt lat="44.27165003003881" lon="11.422233465073395"><ele>590.0</ele><time>2026-04-30T14:12:10Z</time></trkpt><trkpt lat="44.27176732477864" lon="11.42220179723012"><ele>590.5</ele><time>2026-04-30T14:12:11Z</time></trkpt><trkpt lat="44.27189028121734" lon="11.422149558805632"><ele>591.0</ele><time>2026-04-30T14:12:12Z</time></trkpt><trkpt lat="44.2720182526648" lon="11.422104780592159"><ele>591.5</ele><time>2026-04-30T14:12:13Z</time></trkpt><trkpt lat="44.272137515485504" lon="11.422080821925785"><ele>592.0</ele><time>2026-04-30T14:12:14Z</time></trkpt><trkpt lat="44.27226563277478" lon="11.422053859046544"><ele>589.75</ele><time>2026-04-30T14:12:15Z</time></trkpt><trkpt lat="44.2723994225691" lon="11.422048157503431"><ele>587.5</ele><time>2026-04-30T14:12:16Z</time></trkpt><trkpt lat="44.27254579239906" lon="11.422060769875392"><ele>585.25</ele><time>2026-04-30T14:12:17Z</time></trkpt><trkpt lat="44.272695631854525" lon="11.42206307573093"><ele>583.0</ele><time>2026-04-30T14:12:18Z</time></trkpt><trkpt lat="44.27285443068886" lon="11.422060250930095"><ele>583.0</ele><time>2026-04-30T14:12:19Z</time></trkpt><trkpt lat="44.27301809993461" lon="11.42205627982124"><ele>583.0</ele><time>2026-04-30T14:12:20Z</time></trkpt><trkpt lat="44.27317704060022" lon="11.422053367381267"><ele>583.0</ele><time>2026-04-30T14:12:21Z</time></trkpt><trkpt lat="44.27332522528556" lon="11.422047676976085"><ele>583.0</ele><time>2026-04-30T14:12:22Z</time></trkpt><trkpt lat="44.27346275087396" lon="11.42204676328042"><ele>583.0</ele><time>2026-04-30T14:12:23Z</time></trkpt><trkpt lat="44.273593426173065" lon="11.422064405408547"><ele>583.0</ele><time>2026-04-30T14:12:24Z</time></trkpt><trkpt lat="44.273713270868306" lon="11.422117607897736"><ele>583.0</ele><time>2026-04-30T14:12:25Z</time></trkpt><trkpt lat="44.273822279150004" lon="11.422199184820988"><ele>582.25</ele><time>2026-04-30T14:12:26Z</time></trkpt><trkpt lat="44.27393891537366" lon="11.422233634702003"><ele>581.5</ele><time>2026-04-30T14:12:27Z</time></trkpt><trkpt lat="44.27406137825237" lon="11.422210317803248"><ele>580.75</ele><time>2026-04-30T14:12:28Z</time></trkpt><trkpt lat="44.27418732874591" lon="11.422142021540829"><ele>580.0</ele><time>2026-04-30T14:12:29Z</time></trkpt><trkpt lat="44.274316504632914" lon="11.42207177404861"><ele>581.5</ele><time>2026-04-30T14:12:30Z</time></trkpt><trkpt lat="44.27443004776473" lon="11.421992091045917"><ele>583.0</ele><time>2026-04-30T14:12:31Z</time></trkpt><trkpt lat="44.27453242742683" lon="11.421905259287074"><ele>584.5</ele><time>2026-04-30T14:12:32Z</time></trkpt><trkpt lat="44.27463533529428" lon="11.421831737036227"><ele>586.0</ele><time>2026-04-30T14:12:33Z</time></trkpt><trkpt lat="44.27475825902831" lon="11.421792161147147"><ele>585.75</ele><time>2026-04-30T14:12:34Z</time></trkpt><trkpt lat="44.2749012456381" lon="11.42177923345623"><ele>585.5</ele><time>2026-04-30T14:12:35Z</time></trkpt><trkpt lat="44.27504541316065" lon="11.42176437198934"><ele>585.25</ele><time>2026-04-30T14:12:36Z</time></trkpt><trkpt lat="44.275178306295835" lon="11.42173716195792"><ele>585.0</ele><time>2026-04-30T14:12:37Z</time></trkpt><trkpt lat="44.27530116292296" lon="11.4217088683272"><ele>585.0</ele><time>2026-04-30T14:12:38Z</time></trkpt><trkpt lat="44.2754178850005" lon="11.421708323554858"><ele>585.0</ele><time>2026-04-30T14:12:39Z</time></trkpt><trkpt lat="44.27552181248149" lon="11.421734755900072"><ele>585.0</ele><time>2026-04-30T14:12:40Z</time></trkpt><trkpt lat="44.275613003281215" lon="11.421803029515797"><ele>585.0</ele><time>2026-04-30T14:12:41Z</time></trkpt><trkpt lat="44.27569272630413" lon="11.421917416852278"><ele>585.0</ele><time>2026-04-30T14:12:42Z</time></trkpt><trkpt lat="44.27576291172249" lon="11.422054477237218"><ele>582.25</ele><time>2026-04-30T14:12:43Z</time></trkpt><trkpt lat="44.27583071758835" lon="11.422197384078801"><ele>579.5</ele><time>2026-04-30T14:12:44Z</time></trkpt><trkpt lat="44.27591201461248" lon="11.42232176696182"><ele>576.75</ele><time>2026-04-30T14:12:45Z</time></trkpt><trkpt lat="44.276008854576915" lon="11.4224136344275"><ele>574.0</ele><time>2026-04-30T14:12:46Z</time></trkpt><trkpt lat="44.276115234825475" lon="11.422493467845397"><ele>574.0</ele><time>2026-04-30T14:12:47Z</time></trkpt><trkpt lat="44.27622405916753" lon="11.422567618188884"><ele>574.0</ele><time>2026-04-30T14:12:48Z</time></trkpt><trkpt lat="44.27632971439832" lon="11.42264416349191"><ele>574.0</ele><time>2026-04-30T14:12:49Z</time></trkpt><trkpt lat="44.276421770663724" lon="11.422709254256286"><ele>574.0</ele><time>2026-04-30T14:12:50Z</time></trkpt><trkpt lat="44.27651668628446" lon="11.422795658726866"><ele>573.5</ele><time>2026-04-30T14:12:51Z</time></trkpt><trkpt lat="44.276613597571256" lon="11.422884429111617"><ele>573.0</ele><time>2026-04-30T14:12:52Z</time></trkpt><trkpt lat="44.27672157300046" lon="11.422963257667506"><ele>572.5</ele><time>2026-04-30T14:12:53Z</time></trkpt><trkpt lat="44.27683707140334" lon="11.423003057111014"><ele>572.0</ele><time>2026-04-30T14:12:54Z</time></trkpt><trkpt lat="44.27696029848731" lon="11.423008145425518"><ele>572.0</ele><time>2026-04-30T14:12:55Z</time></trkpt><trkpt lat="44.27708329513949" lon="11.42300380188218"><ele>572.0</ele><time>2026-04-30T14:12:56Z</time></trkpt><trkpt lat="44.27719404176902" lon="11.42300262272264"><ele>572.0</ele><time>2026-04-30T14:12:57Z</time></trkpt><trkpt lat="44.277304658068694" lon="11.423002199920038"><ele>572.0</ele><time>2026-04-30T14:12:58Z</time></trkpt><trkpt lat="44.27740985125081" lon="11.423011097651429"><ele>572.75</ele><time>2026-04-30T14:12:59Z</time></trkpt><trkpt lat="44.27751126937793" lon="11.423031217109175"><ele>573.5</ele><time>2026-04-30T14:13:00Z</time></trkpt><trkpt lat="44.277625824382426" lon="11.423074063747197"><ele>574.25</ele><time>2026-04-30T14:13:01Z</time></trkpt><trkpt lat="44.27774121738979" lon="11.423140833524329"><ele>575.0</ele><time>2026-04-30T14:13:02Z</time></trkpt><trkpt lat="44.27786267153193" lon="11.423219649632001"><ele>575.0</ele><time>2026-04-30T14:13:03Z</time></trkpt><trkpt lat="44.27799837461705" lon="11.423285669002476"><ele>575.0</ele><time>2026-04-30T14:13:04Z</time></trkpt><trkpt lat="44.278124328285536" lon="11.423303624680262"><ele>575.0</ele><time>2026-04-30T14:13:05Z</time></trkpt><trkpt lat="44.27824702587044" lon="11.423318170486068"><ele>575.0</ele><time>2026-04-30T14:13:06Z</time></trkpt><trkpt lat="44.27836660287094" lon="11.423362076242265"><ele>574.25</ele><time>2026-04-30T14:13:07Z</time></trkpt><trkpt lat="44.27848288962975" lon="11.423445525341313"><ele>573.5</ele><time>2026-04-30T14:13:08Z</time></trkpt><trkpt lat="44.27858292256518" lon="11.423555630835518"><ele>572.75</ele><time>2026-04-30T14:13:09Z</time></trkpt><trkpt lat="44.27866841985178" lon="11.423698838586182"><ele>572.0</ele><time>2026-04-30T14:13:10Z</time></trkpt><trkpt lat="44.278738077143935" lon="11.423841621092755"><ele>572.0</ele><time>2026-04-30T14:13:11Z</time></trkpt><trkpt lat="44.27882709482377" lon="11.423949656894495"><ele>572.0</ele><time>2026-04-30T14:13:12Z</time></trkpt><trkpt lat="44.27894600001946" lon="11.424026455348608"><ele>572.0</ele><time>2026-04-30T14:13:13Z</time></trkpt><trkpt lat="44.27907580548379" lon="11.424067697100467"><ele>572.0</ele><time>2026-04-30T14:13:14Z</time></trkpt><trkpt lat="44.279198487240755" lon="11.424083723709417"><ele>571.0</ele><time>2026-04-30T14:13:15Z</time></trkpt><trkpt lat="44.2793143020612" lon="11.424078315183145"><ele>570.0</ele><time>2026-04-30T14:13:16Z</time></trkpt><trkpt lat="44.27942061806016" lon="11.42406960324433"><ele>569.0</ele><time>2026-04-30T14:13:17Z</time></trkpt><trkpt lat="44.27952460274278" lon="11.42408777626723"><ele>568.0</ele><time>2026-04-30T14:13:18Z</time></trkpt><trkpt lat="44.27962133121128" lon="11.424133838042923"><ele>567.0</ele><time>2026-04-30T14:13:19Z</time></trkpt><trkpt lat="44.27971758789637" lon="11.42422461618797"><ele>565.75</ele><time>2026-04-30T14:13:20Z</time></trkpt><trkpt lat="44.27981593026089" lon="11.424310084757142"><ele>564.5</ele><time>2026-04-30T14:13:21Z</time></trkpt><trkpt lat="44.279927325894455" lon="11.424362499782317"><ele>563.25</ele><time>2026-04-30T14:13:22Z</time></trkpt><trkpt lat="44.28004826400823" lon="11.424349928267981"><ele>562.0</ele><time>2026-04-30T14:13:23Z</time></trkpt><trkpt lat="44.28017021980421" lon="11.424297147533611"><ele>562.0</ele><time>2026-04-30T14:13:24Z</time></trkpt><trkpt lat="44.28027905272202" lon="11.424222789085114"><ele>562.0</ele><time>2026-04-30T14:13:25Z</time></trkpt><trkpt lat="44.28039796507717" lon="11.424145461229632"><ele>562.0</ele><time>2026-04-30T14:13:26Z</time></trkpt><trkpt lat="44.2805291093393" lon="11.424092782392277"><ele>562.0</ele><time>2026-04-30T14:13:27Z</time></trkpt><trkpt lat="44.28067378814944" lon="11.424060169624951"><ele>561.75</ele><time>2026-04-30T14:13:28Z</time></trkpt><trkpt lat="44.28081433288995" lon="11.424036306343936"><ele>561.5</ele><time>2026-04-30T14:13:29Z</time></trkpt><trkpt lat="44.28094476394636" lon="11.42399761203852"><ele>561.25</ele><time>2026-04-30T14:13:30Z</time></trkpt><trkpt lat="44.28105739534079" lon="11.423927938214394"><ele>561.0</ele><time>2026-04-30T14:13:31Z</time></trkpt><trkpt lat="44.28116347432115" lon="11.423849290733232"><ele>561.0</ele><time>2026-04-30T14:13:32Z</time></trkpt><trkpt lat="44.281261002995905" lon="11.423818289526364"><ele>561.0</ele><time>2026-04-30T14:13:33Z</time></trkpt><trkpt lat="44.28135667812208" lon="11.42385280261923"><ele>561.0</ele><time>2026-04-30T14:13:34Z</time></trkpt><trkpt lat="44.28145203886904" lon="11.42393269572796"><ele>561.0</ele><time>2026-04-30T14:13:35Z</time></trkpt><trkpt lat="44.28154153759769" lon="11.424011058851816"><ele>561.0</ele><time>2026-04-30T14:13:36Z</time></trkpt><trkpt lat="44.281627008727284" lon="11.424089012682803"><ele>559.6</ele><time>2026-04-30T14:13:37Z</time></trkpt><trkpt lat="44.281710807124306" lon="11.424164474483424"><ele>558.2</ele><time>2026-04-30T14:13:38Z</time></trkpt><trkpt lat="44.28178371812522" lon="11.424248985335257"><ele>556.8</ele><time>2026-04-30T14:13:39Z</time></trkpt><trkpt lat="44.28184816068543" lon="11.424346912471396"><ele>555.4</ele><time>2026-04-30T14:13:40Z</time></trkpt><trkpt lat="44.28191552762934" lon="11.424437014718459"><ele>554.0</ele><time>2026-04-30T14:13:41Z</time></trkpt><trkpt lat="44.28202125561219" lon="11.424514252614859"><ele>554.0</ele><time>2026-04-30T14:13:42Z</time></trkpt><trkpt lat="44.28213238394119" lon="11.424545891414269"><ele>554.0</ele><time>2026-04-30T14:13:43Z</time></trkpt><trkpt lat="44.28224581451127" lon="11.424553245851254"><ele>554.0</ele><time>2026-04-30T14:13:44Z</time></trkpt><trkpt lat="44.282362185316586" lon="11.424533518179375"><ele>554.0</ele><time>2026-04-30T14:13:45Z</time></trkpt><trkpt lat="44.28247388171418" lon="11.424521801393837"><ele>554.75</ele><time>2026-04-30T14:13:46Z</time></trkpt><trkpt lat="44.282584745460376" lon="11.42457438799599"><ele>555.5</ele><time>2026-04-30T14:13:47Z</time></trkpt><trkpt lat="44.282674193401114" lon="11.42467607314866"><ele>556.25</ele><time>2026-04-30T14:13:48Z</time></trkpt><trkpt lat="44.28276404260724" lon="11.424764983040571"><ele>557.0</ele><time>2026-04-30T14:13:49Z</time></trkpt><trkpt lat="44.28287970354873" lon="11.424793833016219"><ele>557.0</ele><time>2026-04-30T14:13:50Z</time></trkpt><trkpt lat="44.282997075027176" lon="11.424761496817268"><ele>557.0</ele><time>2026-04-30T14:13:51Z</time></trkpt><trkpt lat="44.28312761298139" lon="11.424745942880342"><ele>557.0</ele><time>2026-04-30T14:13:52Z</time></trkpt><trkpt lat="44.283258226267414" lon="11.424759706165958"><ele>557.0</ele><time>2026-04-30T14:13:53Z</time></trkpt><trkpt lat="44.28337883804776" lon="11.424772758974374"><ele>554.6</ele><time>2026-04-30T14:13:54Z</time></trkpt><trkpt lat="44.28348826963688" lon="11.424777012699238"><ele>552.2</ele><time>2026-04-30T14:13:55Z</time></trkpt><trkpt lat="44.283598445026136" lon="11.424772836152233"><ele>549.8</ele><time>2026-04-30T14:13:56Z</time></trkpt><trkpt lat="44.28370452801249" lon="11.42474857322787"><ele>547.4</ele><time>2026-04-30T14:13:57Z</time></trkpt><trkpt lat="44.28381138970227" lon="11.424719308940572"><ele>545.0</ele><time>2026-04-30T14:13:58Z</time></trkpt><trkpt lat="44.28391767612745" lon="11.424688062386902"><ele>542.6</ele><time>2026-04-30T14:13:59Z</time></trkpt><trkpt lat="44.2840205658132" lon="11.42465727774953"><ele>540.2</ele><time>2026-04-30T14:14:00Z</time></trkpt><trkpt lat="44.284122849292054" lon="11.4246321370734"><ele>537.8</ele><time>2026-04-30T14:14:01Z</time></trkpt><trkpt lat="44.284221345501216" lon="11.424606743559515"><ele>535.4</ele><time>2026-04-30T14:14:02Z</time></trkpt><trkpt lat="44.28432103352384" lon="11.424568908687103"><ele>533.0</ele><time>2026-04-30T14:14:03Z</time></trkpt><trkpt lat="44.28442282318053" lon="11.424524448361755"><ele>531.8</ele><time>2026-04-30T14:14:04Z</time></trkpt><trkpt lat="44.284531566848855" lon="11.42451620747959"><ele>530.5999999999999</ele><time>2026-04-30T14:14:05Z</time></trkpt><trkpt lat="44.28463872170881" lon="11.424508660908941"><ele>529.4000000000001</ele><time>2026-04-30T14:14:06Z</time></trkpt><trkpt lat="44.284741716122035" lon="11.424477370152495"><ele>528.2</ele><time>2026-04-30T14:14:07Z</time></trkpt><trkpt lat="44.284839550946955" lon="11.424480876453432"><ele>527.0</ele><time>2026-04-30T14:14:08Z</time></trkpt><trkpt lat="44.28493860489856" lon="11.424467876960179"><ele>527.0</ele><time>2026-04-30T14:14:09Z</time></trkpt><trkpt lat="44.28505004860635" lon="11.424445717247698"><ele>527.0</ele><time>2026-04-30T14:14:10Z</time></trkpt><trkpt lat="44.285166054512274" lon="11.424436117816562"><ele>527.0</ele><time>2026-04-30T14:14:11Z</time></trkpt><trkpt lat="44.285290158213755" lon="11.424444622460472"><ele>527.0</ele><time>2026-04-30T14:14:12Z</time></trkpt><trkpt lat="44.28542519252487" lon="11.424460540441608"><ele>527.0</ele><time>2026-04-30T14:14:13Z</time></trkpt><trkpt lat="44.28556035529295" lon="11.42448198344317"><ele>527.0</ele><time>2026-04-30T14:14:14Z</time></trkpt><trkpt lat="44.28570264586739" lon="11.424514810760535"><ele>527.0</ele><time>2026-04-30T14:14:15Z</time></trkpt><trkpt lat="44.28583903352888" lon="11.424537736364439"><ele>527.0</ele><time>2026-04-30T14:14:16Z</time></trkpt><trkpt lat="44.28596578371574" lon="11.424540649293235"><ele>527.4</ele><time>2026-04-30T14:14:17Z</time></trkpt><trkpt lat="44.28606615185031" lon="11.424446022991523"><ele>527.8000000000001</ele><time>2026-04-30T14:14:18Z</time></trkpt><trkpt lat="44.286162642742255" lon="11.424388669849632"><ele>528.2</ele><time>2026-04-30T14:14:19Z</time></trkpt><trkpt lat="44.28622389916894" lon="11.42431631090159"><ele>528.6</ele><time>2026-04-30T14:14:20Z</time></trkpt><trkpt lat="44.28620919406183" lon="11.424443009190599"><ele>529.0</ele><time>2026-04-30T14:14:24Z</time></trkpt><trkpt lat="44.286113569671535" lon="11.424599955278078"><ele>528.6</ele><time>2026-04-30T14:14:26Z</time></trkpt><trkpt lat="44.286038431742796" lon="11.424690857505743"><ele>528.2</ele><time>2026-04-30T14:14:27Z</time></trkpt><trkpt lat="44.28596174355362" lon="11.424757337687481"><ele>527.8000000000001</ele><time>2026-04-30T14:14:28Z</time></trkpt><trkpt lat="44.28588531105551" lon="11.424808325480198"><ele>527.4</ele><time>2026-04-30T14:14:29Z</time></trkpt><trkpt lat="44.285805034435384" lon="11.424851935202055"><ele>527.0</ele><time>2026-04-30T14:14:30Z</time></trkpt><trkpt lat="44.28571495931831" lon="11.424851644076604"><ele>527.0</ele><time>2026-04-30T14:14:31Z</time></trkpt><trkpt lat="44.28562504121191" lon="11.42481710832065"><ele>527.0</ele><time>2026-04-30T14:14:32Z</time></trkpt><trkpt lat="44.28552975817391" lon="11.4248321471377"><ele>527.0</ele><time>2026-04-30T14:14:33Z</time></trkpt><trkpt lat="44.285435959145765" lon="11.42483922542454"><ele>527.0</ele><time>2026-04-30T14:14:34Z</time></trkpt><trkpt lat="44.28533859015417" lon="11.424871156267885"><ele>527.0</ele><time>2026-04-30T14:14:35Z</time></trkpt><trkpt lat="44.285240916288814" lon="11.424926529537247"><ele>526.6</ele><time>2026-04-30T14:14:36Z</time></trkpt><trkpt lat="44.28514349337513" lon="11.424977336235496"><ele>526.2</ele><time>2026-04-30T14:14:37Z</time></trkpt><trkpt lat="44.285041091664255" lon="11.425040036932229"><ele>525.8</ele><time>2026-04-30T14:14:38Z</time></trkpt><trkpt lat="44.28494972012591" lon="11.425117902851428"><ele>525.4</ele><time>2026-04-30T14:14:39Z</time></trkpt><trkpt lat="44.28487005268573" lon="11.425218799664467"><ele>525.0</ele><time>2026-04-30T14:14:40Z</time></trkpt><trkpt lat="44.28480489024109" lon="11.425331824829659"><ele>524.8</ele><time>2026-04-30T14:14:41Z</time></trkpt><trkpt lat="44.28475064584615" lon="11.42547702889289"><ele>524.6</ele><time>2026-04-30T14:14:42Z</time></trkpt><trkpt lat="44.28468137859173" lon="11.42560699027789"><ele>524.4</ele><time>2026-04-30T14:14:43Z</time></trkpt><trkpt lat="44.28462909609031" lon="11.425727871134978"><ele>524.2</ele><time>2026-04-30T14:14:44Z</time></trkpt><trkpt lat="44.28455938274745" lon="11.425807300500923"><ele>524.0</ele><time>2026-04-30T14:14:45Z</time></trkpt><trkpt lat="44.28452363469513" lon="11.42588004316202"><ele>524.0</ele><time>2026-04-30T14:14:46Z</time></trkpt><trkpt lat="44.28448382455992" lon="11.426009264952699"><ele>524.0</ele><time>2026-04-30T14:14:48Z</time></trkpt><trkpt lat="44.28457082039047" lon="11.42614621104442"><ele>524.0</ele><time>2026-04-30T14:14:49Z</time></trkpt><trkpt lat="44.28466889178015" lon="11.426221198487202"><ele>524.0</ele><time>2026-04-30T14:14:50Z</time></trkpt><trkpt lat="44.28474893579751" lon="11.426283544642134"><ele>524.0</ele><time>2026-04-30T14:14:51Z</time></trkpt><trkpt lat="44.284829883456794" lon="11.426312353900725"><ele>521.8</ele><time>2026-04-30T14:14:52Z</time></trkpt><trkpt lat="44.284911747644415" lon="11.426293851143761"><ele>519.5999999999999</ele><time>2026-04-30T14:14:53Z</time></trkpt><trkpt lat="44.28499991901102" lon="11.426240023042864"><ele>517.4</ele><time>2026-04-30T14:14:54Z</time></trkpt><trkpt lat="44.28508895708509" lon="11.426164016894155"><ele>515.1999999999999</ele><time>2026-04-30T14:14:55Z</time></trkpt><trkpt lat="44.285158251037" lon="11.42605622056064"><ele>513.0</ele><time>2026-04-30T14:14:56Z</time></trkpt><trkpt lat="44.28521478016444" lon="11.425943601489704"><ele>513.0</ele><time>2026-04-30T14:14:57Z</time></trkpt><trkpt lat="44.28529106415304" lon="11.4258673100336"><ele>513.0</ele><time>2026-04-30T14:14:58Z</time></trkpt><trkpt lat="44.28538309157574" lon="11.425838145555348"><ele>513.0</ele><time>2026-04-30T14:14:59Z</time></trkpt><trkpt lat="44.28548062704826" lon="11.425858512641831"><ele>513.0</ele><time>2026-04-30T14:15:00Z</time></trkpt><trkpt lat="44.28558029034031" lon="11.425914276434648"><ele>513.0</ele><time>2026-04-30T14:15:01Z</time></trkpt><trkpt lat="44.28568015839428" lon="11.425973251414035"><ele>512.8</ele><time>2026-04-30T14:15:02Z</time></trkpt><trkpt lat="44.28577822866852" lon="11.42601864608352"><ele>512.5999999999999</ele><time>2026-04-30T14:15:03Z</time></trkpt><trkpt lat="44.285882939768946" lon="11.426058653641208"><ele>512.4000000000001</ele><time>2026-04-30T14:15:04Z</time></trkpt><trkpt lat="44.285982877654824" lon="11.426093745509526"><ele>512.2</ele><time>2026-04-30T14:15:05Z</time></trkpt><trkpt lat="44.2860704752726" lon="11.426154499230812"><ele>512.0</ele><time>2026-04-30T14:15:06Z</time></trkpt><trkpt lat="44.28616467544903" lon="11.426138860446011"><ele>512.0</ele><time>2026-04-30T14:15:07Z</time></trkpt><trkpt lat="44.28626158390473" lon="11.42612608537655"><ele>512.0</ele><time>2026-04-30T14:15:08Z</time></trkpt><trkpt lat="44.286366932279556" lon="11.4261352910837"><ele>512.0</ele><time>2026-04-30T14:15:09Z</time></trkpt><trkpt lat="44.28646007728013" lon="11.42615221003042"><ele>512.0</ele><time>2026-04-30T14:15:10Z</time></trkpt><trkpt lat="44.286541740950156" lon="11.426199310477504"><ele>512.0</ele><time>2026-04-30T14:15:11Z</time></trkpt><trkpt lat="44.28661061564627" lon="11.426270157699015"><ele>509.66666666666663</ele><time>2026-04-30T14:15:12Z</time></trkpt><trkpt lat="44.286685326407834" lon="11.426359034896016"><ele>507.3333333333333</ele><time>2026-04-30T14:15:13Z</time></trkpt><trkpt lat="44.28675296199409" lon="11.426455054101472"><ele>505.0</ele><time>2026-04-30T14:15:14Z</time></trkpt><trkpt lat="44.28681464600654" lon="11.426554384659738"><ele>502.66666666666663</ele><time>2026-04-30T14:15:15Z</time></trkpt><trkpt lat="44.28686944214609" lon="11.426633729097967"><ele>500.3333333333333</ele><time>2026-04-30T14:15:16Z</time></trkpt><trkpt lat="44.28692928467308" lon="11.426699152798541"><ele>498.0</ele><time>2026-04-30T14:15:17Z</time></trkpt><trkpt lat="44.2870603973284" lon="11.426759508049232"><ele>498.0</ele><time>2026-04-30T14:15:19Z</time></trkpt><trkpt lat="44.28713940075493" lon="11.426790577047756"><ele>498.0</ele><time>2026-04-30T14:15:20Z</time></trkpt><trkpt lat="44.28723328468321" lon="11.426816055014037"><ele>498.0</ele><time>2026-04-30T14:15:21Z</time></trkpt><trkpt lat="44.28732087890884" lon="11.426827048926095"><ele>498.0</ele><time>2026-04-30T14:15:22Z</time></trkpt><trkpt lat="44.28740797456973" lon="11.426791015959292"><ele>498.0</ele><time>2026-04-30T14:15:23Z</time></trkpt><trkpt lat="44.28749320274916" lon="11.426739901665211"><ele>498.0</ele><time>2026-04-30T14:15:24Z</time></trkpt><trkpt lat="44.28759005413199" lon="11.426670253534965"><ele>499.4</ele><time>2026-04-30T14:15:25Z</time></trkpt><trkpt lat="44.28769423482269" lon="11.426627180870753"><ele>500.79999999999995</ele><time>2026-04-30T14:15:26Z</time></trkpt><trkpt lat="44.28778435505804" lon="11.426633735187773"><ele>502.2</ele><time>2026-04-30T14:15:27Z</time></trkpt><trkpt lat="44.28787577487141" lon="11.42664943096838"><ele>503.6</ele><time>2026-04-30T14:15:28Z</time></trkpt><trkpt lat="44.287966849170914" lon="11.42667584746928"><ele>505.0</ele><time>2026-04-30T14:15:29Z</time></trkpt><trkpt lat="44.28805673133163" lon="11.426705401969059"><ele>504.8</ele><time>2026-04-30T14:15:30Z</time></trkpt><trkpt lat="44.28814458003824" lon="11.42671898043895"><ele>504.6</ele><time>2026-04-30T14:15:31Z</time></trkpt><trkpt lat="44.28823042551052" lon="11.426738934101609"><ele>504.4</ele><time>2026-04-30T14:15:32Z</time></trkpt><trkpt lat="44.28831997081571" lon="11.426788250871939"><ele>504.2</ele><time>2026-04-30T14:15:33Z</time></trkpt><trkpt lat="44.28840333090719" lon="11.426901442945153"><ele>504.0</ele><time>2026-04-30T14:15:34Z</time></trkpt><trkpt lat="44.28848585378022" lon="11.426994441418346"><ele>504.0</ele><time>2026-04-30T14:15:35Z</time></trkpt><trkpt lat="44.28855551578902" lon="11.427051838130685"><ele>504.0</ele><time>2026-04-30T14:15:36Z</time></trkpt><trkpt lat="44.28863122442313" lon="11.427124194171277"><ele>504.0</ele><time>2026-04-30T14:15:37Z</time></trkpt><trkpt lat="44.28867587564478" lon="11.427223074578276"><ele>504.0</ele><time>2026-04-30T14:15:38Z</time></trkpt><trkpt lat="44.288725760867635" lon="11.427325101616598"><ele>504.0</ele><time>2026-04-30T14:15:39Z</time></trkpt><trkpt lat="44.288767103840726" lon="11.427448770958822"><ele>504.0</ele><time>2026-04-30T14:15:40Z</time></trkpt><trkpt lat="44.288794341299926" lon="11.427577591804338"><ele>502.3333333333333</ele><time>2026-04-30T14:15:41Z</time></trkpt><trkpt lat="44.28880637856303" lon="11.427691022379662"><ele>500.66666666666663</ele><time>2026-04-30T14:15:42Z</time></trkpt><trkpt lat="44.288820685785524" lon="11.427806216174728"><ele>499.0</ele><time>2026-04-30T14:15:43Z</time></trkpt><trkpt lat="44.28885659952634" lon="11.42789660488048"><ele>497.3333333333333</ele><time>2026-04-30T14:15:44Z</time></trkpt><trkpt lat="44.28891559806246" lon="11.42795060073097"><ele>495.66666666666663</ele><time>2026-04-30T14:15:45Z</time></trkpt><trkpt lat="44.28898359530297" lon="11.427986396643346"><ele>494.0</ele><time>2026-04-30T14:15:46Z</time></trkpt><trkpt lat="44.28906221855845" lon="11.427988496679781"><ele>494.0</ele><time>2026-04-30T14:15:47Z</time></trkpt><trkpt lat="44.2891507778489" lon="11.427982674530199"><ele>494.0</ele><time>2026-04-30T14:15:48Z</time></trkpt><trkpt lat="44.289214983831386" lon="11.428075776748793"><ele>494.0</ele><time>2026-04-30T14:15:49Z</time></trkpt><trkpt lat="44.28930582405333" lon="11.428138405438323"><ele>494.0</ele><time>2026-04-30T14:15:50Z</time></trkpt><trkpt lat="44.289399145975125" lon="11.42818884150824"><ele>494.0</ele><time>2026-04-30T14:15:51Z</time></trkpt><trkpt lat="44.289504947771235" lon="11.428208797908892"><ele>494.0</ele><time>2026-04-30T14:15:52Z</time></trkpt><trkpt lat="44.28959795991374" lon="11.428157902521962"><ele>494.0</ele><time>2026-04-30T14:15:53Z</time></trkpt><trkpt lat="44.28968133677006" lon="11.42810472438077"><ele>494.0</ele><time>2026-04-30T14:15:54Z</time></trkpt><trkpt lat="44.28976678231881" lon="11.42806801568833"><ele>494.0</ele><time>2026-04-30T14:15:55Z</time></trkpt><trkpt lat="44.289845409284844" lon="11.428042595789936"><ele>494.0</ele><time>2026-04-30T14:15:56Z</time></trkpt><trkpt lat="44.289935288674066" lon="11.428043964633737"><ele>494.99999999999994</ele><time>2026-04-30T14:15:57Z</time></trkpt><trkpt lat="44.290016361265636" lon="11.428022687856226"><ele>496.0</ele><time>2026-04-30T14:15:58Z</time></trkpt><trkpt lat="44.29009337023833" lon="11.427983752663227"><ele>497.0</ele><time>2026-04-30T14:15:59Z</time></trkpt><trkpt lat="44.290145755402314" lon="11.427878642921971"><ele>498.0</ele><time>2026-04-30T14:16:00Z</time></trkpt><trkpt lat="44.29019056242273" lon="11.427781521668827"><ele>498.99999999999994</ele><time>2026-04-30T14:16:01Z</time></trkpt><trkpt lat="44.290249881510135" lon="11.427706410563726"><ele>500.0</ele><time>2026-04-30T14:16:02Z</time></trkpt><trkpt lat="44.29030511898262" lon="11.42764091012288"><ele>499.99999999999994</ele><time>2026-04-30T14:16:03Z</time></trkpt><trkpt lat="44.290363250939464" lon="11.427600783293597"><ele>500.0</ele><time>2026-04-30T14:16:04Z</time></trkpt><trkpt lat="44.29049759826336" lon="11.427575909470997"><ele>500.0</ele><time>2026-04-30T14:16:06Z</time></trkpt><trkpt lat="44.29056634157933" lon="11.427595197712096"><ele>500.0</ele><time>2026-04-30T14:16:07Z</time></trkpt><trkpt lat="44.290644975104456" lon="11.427577218891244"><ele>499.99999999999994</ele><time>2026-04-30T14:16:08Z</time></trkpt><trkpt lat="44.29070856640216" lon="11.427646836612706"><ele>500.0</ele><time>2026-04-30T14:16:09Z</time></trkpt><trkpt lat="44.290775172795634" lon="11.427719981034134"><ele>498.66666666666663</ele><time>2026-04-30T14:16:10Z</time></trkpt><trkpt lat="44.29084262594747" lon="11.427776878255926"><ele>497.3333333333333</ele><time>2026-04-30T14:16:11Z</time></trkpt><trkpt lat="44.29092250718959" lon="11.427804372059395"><ele>496.0</ele><time>2026-04-30T14:16:12Z</time></trkpt><trkpt lat="44.29101046541723" lon="11.427800063635807"><ele>494.66666666666663</ele><time>2026-04-30T14:16:13Z</time></trkpt><trkpt lat="44.291078411724705" lon="11.427752596599209"><ele>493.3333333333333</ele><time>2026-04-30T14:16:14Z</time></trkpt><trkpt lat="44.29112558502255" lon="11.427663646688222"><ele>492.0</ele><time>2026-04-30T14:16:15Z</time></trkpt><trkpt lat="44.291166730345616" lon="11.427535234958054"><ele>492.0</ele><time>2026-04-30T14:16:16Z</time></trkpt><trkpt lat="44.291217484249266" lon="11.427425822276284"><ele>492.00000000000006</ele><time>2026-04-30T14:16:17Z</time></trkpt><trkpt lat="44.29129396325705" lon="11.427337656749783"><ele>492.00000000000006</ele><time>2026-04-30T14:16:18Z</time></trkpt><trkpt lat="44.29136576280615" lon="11.427280388903615"><ele>492.0</ele><time>2026-04-30T14:16:19Z</time></trkpt><trkpt lat="44.29146659025191" lon="11.42724586813167"><ele>492.0</ele><time>2026-04-30T14:16:20Z</time></trkpt><trkpt lat="44.29158892809152" lon="11.427232648846735"><ele>491.40000000000003</ele><time>2026-04-30T14:16:21Z</time></trkpt><trkpt lat="44.29171382808272" lon="11.4272407859021"><ele>490.80000000000007</ele><time>2026-04-30T14:16:22Z</time></trkpt><trkpt lat="44.29180777475655" lon="11.427286971229691"><ele>490.2</ele><time>2026-04-30T14:16:23Z</time></trkpt><trkpt lat="44.291899568901506" lon="11.427385556503967"><ele>489.6</ele><time>2026-04-30T14:16:24Z</time></trkpt><trkpt lat="44.29198476396019" lon="11.427465573775535"><ele>489.0</ele><time>2026-04-30T14:16:25Z</time></trkpt><trkpt lat="44.29205461857996" lon="11.427527124522959"><ele>489.0</ele><time>2026-04-30T14:16:26Z</time></trkpt><trkpt lat="44.2921062844191" lon="11.427610241173745"><ele>489.0</ele><time>2026-04-30T14:16:27Z</time></trkpt><trkpt lat="44.29214687561328" lon="11.427702225399152"><ele>489.0</ele><time>2026-04-30T14:16:28Z</time></trkpt><trkpt lat="44.29219547002819" lon="11.427819264621366"><ele>489.0</ele><time>2026-04-30T14:16:29Z</time></trkpt><trkpt lat="44.292257926956516" lon="11.427926450663765"><ele>489.0</ele><time>2026-04-30T14:16:30Z</time></trkpt><trkpt lat="44.29232973550075" lon="11.427999597864295"><ele>489.0</ele><time>2026-04-30T14:16:31Z</time></trkpt><trkpt lat="44.2924057424158" lon="11.428044605766978"><ele>488.2</ele><time>2026-04-30T14:16:32Z</time></trkpt><trkpt lat="44.292494126175754" lon="11.42808265691781"><ele>487.4</ele><time>2026-04-30T14:16:33Z</time></trkpt><trkpt lat="44.29259004341235" lon="11.428111415167889"><ele>486.6</ele><time>2026-04-30T14:16:34Z</time></trkpt><trkpt lat="44.29268747213408" lon="11.428127865095956"><ele>485.8</ele><time>2026-04-30T14:16:35Z</time></trkpt><trkpt lat="44.29278857365985" lon="11.428148957377028"><ele>485.0</ele><time>2026-04-30T14:16:36Z</time></trkpt><trkpt lat="44.29289709215048" lon="11.42817039994695"><ele>485.0</ele><time>2026-04-30T14:16:37Z</time></trkpt><trkpt lat="44.29299853491802" lon="11.428190911228073"><ele>485.0</ele><time>2026-04-30T14:16:38Z</time></trkpt><trkpt lat="44.29307745374209" lon="11.428185889427015"><ele>485.0</ele><time>2026-04-30T14:16:39Z</time></trkpt><trkpt lat="44.293155651294875" lon="11.42815338862255"><ele>485.0</ele><time>2026-04-30T14:16:40Z</time></trkpt><trkpt lat="44.29324519513025" lon="11.428099700489444"><ele>485.0</ele><time>2026-04-30T14:16:41Z</time></trkpt><trkpt lat="44.29334460277465" lon="11.428038248909868"><ele>490.0</ele><time>2026-04-30T14:16:42Z</time></trkpt><trkpt lat="44.2934486127437" lon="11.427965172463935"><ele>495.0</ele><time>2026-04-30T14:16:43Z</time></trkpt><trkpt lat="44.2935547730151" lon="11.427884670710073"><ele>500.0</ele><time>2026-04-30T14:16:44Z</time></trkpt><trkpt lat="44.29367530328612" lon="11.427809359511079"><ele>505.0</ele><time>2026-04-30T14:16:45Z</time></trkpt><trkpt lat="44.29378800095437" lon="11.427739170194224"><ele>505.00000000000006</ele><time>2026-04-30T14:16:46Z</time></trkpt><trkpt lat="44.29388374353228" lon="11.42767875445908"><ele>505.0</ele><time>2026-04-30T14:16:47Z</time></trkpt><trkpt lat="44.29396950902393" lon="11.427625960615122"><ele>505.0</ele><time>2026-04-30T14:16:48Z</time></trkpt><trkpt lat="44.29403343063167" lon="11.427551242687418"><ele>505.0</ele><time>2026-04-30T14:16:49Z</time></trkpt><trkpt lat="44.29408629376603" lon="11.427489902235978"><ele>505.00000000000006</ele><time>2026-04-30T14:16:50Z</time></trkpt><trkpt lat="44.29414102616051" lon="11.427438104370847"><ele>505.0</ele><time>2026-04-30T14:16:51Z</time></trkpt><trkpt lat="44.29419472794208" lon="11.427376106678835"><ele>504.0</ele><time>2026-04-30T14:16:52Z</time></trkpt><trkpt lat="44.294238822242114" lon="11.427292978984767"><ele>503.0</ele><time>2026-04-30T14:16:53Z</time></trkpt><trkpt lat="44.2942731929308" lon="11.42716397774283"><ele>502.0</ele><time>2026-04-30T14:16:54Z</time></trkpt><trkpt lat="44.29430300261202" lon="11.42701483537506"><ele>501.0</ele><time>2026-04-30T14:16:55Z</time></trkpt><trkpt lat="44.29433492991742" lon="11.426873221750226"><ele>500.0</ele><time>2026-04-30T14:16:56Z</time></trkpt><trkpt lat="44.29436316694714" lon="11.426744104685593"><ele>500.0</ele><time>2026-04-30T14:16:57Z</time></trkpt><trkpt lat="44.29441113399099" lon="11.426613096607793"><ele>500.0</ele><time>2026-04-30T14:16:58Z</time></trkpt><trkpt lat="44.29446650195665" lon="11.426478686141037"><ele>500.0</ele><time>2026-04-30T14:16:59Z</time></trkpt><trkpt lat="44.29450895952633" lon="11.426353875516455"><ele>500.0</ele><time>2026-04-30T14:17:00Z</time></trkpt><trkpt lat="44.29455571599587" lon="11.426255644807947"><ele>500.0</ele><time>2026-04-30T14:17:01Z</time></trkpt><trkpt lat="44.29461528687769" lon="11.426221036922223"><ele>501.0</ele><time>2026-04-30T14:17:02Z</time></trkpt><trkpt lat="44.294713381923046" lon="11.426286361218727"><ele>502.0</ele><time>2026-04-30T14:17:04Z</time></trkpt><trkpt lat="44.29479270326383" lon="11.426297394760796"><ele>503.0</ele><time>2026-04-30T14:17:05Z</time></trkpt><trkpt lat="44.29486718940156" lon="11.426263458104952"><ele>504.0</ele><time>2026-04-30T14:17:06Z</time></trkpt><trkpt lat="44.294958935157965" lon="11.426201071263366"><ele>505.0</ele><time>2026-04-30T14:17:07Z</time></trkpt><trkpt lat="44.29505641271023" lon="11.426155696067953"><ele>503.00000000000006</ele><time>2026-04-30T14:17:08Z</time></trkpt><trkpt lat="44.295147208828496" lon="11.426150316208764"><ele>501.0</ele><time>2026-04-30T14:17:09Z</time></trkpt><trkpt lat="44.29523875688576" lon="11.426162302089905"><ele>499.0</ele><time>2026-04-30T14:17:10Z</time></trkpt><trkpt lat="44.29532877662168" lon="11.426174626156904"><ele>497.0</ele><time>2026-04-30T14:17:11Z</time></trkpt><trkpt lat="44.295410990776155" lon="11.426173431174528"><ele>495.00000000000006</ele><time>2026-04-30T14:17:12Z</time></trkpt><trkpt lat="44.29548943027247" lon="11.42615442136014"><ele>493.0</ele><time>2026-04-30T14:17:13Z</time></trkpt><trkpt lat="44.295566662424875" lon="11.426118259823445"><ele>491.6666666666667</ele><time>2026-04-30T14:17:14Z</time></trkpt><trkpt lat="44.295637770167964" lon="11.42608501314663"><ele>490.33333333333337</ele><time>2026-04-30T14:17:15Z</time></trkpt><trkpt lat="44.29571428289571" lon="11.426056149080962"><ele>489.0</ele><time>2026-04-30T14:17:16Z</time></trkpt><trkpt lat="44.29580207206165" lon="11.426026308683607"><ele>487.66666666666663</ele><time>2026-04-30T14:17:17Z</time></trkpt><trkpt lat="44.29589673274154" lon="11.425998866031334"><ele>486.3333333333333</ele><time>2026-04-30T14:17:18Z</time></trkpt><trkpt lat="44.29599708383854" lon="11.425972357160791"><ele>485.0</ele><time>2026-04-30T14:17:19Z</time></trkpt><trkpt lat="44.29608835939098" lon="11.425965047567615"><ele>484.99999999999994</ele><time>2026-04-30T14:17:20Z</time></trkpt><trkpt lat="44.296166455506665" lon="11.42595994427872"><ele>485.0</ele><time>2026-04-30T14:17:21Z</time></trkpt><trkpt lat="44.296239250565996" lon="11.425960157105447"><ele>485.0</ele><time>2026-04-30T14:17:22Z</time></trkpt><trkpt lat="44.29631615703999" lon="11.425950034281058"><ele>485.0</ele><time>2026-04-30T14:17:23Z</time></trkpt><trkpt lat="44.296396633442484" lon="11.425923735436204"><ele>484.99999999999994</ele><time>2026-04-30T14:17:24Z</time></trkpt><trkpt lat="44.296485614825045" lon="11.42589577861471"><ele>485.0</ele><time>2026-04-30T14:17:25Z</time></trkpt><trkpt lat="44.29656807298856" lon="11.425880524566994"><ele>484.28571428571433</ele><time>2026-04-30T14:17:26Z</time></trkpt><trkpt lat="44.29664718898503" lon="11.42585879585357"><ele>483.57142857142856</ele><time>2026-04-30T14:17:27Z</time></trkpt><trkpt lat="44.2967181537187" lon="11.42581990076913"><ele>482.8571428571429</ele><time>2026-04-30T14:17:28Z</time></trkpt><trkpt lat="44.29678617626462" lon="11.42578458920506"><ele>482.14285714285717</ele><time>2026-04-30T14:17:29Z</time></trkpt><trkpt lat="44.29685507341243" lon="11.425764600030375"><ele>481.42857142857144</ele><time>2026-04-30T14:17:30Z</time></trkpt><trkpt lat="44.29692438891332" lon="11.425748903315514"><ele>480.7142857142857</ele><time>2026-04-30T14:17:31Z</time></trkpt><trkpt lat="44.29699065182047" lon="11.425701378117239"><ele>480.0</ele><time>2026-04-30T14:17:32Z</time></trkpt><trkpt lat="44.29705079918777" lon="11.425618112247232"><ele>480.0</ele><time>2026-04-30T14:17:33Z</time></trkpt><trkpt lat="44.2971002054244" lon="11.425515753246573"><ele>480.0</ele><time>2026-04-30T14:17:34Z</time></trkpt><trkpt lat="44.29713846235299" lon="11.42541221077833"><ele>480.0</ele><time>2026-04-30T14:17:35Z</time></trkpt><trkpt lat="44.297155704967444" lon="11.425297900955142"><ele>480.0</ele><time>2026-04-30T14:17:36Z</time></trkpt><trkpt lat="44.29715199388379" lon="11.425180900864893"><ele>480.0</ele><time>2026-04-30T14:17:37Z</time></trkpt><trkpt lat="44.2971501201359" lon="11.425063251699106"><ele>480.0</ele><time>2026-04-30T14:17:38Z</time></trkpt><trkpt lat="44.2971728969457" lon="11.424970790840495"><ele>478.8</ele><time>2026-04-30T14:17:39Z</time></trkpt><trkpt lat="44.29722758256309" lon="11.424925458259699"><ele>477.6</ele><time>2026-04-30T14:17:40Z</time></trkpt><trkpt lat="44.29729932341443" lon="11.424924549846494"><ele>476.4</ele><time>2026-04-30T14:17:41Z</time></trkpt><trkpt lat="44.29741482518962" lon="11.424969039057514"><ele>475.2</ele><time>2026-04-30T14:17:42Z</time></trkpt><trkpt lat="44.29752453981482" lon="11.425021049095172"><ele>474.0</ele><time>2026-04-30T14:17:43Z</time></trkpt><trkpt lat="44.29762448367314" lon="11.425018695886672"><ele>474.0</ele><time>2026-04-30T14:17:44Z</time></trkpt><trkpt lat="44.297721279341225" lon="11.424973858337431"><ele>474.0</ele><time>2026-04-30T14:17:45Z</time></trkpt><trkpt lat="44.297831722794776" lon="11.424868377872464"><ele>474.0</ele><time>2026-04-30T14:17:46Z</time></trkpt><trkpt lat="44.297954641359" lon="11.424752721435185"><ele>474.0</ele><time>2026-04-30T14:17:47Z</time></trkpt><trkpt lat="44.29806700970123" lon="11.424704658889663"><ele>470.66666666666663</ele><time>2026-04-30T14:17:48Z</time></trkpt><trkpt lat="44.29821275801166" lon="11.424706397168373"><ele>467.3333333333333</ele><time>2026-04-30T14:17:49Z</time></trkpt><trkpt lat="44.29840772405941" lon="11.42472660943866"><ele>464.0</ele><time>2026-04-30T14:17:50Z</time></trkpt><trkpt lat="44.29859328051748" lon="11.424744685562693"><ele>464.0</ele><time>2026-04-30T14:17:51Z</time></trkpt><trkpt lat="44.29874734517157" lon="11.424776489568334"><ele>464.0</ele><time>2026-04-30T14:17:52Z</time></trkpt><trkpt lat="44.29888671398119" lon="11.42480019229957"><ele>464.0</ele><time>2026-04-30T14:17:53Z</time></trkpt><trkpt lat="44.299014895246714" lon="11.424821970564107"><ele>464.0</ele><time>2026-04-30T14:17:54Z</time></trkpt><trkpt lat="44.299138655079744" lon="11.42482094436031"><ele>464.0</ele><time>2026-04-30T14:17:55Z</time></trkpt><trkpt lat="44.29925421586498" lon="11.424806387524999"><ele>464.0</ele><time>2026-04-30T14:17:56Z</time></trkpt><trkpt lat="44.299377010408925" lon="11.424792001596764"><ele>464.0</ele><time>2026-04-30T14:17:57Z</time></trkpt><trkpt lat="44.299487356500855" lon="11.424797551368378"><ele>464.0</ele><time>2026-04-30T14:17:58Z</time></trkpt><trkpt lat="44.29959877438096" lon="11.4248197632473"><ele>464.0</ele><time>2026-04-30T14:17:59Z</time></trkpt><trkpt lat="44.29970352328466" lon="11.42487074568214"><ele>464.0</ele><time>2026-04-30T14:18:00Z</time></trkpt><trkpt lat="44.29980508652357" lon="11.424902825478013"><ele>464.0</ele><time>2026-04-30T14:18:01Z</time></trkpt><trkpt lat="44.299900763594906" lon="11.424936185987265"><ele>464.0</ele><time>2026-04-30T14:18:02Z</time></trkpt><trkpt lat="44.29999608272402" lon="11.424955729651732"><ele>464.0</ele><time>2026-04-30T14:18:03Z</time></trkpt><trkpt lat="44.30008107634637" lon="11.424987240171745"><ele>462.4</ele><time>2026-04-30T14:18:04Z</time></trkpt><trkpt lat="44.30015635462159" lon="11.425018990629624"><ele>460.79999999999995</ele><time>2026-04-30T14:18:05Z</time></trkpt><trkpt lat="44.30023131298937" lon="11.425064467700926"><ele>459.20000000000005</ele><time>2026-04-30T14:18:06Z</time></trkpt><trkpt lat="44.300293785185154" lon="11.425101245858338"><ele>457.6</ele><time>2026-04-30T14:18:07Z</time></trkpt><trkpt lat="44.30039734610915" lon="11.425155852639982"><ele>456.0</ele><time>2026-04-30T14:18:09Z</time></trkpt><trkpt lat="44.300525698328556" lon="11.425199514580841"><ele>458.6</ele><time>2026-04-30T14:18:11Z</time></trkpt><trkpt lat="44.300600880085575" lon="11.425213675393453"><ele>461.20000000000005</ele><time>2026-04-30T14:18:12Z</time></trkpt><trkpt lat="44.30068873296096" lon="11.42522867395156"><ele>463.79999999999995</ele><time>2026-04-30T14:18:13Z</time></trkpt><trkpt lat="44.30078946871631" lon="11.42524229346157"><ele>466.4</ele><time>2026-04-30T14:18:14Z</time></trkpt><trkpt lat="44.300898089800214" lon="11.425254484097245"><ele>469.0</ele><time>2026-04-30T14:18:15Z</time></trkpt><trkpt lat="44.301008600006824" lon="11.425277883913369"><ele>469.0</ele><time>2026-04-30T14:18:16Z</time></trkpt><trkpt lat="44.301116556332154" lon="11.42530161619391"><ele>469.0</ele><time>2026-04-30T14:18:17Z</time></trkpt><trkpt lat="44.30119908073515" lon="11.425310735127882"><ele>469.0</ele><time>2026-04-30T14:18:18Z</time></trkpt><trkpt lat="44.301271806743024" lon="11.425283187980785"><ele>469.0</ele><time>2026-04-30T14:18:19Z</time></trkpt><trkpt lat="44.3013477758129" lon="11.425215288928165"><ele>469.0</ele><time>2026-04-30T14:18:20Z</time></trkpt><trkpt lat="44.30143100759134" lon="11.425146130065029"><ele>472.2</ele><time>2026-04-30T14:18:21Z</time></trkpt><trkpt lat="44.30151870476537" lon="11.425120127661943"><ele>475.4</ele><time>2026-04-30T14:18:22Z</time></trkpt><trkpt lat="44.301625096094746" lon="11.4251344073545"><ele>478.6</ele><time>2026-04-30T14:18:23Z</time></trkpt><trkpt lat="44.30174019144831" lon="11.425166497495225"><ele>481.8</ele><time>2026-04-30T14:18:24Z</time></trkpt><trkpt lat="44.30185327425351" lon="11.425210192856664"><ele>485.0</ele><time>2026-04-30T14:18:25Z</time></trkpt><trkpt lat="44.30198018524324" lon="11.42524632342695"><ele>485.0</ele><time>2026-04-30T14:18:26Z</time></trkpt><trkpt lat="44.3021104495415" lon="11.425276406678151"><ele>485.0</ele><time>2026-04-30T14:18:27Z</time></trkpt><trkpt lat="44.302253508265125" lon="11.425314455093213"><ele>485.0</ele><time>2026-04-30T14:18:28Z</time></trkpt><trkpt lat="44.302400618206775" lon="11.425362298177129"><ele>485.0</ele><time>2026-04-30T14:18:29Z</time></trkpt><trkpt lat="44.30253546772564" lon="11.425412080147398"><ele>485.4</ele><time>2026-04-30T14:18:30Z</time></trkpt><trkpt lat="44.30263758571927" lon="11.425472074286565"><ele>485.8</ele><time>2026-04-30T14:18:31Z</time></trkpt><trkpt lat="44.302708887417985" lon="11.425522506879837"><ele>486.20000000000005</ele><time>2026-04-30T14:18:32Z</time></trkpt><trkpt lat="44.30277976715586" lon="11.425490188312514"><ele>486.6</ele><time>2026-04-30T14:18:34Z</time></trkpt><trkpt lat="44.302749776848216" lon="11.42530648877659"><ele>487.0</ele><time>2026-04-30T14:18:36Z</time></trkpt><trkpt lat="44.302757752281494" lon="11.4251519033138"><ele>487.6</ele><time>2026-04-30T14:18:37Z</time></trkpt><trkpt lat="44.3027881484429" lon="11.424975994461763"><ele>488.20000000000005</ele><time>2026-04-30T14:18:38Z</time></trkpt><trkpt lat="44.302821939593635" lon="11.424838152834838"><ele>488.8</ele><time>2026-04-30T14:18:39Z</time></trkpt><trkpt lat="44.302851351347265" lon="11.424715824403984"><ele>489.4</ele><time>2026-04-30T14:18:40Z</time></trkpt><trkpt lat="44.302874458890784" lon="11.424612145148654"><ele>490.0</ele><time>2026-04-30T14:18:41Z</time></trkpt><trkpt lat="44.30287241753486" lon="11.424501645663296"><ele>490.50000000000006</ele><time>2026-04-30T14:18:42Z</time></trkpt><trkpt lat="44.302851610836164" lon="11.42439789527657"><ele>491.0</ele><time>2026-04-30T14:18:43Z</time></trkpt><trkpt lat="44.30284769435786" lon="11.424290307572434"><ele>491.5</ele><time>2026-04-30T14:18:44Z</time></trkpt><trkpt lat="44.30289872944803" lon="11.424193495570291"><ele>492.0</ele><time>2026-04-30T14:18:45Z</time></trkpt><trkpt lat="44.302966897847114" lon="11.424090740635407"><ele>492.50000000000006</ele><time>2026-04-30T14:18:46Z</time></trkpt><trkpt lat="44.30303393077215" lon="11.423992676554839"><ele>493.0</ele><time>2026-04-30T14:18:47Z</time></trkpt><trkpt lat="44.3030955346048" lon="11.423908604264764"><ele>493.00000000000006</ele><time>2026-04-30T14:18:48Z</time></trkpt><trkpt lat="44.30314539000513" lon="11.423838762396414"><ele>493.0</ele><time>2026-04-30T14:18:49Z</time></trkpt><trkpt lat="44.303194507621626" lon="11.423776150349793"><ele>493.0</ele><time>2026-04-30T14:18:50Z</time></trkpt><trkpt lat="44.30325402748824" lon="11.423700444771086"><ele>493.0</ele><time>2026-04-30T14:18:51Z</time></trkpt><trkpt lat="44.30331674350046" lon="11.423619114016207"><ele>493.00000000000006</ele><time>2026-04-30T14:18:52Z</time></trkpt><trkpt lat="44.3033818106139" lon="11.423531147416805"><ele>493.0</ele><time>2026-04-30T14:18:53Z</time></trkpt><trkpt lat="44.303440722315315" lon="11.42343537312328"><ele>492.00000000000006</ele><time>2026-04-30T14:18:54Z</time></trkpt><trkpt lat="44.303485365022524" lon="11.423335396747929"><ele>491.0</ele><time>2026-04-30T14:18:55Z</time></trkpt><trkpt lat="44.30351419586975" lon="11.42322033426308"><ele>490.0</ele><time>2026-04-30T14:18:56Z</time></trkpt><trkpt lat="44.303537831272465" lon="11.42310372779407"><ele>489.0</ele><time>2026-04-30T14:18:57Z</time></trkpt><trkpt lat="44.303545032631135" lon="11.422977248357041"><ele>488.00000000000006</ele><time>2026-04-30T14:18:58Z</time></trkpt><trkpt lat="44.30354838604083" lon="11.422848585103836"><ele>487.0</ele><time>2026-04-30T14:18:59Z</time></trkpt><trkpt lat="44.303554651617944" lon="11.422726985201304"><ele>484.8571428571429</ele><time>2026-04-30T14:19:00Z</time></trkpt><trkpt lat="44.30355045334419" lon="11.422630294282063"><ele>482.71428571428567</ele><time>2026-04-30T14:19:01Z</time></trkpt><trkpt lat="44.30357533961119" lon="11.422496831546821"><ele>480.57142857142856</ele><time>2026-04-30T14:19:03Z</time></trkpt><trkpt lat="44.303631384258395" lon="11.422453208602413"><ele>478.42857142857144</ele><time>2026-04-30T14:19:04Z</time></trkpt><trkpt lat="44.30369648537442" lon="11.42243328510345"><ele>476.28571428571433</ele><time>2026-04-30T14:19:05Z</time></trkpt><trkpt lat="44.30376962384993" lon="11.422397518980956"><ele>474.1428571428571</ele><time>2026-04-30T14:19:06Z</time></trkpt><trkpt lat="44.30382635974954" lon="11.422344279176206"><ele>472.0</ele><time>2026-04-30T14:19:07Z</time></trkpt><trkpt lat="44.30387220959057" lon="11.42227764855132"><ele>472.00000000000006</ele><time>2026-04-30T14:19:08Z</time></trkpt><trkpt lat="44.303909228894874" lon="11.422192691955116"><ele>472.0</ele><time>2026-04-30T14:19:09Z</time></trkpt><trkpt lat="44.303946491972106" lon="11.422105303107074"><ele>472.0</ele><time>2026-04-30T14:19:10Z</time></trkpt><trkpt lat="44.303985444895766" lon="11.422019955995712"><ele>472.0</ele><time>2026-04-30T14:19:11Z</time></trkpt><trkpt lat="44.30403358099749" lon="11.421928509262866"><ele>472.00000000000006</ele><time>2026-04-30T14:19:12Z</time></trkpt><trkpt lat="44.30408285247905" lon="11.421825323050628"><ele>472.0</ele><time>2026-04-30T14:19:13Z</time></trkpt><trkpt lat="44.30413050739165" lon="11.421713933468247"><ele>468.6</ele><time>2026-04-30T14:19:14Z</time></trkpt><trkpt lat="44.30416757783275" lon="11.421593124117447"><ele>465.20000000000005</ele><time>2026-04-30T14:19:15Z</time></trkpt><trkpt lat="44.304183922003205" lon="11.421476940802371"><ele>461.8</ele><time>2026-04-30T14:19:16Z</time></trkpt><trkpt lat="44.30417062994126" lon="11.421377802736409"><ele>458.4</ele><time>2026-04-30T14:19:17Z</time></trkpt><trkpt lat="44.30408737556018" lon="11.421292692732035"><ele>455.0</ele><time>2026-04-30T14:19:19Z</time></trkpt><trkpt lat="44.30399297578769" lon="11.421228658357052"><ele>451.2</ele><time>2026-04-30T14:19:21Z</time></trkpt><trkpt lat="44.30392810318599" lon="11.42119422343654"><ele>447.4</ele><time>2026-04-30T14:19:22Z</time></trkpt><trkpt lat="44.30382283202273" lon="11.421149616444776"><ele>443.6</ele><time>2026-04-30T14:19:24Z</time></trkpt><trkpt lat="44.30373248710286" lon="11.421083902672715"><ele>439.8</ele><time>2026-04-30T14:19:26Z</time></trkpt><trkpt lat="44.3037300135198" lon="11.420934944295976"><ele>436.0</ele><time>2026-04-30T14:19:28Z</time></trkpt><trkpt lat="44.30373749533156" lon="11.420834032122979"><ele>435.50000000000006</ele><time>2026-04-30T14:19:29Z</time></trkpt><trkpt lat="44.30377355558261" lon="11.420720926932571"><ele>435.0</ele><time>2026-04-30T14:19:30Z</time></trkpt><trkpt lat="44.30380718210595" lon="11.420597689948643"><ele>434.5</ele><time>2026-04-30T14:19:31Z</time></trkpt><trkpt lat="44.303839735127745" lon="11.42049452418984"><ele>434.0</ele><time>2026-04-30T14:19:32Z</time></trkpt><trkpt lat="44.30388895742096" lon="11.42041134100725"><ele>433.50000000000006</ele><time>2026-04-30T14:19:33Z</time></trkpt><trkpt lat="44.30395080617374" lon="11.420348763643652"><ele>433.0</ele><time>2026-04-30T14:19:34Z</time></trkpt><trkpt lat="44.304017312566785" lon="11.42030339711643"><ele>432.00000000000006</ele><time>2026-04-30T14:19:35Z</time></trkpt><trkpt lat="44.304088933739784" lon="11.420267591477412"><ele>431.0</ele><time>2026-04-30T14:19:36Z</time></trkpt><trkpt lat="44.3041583677418" lon="11.42022673872461"><ele>430.0</ele><time>2026-04-30T14:19:37Z</time></trkpt><trkpt lat="44.30421112728591" lon="11.42013286547234"><ele>429.0</ele><time>2026-04-30T14:19:38Z</time></trkpt><trkpt lat="44.30423714852522" lon="11.420004916730166"><ele>428.00000000000006</ele><time>2026-04-30T14:19:39Z</time></trkpt><trkpt lat="44.30426617493691" lon="11.41987362234535"><ele>427.0</ele><time>2026-04-30T14:19:40Z</time></trkpt><trkpt lat="44.30430228289341" lon="11.419764920707536"><ele>427.00000000000006</ele><time>2026-04-30T14:19:41Z</time></trkpt><trkpt lat="44.304355316114204" lon="11.41967679361624"><ele>427.0</ele><time>2026-04-30T14:19:42Z</time></trkpt><trkpt lat="44.30442199162527" lon="11.419596030101923"><ele>427.0</ele><time>2026-04-30T14:19:43Z</time></trkpt><trkpt lat="44.304479246687" lon="11.419496582059871"><ele>427.0</ele><time>2026-04-30T14:19:44Z</time></trkpt><trkpt lat="44.30452059886289" lon="11.419380810212163"><ele>427.00000000000006</ele><time>2026-04-30T14:19:45Z</time></trkpt><trkpt lat="44.3045517774755" lon="11.419266694391633"><ele>427.0</ele><time>2026-04-30T14:19:46Z</time></trkpt><trkpt lat="44.30457146670417" lon="11.41916959510197"><ele>425.50000000000006</ele><time>2026-04-30T14:19:47Z</time></trkpt><trkpt lat="44.30459355863957" lon="11.419074710771822"><ele>424.0</ele><time>2026-04-30T14:19:48Z</time></trkpt><trkpt lat="44.30462444536084" lon="11.418983623924593"><ele>422.5</ele><time>2026-04-30T14:19:49Z</time></trkpt><trkpt lat="44.30464161314836" lon="11.418876923906792"><ele>421.0</ele><time>2026-04-30T14:19:50Z</time></trkpt><trkpt lat="44.30464881061914" lon="11.4187514914375"><ele>419.50000000000006</ele><time>2026-04-30T14:19:51Z</time></trkpt><trkpt lat="44.30465394016782" lon="11.41860724469925"><ele>418.0</ele><time>2026-04-30T14:19:52Z</time></trkpt><trkpt lat="44.30464917777088" lon="11.418455656862399"><ele>415.4</ele><time>2026-04-30T14:19:53Z</time></trkpt><trkpt lat="44.30464455861001" lon="11.418312483075514"><ele>412.79999999999995</ele><time>2026-04-30T14:19:54Z</time></trkpt><trkpt lat="44.304641420678585" lon="11.418162414628647"><ele>410.2</ele><time>2026-04-30T14:19:55Z</time></trkpt><trkpt lat="44.304633390024726" lon="11.418028298366865"><ele>407.6</ele><time>2026-04-30T14:19:56Z</time></trkpt><trkpt lat="44.30462201942539" lon="11.417901749040796"><ele>405.0</ele><time>2026-04-30T14:19:57Z</time></trkpt><trkpt lat="44.30460528432643" lon="11.417770294099673"><ele>405.0</ele><time>2026-04-30T14:19:58Z</time></trkpt><trkpt lat="44.30458329289713" lon="11.41763553696588"><ele>405.0</ele><time>2026-04-30T14:19:59Z</time></trkpt><trkpt lat="44.304563117938756" lon="11.417507842689398"><ele>405.0</ele><time>2026-04-30T14:20:00Z</time></trkpt><trkpt lat="44.30454276855436" lon="11.417393238572696"><ele>405.0</ele><time>2026-04-30T14:20:01Z</time></trkpt><trkpt lat="44.30453331696661" lon="11.417268181018134"><ele>405.0</ele><time>2026-04-30T14:20:02Z</time></trkpt><trkpt lat="44.30451694686474" lon="11.417139116813162"><ele>406.0</ele><time>2026-04-30T14:20:03Z</time></trkpt><trkpt lat="44.304495199294486" lon="11.416993908619542"><ele>407.0</ele><time>2026-04-30T14:20:04Z</time></trkpt><trkpt lat="44.304452078574215" lon="11.416859659132736"><ele>408.0</ele><time>2026-04-30T14:20:05Z</time></trkpt><trkpt lat="44.304386054888845" lon="11.4167521882793"><ele>409.0</ele><time>2026-04-30T14:20:06Z</time></trkpt><trkpt lat="44.30431495491282" lon="11.416678278356756"><ele>410.0</ele><time>2026-04-30T14:20:07Z</time></trkpt><trkpt lat="44.30423240837714" lon="11.416600362687184"><ele>409.99999999999994</ele><time>2026-04-30T14:20:08Z</time></trkpt><trkpt lat="44.30414766651934" lon="11.416516468633128"><ele>410.0</ele><time>2026-04-30T14:20:09Z</time></trkpt><trkpt lat="44.30407064183842" lon="11.416449711165283"><ele>410.0</ele><time>2026-04-30T14:20:10Z</time></trkpt><trkpt lat="44.30399830141264" lon="11.416384494411897"><ele>410.0</ele><time>2026-04-30T14:20:11Z</time></trkpt><trkpt lat="44.303947455391004" lon="11.416309175751685"><ele>409.99999999999994</ele><time>2026-04-30T14:20:12Z</time></trkpt><trkpt lat="44.30391530600992" lon="11.4162252782406"><ele>410.0</ele><time>2026-04-30T14:20:13Z</time></trkpt><trkpt lat="44.30387355088822" lon="11.416141070681277"><ele>409.66666666666663</ele><time>2026-04-30T14:20:14Z</time></trkpt><trkpt lat="44.303826124581654" lon="11.416053802001255"><ele>409.3333333333333</ele><time>2026-04-30T14:20:15Z</time></trkpt><trkpt lat="44.30379709612825" lon="11.415963486768694"><ele>409.0</ele><time>2026-04-30T14:20:16Z</time></trkpt><trkpt lat="44.30382203550719" lon="11.415873872956471"><ele>408.66666666666663</ele><time>2026-04-30T14:20:17Z</time></trkpt><trkpt lat="44.30387840313302" lon="11.41577020778511"><ele>408.3333333333333</ele><time>2026-04-30T14:20:18Z</time></trkpt><trkpt lat="44.30392430922641" lon="11.415682259459965"><ele>408.0</ele><time>2026-04-30T14:20:19Z</time></trkpt><trkpt lat="44.30392794845115" lon="11.415517321454507"><ele>408.0</ele><time>2026-04-30T14:20:21Z</time></trkpt><trkpt lat="44.30390384767454" lon="11.415385229997167"><ele>408.0</ele><time>2026-04-30T14:20:22Z</time></trkpt><trkpt lat="44.303873202639686" lon="11.415277511516466"><ele>408.0</ele><time>2026-04-30T14:20:23Z</time></trkpt><trkpt lat="44.30385430499124" lon="11.415178544227187"><ele>408.0</ele><time>2026-04-30T14:20:24Z</time></trkpt><trkpt lat="44.303850274823034" lon="11.415020806629949"><ele>408.0</ele><time>2026-04-30T14:20:26Z</time></trkpt><trkpt lat="44.30387917435084" lon="11.414922908839761"><ele>408.0</ele><time>2026-04-30T14:20:27Z</time></trkpt><trkpt lat="44.30392143684107" lon="11.414834788079599"><ele>409.79999999999995</ele><time>2026-04-30T14:20:28Z</time></trkpt><trkpt lat="44.30399388955727" lon="11.414752849392638"><ele>411.6</ele><time>2026-04-30T14:20:29Z</time></trkpt><trkpt lat="44.30409150362913" lon="11.414671858166184"><ele>413.4</ele><time>2026-04-30T14:20:30Z</time></trkpt><trkpt lat="44.30420417892933" lon="11.414577630227502"><ele>415.20000000000005</ele><time>2026-04-30T14:20:31Z</time></trkpt><trkpt lat="44.304285731840345" lon="11.414485067854425"><ele>417.0</ele><time>2026-04-30T14:20:32Z</time></trkpt><trkpt lat="44.30435824385277" lon="11.414397833380484"><ele>417.66666666666663</ele><time>2026-04-30T14:20:33Z</time></trkpt><trkpt lat="44.304449733022736" lon="11.414283497803398"><ele>418.3333333333333</ele><time>2026-04-30T14:20:34Z</time></trkpt><trkpt lat="44.30458247094125" lon="11.414109783216157"><ele>419.0</ele><time>2026-04-30T14:20:35Z</time></trkpt><trkpt lat="44.304692537130016" lon="11.4139624852519"><ele>419.0</ele><time>2026-04-30T14:20:36Z</time></trkpt><trkpt lat="44.304772288703944" lon="11.413850288820381"><ele>419.0</ele><time>2026-04-30T14:20:37Z</time></trkpt><trkpt lat="44.3048485997149" lon="11.41373040242704"><ele>419.0</ele><time>2026-04-30T14:20:38Z</time></trkpt><trkpt lat="44.304912739844376" lon="11.413601117977219"><ele>419.0</ele><time>2026-04-30T14:20:39Z</time></trkpt><trkpt lat="44.30495909686638" lon="11.413479001529636"><ele>419.0</ele><time>2026-04-30T14:20:40Z</time></trkpt><trkpt lat="44.30502153503995" lon="11.41335612551599"><ele>419.0</ele><time>2026-04-30T14:20:41Z</time></trkpt><trkpt lat="44.30510954339343" lon="11.413212455541572"><ele>419.0</ele><time>2026-04-30T14:20:42Z</time></trkpt><trkpt lat="44.30518036524016" lon="11.413080339823484"><ele>419.0</ele><time>2026-04-30T14:20:43Z</time></trkpt><trkpt lat="44.30525684907021" lon="11.412943762978863"><ele>419.0</ele><time>2026-04-30T14:20:44Z</time></trkpt><trkpt lat="44.305332216611056" lon="11.412814369440124"><ele>417.79999999999995</ele><time>2026-04-30T14:20:45Z</time></trkpt><trkpt lat="44.30538853190968" lon="11.412720188611368"><ele>416.59999999999997</ele><time>2026-04-30T14:20:46Z</time></trkpt><trkpt lat="44.3054458955271" lon="11.412571557300781"><ele>415.4</ele><time>2026-04-30T14:20:48Z</time></trkpt><trkpt lat="44.30548925221621" lon="11.412433682062943"><ele>414.2</ele><time>2026-04-30T14:20:50Z</time></trkpt><trkpt lat="44.30552032531855" lon="11.412329136335998"><ele>413.0</ele><time>2026-04-30T14:20:52Z</time></trkpt><trkpt lat="44.30552318128966" lon="11.412233737437731"><ele>412.4</ele><time>2026-04-30T14:20:54Z</time></trkpt><trkpt lat="44.30554110430101" lon="11.412129950753965"><ele>411.79999999999995</ele><time>2026-04-30T14:20:57Z</time></trkpt><trkpt lat="44.305552047630734" lon="11.412015431894577"><ele>411.2</ele><time>2026-04-30T14:20:59Z</time></trkpt><trkpt lat="44.305562634786185" lon="11.411863149625649"><ele>410.6</ele><time>2026-04-30T14:21:01Z</time></trkpt><trkpt lat="44.30560180723874" lon="11.411658507573007"><ele>410.0</ele><time>2026-04-30T14:21:03Z</time></trkpt><trkpt lat="44.30561874607307" lon="11.411509153421646"><ele>412.2</ele><time>2026-04-30T14:21:04Z</time></trkpt><trkpt lat="44.305635896673664" lon="11.411331474912043"><ele>414.4</ele><time>2026-04-30T14:21:05Z</time></trkpt><trkpt lat="44.30565953786525" lon="11.41115996269356"><ele>416.6</ele><time>2026-04-30T14:21:06Z</time></trkpt><trkpt lat="44.30569612854548" lon="11.411018561021743"><ele>418.8</ele><time>2026-04-30T14:21:07Z</time></trkpt><trkpt lat="44.305707305518844" lon="11.410897885118361"><ele>421.0</ele><time>2026-04-30T14:21:08Z</time></trkpt><trkpt lat="44.305706020445314" lon="11.41078649378816"><ele>422.50000000000006</ele><time>2026-04-30T14:21:09Z</time></trkpt><trkpt lat="44.30566327158675" lon="11.410686622720085"><ele>424.0</ele><time>2026-04-30T14:21:10Z</time></trkpt><trkpt lat="44.305605403845504" lon="11.410587868742976"><ele>425.5</ele><time>2026-04-30T14:21:11Z</time></trkpt><trkpt lat="44.30554364131548" lon="11.410468361133844"><ele>427.0</ele><time>2026-04-30T14:21:12Z</time></trkpt><trkpt lat="44.30549023723689" lon="11.410370814371197"><ele>428.50000000000006</ele><time>2026-04-30T14:21:13Z</time></trkpt><trkpt lat="44.305456318022316" lon="11.410286181339787"><ele>430.0</ele><time>2026-04-30T14:21:14Z</time></trkpt><trkpt lat="44.3054540289904" lon="11.410181068076344"><ele>430.0</ele><time>2026-04-30T14:21:15Z</time></trkpt><trkpt lat="44.305440775579484" lon="11.41002717299634"><ele>430.0</ele><time>2026-04-30T14:21:16Z</time></trkpt><trkpt lat="44.30541221226821" lon="11.409888808073736"><ele>430.0</ele><time>2026-04-30T14:21:17Z</time></trkpt><trkpt lat="44.30540995971595" lon="11.409756442868316"><ele>430.0</ele><time>2026-04-30T14:21:19Z</time></trkpt><trkpt lat="44.30551495256075" lon="11.409785411449755"><ele>430.0</ele><time>2026-04-30T14:21:21Z</time></trkpt><trkpt lat="44.305595476140404" lon="11.40982034817497"><ele>430.00000000000006</ele><time>2026-04-30T14:21:22Z</time></trkpt><trkpt lat="44.30566764449601" lon="11.40981195608298"><ele>430.0</ele><time>2026-04-30T14:21:23Z</time></trkpt><trkpt lat="44.30573176190752" lon="11.409768944787048"><ele>430.0</ele><time>2026-04-30T14:21:24Z</time></trkpt><trkpt lat="44.305786967850665" lon="11.409695283737376"><ele>430.0</ele><time>2026-04-30T14:21:25Z</time></trkpt><trkpt lat="44.30584478234677" lon="11.409609363728647"><ele>430.00000000000006</ele><time>2026-04-30T14:21:26Z</time></trkpt><trkpt lat="44.3059005706638" lon="11.40951719772366"><ele>430.0</ele><time>2026-04-30T14:21:27Z</time></trkpt><trkpt lat="44.305936632782576" lon="11.409425798322168"><ele>427.0</ele><time>2026-04-30T14:21:28Z</time></trkpt><trkpt lat="44.305962972925954" lon="11.409325299784271"><ele>424.0</ele><time>2026-04-30T14:21:29Z</time></trkpt><trkpt lat="44.30599747649775" lon="11.4092384539963"><ele>421.0</ele><time>2026-04-30T14:21:30Z</time></trkpt><trkpt lat="44.306040448463335" lon="11.409159650079339"><ele>418.0</ele><time>2026-04-30T14:21:31Z</time></trkpt><trkpt lat="44.30609391884157" lon="11.409074465191843"><ele>415.0</ele><time>2026-04-30T14:21:32Z</time></trkpt><trkpt lat="44.306132322699796" lon="11.409001245437285"><ele>412.0</ele><time>2026-04-30T14:21:33Z</time></trkpt><trkpt lat="44.306155026480894" lon="11.408913394109163"><ele>409.0</ele><time>2026-04-30T14:21:34Z</time></trkpt><trkpt lat="44.30614012236644" lon="11.408796037808358"><ele>405.1666666666667</ele><time>2026-04-30T14:21:35Z</time></trkpt><trkpt lat="44.306133842323504" lon="11.40867674318226"><ele>401.33333333333337</ele><time>2026-04-30T14:21:36Z</time></trkpt><trkpt lat="44.30611623693499" lon="11.408559838697636"><ele>397.5</ele><time>2026-04-30T14:21:37Z</time></trkpt><trkpt lat="44.30612161520079" lon="11.408449445041382"><ele>393.66666666666663</ele><time>2026-04-30T14:21:38Z</time></trkpt><trkpt lat="44.30612712421573" lon="11.40834403629968"><ele>389.8333333333333</ele><time>2026-04-30T14:21:39Z</time></trkpt><trkpt lat="44.306130892973556" lon="11.408233397285215"><ele>386.0</ele><time>2026-04-30T14:21:40Z</time></trkpt><trkpt lat="44.30614004249166" lon="11.408131126511343"><ele>385.99999999999994</ele><time>2026-04-30T14:21:41Z</time></trkpt><trkpt lat="44.306163166204264" lon="11.408041081768415"><ele>386.0</ele><time>2026-04-30T14:21:42Z</time></trkpt><trkpt lat="44.306180176043334" lon="11.407954078813352"><ele>386.0</ele><time>2026-04-30T14:21:43Z</time></trkpt><trkpt lat="44.30623267949661" lon="11.407835574095651"><ele>386.0</ele><time>2026-04-30T14:21:45Z</time></trkpt><trkpt lat="44.306288967113474" lon="11.407779700552892"><ele>385.99999999999994</ele><time>2026-04-30T14:21:46Z</time></trkpt><trkpt lat="44.30634753272859" lon="11.407708573906293"><ele>386.0</ele><time>2026-04-30T14:21:48Z</time></trkpt><trkpt lat="44.306436751528054" lon="11.407659955767121"><ele>387.0</ele><time>2026-04-30T14:21:50Z</time></trkpt><trkpt lat="44.30651044680384" lon="11.407528735363952"><ele>388.0</ele><time>2026-04-30T14:21:52Z</time></trkpt><trkpt lat="44.30658099654362" lon="11.407382358799142"><ele>389.0</ele><time>2026-04-30T14:21:54Z</time></trkpt><trkpt lat="44.306644926332154" lon="11.407284463666864"><ele>390.0</ele><time>2026-04-30T14:21:55Z</time></trkpt><trkpt lat="44.30669127129003" lon="11.407179339450751"><ele>391.0</ele><time>2026-04-30T14:21:56Z</time></trkpt><trkpt lat="44.306749920048745" lon="11.407079202719851"><ele>388.83333333333337</ele><time>2026-04-30T14:21:57Z</time></trkpt><trkpt lat="44.306796222882966" lon="11.406987130606959"><ele>386.6666666666667</ele><time>2026-04-30T14:21:58Z</time></trkpt><trkpt lat="44.306847920866275" lon="11.40690636288501"><ele>384.5</ele><time>2026-04-30T14:21:59Z</time></trkpt><trkpt lat="44.30690923594353" lon="11.406843171687758"><ele>382.33333333333337</ele><time>2026-04-30T14:22:00Z</time></trkpt><trkpt lat="44.30697141777155" lon="11.406767388811044"><ele>380.1666666666667</ele><time>2026-04-30T14:22:01Z</time></trkpt><trkpt lat="44.30703720758211" lon="11.406697671452307"><ele>378.0</ele><time>2026-04-30T14:22:02Z</time></trkpt><trkpt lat="44.307107648768785" lon="11.406634315738474"><ele>378.0</ele><time>2026-04-30T14:22:03Z</time></trkpt><trkpt lat="44.30718543338988" lon="11.406569860694653"><ele>378.0</ele><time>2026-04-30T14:22:04Z</time></trkpt><trkpt lat="44.307247972530426" lon="11.406507267945017"><ele>378.0</ele><time>2026-04-30T14:22:05Z</time></trkpt><trkpt lat="44.307304293134244" lon="11.406429249235162"><ele>378.0</ele><time>2026-04-30T14:22:06Z</time></trkpt><trkpt lat="44.30733691961379" lon="11.406338581496668"><ele>378.0</ele><time>2026-04-30T14:22:07Z</time></trkpt><trkpt lat="44.30734467973201" lon="11.406242820468377"><ele>378.0</ele><time>2026-04-30T14:22:08Z</time></trkpt><trkpt lat="44.30738781677861" lon="11.406072020834202"><ele>378.0</ele><time>2026-04-30T14:22:10Z</time></trkpt><trkpt lat="44.30743844795351" lon="11.40591050162289"><ele>378.0</ele><time>2026-04-30T14:22:12Z</time></trkpt><trkpt lat="44.307474809287235" lon="11.4058209799318"><ele>378.0</ele><time>2026-04-30T14:22:13Z</time></trkpt><trkpt lat="44.307521757833975" lon="11.405729534296006"><ele>378.0</ele><time>2026-04-30T14:22:14Z</time></trkpt><trkpt lat="44.30759582693893" lon="11.405650769586666"><ele>378.0</ele><time>2026-04-30T14:22:15Z</time></trkpt><trkpt lat="44.30769213346856" lon="11.405577684630302"><ele>378.0</ele><time>2026-04-30T14:22:16Z</time></trkpt><trkpt lat="44.307770217332184" lon="11.405519716810902"><ele>378.0</ele><time>2026-04-30T14:22:17Z</time></trkpt><trkpt lat="44.30784984331389" lon="11.405454206063801"><ele>378.0</ele><time>2026-04-30T14:22:18Z</time></trkpt><trkpt lat="44.307913093282835" lon="11.405390697834576"><ele>378.0</ele><time>2026-04-30T14:22:19Z</time></trkpt><trkpt lat="44.30796878077064" lon="11.405281464729654"><ele>378.0</ele><time>2026-04-30T14:22:21Z</time></trkpt><trkpt lat="44.30802760952622" lon="11.40520208562405"><ele>378.0</ele><time>2026-04-30T14:22:34Z</time></trkpt><trkpt lat="44.308089169084695" lon="11.405077791625986"><ele>375.2</ele><time>2026-04-30T14:22:36Z</time></trkpt><trkpt lat="44.308127309268926" lon="11.404923728660743"><ele>372.4</ele><time>2026-04-30T14:22:38Z</time></trkpt><trkpt lat="44.30816703161677" lon="11.404829015407888"><ele>369.59999999999997</ele><time>2026-04-30T14:22:40Z</time></trkpt><trkpt lat="44.30818726995555" lon="11.404665374607845"><ele>366.79999999999995</ele><time>2026-04-30T14:22:42Z</time></trkpt><trkpt lat="44.308245375348875" lon="11.404499798693074"><ele>364.0</ele><time>2026-04-30T14:22:44Z</time></trkpt><trkpt lat="44.30831614361968" lon="11.404426882158884"><ele>362.66666666666663</ele><time>2026-04-30T14:22:45Z</time></trkpt><trkpt lat="44.30836866091429" lon="11.404374220042097"><ele>361.3333333333333</ele><time>2026-04-30T14:22:46Z</time></trkpt><trkpt lat="44.308297126937106" lon="11.40422871846129"><ele>360.0</ele><time>2026-04-30T14:22:48Z</time></trkpt><trkpt lat="44.308247200319855" lon="11.404168553422368"><ele>358.6666666666667</ele><time>2026-04-30T14:22:49Z</time></trkpt><trkpt lat="44.30820358599784" lon="11.404104928341566"><ele>357.33333333333337</ele><time>2026-04-30T14:22:50Z</time></trkpt><trkpt lat="44.308146653102476" lon="11.404001861885435"><ele>356.0</ele><time>2026-04-30T14:22:52Z</time></trkpt><trkpt lat="44.30809442044542" lon="11.403902065967717"><ele>353.6666666666667</ele><time>2026-04-30T14:22:53Z</time></trkpt><trkpt lat="44.308046575467046" lon="11.403810653014135"><ele>351.33333333333337</ele><time>2026-04-30T14:22:54Z</time></trkpt><trkpt lat="44.3080106255812" lon="11.403734506362401"><ele>349.0</ele><time>2026-04-30T14:22:55Z</time></trkpt><trkpt lat="44.307959521675365" lon="11.403658505468771"><ele>346.6666666666667</ele><time>2026-04-30T14:22:56Z</time></trkpt><trkpt lat="44.30792645779177" lon="11.403555506000593"><ele>344.3333333333333</ele><time>2026-04-30T14:22:57Z</time></trkpt><trkpt lat="44.30790165204531" lon="11.403466577823265"><ele>342.0</ele><time>2026-04-30T14:22:58Z</time></trkpt><trkpt lat="44.307859498126696" lon="11.403322937503166"><ele>342.0</ele><time>2026-04-30T14:23:00Z</time></trkpt><trkpt lat="44.30781212299351" lon="11.403264850303517"><ele>342.0</ele><time>2026-04-30T14:23:02Z</time></trkpt><trkpt lat="44.30779611895823" lon="11.403157417855246"><ele>342.0</ele><time>2026-04-30T14:23:04Z</time></trkpt><trkpt lat="44.3078293992306" lon="11.403063460159307"><ele>342.0</ele><time>2026-04-30T14:23:06Z</time></trkpt><trkpt lat="44.307973425094026" lon="11.403069297300352"><ele>342.0</ele><time>2026-04-30T14:23:09Z</time></trkpt><trkpt lat="44.30804482702987" lon="11.403078141387065"><ele>342.0</ele><time>2026-04-30T14:23:10Z</time></trkpt><trkpt lat="44.30812386205796" lon="11.40307899841547"><ele>340.20000000000005</ele><time>2026-04-30T14:23:11Z</time></trkpt><trkpt lat="44.30821168047695" lon="11.403074100339186"><ele>338.4</ele><time>2026-04-30T14:23:12Z</time></trkpt><trkpt lat="44.30830196906948" lon="11.40305516818975"><ele>336.6</ele><time>2026-04-30T14:23:13Z</time></trkpt><trkpt lat="44.308398918886205" lon="11.403063834416605"><ele>334.79999999999995</ele><time>2026-04-30T14:23:14Z</time></trkpt><trkpt lat="44.30849602700572" lon="11.403029765039717"><ele>333.0</ele><time>2026-04-30T14:23:15Z</time></trkpt><trkpt lat="44.30860005592765" lon="11.403022190500863"><ele>333.0</ele><time>2026-04-30T14:23:16Z</time></trkpt><trkpt lat="44.30870843688025" lon="11.403009014360983"><ele>333.0</ele><time>2026-04-30T14:23:17Z</time></trkpt><trkpt lat="44.30881151173747" lon="11.402985113203558"><ele>333.0</ele><time>2026-04-30T14:23:18Z</time></trkpt><trkpt lat="44.3089242941398" lon="11.402958966747482"><ele>333.0</ele><time>2026-04-30T14:23:19Z</time></trkpt><trkpt lat="44.30903648766483" lon="11.402962535006381"><ele>333.0</ele><time>2026-04-30T14:23:20Z</time></trkpt><trkpt lat="44.30911864440225" lon="11.4029009215584"><ele>327.6666666666667</ele><time>2026-04-30T14:23:21Z</time></trkpt><trkpt lat="44.309192613994654" lon="11.402866146790533"><ele>322.3333333333333</ele><time>2026-04-30T14:23:22Z</time></trkpt><trkpt lat="44.30923684534053" lon="11.402792222233925"><ele>317.0</ele><time>2026-04-30T14:23:23Z</time></trkpt><trkpt lat="44.30925754847956" lon="11.402707917236517"><ele>311.66666666666663</ele><time>2026-04-30T14:23:24Z</time></trkpt><trkpt lat="44.3091897517266" lon="11.402541131733571"><ele>306.3333333333333</ele><time>2026-04-30T14:23:26Z</time></trkpt><trkpt lat="44.30911810706924" lon="11.402486670599128"><ele>301.0</ele><time>2026-04-30T14:23:27Z</time></trkpt><trkpt lat="44.30900394861837" lon="11.402461016921698"><ele>302.8</ele><time>2026-04-30T14:23:28Z</time></trkpt><trkpt lat="44.30890038698225" lon="11.402477708944373"><ele>304.6</ele><time>2026-04-30T14:23:29Z</time></trkpt><trkpt lat="44.30879912715231" lon="11.40246360735694"><ele>306.4</ele><time>2026-04-30T14:23:30Z</time></trkpt><trkpt lat="44.308708495496326" lon="11.402413594906335"><ele>308.2</ele><time>2026-04-30T14:23:31Z</time></trkpt><trkpt lat="44.308626429202" lon="11.40233276818236"><ele>310.0</ele><time>2026-04-30T14:23:32Z</time></trkpt><trkpt lat="44.30855571171185" lon="11.402224925043349"><ele>306.0</ele><time>2026-04-30T14:23:33Z</time></trkpt><trkpt lat="44.30848516894326" lon="11.402121738529596"><ele>302.0</ele><time>2026-04-30T14:23:34Z</time></trkpt><trkpt lat="44.308405603152785" lon="11.402032315662655"><ele>298.0</ele><time>2026-04-30T14:23:35Z</time></trkpt><trkpt lat="44.30834202042843" lon="11.401948728987401"><ele>294.0</ele><time>2026-04-30T14:23:36Z</time></trkpt><trkpt lat="44.30829372952079" lon="11.401844921074117"><ele>290.0</ele><time>2026-04-30T14:23:37Z</time></trkpt><trkpt lat="44.308259949474596" lon="11.40173508975201"><ele>290.0</ele><time>2026-04-30T14:23:38Z</time></trkpt><trkpt lat="44.308241997990685" lon="11.40161478842839"><ele>290.0</ele><time>2026-04-30T14:23:39Z</time></trkpt><trkpt lat="44.30822220698553" lon="11.401489788519001"><ele>290.0</ele><time>2026-04-30T14:23:40Z</time></trkpt><trkpt lat="44.308176174363766" lon="11.401361805339684"><ele>290.0</ele><time>2026-04-30T14:23:41Z</time></trkpt><trkpt lat="44.30811566547968" lon="11.401235839622045"><ele>290.0</ele><time>2026-04-30T14:23:42Z</time></trkpt><trkpt lat="44.30805058597807" lon="11.401117447833224"><ele>287.75</ele><time>2026-04-30T14:23:43Z</time></trkpt><trkpt lat="44.307968709537235" lon="11.401005492658593"><ele>285.5</ele><time>2026-04-30T14:23:44Z</time></trkpt><trkpt lat="44.307886189962716" lon="11.400887880174928"><ele>283.25</ele><time>2026-04-30T14:23:45Z</time></trkpt><trkpt lat="44.307807643232216" lon="11.400765073493883"><ele>281.0</ele><time>2026-04-30T14:23:46Z</time></trkpt><trkpt lat="44.30771676532961" lon="11.4006381361985"><ele>281.0</ele><time>2026-04-30T14:23:47Z</time></trkpt><trkpt lat="44.30763651005048" lon="11.40051481446974"><ele>281.0</ele><time>2026-04-30T14:23:48Z</time></trkpt><trkpt lat="44.30753264698751" lon="11.400416278259067"><ele>281.0</ele><time>2026-04-30T14:23:49Z</time></trkpt><trkpt lat="44.30742895087505" lon="11.400348355027205"><ele>281.0</ele><time>2026-04-30T14:23:50Z</time></trkpt><trkpt lat="44.30731426125911" lon="11.400286768536033"><ele>277.25</ele><time>2026-04-30T14:23:51Z</time></trkpt><trkpt lat="44.30719152282179" lon="11.40022532032106"><ele>273.5</ele><time>2026-04-30T14:23:52Z</time></trkpt><trkpt lat="44.30707196323654" lon="11.400165080633931"><ele>269.75</ele><time>2026-04-30T14:23:53Z</time></trkpt><trkpt lat="44.30694940903768" lon="11.400100892556194"><ele>266.0</ele><time>2026-04-30T14:23:54Z</time></trkpt><trkpt lat="44.306829219186106" lon="11.400026927943497"><ele>266.0</ele><time>2026-04-30T14:23:55Z</time></trkpt><trkpt lat="44.306726706995335" lon="11.39994464964024"><ele>266.0</ele><time>2026-04-30T14:23:56Z</time></trkpt><trkpt lat="44.30664738425251" lon="11.399846280913478"><ele>266.0</ele><time>2026-04-30T14:23:57Z</time></trkpt><trkpt lat="44.30658072092711" lon="11.399717074778465"><ele>266.0</ele><time>2026-04-30T14:23:58Z</time></trkpt><trkpt lat="44.306523455852094" lon="11.399570005123204"><ele>259.75</ele><time>2026-04-30T14:23:59Z</time></trkpt><trkpt lat="44.306470766416226" lon="11.399425143643821"><ele>253.5</ele><time>2026-04-30T14:24:00Z</time></trkpt><trkpt lat="44.306389400764346" lon="11.399319635555614"><ele>247.25</ele><time>2026-04-30T14:24:01Z</time></trkpt><trkpt lat="44.30628786131271" lon="11.399259780343193"><ele>241.0</ele><time>2026-04-30T14:24:02Z</time></trkpt><trkpt lat="44.30617031180554" lon="11.399222095093336"><ele>241.0</ele><time>2026-04-30T14:24:03Z</time></trkpt><trkpt lat="44.30605621156634" lon="11.399172576935422"><ele>241.00000000000003</ele><time>2026-04-30T14:24:04Z</time></trkpt><trkpt lat="44.305939750950614" lon="11.399143705429168"><ele>241.00000000000003</ele><time>2026-04-30T14:24:05Z</time></trkpt><trkpt lat="44.30584248878424" lon="11.399158433118561"><ele>241.0</ele><time>2026-04-30T14:24:06Z</time></trkpt><trkpt lat="44.30575289105139" lon="11.399206812143003"><ele>241.0</ele><time>2026-04-30T14:24:07Z</time></trkpt><trkpt lat="44.30567154821458" lon="11.399278465800448"><ele>241.0</ele><time>2026-04-30T14:24:08Z</time></trkpt><trkpt lat="44.30559260898263" lon="11.39935341445544"><ele>241.00000000000003</ele><time>2026-04-30T14:24:09Z</time></trkpt><trkpt lat="44.305505555701046" lon="11.399400270185494"><ele>241.00000000000003</ele><time>2026-04-30T14:24:10Z</time></trkpt><trkpt lat="44.30541675697108" lon="11.399430576912282"><ele>241.0</ele><time>2026-04-30T14:24:11Z</time></trkpt><trkpt lat="44.30533107830809" lon="11.399436158257958"><ele>241.0</ele><time>2026-04-30T14:24:12Z</time></trkpt><trkpt lat="44.30524020146391" lon="11.39937152046104"><ele>239.4</ele><time>2026-04-30T14:24:14Z</time></trkpt><trkpt lat="44.305232083127606" lon="11.399224259107221"><ele>237.8</ele><time>2026-04-30T14:24:16Z</time></trkpt><trkpt lat="44.305242726847105" lon="11.39908684174794"><ele>236.20000000000002</ele><time>2026-04-30T14:24:18Z</time></trkpt><trkpt lat="44.305292790523616" lon="11.398991929126007"><ele>234.60000000000002</ele><time>2026-04-30T14:24:20Z</time></trkpt><trkpt lat="44.305422212476614" lon="11.39895877428481"><ele>233.0</ele><time>2026-04-30T14:24:22Z</time></trkpt><trkpt lat="44.30549401731486" lon="11.39894407202127"><ele>233.00000000000003</ele><time>2026-04-30T14:24:23Z</time></trkpt><trkpt lat="44.305567022737684" lon="11.398941360198702"><ele>233.0</ele><time>2026-04-30T14:24:24Z</time></trkpt><trkpt lat="44.30565949776752" lon="11.398942587372987"><ele>233.0</ele><time>2026-04-30T14:24:25Z</time></trkpt><trkpt lat="44.30575699360978" lon="11.398935667776824"><ele>233.0</ele><time>2026-04-30T14:24:26Z</time></trkpt><trkpt lat="44.305833241205086" lon="11.398905269352614"><ele>233.00000000000003</ele><time>2026-04-30T14:24:27Z</time></trkpt><trkpt lat="44.30590272491347" lon="11.398900345803442"><ele>233.0</ele><time>2026-04-30T14:24:28Z</time></trkpt><trkpt lat="44.30599646513042" lon="11.398893806198751"><ele>235.0</ele><time>2026-04-30T14:24:29Z</time></trkpt><trkpt lat="44.3061055417579" lon="11.398873232862876"><ele>237.0</ele><time>2026-04-30T14:24:30Z</time></trkpt><trkpt lat="44.306228441111905" lon="11.398862698999464"><ele>239.0</ele><time>2026-04-30T14:24:31Z</time></trkpt><trkpt lat="44.306368970404925" lon="11.398866138074364"><ele>241.0</ele><time>2026-04-30T14:24:32Z</time></trkpt><trkpt lat="44.30651568566003" lon="11.398881429317475"><ele>241.0</ele><time>2026-04-30T14:24:33Z</time></trkpt><trkpt lat="44.30666798440398" lon="11.398903257588664"><ele>241.0</ele><time>2026-04-30T14:24:34Z</time></trkpt><trkpt lat="44.30682131643802" lon="11.398928525745962"><ele>241.0</ele><time>2026-04-30T14:24:35Z</time></trkpt><trkpt lat="44.30698625263265" lon="11.398959336793821"><ele>241.0</ele><time>2026-04-30T14:24:36Z</time></trkpt><trkpt lat="44.30715619004471" lon="11.398991381980183"><ele>241.0</ele><time>2026-04-30T14:24:37Z</time></trkpt><trkpt lat="44.307319235607395" lon="11.399009297389764"><ele>241.0</ele><time>2026-04-30T14:24:38Z</time></trkpt><trkpt lat="44.307474963862425" lon="11.399009063552464"><ele>240.33333333333331</ele><time>2026-04-30T14:24:39Z</time></trkpt><trkpt lat="44.3076353313947" lon="11.399013481795349"><ele>239.66666666666669</ele><time>2026-04-30T14:24:40Z</time></trkpt><trkpt lat="44.307790256090044" lon="11.399027281716057"><ele>239.0</ele><time>2026-04-30T14:24:41Z</time></trkpt><trkpt lat="44.30794886293096" lon="11.39903793738082"><ele>237.0</ele><time>2026-04-30T14:24:42Z</time></trkpt><trkpt lat="44.308109043476165" lon="11.399059953005146"><ele>235.0</ele><time>2026-04-30T14:24:43Z</time></trkpt><trkpt lat="44.30826706854699" lon="11.399098450337101"><ele>233.0</ele><time>2026-04-30T14:24:44Z</time></trkpt><trkpt lat="44.308426430952615" lon="11.39915288287895"><ele>233.0</ele><time>2026-04-30T14:24:45Z</time></trkpt><trkpt lat="44.30858203742221" lon="11.399200960137364"><ele>233.0</ele><time>2026-04-30T14:24:46Z</time></trkpt><trkpt lat="44.30872986736393" lon="11.399264045553743"><ele>233.0</ele><time>2026-04-30T14:24:47Z</time></trkpt><trkpt lat="44.30886733959453" lon="11.39935677824767"><ele>232.0</ele><time>2026-04-30T14:24:48Z</time></trkpt><trkpt lat="44.30899071499391" lon="11.399475169929362"><ele>231.0</ele><time>2026-04-30T14:24:49Z</time></trkpt><trkpt lat="44.30909981935808" lon="11.399603826903315"><ele>230.0</ele><time>2026-04-30T14:24:50Z</time></trkpt><trkpt lat="44.30923021878797" lon="11.399757056077789"><ele>233.33333333333334</ele><time>2026-04-30T14:24:51Z</time></trkpt><trkpt lat="44.30936378098422" lon="11.39989940143294"><ele>236.66666666666669</ele><time>2026-04-30T14:24:52Z</time></trkpt><trkpt lat="44.30950765310752" lon="11.400024998136683"><ele>240.0</ele><time>2026-04-30T14:24:53Z</time></trkpt><trkpt lat="44.30966965946659" lon="11.400135895133797"><ele>236.33333333333331</ele><time>2026-04-30T14:24:54Z</time></trkpt><trkpt lat="44.30982491729719" lon="11.40022301442369"><ele>232.66666666666666</ele><time>2026-04-30T14:24:55Z</time></trkpt><trkpt lat="44.309978529729484" lon="11.40029758270805"><ele>229.0</ele><time>2026-04-30T14:24:56Z</time></trkpt><trkpt lat="44.31012952552254" lon="11.400363597191278"><ele>229.0</ele><time>2026-04-30T14:24:57Z</time></trkpt><trkpt lat="44.310288586054284" lon="11.400420326189208"><ele>229.0</ele><time>2026-04-30T14:24:58Z</time></trkpt><trkpt lat="44.31045832746515" lon="11.400455749765083"><ele>229.0</ele><time>2026-04-30T14:24:59Z</time></trkpt><trkpt lat="44.31062951616167" lon="11.400474078402732"><ele>228.33333333333331</ele><time>2026-04-30T14:25:00Z</time></trkpt><trkpt lat="44.31079240079448" lon="11.400487105850415"><ele>227.66666666666669</ele><time>2026-04-30T14:25:01Z</time></trkpt><trkpt lat="44.31093965385017" lon="11.400507769582086"><ele>227.0</ele><time>2026-04-30T14:25:02Z</time></trkpt><trkpt lat="44.3110784003922" lon="11.400528427900815"><ele>230.66666666666669</ele><time>2026-04-30T14:25:03Z</time></trkpt><trkpt lat="44.31122049033758" lon="11.400553210595062"><ele>234.33333333333331</ele><time>2026-04-30T14:25:04Z</time></trkpt><trkpt lat="44.311369262196514" lon="11.400581487013811"><ele>238.0</ele><time>2026-04-30T14:25:05Z</time></trkpt><trkpt lat="44.311526498012114" lon="11.400532221480097"><ele>238.0</ele><time>2026-04-30T14:25:06Z</time></trkpt><trkpt lat="44.31168407057216" lon="11.400488526246328"><ele>238.0</ele><time>2026-04-30T14:25:07Z</time></trkpt><trkpt lat="44.31183326111132" lon="11.40047103676686"><ele>238.0</ele><time>2026-04-30T14:25:08Z</time></trkpt><trkpt lat="44.31198410875069" lon="11.400501593678115"><ele>238.0</ele><time>2026-04-30T14:25:09Z</time></trkpt><trkpt lat="44.31213041946723" lon="11.400579307928817"><ele>238.0</ele><time>2026-04-30T14:25:10Z</time></trkpt><trkpt lat="44.31227934818603" lon="11.400657657334794"><ele>238.0</ele><time>2026-04-30T14:25:11Z</time></trkpt><trkpt lat="44.31244164611622" lon="11.40072591988994"><ele>234.0</ele><time>2026-04-30T14:25:12Z</time></trkpt><trkpt lat="44.312585817895524" lon="11.400802513220976"><ele>230.0</ele><time>2026-04-30T14:25:13Z</time></trkpt><trkpt lat="44.312744809871006" lon="11.400880564728704"><ele>226.0</ele><time>2026-04-30T14:25:14Z</time></trkpt><trkpt lat="44.31289322538867" lon="11.40096588307107"><ele>226.0</ele><time>2026-04-30T14:25:15Z</time></trkpt><trkpt lat="44.313028013612225" lon="11.401050999995887"><ele>226.0</ele><time>2026-04-30T14:25:16Z</time></trkpt><trkpt lat="44.31314490103409" lon="11.401154896113317"><ele>226.0</ele><time>2026-04-30T14:25:17Z</time></trkpt><trkpt lat="44.31322684002724" lon="11.401314603081936"><ele>226.0</ele><time>2026-04-30T14:25:18Z</time></trkpt><trkpt lat="44.31330429857105" lon="11.401480645129462"><ele>225.66666666666666</ele><time>2026-04-30T14:25:19Z</time></trkpt><trkpt lat="44.31338296241103" lon="11.401650647313298"><ele>225.33333333333331</ele><time>2026-04-30T14:25:20Z</time></trkpt><trkpt lat="44.31348085006827" lon="11.401820305724877"><ele>225.0</ele><time>2026-04-30T14:25:21Z</time></trkpt><trkpt lat="44.313595449649384" lon="11.401967164877204"><ele>225.0</ele><time>2026-04-30T14:25:22Z</time></trkpt><trkpt lat="44.313733134552024" lon="11.402077384745954"><ele>225.0</ele><time>2026-04-30T14:25:23Z</time></trkpt><trkpt lat="44.31387604156705" lon="11.402179977038639"><ele>225.0</ele><time>2026-04-30T14:25:24Z</time></trkpt><trkpt lat="44.31403137439066" lon="11.402266063449607"><ele>224.66666666666669</ele><time>2026-04-30T14:25:25Z</time></trkpt><trkpt lat="44.314184983579814" lon="11.402320857763328"><ele>224.33333333333334</ele><time>2026-04-30T14:25:26Z</time></trkpt><trkpt lat="44.31434843985812" lon="11.40234592978758"><ele>224.0</ele><time>2026-04-30T14:25:27Z</time></trkpt><trkpt lat="44.3145163714557" lon="11.402338686993772"><ele>224.0</ele><time>2026-04-30T14:25:28Z</time></trkpt><trkpt lat="44.31467314587756" lon="11.402320246675966"><ele>224.0</ele><time>2026-04-30T14:25:29Z</time></trkpt><trkpt lat="44.31481919262" lon="11.40229909208106"><ele>224.0</ele><time>2026-04-30T14:25:30Z</time></trkpt><trkpt lat="44.314961371510904" lon="11.402281840570542"><ele>224.0</ele><time>2026-04-30T14:25:31Z</time></trkpt><trkpt lat="44.31510089188469" lon="11.40230086831063"><ele>224.66666666666669</ele><time>2026-04-30T14:25:32Z</time></trkpt><trkpt lat="44.315234619025624" lon="11.402369855654989"><ele>225.33333333333331</ele><time>2026-04-30T14:25:33Z</time></trkpt><trkpt lat="44.31536801760129" lon="11.40247526984146"><ele>226.0</ele><time>2026-04-30T14:25:34Z</time></trkpt><trkpt lat="44.315484173279735" lon="11.402618308069805"><ele>224.33333333333331</ele><time>2026-04-30T14:25:35Z</time></trkpt><trkpt lat="44.315601080470095" lon="11.402744899937238"><ele>222.66666666666669</ele><time>2026-04-30T14:25:36Z</time></trkpt><trkpt lat="44.315721787342355" lon="11.402894406824341"><ele>221.0</ele><time>2026-04-30T14:25:37Z</time></trkpt><trkpt lat="44.31583538358175" lon="11.40305589743687"><ele>226.33333333333334</ele><time>2026-04-30T14:25:38Z</time></trkpt><trkpt lat="44.31594570834473" lon="11.403216123870902"><ele>231.66666666666669</ele><time>2026-04-30T14:25:39Z</time></trkpt><trkpt lat="44.31606175288024" lon="11.403353040057782"><ele>237.0</ele><time>2026-04-30T14:25:40Z</time></trkpt><trkpt lat="44.316154469339864" lon="11.403498097729981"><ele>237.0</ele><time>2026-04-30T14:25:41Z</time></trkpt><trkpt lat="44.316280957459156" lon="11.403592217564327"><ele>237.0</ele><time>2026-04-30T14:25:42Z</time></trkpt><trkpt lat="44.31643066401456" lon="11.403625128641139"><ele>237.0</ele><time>2026-04-30T14:25:43Z</time></trkpt><trkpt lat="44.3165855688071" lon="11.403581048531318"><ele>233.33333333333331</ele><time>2026-04-30T14:25:44Z</time></trkpt><trkpt lat="44.31674349636348" lon="11.403520430940517"><ele>229.66666666666666</ele><time>2026-04-30T14:25:45Z</time></trkpt><trkpt lat="44.316908670262954" lon="11.403464271162647"><ele>226.0</ele><time>2026-04-30T14:25:46Z</time></trkpt><trkpt lat="44.31706963797711" lon="11.403411676324128"><ele>226.0</ele><time>2026-04-30T14:25:47Z</time></trkpt><trkpt lat="44.3172142933061" lon="11.4033637480806"><ele>226.0</ele><time>2026-04-30T14:25:48Z</time></trkpt><trkpt lat="44.31735822044903" lon="11.40329883839835"><ele>226.0</ele><time>2026-04-30T14:25:49Z</time></trkpt><trkpt lat="44.31750496127323" lon="11.403271783425485"><ele>226.0</ele><time>2026-04-30T14:25:50Z</time></trkpt><trkpt lat="44.31765685973517" lon="11.403260605781625"><ele>226.66666666666666</ele><time>2026-04-30T14:25:51Z</time></trkpt><trkpt lat="44.317810741617635" lon="11.403240583093487"><ele>227.33333333333331</ele><time>2026-04-30T14:25:52Z</time></trkpt><trkpt lat="44.31797449299578" lon="11.403192273640315"><ele>228.0</ele><time>2026-04-30T14:25:53Z</time></trkpt><trkpt lat="44.318131432557" lon="11.403107621734648"><ele>228.5</ele><time>2026-04-30T14:25:54Z</time></trkpt><trkpt lat="44.31826966710324" lon="11.403017191974174"><ele>229.0</ele><time>2026-04-30T14:25:55Z</time></trkpt><trkpt lat="44.318399067296944" lon="11.40295944051558"><ele>229.5</ele><time>2026-04-30T14:25:56Z</time></trkpt><trkpt lat="44.31852741133666" lon="11.402996292357487"><ele>230.0</ele><time>2026-04-30T14:25:57Z</time></trkpt><trkpt lat="44.318648298255525" lon="11.403026811512271"><ele>230.0</ele><time>2026-04-30T14:25:58Z</time></trkpt><trkpt lat="44.3187736514412" lon="11.403044697876673"><ele>230.0</ele><time>2026-04-30T14:25:59Z</time></trkpt><trkpt lat="44.31890599736488" lon="11.403078621817434"><ele>230.0</ele><time>2026-04-30T14:26:00Z</time></trkpt><trkpt lat="44.31904494181507" lon="11.403108156818421"><ele>230.0</ele><time>2026-04-30T14:26:01Z</time></trkpt><trkpt lat="44.3191814213481" lon="11.403142315796028"><ele>229.25</ele><time>2026-04-30T14:26:02Z</time></trkpt><trkpt lat="44.319309765945874" lon="11.403189727880417"><ele>228.5</ele><time>2026-04-30T14:26:03Z</time></trkpt><trkpt lat="44.319426787666536" lon="11.403264916972336"><ele>227.75</ele><time>2026-04-30T14:26:04Z</time></trkpt><trkpt lat="44.31952655389179" lon="11.403378753069653"><ele>227.0</ele><time>2026-04-30T14:26:05Z</time></trkpt><trkpt lat="44.31961129727203" lon="11.403530261390731"><ele>227.0</ele><time>2026-04-30T14:26:06Z</time></trkpt><trkpt lat="44.31969309979395" lon="11.403693588724597"><ele>227.0</ele><time>2026-04-30T14:26:07Z</time></trkpt><trkpt lat="44.31978439470129" lon="11.403856719598659"><ele>227.0</ele><time>2026-04-30T14:26:08Z</time></trkpt><trkpt lat="44.319876210806115" lon="11.404017240599133"><ele>227.0</ele><time>2026-04-30T14:26:09Z</time></trkpt><trkpt lat="44.3199552247071" lon="11.404175071517372"><ele>229.5</ele><time>2026-04-30T14:26:10Z</time></trkpt><trkpt lat="44.32002877667279" lon="11.404323605008598"><ele>232.0</ele><time>2026-04-30T14:26:11Z</time></trkpt><trkpt lat="44.32010221293832" lon="11.404473660476352"><ele>234.5</ele><time>2026-04-30T14:26:12Z</time></trkpt><trkpt lat="44.320175579473265" lon="11.404622608884036"><ele>237.0</ele><time>2026-04-30T14:26:13Z</time></trkpt><trkpt lat="44.32024223885982" lon="11.4047704228391"><ele>237.0</ele><time>2026-04-30T14:26:14Z</time></trkpt><trkpt lat="44.320311164698595" lon="11.404908641798537"><ele>237.0</ele><time>2026-04-30T14:26:15Z</time></trkpt><trkpt lat="44.320380793309695" lon="11.405042721853818"><ele>237.0</ele><time>2026-04-30T14:26:16Z</time></trkpt><trkpt lat="44.320449359373754" lon="11.405168020267945"><ele>237.0</ele><time>2026-04-30T14:26:17Z</time></trkpt><trkpt lat="44.32051909782465" lon="11.405290468140981"><ele>236.0</ele><time>2026-04-30T14:26:18Z</time></trkpt><trkpt lat="44.32059194842304" lon="11.405405285348653"><ele>235.0</ele><time>2026-04-30T14:26:19Z</time></trkpt><trkpt lat="44.320671828727896" lon="11.405507749287304"><ele>234.0</ele><time>2026-04-30T14:26:20Z</time></trkpt><trkpt lat="44.32075592805178" lon="11.405597053284815"><ele>233.0</ele><time>2026-04-30T14:26:21Z</time></trkpt><trkpt lat="44.32085015722241" lon="11.405676950652229"><ele>232.0</ele><time>2026-04-30T14:26:22Z</time></trkpt><trkpt lat="44.320956902815254" lon="11.405738906882805"><ele>232.0</ele><time>2026-04-30T14:26:23Z</time></trkpt><trkpt lat="44.321075968783504" lon="11.405768064172214"><ele>232.0</ele><time>2026-04-30T14:26:24Z</time></trkpt><trkpt lat="44.32120205963454" lon="11.40578844020564"><ele>232.0</ele><time>2026-04-30T14:26:25Z</time></trkpt><trkpt lat="44.321330528212755" lon="11.405801419132018"><ele>232.0</ele><time>2026-04-30T14:26:26Z</time></trkpt><trkpt lat="44.32146342713708" lon="11.405802338296368"><ele>229.75</ele><time>2026-04-30T14:26:27Z</time></trkpt><trkpt lat="44.32159957243876" lon="11.405779971734642"><ele>227.5</ele><time>2026-04-30T14:26:28Z</time></trkpt><trkpt lat="44.3217367558991" lon="11.40571771507897"><ele>225.25</ele><time>2026-04-30T14:26:29Z</time></trkpt><trkpt lat="44.321870559055455" lon="11.40564428290332"><ele>223.0</ele><time>2026-04-30T14:26:30Z</time></trkpt><trkpt lat="44.322001491324535" lon="11.405579621958742"><ele>223.0</ele><time>2026-04-30T14:26:31Z</time></trkpt><trkpt lat="44.32213385164802" lon="11.405535936021302"><ele>223.0</ele><time>2026-04-30T14:26:32Z</time></trkpt><trkpt lat="44.32226832829663" lon="11.405511766264024"><ele>223.0</ele><time>2026-04-30T14:26:33Z</time></trkpt><trkpt lat="44.32240539740746" lon="11.405500501316094"><ele>223.0</ele><time>2026-04-30T14:26:34Z</time></trkpt><trkpt lat="44.32254408061601" lon="11.405488623662547"><ele>221.5</ele><time>2026-04-30T14:26:35Z</time></trkpt><trkpt lat="44.322680663532594" lon="11.405475563916426"><ele>220.0</ele><time>2026-04-30T14:26:36Z</time></trkpt><trkpt lat="44.32281888789579" lon="11.40546386414997"><ele>218.5</ele><time>2026-04-30T14:26:37Z</time></trkpt><trkpt lat="44.322956910406205" lon="11.4054437840394"><ele>217.0</ele><time>2026-04-30T14:26:38Z</time></trkpt><trkpt lat="44.323087400337094" lon="11.405401108041664"><ele>217.0</ele><time>2026-04-30T14:26:39Z</time></trkpt><trkpt lat="44.3232137390683" lon="11.405321919482082"><ele>217.0</ele><time>2026-04-30T14:26:40Z</time></trkpt><trkpt lat="44.32333365893286" lon="11.405218538531777"><ele>217.0</ele><time>2026-04-30T14:26:41Z</time></trkpt><trkpt lat="44.32344679461735" lon="11.405106742445325"><ele>217.0</ele><time>2026-04-30T14:26:42Z</time></trkpt><trkpt lat="44.32356008160699" lon="11.404999866255883"><ele>217.0</ele><time>2026-04-30T14:26:43Z</time></trkpt><trkpt lat="44.32366844860985" lon="11.40490196537402"><ele>217.0</ele><time>2026-04-30T14:26:44Z</time></trkpt><trkpt lat="44.323773734768196" lon="11.404809425330827"><ele>217.0</ele><time>2026-04-30T14:26:45Z</time></trkpt><trkpt lat="44.32388782766354" lon="11.404731013776034"><ele>217.0</ele><time>2026-04-30T14:26:46Z</time></trkpt><trkpt lat="44.3240097803586" lon="11.404665465551085"><ele>214.75</ele><time>2026-04-30T14:26:47Z</time></trkpt><trkpt lat="44.32413749195349" lon="11.404611722259565"><ele>212.5</ele><time>2026-04-30T14:26:48Z</time></trkpt><trkpt lat="44.3242703032091" lon="11.404562591082282"><ele>210.25</ele><time>2026-04-30T14:26:49Z</time></trkpt><trkpt lat="44.32440339510356" lon="11.404521822223147"><ele>208.0</ele><time>2026-04-30T14:26:50Z</time></trkpt><trkpt lat="44.32454075749135" lon="11.404492544910145"><ele>208.0</ele><time>2026-04-30T14:26:51Z</time></trkpt><trkpt lat="44.32467926737026" lon="11.40447731174379"><ele>208.0</ele><time>2026-04-30T14:26:52Z</time></trkpt><trkpt lat="44.32481667737787" lon="11.404488031367624"><ele>208.0</ele><time>2026-04-30T14:26:53Z</time></trkpt><trkpt lat="44.32494767152499" lon="11.404528123950714"><ele>208.0</ele><time>2026-04-30T14:26:54Z</time></trkpt><trkpt lat="44.325075026960995" lon="11.4045779355892"><ele>208.0</ele><time>2026-04-30T14:26:55Z</time></trkpt><trkpt lat="44.32520360085837" lon="11.404633821706481"><ele>208.0</ele><time>2026-04-30T14:26:56Z</time></trkpt><trkpt lat="44.32533063929965" lon="11.404682537227805"><ele>208.0</ele><time>2026-04-30T14:26:57Z</time></trkpt><trkpt lat="44.32545656960663" lon="11.40472075524393"><ele>208.0</ele><time>2026-04-30T14:26:58Z</time></trkpt><trkpt lat="44.325581477934946" lon="11.40474306153133"><ele>208.5</ele><time>2026-04-30T14:26:59Z</time></trkpt><trkpt lat="44.32570932485632" lon="11.404756176732587"><ele>209.0</ele><time>2026-04-30T14:27:00Z</time></trkpt><trkpt lat="44.325833944973745" lon="11.404763904984238"><ele>209.5</ele><time>2026-04-30T14:27:01Z</time></trkpt><trkpt lat="44.32596197172968" lon="11.404770023963176"><ele>210.0</ele><time>2026-04-30T14:27:02Z</time></trkpt><trkpt lat="44.326093341738364" lon="11.404773846975111"><ele>210.0</ele><time>2026-04-30T14:27:03Z</time></trkpt><trkpt lat="44.32622952736377" lon="11.404770029986638"><ele>210.0</ele><time>2026-04-30T14:27:04Z</time></trkpt><trkpt lat="44.32636844194108" lon="11.404765842538351"><ele>210.0</ele><time>2026-04-30T14:27:05Z</time></trkpt><trkpt lat="44.32649361437605" lon="11.40476479115684"><ele>210.0</ele><time>2026-04-30T14:27:06Z</time></trkpt><trkpt lat="44.326616714599716" lon="11.40476790282973"><ele>210.0</ele><time>2026-04-30T14:27:07Z</time></trkpt><trkpt lat="44.32674046901503" lon="11.404771315904835"><ele>210.0</ele><time>2026-04-30T14:27:08Z</time></trkpt><trkpt lat="44.32686583206263" lon="11.404776525456981"><ele>210.0</ele><time>2026-04-30T14:27:09Z</time></trkpt><trkpt lat="44.32699751934393" lon="11.404786797191992"><ele>210.0</ele><time>2026-04-30T14:27:10Z</time></trkpt><trkpt lat="44.3271333109112" lon="11.40479631576479"><ele>208.75</ele><time>2026-04-30T14:27:11Z</time></trkpt><trkpt lat="44.32727242151804" lon="11.40480855304677"><ele>207.5</ele><time>2026-04-30T14:27:12Z</time></trkpt><trkpt lat="44.32740266782372" lon="11.404820572352655"><ele>206.25</ele><time>2026-04-30T14:27:13Z</time></trkpt><trkpt lat="44.32754100076944" lon="11.404835154863036"><ele>205.0</ele><time>2026-04-30T14:27:14Z</time></trkpt><trkpt lat="44.32767502341354" lon="11.404871937916107"><ele>205.0</ele><time>2026-04-30T14:27:15Z</time></trkpt><trkpt lat="44.32779542792722" lon="11.404962848247985"><ele>205.0</ele><time>2026-04-30T14:27:16Z</time></trkpt><trkpt lat="44.327909617008494" lon="11.405073025815026"><ele>205.0</ele><time>2026-04-30T14:27:17Z</time></trkpt><trkpt lat="44.32801427100318" lon="11.405196199231927"><ele>205.0</ele><time>2026-04-30T14:27:18Z</time></trkpt><trkpt lat="44.328102443340605" lon="11.405330474096056"><ele>205.0</ele><time>2026-04-30T14:27:19Z</time></trkpt><trkpt lat="44.32818519173658" lon="11.40547635028944"><ele>205.0</ele><time>2026-04-30T14:27:20Z</time></trkpt><trkpt lat="44.32826188281779" lon="11.405628885633561"><ele>205.0</ele><time>2026-04-30T14:27:21Z</time></trkpt><trkpt lat="44.32832890293716" lon="11.405796582781097"><ele>205.0</ele><time>2026-04-30T14:27:22Z</time></trkpt><trkpt lat="44.32838667899606" lon="11.405974069644742"><ele>205.0</ele><time>2026-04-30T14:27:23Z</time></trkpt><trkpt lat="44.32842672663903" lon="11.40614444335548"><ele>205.0</ele><time>2026-04-30T14:27:24Z</time></trkpt><trkpt lat="44.32846274826972" lon="11.406304292312178"><ele>205.0</ele><time>2026-04-30T14:27:25Z</time></trkpt><trkpt lat="44.32850310915675" lon="11.40645484690285"><ele>205.0</ele><time>2026-04-30T14:27:26Z</time></trkpt><trkpt lat="44.32853968784328" lon="11.406591325266652"><ele>205.2</ele><time>2026-04-30T14:27:27Z</time></trkpt><trkpt lat="44.328574778674266" lon="11.406707667680855"><ele>205.4</ele><time>2026-04-30T14:27:28Z</time></trkpt><trkpt lat="44.32857890529667" lon="11.406798304711876"><ele>205.60000000000002</ele><time>2026-04-30T14:27:29Z</time></trkpt><trkpt lat="44.32873452861727" lon="11.406803623010537"><ele>205.8</ele><time>2026-04-30T14:27:31Z</time></trkpt><trkpt lat="44.32880178533683" lon="11.406761855078056"><ele>206.0</ele><time>2026-04-30T14:27:32Z</time></trkpt><trkpt lat="44.32888097925696" lon="11.40673532109817"><ele>205.16666666666669</ele><time>2026-04-30T14:27:33Z</time></trkpt><trkpt lat="44.328977105606086" lon="11.406704428622438"><ele>204.33333333333334</ele><time>2026-04-30T14:27:34Z</time></trkpt><trkpt lat="44.32906790085705" lon="11.406672545615724"><ele>203.5</ele><time>2026-04-30T14:27:35Z</time></trkpt><trkpt lat="44.329143816295016" lon="11.406619614347466"><ele>202.66666666666669</ele><time>2026-04-30T14:27:36Z</time></trkpt><trkpt lat="44.32921929075436" lon="11.406588025055795"><ele>201.83333333333334</ele><time>2026-04-30T14:27:37Z</time></trkpt><trkpt lat="44.32929838171609" lon="11.406579155677628"><ele>201.0</ele><time>2026-04-30T14:27:38Z</time></trkpt><trkpt lat="44.329374649248" lon="11.406547804847628"><ele>201.0</ele><time>2026-04-30T14:27:39Z</time></trkpt><trkpt lat="44.32944863104817" lon="11.406517801425922"><ele>201.0</ele><time>2026-04-30T14:27:40Z</time></trkpt><trkpt lat="44.329520278079194" lon="11.406488986716326"><ele>201.0</ele><time>2026-04-30T14:27:41Z</time></trkpt><trkpt lat="44.32958549070862" lon="11.40644587283509"><ele>201.0</ele><time>2026-04-30T14:27:42Z</time></trkpt><trkpt lat="44.32965524561754" lon="11.406448896576132"><ele>201.0</ele><time>2026-04-30T14:27:43Z</time></trkpt><trkpt lat="44.329717206137886" lon="11.406464471137067"><ele>201.0</ele><time>2026-04-30T14:27:44Z</time></trkpt><trkpt lat="44.32979030877494" lon="11.406450363361923"><ele>201.0</ele><time>2026-04-30T14:27:46Z</time></trkpt><trkpt lat="44.3297843707747" lon="11.406362140528008"><ele>199.0</ele><time>2026-04-30T14:29:02Z</time></trkpt><trkpt lat="44.32984144188506" lon="11.40630723287417"><ele>201.0</ele><time>2026-04-30T14:33:07Z</time></trkpt></trkseg></trk></gpx>